<?xml version='1.0' encoding='UTF-8'?><gpx version="1.1" creator="JPX - https://github.com/jenetics/jpx" xmlns="http://www.topografix.com/GPX/1/1"><trk><trkseg><trkpt lat="38.1058212" lon="15.6415424"><ele>22.0</ele><time>2026-04-25T07:08:06.666Z</time></trkpt><trkpt lat="38.1058771" lon="15.6414546"><ele>22.0</ele><time>2026-04-25T07:08:57.666Z</time></trkpt><trkpt lat="38.1059732" lon="15.6413195"><ele>22.0</ele><time>2026-04-25T07:08:59.667Z</time></trkpt><trkpt lat="38.1060366" lon="15.6412245"><ele>22.0</ele><time>2026-04-25T07:09:00.667Z</time></trkpt><trkpt lat="38.1061088" lon="15.6411126"><ele>22.0</ele><time>2026-04-25T07:09:01.666Z</time></trkpt><trkpt lat="38.1061736" lon="15.6410129"><ele>21.666666666666664</ele><time>2026-04-25T07:09:02.666Z</time></trkpt><trkpt lat="38.1062248" lon="15.640934"><ele>21.333333333333332</ele><time>2026-04-25T07:09:03.667Z</time></trkpt><trkpt lat="38.1062871" lon="15.6408343"><ele>21.0</ele><time>2026-04-25T07:09:05.667Z</time></trkpt><trkpt lat="38.1063213" lon="15.6407555"><ele>20.666666666666668</ele><time>2026-04-25T07:09:09.666Z</time></trkpt><trkpt lat="38.1064002" lon="15.6406466"><ele>20.333333333333336</ele><time>2026-04-25T07:09:11.666Z</time></trkpt><trkpt lat="38.1064435" lon="15.64058"><ele>20.0</ele><time>2026-04-25T07:09:12.667Z</time></trkpt><trkpt lat="38.1065135" lon="15.6404458"><ele>20.0</ele><time>2026-04-25T07:09:14.667Z</time></trkpt><trkpt lat="38.1065696" lon="15.6403707"><ele>20.0</ele><time>2026-04-25T07:09:15.666Z</time></trkpt><trkpt lat="38.1066293" lon="15.6402915"><ele>20.0</ele><time>2026-04-25T07:09:16.666Z</time></trkpt><trkpt lat="38.106685" lon="15.6402121"><ele>20.0</ele><time>2026-04-25T07:09:17.666Z</time></trkpt><trkpt lat="38.106731" lon="15.6401259"><ele>20.0</ele><time>2026-04-25T07:09:18.666Z</time></trkpt><trkpt lat="38.1067841" lon="15.640037"><ele>20.0</ele><time>2026-04-25T07:09:19.667Z</time></trkpt><trkpt lat="38.106844" lon="15.6399517"><ele>19.2</ele><time>2026-04-25T07:09:20.666Z</time></trkpt><trkpt lat="38.1069017" lon="15.6398733"><ele>18.4</ele><time>2026-04-25T07:09:21.666Z</time></trkpt><trkpt lat="38.1069444" lon="15.6398015"><ele>17.6</ele><time>2026-04-25T07:09:22.666Z</time></trkpt><trkpt lat="38.1070003" lon="15.6397004"><ele>16.8</ele><time>2026-04-25T07:09:24.666Z</time></trkpt><trkpt lat="38.106981" lon="15.639572"><ele>16.0</ele><time>2026-04-25T07:09:34.666Z</time></trkpt><trkpt lat="38.1069029" lon="15.639437"><ele>15.5</ele><time>2026-04-25T07:09:36.666Z</time></trkpt><trkpt lat="38.1068373" lon="15.6393629"><ele>15.0</ele><time>2026-04-25T07:09:37.666Z</time></trkpt><trkpt lat="38.106751" lon="15.6392812"><ele>14.5</ele><time>2026-04-25T07:09:38.667Z</time></trkpt><trkpt lat="38.1066505" lon="15.6391885"><ele>14.0</ele><time>2026-04-25T07:09:39.666Z</time></trkpt><trkpt lat="38.1065298" lon="15.6390813"><ele>14.0</ele><time>2026-04-25T07:09:40.666Z</time></trkpt><trkpt lat="38.1063972" lon="15.6389786"><ele>14.0</ele><time>2026-04-25T07:09:41.666Z</time></trkpt><trkpt lat="38.1062655" lon="15.6388577"><ele>14.0</ele><time>2026-04-25T07:09:42.666Z</time></trkpt><trkpt lat="38.106125" lon="15.6387463"><ele>14.0</ele><time>2026-04-25T07:09:43.666Z</time></trkpt><trkpt lat="38.1060004" lon="15.6386507"><ele>14.0</ele><time>2026-04-25T07:09:44.666Z</time></trkpt><trkpt lat="38.1058982" lon="15.6385707"><ele>14.0</ele><time>2026-04-25T07:09:45.667Z</time></trkpt><trkpt lat="38.1058027" lon="15.6385025"><ele>14.0</ele><time>2026-04-25T07:09:46.666Z</time></trkpt><trkpt lat="38.1057069" lon="15.6384402"><ele>13.25</ele><time>2026-04-25T07:09:47.666Z</time></trkpt><trkpt lat="38.1056088" lon="15.6383675"><ele>12.5</ele><time>2026-04-25T07:09:48.666Z</time></trkpt><trkpt lat="38.1055012" lon="15.6383018"><ele>11.75</ele><time>2026-04-25T07:09:49.666Z</time></trkpt><trkpt lat="38.1053859" lon="15.6382328"><ele>11.0</ele><time>2026-04-25T07:09:50.666Z</time></trkpt><trkpt lat="38.1052714" lon="15.6381516"><ele>11.0</ele><time>2026-04-25T07:09:51.667Z</time></trkpt><trkpt lat="38.1051517" lon="15.6380634"><ele>11.0</ele><time>2026-04-25T07:09:52.666Z</time></trkpt><trkpt lat="38.1050326" lon="15.6379696"><ele>11.0</ele><time>2026-04-25T07:09:53.666Z</time></trkpt><trkpt lat="38.1049129" lon="15.6378634"><ele>11.0</ele><time>2026-04-25T07:09:54.666Z</time></trkpt><trkpt lat="38.1048083" lon="15.6377486"><ele>12.0</ele><time>2026-04-25T07:09:55.666Z</time></trkpt><trkpt lat="38.1046985" lon="15.6376672"><ele>13.0</ele><time>2026-04-25T07:09:56.666Z</time></trkpt><trkpt lat="38.1045838" lon="15.6375844"><ele>14.0</ele><time>2026-04-25T07:09:57.666Z</time></trkpt><trkpt lat="38.104469" lon="15.637501"><ele>15.0</ele><time>2026-04-25T07:09:58.667Z</time></trkpt><trkpt lat="38.1043717" lon="15.6374175"><ele>15.0</ele><time>2026-04-25T07:09:59.666Z</time></trkpt><trkpt lat="38.1042828" lon="15.6373408"><ele>15.0</ele><time>2026-04-25T07:10:00.667Z</time></trkpt><trkpt lat="38.104204" lon="15.6372628"><ele>15.0</ele><time>2026-04-25T07:10:01.666Z</time></trkpt><trkpt lat="38.1041315" lon="15.6371877"><ele>15.0</ele><time>2026-04-25T07:10:02.666Z</time></trkpt><trkpt lat="38.104059" lon="15.6371134"><ele>15.0</ele><time>2026-04-25T07:10:03.666Z</time></trkpt><trkpt lat="38.1039813" lon="15.6370318"><ele>14.333333333333334</ele><time>2026-04-25T07:10:04.666Z</time></trkpt><trkpt lat="38.1039105" lon="15.6369549"><ele>13.666666666666666</ele><time>2026-04-25T07:10:05.666Z</time></trkpt><trkpt lat="38.103852" lon="15.6368909"><ele>13.0</ele><time>2026-04-25T07:10:06.667Z</time></trkpt><trkpt lat="38.1038011" lon="15.6368383"><ele>12.333333333333332</ele><time>2026-04-25T07:10:07.666Z</time></trkpt><trkpt lat="38.1037425" lon="15.6367759"><ele>11.666666666666666</ele><time>2026-04-25T07:10:09.667Z</time></trkpt><trkpt lat="38.1036747" lon="15.6368002"><ele>11.0</ele><time>2026-04-25T07:10:12.666Z</time></trkpt><trkpt lat="38.1035976" lon="15.6369349"><ele>12.0</ele><time>2026-04-25T07:10:14.666Z</time></trkpt><trkpt lat="38.1035651" lon="15.6370363"><ele>13.0</ele><time>2026-04-25T07:10:15.666Z</time></trkpt><trkpt lat="38.1035392" lon="15.6371216"><ele>14.0</ele><time>2026-04-25T07:10:16.667Z</time></trkpt><trkpt lat="38.1034846" lon="15.6371984"><ele>15.0</ele><time>2026-04-25T07:10:18.666Z</time></trkpt><trkpt lat="38.1034301" lon="15.6372449"><ele>16.0</ele><time>2026-04-25T07:10:20.666Z</time></trkpt><trkpt lat="38.1033688" lon="15.6373202"><ele>17.0</ele><time>2026-04-25T07:10:22.666Z</time></trkpt><trkpt lat="38.103294" lon="15.6374028"><ele>17.333333333333336</ele><time>2026-04-25T07:10:24.666Z</time></trkpt><trkpt lat="38.1032443" lon="15.6374721"><ele>17.666666666666668</ele><time>2026-04-25T07:10:26.666Z</time></trkpt><trkpt lat="38.1031925" lon="15.6375467"><ele>18.0</ele><time>2026-04-25T07:10:28.666Z</time></trkpt><trkpt lat="38.1031545" lon="15.6376153"><ele>18.333333333333332</ele><time>2026-04-25T07:10:31.666Z</time></trkpt><trkpt lat="38.1030717" lon="15.6376541"><ele>18.666666666666664</ele><time>2026-04-25T07:10:34.667Z</time></trkpt><trkpt lat="38.1029596" lon="15.6375915"><ele>19.0</ele><time>2026-04-25T07:10:36.666Z</time></trkpt><trkpt lat="38.1028968" lon="15.6375273"><ele>19.0</ele><time>2026-04-25T07:10:37.666Z</time></trkpt><trkpt lat="38.1028415" lon="15.6374678"><ele>19.0</ele><time>2026-04-25T07:10:38.667Z</time></trkpt><trkpt lat="38.1027775" lon="15.6373971"><ele>19.0</ele><time>2026-04-25T07:10:39.665Z</time></trkpt><trkpt lat="38.1027167" lon="15.6373246"><ele>19.0</ele><time>2026-04-25T07:10:40.666Z</time></trkpt><trkpt lat="38.1026555" lon="15.6372539"><ele>19.0</ele><time>2026-04-25T07:10:41.665Z</time></trkpt><trkpt lat="38.1025941" lon="15.6371719"><ele>19.0</ele><time>2026-04-25T07:10:42.665Z</time></trkpt><trkpt lat="38.1025293" lon="15.637097"><ele>19.0</ele><time>2026-04-25T07:10:43.665Z</time></trkpt><trkpt lat="38.1024612" lon="15.6370313"><ele>19.0</ele><time>2026-04-25T07:10:44.666Z</time></trkpt><trkpt lat="38.102397" lon="15.6369671"><ele>19.0</ele><time>2026-04-25T07:10:45.665Z</time></trkpt><trkpt lat="38.1023356" lon="15.6369011"><ele>19.0</ele><time>2026-04-25T07:10:46.666Z</time></trkpt><trkpt lat="38.1022662" lon="15.6368296"><ele>19.0</ele><time>2026-04-25T07:10:47.665Z</time></trkpt><trkpt lat="38.1021808" lon="15.6367367"><ele>19.0</ele><time>2026-04-25T07:10:48.665Z</time></trkpt><trkpt lat="38.1020733" lon="15.63662"><ele>19.666666666666664</ele><time>2026-04-25T07:10:49.665Z</time></trkpt><trkpt lat="38.1019559" lon="15.6364759"><ele>20.333333333333332</ele><time>2026-04-25T07:10:50.665Z</time></trkpt><trkpt lat="38.1018356" lon="15.6363355"><ele>21.0</ele><time>2026-04-25T07:10:51.665Z</time></trkpt><trkpt lat="38.101723" lon="15.6362092"><ele>19.8</ele><time>2026-04-25T07:10:52.666Z</time></trkpt><trkpt lat="38.1016243" lon="15.6361001"><ele>18.6</ele><time>2026-04-25T07:10:53.665Z</time></trkpt><trkpt lat="38.101551" lon="15.6359924"><ele>17.4</ele><time>2026-04-25T07:10:54.666Z</time></trkpt><trkpt lat="38.1014928" lon="15.6358936"><ele>16.2</ele><time>2026-04-25T07:10:55.665Z</time></trkpt><trkpt lat="38.1014636" lon="15.6357966"><ele>15.0</ele><time>2026-04-25T07:10:56.665Z</time></trkpt><trkpt lat="38.1014418" lon="15.6357205"><ele>14.6</ele><time>2026-04-25T07:10:57.666Z</time></trkpt><trkpt lat="38.1014323" lon="15.6355654"><ele>14.2</ele><time>2026-04-25T07:10:59.666Z</time></trkpt><trkpt lat="38.1014471" lon="15.6354448"><ele>13.8</ele><time>2026-04-25T07:11:00.665Z</time></trkpt><trkpt lat="38.101492" lon="15.6353047"><ele>13.4</ele><time>2026-04-25T07:11:01.665Z</time></trkpt><trkpt lat="38.1015364" lon="15.6351794"><ele>13.0</ele><time>2026-04-25T07:11:02.665Z</time></trkpt><trkpt lat="38.1015774" lon="15.6350734"><ele>12.999999999999998</ele><time>2026-04-25T07:11:03.665Z</time></trkpt><trkpt lat="38.1016036" lon="15.6349992"><ele>13.0</ele><time>2026-04-25T07:11:04.665Z</time></trkpt><trkpt lat="38.1016483" lon="15.634896"><ele>13.0</ele><time>2026-04-25T07:11:06.666Z</time></trkpt><trkpt lat="38.1016192" lon="15.6348224"><ele>13.0</ele><time>2026-04-25T07:11:08.665Z</time></trkpt><trkpt lat="38.1015122" lon="15.6348644"><ele>12.999999999999998</ele><time>2026-04-25T07:11:10.665Z</time></trkpt><trkpt lat="38.1014334" lon="15.6349591"><ele>13.0</ele><time>2026-04-25T07:11:11.665Z</time></trkpt><trkpt lat="38.1013533" lon="15.6350961"><ele>13.0</ele><time>2026-04-25T07:11:12.666Z</time></trkpt><trkpt lat="38.1012966" lon="15.6352419"><ele>13.0</ele><time>2026-04-25T07:11:13.665Z</time></trkpt><trkpt lat="38.1012621" lon="15.6353758"><ele>13.0</ele><time>2026-04-25T07:11:14.665Z</time></trkpt><trkpt lat="38.101237" lon="15.6355207"><ele>13.0</ele><time>2026-04-25T07:11:15.666Z</time></trkpt><trkpt lat="38.1012126" lon="15.6357173"><ele>13.0</ele><time>2026-04-25T07:11:16.665Z</time></trkpt><trkpt lat="38.1011701" lon="15.6359882"><ele>13.0</ele><time>2026-04-25T07:11:17.665Z</time></trkpt><trkpt lat="38.1011276" lon="15.6363006"><ele>15.5</ele><time>2026-04-25T07:11:18.665Z</time></trkpt><trkpt lat="38.1010803" lon="15.6366078"><ele>18.0</ele><time>2026-04-25T07:11:19.665Z</time></trkpt><trkpt lat="38.1010473" lon="15.6369168"><ele>17.5</ele><time>2026-04-25T07:11:20.665Z</time></trkpt><trkpt lat="38.1010286" lon="15.6372286"><ele>17.0</ele><time>2026-04-25T07:11:21.665Z</time></trkpt><trkpt lat="38.1010172" lon="15.6375405"><ele>16.5</ele><time>2026-04-25T07:11:22.666Z</time></trkpt><trkpt lat="38.1010035" lon="15.6378367"><ele>16.0</ele><time>2026-04-25T07:11:23.665Z</time></trkpt><trkpt lat="38.1009881" lon="15.6381129"><ele>16.0</ele><time>2026-04-25T07:11:24.665Z</time></trkpt><trkpt lat="38.1009807" lon="15.6383608"><ele>16.0</ele><time>2026-04-25T07:11:25.665Z</time></trkpt><trkpt lat="38.1009863" lon="15.6385855"><ele>16.0</ele><time>2026-04-25T07:11:26.665Z</time></trkpt><trkpt lat="38.1009935" lon="15.6387622"><ele>16.333333333333332</ele><time>2026-04-25T07:11:27.665Z</time></trkpt><trkpt lat="38.1010074" lon="15.6389115"><ele>16.666666666666664</ele><time>2026-04-25T07:11:28.665Z</time></trkpt><trkpt lat="38.1010273" lon="15.6390156"><ele>17.0</ele><time>2026-04-25T07:11:29.666Z</time></trkpt><trkpt lat="38.1010388" lon="15.6391001"><ele>17.333333333333332</ele><time>2026-04-25T07:11:30.665Z</time></trkpt><trkpt lat="38.1010596" lon="15.6391891"><ele>17.666666666666668</ele><time>2026-04-25T07:11:32.665Z</time></trkpt><trkpt lat="38.1010593" lon="15.6392776"><ele>18.0</ele><time>2026-04-25T07:11:45.665Z</time></trkpt><trkpt lat="38.1010686" lon="15.6393948"><ele>18.666666666666668</ele><time>2026-04-25T07:11:46.665Z</time></trkpt><trkpt lat="38.1010805" lon="15.6395781"><ele>19.333333333333336</ele><time>2026-04-25T07:11:47.665Z</time></trkpt><trkpt lat="38.1010975" lon="15.6398133"><ele>20.0</ele><time>2026-04-25T07:11:48.666Z</time></trkpt><trkpt lat="38.1011207" lon="15.6400462"><ele>20.0</ele><time>2026-04-25T07:11:49.665Z</time></trkpt><trkpt lat="38.1011427" lon="15.6402626"><ele>20.0</ele><time>2026-04-25T07:11:50.665Z</time></trkpt><trkpt lat="38.1011646" lon="15.6404792"><ele>20.0</ele><time>2026-04-25T07:11:51.666Z</time></trkpt><trkpt lat="38.1011874" lon="15.6407071"><ele>20.333333333333336</ele><time>2026-04-25T07:11:52.666Z</time></trkpt><trkpt lat="38.1012077" lon="15.6409516"><ele>20.666666666666668</ele><time>2026-04-25T07:11:53.665Z</time></trkpt><trkpt lat="38.101225" lon="15.6412036"><ele>21.0</ele><time>2026-04-25T07:11:54.666Z</time></trkpt><trkpt lat="38.1012432" lon="15.6414539"><ele>22.333333333333336</ele><time>2026-04-25T07:11:55.665Z</time></trkpt><trkpt lat="38.1012631" lon="15.6416736"><ele>23.666666666666668</ele><time>2026-04-25T07:11:56.666Z</time></trkpt><trkpt lat="38.1012767" lon="15.6418703"><ele>25.0</ele><time>2026-04-25T07:11:57.665Z</time></trkpt><trkpt lat="38.1013009" lon="15.6420543"><ele>27.0</ele><time>2026-04-25T07:11:58.665Z</time></trkpt><trkpt lat="38.1013293" lon="15.6422814"><ele>29.0</ele><time>2026-04-25T07:11:59.666Z</time></trkpt><trkpt lat="38.1013588" lon="15.6425551"><ele>31.0</ele><time>2026-04-25T07:12:00.665Z</time></trkpt><trkpt lat="38.1013917" lon="15.6428308"><ele>32.333333333333336</ele><time>2026-04-25T07:12:01.665Z</time></trkpt><trkpt lat="38.1014139" lon="15.643108"><ele>33.666666666666664</ele><time>2026-04-25T07:12:02.665Z</time></trkpt><trkpt lat="38.101438" lon="15.6433825"><ele>35.0</ele><time>2026-04-25T07:12:03.665Z</time></trkpt><trkpt lat="38.1014676" lon="15.6436542"><ele>35.33333333333333</ele><time>2026-04-25T07:12:04.666Z</time></trkpt><trkpt lat="38.1014921" lon="15.6439281"><ele>35.666666666666664</ele><time>2026-04-25T07:12:05.665Z</time></trkpt><trkpt lat="38.1015141" lon="15.6442021"><ele>36.0</ele><time>2026-04-25T07:12:06.665Z</time></trkpt><trkpt lat="38.1015338" lon="15.6444723"><ele>35.0</ele><time>2026-04-25T07:12:07.666Z</time></trkpt><trkpt lat="38.1015476" lon="15.6447434"><ele>34.0</ele><time>2026-04-25T07:12:08.666Z</time></trkpt><trkpt lat="38.101566" lon="15.6450057"><ele>33.0</ele><time>2026-04-25T07:12:09.665Z</time></trkpt><trkpt lat="38.1015804" lon="15.6452619"><ele>33.333333333333336</ele><time>2026-04-25T07:12:10.665Z</time></trkpt><trkpt lat="38.101584" lon="15.6455287"><ele>33.66666666666667</ele><time>2026-04-25T07:12:11.666Z</time></trkpt><trkpt lat="38.1015882" lon="15.6458074"><ele>34.0</ele><time>2026-04-25T07:12:12.665Z</time></trkpt><trkpt lat="38.1015827" lon="15.6460872"><ele>36.0</ele><time>2026-04-25T07:12:13.665Z</time></trkpt><trkpt lat="38.1015595" lon="15.6463797"><ele>38.0</ele><time>2026-04-25T07:12:14.665Z</time></trkpt><trkpt lat="38.1015349" lon="15.6466748"><ele>36.5</ele><time>2026-04-25T07:12:15.665Z</time></trkpt><trkpt lat="38.1015072" lon="15.6469765"><ele>35.0</ele><time>2026-04-25T07:12:16.665Z</time></trkpt><trkpt lat="38.1014803" lon="15.6472848"><ele>35.0</ele><time>2026-04-25T07:12:17.665Z</time></trkpt><trkpt lat="38.1014529" lon="15.6475976"><ele>35.0</ele><time>2026-04-25T07:12:18.665Z</time></trkpt><trkpt lat="38.1014232" lon="15.6479115"><ele>37.0</ele><time>2026-04-25T07:12:19.665Z</time></trkpt><trkpt lat="38.1013919" lon="15.6482223"><ele>39.0</ele><time>2026-04-25T07:12:20.665Z</time></trkpt><trkpt lat="38.1013561" lon="15.6485245"><ele>40.5</ele><time>2026-04-25T07:12:21.665Z</time></trkpt><trkpt lat="38.1013259" lon="15.6488255"><ele>42.0</ele><time>2026-04-25T07:12:22.665Z</time></trkpt><trkpt lat="38.1012925" lon="15.6491283"><ele>42.0</ele><time>2026-04-25T07:12:23.665Z</time></trkpt><trkpt lat="38.1012675" lon="15.649427"><ele>42.0</ele><time>2026-04-25T07:12:24.665Z</time></trkpt><trkpt lat="38.1012384" lon="15.6497294"><ele>42.0</ele><time>2026-04-25T07:12:25.665Z</time></trkpt><trkpt lat="38.1012056" lon="15.6500333"><ele>42.0</ele><time>2026-04-25T07:12:26.665Z</time></trkpt><trkpt lat="38.1011668" lon="15.650328"><ele>41.5</ele><time>2026-04-25T07:12:27.665Z</time></trkpt><trkpt lat="38.1011277" lon="15.6506287"><ele>41.0</ele><time>2026-04-25T07:12:28.665Z</time></trkpt><trkpt lat="38.1010879" lon="15.650936"><ele>42.5</ele><time>2026-04-25T07:12:29.665Z</time></trkpt><trkpt lat="38.1010486" lon="15.6512386"><ele>44.0</ele><time>2026-04-25T07:12:30.665Z</time></trkpt><trkpt lat="38.101006" lon="15.6515371"><ele>44.0</ele><time>2026-04-25T07:12:31.665Z</time></trkpt><trkpt lat="38.1009573" lon="15.6518309"><ele>44.0</ele><time>2026-04-25T07:12:32.665Z</time></trkpt><trkpt lat="38.1009034" lon="15.6521206"><ele>44.5</ele><time>2026-04-25T07:12:33.666Z</time></trkpt><trkpt lat="38.1008444" lon="15.6524089"><ele>45.0</ele><time>2026-04-25T07:12:34.665Z</time></trkpt><trkpt lat="38.1007945" lon="15.652687"><ele>45.5</ele><time>2026-04-25T07:12:35.666Z</time></trkpt><trkpt lat="38.1007381" lon="15.6529768"><ele>46.0</ele><time>2026-04-25T07:12:36.665Z</time></trkpt><trkpt lat="38.1006827" lon="15.653275"><ele>46.0</ele><time>2026-04-25T07:12:37.665Z</time></trkpt><trkpt lat="38.1006298" lon="15.6535748"><ele>46.0</ele><time>2026-04-25T07:12:38.665Z</time></trkpt><trkpt lat="38.1005744" lon="15.6538701"><ele>47.5</ele><time>2026-04-25T07:12:39.665Z</time></trkpt><trkpt lat="38.1005187" lon="15.6541635"><ele>49.0</ele><time>2026-04-25T07:12:40.665Z</time></trkpt><trkpt lat="38.1004637" lon="15.6544449"><ele>50.5</ele><time>2026-04-25T07:12:41.665Z</time></trkpt><trkpt lat="38.1004103" lon="15.6547232"><ele>52.0</ele><time>2026-04-25T07:12:42.665Z</time></trkpt><trkpt lat="38.1003536" lon="15.6549994"><ele>52.0</ele><time>2026-04-25T07:12:43.665Z</time></trkpt><trkpt lat="38.1002983" lon="15.6552732"><ele>52.0</ele><time>2026-04-25T07:12:44.666Z</time></trkpt><trkpt lat="38.1002483" lon="15.6555373"><ele>52.0</ele><time>2026-04-25T07:12:45.665Z</time></trkpt><trkpt lat="38.1001988" lon="15.6557868"><ele>54.0</ele><time>2026-04-25T07:12:46.665Z</time></trkpt><trkpt lat="38.100156" lon="15.6560135"><ele>56.0</ele><time>2026-04-25T07:12:47.665Z</time></trkpt><trkpt lat="38.1001077" lon="15.6562288"><ele>58.0</ele><time>2026-04-25T07:12:48.665Z</time></trkpt><trkpt lat="38.1000621" lon="15.6564323"><ele>59.33333333333333</ele><time>2026-04-25T07:12:49.666Z</time></trkpt><trkpt lat="38.1000226" lon="15.6566295"><ele>60.66666666666667</ele><time>2026-04-25T07:12:50.665Z</time></trkpt><trkpt lat="38.0999794" lon="15.6568367"><ele>62.0</ele><time>2026-04-25T07:12:51.665Z</time></trkpt><trkpt lat="38.0999384" lon="15.6570447"><ele>61.333333333333336</ele><time>2026-04-25T07:12:52.666Z</time></trkpt><trkpt lat="38.0999017" lon="15.6572466"><ele>60.66666666666667</ele><time>2026-04-25T07:12:53.665Z</time></trkpt><trkpt lat="38.0998557" lon="15.6574616"><ele>60.0</ele><time>2026-04-25T07:12:54.665Z</time></trkpt><trkpt lat="38.0998251" lon="15.6576784"><ele>62.66666666666667</ele><time>2026-04-25T07:12:55.665Z</time></trkpt><trkpt lat="38.099802" lon="15.6578938"><ele>65.33333333333334</ele><time>2026-04-25T07:12:56.665Z</time></trkpt><trkpt lat="38.0997928" lon="15.6581022"><ele>68.0</ele><time>2026-04-25T07:12:57.666Z</time></trkpt><trkpt lat="38.0997947" lon="15.6583063"><ele>68.0</ele><time>2026-04-25T07:12:58.665Z</time></trkpt><trkpt lat="38.0998125" lon="15.6584973"><ele>68.0</ele><time>2026-04-25T07:12:59.665Z</time></trkpt><trkpt lat="38.0998374" lon="15.6586747"><ele>68.0</ele><time>2026-04-25T07:13:00.666Z</time></trkpt><trkpt lat="38.0998567" lon="15.6588398"><ele>68.0</ele><time>2026-04-25T07:13:01.665Z</time></trkpt><trkpt lat="38.0998598" lon="15.6589932"><ele>69.4</ele><time>2026-04-25T07:13:02.665Z</time></trkpt><trkpt lat="38.0998415" lon="15.6591275"><ele>70.8</ele><time>2026-04-25T07:13:03.665Z</time></trkpt><trkpt lat="38.0997995" lon="15.659247"><ele>72.2</ele><time>2026-04-25T07:13:04.665Z</time></trkpt><trkpt lat="38.0997336" lon="15.6593404"><ele>73.6</ele><time>2026-04-25T07:13:05.665Z</time></trkpt><trkpt lat="38.0996395" lon="15.6594119"><ele>75.0</ele><time>2026-04-25T07:13:06.665Z</time></trkpt><trkpt lat="38.0995385" lon="15.6594515"><ele>76.25</ele><time>2026-04-25T07:13:07.665Z</time></trkpt><trkpt lat="38.0994222" lon="15.6594723"><ele>77.5</ele><time>2026-04-25T07:13:08.665Z</time></trkpt><trkpt lat="38.099292" lon="15.6594891"><ele>78.75</ele><time>2026-04-25T07:13:09.665Z</time></trkpt><trkpt lat="38.0991489" lon="15.65951"><ele>80.0</ele><time>2026-04-25T07:13:10.665Z</time></trkpt><trkpt lat="38.0990117" lon="15.6595274"><ele>82.33333333333334</ele><time>2026-04-25T07:13:11.665Z</time></trkpt><trkpt lat="38.0988679" lon="15.6595334"><ele>84.66666666666667</ele><time>2026-04-25T07:13:12.665Z</time></trkpt><trkpt lat="38.0987211" lon="15.6595343"><ele>87.0</ele><time>2026-04-25T07:13:13.665Z</time></trkpt><trkpt lat="38.0985601" lon="15.6595232"><ele>87.0</ele><time>2026-04-25T07:13:14.665Z</time></trkpt><trkpt lat="38.098397" lon="15.6595082"><ele>87.0</ele><time>2026-04-25T07:13:15.665Z</time></trkpt><trkpt lat="38.0982209" lon="15.6594925"><ele>87.0</ele><time>2026-04-25T07:13:16.665Z</time></trkpt><trkpt lat="38.0980319" lon="15.6594683"><ele>87.0</ele><time>2026-04-25T07:13:17.665Z</time></trkpt><trkpt lat="38.0978298" lon="15.6594389"><ele>87.0</ele><time>2026-04-25T07:13:18.665Z</time></trkpt><trkpt lat="38.0976179" lon="15.6593894"><ele>87.0</ele><time>2026-04-25T07:13:19.665Z</time></trkpt><trkpt lat="38.0974061" lon="15.6593272"><ele>90.0</ele><time>2026-04-25T07:13:20.665Z</time></trkpt><trkpt lat="38.0971921" lon="15.6592708"><ele>93.0</ele><time>2026-04-25T07:13:21.665Z</time></trkpt><trkpt lat="38.0969842" lon="15.6592085"><ele>96.0</ele><time>2026-04-25T07:13:22.665Z</time></trkpt><trkpt lat="38.0967744" lon="15.6591537"><ele>97.0</ele><time>2026-04-25T07:13:23.665Z</time></trkpt><trkpt lat="38.096558" lon="15.6590985"><ele>98.0</ele><time>2026-04-25T07:13:24.665Z</time></trkpt><trkpt lat="38.0963357" lon="15.6590464"><ele>99.0</ele><time>2026-04-25T07:13:25.665Z</time></trkpt><trkpt lat="38.0961152" lon="15.6589989"><ele>99.0</ele><time>2026-04-25T07:13:26.665Z</time></trkpt><trkpt lat="38.0958974" lon="15.6589556"><ele>99.0</ele><time>2026-04-25T07:13:27.665Z</time></trkpt><trkpt lat="38.0956781" lon="15.6589266"><ele>99.0</ele><time>2026-04-25T07:13:28.665Z</time></trkpt><trkpt lat="38.0954599" lon="15.6589138"><ele>99.33333333333334</ele><time>2026-04-25T07:13:29.665Z</time></trkpt><trkpt lat="38.0952328" lon="15.6589147"><ele>99.66666666666667</ele><time>2026-04-25T07:13:30.665Z</time></trkpt><trkpt lat="38.0950167" lon="15.6589142"><ele>100.0</ele><time>2026-04-25T07:13:31.665Z</time></trkpt><trkpt lat="38.094796" lon="15.6589347"><ele>100.0</ele><time>2026-04-25T07:13:32.665Z</time></trkpt><trkpt lat="38.0945672" lon="15.6589628"><ele>100.0</ele><time>2026-04-25T07:13:33.665Z</time></trkpt><trkpt lat="38.0943292" lon="15.6590089"><ele>100.0</ele><time>2026-04-25T07:13:34.665Z</time></trkpt><trkpt lat="38.0940936" lon="15.6590686"><ele>100.0</ele><time>2026-04-25T07:13:35.665Z</time></trkpt><trkpt lat="38.0938616" lon="15.6591584"><ele>99.5</ele><time>2026-04-25T07:13:36.665Z</time></trkpt><trkpt lat="38.0936318" lon="15.6592422"><ele>99.0</ele><time>2026-04-25T07:13:37.665Z</time></trkpt><trkpt lat="38.0933989" lon="15.6593335"><ele>98.5</ele><time>2026-04-25T07:13:38.665Z</time></trkpt><trkpt lat="38.0931637" lon="15.6594217"><ele>98.0</ele><time>2026-04-25T07:13:39.665Z</time></trkpt><trkpt lat="38.0929227" lon="15.6595054"><ele>98.0</ele><time>2026-04-25T07:13:40.665Z</time></trkpt><trkpt lat="38.0926826" lon="15.659593"><ele>98.0</ele><time>2026-04-25T07:13:41.665Z</time></trkpt><trkpt lat="38.0924439" lon="15.65967"><ele>96.5</ele><time>2026-04-25T07:13:42.665Z</time></trkpt><trkpt lat="38.092207" lon="15.6597532"><ele>95.0</ele><time>2026-04-25T07:13:43.665Z</time></trkpt><trkpt lat="38.0919687" lon="15.6598474"><ele>95.0</ele><time>2026-04-25T07:13:44.665Z</time></trkpt><trkpt lat="38.0917293" lon="15.6599635"><ele>95.0</ele><time>2026-04-25T07:13:45.665Z</time></trkpt><trkpt lat="38.0914953" lon="15.6600819"><ele>89.0</ele><time>2026-04-25T07:13:46.665Z</time></trkpt><trkpt lat="38.0912632" lon="15.6602091"><ele>83.0</ele><time>2026-04-25T07:13:47.665Z</time></trkpt><trkpt lat="38.0910362" lon="15.6603436"><ele>83.0</ele><time>2026-04-25T07:13:48.665Z</time></trkpt><trkpt lat="38.0908083" lon="15.6604916"><ele>83.0</ele><time>2026-04-25T07:13:49.665Z</time></trkpt><trkpt lat="38.0905833" lon="15.6606406"><ele>80.5</ele><time>2026-04-25T07:13:50.665Z</time></trkpt><trkpt lat="38.0903587" lon="15.6607845"><ele>78.0</ele><time>2026-04-25T07:13:51.665Z</time></trkpt><trkpt lat="38.0901341" lon="15.6609306"><ele>78.0</ele><time>2026-04-25T07:13:52.665Z</time></trkpt><trkpt lat="38.0899114" lon="15.6610682"><ele>78.0</ele><time>2026-04-25T07:13:53.665Z</time></trkpt><trkpt lat="38.0896823" lon="15.6612055"><ele>78.0</ele><time>2026-04-25T07:13:54.665Z</time></trkpt><trkpt lat="38.0894518" lon="15.6613388"><ele>78.0</ele><time>2026-04-25T07:13:55.665Z</time></trkpt><trkpt lat="38.0892214" lon="15.6614818"><ele>75.0</ele><time>2026-04-25T07:13:56.665Z</time></trkpt><trkpt lat="38.0889882" lon="15.661621"><ele>72.0</ele><time>2026-04-25T07:13:57.666Z</time></trkpt><trkpt lat="38.0887521" lon="15.6617605"><ele>72.0</ele><time>2026-04-25T07:13:58.665Z</time></trkpt><trkpt lat="38.0885153" lon="15.6619077"><ele>72.0</ele><time>2026-04-25T07:13:59.665Z</time></trkpt><trkpt lat="38.0882816" lon="15.6620599"><ele>71.0</ele><time>2026-04-25T07:14:00.665Z</time></trkpt><trkpt lat="38.0880454" lon="15.6622145"><ele>70.0</ele><time>2026-04-25T07:14:01.666Z</time></trkpt><trkpt lat="38.0878132" lon="15.6623717"><ele>70.0</ele><time>2026-04-25T07:14:02.666Z</time></trkpt><trkpt lat="38.0875801" lon="15.6625228"><ele>70.0</ele><time>2026-04-25T07:14:03.666Z</time></trkpt><trkpt lat="38.0873454" lon="15.6626772"><ele>70.5</ele><time>2026-04-25T07:14:04.665Z</time></trkpt><trkpt lat="38.0871104" lon="15.6628293"><ele>71.0</ele><time>2026-04-25T07:14:05.665Z</time></trkpt><trkpt lat="38.0868752" lon="15.6629745"><ele>71.0</ele><time>2026-04-25T07:14:06.666Z</time></trkpt><trkpt lat="38.0866433" lon="15.6631165"><ele>71.0</ele><time>2026-04-25T07:14:07.665Z</time></trkpt><trkpt lat="38.0864119" lon="15.6632693"><ele>71.5</ele><time>2026-04-25T07:14:08.665Z</time></trkpt><trkpt lat="38.0861802" lon="15.6634198"><ele>72.0</ele><time>2026-04-25T07:14:09.665Z</time></trkpt><trkpt lat="38.0859504" lon="15.6635706"><ele>76.5</ele><time>2026-04-25T07:14:10.665Z</time></trkpt><trkpt lat="38.0857213" lon="15.6637144"><ele>81.0</ele><time>2026-04-25T07:14:11.666Z</time></trkpt><trkpt lat="38.0854794" lon="15.6638507"><ele>81.0</ele><time>2026-04-25T07:14:12.666Z</time></trkpt><trkpt lat="38.0852356" lon="15.6639702"><ele>81.0</ele><time>2026-04-25T07:14:13.665Z</time></trkpt><trkpt lat="38.0849883" lon="15.6640685"><ele>79.5</ele><time>2026-04-25T07:14:14.665Z</time></trkpt><trkpt lat="38.084737" lon="15.6641496"><ele>78.0</ele><time>2026-04-25T07:14:15.665Z</time></trkpt><trkpt lat="38.0844775" lon="15.6642108"><ele>78.0</ele><time>2026-04-25T07:14:16.665Z</time></trkpt><trkpt lat="38.08421" lon="15.6642529"><ele>78.0</ele><time>2026-04-25T07:14:17.665Z</time></trkpt><trkpt lat="38.0839453" lon="15.6642813"><ele>76.5</ele><time>2026-04-25T07:14:18.665Z</time></trkpt><trkpt lat="38.0836787" lon="15.6642896"><ele>75.0</ele><time>2026-04-25T07:14:19.665Z</time></trkpt><trkpt lat="38.0834077" lon="15.6642955"><ele>73.0</ele><time>2026-04-25T07:14:20.666Z</time></trkpt><trkpt lat="38.0831404" lon="15.6642984"><ele>71.0</ele><time>2026-04-25T07:14:21.665Z</time></trkpt><trkpt lat="38.0828764" lon="15.6643044"><ele>71.0</ele><time>2026-04-25T07:14:22.666Z</time></trkpt><trkpt lat="38.0826133" lon="15.6643119"><ele>71.0</ele><time>2026-04-25T07:14:23.665Z</time></trkpt><trkpt lat="38.0823484" lon="15.6643206"><ele>70.5</ele><time>2026-04-25T07:14:24.665Z</time></trkpt><trkpt lat="38.0820822" lon="15.6643318"><ele>70.0</ele><time>2026-04-25T07:14:25.665Z</time></trkpt><trkpt lat="38.0818155" lon="15.6643391"><ele>69.5</ele><time>2026-04-25T07:14:26.665Z</time></trkpt><trkpt lat="38.0815463" lon="15.6643445"><ele>69.0</ele><time>2026-04-25T07:14:27.666Z</time></trkpt><trkpt lat="38.0812876" lon="15.6643524"><ele>69.0</ele><time>2026-04-25T07:14:28.665Z</time></trkpt><trkpt lat="38.081025" lon="15.6643579"><ele>69.0</ele><time>2026-04-25T07:14:29.665Z</time></trkpt><trkpt lat="38.0807622" lon="15.6643629"><ele>67.0</ele><time>2026-04-25T07:14:30.665Z</time></trkpt><trkpt lat="38.0804986" lon="15.6643764"><ele>65.0</ele><time>2026-04-25T07:14:31.666Z</time></trkpt><trkpt lat="38.0802354" lon="15.6643882"><ele>65.0</ele><time>2026-04-25T07:14:32.665Z</time></trkpt><trkpt lat="38.0799764" lon="15.6644014"><ele>65.0</ele><time>2026-04-25T07:14:33.665Z</time></trkpt><trkpt lat="38.0797126" lon="15.6644105"><ele>62.5</ele><time>2026-04-25T07:14:34.666Z</time></trkpt><trkpt lat="38.0794519" lon="15.6644175"><ele>60.0</ele><time>2026-04-25T07:14:35.665Z</time></trkpt><trkpt lat="38.0791958" lon="15.6644313"><ele>58.0</ele><time>2026-04-25T07:14:36.665Z</time></trkpt><trkpt lat="38.0789364" lon="15.6644377"><ele>56.0</ele><time>2026-04-25T07:14:37.666Z</time></trkpt><trkpt lat="38.0786748" lon="15.6644499"><ele>57.5</ele><time>2026-04-25T07:14:38.665Z</time></trkpt><trkpt lat="38.0784136" lon="15.6644588"><ele>59.0</ele><time>2026-04-25T07:14:39.665Z</time></trkpt><trkpt lat="38.0781564" lon="15.6644644"><ele>59.0</ele><time>2026-04-25T07:14:40.665Z</time></trkpt><trkpt lat="38.0779041" lon="15.6644779"><ele>59.0</ele><time>2026-04-25T07:14:41.665Z</time></trkpt><trkpt lat="38.0776529" lon="15.66448"><ele>54.5</ele><time>2026-04-25T07:14:42.665Z</time></trkpt><trkpt lat="38.0774048" lon="15.6644725"><ele>50.0</ele><time>2026-04-25T07:14:43.665Z</time></trkpt><trkpt lat="38.0771633" lon="15.6644663"><ele>50.0</ele><time>2026-04-25T07:14:44.665Z</time></trkpt><trkpt lat="38.0769305" lon="15.6644638"><ele>50.0</ele><time>2026-04-25T07:14:45.666Z</time></trkpt><trkpt lat="38.076701" lon="15.6644491"><ele>51.0</ele><time>2026-04-25T07:14:46.665Z</time></trkpt><trkpt lat="38.0764761" lon="15.6644284"><ele>52.0</ele><time>2026-04-25T07:14:47.665Z</time></trkpt><trkpt lat="38.0762488" lon="15.6644033"><ele>52.0</ele><time>2026-04-25T07:14:48.666Z</time></trkpt><trkpt lat="38.0760159" lon="15.6643685"><ele>52.0</ele><time>2026-04-25T07:14:49.665Z</time></trkpt><trkpt lat="38.0757868" lon="15.664322"><ele>47.0</ele><time>2026-04-25T07:14:50.665Z</time></trkpt><trkpt lat="38.0755627" lon="15.6642611"><ele>42.0</ele><time>2026-04-25T07:14:51.665Z</time></trkpt><trkpt lat="38.0753322" lon="15.6641951"><ele>42.0</ele><time>2026-04-25T07:14:52.665Z</time></trkpt><trkpt lat="38.0751022" lon="15.6641199"><ele>42.0</ele><time>2026-04-25T07:14:53.665Z</time></trkpt><trkpt lat="38.0748735" lon="15.6640356"><ele>39.0</ele><time>2026-04-25T07:14:54.665Z</time></trkpt><trkpt lat="38.074636" lon="15.663958"><ele>36.0</ele><time>2026-04-25T07:14:55.665Z</time></trkpt><trkpt lat="38.0743942" lon="15.663881"><ele>36.0</ele><time>2026-04-25T07:14:56.665Z</time></trkpt><trkpt lat="38.0741474" lon="15.663795"><ele>36.0</ele><time>2026-04-25T07:14:57.665Z</time></trkpt><trkpt lat="38.073893" lon="15.6637083"><ele>36.0</ele><time>2026-04-25T07:14:58.665Z</time></trkpt><trkpt lat="38.0736392" lon="15.6636164"><ele>36.0</ele><time>2026-04-25T07:14:59.665Z</time></trkpt><trkpt lat="38.0733942" lon="15.6635288"><ele>34.5</ele><time>2026-04-25T07:15:00.666Z</time></trkpt><trkpt lat="38.073142" lon="15.6634504"><ele>33.0</ele><time>2026-04-25T07:15:01.665Z</time></trkpt><trkpt lat="38.0728886" lon="15.6633767"><ele>33.0</ele><time>2026-04-25T07:15:02.665Z</time></trkpt><trkpt lat="38.0726409" lon="15.6633089"><ele>33.0</ele><time>2026-04-25T07:15:03.665Z</time></trkpt><trkpt lat="38.0723937" lon="15.6632578"><ele>33.0</ele><time>2026-04-25T07:15:04.666Z</time></trkpt><trkpt lat="38.0721491" lon="15.6632282"><ele>33.0</ele><time>2026-04-25T07:15:05.665Z</time></trkpt><trkpt lat="38.0718981" lon="15.6632163"><ele>33.0</ele><time>2026-04-25T07:15:06.665Z</time></trkpt><trkpt lat="38.0716423" lon="15.6632149"><ele>33.0</ele><time>2026-04-25T07:15:07.665Z</time></trkpt><trkpt lat="38.0713916" lon="15.6632135"><ele>34.5</ele><time>2026-04-25T07:15:08.665Z</time></trkpt><trkpt lat="38.0711399" lon="15.663212"><ele>36.0</ele><time>2026-04-25T07:15:09.665Z</time></trkpt><trkpt lat="38.0708841" lon="15.6632061"><ele>36.0</ele><time>2026-04-25T07:15:10.665Z</time></trkpt><trkpt lat="38.0706363" lon="15.6632024"><ele>36.0</ele><time>2026-04-25T07:15:11.665Z</time></trkpt><trkpt lat="38.0703884" lon="15.6631976"><ele>36.0</ele><time>2026-04-25T07:15:12.665Z</time></trkpt><trkpt lat="38.070136" lon="15.6631884"><ele>36.0</ele><time>2026-04-25T07:15:13.665Z</time></trkpt><trkpt lat="38.0698873" lon="15.6631861"><ele>36.5</ele><time>2026-04-25T07:15:14.665Z</time></trkpt><trkpt lat="38.0696444" lon="15.6631829"><ele>37.0</ele><time>2026-04-25T07:15:15.666Z</time></trkpt><trkpt lat="38.0694016" lon="15.663174"><ele>37.0</ele><time>2026-04-25T07:15:16.666Z</time></trkpt><trkpt lat="38.0691641" lon="15.6631563"><ele>37.0</ele><time>2026-04-25T07:15:17.665Z</time></trkpt><trkpt lat="38.0689265" lon="15.6631274"><ele>37.5</ele><time>2026-04-25T07:15:18.665Z</time></trkpt><trkpt lat="38.06869" lon="15.6630968"><ele>38.0</ele><time>2026-04-25T07:15:19.665Z</time></trkpt><trkpt lat="38.0684518" lon="15.6630631"><ele>39.5</ele><time>2026-04-25T07:15:20.665Z</time></trkpt><trkpt lat="38.0682085" lon="15.6630324"><ele>41.0</ele><time>2026-04-25T07:15:21.665Z</time></trkpt><trkpt lat="38.067959" lon="15.6629952"><ele>41.0</ele><time>2026-04-25T07:15:22.666Z</time></trkpt><trkpt lat="38.0677131" lon="15.6629604"><ele>41.0</ele><time>2026-04-25T07:15:23.665Z</time></trkpt><trkpt lat="38.0674666" lon="15.6629254"><ele>41.5</ele><time>2026-04-25T07:15:24.665Z</time></trkpt><trkpt lat="38.0672261" lon="15.6628974"><ele>42.0</ele><time>2026-04-25T07:15:25.665Z</time></trkpt><trkpt lat="38.0669847" lon="15.6628701"><ele>42.0</ele><time>2026-04-25T07:15:26.665Z</time></trkpt><trkpt lat="38.0667392" lon="15.662842"><ele>42.0</ele><time>2026-04-25T07:15:27.665Z</time></trkpt><trkpt lat="38.0665042" lon="15.6628123"><ele>41.5</ele><time>2026-04-25T07:15:28.665Z</time></trkpt><trkpt lat="38.0662682" lon="15.6627809"><ele>41.0</ele><time>2026-04-25T07:15:29.665Z</time></trkpt><trkpt lat="38.0660332" lon="15.662748"><ele>41.0</ele><time>2026-04-25T07:15:30.665Z</time></trkpt><trkpt lat="38.0657954" lon="15.6627203"><ele>41.0</ele><time>2026-04-25T07:15:31.665Z</time></trkpt><trkpt lat="38.0655658" lon="15.6626934"><ele>40.5</ele><time>2026-04-25T07:15:32.665Z</time></trkpt><trkpt lat="38.0653333" lon="15.6626668"><ele>40.0</ele><time>2026-04-25T07:15:33.665Z</time></trkpt><trkpt lat="38.0650938" lon="15.6626493"><ele>40.5</ele><time>2026-04-25T07:15:34.665Z</time></trkpt><trkpt lat="38.0648606" lon="15.6626255"><ele>41.0</ele><time>2026-04-25T07:15:35.665Z</time></trkpt><trkpt lat="38.0646261" lon="15.6625858"><ele>41.0</ele><time>2026-04-25T07:15:36.665Z</time></trkpt><trkpt lat="38.0643854" lon="15.6625521"><ele>41.0</ele><time>2026-04-25T07:15:37.666Z</time></trkpt><trkpt lat="38.0641423" lon="15.6625186"><ele>39.5</ele><time>2026-04-25T07:15:38.666Z</time></trkpt><trkpt lat="38.0639003" lon="15.6624852"><ele>38.0</ele><time>2026-04-25T07:15:39.665Z</time></trkpt><trkpt lat="38.0636601" lon="15.6624533"><ele>38.0</ele><time>2026-04-25T07:15:40.666Z</time></trkpt><trkpt lat="38.0634396" lon="15.6624274"><ele>38.0</ele><time>2026-04-25T07:15:41.665Z</time></trkpt><trkpt lat="38.0632302" lon="15.6623991"><ele>38.0</ele><time>2026-04-25T07:15:42.665Z</time></trkpt><trkpt lat="38.0630289" lon="15.6623752"><ele>39.33333333333333</ele><time>2026-04-25T07:15:43.665Z</time></trkpt><trkpt lat="38.0628498" lon="15.6623605"><ele>40.666666666666664</ele><time>2026-04-25T07:15:44.665Z</time></trkpt><trkpt lat="38.062668" lon="15.66234"><ele>42.0</ele><time>2026-04-25T07:15:45.665Z</time></trkpt><trkpt lat="38.0624771" lon="15.6623093"><ele>42.666666666666664</ele><time>2026-04-25T07:15:46.665Z</time></trkpt><trkpt lat="38.0622866" lon="15.6622694"><ele>43.33333333333333</ele><time>2026-04-25T07:15:47.665Z</time></trkpt><trkpt lat="38.0620999" lon="15.662224"><ele>44.0</ele><time>2026-04-25T07:15:48.665Z</time></trkpt><trkpt lat="38.0619332" lon="15.6621716"><ele>44.0</ele><time>2026-04-25T07:15:49.665Z</time></trkpt><trkpt lat="38.061772" lon="15.6621085"><ele>44.0</ele><time>2026-04-25T07:15:50.665Z</time></trkpt><trkpt lat="38.0616086" lon="15.6620346"><ele>44.0</ele><time>2026-04-25T07:15:51.665Z</time></trkpt><trkpt lat="38.0614468" lon="15.6619573"><ele>42.33333333333333</ele><time>2026-04-25T07:15:52.665Z</time></trkpt><trkpt lat="38.0612892" lon="15.6618804"><ele>40.666666666666664</ele><time>2026-04-25T07:15:53.665Z</time></trkpt><trkpt lat="38.0611278" lon="15.661807"><ele>39.0</ele><time>2026-04-25T07:15:54.665Z</time></trkpt><trkpt lat="38.0609588" lon="15.661737"><ele>39.0</ele><time>2026-04-25T07:15:55.665Z</time></trkpt><trkpt lat="38.0607876" lon="15.6616746"><ele>39.0</ele><time>2026-04-25T07:15:56.666Z</time></trkpt><trkpt lat="38.060625" lon="15.661606"><ele>39.0</ele><time>2026-04-25T07:15:57.665Z</time></trkpt><trkpt lat="38.0604755" lon="15.6615369"><ele>40.0</ele><time>2026-04-25T07:15:58.665Z</time></trkpt><trkpt lat="38.0603432" lon="15.6614702"><ele>41.0</ele><time>2026-04-25T07:15:59.665Z</time></trkpt><trkpt lat="38.0602245" lon="15.6614179"><ele>42.0</ele><time>2026-04-25T07:16:00.665Z</time></trkpt><trkpt lat="38.0601255" lon="15.6613734"><ele>43.0</ele><time>2026-04-25T07:16:01.665Z</time></trkpt><trkpt lat="38.0600477" lon="15.6613418"><ele>43.0</ele><time>2026-04-25T07:16:02.665Z</time></trkpt><trkpt lat="38.0599862" lon="15.6613181"><ele>43.0</ele><time>2026-04-25T07:16:03.665Z</time></trkpt><trkpt lat="38.0599259" lon="15.6612919"><ele>43.0</ele><time>2026-04-25T07:16:04.665Z</time></trkpt><trkpt lat="38.0598564" lon="15.6612524"><ele>43.0</ele><time>2026-04-25T07:16:06.665Z</time></trkpt><trkpt lat="38.0597888" lon="15.6612076"><ele>43.0</ele><time>2026-04-25T07:16:09.665Z</time></trkpt><trkpt lat="38.0597148" lon="15.6611521"><ele>43.0</ele><time>2026-04-25T07:16:11.665Z</time></trkpt><trkpt lat="38.0595899" lon="15.6610899"><ele>41.8</ele><time>2026-04-25T07:16:13.665Z</time></trkpt><trkpt lat="38.0595053" lon="15.661045"><ele>40.599999999999994</ele><time>2026-04-25T07:16:14.665Z</time></trkpt><trkpt lat="38.0594081" lon="15.6609963"><ele>39.400000000000006</ele><time>2026-04-25T07:16:15.665Z</time></trkpt><trkpt lat="38.0593076" lon="15.6609439"><ele>38.2</ele><time>2026-04-25T07:16:16.666Z</time></trkpt><trkpt lat="38.0592117" lon="15.6608807"><ele>37.0</ele><time>2026-04-25T07:16:17.665Z</time></trkpt><trkpt lat="38.0591216" lon="15.6608092"><ele>36.800000000000004</ele><time>2026-04-25T07:16:18.666Z</time></trkpt><trkpt lat="38.0590314" lon="15.6607264"><ele>36.6</ele><time>2026-04-25T07:16:19.665Z</time></trkpt><trkpt lat="38.0589459" lon="15.6606425"><ele>36.400000000000006</ele><time>2026-04-25T07:16:20.665Z</time></trkpt><trkpt lat="38.0588613" lon="15.6605584"><ele>36.2</ele><time>2026-04-25T07:16:21.666Z</time></trkpt><trkpt lat="38.0587767" lon="15.6604763"><ele>36.0</ele><time>2026-04-25T07:16:22.665Z</time></trkpt><trkpt lat="38.058692" lon="15.660398"><ele>36.0</ele><time>2026-04-25T07:16:23.665Z</time></trkpt><trkpt lat="38.0586066" lon="15.6603292"><ele>36.0</ele><time>2026-04-25T07:16:24.665Z</time></trkpt><trkpt lat="38.0585172" lon="15.6602795"><ele>36.0</ele><time>2026-04-25T07:16:25.665Z</time></trkpt><trkpt lat="38.0584243" lon="15.6602468"><ele>36.0</ele><time>2026-04-25T07:16:26.665Z</time></trkpt><trkpt lat="38.0583379" lon="15.6602261"><ele>36.0</ele><time>2026-04-25T07:16:27.665Z</time></trkpt><trkpt lat="38.0582576" lon="15.660212"><ele>35.666666666666664</ele><time>2026-04-25T07:16:28.665Z</time></trkpt><trkpt lat="38.0581783" lon="15.6601867"><ele>35.333333333333336</ele><time>2026-04-25T07:16:29.666Z</time></trkpt><trkpt lat="38.0581073" lon="15.6601618"><ele>35.0</ele><time>2026-04-25T07:16:30.666Z</time></trkpt><trkpt lat="38.0580221" lon="15.6601468"><ele>34.66666666666667</ele><time>2026-04-25T07:16:32.665Z</time></trkpt><trkpt lat="38.0579792" lon="15.660236"><ele>34.333333333333336</ele><time>2026-04-25T07:16:35.665Z</time></trkpt><trkpt lat="38.057975" lon="15.6603646"><ele>34.0</ele><time>2026-04-25T07:16:37.665Z</time></trkpt><trkpt lat="38.0579764" lon="15.6604589"><ele>34.8</ele><time>2026-04-25T07:16:38.665Z</time></trkpt><trkpt lat="38.0579769" lon="15.6605727"><ele>35.599999999999994</ele><time>2026-04-25T07:16:39.665Z</time></trkpt><trkpt lat="38.0579688" lon="15.660702"><ele>36.4</ele><time>2026-04-25T07:16:40.665Z</time></trkpt><trkpt lat="38.057951" lon="15.660839"><ele>37.199999999999996</ele><time>2026-04-25T07:16:41.665Z</time></trkpt><trkpt lat="38.057925" lon="15.6609819"><ele>38.0</ele><time>2026-04-25T07:16:42.665Z</time></trkpt><trkpt lat="38.0578963" lon="15.6611306"><ele>39.0</ele><time>2026-04-25T07:16:43.665Z</time></trkpt><trkpt lat="38.0578674" lon="15.6612871"><ele>40.0</ele><time>2026-04-25T07:16:44.665Z</time></trkpt><trkpt lat="38.0578351" lon="15.6614338"><ele>41.0</ele><time>2026-04-25T07:16:45.665Z</time></trkpt><trkpt lat="38.0578054" lon="15.6615938"><ele>42.0</ele><time>2026-04-25T07:16:46.665Z</time></trkpt><trkpt lat="38.0577795" lon="15.6617703"><ele>42.0</ele><time>2026-04-25T07:16:47.665Z</time></trkpt><trkpt lat="38.0577604" lon="15.6619459"><ele>42.0</ele><time>2026-04-25T07:16:48.665Z</time></trkpt><trkpt lat="38.0577388" lon="15.6621282"><ele>42.0</ele><time>2026-04-25T07:16:49.666Z</time></trkpt><trkpt lat="38.0577213" lon="15.6623013"><ele>42.0</ele><time>2026-04-25T07:16:50.665Z</time></trkpt><trkpt lat="38.0577006" lon="15.6624598"><ele>42.75</ele><time>2026-04-25T07:16:51.665Z</time></trkpt><trkpt lat="38.0576729" lon="15.6626232"><ele>43.5</ele><time>2026-04-25T07:16:52.665Z</time></trkpt><trkpt lat="38.0576376" lon="15.6627903"><ele>44.25</ele><time>2026-04-25T07:16:53.665Z</time></trkpt><trkpt lat="38.0576118" lon="15.66297"><ele>45.0</ele><time>2026-04-25T07:16:54.666Z</time></trkpt><trkpt lat="38.0575898" lon="15.6631449"><ele>46.0</ele><time>2026-04-25T07:16:55.665Z</time></trkpt><trkpt lat="38.0575656" lon="15.6633103"><ele>47.0</ele><time>2026-04-25T07:16:56.665Z</time></trkpt><trkpt lat="38.0575328" lon="15.6634717"><ele>48.0</ele><time>2026-04-25T07:16:57.665Z</time></trkpt><trkpt lat="38.0574931" lon="15.6636381"><ele>49.0</ele><time>2026-04-25T07:16:58.666Z</time></trkpt><trkpt lat="38.0574443" lon="15.6638154"><ele>50.0</ele><time>2026-04-25T07:16:59.665Z</time></trkpt><trkpt lat="38.0573927" lon="15.6639969"><ele>51.0</ele><time>2026-04-25T07:17:00.666Z</time></trkpt><trkpt lat="38.057351" lon="15.6641852"><ele>52.0</ele><time>2026-04-25T07:17:01.666Z</time></trkpt><trkpt lat="38.0573115" lon="15.664378"><ele>53.33333333333333</ele><time>2026-04-25T07:17:02.665Z</time></trkpt><trkpt lat="38.0572652" lon="15.664565"><ele>54.66666666666667</ele><time>2026-04-25T07:17:03.665Z</time></trkpt><trkpt lat="38.0572182" lon="15.6647502"><ele>56.0</ele><time>2026-04-25T07:17:04.665Z</time></trkpt><trkpt lat="38.0571781" lon="15.6649305"><ele>56.0</ele><time>2026-04-25T07:17:05.665Z</time></trkpt><trkpt lat="38.057143" lon="15.6651152"><ele>56.0</ele><time>2026-04-25T07:17:06.665Z</time></trkpt><trkpt lat="38.0571196" lon="15.6652874"><ele>56.0</ele><time>2026-04-25T07:17:07.665Z</time></trkpt><trkpt lat="38.0570938" lon="15.6654305"><ele>56.0</ele><time>2026-04-25T07:17:08.666Z</time></trkpt><trkpt lat="38.0570749" lon="15.6655386"><ele>56.333333333333336</ele><time>2026-04-25T07:17:09.665Z</time></trkpt><trkpt lat="38.057052" lon="15.6656332"><ele>56.66666666666667</ele><time>2026-04-25T07:17:10.665Z</time></trkpt><trkpt lat="38.0570208" lon="15.6657205"><ele>57.0</ele><time>2026-04-25T07:17:11.665Z</time></trkpt><trkpt lat="38.056986" lon="15.6658112"><ele>57.33333333333333</ele><time>2026-04-25T07:17:12.665Z</time></trkpt><trkpt lat="38.0569552" lon="15.6659134"><ele>57.666666666666664</ele><time>2026-04-25T07:17:13.665Z</time></trkpt><trkpt lat="38.0569302" lon="15.6660326"><ele>58.0</ele><time>2026-04-25T07:17:14.665Z</time></trkpt><trkpt lat="38.0569026" lon="15.6661711"><ele>59.0</ele><time>2026-04-25T07:17:15.665Z</time></trkpt><trkpt lat="38.0568779" lon="15.6663349"><ele>60.0</ele><time>2026-04-25T07:17:16.665Z</time></trkpt><trkpt lat="38.0568389" lon="15.666506"><ele>61.0</ele><time>2026-04-25T07:17:17.665Z</time></trkpt><trkpt lat="38.0567898" lon="15.6666834"><ele>62.0</ele><time>2026-04-25T07:17:18.665Z</time></trkpt><trkpt lat="38.0567329" lon="15.6668641"><ele>63.66666666666667</ele><time>2026-04-25T07:17:19.665Z</time></trkpt><trkpt lat="38.0566725" lon="15.6670458"><ele>65.33333333333333</ele><time>2026-04-25T07:17:20.665Z</time></trkpt><trkpt lat="38.0566122" lon="15.6672309"><ele>67.0</ele><time>2026-04-25T07:17:21.665Z</time></trkpt><trkpt lat="38.056557" lon="15.6674139"><ele>67.0</ele><time>2026-04-25T07:17:22.665Z</time></trkpt><trkpt lat="38.0564946" lon="15.6675855"><ele>67.0</ele><time>2026-04-25T07:17:23.666Z</time></trkpt><trkpt lat="38.0564261" lon="15.6677494"><ele>67.0</ele><time>2026-04-25T07:17:24.665Z</time></trkpt><trkpt lat="38.0563524" lon="15.6679126"><ele>67.0</ele><time>2026-04-25T07:17:25.665Z</time></trkpt><trkpt lat="38.0562765" lon="15.668079"><ele>68.0</ele><time>2026-04-25T07:17:26.665Z</time></trkpt><trkpt lat="38.0561984" lon="15.6682594"><ele>69.0</ele><time>2026-04-25T07:17:27.665Z</time></trkpt><trkpt lat="38.0561224" lon="15.6684435"><ele>70.0</ele><time>2026-04-25T07:17:28.665Z</time></trkpt><trkpt lat="38.056053" lon="15.6686282"><ele>71.33333333333333</ele><time>2026-04-25T07:17:29.665Z</time></trkpt><trkpt lat="38.0559938" lon="15.6688108"><ele>72.66666666666667</ele><time>2026-04-25T07:17:30.665Z</time></trkpt><trkpt lat="38.0559351" lon="15.6689934"><ele>74.0</ele><time>2026-04-25T07:17:31.665Z</time></trkpt><trkpt lat="38.055864" lon="15.6691783"><ele>74.0</ele><time>2026-04-25T07:17:32.666Z</time></trkpt><trkpt lat="38.0557994" lon="15.6693605"><ele>74.0</ele><time>2026-04-25T07:17:33.666Z</time></trkpt><trkpt lat="38.0557339" lon="15.669548"><ele>74.0</ele><time>2026-04-25T07:17:34.665Z</time></trkpt><trkpt lat="38.0556633" lon="15.6697223"><ele>75.33333333333334</ele><time>2026-04-25T07:17:35.665Z</time></trkpt><trkpt lat="38.0555892" lon="15.6698813"><ele>76.66666666666667</ele><time>2026-04-25T07:17:36.665Z</time></trkpt><trkpt lat="38.055519" lon="15.6700497"><ele>78.0</ele><time>2026-04-25T07:17:37.665Z</time></trkpt><trkpt lat="38.0554526" lon="15.6702292"><ele>78.66666666666667</ele><time>2026-04-25T07:17:38.666Z</time></trkpt><trkpt lat="38.0554048" lon="15.6704131"><ele>79.33333333333334</ele><time>2026-04-25T07:17:39.665Z</time></trkpt><trkpt lat="38.0553622" lon="15.6706017"><ele>80.0</ele><time>2026-04-25T07:17:40.665Z</time></trkpt><trkpt lat="38.055326" lon="15.6707859"><ele>80.0</ele><time>2026-04-25T07:17:41.665Z</time></trkpt><trkpt lat="38.055281" lon="15.6709792"><ele>80.0</ele><time>2026-04-25T07:17:42.665Z</time></trkpt><trkpt lat="38.0552174" lon="15.6711652"><ele>80.0</ele><time>2026-04-25T07:17:43.666Z</time></trkpt><trkpt lat="38.0551467" lon="15.6713443"><ele>80.75</ele><time>2026-04-25T07:17:44.665Z</time></trkpt><trkpt lat="38.0550708" lon="15.6715162"><ele>81.5</ele><time>2026-04-25T07:17:45.666Z</time></trkpt><trkpt lat="38.0549968" lon="15.6716709"><ele>82.25</ele><time>2026-04-25T07:17:46.665Z</time></trkpt><trkpt lat="38.0549249" lon="15.6718037"><ele>83.0</ele><time>2026-04-25T07:17:47.665Z</time></trkpt><trkpt lat="38.0548609" lon="15.6719022"><ele>83.33333333333334</ele><time>2026-04-25T07:17:48.665Z</time></trkpt><trkpt lat="38.0548057" lon="15.6719733"><ele>83.66666666666667</ele><time>2026-04-25T07:17:49.665Z</time></trkpt><trkpt lat="38.0547557" lon="15.6720262"><ele>84.0</ele><time>2026-04-25T07:17:50.665Z</time></trkpt><trkpt lat="38.0546709" lon="15.6721022"><ele>84.33333333333333</ele><time>2026-04-25T07:17:52.665Z</time></trkpt><trkpt lat="38.0545743" lon="15.6721482"><ele>84.66666666666666</ele><time>2026-04-25T07:17:54.665Z</time></trkpt><trkpt lat="38.0544968" lon="15.6721625"><ele>85.0</ele><time>2026-04-25T07:17:55.665Z</time></trkpt><trkpt lat="38.0544294" lon="15.6721744"><ele>85.0</ele><time>2026-04-25T07:17:56.665Z</time></trkpt><trkpt lat="38.0543307" lon="15.6721934"><ele>85.0</ele><time>2026-04-25T07:17:58.665Z</time></trkpt><trkpt lat="38.0542537" lon="15.672181"><ele>85.0</ele><time>2026-04-25T07:18:00.666Z</time></trkpt><trkpt lat="38.0541648" lon="15.6721388"><ele>85.0</ele><time>2026-04-25T07:18:02.665Z</time></trkpt><trkpt lat="38.0540296" lon="15.6721176"><ele>85.0</ele><time>2026-04-25T07:18:04.665Z</time></trkpt><trkpt lat="38.0539545" lon="15.672097"><ele>85.66666666666666</ele><time>2026-04-25T07:18:05.666Z</time></trkpt><trkpt lat="38.0538909" lon="15.6720713"><ele>86.33333333333333</ele><time>2026-04-25T07:18:06.665Z</time></trkpt><trkpt lat="38.0538041" lon="15.6720424"><ele>87.0</ele><time>2026-04-25T07:18:08.666Z</time></trkpt><trkpt lat="38.0537223" lon="15.6720262"><ele>87.66666666666667</ele><time>2026-04-25T07:18:10.665Z</time></trkpt><trkpt lat="38.0536064" lon="15.6719889"><ele>88.33333333333334</ele><time>2026-04-25T07:18:12.665Z</time></trkpt><trkpt lat="38.0535431" lon="15.6719859"><ele>89.0</ele><time>2026-04-25T07:18:13.665Z</time></trkpt><trkpt lat="38.0534679" lon="15.6720065"><ele>89.0</ele><time>2026-04-25T07:18:14.665Z</time></trkpt><trkpt lat="38.0533826" lon="15.6720376"><ele>89.0</ele><time>2026-04-25T07:18:15.665Z</time></trkpt><trkpt lat="38.053299" lon="15.6720607"><ele>89.0</ele><time>2026-04-25T07:18:16.665Z</time></trkpt><trkpt lat="38.0532321" lon="15.672051"><ele>89.0</ele><time>2026-04-25T07:18:17.665Z</time></trkpt><trkpt lat="38.053141" lon="15.6720138"><ele>89.0</ele><time>2026-04-25T07:18:19.665Z</time></trkpt><trkpt lat="38.0530425" lon="15.6720492"><ele>89.0</ele><time>2026-04-25T07:18:21.665Z</time></trkpt><trkpt lat="38.0529887" lon="15.672095"><ele>89.33333333333334</ele><time>2026-04-25T07:18:22.665Z</time></trkpt><trkpt lat="38.0529386" lon="15.6721667"><ele>89.66666666666667</ele><time>2026-04-25T07:18:23.665Z</time></trkpt><trkpt lat="38.05288" lon="15.6722482"><ele>90.0</ele><time>2026-04-25T07:18:24.665Z</time></trkpt><trkpt lat="38.0528138" lon="15.6723144"><ele>90.33333333333333</ele><time>2026-04-25T07:18:25.665Z</time></trkpt><trkpt lat="38.0527303" lon="15.6723648"><ele>90.66666666666666</ele><time>2026-04-25T07:18:26.665Z</time></trkpt><trkpt lat="38.05263" lon="15.672392"><ele>91.0</ele><time>2026-04-25T07:18:27.665Z</time></trkpt><trkpt lat="38.0525165" lon="15.6724033"><ele>91.16666666666666</ele><time>2026-04-25T07:18:28.665Z</time></trkpt><trkpt lat="38.0524165" lon="15.6724274"><ele>91.33333333333333</ele><time>2026-04-25T07:18:29.665Z</time></trkpt><trkpt lat="38.0523422" lon="15.6724721"><ele>91.5</ele><time>2026-04-25T07:18:30.665Z</time></trkpt><trkpt lat="38.0522894" lon="15.6725383"><ele>91.66666666666667</ele><time>2026-04-25T07:18:31.665Z</time></trkpt><trkpt lat="38.0522551" lon="15.6726256"><ele>91.83333333333334</ele><time>2026-04-25T07:18:32.665Z</time></trkpt><trkpt lat="38.0522323" lon="15.6727335"><ele>92.0</ele><time>2026-04-25T07:18:33.666Z</time></trkpt><trkpt lat="38.0522143" lon="15.6728664"><ele>93.0</ele><time>2026-04-25T07:18:34.666Z</time></trkpt><trkpt lat="38.0521905" lon="15.6730137"><ele>94.0</ele><time>2026-04-25T07:18:35.665Z</time></trkpt><trkpt lat="38.0521522" lon="15.6731616"><ele>95.0</ele><time>2026-04-25T07:18:36.666Z</time></trkpt><trkpt lat="38.0521007" lon="15.6733111"><ele>96.0</ele><time>2026-04-25T07:18:37.665Z</time></trkpt><trkpt lat="38.0520398" lon="15.6734497"><ele>96.0</ele><time>2026-04-25T07:18:38.665Z</time></trkpt><trkpt lat="38.0519874" lon="15.6735831"><ele>96.0</ele><time>2026-04-25T07:18:39.665Z</time></trkpt><trkpt lat="38.0519504" lon="15.6737133"><ele>96.0</ele><time>2026-04-25T07:18:40.665Z</time></trkpt><trkpt lat="38.051913" lon="15.6738469"><ele>96.0</ele><time>2026-04-25T07:18:41.665Z</time></trkpt><trkpt lat="38.0518684" lon="15.6739816"><ele>97.0</ele><time>2026-04-25T07:18:42.666Z</time></trkpt><trkpt lat="38.0518278" lon="15.6741279"><ele>98.0</ele><time>2026-04-25T07:18:43.666Z</time></trkpt><trkpt lat="38.0517865" lon="15.67429"><ele>99.0</ele><time>2026-04-25T07:18:44.666Z</time></trkpt><trkpt lat="38.0517381" lon="15.6744581"><ele>100.0</ele><time>2026-04-25T07:18:45.666Z</time></trkpt><trkpt lat="38.0516942" lon="15.6746193"><ele>100.0</ele><time>2026-04-25T07:18:46.665Z</time></trkpt><trkpt lat="38.0516461" lon="15.6747675"><ele>100.0</ele><time>2026-04-25T07:18:47.665Z</time></trkpt><trkpt lat="38.0515906" lon="15.6749037"><ele>100.0</ele><time>2026-04-25T07:18:48.666Z</time></trkpt><trkpt lat="38.0515222" lon="15.6750277"><ele>100.0</ele><time>2026-04-25T07:18:49.665Z</time></trkpt><trkpt lat="38.0514557" lon="15.6751532"><ele>101.75</ele><time>2026-04-25T07:18:50.665Z</time></trkpt><trkpt lat="38.0514001" lon="15.6752939"><ele>103.5</ele><time>2026-04-25T07:18:51.665Z</time></trkpt><trkpt lat="38.0513591" lon="15.6754426"><ele>105.25</ele><time>2026-04-25T07:18:52.665Z</time></trkpt><trkpt lat="38.0513173" lon="15.6755917"><ele>107.0</ele><time>2026-04-25T07:18:53.665Z</time></trkpt><trkpt lat="38.0512652" lon="15.6757392"><ele>107.0</ele><time>2026-04-25T07:18:54.666Z</time></trkpt><trkpt lat="38.0512064" lon="15.6758776"><ele>107.0</ele><time>2026-04-25T07:18:55.665Z</time></trkpt><trkpt lat="38.0511459" lon="15.6760073"><ele>107.0</ele><time>2026-04-25T07:18:56.665Z</time></trkpt><trkpt lat="38.0510995" lon="15.6761296"><ele>107.0</ele><time>2026-04-25T07:18:57.666Z</time></trkpt><trkpt lat="38.0510635" lon="15.6762601"><ele>108.0</ele><time>2026-04-25T07:18:58.665Z</time></trkpt><trkpt lat="38.0510309" lon="15.6764088"><ele>109.0</ele><time>2026-04-25T07:18:59.665Z</time></trkpt><trkpt lat="38.0509962" lon="15.6765736"><ele>110.0</ele><time>2026-04-25T07:19:00.665Z</time></trkpt><trkpt lat="38.0509631" lon="15.6767436"><ele>111.0</ele><time>2026-04-25T07:19:01.666Z</time></trkpt><trkpt lat="38.0509289" lon="15.6769124"><ele>111.5</ele><time>2026-04-25T07:19:02.665Z</time></trkpt><trkpt lat="38.0508865" lon="15.6770773"><ele>112.0</ele><time>2026-04-25T07:19:03.665Z</time></trkpt><trkpt lat="38.0508333" lon="15.6772347"><ele>112.5</ele><time>2026-04-25T07:19:04.665Z</time></trkpt><trkpt lat="38.0507716" lon="15.677379"><ele>113.0</ele><time>2026-04-25T07:19:05.665Z</time></trkpt><trkpt lat="38.0507035" lon="15.6775138"><ele>113.60000000000001</ele><time>2026-04-25T07:19:06.666Z</time></trkpt><trkpt lat="38.0506317" lon="15.6776488"><ele>114.20000000000002</ele><time>2026-04-25T07:19:07.665Z</time></trkpt><trkpt lat="38.0505686" lon="15.6777715"><ele>114.8</ele><time>2026-04-25T07:19:08.665Z</time></trkpt><trkpt lat="38.0505187" lon="15.6778747"><ele>115.4</ele><time>2026-04-25T07:19:09.665Z</time></trkpt><trkpt lat="38.0504804" lon="15.6779803"><ele>116.0</ele><time>2026-04-25T07:19:10.665Z</time></trkpt><trkpt lat="38.0504594" lon="15.6780964"><ele>116.8</ele><time>2026-04-25T07:19:11.665Z</time></trkpt><trkpt lat="38.0504516" lon="15.6782268"><ele>117.6</ele><time>2026-04-25T07:19:12.665Z</time></trkpt><trkpt lat="38.0504555" lon="15.6783528"><ele>118.4</ele><time>2026-04-25T07:19:13.665Z</time></trkpt><trkpt lat="38.0504428" lon="15.6784667"><ele>119.2</ele><time>2026-04-25T07:19:14.666Z</time></trkpt><trkpt lat="38.050408" lon="15.6785797"><ele>120.0</ele><time>2026-04-25T07:19:15.666Z</time></trkpt><trkpt lat="38.0503503" lon="15.6786845"><ele>120.4</ele><time>2026-04-25T07:19:16.665Z</time></trkpt><trkpt lat="38.0502944" lon="15.6787893"><ele>120.8</ele><time>2026-04-25T07:19:17.665Z</time></trkpt><trkpt lat="38.0502508" lon="15.6788944"><ele>121.19999999999999</ele><time>2026-04-25T07:19:18.665Z</time></trkpt><trkpt lat="38.0502123" lon="15.6790048"><ele>121.6</ele><time>2026-04-25T07:19:19.666Z</time></trkpt><trkpt lat="38.0501719" lon="15.679103"><ele>122.0</ele><time>2026-04-25T07:19:20.666Z</time></trkpt><trkpt lat="38.0501167" lon="15.67918"><ele>121.99999999999999</ele><time>2026-04-25T07:19:21.665Z</time></trkpt><trkpt lat="38.050055" lon="15.6792465"><ele>122.0</ele><time>2026-04-25T07:19:22.666Z</time></trkpt><trkpt lat="38.0499981" lon="15.6793182"><ele>122.0</ele><time>2026-04-25T07:19:23.665Z</time></trkpt><trkpt lat="38.0499568" lon="15.6794078"><ele>122.0</ele><time>2026-04-25T07:19:24.665Z</time></trkpt><trkpt lat="38.0499266" lon="15.6795083"><ele>121.99999999999999</ele><time>2026-04-25T07:19:25.666Z</time></trkpt><trkpt lat="38.0499028" lon="15.6796193"><ele>122.0</ele><time>2026-04-25T07:19:26.665Z</time></trkpt><trkpt lat="38.0498882" lon="15.6797368"><ele>123.0</ele><time>2026-04-25T07:19:27.665Z</time></trkpt><trkpt lat="38.0498739" lon="15.679855"><ele>123.99999999999999</ele><time>2026-04-25T07:19:28.665Z</time></trkpt><trkpt lat="38.0498572" lon="15.6799714"><ele>124.99999999999999</ele><time>2026-04-25T07:19:29.665Z</time></trkpt><trkpt lat="38.0498298" lon="15.6800846"><ele>126.0</ele><time>2026-04-25T07:19:30.665Z</time></trkpt><trkpt lat="38.0497941" lon="15.6802033"><ele>127.0</ele><time>2026-04-25T07:19:31.665Z</time></trkpt><trkpt lat="38.0497455" lon="15.6803305"><ele>128.0</ele><time>2026-04-25T07:19:32.665Z</time></trkpt><trkpt lat="38.0496939" lon="15.6804624"><ele>129.0</ele><time>2026-04-25T07:19:33.666Z</time></trkpt><trkpt lat="38.0496434" lon="15.6805875"><ele>130.0</ele><time>2026-04-25T07:19:34.665Z</time></trkpt><trkpt lat="38.0496075" lon="15.6807107"><ele>131.0</ele><time>2026-04-25T07:19:35.665Z</time></trkpt><trkpt lat="38.0495788" lon="15.6808538"><ele>132.0</ele><time>2026-04-25T07:19:36.665Z</time></trkpt><trkpt lat="38.0495637" lon="15.6810177"><ele>132.25</ele><time>2026-04-25T07:19:37.665Z</time></trkpt><trkpt lat="38.0495532" lon="15.6811867"><ele>132.5</ele><time>2026-04-25T07:19:38.666Z</time></trkpt><trkpt lat="38.0495294" lon="15.6813516"><ele>132.75</ele><time>2026-04-25T07:19:39.666Z</time></trkpt><trkpt lat="38.0494916" lon="15.6815048"><ele>133.0</ele><time>2026-04-25T07:19:40.665Z</time></trkpt><trkpt lat="38.0494551" lon="15.6816557"><ele>133.0</ele><time>2026-04-25T07:19:41.665Z</time></trkpt><trkpt lat="38.0494235" lon="15.681803"><ele>133.0</ele><time>2026-04-25T07:19:42.666Z</time></trkpt><trkpt lat="38.0493893" lon="15.6819363"><ele>133.0</ele><time>2026-04-25T07:19:43.665Z</time></trkpt><trkpt lat="38.0493491" lon="15.682059"><ele>133.0</ele><time>2026-04-25T07:19:44.665Z</time></trkpt><trkpt lat="38.0493011" lon="15.6821693"><ele>133.0</ele><time>2026-04-25T07:19:45.665Z</time></trkpt><trkpt lat="38.0492481" lon="15.6822736"><ele>134.0</ele><time>2026-04-25T07:19:46.665Z</time></trkpt><trkpt lat="38.0491999" lon="15.6823831"><ele>135.0</ele><time>2026-04-25T07:19:47.665Z</time></trkpt><trkpt lat="38.0491534" lon="15.6825116"><ele>136.0</ele><time>2026-04-25T07:19:48.665Z</time></trkpt><trkpt lat="38.0491044" lon="15.6826443"><ele>137.0</ele><time>2026-04-25T07:19:49.666Z</time></trkpt><trkpt lat="38.0490564" lon="15.6827661"><ele>138.0</ele><time>2026-04-25T07:19:50.665Z</time></trkpt><trkpt lat="38.0490204" lon="15.6828781"><ele>139.16666666666666</ele><time>2026-04-25T07:19:51.665Z</time></trkpt><trkpt lat="38.0490012" lon="15.6829888"><ele>140.33333333333334</ele><time>2026-04-25T07:19:52.666Z</time></trkpt><trkpt lat="38.0490005" lon="15.6830887"><ele>141.5</ele><time>2026-04-25T07:19:53.665Z</time></trkpt><trkpt lat="38.049014" lon="15.6831913"><ele>142.66666666666669</ele><time>2026-04-25T07:19:54.665Z</time></trkpt><trkpt lat="38.0490392" lon="15.6832946"><ele>143.83333333333334</ele><time>2026-04-25T07:19:55.666Z</time></trkpt><trkpt lat="38.049066" lon="15.6833934"><ele>145.0</ele><time>2026-04-25T07:19:56.665Z</time></trkpt><trkpt lat="38.0490775" lon="15.6834812"><ele>145.6</ele><time>2026-04-25T07:19:57.665Z</time></trkpt><trkpt lat="38.0490844" lon="15.6836015"><ele>146.2</ele><time>2026-04-25T07:19:59.665Z</time></trkpt><trkpt lat="38.0491037" lon="15.6836952"><ele>146.8</ele><time>2026-04-25T07:20:02.665Z</time></trkpt><trkpt lat="38.0491089" lon="15.6838214"><ele>147.4</ele><time>2026-04-25T07:20:04.665Z</time></trkpt><trkpt lat="38.049101" lon="15.6839622"><ele>148.0</ele><time>2026-04-25T07:20:06.665Z</time></trkpt><trkpt lat="38.0490908" lon="15.6840837"><ele>148.0</ele><time>2026-04-25T07:20:08.665Z</time></trkpt><trkpt lat="38.0490727" lon="15.6841733"><ele>148.0</ele><time>2026-04-25T07:20:10.665Z</time></trkpt><trkpt lat="38.0490299" lon="15.6842377"><ele>148.0</ele><time>2026-04-25T07:20:12.665Z</time></trkpt><trkpt lat="38.0489703" lon="15.68432"><ele>148.0</ele><time>2026-04-25T07:20:14.666Z</time></trkpt><trkpt lat="38.0489376" lon="15.6843896"><ele>148.0</ele><time>2026-04-25T07:20:15.665Z</time></trkpt><trkpt lat="38.0488862" lon="15.6844856"><ele>148.0</ele><time>2026-04-25T07:20:16.665Z</time></trkpt><trkpt lat="38.0488108" lon="15.6846061"><ele>148.0</ele><time>2026-04-25T07:20:17.666Z</time></trkpt><trkpt lat="38.0487263" lon="15.6847364"><ele>148.0</ele><time>2026-04-25T07:20:18.666Z</time></trkpt><trkpt lat="38.0486515" lon="15.6848524"><ele>148.0</ele><time>2026-04-25T07:20:19.665Z</time></trkpt><trkpt lat="38.0485953" lon="15.684943"><ele>148.0</ele><time>2026-04-25T07:20:20.666Z</time></trkpt><trkpt lat="38.0485504" lon="15.6850168"><ele>148.0</ele><time>2026-04-25T07:20:21.666Z</time></trkpt><trkpt lat="38.0485136" lon="15.685094"><ele>148.0</ele><time>2026-04-25T07:20:22.666Z</time></trkpt><trkpt lat="38.0484763" lon="15.6851883"><ele>148.0</ele><time>2026-04-25T07:20:23.665Z</time></trkpt><trkpt lat="38.0484349" lon="15.6852981"><ele>148.0</ele><time>2026-04-25T07:20:24.665Z</time></trkpt><trkpt lat="38.0483937" lon="15.685412"><ele>148.0</ele><time>2026-04-25T07:20:25.665Z</time></trkpt><trkpt lat="38.0483627" lon="15.6855236"><ele>148.0</ele><time>2026-04-25T07:20:26.665Z</time></trkpt><trkpt lat="38.0483383" lon="15.6856335"><ele>148.6</ele><time>2026-04-25T07:20:27.665Z</time></trkpt><trkpt lat="38.0483246" lon="15.6857543"><ele>149.20000000000002</ele><time>2026-04-25T07:20:28.665Z</time></trkpt><trkpt lat="38.0483227" lon="15.6858812"><ele>149.8</ele><time>2026-04-25T07:20:29.666Z</time></trkpt><trkpt lat="38.0483156" lon="15.6860239"><ele>150.4</ele><time>2026-04-25T07:20:30.665Z</time></trkpt><trkpt lat="38.0483081" lon="15.6861807"><ele>151.0</ele><time>2026-04-25T07:20:31.666Z</time></trkpt><trkpt lat="38.0482961" lon="15.6863456"><ele>152.75</ele><time>2026-04-25T07:20:32.665Z</time></trkpt><trkpt lat="38.048267" lon="15.6865184"><ele>154.5</ele><time>2026-04-25T07:20:33.665Z</time></trkpt><trkpt lat="38.0482295" lon="15.6866969"><ele>156.25</ele><time>2026-04-25T07:20:34.665Z</time></trkpt><trkpt lat="38.0481892" lon="15.6868826"><ele>158.0</ele><time>2026-04-25T07:20:35.665Z</time></trkpt><trkpt lat="38.0481572" lon="15.6870715"><ele>158.0</ele><time>2026-04-25T07:20:36.665Z</time></trkpt><trkpt lat="38.0481261" lon="15.6872586"><ele>158.0</ele><time>2026-04-25T07:20:37.665Z</time></trkpt><trkpt lat="38.0480987" lon="15.6874382"><ele>158.0</ele><time>2026-04-25T07:20:38.665Z</time></trkpt><trkpt lat="38.0480692" lon="15.6876163"><ele>158.0</ele><time>2026-04-25T07:20:39.665Z</time></trkpt><trkpt lat="38.0480424" lon="15.6877947"><ele>159.25</ele><time>2026-04-25T07:20:40.665Z</time></trkpt><trkpt lat="38.0480156" lon="15.6879758"><ele>160.5</ele><time>2026-04-25T07:20:41.665Z</time></trkpt><trkpt lat="38.0479901" lon="15.6881611"><ele>161.75</ele><time>2026-04-25T07:20:42.665Z</time></trkpt><trkpt lat="38.0479687" lon="15.6883463"><ele>163.0</ele><time>2026-04-25T07:20:43.666Z</time></trkpt><trkpt lat="38.0479534" lon="15.6885324"><ele>163.5</ele><time>2026-04-25T07:20:44.665Z</time></trkpt><trkpt lat="38.0479464" lon="15.688719"><ele>164.0</ele><time>2026-04-25T07:20:45.665Z</time></trkpt><trkpt lat="38.0479476" lon="15.6888937"><ele>164.5</ele><time>2026-04-25T07:20:46.666Z</time></trkpt><trkpt lat="38.0479457" lon="15.689046"><ele>165.0</ele><time>2026-04-25T07:20:47.665Z</time></trkpt><trkpt lat="38.0479503" lon="15.6891815"><ele>165.0</ele><time>2026-04-25T07:20:48.665Z</time></trkpt><trkpt lat="38.0479424" lon="15.6893203"><ele>165.0</ele><time>2026-04-25T07:20:49.666Z</time></trkpt><trkpt lat="38.0479124" lon="15.6894623"><ele>165.0</ele><time>2026-04-25T07:20:50.665Z</time></trkpt><trkpt lat="38.04787" lon="15.6896079"><ele>165.0</ele><time>2026-04-25T07:20:51.665Z</time></trkpt><trkpt lat="38.0478376" lon="15.6897522"><ele>166.0</ele><time>2026-04-25T07:20:52.666Z</time></trkpt><trkpt lat="38.0478129" lon="15.6899053"><ele>167.0</ele><time>2026-04-25T07:20:53.665Z</time></trkpt><trkpt lat="38.0477963" lon="15.6900617"><ele>168.0</ele><time>2026-04-25T07:20:54.665Z</time></trkpt><trkpt lat="38.0477852" lon="15.6902143"><ele>169.0</ele><time>2026-04-25T07:20:55.665Z</time></trkpt><trkpt lat="38.0477836" lon="15.6903534"><ele>170.75</ele><time>2026-04-25T07:20:56.666Z</time></trkpt><trkpt lat="38.0477811" lon="15.6904839"><ele>172.5</ele><time>2026-04-25T07:20:57.665Z</time></trkpt><trkpt lat="38.0477786" lon="15.6906206"><ele>174.25</ele><time>2026-04-25T07:20:58.666Z</time></trkpt><trkpt lat="38.0477831" lon="15.6907762"><ele>176.0</ele><time>2026-04-25T07:20:59.665Z</time></trkpt><trkpt lat="38.0477894" lon="15.6909497"><ele>177.33333333333331</ele><time>2026-04-25T07:21:00.666Z</time></trkpt><trkpt lat="38.0478026" lon="15.6911371"><ele>178.66666666666666</ele><time>2026-04-25T07:21:01.665Z</time></trkpt><trkpt lat="38.0478067" lon="15.6913381"><ele>180.0</ele><time>2026-04-25T07:21:02.665Z</time></trkpt><trkpt lat="38.0477992" lon="15.6915482"><ele>180.0</ele><time>2026-04-25T07:21:03.665Z</time></trkpt><trkpt lat="38.0477815" lon="15.6917665"><ele>180.0</ele><time>2026-04-25T07:21:04.665Z</time></trkpt><trkpt lat="38.0477654" lon="15.6919552"><ele>180.0</ele><time>2026-04-25T07:21:05.665Z</time></trkpt><trkpt lat="38.047746" lon="15.69212"><ele>181.0</ele><time>2026-04-25T07:21:06.666Z</time></trkpt><trkpt lat="38.0477366" lon="15.6922618"><ele>182.0</ele><time>2026-04-25T07:21:07.666Z</time></trkpt><trkpt lat="38.0477371" lon="15.6923847"><ele>183.0</ele><time>2026-04-25T07:21:08.665Z</time></trkpt><trkpt lat="38.0477465" lon="15.6924939"><ele>184.0</ele><time>2026-04-25T07:21:09.665Z</time></trkpt><trkpt lat="38.0477665" lon="15.6926057"><ele>185.0</ele><time>2026-04-25T07:21:10.665Z</time></trkpt><trkpt lat="38.0477976" lon="15.6927234"><ele>186.0</ele><time>2026-04-25T07:21:11.665Z</time></trkpt><trkpt lat="38.0478247" lon="15.6928422"><ele>187.0</ele><time>2026-04-25T07:21:12.665Z</time></trkpt><trkpt lat="38.0478307" lon="15.692963"><ele>188.0</ele><time>2026-04-25T07:21:13.665Z</time></trkpt><trkpt lat="38.0478163" lon="15.6930764"><ele>189.0</ele><time>2026-04-25T07:21:14.665Z</time></trkpt><trkpt lat="38.0477899" lon="15.6931885"><ele>190.0</ele><time>2026-04-25T07:21:15.665Z</time></trkpt><trkpt lat="38.04777" lon="15.6933007"><ele>190.0</ele><time>2026-04-25T07:21:16.665Z</time></trkpt><trkpt lat="38.0477675" lon="15.6934252"><ele>190.0</ele><time>2026-04-25T07:21:17.665Z</time></trkpt><trkpt lat="38.0477755" lon="15.693571"><ele>190.0</ele><time>2026-04-25T07:21:18.665Z</time></trkpt><trkpt lat="38.0477837" lon="15.6937197"><ele>190.0</ele><time>2026-04-25T07:21:19.665Z</time></trkpt><trkpt lat="38.0477956" lon="15.6938675"><ele>190.0</ele><time>2026-04-25T07:21:20.665Z</time></trkpt><trkpt lat="38.0478001" lon="15.6939998"><ele>190.6</ele><time>2026-04-25T07:21:21.665Z</time></trkpt><trkpt lat="38.0477967" lon="15.6941271"><ele>191.2</ele><time>2026-04-25T07:21:22.665Z</time></trkpt><trkpt lat="38.0477763" lon="15.6942603"><ele>191.8</ele><time>2026-04-25T07:21:23.665Z</time></trkpt><trkpt lat="38.0477615" lon="15.6943916"><ele>192.4</ele><time>2026-04-25T07:21:24.665Z</time></trkpt><trkpt lat="38.0477552" lon="15.6945163"><ele>193.0</ele><time>2026-04-25T07:21:25.665Z</time></trkpt><trkpt lat="38.0477599" lon="15.6946301"><ele>193.66666666666666</ele><time>2026-04-25T07:21:26.665Z</time></trkpt><trkpt lat="38.0477635" lon="15.6947418"><ele>194.33333333333331</ele><time>2026-04-25T07:21:27.665Z</time></trkpt><trkpt lat="38.0477559" lon="15.6948478"><ele>195.0</ele><time>2026-04-25T07:21:28.665Z</time></trkpt><trkpt lat="38.0477437" lon="15.6949588"><ele>195.66666666666669</ele><time>2026-04-25T07:21:29.665Z</time></trkpt><trkpt lat="38.0477392" lon="15.6950668"><ele>196.33333333333334</ele><time>2026-04-25T07:21:30.665Z</time></trkpt><trkpt lat="38.0477264" lon="15.6951736"><ele>197.0</ele><time>2026-04-25T07:21:31.665Z</time></trkpt><trkpt lat="38.047705" lon="15.6952666"><ele>197.83333333333334</ele><time>2026-04-25T07:21:32.665Z</time></trkpt><trkpt lat="38.0476799" lon="15.6953572"><ele>198.66666666666669</ele><time>2026-04-25T07:21:33.666Z</time></trkpt><trkpt lat="38.0476558" lon="15.6954345"><ele>199.5</ele><time>2026-04-25T07:21:34.666Z</time></trkpt><trkpt lat="38.0476208" lon="15.6955723"><ele>200.33333333333331</ele><time>2026-04-25T07:21:36.665Z</time></trkpt><trkpt lat="38.047617" lon="15.6957234"><ele>201.16666666666666</ele><time>2026-04-25T07:21:38.665Z</time></trkpt><trkpt lat="38.0476058" lon="15.6958113"><ele>202.0</ele><time>2026-04-25T07:21:39.665Z</time></trkpt><trkpt lat="38.0475823" lon="15.6959137"><ele>202.0</ele><time>2026-04-25T07:21:40.666Z</time></trkpt><trkpt lat="38.0475556" lon="15.6960367"><ele>202.0</ele><time>2026-04-25T07:21:41.665Z</time></trkpt><trkpt lat="38.0475237" lon="15.6961734"><ele>202.0</ele><time>2026-04-25T07:21:42.665Z</time></trkpt><trkpt lat="38.0474904" lon="15.6963234"><ele>202.0</ele><time>2026-04-25T07:21:43.666Z</time></trkpt><trkpt lat="38.0474487" lon="15.6964875"><ele>203.33333333333331</ele><time>2026-04-25T07:21:44.665Z</time></trkpt><trkpt lat="38.0473928" lon="15.6966627"><ele>204.66666666666669</ele><time>2026-04-25T07:21:45.666Z</time></trkpt><trkpt lat="38.0473309" lon="15.696839"><ele>206.0</ele><time>2026-04-25T07:21:46.665Z</time></trkpt><trkpt lat="38.0472598" lon="15.6970074"><ele>207.0</ele><time>2026-04-25T07:21:47.665Z</time></trkpt><trkpt lat="38.0471926" lon="15.6971691"><ele>208.0</ele><time>2026-04-25T07:21:48.665Z</time></trkpt><trkpt lat="38.0471329" lon="15.6973423"><ele>209.0</ele><time>2026-04-25T07:21:49.665Z</time></trkpt><trkpt lat="38.0470935" lon="15.6975294"><ele>210.0</ele><time>2026-04-25T07:21:50.665Z</time></trkpt><trkpt lat="38.0470625" lon="15.6977338"><ele>211.0</ele><time>2026-04-25T07:21:51.666Z</time></trkpt><trkpt lat="38.0470375" lon="15.6979342"><ele>212.0</ele><time>2026-04-25T07:21:52.665Z</time></trkpt><trkpt lat="38.0470029" lon="15.6981133"><ele>213.0</ele><time>2026-04-25T07:21:53.666Z</time></trkpt><trkpt lat="38.0469553" lon="15.6982783"><ele>214.0</ele><time>2026-04-25T07:21:54.665Z</time></trkpt><trkpt lat="38.046897" lon="15.6984286"><ele>214.0</ele><time>2026-04-25T07:21:55.666Z</time></trkpt><trkpt lat="38.0468393" lon="15.6985614"><ele>213.99999999999997</ele><time>2026-04-25T07:21:56.665Z</time></trkpt><trkpt lat="38.0467929" lon="15.6986828"><ele>213.99999999999997</ele><time>2026-04-25T07:21:57.665Z</time></trkpt><trkpt lat="38.0467613" lon="15.6988069"><ele>214.0</ele><time>2026-04-25T07:21:58.666Z</time></trkpt><trkpt lat="38.0467475" lon="15.6989338"><ele>214.0</ele><time>2026-04-25T07:21:59.665Z</time></trkpt><trkpt lat="38.0467345" lon="15.6990626"><ele>214.5</ele><time>2026-04-25T07:22:00.665Z</time></trkpt><trkpt lat="38.0467154" lon="15.6991861"><ele>215.0</ele><time>2026-04-25T07:22:01.666Z</time></trkpt><trkpt lat="38.0466797" lon="15.6993171"><ele>215.5</ele><time>2026-04-25T07:22:02.665Z</time></trkpt><trkpt lat="38.046634" lon="15.6994684"><ele>216.0</ele><time>2026-04-25T07:22:03.665Z</time></trkpt><trkpt lat="38.0465795" lon="15.6996381"><ele>217.5</ele><time>2026-04-25T07:22:04.665Z</time></trkpt><trkpt lat="38.0465231" lon="15.6997983"><ele>219.0</ele><time>2026-04-25T07:22:05.665Z</time></trkpt><trkpt lat="38.0464795" lon="15.6999339"><ele>220.5</ele><time>2026-04-25T07:22:06.665Z</time></trkpt><trkpt lat="38.0464467" lon="15.7000664"><ele>222.0</ele><time>2026-04-25T07:22:07.665Z</time></trkpt><trkpt lat="38.0464132" lon="15.7002022"><ele>222.39999999999998</ele><time>2026-04-25T07:22:08.665Z</time></trkpt><trkpt lat="38.0463831" lon="15.700336"><ele>222.79999999999998</ele><time>2026-04-25T07:22:09.665Z</time></trkpt><trkpt lat="38.0463442" lon="15.7004733"><ele>223.2</ele><time>2026-04-25T07:22:10.666Z</time></trkpt><trkpt lat="38.046306" lon="15.7006029"><ele>223.6</ele><time>2026-04-25T07:22:11.665Z</time></trkpt><trkpt lat="38.0462761" lon="15.7007379"><ele>224.0</ele><time>2026-04-25T07:22:12.665Z</time></trkpt><trkpt lat="38.0462594" lon="15.7008696"><ele>224.0</ele><time>2026-04-25T07:22:13.665Z</time></trkpt><trkpt lat="38.0462393" lon="15.7010013"><ele>223.99999999999997</ele><time>2026-04-25T07:22:14.665Z</time></trkpt><trkpt lat="38.0462099" lon="15.7011314"><ele>223.99999999999997</ele><time>2026-04-25T07:22:15.665Z</time></trkpt><trkpt lat="38.0461748" lon="15.7012618"><ele>224.0</ele><time>2026-04-25T07:22:16.665Z</time></trkpt><trkpt lat="38.0461423" lon="15.7013866"><ele>224.0</ele><time>2026-04-25T07:22:17.666Z</time></trkpt><trkpt lat="38.04611" lon="15.7015148"><ele>225.5</ele><time>2026-04-25T07:22:18.665Z</time></trkpt><trkpt lat="38.0460819" lon="15.7016469"><ele>227.0</ele><time>2026-04-25T07:22:19.666Z</time></trkpt><trkpt lat="38.0460513" lon="15.7017822"><ele>228.5</ele><time>2026-04-25T07:22:20.666Z</time></trkpt><trkpt lat="38.0460193" lon="15.7019282"><ele>230.0</ele><time>2026-04-25T07:22:21.665Z</time></trkpt><trkpt lat="38.0459854" lon="15.7020827"><ele>231.0</ele><time>2026-04-25T07:22:22.665Z</time></trkpt><trkpt lat="38.0459577" lon="15.7022519"><ele>232.0</ele><time>2026-04-25T07:22:23.666Z</time></trkpt><trkpt lat="38.0459299" lon="15.7024283"><ele>233.0</ele><time>2026-04-25T07:22:24.665Z</time></trkpt><trkpt lat="38.0458938" lon="15.7026083"><ele>234.0</ele><time>2026-04-25T07:22:25.665Z</time></trkpt><trkpt lat="38.0458581" lon="15.7027608"><ele>235.2</ele><time>2026-04-25T07:22:26.665Z</time></trkpt><trkpt lat="38.0458287" lon="15.7028964"><ele>236.39999999999998</ele><time>2026-04-25T07:22:27.665Z</time></trkpt><trkpt lat="38.0457974" lon="15.7030089"><ele>237.6</ele><time>2026-04-25T07:22:28.665Z</time></trkpt><trkpt lat="38.0457694" lon="15.7031072"><ele>238.8</ele><time>2026-04-25T07:22:29.665Z</time></trkpt><trkpt lat="38.0457465" lon="15.7031872"><ele>240.0</ele><time>2026-04-25T07:22:30.665Z</time></trkpt><trkpt lat="38.0457213" lon="15.7033116"><ele>240.28571428571428</ele><time>2026-04-25T07:22:32.665Z</time></trkpt><trkpt lat="38.0456722" lon="15.7033925"><ele>240.57142857142856</ele><time>2026-04-25T07:22:35.666Z</time></trkpt><trkpt lat="38.0456074" lon="15.7033873"><ele>240.85714285714283</ele><time>2026-04-25T07:22:37.665Z</time></trkpt><trkpt lat="38.0455373" lon="15.7033706"><ele>241.14285714285714</ele><time>2026-04-25T07:22:39.665Z</time></trkpt><trkpt lat="38.0454715" lon="15.7033574"><ele>241.4285714285714</ele><time>2026-04-25T07:22:41.666Z</time></trkpt><trkpt lat="38.0454053" lon="15.7033457"><ele>241.7142857142857</ele><time>2026-04-25T07:22:44.665Z</time></trkpt><trkpt lat="38.0453339" lon="15.7033424"><ele>242.0</ele><time>2026-04-25T07:22:47.665Z</time></trkpt><trkpt lat="38.045242" lon="15.7033208"><ele>242.00000000000003</ele><time>2026-04-25T07:22:49.665Z</time></trkpt><trkpt lat="38.0451436" lon="15.703283"><ele>242.0</ele><time>2026-04-25T07:22:51.665Z</time></trkpt><trkpt lat="38.0450779" lon="15.7032728"><ele>242.0</ele><time>2026-04-25T07:22:53.666Z</time></trkpt><trkpt lat="38.0450216" lon="15.703311"><ele>242.0</ele><time>2026-04-25T07:22:55.665Z</time></trkpt><trkpt lat="38.0449366" lon="15.7034032"><ele>242.00000000000003</ele><time>2026-04-25T07:22:57.665Z</time></trkpt><trkpt lat="38.0448828" lon="15.7034529"><ele>242.0</ele><time>2026-04-25T07:22:58.665Z</time></trkpt><trkpt lat="38.0448145" lon="15.7034872"><ele>244.0</ele><time>2026-04-25T07:22:59.665Z</time></trkpt><trkpt lat="38.0447307" lon="15.7035044"><ele>246.0</ele><time>2026-04-25T07:23:00.665Z</time></trkpt><trkpt lat="38.0446323" lon="15.7035106"><ele>248.0</ele><time>2026-04-25T07:23:01.665Z</time></trkpt><trkpt lat="38.0445037" lon="15.7035256"><ele>250.0</ele><time>2026-04-25T07:23:02.666Z</time></trkpt><trkpt lat="38.044343" lon="15.7035532"><ele>250.66666666666666</ele><time>2026-04-25T07:23:03.665Z</time></trkpt><trkpt lat="38.0441564" lon="15.7035917"><ele>251.33333333333331</ele><time>2026-04-25T07:23:04.665Z</time></trkpt><trkpt lat="38.0439689" lon="15.7036276"><ele>252.0</ele><time>2026-04-25T07:23:05.665Z</time></trkpt><trkpt lat="38.0437954" lon="15.7036549"><ele>258.0</ele><time>2026-04-25T07:23:06.665Z</time></trkpt><trkpt lat="38.0436363" lon="15.7036673"><ele>264.0</ele><time>2026-04-25T07:23:07.665Z</time></trkpt><trkpt lat="38.0434846" lon="15.7036728"><ele>270.0</ele><time>2026-04-25T07:23:08.665Z</time></trkpt><trkpt lat="38.0433319" lon="15.7036714"><ele>274.0</ele><time>2026-04-25T07:23:09.666Z</time></trkpt><trkpt lat="38.043189" lon="15.7036641"><ele>278.0</ele><time>2026-04-25T07:23:10.665Z</time></trkpt><trkpt lat="38.0430587" lon="15.7036558"><ele>282.0</ele><time>2026-04-25T07:23:11.665Z</time></trkpt><trkpt lat="38.0429393" lon="15.7036512"><ele>286.0</ele><time>2026-04-25T07:23:12.665Z</time></trkpt><trkpt lat="38.0428291" lon="15.7036505"><ele>286.0</ele><time>2026-04-25T07:23:13.666Z</time></trkpt><trkpt lat="38.0427286" lon="15.7036368"><ele>286.0</ele><time>2026-04-25T07:23:14.665Z</time></trkpt><trkpt lat="38.0426459" lon="15.7036359"><ele>286.0</ele><time>2026-04-25T07:23:15.665Z</time></trkpt><trkpt lat="38.04258" lon="15.7036666"><ele>286.0</ele><time>2026-04-25T07:23:16.666Z</time></trkpt><trkpt lat="38.0425229" lon="15.7037219"><ele>286.0</ele><time>2026-04-25T07:23:17.665Z</time></trkpt><trkpt lat="38.0424764" lon="15.703791"><ele>286.0</ele><time>2026-04-25T07:23:18.665Z</time></trkpt><trkpt lat="38.0423791" lon="15.7038504"><ele>288.8333333333333</ele><time>2026-04-25T07:23:20.665Z</time></trkpt><trkpt lat="38.0423093" lon="15.7038369"><ele>291.66666666666663</ele><time>2026-04-25T07:23:21.665Z</time></trkpt><trkpt lat="38.0422236" lon="15.703825"><ele>294.5</ele><time>2026-04-25T07:23:22.666Z</time></trkpt><trkpt lat="38.042128" lon="15.7038294"><ele>297.3333333333333</ele><time>2026-04-25T07:23:23.665Z</time></trkpt><trkpt lat="38.0420397" lon="15.7038481"><ele>300.1666666666667</ele><time>2026-04-25T07:23:24.665Z</time></trkpt><trkpt lat="38.0419671" lon="15.7038715"><ele>303.0</ele><time>2026-04-25T07:23:25.666Z</time></trkpt><trkpt lat="38.0418957" lon="15.7039255"><ele>303.0</ele><time>2026-04-25T07:23:27.665Z</time></trkpt><trkpt lat="38.0419592" lon="15.7040342"><ele>303.0</ele><time>2026-04-25T07:23:30.665Z</time></trkpt><trkpt lat="38.0419972" lon="15.7041012"><ele>303.0</ele><time>2026-04-25T07:23:31.665Z</time></trkpt><trkpt lat="38.0420433" lon="15.7041953"><ele>303.0</ele><time>2026-04-25T07:23:32.666Z</time></trkpt><trkpt lat="38.0420956" lon="15.7042938"><ele>303.0</ele><time>2026-04-25T07:23:33.665Z</time></trkpt><trkpt lat="38.0421543" lon="15.704371"><ele>303.0</ele><time>2026-04-25T07:23:34.665Z</time></trkpt><trkpt lat="38.0422243" lon="15.7044253"><ele>303.3333333333333</ele><time>2026-04-25T07:23:35.665Z</time></trkpt><trkpt lat="38.0423061" lon="15.7044536"><ele>303.6666666666667</ele><time>2026-04-25T07:23:36.666Z</time></trkpt><trkpt lat="38.0423848" lon="15.7044729"><ele>304.0</ele><time>2026-04-25T07:23:37.665Z</time></trkpt><trkpt lat="38.0424635" lon="15.704475"><ele>304.33333333333337</ele><time>2026-04-25T07:23:38.665Z</time></trkpt><trkpt lat="38.0425436" lon="15.7044429"><ele>304.6666666666667</ele><time>2026-04-25T07:23:39.665Z</time></trkpt><trkpt lat="38.0426301" lon="15.7044144"><ele>305.0</ele><time>2026-04-25T07:23:40.665Z</time></trkpt><trkpt lat="38.0427134" lon="15.7043989"><ele>305.0</ele><time>2026-04-25T07:23:41.665Z</time></trkpt><trkpt lat="38.0427856" lon="15.7044003"><ele>305.0</ele><time>2026-04-25T07:23:42.666Z</time></trkpt><trkpt lat="38.0428496" lon="15.7044345"><ele>305.0</ele><time>2026-04-25T07:23:43.665Z</time></trkpt><trkpt lat="38.0429161" lon="15.704495"><ele>305.0</ele><time>2026-04-25T07:23:44.666Z</time></trkpt><trkpt lat="38.0429815" lon="15.70457"><ele>305.0</ele><time>2026-04-25T07:23:45.666Z</time></trkpt><trkpt lat="38.0430295" lon="15.7046344"><ele>305.0</ele><time>2026-04-25T07:23:46.665Z</time></trkpt><trkpt lat="38.043057" lon="15.7047566"><ele>305.0</ele><time>2026-04-25T07:23:48.665Z</time></trkpt><trkpt lat="38.0430166" lon="15.7048588"><ele>305.0</ele><time>2026-04-25T07:23:50.665Z</time></trkpt><trkpt lat="38.0429519" lon="15.7048853"><ele>305.0</ele><time>2026-04-25T07:23:52.666Z</time></trkpt><trkpt lat="38.0428819" lon="15.7048024"><ele>305.0</ele><time>2026-04-25T07:23:54.665Z</time></trkpt><trkpt lat="38.0428371" lon="15.7047381"><ele>305.0</ele><time>2026-04-25T07:23:55.666Z</time></trkpt><trkpt lat="38.042788" lon="15.7046843"><ele>305.0</ele><time>2026-04-25T07:23:56.665Z</time></trkpt><trkpt lat="38.0426713" lon="15.7046722"><ele>305.0</ele><time>2026-04-25T07:23:58.665Z</time></trkpt><trkpt lat="38.0425627" lon="15.7047447"><ele>305.0</ele><time>2026-04-25T07:24:00.666Z</time></trkpt><trkpt lat="38.0424897" lon="15.7048405"><ele>305.0</ele><time>2026-04-25T07:24:02.665Z</time></trkpt><trkpt lat="38.0424765" lon="15.7049523"><ele>305.0</ele><time>2026-04-25T07:24:04.666Z</time></trkpt><trkpt lat="38.0424714" lon="15.7050811"><ele>305.0</ele><time>2026-04-25T07:24:06.666Z</time></trkpt><trkpt lat="38.042408" lon="15.7052036"><ele>314.8</ele><time>2026-04-25T07:24:08.665Z</time></trkpt><trkpt lat="38.0423356" lon="15.705327"><ele>324.6</ele><time>2026-04-25T07:24:10.665Z</time></trkpt><trkpt lat="38.0422713" lon="15.7054587"><ele>334.4</ele><time>2026-04-25T07:24:12.666Z</time></trkpt><trkpt lat="38.0422399" lon="15.7055301"><ele>344.2</ele><time>2026-04-25T07:24:13.666Z</time></trkpt><trkpt lat="38.0421765" lon="15.7056631"><ele>354.0</ele><time>2026-04-25T07:24:15.665Z</time></trkpt><trkpt lat="38.0421383" lon="15.7057313"><ele>354.0</ele><time>2026-04-25T07:24:16.665Z</time></trkpt><trkpt lat="38.0420956" lon="15.7057973"><ele>354.0</ele><time>2026-04-25T07:24:17.665Z</time></trkpt><trkpt lat="38.0420655" lon="15.7058714"><ele>354.0</ele><time>2026-04-25T07:24:18.665Z</time></trkpt><trkpt lat="38.0420474" lon="15.7060133"><ele>354.0</ele><time>2026-04-25T07:24:20.665Z</time></trkpt><trkpt lat="38.0420616" lon="15.7061614"><ele>354.0</ele><time>2026-04-25T07:24:22.666Z</time></trkpt><trkpt lat="38.0420826" lon="15.7062916"><ele>355.2</ele><time>2026-04-25T07:24:24.665Z</time></trkpt><trkpt lat="38.0421618" lon="15.7063749"><ele>356.4</ele><time>2026-04-25T07:24:26.665Z</time></trkpt><trkpt lat="38.0422382" lon="15.7064674"><ele>357.6</ele><time>2026-04-25T07:24:28.666Z</time></trkpt><trkpt lat="38.0422626" lon="15.7066051"><ele>358.8</ele><time>2026-04-25T07:24:30.665Z</time></trkpt><trkpt lat="38.0422516" lon="15.7066871"><ele>360.0</ele><time>2026-04-25T07:24:31.665Z</time></trkpt><trkpt lat="38.0422265" lon="15.7067784"><ele>360.0</ele><time>2026-04-25T07:24:32.665Z</time></trkpt><trkpt lat="38.042197" lon="15.7068713"><ele>360.0</ele><time>2026-04-25T07:24:33.665Z</time></trkpt><trkpt lat="38.0421667" lon="15.7069599"><ele>360.0</ele><time>2026-04-25T07:24:34.665Z</time></trkpt><trkpt lat="38.0421315" lon="15.7070436"><ele>360.0</ele><time>2026-04-25T07:24:35.665Z</time></trkpt><trkpt lat="38.0420947" lon="15.7071219"><ele>360.0</ele><time>2026-04-25T07:24:36.665Z</time></trkpt><trkpt lat="38.0420596" lon="15.7072403"><ele>360.0</ele><time>2026-04-25T07:24:38.666Z</time></trkpt><trkpt lat="38.0421091" lon="15.7073132"><ele>362.0</ele><time>2026-04-25T07:24:40.665Z</time></trkpt><trkpt lat="38.0422354" lon="15.7073025"><ele>364.0</ele><time>2026-04-25T07:24:42.665Z</time></trkpt><trkpt lat="38.0423172" lon="15.7072818"><ele>366.0</ele><time>2026-04-25T07:24:43.665Z</time></trkpt><trkpt lat="38.042401" lon="15.7072777"><ele>368.0</ele><time>2026-04-25T07:24:44.665Z</time></trkpt><trkpt lat="38.0424854" lon="15.70729"><ele>370.0</ele><time>2026-04-25T07:24:45.665Z</time></trkpt><trkpt lat="38.0425618" lon="15.7073266"><ele>368.16666666666663</ele><time>2026-04-25T07:24:46.665Z</time></trkpt><trkpt lat="38.0426173" lon="15.7073793"><ele>366.3333333333333</ele><time>2026-04-25T07:24:47.665Z</time></trkpt><trkpt lat="38.0426584" lon="15.7075123"><ele>364.5</ele><time>2026-04-25T07:24:49.665Z</time></trkpt><trkpt lat="38.0426537" lon="15.7075988"><ele>362.6666666666667</ele><time>2026-04-25T07:24:50.665Z</time></trkpt><trkpt lat="38.0426278" lon="15.707685"><ele>360.83333333333337</ele><time>2026-04-25T07:24:51.665Z</time></trkpt><trkpt lat="38.0425909" lon="15.7077639"><ele>359.0</ele><time>2026-04-25T07:24:52.665Z</time></trkpt><trkpt lat="38.0425548" lon="15.7078402"><ele>359.0</ele><time>2026-04-25T07:24:53.665Z</time></trkpt><trkpt lat="38.0425191" lon="15.7079154"><ele>359.0</ele><time>2026-04-25T07:24:54.665Z</time></trkpt><trkpt lat="38.0424355" lon="15.708002"><ele>359.0</ele><time>2026-04-25T07:24:56.665Z</time></trkpt><trkpt lat="38.0423712" lon="15.7079639"><ele>359.0</ele><time>2026-04-25T07:24:58.666Z</time></trkpt><trkpt lat="38.0423581" lon="15.7078492"><ele>359.0</ele><time>2026-04-25T07:25:00.665Z</time></trkpt><trkpt lat="38.0423069" lon="15.7077047"><ele>360.83333333333337</ele><time>2026-04-25T07:25:02.666Z</time></trkpt><trkpt lat="38.0422195" lon="15.7076353"><ele>362.6666666666667</ele><time>2026-04-25T07:25:04.665Z</time></trkpt><trkpt lat="38.0421757" lon="15.7077072"><ele>364.5</ele><time>2026-04-25T07:25:07.665Z</time></trkpt><trkpt lat="38.0422156" lon="15.7078346"><ele>366.3333333333333</ele><time>2026-04-25T07:25:09.665Z</time></trkpt><trkpt lat="38.0422321" lon="15.7079325"><ele>368.16666666666663</ele><time>2026-04-25T07:25:10.665Z</time></trkpt><trkpt lat="38.0422367" lon="15.7080391"><ele>370.0</ele><time>2026-04-25T07:25:11.665Z</time></trkpt><trkpt lat="38.0422306" lon="15.7081522"><ele>372.66666666666663</ele><time>2026-04-25T07:25:12.665Z</time></trkpt><trkpt lat="38.0421995" lon="15.7082523"><ele>375.3333333333333</ele><time>2026-04-25T07:25:13.665Z</time></trkpt><trkpt lat="38.0421559" lon="15.7083215"><ele>378.0</ele><time>2026-04-25T07:25:14.665Z</time></trkpt><trkpt lat="38.0420518" lon="15.7083809"><ele>380.66666666666663</ele><time>2026-04-25T07:25:16.665Z</time></trkpt><trkpt lat="38.0419771" lon="15.7083456"><ele>383.3333333333333</ele><time>2026-04-25T07:25:18.665Z</time></trkpt><trkpt lat="38.0419674" lon="15.7082193"><ele>386.0</ele><time>2026-04-25T07:25:20.665Z</time></trkpt><trkpt lat="38.0419669" lon="15.7081298"><ele>386.0</ele><time>2026-04-25T07:25:21.665Z</time></trkpt><trkpt lat="38.0419566" lon="15.7080496"><ele>386.0</ele><time>2026-04-25T07:25:22.665Z</time></trkpt><trkpt lat="38.0418669" lon="15.7079305"><ele>386.0</ele><time>2026-04-25T07:25:24.666Z</time></trkpt><trkpt lat="38.041794" lon="15.7078818"><ele>386.0</ele><time>2026-04-25T07:25:25.665Z</time></trkpt><trkpt lat="38.041715" lon="15.7078282"><ele>386.0</ele><time>2026-04-25T07:25:26.665Z</time></trkpt><trkpt lat="38.0416363" lon="15.7077703"><ele>393.20000000000005</ele><time>2026-04-25T07:25:27.665Z</time></trkpt><trkpt lat="38.0415678" lon="15.7077066"><ele>400.40000000000003</ele><time>2026-04-25T07:25:28.665Z</time></trkpt><trkpt lat="38.0415114" lon="15.7076425"><ele>407.6</ele><time>2026-04-25T07:25:29.665Z</time></trkpt><trkpt lat="38.0414573" lon="15.7075822"><ele>414.8</ele><time>2026-04-25T07:25:30.666Z</time></trkpt><trkpt lat="38.0413901" lon="15.7074625"><ele>422.0</ele><time>2026-04-25T07:25:32.665Z</time></trkpt><trkpt lat="38.041369" lon="15.7073204"><ele>422.0</ele><time>2026-04-25T07:25:34.666Z</time></trkpt><trkpt lat="38.0413473" lon="15.7071791"><ele>422.0</ele><time>2026-04-25T07:25:36.665Z</time></trkpt><trkpt lat="38.0413028" lon="15.7070251"><ele>422.0</ele><time>2026-04-25T07:25:38.665Z</time></trkpt><trkpt lat="38.0412677" lon="15.7069434"><ele>422.0</ele><time>2026-04-25T07:25:39.665Z</time></trkpt><trkpt lat="38.0412341" lon="15.7068619"><ele>422.0</ele><time>2026-04-25T07:25:40.665Z</time></trkpt><trkpt lat="38.0412021" lon="15.7067844"><ele>419.7142857142857</ele><time>2026-04-25T07:25:41.665Z</time></trkpt><trkpt lat="38.0411754" lon="15.7067042"><ele>417.42857142857144</ele><time>2026-04-25T07:25:42.665Z</time></trkpt><trkpt lat="38.0411564" lon="15.7066191"><ele>415.1428571428571</ele><time>2026-04-25T07:25:43.665Z</time></trkpt><trkpt lat="38.0411383" lon="15.7065345"><ele>412.8571428571429</ele><time>2026-04-25T07:25:44.665Z</time></trkpt><trkpt lat="38.0411122" lon="15.706458"><ele>410.57142857142856</ele><time>2026-04-25T07:25:45.665Z</time></trkpt><trkpt lat="38.0410746" lon="15.7063896"><ele>408.2857142857143</ele><time>2026-04-25T07:25:46.665Z</time></trkpt><trkpt lat="38.0410205" lon="15.7063357"><ele>406.0</ele><time>2026-04-25T07:25:47.665Z</time></trkpt><trkpt lat="38.0409508" lon="15.7062914"><ele>406.00000000000006</ele><time>2026-04-25T07:25:48.666Z</time></trkpt><trkpt lat="38.040885" lon="15.7062378"><ele>406.0</ele><time>2026-04-25T07:25:49.665Z</time></trkpt><trkpt lat="38.0408301" lon="15.7061896"><ele>406.0</ele><time>2026-04-25T07:25:50.665Z</time></trkpt><trkpt lat="38.0407427" lon="15.7061783"><ele>406.0</ele><time>2026-04-25T07:25:52.665Z</time></trkpt><trkpt lat="38.0407314" lon="15.7062937"><ele>406.00000000000006</ele><time>2026-04-25T07:25:54.665Z</time></trkpt><trkpt lat="38.0407671" lon="15.7063864"><ele>406.0</ele><time>2026-04-25T07:25:55.665Z</time></trkpt><trkpt lat="38.0408127" lon="15.7064793"><ele>406.00000000000006</ele><time>2026-04-25T07:25:56.665Z</time></trkpt><trkpt lat="38.040863" lon="15.706577"><ele>406.0</ele><time>2026-04-25T07:25:57.665Z</time></trkpt><trkpt lat="38.0409068" lon="15.7066761"><ele>406.0</ele><time>2026-04-25T07:25:58.665Z</time></trkpt><trkpt lat="38.0409306" lon="15.7067699"><ele>406.0</ele><time>2026-04-25T07:25:59.665Z</time></trkpt><trkpt lat="38.040947" lon="15.7068553"><ele>406.00000000000006</ele><time>2026-04-25T07:26:00.665Z</time></trkpt><trkpt lat="38.0409622" lon="15.7069828"><ele>406.0</ele><time>2026-04-25T07:26:02.665Z</time></trkpt><trkpt lat="38.0409967" lon="15.707112"><ele>409.20000000000005</ele><time>2026-04-25T07:26:04.665Z</time></trkpt><trkpt lat="38.0410071" lon="15.7072604"><ele>412.40000000000003</ele><time>2026-04-25T07:26:06.665Z</time></trkpt><trkpt lat="38.040974" lon="15.7073936"><ele>415.6</ele><time>2026-04-25T07:26:08.665Z</time></trkpt><trkpt lat="38.0409309" lon="15.7075406"><ele>418.8</ele><time>2026-04-25T07:26:10.665Z</time></trkpt><trkpt lat="38.0409212" lon="15.7076237"><ele>422.0</ele><time>2026-04-25T07:26:11.665Z</time></trkpt><trkpt lat="38.0409234" lon="15.7077047"><ele>424.16666666666663</ele><time>2026-04-25T07:26:12.666Z</time></trkpt><trkpt lat="38.0409439" lon="15.707834"><ele>426.3333333333333</ele><time>2026-04-25T07:26:14.665Z</time></trkpt><trkpt lat="38.0409986" lon="15.7079536"><ele>428.5</ele><time>2026-04-25T07:26:16.665Z</time></trkpt><trkpt lat="38.04103" lon="15.7080359"><ele>430.66666666666663</ele><time>2026-04-25T07:26:17.665Z</time></trkpt><trkpt lat="38.0410524" lon="15.7081266"><ele>432.8333333333333</ele><time>2026-04-25T07:26:18.666Z</time></trkpt><trkpt lat="38.0410694" lon="15.708225"><ele>435.0</ele><time>2026-04-25T07:26:19.665Z</time></trkpt><trkpt lat="38.0410792" lon="15.7083211"><ele>435.0</ele><time>2026-04-25T07:26:20.665Z</time></trkpt><trkpt lat="38.0410774" lon="15.7084116"><ele>435.0</ele><time>2026-04-25T07:26:21.666Z</time></trkpt><trkpt lat="38.0410657" lon="15.7084922"><ele>435.0</ele><time>2026-04-25T07:26:22.665Z</time></trkpt><trkpt lat="38.0410126" lon="15.7085998"><ele>435.0</ele><time>2026-04-25T07:26:24.665Z</time></trkpt><trkpt lat="38.0409494" lon="15.7086116"><ele>435.0</ele><time>2026-04-25T07:26:26.665Z</time></trkpt><trkpt lat="38.0409285" lon="15.7085042"><ele>435.0</ele><time>2026-04-25T07:26:28.665Z</time></trkpt><trkpt lat="38.0409449" lon="15.7084165"><ele>435.0</ele><time>2026-04-25T07:26:29.666Z</time></trkpt><trkpt lat="38.0409515" lon="15.7083189"><ele>435.0</ele><time>2026-04-25T07:26:30.665Z</time></trkpt><trkpt lat="38.040946" lon="15.7082085"><ele>435.0</ele><time>2026-04-25T07:26:31.665Z</time></trkpt><trkpt lat="38.0409191" lon="15.7081031"><ele>435.0</ele><time>2026-04-25T07:26:32.665Z</time></trkpt><trkpt lat="38.040875" lon="15.7080048"><ele>435.0</ele><time>2026-04-25T07:26:33.666Z</time></trkpt><trkpt lat="38.0408229" lon="15.7079079"><ele>435.0</ele><time>2026-04-25T07:26:34.665Z</time></trkpt><trkpt lat="38.0407715" lon="15.7078193"><ele>440.1666666666667</ele><time>2026-04-25T07:26:35.665Z</time></trkpt><trkpt lat="38.0407306" lon="15.7077322"><ele>445.33333333333337</ele><time>2026-04-25T07:26:36.665Z</time></trkpt><trkpt lat="38.0407017" lon="15.707643"><ele>450.5</ele><time>2026-04-25T07:26:37.665Z</time></trkpt><trkpt lat="38.0406798" lon="15.7075422"><ele>455.6666666666667</ele><time>2026-04-25T07:26:38.665Z</time></trkpt><trkpt lat="38.0406632" lon="15.7074456"><ele>460.83333333333337</ele><time>2026-04-25T07:26:39.665Z</time></trkpt><trkpt lat="38.0406325" lon="15.7073663"><ele>466.0</ele><time>2026-04-25T07:26:40.665Z</time></trkpt><trkpt lat="38.0405926" lon="15.7072917"><ele>466.0</ele><time>2026-04-25T07:26:41.665Z</time></trkpt><trkpt lat="38.0405375" lon="15.7072092"><ele>466.0</ele><time>2026-04-25T07:26:42.665Z</time></trkpt><trkpt lat="38.0404701" lon="15.7071164"><ele>466.0</ele><time>2026-04-25T07:26:43.666Z</time></trkpt><trkpt lat="38.0403971" lon="15.7070134"><ele>466.0</ele><time>2026-04-25T07:26:44.666Z</time></trkpt><trkpt lat="38.0403205" lon="15.7069042"><ele>466.0</ele><time>2026-04-25T07:26:45.666Z</time></trkpt><trkpt lat="38.0402402" lon="15.7068023"><ele>466.00000000000006</ele><time>2026-04-25T07:26:46.665Z</time></trkpt><trkpt lat="38.0401661" lon="15.706723"><ele>466.0</ele><time>2026-04-25T07:26:47.665Z</time></trkpt><trkpt lat="38.0401073" lon="15.7066694"><ele>466.0</ele><time>2026-04-25T07:26:48.665Z</time></trkpt><trkpt lat="38.0400317" lon="15.7066586"><ele>466.0</ele><time>2026-04-25T07:26:50.666Z</time></trkpt><trkpt lat="38.0400339" lon="15.7067452"><ele>466.00000000000006</ele><time>2026-04-25T07:26:52.666Z</time></trkpt><trkpt lat="38.0400704" lon="15.7068456"><ele>466.0</ele><time>2026-04-25T07:26:54.665Z</time></trkpt><trkpt lat="38.0400989" lon="15.7069481"><ele>466.0</ele><time>2026-04-25T07:26:56.665Z</time></trkpt><trkpt lat="38.0401254" lon="15.7070559"><ele>466.0</ele><time>2026-04-25T07:26:58.665Z</time></trkpt><trkpt lat="38.0401773" lon="15.7071579"><ele>466.0</ele><time>2026-04-25T07:27:00.666Z</time></trkpt><trkpt lat="38.0402295" lon="15.7072899"><ele>466.0</ele><time>2026-04-25T07:27:02.665Z</time></trkpt><trkpt lat="38.0403006" lon="15.7074171"><ele>466.0</ele><time>2026-04-25T07:27:04.665Z</time></trkpt><trkpt lat="38.0403528" lon="15.7075459"><ele>466.0</ele><time>2026-04-25T07:27:06.666Z</time></trkpt><trkpt lat="38.0403742" lon="15.7076764"><ele>466.0</ele><time>2026-04-25T07:27:08.665Z</time></trkpt><trkpt lat="38.0403885" lon="15.7078236"><ele>466.0</ele><time>2026-04-25T07:27:10.665Z</time></trkpt><trkpt lat="38.0404255" lon="15.7079737"><ele>466.0</ele><time>2026-04-25T07:27:12.665Z</time></trkpt><trkpt lat="38.0404588" lon="15.7081213"><ele>469.1666666666667</ele><time>2026-04-25T07:27:14.665Z</time></trkpt><trkpt lat="38.0404786" lon="15.7082763"><ele>472.33333333333337</ele><time>2026-04-25T07:27:16.665Z</time></trkpt><trkpt lat="38.040476" lon="15.708357"><ele>475.5</ele><time>2026-04-25T07:27:17.665Z</time></trkpt><trkpt lat="38.0404643" lon="15.7084419"><ele>478.66666666666663</ele><time>2026-04-25T07:27:18.665Z</time></trkpt><trkpt lat="38.0404429" lon="15.7085285"><ele>481.8333333333333</ele><time>2026-04-25T07:27:19.666Z</time></trkpt><trkpt lat="38.0404168" lon="15.7086148"><ele>485.0</ele><time>2026-04-25T07:27:20.665Z</time></trkpt><trkpt lat="38.0403578" lon="15.7087496"><ele>486.8</ele><time>2026-04-25T07:27:22.665Z</time></trkpt><trkpt lat="38.0402854" lon="15.7088568"><ele>488.6</ele><time>2026-04-25T07:27:24.665Z</time></trkpt><trkpt lat="38.0402821" lon="15.7089613"><ele>490.4</ele><time>2026-04-25T07:27:26.665Z</time></trkpt><trkpt lat="38.0403627" lon="15.7090913"><ele>492.2</ele><time>2026-04-25T07:27:28.665Z</time></trkpt><trkpt lat="38.0404354" lon="15.7091609"><ele>494.0</ele><time>2026-04-25T07:27:29.665Z</time></trkpt><trkpt lat="38.0405112" lon="15.7092259"><ele>494.0</ele><time>2026-04-25T07:27:30.665Z</time></trkpt><trkpt lat="38.0405756" lon="15.7092761"><ele>494.0</ele><time>2026-04-25T07:27:31.665Z</time></trkpt><trkpt lat="38.0406295" lon="15.7093264"><ele>494.0</ele><time>2026-04-25T07:27:32.666Z</time></trkpt><trkpt lat="38.0406693" lon="15.7094556"><ele>494.0</ele><time>2026-04-25T07:27:34.665Z</time></trkpt><trkpt lat="38.0406673" lon="15.709614"><ele>494.0</ele><time>2026-04-25T07:27:36.665Z</time></trkpt><trkpt lat="38.0406541" lon="15.709744"><ele>496.0</ele><time>2026-04-25T07:27:38.665Z</time></trkpt><trkpt lat="38.0405992" lon="15.7097907"><ele>498.0</ele><time>2026-04-25T07:27:40.665Z</time></trkpt><trkpt lat="38.0404819" lon="15.7098369"><ele>500.0</ele><time>2026-04-25T07:27:42.666Z</time></trkpt><trkpt lat="38.0403875" lon="15.7098353"><ele>502.0</ele><time>2026-04-25T07:27:44.666Z</time></trkpt><trkpt lat="38.0403545" lon="15.7097331"><ele>504.0</ele><time>2026-04-25T07:27:46.665Z</time></trkpt><trkpt lat="38.0403289" lon="15.7095841"><ele>504.0</ele><time>2026-04-25T07:27:48.665Z</time></trkpt><trkpt lat="38.0402664" lon="15.7094928"><ele>504.0</ele><time>2026-04-25T07:27:50.665Z</time></trkpt><trkpt lat="38.0401835" lon="15.709433"><ele>504.0</ele><time>2026-04-25T07:27:52.665Z</time></trkpt><trkpt lat="38.0401119" lon="15.7093639"><ele>504.0</ele><time>2026-04-25T07:27:54.665Z</time></trkpt><trkpt lat="38.0400437" lon="15.7092677"><ele>504.0</ele><time>2026-04-25T07:27:56.665Z</time></trkpt><trkpt lat="38.039977" lon="15.7091571"><ele>504.0</ele><time>2026-04-25T07:27:58.665Z</time></trkpt><trkpt lat="38.0399121" lon="15.7091254"><ele>504.0</ele><time>2026-04-25T07:28:00.665Z</time></trkpt><trkpt lat="38.0398703" lon="15.7091962"><ele>504.0</ele><time>2026-04-25T07:28:02.665Z</time></trkpt><trkpt lat="38.0398779" lon="15.7092948"><ele>504.0</ele><time>2026-04-25T07:28:04.665Z</time></trkpt><trkpt lat="38.0399174" lon="15.7093798"><ele>504.0</ele><time>2026-04-25T07:28:06.666Z</time></trkpt><trkpt lat="38.0399541" lon="15.7094755"><ele>504.0</ele><time>2026-04-25T07:28:08.666Z</time></trkpt><trkpt lat="38.0399924" lon="15.7095897"><ele>504.0</ele><time>2026-04-25T07:28:10.665Z</time></trkpt><trkpt lat="38.0400103" lon="15.7096698"><ele>504.0</ele><time>2026-04-25T07:28:11.666Z</time></trkpt><trkpt lat="38.0400094" lon="15.709827"><ele>504.0</ele><time>2026-04-25T07:28:13.665Z</time></trkpt><trkpt lat="38.0399936" lon="15.7099073"><ele>504.0</ele><time>2026-04-25T07:28:14.665Z</time></trkpt><trkpt lat="38.039976" lon="15.7099855"><ele>504.0</ele><time>2026-04-25T07:28:15.666Z</time></trkpt><trkpt lat="38.0399252" lon="15.7100975"><ele>504.0</ele><time>2026-04-25T07:28:17.665Z</time></trkpt><trkpt lat="38.039883" lon="15.7101942"><ele>505.4</ele><time>2026-04-25T07:28:19.665Z</time></trkpt><trkpt lat="38.0399346" lon="15.7102899"><ele>506.79999999999995</ele><time>2026-04-25T07:28:21.665Z</time></trkpt><trkpt lat="38.0399913" lon="15.710338"><ele>508.20000000000005</ele><time>2026-04-25T07:28:22.665Z</time></trkpt><trkpt lat="38.040045" lon="15.7103868"><ele>509.6</ele><time>2026-04-25T07:28:23.665Z</time></trkpt><trkpt lat="38.0400945" lon="15.710511"><ele>511.0</ele><time>2026-04-25T07:28:25.665Z</time></trkpt><trkpt lat="38.0400464" lon="15.7106733"><ele>511.00000000000006</ele><time>2026-04-25T07:28:27.665Z</time></trkpt><trkpt lat="38.0400026" lon="15.7107497"><ele>511.0</ele><time>2026-04-25T07:28:28.665Z</time></trkpt><trkpt lat="38.0399641" lon="15.7108149"><ele>511.0</ele><time>2026-04-25T07:28:29.665Z</time></trkpt><trkpt lat="38.0399377" lon="15.7109386"><ele>511.0</ele><time>2026-04-25T07:28:31.665Z</time></trkpt><trkpt lat="38.0399436" lon="15.7110698"><ele>511.00000000000006</ele><time>2026-04-25T07:28:33.665Z</time></trkpt><trkpt lat="38.0399194" lon="15.7111942"><ele>511.0</ele><time>2026-04-25T07:28:35.665Z</time></trkpt><trkpt lat="38.0398777" lon="15.7113223"><ele>518.0</ele><time>2026-04-25T07:28:37.665Z</time></trkpt><trkpt lat="38.039856" lon="15.7114683"><ele>525.0</ele><time>2026-04-25T07:28:39.665Z</time></trkpt><trkpt lat="38.0398583" lon="15.7115589"><ele>532.0</ele><time>2026-04-25T07:28:40.665Z</time></trkpt><trkpt lat="38.039861" lon="15.7116605"><ele>539.0</ele><time>2026-04-25T07:28:41.665Z</time></trkpt><trkpt lat="38.0398701" lon="15.7117728"><ele>546.0</ele><time>2026-04-25T07:28:42.665Z</time></trkpt><trkpt lat="38.0398779" lon="15.7118765"><ele>553.0</ele><time>2026-04-25T07:28:43.665Z</time></trkpt><trkpt lat="38.0398801" lon="15.7119833"><ele>553.0</ele><time>2026-04-25T07:28:44.665Z</time></trkpt><trkpt lat="38.0398783" lon="15.7120904"><ele>553.0</ele><time>2026-04-25T07:28:45.665Z</time></trkpt><trkpt lat="38.0398764" lon="15.7121842"><ele>553.0</ele><time>2026-04-25T07:28:46.665Z</time></trkpt><trkpt lat="38.03986" lon="15.7122826"><ele>553.0</ele><time>2026-04-25T07:28:48.665Z</time></trkpt><trkpt lat="38.0397964" lon="15.7122381"><ele>553.0</ele><time>2026-04-25T07:28:51.665Z</time></trkpt><trkpt lat="38.0397754" lon="15.7121144"><ele>553.0</ele><time>2026-04-25T07:28:53.666Z</time></trkpt><trkpt lat="38.0397371" lon="15.7119902"><ele>555.0</ele><time>2026-04-25T07:28:55.666Z</time></trkpt><trkpt lat="38.0396742" lon="15.7118582"><ele>557.0</ele><time>2026-04-25T07:28:57.666Z</time></trkpt><trkpt lat="38.0396433" lon="15.7117881"><ele>559.0</ele><time>2026-04-25T07:28:58.665Z</time></trkpt><trkpt lat="38.0395951" lon="15.7116451"><ele>561.0</ele><time>2026-04-25T07:29:00.665Z</time></trkpt><trkpt lat="38.0395809" lon="15.7115012"><ele>563.0</ele><time>2026-04-25T07:29:02.666Z</time></trkpt><trkpt lat="38.0395724" lon="15.7113428"><ele>563.0</ele><time>2026-04-25T07:29:04.665Z</time></trkpt><trkpt lat="38.0395446" lon="15.7112179"><ele>563.0</ele><time>2026-04-25T07:29:06.665Z</time></trkpt><trkpt lat="38.0394607" lon="15.7111237"><ele>563.0</ele><time>2026-04-25T07:29:08.665Z</time></trkpt><trkpt lat="38.0393886" lon="15.7110291"><ele>563.0</ele><time>2026-04-25T07:29:10.665Z</time></trkpt><trkpt lat="38.0393689" lon="15.7108936"><ele>563.0</ele><time>2026-04-25T07:29:12.665Z</time></trkpt><trkpt lat="38.0393685" lon="15.7108042"><ele>562.4</ele><time>2026-04-25T07:29:13.665Z</time></trkpt><trkpt lat="38.0393764" lon="15.7107159"><ele>561.8</ele><time>2026-04-25T07:29:14.665Z</time></trkpt><trkpt lat="38.0393562" lon="15.7105691"><ele>561.2</ele><time>2026-04-25T07:29:16.666Z</time></trkpt><trkpt lat="38.039323" lon="15.7104998"><ele>560.6</ele><time>2026-04-25T07:29:17.665Z</time></trkpt><trkpt lat="38.0392722" lon="15.7103702"><ele>560.0</ele><time>2026-04-25T07:29:19.665Z</time></trkpt><trkpt lat="38.0392568" lon="15.7102405"><ele>558.1666666666666</ele><time>2026-04-25T07:29:21.665Z</time></trkpt><trkpt lat="38.0392334" lon="15.7100864"><ele>556.3333333333333</ele><time>2026-04-25T07:29:23.665Z</time></trkpt><trkpt lat="38.0392059" lon="15.7100121"><ele>554.5</ele><time>2026-04-25T07:29:24.665Z</time></trkpt><trkpt lat="38.0391662" lon="15.7099399"><ele>552.6666666666666</ele><time>2026-04-25T07:29:25.665Z</time></trkpt><trkpt lat="38.0391235" lon="15.7098745"><ele>550.8333333333334</ele><time>2026-04-25T07:29:26.666Z</time></trkpt><trkpt lat="38.0390509" lon="15.7097718"><ele>549.0</ele><time>2026-04-25T07:29:28.665Z</time></trkpt><trkpt lat="38.038988" lon="15.709722"><ele>558.1666666666666</ele><time>2026-04-25T07:29:30.665Z</time></trkpt><trkpt lat="38.0389692" lon="15.7098029"><ele>567.3333333333334</ele><time>2026-04-25T07:29:33.665Z</time></trkpt><trkpt lat="38.0389988" lon="15.7098767"><ele>576.5</ele><time>2026-04-25T07:29:34.665Z</time></trkpt><trkpt lat="38.0390308" lon="15.7099637"><ele>585.6666666666667</ele><time>2026-04-25T07:29:35.665Z</time></trkpt><trkpt lat="38.0390596" lon="15.7100509"><ele>594.8333333333334</ele><time>2026-04-25T07:29:36.665Z</time></trkpt><trkpt lat="38.0390752" lon="15.7101338"><ele>604.0</ele><time>2026-04-25T07:29:37.665Z</time></trkpt><trkpt lat="38.0390484" lon="15.7102839"><ele>605.8333333333334</ele><time>2026-04-25T07:29:39.666Z</time></trkpt><trkpt lat="38.0390262" lon="15.7103598"><ele>607.6666666666667</ele><time>2026-04-25T07:29:40.665Z</time></trkpt><trkpt lat="38.0390111" lon="15.7104392"><ele>609.5</ele><time>2026-04-25T07:29:41.666Z</time></trkpt><trkpt lat="38.0389734" lon="15.7105583"><ele>611.3333333333334</ele><time>2026-04-25T07:29:43.665Z</time></trkpt><trkpt lat="38.0389262" lon="15.7106702"><ele>613.1666666666666</ele><time>2026-04-25T07:29:45.665Z</time></trkpt><trkpt lat="38.0389072" lon="15.7108003"><ele>615.0</ele><time>2026-04-25T07:29:47.665Z</time></trkpt><trkpt lat="38.0389079" lon="15.7109406"><ele>615.0</ele><time>2026-04-25T07:29:49.665Z</time></trkpt><trkpt lat="38.0389058" lon="15.7110211"><ele>615.0</ele><time>2026-04-25T07:29:50.665Z</time></trkpt><trkpt lat="38.0389018" lon="15.7111052"><ele>615.0</ele><time>2026-04-25T07:29:51.665Z</time></trkpt><trkpt lat="38.0389001" lon="15.7112004"><ele>615.0</ele><time>2026-04-25T07:29:52.665Z</time></trkpt><trkpt lat="38.0389043" lon="15.7112926"><ele>615.0</ele><time>2026-04-25T07:29:53.666Z</time></trkpt><trkpt lat="38.0389016" lon="15.7114086"><ele>615.0</ele><time>2026-04-25T07:29:55.665Z</time></trkpt><trkpt lat="38.0388406" lon="15.7113861"><ele>615.0</ele><time>2026-04-25T07:29:58.666Z</time></trkpt><trkpt lat="38.038809" lon="15.7112448"><ele>615.0</ele><time>2026-04-25T07:30:00.665Z</time></trkpt><trkpt lat="38.0388017" lon="15.711158"><ele>615.0</ele><time>2026-04-25T07:30:01.666Z</time></trkpt><trkpt lat="38.0387943" lon="15.7110754"><ele>615.0</ele><time>2026-04-25T07:30:02.665Z</time></trkpt><trkpt lat="38.0387549" lon="15.710927"><ele>615.0</ele><time>2026-04-25T07:30:04.665Z</time></trkpt><trkpt lat="38.0387326" lon="15.7108475"><ele>615.0</ele><time>2026-04-25T07:30:05.665Z</time></trkpt><trkpt lat="38.0387205" lon="15.7107629"><ele>615.0</ele><time>2026-04-25T07:30:06.666Z</time></trkpt><trkpt lat="38.038718" lon="15.7106779"><ele>615.0</ele><time>2026-04-25T07:30:07.665Z</time></trkpt><trkpt lat="38.0387223" lon="15.7105909"><ele>615.0</ele><time>2026-04-25T07:30:08.665Z</time></trkpt><trkpt lat="38.0387294" lon="15.7104384"><ele>615.0</ele><time>2026-04-25T07:30:10.665Z</time></trkpt><trkpt lat="38.038706" lon="15.710304"><ele>615.0</ele><time>2026-04-25T07:30:12.665Z</time></trkpt><trkpt lat="38.0386489" lon="15.7101803"><ele>615.0</ele><time>2026-04-25T07:30:14.665Z</time></trkpt><trkpt lat="38.0385569" lon="15.7100686"><ele>613.1666666666666</ele><time>2026-04-25T07:30:16.665Z</time></trkpt><trkpt lat="38.0385081" lon="15.7100148"><ele>611.3333333333334</ele><time>2026-04-25T07:30:17.665Z</time></trkpt><trkpt lat="38.0384552" lon="15.7099533"><ele>609.5</ele><time>2026-04-25T07:30:18.665Z</time></trkpt><trkpt lat="38.0384029" lon="15.7098724"><ele>607.6666666666667</ele><time>2026-04-25T07:30:19.665Z</time></trkpt><trkpt lat="38.038352" lon="15.7097871"><ele>605.8333333333334</ele><time>2026-04-25T07:30:20.665Z</time></trkpt><trkpt lat="38.0382936" lon="15.7097067"><ele>604.0</ele><time>2026-04-25T07:30:21.665Z</time></trkpt><trkpt lat="38.0382379" lon="15.7096529"><ele>609.6666666666667</ele><time>2026-04-25T07:30:22.666Z</time></trkpt><trkpt lat="38.0381835" lon="15.7096051"><ele>615.3333333333334</ele><time>2026-04-25T07:30:23.665Z</time></trkpt><trkpt lat="38.0380999" lon="15.7095688"><ele>621.0</ele><time>2026-04-25T07:30:25.665Z</time></trkpt><trkpt lat="38.0381161" lon="15.7096694"><ele>626.6666666666666</ele><time>2026-04-25T07:30:28.665Z</time></trkpt><trkpt lat="38.0381965" lon="15.7097921"><ele>632.3333333333333</ele><time>2026-04-25T07:30:30.666Z</time></trkpt><trkpt lat="38.038226" lon="15.7098731"><ele>638.0</ele><time>2026-04-25T07:30:31.665Z</time></trkpt><trkpt lat="38.0382479" lon="15.7099613"><ele>638.0</ele><time>2026-04-25T07:30:32.665Z</time></trkpt><trkpt lat="38.0382629" lon="15.7100524"><ele>638.0</ele><time>2026-04-25T07:30:33.665Z</time></trkpt><trkpt lat="38.0382709" lon="15.7101458"><ele>638.0</ele><time>2026-04-25T07:30:34.665Z</time></trkpt><trkpt lat="38.0382733" lon="15.7102481"><ele>638.0</ele><time>2026-04-25T07:30:35.665Z</time></trkpt><trkpt lat="38.0382759" lon="15.7103538"><ele>638.0</ele><time>2026-04-25T07:30:36.665Z</time></trkpt><trkpt lat="38.0382805" lon="15.710459"><ele>638.0</ele><time>2026-04-25T07:30:37.665Z</time></trkpt><trkpt lat="38.0382758" lon="15.7105663"><ele>636.8333333333333</ele><time>2026-04-25T07:30:38.665Z</time></trkpt><trkpt lat="38.0382741" lon="15.7106693"><ele>635.6666666666666</ele><time>2026-04-25T07:30:39.666Z</time></trkpt><trkpt lat="38.0382695" lon="15.7107549"><ele>634.5</ele><time>2026-04-25T07:30:40.665Z</time></trkpt><trkpt lat="38.0382559" lon="15.7108421"><ele>633.3333333333334</ele><time>2026-04-25T07:30:42.665Z</time></trkpt><trkpt lat="38.0382054" lon="15.7107797"><ele>632.1666666666667</ele><time>2026-04-25T07:30:45.665Z</time></trkpt><trkpt lat="38.0381595" lon="15.7106226"><ele>631.0</ele><time>2026-04-25T07:30:47.665Z</time></trkpt><trkpt lat="38.0381246" lon="15.7105276"><ele>631.0</ele><time>2026-04-25T07:30:48.666Z</time></trkpt><trkpt lat="38.0380783" lon="15.7104337"><ele>631.0</ele><time>2026-04-25T07:30:49.665Z</time></trkpt><trkpt lat="38.0380209" lon="15.7103455"><ele>631.0</ele><time>2026-04-25T07:30:50.665Z</time></trkpt><trkpt lat="38.0379475" lon="15.7102632"><ele>631.0</ele><time>2026-04-25T07:30:51.665Z</time></trkpt><trkpt lat="38.0378711" lon="15.7101892"><ele>631.0</ele><time>2026-04-25T07:30:52.665Z</time></trkpt><trkpt lat="38.0377938" lon="15.7101226"><ele>632.1666666666667</ele><time>2026-04-25T07:30:53.665Z</time></trkpt><trkpt lat="38.037715" lon="15.7100711"><ele>633.3333333333334</ele><time>2026-04-25T07:30:54.665Z</time></trkpt><trkpt lat="38.0376387" lon="15.710038"><ele>634.5</ele><time>2026-04-25T07:30:55.665Z</time></trkpt><trkpt lat="38.0375771" lon="15.7099942"><ele>635.6666666666666</ele><time>2026-04-25T07:30:56.665Z</time></trkpt><trkpt lat="38.0375171" lon="15.7099351"><ele>636.8333333333333</ele><time>2026-04-25T07:30:57.665Z</time></trkpt><trkpt lat="38.0374495" lon="15.7098589"><ele>638.0</ele><time>2026-04-25T07:30:58.665Z</time></trkpt><trkpt lat="38.0373668" lon="15.7097657"><ele>641.5999999999999</ele><time>2026-04-25T07:30:59.666Z</time></trkpt><trkpt lat="38.0372778" lon="15.7096626"><ele>645.1999999999999</ele><time>2026-04-25T07:31:00.665Z</time></trkpt><trkpt lat="38.0371967" lon="15.709569"><ele>648.8</ele><time>2026-04-25T07:31:01.665Z</time></trkpt><trkpt lat="38.0371286" lon="15.7094755"><ele>652.4</ele><time>2026-04-25T07:31:02.665Z</time></trkpt><trkpt lat="38.037067" lon="15.7093777"><ele>656.0</ele><time>2026-04-25T07:31:03.666Z</time></trkpt><trkpt lat="38.0370064" lon="15.709276"><ele>657.3333333333333</ele><time>2026-04-25T07:31:04.665Z</time></trkpt><trkpt lat="38.0369554" lon="15.709192"><ele>658.6666666666666</ele><time>2026-04-25T07:31:05.665Z</time></trkpt><trkpt lat="38.0369168" lon="15.7091118"><ele>660.0</ele><time>2026-04-25T07:31:06.665Z</time></trkpt><trkpt lat="38.0368843" lon="15.7090239"><ele>661.3333333333334</ele><time>2026-04-25T07:31:07.665Z</time></trkpt><trkpt lat="38.0368483" lon="15.7089425"><ele>662.6666666666667</ele><time>2026-04-25T07:31:08.665Z</time></trkpt><trkpt lat="38.0368002" lon="15.7088585"><ele>664.0</ele><time>2026-04-25T07:31:09.665Z</time></trkpt><trkpt lat="38.0367437" lon="15.7087632"><ele>664.0</ele><time>2026-04-25T07:31:10.665Z</time></trkpt><trkpt lat="38.0366863" lon="15.7086633"><ele>664.0</ele><time>2026-04-25T07:31:11.665Z</time></trkpt><trkpt lat="38.0366424" lon="15.7085654"><ele>664.0</ele><time>2026-04-25T07:31:12.665Z</time></trkpt><trkpt lat="38.0366102" lon="15.7084729"><ele>664.0</ele><time>2026-04-25T07:31:13.666Z</time></trkpt><trkpt lat="38.0365837" lon="15.7083952"><ele>664.0</ele><time>2026-04-25T07:31:14.665Z</time></trkpt><trkpt lat="38.0365194" lon="15.7082874"><ele>664.0</ele><time>2026-04-25T07:31:16.666Z</time></trkpt><trkpt lat="38.0364142" lon="15.7082658"><ele>665.2</ele><time>2026-04-25T07:31:18.665Z</time></trkpt><trkpt lat="38.0362835" lon="15.7082523"><ele>666.4000000000001</ele><time>2026-04-25T07:31:20.665Z</time></trkpt><trkpt lat="38.0362221" lon="15.7082203"><ele>667.6</ele><time>2026-04-25T07:31:21.665Z</time></trkpt><trkpt lat="38.0361318" lon="15.7081411"><ele>668.8</ele><time>2026-04-25T07:31:23.665Z</time></trkpt><trkpt lat="38.0360466" lon="15.7080741"><ele>670.0</ele><time>2026-04-25T07:31:25.665Z</time></trkpt><trkpt lat="38.0359828" lon="15.7080389"><ele>669.9999999999999</ele><time>2026-04-25T07:31:26.665Z</time></trkpt><trkpt lat="38.0359138" lon="15.7079998"><ele>670.0</ele><time>2026-04-25T07:31:27.665Z</time></trkpt><trkpt lat="38.0358468" lon="15.7079617"><ele>670.0</ele><time>2026-04-25T07:31:28.666Z</time></trkpt><trkpt lat="38.0357841" lon="15.7079349"><ele>670.0</ele><time>2026-04-25T07:31:29.665Z</time></trkpt><trkpt lat="38.0357155" lon="15.7079232"><ele>670.0</ele><time>2026-04-25T07:31:30.665Z</time></trkpt><trkpt lat="38.0356466" lon="15.7079028"><ele>669.9999999999999</ele><time>2026-04-25T07:31:31.665Z</time></trkpt><trkpt lat="38.0355764" lon="15.7078665"><ele>670.0</ele><time>2026-04-25T07:31:32.665Z</time></trkpt><trkpt lat="38.0355097" lon="15.7078208"><ele>668.3333333333334</ele><time>2026-04-25T07:31:33.666Z</time></trkpt><trkpt lat="38.0354543" lon="15.7077687"><ele>666.6666666666667</ele><time>2026-04-25T07:31:34.665Z</time></trkpt><trkpt lat="38.0354064" lon="15.7077165"><ele>665.0</ele><time>2026-04-25T07:31:35.666Z</time></trkpt><trkpt lat="38.0353322" lon="15.7076348"><ele>663.3333333333334</ele><time>2026-04-25T07:31:37.665Z</time></trkpt><trkpt lat="38.0352425" lon="15.7075879"><ele>661.6666666666666</ele><time>2026-04-25T07:32:12.666Z</time></trkpt><trkpt lat="38.0351726" lon="15.7075857"><ele>660.0</ele><time>2026-04-25T07:32:14.665Z</time></trkpt><trkpt lat="38.0350887" lon="15.7076339"><ele>660.0</ele><time>2026-04-25T07:32:20.665Z</time></trkpt><trkpt lat="38.0349996" lon="15.7076748"><ele>660.0</ele><time>2026-04-25T07:32:22.665Z</time></trkpt><trkpt lat="38.0349109" lon="15.7077221"><ele>660.0</ele><time>2026-04-25T07:32:24.665Z</time></trkpt><trkpt lat="38.0348432" lon="15.7077689"><ele>660.0</ele><time>2026-04-25T07:32:26.666Z</time></trkpt><trkpt lat="38.0347722" lon="15.707811"><ele>660.0</ele><time>2026-04-25T07:32:28.665Z</time></trkpt><trkpt lat="38.0347033" lon="15.707827"><ele>660.0</ele><time>2026-04-25T07:32:30.665Z</time></trkpt><trkpt lat="38.03463" lon="15.7078267"><ele>664.0</ele><time>2026-04-25T07:32:32.665Z</time></trkpt><trkpt lat="38.0345533" lon="15.7078317"><ele>668.0</ele><time>2026-04-25T07:32:34.665Z</time></trkpt><trkpt lat="38.0344917" lon="15.7078783"><ele>672.0</ele><time>2026-04-25T07:32:45.665Z</time></trkpt><trkpt lat="38.0343983" lon="15.7079617"><ele>676.0</ele><time>2026-04-25T07:32:47.665Z</time></trkpt><trkpt lat="38.0343083" lon="15.70806"><ele>680.0</ele><time>2026-04-25T07:32:49.665Z</time></trkpt><trkpt lat="38.034235" lon="15.7081717"><ele>680.0</ele><time>2026-04-25T07:32:51.665Z</time></trkpt><trkpt lat="38.03416" lon="15.70829"><ele>680.0</ele><time>2026-04-25T07:32:53.666Z</time></trkpt><trkpt lat="38.03408" lon="15.7083833"><ele>680.0</ele><time>2026-04-25T07:32:55.665Z</time></trkpt><trkpt lat="38.03401" lon="15.7084583"><ele>680.0</ele><time>2026-04-25T07:32:57.666Z</time></trkpt><trkpt lat="38.0339917" lon="15.708555"><ele>680.0</ele><time>2026-04-25T07:35:16.665Z</time></trkpt><trkpt lat="38.0339883" lon="15.70868"><ele>680.5</ele><time>2026-04-25T07:35:18.665Z</time></trkpt><trkpt lat="38.0339867" lon="15.708785"><ele>681.0</ele><time>2026-04-25T07:35:20.665Z</time></trkpt><trkpt lat="38.0339783" lon="15.7089183"><ele>681.5</ele><time>2026-04-25T07:35:22.665Z</time></trkpt><trkpt lat="38.0339683" lon="15.7090067"><ele>682.0</ele><time>2026-04-25T07:35:23.666Z</time></trkpt><trkpt lat="38.0339533" lon="15.709105"><ele>682.5</ele><time>2026-04-25T07:35:24.665Z</time></trkpt><trkpt lat="38.03393" lon="15.70922"><ele>683.0</ele><time>2026-04-25T07:35:25.665Z</time></trkpt><trkpt lat="38.0339033" lon="15.7093383"><ele>684.1666666666666</ele><time>2026-04-25T07:35:26.665Z</time></trkpt><trkpt lat="38.0338833" lon="15.7094517"><ele>685.3333333333333</ele><time>2026-04-25T07:35:27.665Z</time></trkpt><trkpt lat="38.033855" lon="15.70956"><ele>686.5</ele><time>2026-04-25T07:35:28.665Z</time></trkpt><trkpt lat="38.0338267" lon="15.7096517"><ele>687.6666666666666</ele><time>2026-04-25T07:35:29.665Z</time></trkpt><trkpt lat="38.03379" lon="15.7097267"><ele>688.8333333333334</ele><time>2026-04-25T07:35:30.665Z</time></trkpt><trkpt lat="38.033735" lon="15.7097867"><ele>690.0</ele><time>2026-04-25T07:35:31.665Z</time></trkpt><trkpt lat="38.0336833" lon="15.7098483"><ele>690.0</ele><time>2026-04-25T07:35:32.665Z</time></trkpt><trkpt lat="38.0336383" lon="15.7099217"><ele>690.0</ele><time>2026-04-25T07:35:33.665Z</time></trkpt><trkpt lat="38.0336083" lon="15.71"><ele>690.0</ele><time>2026-04-25T07:35:34.665Z</time></trkpt><trkpt lat="38.0335883" lon="15.7100983"><ele>690.0</ele><time>2026-04-25T07:35:35.665Z</time></trkpt><trkpt lat="38.03358" lon="15.7102083"><ele>690.0</ele><time>2026-04-25T07:35:36.665Z</time></trkpt><trkpt lat="38.0335717" lon="15.71032"><ele>690.0</ele><time>2026-04-25T07:35:37.665Z</time></trkpt><trkpt lat="38.03359" lon="15.710435"><ele>690.25</ele><time>2026-04-25T07:35:38.666Z</time></trkpt><trkpt lat="38.03364" lon="15.7105617"><ele>690.5</ele><time>2026-04-25T07:35:39.665Z</time></trkpt><trkpt lat="38.0337017" lon="15.7106933"><ele>690.75</ele><time>2026-04-25T07:35:40.665Z</time></trkpt><trkpt lat="38.0337433" lon="15.7108183"><ele>691.0</ele><time>2026-04-25T07:35:41.665Z</time></trkpt><trkpt lat="38.033765" lon="15.71096"><ele>692.8</ele><time>2026-04-25T07:35:42.665Z</time></trkpt><trkpt lat="38.03376" lon="15.711075"><ele>694.5999999999999</ele><time>2026-04-25T07:35:43.665Z</time></trkpt><trkpt lat="38.0337367" lon="15.7111883"><ele>696.4</ele><time>2026-04-25T07:35:44.665Z</time></trkpt><trkpt lat="38.033705" lon="15.7113083"><ele>698.2</ele><time>2026-04-25T07:35:45.665Z</time></trkpt><trkpt lat="38.0336817" lon="15.7114283"><ele>700.0</ele><time>2026-04-25T07:35:46.665Z</time></trkpt><trkpt lat="38.0336783" lon="15.7115433"><ele>700.0</ele><time>2026-04-25T07:35:47.665Z</time></trkpt><trkpt lat="38.0337083" lon="15.7116583"><ele>700.0</ele><time>2026-04-25T07:35:48.665Z</time></trkpt><trkpt lat="38.03377" lon="15.711785"><ele>700.0</ele><time>2026-04-25T07:35:49.665Z</time></trkpt><trkpt lat="38.0338467" lon="15.7119483"><ele>700.0</ele><time>2026-04-25T07:35:50.665Z</time></trkpt><trkpt lat="38.0339267" lon="15.71214"><ele>695.3333333333334</ele><time>2026-04-25T07:35:51.665Z</time></trkpt><trkpt lat="38.0340083" lon="15.7123433"><ele>690.6666666666666</ele><time>2026-04-25T07:35:52.665Z</time></trkpt><trkpt lat="38.034075" lon="15.7125317"><ele>686.0</ele><time>2026-04-25T07:35:53.665Z</time></trkpt><trkpt lat="38.034145" lon="15.71271"><ele>687.0</ele><time>2026-04-25T07:35:54.665Z</time></trkpt><trkpt lat="38.034205" lon="15.7129017"><ele>688.0</ele><time>2026-04-25T07:35:55.665Z</time></trkpt><trkpt lat="38.0342517" lon="15.7131083"><ele>689.0</ele><time>2026-04-25T07:35:56.666Z</time></trkpt><trkpt lat="38.03429" lon="15.71332"><ele>689.0</ele><time>2026-04-25T07:35:57.665Z</time></trkpt><trkpt lat="38.03434" lon="15.7135267"><ele>689.0</ele><time>2026-04-25T07:35:58.665Z</time></trkpt><trkpt lat="38.0343833" lon="15.7137167"><ele>689.0</ele><time>2026-04-25T07:35:59.665Z</time></trkpt><trkpt lat="38.034425" lon="15.7138867"><ele>691.6</ele><time>2026-04-25T07:36:00.665Z</time></trkpt><trkpt lat="38.0344533" lon="15.71403"><ele>694.2</ele><time>2026-04-25T07:36:01.666Z</time></trkpt><trkpt lat="38.0344717" lon="15.714145"><ele>696.8000000000001</ele><time>2026-04-25T07:36:02.665Z</time></trkpt><trkpt lat="38.0344783" lon="15.714255"><ele>699.4000000000001</ele><time>2026-04-25T07:36:03.665Z</time></trkpt><trkpt lat="38.034475" lon="15.7143533"><ele>702.0</ele><time>2026-04-25T07:36:04.665Z</time></trkpt><trkpt lat="38.0344683" lon="15.7144517"><ele>703.0</ele><time>2026-04-25T07:36:05.665Z</time></trkpt><trkpt lat="38.0344517" lon="15.7145617"><ele>704.0</ele><time>2026-04-25T07:36:06.665Z</time></trkpt><trkpt lat="38.034435" lon="15.7146767"><ele>705.0</ele><time>2026-04-25T07:36:07.665Z</time></trkpt><trkpt lat="38.0344117" lon="15.714805"><ele>706.0</ele><time>2026-04-25T07:36:08.666Z</time></trkpt><trkpt lat="38.0344" lon="15.714925"><ele>707.0</ele><time>2026-04-25T07:36:09.665Z</time></trkpt><trkpt lat="38.0343817" lon="15.71505"><ele>707.0</ele><time>2026-04-25T07:36:10.665Z</time></trkpt><trkpt lat="38.0343683" lon="15.7151617"><ele>707.0</ele><time>2026-04-25T07:36:11.665Z</time></trkpt><trkpt lat="38.034365" lon="15.7152567"><ele>707.0</ele><time>2026-04-25T07:36:12.665Z</time></trkpt><trkpt lat="38.0343483" lon="15.7153433"><ele>707.0</ele><time>2026-04-25T07:36:13.666Z</time></trkpt><trkpt lat="38.0343083" lon="15.71544"><ele>707.0</ele><time>2026-04-25T07:36:14.665Z</time></trkpt><trkpt lat="38.0342567" lon="15.7155333"><ele>707.0</ele><time>2026-04-25T07:36:15.665Z</time></trkpt><trkpt lat="38.03421" lon="15.7156133"><ele>706.8571428571429</ele><time>2026-04-25T07:36:16.665Z</time></trkpt><trkpt lat="38.0341783" lon="15.7156883"><ele>706.7142857142858</ele><time>2026-04-25T07:36:17.666Z</time></trkpt><trkpt lat="38.0341483" lon="15.7157667"><ele>706.5714285714286</ele><time>2026-04-25T07:36:18.665Z</time></trkpt><trkpt lat="38.0341083" lon="15.7158417"><ele>706.4285714285714</ele><time>2026-04-25T07:36:19.666Z</time></trkpt><trkpt lat="38.0340733" lon="15.7159133"><ele>706.2857142857143</ele><time>2026-04-25T07:36:20.665Z</time></trkpt><trkpt lat="38.0340417" lon="15.71599"><ele>706.1428571428571</ele><time>2026-04-25T07:36:21.665Z</time></trkpt><trkpt lat="38.0340133" lon="15.7160767"><ele>706.0</ele><time>2026-04-25T07:36:22.665Z</time></trkpt><trkpt lat="38.0339983" lon="15.7161867"><ele>702.4</ele><time>2026-04-25T07:36:23.665Z</time></trkpt><trkpt lat="38.0339933" lon="15.7163133"><ele>698.8</ele><time>2026-04-25T07:36:24.666Z</time></trkpt><trkpt lat="38.0339917" lon="15.7164467"><ele>695.1999999999999</ele><time>2026-04-25T07:36:25.665Z</time></trkpt><trkpt lat="38.0339917" lon="15.7165817"><ele>691.5999999999999</ele><time>2026-04-25T07:36:26.665Z</time></trkpt><trkpt lat="38.034005" lon="15.7167033"><ele>688.0</ele><time>2026-04-25T07:36:27.665Z</time></trkpt><trkpt lat="38.034" lon="15.71681"><ele>688.0</ele><time>2026-04-25T07:36:28.665Z</time></trkpt><trkpt lat="38.0339983" lon="15.716895"><ele>688.0</ele><time>2026-04-25T07:36:29.665Z</time></trkpt><trkpt lat="38.0339783" lon="15.7169733"><ele>688.0</ele><time>2026-04-25T07:36:30.666Z</time></trkpt><trkpt lat="38.0338983" lon="15.7171033"><ele>688.0</ele><time>2026-04-25T07:36:32.665Z</time></trkpt><trkpt lat="38.033845" lon="15.7171517"><ele>688.0</ele><time>2026-04-25T07:36:33.665Z</time></trkpt><trkpt lat="38.033785" lon="15.7171883"><ele>688.0</ele><time>2026-04-25T07:36:34.665Z</time></trkpt><trkpt lat="38.0337233" lon="15.71722"><ele>686.0</ele><time>2026-04-25T07:36:35.665Z</time></trkpt><trkpt lat="38.0336467" lon="15.7172317"><ele>684.0</ele><time>2026-04-25T07:36:36.666Z</time></trkpt><trkpt lat="38.0335683" lon="15.7172233"><ele>682.0</ele><time>2026-04-25T07:36:37.665Z</time></trkpt><trkpt lat="38.033505" lon="15.7172033"><ele>680.0</ele><time>2026-04-25T07:36:38.665Z</time></trkpt><trkpt lat="38.03342" lon="15.7172183"><ele>678.0</ele><time>2026-04-25T07:36:40.665Z</time></trkpt><trkpt lat="38.0334633" lon="15.7173267"><ele>676.0</ele><time>2026-04-25T07:36:43.666Z</time></trkpt><trkpt lat="38.033515" lon="15.71738"><ele>676.0</ele><time>2026-04-25T07:36:44.665Z</time></trkpt><trkpt lat="38.0335733" lon="15.7174433"><ele>676.0</ele><time>2026-04-25T07:36:45.665Z</time></trkpt><trkpt lat="38.03364" lon="15.7175383"><ele>676.0</ele><time>2026-04-25T07:36:47.666Z</time></trkpt><trkpt lat="38.033645" lon="15.7176233"><ele>676.0</ele><time>2026-04-25T07:36:49.665Z</time></trkpt><trkpt lat="38.0336167" lon="15.717775"><ele>676.0</ele><time>2026-04-25T07:36:51.665Z</time></trkpt><trkpt lat="38.03361" lon="15.71789"><ele>674.4</ele><time>2026-04-25T07:36:52.665Z</time></trkpt><trkpt lat="38.033585" lon="15.7180083"><ele>672.8</ele><time>2026-04-25T07:36:53.666Z</time></trkpt><trkpt lat="38.0335467" lon="15.71812"><ele>671.1999999999999</ele><time>2026-04-25T07:36:54.665Z</time></trkpt><trkpt lat="38.0334867" lon="15.7182283"><ele>669.5999999999999</ele><time>2026-04-25T07:36:55.665Z</time></trkpt><trkpt lat="38.0334233" lon="15.7183167"><ele>668.0</ele><time>2026-04-25T07:36:56.665Z</time></trkpt><trkpt lat="38.033355" lon="15.7183867"><ele>668.0</ele><time>2026-04-25T07:36:57.665Z</time></trkpt><trkpt lat="38.0333067" lon="15.718455"><ele>668.0</ele><time>2026-04-25T07:36:58.665Z</time></trkpt><trkpt lat="38.0332717" lon="15.7186217"><ele>668.0</ele><time>2026-04-25T07:37:00.665Z</time></trkpt><trkpt lat="38.0332767" lon="15.7187367"><ele>668.0</ele><time>2026-04-25T07:37:01.666Z</time></trkpt><trkpt lat="38.0332817" lon="15.7188783"><ele>668.0</ele><time>2026-04-25T07:37:02.665Z</time></trkpt><trkpt lat="38.033275" lon="15.71905"><ele>669.0</ele><time>2026-04-25T07:37:03.665Z</time></trkpt><trkpt lat="38.033255" lon="15.71922"><ele>670.0</ele><time>2026-04-25T07:37:04.665Z</time></trkpt><trkpt lat="38.033225" lon="15.7193617"><ele>671.0</ele><time>2026-04-25T07:37:05.665Z</time></trkpt><trkpt lat="38.0331983" lon="15.7194667"><ele>672.0</ele><time>2026-04-25T07:37:06.665Z</time></trkpt><trkpt lat="38.0331683" lon="15.7195467"><ele>673.0</ele><time>2026-04-25T07:37:07.666Z</time></trkpt><trkpt lat="38.0331567" lon="15.71968"><ele>675.5999999999999</ele><time>2026-04-25T07:37:09.665Z</time></trkpt><trkpt lat="38.0332" lon="15.7197983"><ele>678.1999999999999</ele><time>2026-04-25T07:37:11.665Z</time></trkpt><trkpt lat="38.03324" lon="15.7198917"><ele>680.8</ele><time>2026-04-25T07:37:13.665Z</time></trkpt><trkpt lat="38.0332683" lon="15.71998"><ele>683.4</ele><time>2026-04-25T07:37:15.666Z</time></trkpt><trkpt lat="38.0332483" lon="15.720115"><ele>686.0</ele><time>2026-04-25T07:37:32.665Z</time></trkpt><trkpt lat="38.033195" lon="15.720275"><ele>686.0</ele><time>2026-04-25T07:37:34.665Z</time></trkpt><trkpt lat="38.0331483" lon="15.7203567"><ele>686.0</ele><time>2026-04-25T07:37:35.665Z</time></trkpt><trkpt lat="38.0330617" lon="15.7204233"><ele>686.0</ele><time>2026-04-25T07:37:37.665Z</time></trkpt><trkpt lat="38.0330167" lon="15.7203583"><ele>686.0</ele><time>2026-04-25T07:37:39.666Z</time></trkpt><trkpt lat="38.03303" lon="15.720235"><ele>686.0</ele><time>2026-04-25T07:37:41.665Z</time></trkpt><trkpt lat="38.0330283" lon="15.7201033"><ele>686.0</ele><time>2026-04-25T07:37:43.665Z</time></trkpt><trkpt lat="38.032995" lon="15.7200333"><ele>686.0</ele><time>2026-04-25T07:37:44.665Z</time></trkpt><trkpt lat="38.0329383" lon="15.71996"><ele>686.0</ele><time>2026-04-25T07:37:45.665Z</time></trkpt><trkpt lat="38.0328583" lon="15.7198733"><ele>686.0</ele><time>2026-04-25T07:37:46.665Z</time></trkpt><trkpt lat="38.0327717" lon="15.719785"><ele>686.0</ele><time>2026-04-25T07:37:47.665Z</time></trkpt><trkpt lat="38.0326883" lon="15.7196933"><ele>686.0</ele><time>2026-04-25T07:37:48.665Z</time></trkpt><trkpt lat="38.0326217" lon="15.7196033"><ele>686.0</ele><time>2026-04-25T07:37:49.665Z</time></trkpt><trkpt lat="38.0325633" lon="15.7195"><ele>686.0</ele><time>2026-04-25T07:37:50.665Z</time></trkpt><trkpt lat="38.0325017" lon="15.7194"><ele>686.0</ele><time>2026-04-25T07:37:51.665Z</time></trkpt><trkpt lat="38.032455" lon="15.71933"><ele>686.0</ele><time>2026-04-25T07:37:52.665Z</time></trkpt><trkpt lat="38.032435" lon="15.71921"><ele>683.4</ele><time>2026-04-25T07:37:54.665Z</time></trkpt><trkpt lat="38.0325317" lon="15.7191033"><ele>680.8</ele><time>2026-04-25T07:37:56.665Z</time></trkpt><trkpt lat="38.0326" lon="15.7190567"><ele>678.1999999999999</ele><time>2026-04-25T07:37:57.666Z</time></trkpt><trkpt lat="38.0326483" lon="15.7189483"><ele>675.5999999999999</ele><time>2026-04-25T07:37:59.665Z</time></trkpt><trkpt lat="38.0326017" lon="15.718835"><ele>673.0</ele><time>2026-04-25T07:38:01.665Z</time></trkpt><trkpt lat="38.0325517" lon="15.718775"><ele>673.0</ele><time>2026-04-25T07:38:02.665Z</time></trkpt><trkpt lat="38.0324983" lon="15.7187117"><ele>673.0</ele><time>2026-04-25T07:38:03.665Z</time></trkpt><trkpt lat="38.0324483" lon="15.7186383"><ele>673.0</ele><time>2026-04-25T07:38:04.665Z</time></trkpt><trkpt lat="38.0323867" lon="15.71857"><ele>673.0</ele><time>2026-04-25T07:38:05.665Z</time></trkpt><trkpt lat="38.032335" lon="15.71848"><ele>673.0</ele><time>2026-04-25T07:38:06.665Z</time></trkpt><trkpt lat="38.0323067" lon="15.7183917"><ele>673.0</ele><time>2026-04-25T07:38:07.665Z</time></trkpt><trkpt lat="38.032305" lon="15.7183067"><ele>676.6666666666667</ele><time>2026-04-25T07:38:08.666Z</time></trkpt><trkpt lat="38.032325" lon="15.7181567"><ele>680.3333333333334</ele><time>2026-04-25T07:38:10.665Z</time></trkpt><trkpt lat="38.0323217" lon="15.7180733"><ele>684.0</ele><time>2026-04-25T07:38:11.665Z</time></trkpt><trkpt lat="38.0323017" lon="15.7179867"><ele>687.6666666666666</ele><time>2026-04-25T07:38:12.666Z</time></trkpt><trkpt lat="38.0322683" lon="15.7179033"><ele>691.3333333333333</ele><time>2026-04-25T07:38:13.666Z</time></trkpt><trkpt lat="38.03223" lon="15.7178217"><ele>695.0</ele><time>2026-04-25T07:38:14.665Z</time></trkpt><trkpt lat="38.032175" lon="15.7177283"><ele>695.0</ele><time>2026-04-25T07:38:15.665Z</time></trkpt><trkpt lat="38.0321083" lon="15.7176267"><ele>695.0</ele><time>2026-04-25T07:38:16.665Z</time></trkpt><trkpt lat="38.03205" lon="15.7175317"><ele>695.0</ele><time>2026-04-25T07:38:17.665Z</time></trkpt><trkpt lat="38.031995" lon="15.717455"><ele>695.0</ele><time>2026-04-25T07:38:18.665Z</time></trkpt><trkpt lat="38.03194" lon="15.7174017"><ele>695.0</ele><time>2026-04-25T07:38:19.665Z</time></trkpt><trkpt lat="38.0318183" lon="15.71736"><ele>695.0</ele><time>2026-04-25T07:38:21.665Z</time></trkpt><trkpt lat="38.0317517" lon="15.7173617"><ele>695.0</ele><time>2026-04-25T07:38:22.665Z</time></trkpt><trkpt lat="38.0316817" lon="15.71737"><ele>695.0</ele><time>2026-04-25T07:38:23.665Z</time></trkpt><trkpt lat="38.0315917" lon="15.7173933"><ele>695.0</ele><time>2026-04-25T07:38:25.666Z</time></trkpt><trkpt lat="38.0315117" lon="15.7174067"><ele>695.0</ele><time>2026-04-25T07:38:27.665Z</time></trkpt><trkpt lat="38.0314433" lon="15.71735"><ele>695.0</ele><time>2026-04-25T07:38:29.665Z</time></trkpt><trkpt lat="38.0314317" lon="15.7172517"><ele>698.2</ele><time>2026-04-25T07:38:31.665Z</time></trkpt><trkpt lat="38.0314467" lon="15.7171367"><ele>701.4</ele><time>2026-04-25T07:38:33.665Z</time></trkpt><trkpt lat="38.0314533" lon="15.7169917"><ele>704.5999999999999</ele><time>2026-04-25T07:38:35.666Z</time></trkpt><trkpt lat="38.0314333" lon="15.7168483"><ele>707.8</ele><time>2026-04-25T07:38:37.665Z</time></trkpt><trkpt lat="38.0313617" lon="15.716735"><ele>711.0</ele><time>2026-04-25T07:38:39.665Z</time></trkpt><trkpt lat="38.0312417" lon="15.7166767"><ele>711.0</ele><time>2026-04-25T07:38:41.665Z</time></trkpt><trkpt lat="38.03117" lon="15.7166733"><ele>711.0</ele><time>2026-04-25T07:38:42.665Z</time></trkpt><trkpt lat="38.0311" lon="15.7166783"><ele>711.0</ele><time>2026-04-25T07:38:43.665Z</time></trkpt><trkpt lat="38.031005" lon="15.7166383"><ele>711.0</ele><time>2026-04-25T07:38:45.665Z</time></trkpt><trkpt lat="38.0309633" lon="15.7165267"><ele>711.0</ele><time>2026-04-25T07:38:47.666Z</time></trkpt><trkpt lat="38.030905" lon="15.7163733"><ele>711.0</ele><time>2026-04-25T07:38:49.665Z</time></trkpt><trkpt lat="38.03085" lon="15.7162983"><ele>711.0</ele><time>2026-04-25T07:38:50.665Z</time></trkpt><trkpt lat="38.03078" lon="15.7162467"><ele>711.0</ele><time>2026-04-25T07:38:51.666Z</time></trkpt><trkpt lat="38.0306917" lon="15.7162183"><ele>711.0</ele><time>2026-04-25T07:38:52.665Z</time></trkpt><trkpt lat="38.0305933" lon="15.7162183"><ele>711.0</ele><time>2026-04-25T07:38:53.665Z</time></trkpt><trkpt lat="38.030495" lon="15.71624"><ele>711.3333333333334</ele><time>2026-04-25T07:38:54.665Z</time></trkpt><trkpt lat="38.03041" lon="15.7162567"><ele>711.6666666666666</ele><time>2026-04-25T07:38:55.665Z</time></trkpt><trkpt lat="38.0303467" lon="15.71625"><ele>712.0</ele><time>2026-04-25T07:38:56.666Z</time></trkpt><trkpt lat="38.0302717" lon="15.716145"><ele>712.3333333333333</ele><time>2026-04-25T07:38:58.665Z</time></trkpt><trkpt lat="38.0302517" lon="15.7160583"><ele>712.6666666666666</ele><time>2026-04-25T07:38:59.666Z</time></trkpt><trkpt lat="38.0302383" lon="15.7159417"><ele>713.0</ele><time>2026-04-25T07:39:00.666Z</time></trkpt><trkpt lat="38.0302167" lon="15.715815"><ele>713.0</ele><time>2026-04-25T07:39:01.665Z</time></trkpt><trkpt lat="38.0301783" lon="15.7156883"><ele>713.0</ele><time>2026-04-25T07:39:02.665Z</time></trkpt><trkpt lat="38.03012" lon="15.7155767"><ele>713.0</ele><time>2026-04-25T07:39:03.665Z</time></trkpt><trkpt lat="38.0300617" lon="15.7154583"><ele>713.0</ele><time>2026-04-25T07:39:04.665Z</time></trkpt><trkpt lat="38.03" lon="15.7153433"><ele>713.0</ele><time>2026-04-25T07:39:05.665Z</time></trkpt><trkpt lat="38.0299467" lon="15.7152517"><ele>713.0</ele><time>2026-04-25T07:39:06.665Z</time></trkpt><trkpt lat="38.0298783" lon="15.71518"><ele>713.0</ele><time>2026-04-25T07:39:08.665Z</time></trkpt><trkpt lat="38.0298517" lon="15.715255"><ele>713.0</ele><time>2026-04-25T07:39:10.665Z</time></trkpt><trkpt lat="38.02992" lon="15.7153767"><ele>713.0</ele><time>2026-04-25T07:39:12.665Z</time></trkpt><trkpt lat="38.029975" lon="15.7154783"><ele>713.0</ele><time>2026-04-25T07:39:14.666Z</time></trkpt><trkpt lat="38.0300283" lon="15.7156367"><ele>713.0</ele><time>2026-04-25T07:39:16.665Z</time></trkpt><trkpt lat="38.03005" lon="15.7157383"><ele>713.0</ele><time>2026-04-25T07:39:17.665Z</time></trkpt><trkpt lat="38.0300633" lon="15.71584"><ele>713.0</ele><time>2026-04-25T07:39:18.665Z</time></trkpt><trkpt lat="38.0300783" lon="15.7159417"><ele>713.0</ele><time>2026-04-25T07:39:19.665Z</time></trkpt><trkpt lat="38.030095" lon="15.7160417"><ele>713.0</ele><time>2026-04-25T07:39:20.665Z</time></trkpt><trkpt lat="38.0300967" lon="15.7161333"><ele>713.0</ele><time>2026-04-25T07:39:21.666Z</time></trkpt><trkpt lat="38.0300933" lon="15.716225"><ele>713.5999999999999</ele><time>2026-04-25T07:39:22.665Z</time></trkpt><trkpt lat="38.03008" lon="15.7163117"><ele>714.1999999999999</ele><time>2026-04-25T07:39:23.666Z</time></trkpt><trkpt lat="38.0300883" lon="15.716455"><ele>714.8</ele><time>2026-04-25T07:39:25.665Z</time></trkpt><trkpt lat="38.0301333" lon="15.7165783"><ele>715.4</ele><time>2026-04-25T07:39:27.666Z</time></trkpt><trkpt lat="38.03019" lon="15.71669"><ele>716.0</ele><time>2026-04-25T07:39:29.665Z</time></trkpt><trkpt lat="38.0302267" lon="15.7168017"><ele>715.8</ele><time>2026-04-25T07:39:31.665Z</time></trkpt><trkpt lat="38.0302633" lon="15.7169117"><ele>715.5999999999999</ele><time>2026-04-25T07:39:33.666Z</time></trkpt><trkpt lat="38.0303033" lon="15.7170067"><ele>715.4</ele><time>2026-04-25T07:39:48.665Z</time></trkpt><trkpt lat="38.0303683" lon="15.7171283"><ele>715.2</ele><time>2026-04-25T07:39:55.665Z</time></trkpt><trkpt lat="38.0304117" lon="15.7172067"><ele>715.0</ele><time>2026-04-25T07:39:56.665Z</time></trkpt><trkpt lat="38.0304567" lon="15.7172967"><ele>715.0</ele><time>2026-04-25T07:39:57.665Z</time></trkpt><trkpt lat="38.0304983" lon="15.71741"><ele>715.0</ele><time>2026-04-25T07:39:58.666Z</time></trkpt><trkpt lat="38.030525" lon="15.7175517"><ele>715.0</ele><time>2026-04-25T07:39:59.665Z</time></trkpt><trkpt lat="38.0305217" lon="15.7176967"><ele>715.0</ele><time>2026-04-25T07:40:00.665Z</time></trkpt><trkpt lat="38.0305" lon="15.717855"><ele>717.0</ele><time>2026-04-25T07:40:01.665Z</time></trkpt><trkpt lat="38.0304667" lon="15.7180133"><ele>719.0</ele><time>2026-04-25T07:40:02.666Z</time></trkpt><trkpt lat="38.0304333" lon="15.7181633"><ele>721.0</ele><time>2026-04-25T07:40:03.665Z</time></trkpt><trkpt lat="38.0303783" lon="15.71832"><ele>723.0</ele><time>2026-04-25T07:40:04.666Z</time></trkpt><trkpt lat="38.03031" lon="15.7184683"><ele>724.0</ele><time>2026-04-25T07:40:05.665Z</time></trkpt><trkpt lat="38.0302417" lon="15.7186117"><ele>725.0</ele><time>2026-04-25T07:40:06.666Z</time></trkpt><trkpt lat="38.0301833" lon="15.71875"><ele>726.0</ele><time>2026-04-25T07:40:07.665Z</time></trkpt><trkpt lat="38.0301483" lon="15.7188683"><ele>727.0</ele><time>2026-04-25T07:40:08.665Z</time></trkpt><trkpt lat="38.03013" lon="15.71897"><ele>728.0</ele><time>2026-04-25T07:40:09.665Z</time></trkpt><trkpt lat="38.0301033" lon="15.7190733"><ele>728.0</ele><time>2026-04-25T07:40:10.665Z</time></trkpt><trkpt lat="38.03006" lon="15.7191767"><ele>728.0</ele><time>2026-04-25T07:40:11.665Z</time></trkpt><trkpt lat="38.0300083" lon="15.7192767"><ele>728.0</ele><time>2026-04-25T07:40:12.665Z</time></trkpt><trkpt lat="38.0299567" lon="15.7193567"><ele>728.0</ele><time>2026-04-25T07:40:13.665Z</time></trkpt><trkpt lat="38.0299033" lon="15.7194383"><ele>728.0</ele><time>2026-04-25T07:40:14.665Z</time></trkpt><trkpt lat="38.02987" lon="15.7195117"><ele>728.0</ele><time>2026-04-25T07:40:15.665Z</time></trkpt><trkpt lat="38.0298433" lon="15.7195967"><ele>731.2</ele><time>2026-04-25T07:40:16.666Z</time></trkpt><trkpt lat="38.0298367" lon="15.7196983"><ele>734.4</ele><time>2026-04-25T07:40:17.665Z</time></trkpt><trkpt lat="38.0298283" lon="15.7198333"><ele>737.6</ele><time>2026-04-25T07:40:18.665Z</time></trkpt><trkpt lat="38.0298217" lon="15.7199617"><ele>740.8000000000001</ele><time>2026-04-25T07:40:19.665Z</time></trkpt><trkpt lat="38.02982" lon="15.7200617"><ele>744.0</ele><time>2026-04-25T07:40:20.665Z</time></trkpt><trkpt lat="38.029835" lon="15.7201783"><ele>744.5714285714287</ele><time>2026-04-25T07:40:21.665Z</time></trkpt><trkpt lat="38.02984" lon="15.7202967"><ele>745.1428571428571</ele><time>2026-04-25T07:40:22.666Z</time></trkpt><trkpt lat="38.0298167" lon="15.7203983"><ele>745.7142857142858</ele><time>2026-04-25T07:40:23.665Z</time></trkpt><trkpt lat="38.0297767" lon="15.7204733"><ele>746.2857142857143</ele><time>2026-04-25T07:40:24.665Z</time></trkpt><trkpt lat="38.0297233" lon="15.7205183"><ele>746.8571428571429</ele><time>2026-04-25T07:40:25.665Z</time></trkpt><trkpt lat="38.0296633" lon="15.72055"><ele>747.4285714285714</ele><time>2026-04-25T07:40:26.665Z</time></trkpt><trkpt lat="38.0296017" lon="15.7205867"><ele>748.0</ele><time>2026-04-25T07:40:27.665Z</time></trkpt><trkpt lat="38.0295217" lon="15.7206317"><ele>748.0</ele><time>2026-04-25T07:40:28.665Z</time></trkpt><trkpt lat="38.029435" lon="15.72068"><ele>748.0</ele><time>2026-04-25T07:40:29.666Z</time></trkpt><trkpt lat="38.02935" lon="15.7207083"><ele>748.0</ele><time>2026-04-25T07:40:30.665Z</time></trkpt><trkpt lat="38.0292517" lon="15.7207483"><ele>748.0</ele><time>2026-04-25T07:40:31.665Z</time></trkpt><trkpt lat="38.0291517" lon="15.720785"><ele>748.0</ele><time>2026-04-25T07:40:32.666Z</time></trkpt><trkpt lat="38.02906" lon="15.7208167"><ele>748.0</ele><time>2026-04-25T07:40:33.665Z</time></trkpt><trkpt lat="38.0289717" lon="15.720865"><ele>748.0</ele><time>2026-04-25T07:40:34.665Z</time></trkpt><trkpt lat="38.0288983" lon="15.720935"><ele>748.0</ele><time>2026-04-25T07:40:35.666Z</time></trkpt><trkpt lat="38.0288467" lon="15.721025"><ele>748.0</ele><time>2026-04-25T07:40:36.665Z</time></trkpt><trkpt lat="38.028815" lon="15.7211383"><ele>748.0</ele><time>2026-04-25T07:40:37.665Z</time></trkpt><trkpt lat="38.0287967" lon="15.7212667"><ele>749.2</ele><time>2026-04-25T07:40:38.665Z</time></trkpt><trkpt lat="38.0287883" lon="15.7213933"><ele>750.4</ele><time>2026-04-25T07:40:39.665Z</time></trkpt><trkpt lat="38.0288067" lon="15.7215283"><ele>751.6</ele><time>2026-04-25T07:40:40.665Z</time></trkpt><trkpt lat="38.02882" lon="15.7216683"><ele>752.8000000000001</ele><time>2026-04-25T07:40:41.665Z</time></trkpt><trkpt lat="38.028805" lon="15.721805"><ele>754.0</ele><time>2026-04-25T07:40:42.665Z</time></trkpt><trkpt lat="38.0287633" lon="15.7219367"><ele>756.4000000000001</ele><time>2026-04-25T07:40:43.665Z</time></trkpt><trkpt lat="38.0287183" lon="15.7220617"><ele>758.8</ele><time>2026-04-25T07:40:44.666Z</time></trkpt><trkpt lat="38.02868" lon="15.7221783"><ele>761.2</ele><time>2026-04-25T07:40:45.666Z</time></trkpt><trkpt lat="38.028665" lon="15.722285"><ele>763.5999999999999</ele><time>2026-04-25T07:40:46.665Z</time></trkpt><trkpt lat="38.0286483" lon="15.722405"><ele>766.0</ele><time>2026-04-25T07:40:47.665Z</time></trkpt><trkpt lat="38.0286517" lon="15.7225133"><ele>766.0</ele><time>2026-04-25T07:40:48.665Z</time></trkpt><trkpt lat="38.0286633" lon="15.7226117"><ele>766.0</ele><time>2026-04-25T07:40:49.665Z</time></trkpt><trkpt lat="38.0286783" lon="15.7227167"><ele>766.0</ele><time>2026-04-25T07:40:50.665Z</time></trkpt><trkpt lat="38.0286967" lon="15.7228217"><ele>766.0</ele><time>2026-04-25T07:40:51.665Z</time></trkpt><trkpt lat="38.0287183" lon="15.7229283"><ele>766.0</ele><time>2026-04-25T07:40:52.666Z</time></trkpt><trkpt lat="38.0287267" lon="15.7230317"><ele>766.0</ele><time>2026-04-25T07:40:53.665Z</time></trkpt><trkpt lat="38.0287233" lon="15.72314"><ele>767.3333333333334</ele><time>2026-04-25T07:40:54.666Z</time></trkpt><trkpt lat="38.028715" lon="15.7232567"><ele>768.6666666666667</ele><time>2026-04-25T07:40:55.665Z</time></trkpt><trkpt lat="38.02871" lon="15.72337"><ele>770.0</ele><time>2026-04-25T07:40:56.665Z</time></trkpt><trkpt lat="38.0287067" lon="15.7234783"><ele>771.3333333333334</ele><time>2026-04-25T07:40:57.665Z</time></trkpt><trkpt lat="38.0286883" lon="15.7235833"><ele>772.6666666666666</ele><time>2026-04-25T07:40:58.665Z</time></trkpt><trkpt lat="38.02867" lon="15.7236983"><ele>774.0</ele><time>2026-04-25T07:40:59.665Z</time></trkpt><trkpt lat="38.0286683" lon="15.723805"><ele>775.1666666666666</ele><time>2026-04-25T07:41:00.665Z</time></trkpt><trkpt lat="38.0286633" lon="15.723905"><ele>776.3333333333333</ele><time>2026-04-25T07:41:01.665Z</time></trkpt><trkpt lat="38.0286483" lon="15.7240183"><ele>777.5</ele><time>2026-04-25T07:41:02.665Z</time></trkpt><trkpt lat="38.0286533" lon="15.72413"><ele>778.6666666666666</ele><time>2026-04-25T07:41:03.665Z</time></trkpt><trkpt lat="38.0286833" lon="15.72425"><ele>779.8333333333333</ele><time>2026-04-25T07:41:04.665Z</time></trkpt><trkpt lat="38.0287317" lon="15.724345"><ele>781.0</ele><time>2026-04-25T07:41:05.665Z</time></trkpt><trkpt lat="38.0287767" lon="15.7244533"><ele>782.1999999999999</ele><time>2026-04-25T07:41:06.665Z</time></trkpt><trkpt lat="38.0288" lon="15.7245767"><ele>783.4</ele><time>2026-04-25T07:41:07.665Z</time></trkpt><trkpt lat="38.02882" lon="15.7246967"><ele>784.6</ele><time>2026-04-25T07:41:08.665Z</time></trkpt><trkpt lat="38.0288417" lon="15.724825"><ele>785.8</ele><time>2026-04-25T07:41:09.666Z</time></trkpt><trkpt lat="38.0288633" lon="15.7249233"><ele>787.0</ele><time>2026-04-25T07:41:10.665Z</time></trkpt><trkpt lat="38.0288733" lon="15.7250567"><ele>787.0</ele><time>2026-04-25T07:41:12.665Z</time></trkpt><trkpt lat="38.0288017" lon="15.7251367"><ele>787.0</ele><time>2026-04-25T07:41:14.665Z</time></trkpt><trkpt lat="38.0287067" lon="15.7251967"><ele>787.0</ele><time>2026-04-25T07:41:15.665Z</time></trkpt><trkpt lat="38.0286283" lon="15.72527"><ele>787.0</ele><time>2026-04-25T07:41:16.665Z</time></trkpt><trkpt lat="38.028565" lon="15.7253583"><ele>787.0</ele><time>2026-04-25T07:41:17.665Z</time></trkpt><trkpt lat="38.0285133" lon="15.7254733"><ele>787.0</ele><time>2026-04-25T07:41:18.665Z</time></trkpt><trkpt lat="38.0284683" lon="15.7255883"><ele>787.0</ele><time>2026-04-25T07:41:19.665Z</time></trkpt><trkpt lat="38.0284167" lon="15.725705"><ele>787.0</ele><time>2026-04-25T07:41:20.665Z</time></trkpt><trkpt lat="38.0283533" lon="15.7258333"><ele>787.0</ele><time>2026-04-25T07:41:21.665Z</time></trkpt><trkpt lat="38.0282967" lon="15.7259817"><ele>788.2</ele><time>2026-04-25T07:41:22.665Z</time></trkpt><trkpt lat="38.0282567" lon="15.72611"><ele>789.4000000000001</ele><time>2026-04-25T07:41:23.665Z</time></trkpt><trkpt lat="38.0282333" lon="15.7262167"><ele>790.5999999999999</ele><time>2026-04-25T07:41:24.665Z</time></trkpt><trkpt lat="38.0282217" lon="15.7263183"><ele>791.8</ele><time>2026-04-25T07:41:25.666Z</time></trkpt><trkpt lat="38.0282567" lon="15.7264667"><ele>793.0</ele><time>2026-04-25T07:41:27.665Z</time></trkpt><trkpt lat="38.0283017" lon="15.7265483"><ele>793.2</ele><time>2026-04-25T07:41:28.665Z</time></trkpt><trkpt lat="38.02836" lon="15.726635"><ele>793.4</ele><time>2026-04-25T07:41:29.665Z</time></trkpt><trkpt lat="38.0284117" lon="15.7267367"><ele>793.6</ele><time>2026-04-25T07:41:30.666Z</time></trkpt><trkpt lat="38.0284583" lon="15.726855"><ele>793.8000000000001</ele><time>2026-04-25T07:41:31.665Z</time></trkpt><trkpt lat="38.0284667" lon="15.72698"><ele>794.0</ele><time>2026-04-25T07:41:32.666Z</time></trkpt><trkpt lat="38.0284617" lon="15.7271033"><ele>794.8000000000001</ele><time>2026-04-25T07:41:33.665Z</time></trkpt><trkpt lat="38.0284567" lon="15.727235"><ele>795.6</ele><time>2026-04-25T07:41:34.665Z</time></trkpt><trkpt lat="38.0284517" lon="15.7273667"><ele>796.4</ele><time>2026-04-25T07:41:35.666Z</time></trkpt><trkpt lat="38.02845" lon="15.7274983"><ele>797.2</ele><time>2026-04-25T07:41:36.665Z</time></trkpt><trkpt lat="38.0284467" lon="15.72762"><ele>798.0</ele><time>2026-04-25T07:41:37.666Z</time></trkpt><trkpt lat="38.02842" lon="15.727725"><ele>798.6666666666666</ele><time>2026-04-25T07:41:38.665Z</time></trkpt><trkpt lat="38.0283733" lon="15.7278217"><ele>799.3333333333333</ele><time>2026-04-25T07:41:39.665Z</time></trkpt><trkpt lat="38.028315" lon="15.7279"><ele>800.0</ele><time>2026-04-25T07:41:40.665Z</time></trkpt><trkpt lat="38.0282583" lon="15.727985"><ele>800.6666666666666</ele><time>2026-04-25T07:41:41.665Z</time></trkpt><trkpt lat="38.0282033" lon="15.7280633"><ele>801.3333333333333</ele><time>2026-04-25T07:41:42.665Z</time></trkpt><trkpt lat="38.0281333" lon="15.7281233"><ele>802.0</ele><time>2026-04-25T07:41:43.665Z</time></trkpt><trkpt lat="38.028045" lon="15.7281583"><ele>803.5</ele><time>2026-04-25T07:41:44.665Z</time></trkpt><trkpt lat="38.027945" lon="15.7281933"><ele>805.0</ele><time>2026-04-25T07:41:45.666Z</time></trkpt><trkpt lat="38.0278333" lon="15.7282533"><ele>806.5</ele><time>2026-04-25T07:41:46.665Z</time></trkpt><trkpt lat="38.0277233" lon="15.72833"><ele>808.0</ele><time>2026-04-25T07:41:47.666Z</time></trkpt><trkpt lat="38.0276333" lon="15.7284167"><ele>808.0</ele><time>2026-04-25T07:41:48.666Z</time></trkpt><trkpt lat="38.0275767" lon="15.7285267"><ele>808.0</ele><time>2026-04-25T07:41:49.665Z</time></trkpt><trkpt lat="38.0275517" lon="15.72865"><ele>808.0</ele><time>2026-04-25T07:41:50.665Z</time></trkpt><trkpt lat="38.027565" lon="15.7287667"><ele>808.0</ele><time>2026-04-25T07:41:51.665Z</time></trkpt><trkpt lat="38.0275933" lon="15.72887"><ele>808.0</ele><time>2026-04-25T07:41:52.665Z</time></trkpt><trkpt lat="38.0276483" lon="15.7289717"><ele>808.5</ele><time>2026-04-25T07:41:53.666Z</time></trkpt><trkpt lat="38.0277283" lon="15.729075"><ele>809.0</ele><time>2026-04-25T07:41:54.665Z</time></trkpt><trkpt lat="38.0278167" lon="15.72919"><ele>809.5</ele><time>2026-04-25T07:41:55.665Z</time></trkpt><trkpt lat="38.0279" lon="15.7293033"><ele>810.0</ele><time>2026-04-25T07:41:56.665Z</time></trkpt><trkpt lat="38.0279867" lon="15.7293867"><ele>809.8</ele><time>2026-04-25T07:41:57.665Z</time></trkpt><trkpt lat="38.0280817" lon="15.7294317"><ele>809.6</ele><time>2026-04-25T07:41:58.665Z</time></trkpt><trkpt lat="38.02818" lon="15.729455"><ele>809.4000000000001</ele><time>2026-04-25T07:41:59.665Z</time></trkpt><trkpt lat="38.0282717" lon="15.7295067"><ele>809.2</ele><time>2026-04-25T07:42:00.665Z</time></trkpt><trkpt lat="38.0283483" lon="15.729585"><ele>809.0</ele><time>2026-04-25T07:42:01.665Z</time></trkpt><trkpt lat="38.0284067" lon="15.7296933"><ele>809.0</ele><time>2026-04-25T07:42:02.665Z</time></trkpt><trkpt lat="38.028445" lon="15.72982"><ele>809.0</ele><time>2026-04-25T07:42:03.666Z</time></trkpt><trkpt lat="38.0284633" lon="15.7299567"><ele>809.0</ele><time>2026-04-25T07:42:04.665Z</time></trkpt><trkpt lat="38.028485" lon="15.7300833"><ele>809.0</ele><time>2026-04-25T07:42:05.665Z</time></trkpt><trkpt lat="38.0285" lon="15.7302"><ele>809.0</ele><time>2026-04-25T07:42:06.666Z</time></trkpt><trkpt lat="38.0284933" lon="15.7303167"><ele>808.0</ele><time>2026-04-25T07:42:07.665Z</time></trkpt><trkpt lat="38.0284583" lon="15.7304283"><ele>807.0</ele><time>2026-04-25T07:42:08.665Z</time></trkpt><trkpt lat="38.02842" lon="15.7305483"><ele>806.0</ele><time>2026-04-25T07:42:09.665Z</time></trkpt><trkpt lat="38.0284117" lon="15.7306733"><ele>805.0</ele><time>2026-04-25T07:42:10.665Z</time></trkpt><trkpt lat="38.0284333" lon="15.7307917"><ele>804.0</ele><time>2026-04-25T07:42:11.665Z</time></trkpt><trkpt lat="38.0284517" lon="15.7309183"><ele>804.0</ele><time>2026-04-25T07:42:12.665Z</time></trkpt><trkpt lat="38.0284783" lon="15.7310467"><ele>804.0</ele><time>2026-04-25T07:42:13.665Z</time></trkpt><trkpt lat="38.0285183" lon="15.7311467"><ele>804.0</ele><time>2026-04-25T07:42:14.665Z</time></trkpt><trkpt lat="38.02859" lon="15.7312283"><ele>804.0</ele><time>2026-04-25T07:42:15.665Z</time></trkpt><trkpt lat="38.0286633" lon="15.7313183"><ele>804.0</ele><time>2026-04-25T07:42:16.665Z</time></trkpt><trkpt lat="38.0287333" lon="15.731425"><ele>803.6</ele><time>2026-04-25T07:42:17.665Z</time></trkpt><trkpt lat="38.0287867" lon="15.731545"><ele>803.2</ele><time>2026-04-25T07:42:18.665Z</time></trkpt><trkpt lat="38.0288317" lon="15.7316717"><ele>802.8000000000001</ele><time>2026-04-25T07:42:19.665Z</time></trkpt><trkpt lat="38.02886" lon="15.7317833"><ele>802.4000000000001</ele><time>2026-04-25T07:42:20.666Z</time></trkpt><trkpt lat="38.0288683" lon="15.7318767"><ele>802.0</ele><time>2026-04-25T07:42:21.665Z</time></trkpt><trkpt lat="38.0288567" lon="15.731975"><ele>802.0</ele><time>2026-04-25T07:42:22.666Z</time></trkpt><trkpt lat="38.0288233" lon="15.73209"><ele>802.0</ele><time>2026-04-25T07:42:23.665Z</time></trkpt><trkpt lat="38.02879" lon="15.7322133"><ele>802.0</ele><time>2026-04-25T07:42:24.665Z</time></trkpt><trkpt lat="38.0287533" lon="15.7323383"><ele>802.0</ele><time>2026-04-25T07:42:25.665Z</time></trkpt><trkpt lat="38.02869" lon="15.732445"><ele>802.0</ele><time>2026-04-25T07:42:26.665Z</time></trkpt><trkpt lat="38.0286233" lon="15.73256"><ele>802.0</ele><time>2026-04-25T07:42:27.665Z</time></trkpt><trkpt lat="38.0285533" lon="15.7326867"><ele>802.0</ele><time>2026-04-25T07:42:28.665Z</time></trkpt><trkpt lat="38.02849" lon="15.7328067"><ele>802.0</ele><time>2026-04-25T07:42:29.665Z</time></trkpt><trkpt lat="38.0284317" lon="15.7328917"><ele>802.0</ele><time>2026-04-25T07:42:30.665Z</time></trkpt><trkpt lat="38.0283667" lon="15.7329517"><ele>802.0</ele><time>2026-04-25T07:42:31.665Z</time></trkpt><trkpt lat="38.0282817" lon="15.7329983"><ele>800.25</ele><time>2026-04-25T07:42:32.665Z</time></trkpt><trkpt lat="38.0281683" lon="15.7330533"><ele>798.5</ele><time>2026-04-25T07:42:33.666Z</time></trkpt><trkpt lat="38.0280417" lon="15.7331417"><ele>796.75</ele><time>2026-04-25T07:42:34.665Z</time></trkpt><trkpt lat="38.027905" lon="15.7332517"><ele>795.0</ele><time>2026-04-25T07:42:35.665Z</time></trkpt><trkpt lat="38.027785" lon="15.733365"><ele>795.0</ele><time>2026-04-25T07:42:36.665Z</time></trkpt><trkpt lat="38.0276817" lon="15.7334733"><ele>795.0</ele><time>2026-04-25T07:42:37.665Z</time></trkpt><trkpt lat="38.0275867" lon="15.73357"><ele>795.0</ele><time>2026-04-25T07:42:38.665Z</time></trkpt><trkpt lat="38.027495" lon="15.7336517"><ele>795.0</ele><time>2026-04-25T07:42:39.665Z</time></trkpt><trkpt lat="38.0273883" lon="15.7337133"><ele>792.0</ele><time>2026-04-25T07:42:40.665Z</time></trkpt><trkpt lat="38.02727" lon="15.7337717"><ele>789.0</ele><time>2026-04-25T07:42:41.665Z</time></trkpt><trkpt lat="38.02714" lon="15.7338567"><ele>786.0</ele><time>2026-04-25T07:42:42.666Z</time></trkpt><trkpt lat="38.0270167" lon="15.73394"><ele>783.0</ele><time>2026-04-25T07:42:43.665Z</time></trkpt><trkpt lat="38.0269067" lon="15.7340233"><ele>783.0</ele><time>2026-04-25T07:42:44.666Z</time></trkpt><trkpt lat="38.02681" lon="15.734125"><ele>783.0</ele><time>2026-04-25T07:42:45.665Z</time></trkpt><trkpt lat="38.0267267" lon="15.7342283"><ele>783.0</ele><time>2026-04-25T07:42:46.665Z</time></trkpt><trkpt lat="38.02663" lon="15.7343283"><ele>783.0</ele><time>2026-04-25T07:42:47.665Z</time></trkpt><trkpt lat="38.02653" lon="15.734425"><ele>785.8</ele><time>2026-04-25T07:42:48.665Z</time></trkpt><trkpt lat="38.0264317" lon="15.73452"><ele>788.5999999999999</ele><time>2026-04-25T07:42:49.666Z</time></trkpt><trkpt lat="38.02635" lon="15.7346083"><ele>791.4000000000001</ele><time>2026-04-25T07:42:50.666Z</time></trkpt><trkpt lat="38.026265" lon="15.734665"><ele>794.2</ele><time>2026-04-25T07:42:51.665Z</time></trkpt><trkpt lat="38.0261683" lon="15.734695"><ele>797.0</ele><time>2026-04-25T07:42:52.665Z</time></trkpt><trkpt lat="38.0260567" lon="15.7347033"><ele>797.0</ele><time>2026-04-25T07:42:53.665Z</time></trkpt><trkpt lat="38.0259367" lon="15.734705"><ele>797.0</ele><time>2026-04-25T07:42:54.666Z</time></trkpt><trkpt lat="38.0258283" lon="15.7347367"><ele>797.0</ele><time>2026-04-25T07:42:55.665Z</time></trkpt><trkpt lat="38.0257417" lon="15.7347917"><ele>797.0</ele><time>2026-04-25T07:42:56.666Z</time></trkpt><trkpt lat="38.0256767" lon="15.734895"><ele>797.0</ele><time>2026-04-25T07:42:57.665Z</time></trkpt><trkpt lat="38.02563" lon="15.7350033"><ele>797.25</ele><time>2026-04-25T07:42:58.665Z</time></trkpt><trkpt lat="38.025565" lon="15.7350967"><ele>797.5</ele><time>2026-04-25T07:42:59.665Z</time></trkpt><trkpt lat="38.0254617" lon="15.7351817"><ele>797.75</ele><time>2026-04-25T07:43:00.665Z</time></trkpt><trkpt lat="38.0253433" lon="15.7352567"><ele>798.0</ele><time>2026-04-25T07:43:01.665Z</time></trkpt><trkpt lat="38.0252017" lon="15.7353583"><ele>798.25</ele><time>2026-04-25T07:43:02.665Z</time></trkpt><trkpt lat="38.025065" lon="15.735475"><ele>798.5</ele><time>2026-04-25T07:43:03.665Z</time></trkpt><trkpt lat="38.0249533" lon="15.73558"><ele>798.75</ele><time>2026-04-25T07:43:04.665Z</time></trkpt><trkpt lat="38.024865" lon="15.7356717"><ele>799.0</ele><time>2026-04-25T07:43:05.666Z</time></trkpt><trkpt lat="38.0247917" lon="15.7357767"><ele>799.0</ele><time>2026-04-25T07:43:06.665Z</time></trkpt><trkpt lat="38.0247483" lon="15.735885"><ele>799.0</ele><time>2026-04-25T07:43:07.665Z</time></trkpt><trkpt lat="38.0247083" lon="15.736025"><ele>799.0</ele><time>2026-04-25T07:43:08.666Z</time></trkpt><trkpt lat="38.02469" lon="15.7361933"><ele>799.0</ele><time>2026-04-25T07:43:09.665Z</time></trkpt><trkpt lat="38.0246767" lon="15.736345"><ele>800.6</ele><time>2026-04-25T07:43:10.665Z</time></trkpt><trkpt lat="38.0246617" lon="15.7364667"><ele>802.2</ele><time>2026-04-25T07:43:11.665Z</time></trkpt><trkpt lat="38.0246183" lon="15.7365583"><ele>803.8000000000001</ele><time>2026-04-25T07:43:12.665Z</time></trkpt><trkpt lat="38.0245317" lon="15.7366283"><ele>805.4000000000001</ele><time>2026-04-25T07:43:13.665Z</time></trkpt><trkpt lat="38.024425" lon="15.7366883"><ele>807.0</ele><time>2026-04-25T07:43:14.665Z</time></trkpt><trkpt lat="38.0243233" lon="15.7367717"><ele>807.0</ele><time>2026-04-25T07:43:15.665Z</time></trkpt><trkpt lat="38.024225" lon="15.7368767"><ele>807.0</ele><time>2026-04-25T07:43:16.666Z</time></trkpt><trkpt lat="38.02412" lon="15.7369733"><ele>807.0</ele><time>2026-04-25T07:43:17.665Z</time></trkpt><trkpt lat="38.024015" lon="15.7370433"><ele>807.0</ele><time>2026-04-25T07:43:18.665Z</time></trkpt><trkpt lat="38.0239417" lon="15.73711"><ele>809.6</ele><time>2026-04-25T07:43:19.665Z</time></trkpt><trkpt lat="38.023885" lon="15.7371833"><ele>812.2</ele><time>2026-04-25T07:43:20.666Z</time></trkpt><trkpt lat="38.023845" lon="15.7372683"><ele>814.8</ele><time>2026-04-25T07:43:21.665Z</time></trkpt><trkpt lat="38.023795" lon="15.73733"><ele>817.4</ele><time>2026-04-25T07:43:22.665Z</time></trkpt><trkpt lat="38.0236667" lon="15.7373417"><ele>820.0</ele><time>2026-04-25T07:43:24.665Z</time></trkpt><trkpt lat="38.0235717" lon="15.7373233"><ele>820.0</ele><time>2026-04-25T07:43:25.665Z</time></trkpt><trkpt lat="38.0234667" lon="15.7372833"><ele>820.0</ele><time>2026-04-25T07:43:26.665Z</time></trkpt><trkpt lat="38.023345" lon="15.7372183"><ele>820.0</ele><time>2026-04-25T07:43:27.665Z</time></trkpt><trkpt lat="38.0232283" lon="15.7371533"><ele>820.0</ele><time>2026-04-25T07:43:28.665Z</time></trkpt><trkpt lat="38.0231133" lon="15.7370967"><ele>818.4</ele><time>2026-04-25T07:43:29.665Z</time></trkpt><trkpt lat="38.0230067" lon="15.7370483"><ele>816.8</ele><time>2026-04-25T07:43:30.665Z</time></trkpt><trkpt lat="38.0229083" lon="15.7370283"><ele>815.2</ele><time>2026-04-25T07:43:31.665Z</time></trkpt><trkpt lat="38.0228233" lon="15.7370267"><ele>813.6</ele><time>2026-04-25T07:43:32.665Z</time></trkpt><trkpt lat="38.0227517" lon="15.7370233"><ele>812.0</ele><time>2026-04-25T07:43:33.665Z</time></trkpt><trkpt lat="38.022635" lon="15.73697"><ele>810.8</ele><time>2026-04-25T07:43:35.665Z</time></trkpt><trkpt lat="38.022525" lon="15.7368683"><ele>809.6</ele><time>2026-04-25T07:43:37.665Z</time></trkpt><trkpt lat="38.02246" lon="15.7368083"><ele>808.4</ele><time>2026-04-25T07:43:38.665Z</time></trkpt><trkpt lat="38.02239" lon="15.736755"><ele>807.1999999999999</ele><time>2026-04-25T07:43:39.665Z</time></trkpt><trkpt lat="38.02231" lon="15.73671"><ele>806.0</ele><time>2026-04-25T07:43:40.666Z</time></trkpt><trkpt lat="38.022235" lon="15.7366817"><ele>805.3333333333334</ele><time>2026-04-25T07:43:41.665Z</time></trkpt><trkpt lat="38.0221483" lon="15.7366717"><ele>804.6666666666667</ele><time>2026-04-25T07:43:42.665Z</time></trkpt><trkpt lat="38.0220583" lon="15.7366633"><ele>804.0</ele><time>2026-04-25T07:43:43.665Z</time></trkpt><trkpt lat="38.0219683" lon="15.7366467"><ele>803.3333333333333</ele><time>2026-04-25T07:43:44.665Z</time></trkpt><trkpt lat="38.021885" lon="15.7366467"><ele>802.6666666666666</ele><time>2026-04-25T07:43:45.666Z</time></trkpt><trkpt lat="38.0218117" lon="15.73665"><ele>802.0</ele><time>2026-04-25T07:43:46.665Z</time></trkpt><trkpt lat="38.02175" lon="15.7366667"><ele>801.4999999999999</ele><time>2026-04-25T07:43:47.666Z</time></trkpt><trkpt lat="38.0216367" lon="15.7367517"><ele>801.0</ele><time>2026-04-25T07:43:49.665Z</time></trkpt><trkpt lat="38.0215783" lon="15.7368117"><ele>800.5</ele><time>2026-04-25T07:43:50.665Z</time></trkpt><trkpt lat="38.0215183" lon="15.7368667"><ele>800.0</ele><time>2026-04-25T07:43:51.665Z</time></trkpt><trkpt lat="38.0214367" lon="15.7369183"><ele>799.4999999999999</ele><time>2026-04-25T07:43:52.665Z</time></trkpt><trkpt lat="38.02137" lon="15.736965"><ele>799.0</ele><time>2026-04-25T07:43:53.665Z</time></trkpt><trkpt lat="38.02132" lon="15.737025"><ele>798.2</ele><time>2026-04-25T07:43:54.665Z</time></trkpt><trkpt lat="38.0212783" lon="15.73709"><ele>797.4000000000001</ele><time>2026-04-25T07:43:55.666Z</time></trkpt><trkpt lat="38.0212433" lon="15.7372417"><ele>796.6</ele><time>2026-04-25T07:43:57.666Z</time></trkpt><trkpt lat="38.0212167" lon="15.737385"><ele>795.8</ele><time>2026-04-25T07:43:59.665Z</time></trkpt><trkpt lat="38.0211367" lon="15.7374883"><ele>795.0</ele><time>2026-04-25T07:44:01.665Z</time></trkpt><trkpt lat="38.021025" lon="15.73753"><ele>795.0</ele><time>2026-04-25T07:44:03.665Z</time></trkpt><trkpt lat="38.0209267" lon="15.73749"><ele>795.0</ele><time>2026-04-25T07:44:05.665Z</time></trkpt><trkpt lat="38.02087" lon="15.7374517"><ele>795.0</ele><time>2026-04-25T07:44:07.666Z</time></trkpt><trkpt lat="38.020765" lon="15.7374117"><ele>795.0</ele><time>2026-04-25T07:44:19.665Z</time></trkpt><trkpt lat="38.02069" lon="15.7373817"><ele>795.0</ele><time>2026-04-25T07:44:20.665Z</time></trkpt><trkpt lat="38.0205983" lon="15.73736"><ele>795.0</ele><time>2026-04-25T07:44:21.666Z</time></trkpt><trkpt lat="38.0205083" lon="15.7373683"><ele>796.2</ele><time>2026-04-25T07:44:22.666Z</time></trkpt><trkpt lat="38.0204267" lon="15.7373967"><ele>797.4</ele><time>2026-04-25T07:44:23.665Z</time></trkpt><trkpt lat="38.020365" lon="15.7374583"><ele>798.5999999999999</ele><time>2026-04-25T07:44:24.666Z</time></trkpt><trkpt lat="38.02031" lon="15.7375567"><ele>799.8</ele><time>2026-04-25T07:44:25.665Z</time></trkpt><trkpt lat="38.0202583" lon="15.7376767"><ele>801.0</ele><time>2026-04-25T07:44:26.666Z</time></trkpt><trkpt lat="38.0201867" lon="15.737805"><ele>801.0</ele><time>2026-04-25T07:44:27.665Z</time></trkpt><trkpt lat="38.0201033" lon="15.7379283"><ele>801.0</ele><time>2026-04-25T07:44:28.665Z</time></trkpt><trkpt lat="38.0200133" lon="15.738055"><ele>801.0</ele><time>2026-04-25T07:44:29.666Z</time></trkpt><trkpt lat="38.0199333" lon="15.7381817"><ele>801.0</ele><time>2026-04-25T07:44:30.665Z</time></trkpt><trkpt lat="38.0198617" lon="15.7382933"><ele>802.75</ele><time>2026-04-25T07:44:31.665Z</time></trkpt><trkpt lat="38.019775" lon="15.7383783"><ele>804.5</ele><time>2026-04-25T07:44:32.665Z</time></trkpt><trkpt lat="38.0196617" lon="15.7384533"><ele>806.25</ele><time>2026-04-25T07:44:33.665Z</time></trkpt><trkpt lat="38.01955" lon="15.7385183"><ele>808.0</ele><time>2026-04-25T07:44:34.665Z</time></trkpt><trkpt lat="38.0194567" lon="15.73858"><ele>808.0</ele><time>2026-04-25T07:44:35.665Z</time></trkpt><trkpt lat="38.0193783" lon="15.73867"><ele>808.0</ele><time>2026-04-25T07:44:36.665Z</time></trkpt><trkpt lat="38.0193067" lon="15.7387783"><ele>808.0</ele><time>2026-04-25T07:44:37.665Z</time></trkpt><trkpt lat="38.01924" lon="15.7388683"><ele>808.0</ele><time>2026-04-25T07:44:38.665Z</time></trkpt><trkpt lat="38.0191783" lon="15.73894"><ele>808.0</ele><time>2026-04-25T07:44:39.665Z</time></trkpt><trkpt lat="38.01912" lon="15.7389883"><ele>810.9999999999999</ele><time>2026-04-25T07:44:40.665Z</time></trkpt><trkpt lat="38.0190217" lon="15.73899"><ele>814.0</ele><time>2026-04-25T07:44:42.665Z</time></trkpt><trkpt lat="38.01896" lon="15.738945"><ele>817.0</ele><time>2026-04-25T07:44:43.665Z</time></trkpt><trkpt lat="38.0188983" lon="15.7388767"><ele>820.0</ele><time>2026-04-25T07:44:44.665Z</time></trkpt><trkpt lat="38.0188217" lon="15.7388083"><ele>822.9999999999999</ele><time>2026-04-25T07:44:45.665Z</time></trkpt><trkpt lat="38.0187333" lon="15.7387433"><ele>826.0</ele><time>2026-04-25T07:44:46.665Z</time></trkpt><trkpt lat="38.0186383" lon="15.7386933"><ele>826.0</ele><time>2026-04-25T07:44:47.665Z</time></trkpt><trkpt lat="38.01853" lon="15.7386567"><ele>826.0</ele><time>2026-04-25T07:44:48.665Z</time></trkpt><trkpt lat="38.0184233" lon="15.7386283"><ele>826.0</ele><time>2026-04-25T07:44:49.665Z</time></trkpt><trkpt lat="38.0183133" lon="15.7386"><ele>826.0</ele><time>2026-04-25T07:44:50.665Z</time></trkpt><trkpt lat="38.0182117" lon="15.7385733"><ele>826.0</ele><time>2026-04-25T07:44:51.665Z</time></trkpt><trkpt lat="38.01813" lon="15.738545"><ele>829.0</ele><time>2026-04-25T07:44:52.666Z</time></trkpt><trkpt lat="38.0180567" lon="15.7385083"><ele>832.0</ele><time>2026-04-25T07:44:54.665Z</time></trkpt><trkpt lat="38.0179883" lon="15.73855"><ele>835.0</ele><time>2026-04-25T07:45:02.665Z</time></trkpt><trkpt lat="38.017895" lon="15.7386167"><ele>838.0</ele><time>2026-04-25T07:45:04.665Z</time></trkpt><trkpt lat="38.01783" lon="15.7387183"><ele>841.0</ele><time>2026-04-25T07:45:06.666Z</time></trkpt><trkpt lat="38.017785" lon="15.7388317"><ele>840.9999999999999</ele><time>2026-04-25T07:45:08.665Z</time></trkpt><trkpt lat="38.0177233" lon="15.7389167"><ele>841.0</ele><time>2026-04-25T07:45:10.665Z</time></trkpt><trkpt lat="38.0176333" lon="15.7390017"><ele>841.0</ele><time>2026-04-25T07:45:12.666Z</time></trkpt><trkpt lat="38.0175767" lon="15.7390583"><ele>841.0</ele><time>2026-04-25T07:45:13.665Z</time></trkpt><trkpt lat="38.017535" lon="15.73912"><ele>840.9999999999999</ele><time>2026-04-25T07:45:14.665Z</time></trkpt><trkpt lat="38.0174833" lon="15.7391983"><ele>841.0</ele><time>2026-04-25T07:45:16.666Z</time></trkpt><trkpt lat="38.0174183" lon="15.7392383"><ele>843.4999999999999</ele><time>2026-04-25T07:45:18.666Z</time></trkpt><trkpt lat="38.0173517" lon="15.739275"><ele>846.0</ele><time>2026-04-25T07:45:19.665Z</time></trkpt><trkpt lat="38.017285" lon="15.7393533"><ele>848.5</ele><time>2026-04-25T07:45:21.665Z</time></trkpt><trkpt lat="38.0172683" lon="15.7394467"><ele>851.0</ele><time>2026-04-25T07:45:23.666Z</time></trkpt><trkpt lat="38.0172417" lon="15.7395367"><ele>853.4999999999999</ele><time>2026-04-25T07:45:25.665Z</time></trkpt><trkpt lat="38.017235" lon="15.7396183"><ele>856.0</ele><time>2026-04-25T07:45:27.666Z</time></trkpt><trkpt lat="38.017275" lon="15.7397117"><ele>856.1666666666666</ele><time>2026-04-25T07:45:31.665Z</time></trkpt><trkpt lat="38.01727" lon="15.7398033"><ele>856.3333333333333</ele><time>2026-04-25T07:45:33.665Z</time></trkpt><trkpt lat="38.01729" lon="15.7399333"><ele>856.5</ele><time>2026-04-25T07:45:35.666Z</time></trkpt><trkpt lat="38.0172933" lon="15.7400183"><ele>856.6666666666667</ele><time>2026-04-25T07:45:36.666Z</time></trkpt><trkpt lat="38.0172883" lon="15.74012"><ele>856.8333333333334</ele><time>2026-04-25T07:45:37.665Z</time></trkpt><trkpt lat="38.0172767" lon="15.7402183"><ele>857.0</ele><time>2026-04-25T07:45:38.666Z</time></trkpt><trkpt lat="38.0172683" lon="15.74031"><ele>857.0</ele><time>2026-04-25T07:45:39.665Z</time></trkpt><trkpt lat="38.0172467" lon="15.7403917"><ele>857.0</ele><time>2026-04-25T07:45:40.666Z</time></trkpt><trkpt lat="38.0171933" lon="15.7405133"><ele>857.0</ele><time>2026-04-25T07:45:42.666Z</time></trkpt><trkpt lat="38.017115" lon="15.74062"><ele>857.0</ele><time>2026-04-25T07:45:44.665Z</time></trkpt><trkpt lat="38.017035" lon="15.7406883"><ele>857.0</ele><time>2026-04-25T07:45:46.665Z</time></trkpt><trkpt lat="38.0169933" lon="15.7407933"><ele>857.0</ele><time>2026-04-25T07:45:49.666Z</time></trkpt><trkpt lat="38.0169133" lon="15.740855"><ele>857.0</ele><time>2026-04-25T07:45:52.665Z</time></trkpt><trkpt lat="38.0168133" lon="15.7408967"><ele>857.0</ele><time>2026-04-25T07:45:54.665Z</time></trkpt><trkpt lat="38.0167517" lon="15.740935"><ele>857.0</ele><time>2026-04-25T07:45:55.666Z</time></trkpt><trkpt lat="38.0166917" lon="15.7409733"><ele>857.0</ele><time>2026-04-25T07:45:56.665Z</time></trkpt><trkpt lat="38.016575" lon="15.741035"><ele>858.5000000000001</ele><time>2026-04-25T07:45:58.665Z</time></trkpt><trkpt lat="38.0165067" lon="15.7410567"><ele>860.0</ele><time>2026-04-25T07:45:59.665Z</time></trkpt><trkpt lat="38.0164117" lon="15.7411117"><ele>861.5</ele><time>2026-04-25T07:46:01.665Z</time></trkpt><trkpt lat="38.0163483" lon="15.74116"><ele>863.0</ele><time>2026-04-25T07:46:03.665Z</time></trkpt><trkpt lat="38.0162917" lon="15.7412517"><ele>864.5000000000001</ele><time>2026-04-25T07:46:06.665Z</time></trkpt><trkpt lat="38.0162533" lon="15.741325"><ele>866.0</ele><time>2026-04-25T07:46:08.666Z</time></trkpt><trkpt lat="38.016205" lon="15.7413983"><ele>866.0000000000001</ele><time>2026-04-25T07:46:10.665Z</time></trkpt><trkpt lat="38.01616" lon="15.7414567"><ele>866.0</ele><time>2026-04-25T07:46:12.665Z</time></trkpt><trkpt lat="38.01612" lon="15.7415233"><ele>866.0</ele><time>2026-04-25T07:46:33.666Z</time></trkpt><trkpt lat="38.016065" lon="15.74159"><ele>866.0</ele><time>2026-04-25T07:46:35.665Z</time></trkpt><trkpt lat="38.0160117" lon="15.7416783"><ele>866.0000000000001</ele><time>2026-04-25T07:46:37.666Z</time></trkpt><trkpt lat="38.0159567" lon="15.7417683"><ele>866.0</ele><time>2026-04-25T07:46:39.666Z</time></trkpt><trkpt lat="38.0159117" lon="15.7418517"><ele>865.1999999999999</ele><time>2026-04-25T07:46:41.665Z</time></trkpt><trkpt lat="38.01585" lon="15.741985"><ele>864.3999999999999</ele><time>2026-04-25T07:46:43.665Z</time></trkpt><trkpt lat="38.015775" lon="15.7421233"><ele>863.6</ele><time>2026-04-25T07:46:45.665Z</time></trkpt><trkpt lat="38.015725" lon="15.7421983"><ele>862.8</ele><time>2026-04-25T07:46:46.666Z</time></trkpt><trkpt lat="38.0156683" lon="15.74228"><ele>862.0</ele><time>2026-04-25T07:46:47.666Z</time></trkpt><trkpt lat="38.0156133" lon="15.74237"><ele>861.8</ele><time>2026-04-25T07:46:48.665Z</time></trkpt><trkpt lat="38.0155617" lon="15.7424683"><ele>861.6</ele><time>2026-04-25T07:46:49.665Z</time></trkpt><trkpt lat="38.015515" lon="15.7425667"><ele>861.3999999999999</ele><time>2026-04-25T07:46:50.665Z</time></trkpt><trkpt lat="38.01546" lon="15.7426783"><ele>861.1999999999999</ele><time>2026-04-25T07:46:51.666Z</time></trkpt><trkpt lat="38.0154" lon="15.742785"><ele>861.0</ele><time>2026-04-25T07:46:52.665Z</time></trkpt><trkpt lat="38.0153283" lon="15.7428717"><ele>861.0</ele><time>2026-04-25T07:46:53.665Z</time></trkpt><trkpt lat="38.01524" lon="15.7429667"><ele>861.0</ele><time>2026-04-25T07:46:54.665Z</time></trkpt><trkpt lat="38.0151417" lon="15.743065"><ele>861.0</ele><time>2026-04-25T07:46:55.665Z</time></trkpt><trkpt lat="38.0150417" lon="15.74317"><ele>861.0</ele><time>2026-04-25T07:46:56.666Z</time></trkpt><trkpt lat="38.0149483" lon="15.7432617"><ele>860.8</ele><time>2026-04-25T07:46:57.665Z</time></trkpt><trkpt lat="38.0148467" lon="15.743355"><ele>860.5999999999999</ele><time>2026-04-25T07:46:58.665Z</time></trkpt><trkpt lat="38.014755" lon="15.7434417"><ele>860.4</ele><time>2026-04-25T07:46:59.665Z</time></trkpt><trkpt lat="38.0146733" lon="15.7435317"><ele>860.2</ele><time>2026-04-25T07:47:00.666Z</time></trkpt><trkpt lat="38.0146067" lon="15.7436167"><ele>860.0</ele><time>2026-04-25T07:47:01.665Z</time></trkpt><trkpt lat="38.014545" lon="15.7437133"><ele>860.0000000000001</ele><time>2026-04-25T07:47:02.665Z</time></trkpt><trkpt lat="38.01449" lon="15.743825"><ele>860.0</ele><time>2026-04-25T07:47:03.665Z</time></trkpt><trkpt lat="38.0144383" lon="15.7439233"><ele>860.0</ele><time>2026-04-25T07:47:04.665Z</time></trkpt><trkpt lat="38.0143983" lon="15.74401"><ele>860.0</ele><time>2026-04-25T07:47:05.665Z</time></trkpt><trkpt lat="38.0143567" lon="15.7440883"><ele>860.0000000000001</ele><time>2026-04-25T07:47:06.665Z</time></trkpt><trkpt lat="38.0143233" lon="15.74416"><ele>860.0</ele><time>2026-04-25T07:47:07.666Z</time></trkpt><trkpt lat="38.014315" lon="15.7443083"><ele>859.8</ele><time>2026-04-25T07:47:09.665Z</time></trkpt><trkpt lat="38.0143617" lon="15.74443"><ele>859.6</ele><time>2026-04-25T07:47:11.666Z</time></trkpt><trkpt lat="38.0144017" lon="15.7445383"><ele>859.4000000000001</ele><time>2026-04-25T07:47:13.665Z</time></trkpt><trkpt lat="38.0144417" lon="15.744655"><ele>859.2</ele><time>2026-04-25T07:47:15.665Z</time></trkpt><trkpt lat="38.0145183" lon="15.7447117"><ele>859.0</ele><time>2026-04-25T07:47:17.665Z</time></trkpt><trkpt lat="38.0146067" lon="15.7447733"><ele>859.0</ele><time>2026-04-25T07:47:19.666Z</time></trkpt><trkpt lat="38.0146633" lon="15.7448667"><ele>859.0000000000001</ele><time>2026-04-25T07:47:21.665Z</time></trkpt><trkpt lat="38.0147017" lon="15.7449817"><ele>859.0000000000001</ele><time>2026-04-25T07:47:23.666Z</time></trkpt><trkpt lat="38.0147717" lon="15.7450717"><ele>859.0</ele><time>2026-04-25T07:47:25.665Z</time></trkpt><trkpt lat="38.014875" lon="15.7451267"><ele>859.0</ele><time>2026-04-25T07:47:27.666Z</time></trkpt><trkpt lat="38.0149367" lon="15.74515"><ele>857.4000000000001</ele><time>2026-04-25T07:47:28.665Z</time></trkpt><trkpt lat="38.01501" lon="15.745235"><ele>855.8000000000001</ele><time>2026-04-25T07:47:30.666Z</time></trkpt><trkpt lat="38.0150133" lon="15.7453417"><ele>854.2</ele><time>2026-04-25T07:47:32.665Z</time></trkpt><trkpt lat="38.0149567" lon="15.7454083"><ele>852.5999999999999</ele><time>2026-04-25T07:47:34.665Z</time></trkpt><trkpt lat="38.0148617" lon="15.745395"><ele>851.0</ele><time>2026-04-25T07:47:36.665Z</time></trkpt><trkpt lat="38.014765" lon="15.7453467"><ele>851.0</ele><time>2026-04-25T07:47:38.666Z</time></trkpt><trkpt lat="38.0146517" lon="15.7453433"><ele>851.0</ele><time>2026-04-25T07:47:40.665Z</time></trkpt><trkpt lat="38.0145533" lon="15.7453983"><ele>851.0</ele><time>2026-04-25T07:47:42.666Z</time></trkpt><trkpt lat="38.0145133" lon="15.7455183"><ele>851.0</ele><time>2026-04-25T07:47:44.665Z</time></trkpt><trkpt lat="38.0144833" lon="15.7456133"><ele>851.0</ele><time>2026-04-25T07:47:45.665Z</time></trkpt><trkpt lat="38.0144533" lon="15.7457217"><ele>851.0</ele><time>2026-04-25T07:47:46.665Z</time></trkpt><trkpt lat="38.0144333" lon="15.7458283"><ele>851.0</ele><time>2026-04-25T07:47:47.665Z</time></trkpt><trkpt lat="38.01442" lon="15.74594"><ele>851.0</ele><time>2026-04-25T07:47:48.665Z</time></trkpt><trkpt lat="38.014405" lon="15.746055"><ele>851.0</ele><time>2026-04-25T07:47:49.665Z</time></trkpt><trkpt lat="38.0143783" lon="15.746175"><ele>851.0</ele><time>2026-04-25T07:47:50.665Z</time></trkpt><trkpt lat="38.014355" lon="15.7462933"><ele>847.5999999999999</ele><time>2026-04-25T07:47:51.665Z</time></trkpt><trkpt lat="38.01432" lon="15.746415"><ele>844.2</ele><time>2026-04-25T07:47:52.666Z</time></trkpt><trkpt lat="38.0143033" lon="15.7465467"><ele>840.8</ele><time>2026-04-25T07:47:53.665Z</time></trkpt><trkpt lat="38.01428" lon="15.74668"><ele>837.4000000000001</ele><time>2026-04-25T07:47:54.665Z</time></trkpt><trkpt lat="38.0142683" lon="15.7468017"><ele>834.0</ele><time>2026-04-25T07:47:55.666Z</time></trkpt><trkpt lat="38.014245" lon="15.7469217"><ele>831.1666666666666</ele><time>2026-04-25T07:47:56.665Z</time></trkpt><trkpt lat="38.0141933" lon="15.7470483"><ele>828.3333333333333</ele><time>2026-04-25T07:47:57.665Z</time></trkpt><trkpt lat="38.01415" lon="15.7471417"><ele>825.5</ele><time>2026-04-25T07:47:58.666Z</time></trkpt><trkpt lat="38.0141067" lon="15.7472067"><ele>822.6666666666666</ele><time>2026-04-25T07:47:59.665Z</time></trkpt><trkpt lat="38.014055" lon="15.7472617"><ele>819.8333333333333</ele><time>2026-04-25T07:48:00.665Z</time></trkpt><trkpt lat="38.0139983" lon="15.7473017"><ele>817.0</ele><time>2026-04-25T07:48:01.665Z</time></trkpt><trkpt lat="38.0139333" lon="15.74733"><ele>814.8</ele><time>2026-04-25T07:48:02.665Z</time></trkpt><trkpt lat="38.01386" lon="15.7473433"><ele>812.6</ele><time>2026-04-25T07:48:03.666Z</time></trkpt><trkpt lat="38.0137767" lon="15.7473383"><ele>810.4</ele><time>2026-04-25T07:48:04.665Z</time></trkpt><trkpt lat="38.0136517" lon="15.7473067"><ele>808.1999999999999</ele><time>2026-04-25T07:48:05.666Z</time></trkpt><trkpt lat="38.0135367" lon="15.7472733"><ele>806.0</ele><time>2026-04-25T07:48:06.665Z</time></trkpt><trkpt lat="38.0134317" lon="15.7472233"><ele>806.0000000000001</ele><time>2026-04-25T07:48:07.665Z</time></trkpt><trkpt lat="38.0133583" lon="15.7471717"><ele>806.0</ele><time>2026-04-25T07:48:08.665Z</time></trkpt><trkpt lat="38.0132983" lon="15.7471017"><ele>806.0</ele><time>2026-04-25T07:48:09.665Z</time></trkpt><trkpt lat="38.0132533" lon="15.7469983"><ele>806.0</ele><time>2026-04-25T07:48:10.665Z</time></trkpt><trkpt lat="38.01321" lon="15.7469033"><ele>806.0000000000001</ele><time>2026-04-25T07:48:11.665Z</time></trkpt><trkpt lat="38.0131583" lon="15.7468167"><ele>806.0</ele><time>2026-04-25T07:48:12.665Z</time></trkpt><trkpt lat="38.0131017" lon="15.7467467"><ele>803.5000000000001</ele><time>2026-04-25T07:48:13.665Z</time></trkpt><trkpt lat="38.0130417" lon="15.7466967"><ele>801.0</ele><time>2026-04-25T07:48:14.665Z</time></trkpt><trkpt lat="38.0129733" lon="15.74667"><ele>798.5</ele><time>2026-04-25T07:48:15.665Z</time></trkpt><trkpt lat="38.01291" lon="15.7466533"><ele>796.0</ele><time>2026-04-25T07:48:16.665Z</time></trkpt><trkpt lat="38.0128117" lon="15.7465583"><ele>793.5000000000001</ele><time>2026-04-25T07:48:18.665Z</time></trkpt><trkpt lat="38.0127783" lon="15.7464767"><ele>791.0</ele><time>2026-04-25T07:48:19.665Z</time></trkpt><trkpt lat="38.0127533" lon="15.7463817"><ele>791.0</ele><time>2026-04-25T07:48:20.665Z</time></trkpt><trkpt lat="38.0127267" lon="15.746265"><ele>791.0</ele><time>2026-04-25T07:48:21.665Z</time></trkpt><trkpt lat="38.0126917" lon="15.746135"><ele>791.0</ele><time>2026-04-25T07:48:22.665Z</time></trkpt><trkpt lat="38.01265" lon="15.7460117"><ele>791.0</ele><time>2026-04-25T07:48:23.665Z</time></trkpt><trkpt lat="38.0126033" lon="15.7459033"><ele>791.0</ele><time>2026-04-25T07:48:24.666Z</time></trkpt><trkpt lat="38.0125433" lon="15.74581"><ele>792.5000000000001</ele><time>2026-04-25T07:48:25.665Z</time></trkpt><trkpt lat="38.0124933" lon="15.7457383"><ele>794.0</ele><time>2026-04-25T07:48:26.665Z</time></trkpt><trkpt lat="38.012465" lon="15.7456667"><ele>795.5</ele><time>2026-04-25T07:48:27.665Z</time></trkpt><trkpt lat="38.0124017" lon="15.7455483"><ele>797.0</ele><time>2026-04-25T07:48:29.665Z</time></trkpt><trkpt lat="38.0123067" lon="15.7454783"><ele>798.5000000000001</ele><time>2026-04-25T07:48:31.665Z</time></trkpt><trkpt lat="38.0122467" lon="15.7454417"><ele>800.0</ele><time>2026-04-25T07:48:32.665Z</time></trkpt><trkpt lat="38.0121883" lon="15.745405"><ele>796.6666666666667</ele><time>2026-04-25T07:48:33.665Z</time></trkpt><trkpt lat="38.01213" lon="15.7453733"><ele>793.3333333333334</ele><time>2026-04-25T07:48:34.665Z</time></trkpt><trkpt lat="38.0120683" lon="15.745345"><ele>790.0</ele><time>2026-04-25T07:48:35.665Z</time></trkpt><trkpt lat="38.0120017" lon="15.7453317"><ele>786.6666666666667</ele><time>2026-04-25T07:48:36.665Z</time></trkpt><trkpt lat="38.0119367" lon="15.7453233"><ele>783.3333333333334</ele><time>2026-04-25T07:48:37.665Z</time></trkpt><trkpt lat="38.01181" lon="15.7453183"><ele>780.0</ele><time>2026-04-25T07:48:39.665Z</time></trkpt><trkpt lat="38.01174" lon="15.7453233"><ele>780.0</ele><time>2026-04-25T07:48:40.665Z</time></trkpt><trkpt lat="38.0116667" lon="15.745315"><ele>780.0</ele><time>2026-04-25T07:48:41.666Z</time></trkpt><trkpt lat="38.0115817" lon="15.745295"><ele>780.0</ele><time>2026-04-25T07:48:42.665Z</time></trkpt><trkpt lat="38.0114967" lon="15.745265"><ele>780.0</ele><time>2026-04-25T07:48:43.665Z</time></trkpt><trkpt lat="38.0114183" lon="15.7452483"><ele>780.0</ele><time>2026-04-25T07:48:44.666Z</time></trkpt><trkpt lat="38.0113483" lon="15.7452567"><ele>780.0</ele><time>2026-04-25T07:48:45.665Z</time></trkpt><trkpt lat="38.011285" lon="15.7452817"><ele>779.0</ele><time>2026-04-25T07:48:46.665Z</time></trkpt><trkpt lat="38.0112183" lon="15.7453133"><ele>778.0</ele><time>2026-04-25T07:48:47.665Z</time></trkpt><trkpt lat="38.0111517" lon="15.7453467"><ele>777.0</ele><time>2026-04-25T07:48:48.665Z</time></trkpt><trkpt lat="38.0110833" lon="15.7453767"><ele>776.0</ele><time>2026-04-25T07:48:49.665Z</time></trkpt><trkpt lat="38.0110133" lon="15.7454067"><ele>775.0</ele><time>2026-04-25T07:48:50.666Z</time></trkpt><trkpt lat="38.010905" lon="15.7454583"><ele>774.0</ele><time>2026-04-25T07:48:52.665Z</time></trkpt><trkpt lat="38.0107983" lon="15.7454733"><ele>772.3333333333334</ele><time>2026-04-25T07:48:54.665Z</time></trkpt><trkpt lat="38.0107367" lon="15.7454567"><ele>770.6666666666666</ele><time>2026-04-25T07:48:55.665Z</time></trkpt><trkpt lat="38.0106767" lon="15.7454233"><ele>769.0</ele><time>2026-04-25T07:48:56.665Z</time></trkpt><trkpt lat="38.010605" lon="15.7453767"><ele>767.3333333333333</ele><time>2026-04-25T07:48:57.665Z</time></trkpt><trkpt lat="38.010525" lon="15.7453367"><ele>765.6666666666666</ele><time>2026-04-25T07:48:58.665Z</time></trkpt><trkpt lat="38.01044" lon="15.745315"><ele>764.0</ele><time>2026-04-25T07:48:59.665Z</time></trkpt><trkpt lat="38.0103567" lon="15.745305"><ele>764.0</ele><time>2026-04-25T07:49:00.665Z</time></trkpt><trkpt lat="38.01028" lon="15.7452867"><ele>764.0</ele><time>2026-04-25T07:49:01.666Z</time></trkpt><trkpt lat="38.0102017" lon="15.74527"><ele>764.0</ele><time>2026-04-25T07:49:02.666Z</time></trkpt><trkpt lat="38.0101217" lon="15.7452433"><ele>764.0</ele><time>2026-04-25T07:49:03.665Z</time></trkpt><trkpt lat="38.0100567" lon="15.7452"><ele>764.0</ele><time>2026-04-25T07:49:04.665Z</time></trkpt><trkpt lat="38.01001" lon="15.745145"><ele>764.0</ele><time>2026-04-25T07:49:05.666Z</time></trkpt><trkpt lat="38.0099333" lon="15.745055"><ele>764.3333333333333</ele><time>2026-04-25T07:49:07.666Z</time></trkpt><trkpt lat="38.0098433" lon="15.745085"><ele>764.6666666666666</ele><time>2026-04-25T07:49:09.665Z</time></trkpt><trkpt lat="38.0098367" lon="15.745225"><ele>765.0</ele><time>2026-04-25T07:49:11.666Z</time></trkpt><trkpt lat="38.009855" lon="15.7453217"><ele>765.3333333333334</ele><time>2026-04-25T07:49:12.665Z</time></trkpt><trkpt lat="38.0098767" lon="15.74542"><ele>765.6666666666667</ele><time>2026-04-25T07:49:13.665Z</time></trkpt><trkpt lat="38.0098917" lon="15.7455167"><ele>766.0</ele><time>2026-04-25T07:49:14.666Z</time></trkpt><trkpt lat="38.0099183" lon="15.74561"><ele>765.7142857142857</ele><time>2026-04-25T07:49:15.665Z</time></trkpt><trkpt lat="38.009955" lon="15.7456867"><ele>765.4285714285713</ele><time>2026-04-25T07:49:16.665Z</time></trkpt><trkpt lat="38.0099983" lon="15.7457467"><ele>765.1428571428571</ele><time>2026-04-25T07:49:17.666Z</time></trkpt><trkpt lat="38.01005" lon="15.7458017"><ele>764.8571428571429</ele><time>2026-04-25T07:49:18.666Z</time></trkpt><trkpt lat="38.01009" lon="15.7458767"><ele>764.5714285714286</ele><time>2026-04-25T07:49:19.665Z</time></trkpt><trkpt lat="38.01012" lon="15.74595"><ele>764.2857142857143</ele><time>2026-04-25T07:49:20.665Z</time></trkpt><trkpt lat="38.010145" lon="15.7460333"><ele>764.0</ele><time>2026-04-25T07:49:21.665Z</time></trkpt><trkpt lat="38.0101717" lon="15.7461233"><ele>761.1428571428572</ele><time>2026-04-25T07:49:22.665Z</time></trkpt><trkpt lat="38.0102067" lon="15.74619"><ele>758.2857142857142</ele><time>2026-04-25T07:49:23.665Z</time></trkpt><trkpt lat="38.0102567" lon="15.746255"><ele>755.4285714285714</ele><time>2026-04-25T07:49:24.665Z</time></trkpt><trkpt lat="38.010305" lon="15.746325"><ele>752.5714285714287</ele><time>2026-04-25T07:49:25.665Z</time></trkpt><trkpt lat="38.0103517" lon="15.7463917"><ele>749.7142857142858</ele><time>2026-04-25T07:49:26.666Z</time></trkpt><trkpt lat="38.0103983" lon="15.7464467"><ele>746.8571428571429</ele><time>2026-04-25T07:49:27.665Z</time></trkpt><trkpt lat="38.0104567" lon="15.7465367"><ele>744.0</ele><time>2026-04-25T07:49:29.665Z</time></trkpt><trkpt lat="38.0104417" lon="15.74662"><ele>744.0</ele><time>2026-04-25T07:49:31.665Z</time></trkpt><trkpt lat="38.01035" lon="15.7466533"><ele>744.0</ele><time>2026-04-25T07:49:34.665Z</time></trkpt><trkpt lat="38.0102517" lon="15.7465983"><ele>744.0</ele><time>2026-04-25T07:49:36.665Z</time></trkpt><trkpt lat="38.0101983" lon="15.746555"><ele>744.0</ele><time>2026-04-25T07:49:37.666Z</time></trkpt><trkpt lat="38.0101467" lon="15.746505"><ele>744.0</ele><time>2026-04-25T07:49:38.665Z</time></trkpt><trkpt lat="38.01009" lon="15.7464517"><ele>744.0</ele><time>2026-04-25T07:49:39.665Z</time></trkpt><trkpt lat="38.01002" lon="15.746385"><ele>744.3333333333334</ele><time>2026-04-25T07:49:40.665Z</time></trkpt><trkpt lat="38.0099433" lon="15.74631"><ele>744.6666666666666</ele><time>2026-04-25T07:49:41.666Z</time></trkpt><trkpt lat="38.0098733" lon="15.74624"><ele>745.0</ele><time>2026-04-25T07:49:42.665Z</time></trkpt><trkpt lat="38.0098117" lon="15.74618"><ele>745.3333333333333</ele><time>2026-04-25T07:49:43.666Z</time></trkpt><trkpt lat="38.00975" lon="15.7461"><ele>745.6666666666666</ele><time>2026-04-25T07:49:44.665Z</time></trkpt><trkpt lat="38.0096783" lon="15.74602"><ele>746.0</ele><time>2026-04-25T07:49:45.665Z</time></trkpt><trkpt lat="38.0096133" lon="15.7459533"><ele>746.0</ele><time>2026-04-25T07:49:46.665Z</time></trkpt><trkpt lat="38.009525" lon="15.7459"><ele>746.0</ele><time>2026-04-25T07:49:47.665Z</time></trkpt><trkpt lat="38.0094283" lon="15.7458517"><ele>746.0</ele><time>2026-04-25T07:49:48.665Z</time></trkpt><trkpt lat="38.009355" lon="15.7458367"><ele>746.0</ele><time>2026-04-25T07:49:49.665Z</time></trkpt><trkpt lat="38.0092783" lon="15.7458467"><ele>746.0</ele><time>2026-04-25T07:49:50.665Z</time></trkpt><trkpt lat="38.009195" lon="15.74585"><ele>746.0</ele><time>2026-04-25T07:49:51.665Z</time></trkpt><trkpt lat="38.0091017" lon="15.745845"><ele>741.8</ele><time>2026-04-25T07:49:52.665Z</time></trkpt><trkpt lat="38.0089983" lon="15.7458383"><ele>737.5999999999999</ele><time>2026-04-25T07:49:53.665Z</time></trkpt><trkpt lat="38.0089067" lon="15.7458133"><ele>733.4</ele><time>2026-04-25T07:49:54.665Z</time></trkpt><trkpt lat="38.0088367" lon="15.7457733"><ele>729.2</ele><time>2026-04-25T07:49:55.665Z</time></trkpt><trkpt lat="38.00878" lon="15.745725"><ele>725.0</ele><time>2026-04-25T07:49:56.665Z</time></trkpt><trkpt lat="38.0087017" lon="15.74561"><ele>725.0</ele><time>2026-04-25T07:49:58.666Z</time></trkpt><trkpt lat="38.00865" lon="15.7455333"><ele>725.0</ele><time>2026-04-25T07:50:00.665Z</time></trkpt><trkpt lat="38.0085483" lon="15.74554"><ele>725.0</ele><time>2026-04-25T07:50:03.665Z</time></trkpt><trkpt lat="38.0084867" lon="15.7455583"><ele>725.0</ele><time>2026-04-25T07:50:04.665Z</time></trkpt><trkpt lat="38.0084267" lon="15.7455933"><ele>725.0</ele><time>2026-04-25T07:50:05.665Z</time></trkpt><trkpt lat="38.0083717" lon="15.745705"><ele>725.0</ele><time>2026-04-25T07:50:07.665Z</time></trkpt><trkpt lat="38.0084283" lon="15.7458467"><ele>725.0</ele><time>2026-04-25T07:50:09.666Z</time></trkpt><trkpt lat="38.0084867" lon="15.7459183"><ele>725.0</ele><time>2026-04-25T07:50:10.665Z</time></trkpt><trkpt lat="38.0085467" lon="15.7460033"><ele>725.0</ele><time>2026-04-25T07:50:11.666Z</time></trkpt><trkpt lat="38.0086033" lon="15.7461033"><ele>725.0</ele><time>2026-04-25T07:50:12.665Z</time></trkpt><trkpt lat="38.0086617" lon="15.7462083"><ele>725.0</ele><time>2026-04-25T07:50:13.665Z</time></trkpt><trkpt lat="38.0087183" lon="15.7463033"><ele>720.6666666666666</ele><time>2026-04-25T07:50:14.665Z</time></trkpt><trkpt lat="38.0087717" lon="15.7463983"><ele>716.3333333333333</ele><time>2026-04-25T07:50:15.665Z</time></trkpt><trkpt lat="38.00882" lon="15.74647"><ele>712.0</ele><time>2026-04-25T07:50:16.665Z</time></trkpt><trkpt lat="38.0088733" lon="15.746525"><ele>707.6666666666666</ele><time>2026-04-25T07:50:17.665Z</time></trkpt><trkpt lat="38.008925" lon="15.7465767"><ele>703.3333333333334</ele><time>2026-04-25T07:50:18.665Z</time></trkpt><trkpt lat="38.00899" lon="15.7466267"><ele>699.0</ele><time>2026-04-25T07:50:19.666Z</time></trkpt><trkpt lat="38.0090583" lon="15.74667"><ele>699.0</ele><time>2026-04-25T07:50:20.666Z</time></trkpt><trkpt lat="38.009115" lon="15.7467233"><ele>699.0</ele><time>2026-04-25T07:50:21.665Z</time></trkpt><trkpt lat="38.009175" lon="15.746795"><ele>699.0</ele><time>2026-04-25T07:50:22.665Z</time></trkpt><trkpt lat="38.00923" lon="15.7468683"><ele>699.0</ele><time>2026-04-25T07:50:23.665Z</time></trkpt><trkpt lat="38.0092867" lon="15.746935"><ele>699.0</ele><time>2026-04-25T07:50:24.665Z</time></trkpt><trkpt lat="38.0093317" lon="15.747"><ele>699.0</ele><time>2026-04-25T07:50:25.666Z</time></trkpt><trkpt lat="38.009375" lon="15.7471117"><ele>699.0</ele><time>2026-04-25T07:50:27.665Z</time></trkpt><trkpt lat="38.0093667" lon="15.747245"><ele>699.0</ele><time>2026-04-25T07:50:29.666Z</time></trkpt><trkpt lat="38.0093167" lon="15.74739"><ele>699.0</ele><time>2026-04-25T07:50:31.665Z</time></trkpt><trkpt lat="38.00927" lon="15.7474733"><ele>699.0</ele><time>2026-04-25T07:50:32.666Z</time></trkpt><trkpt lat="38.00922" lon="15.7475483"><ele>699.0</ele><time>2026-04-25T07:50:33.665Z</time></trkpt><trkpt lat="38.0091767" lon="15.7476733"><ele>695.6666666666666</ele><time>2026-04-25T07:50:35.665Z</time></trkpt><trkpt lat="38.0092333" lon="15.747775"><ele>692.3333333333334</ele><time>2026-04-25T07:50:37.665Z</time></trkpt><trkpt lat="38.009275" lon="15.747835"><ele>689.0</ele><time>2026-04-25T07:50:38.666Z</time></trkpt><trkpt lat="38.009315" lon="15.747905"><ele>685.6666666666667</ele><time>2026-04-25T07:50:39.666Z</time></trkpt><trkpt lat="38.009355" lon="15.747985"><ele>682.3333333333334</ele><time>2026-04-25T07:50:40.665Z</time></trkpt><trkpt lat="38.0093917" lon="15.7480683"><ele>679.0</ele><time>2026-04-25T07:50:41.665Z</time></trkpt><trkpt lat="38.0094383" lon="15.74815"><ele>679.0</ele><time>2026-04-25T07:50:42.665Z</time></trkpt><trkpt lat="38.00948" lon="15.7482417"><ele>679.0</ele><time>2026-04-25T07:50:43.665Z</time></trkpt><trkpt lat="38.0095133" lon="15.7483317"><ele>679.0</ele><time>2026-04-25T07:50:44.665Z</time></trkpt><trkpt lat="38.00955" lon="15.7484183"><ele>679.0</ele><time>2026-04-25T07:50:45.666Z</time></trkpt><trkpt lat="38.0095867" lon="15.7485067"><ele>679.0</ele><time>2026-04-25T07:50:46.665Z</time></trkpt><trkpt lat="38.0096417" lon="15.7485867"><ele>679.0</ele><time>2026-04-25T07:50:47.665Z</time></trkpt><trkpt lat="38.009695" lon="15.748655"><ele>678.0</ele><time>2026-04-25T07:50:48.665Z</time></trkpt><trkpt lat="38.0097617" lon="15.7487183"><ele>677.0</ele><time>2026-04-25T07:50:49.665Z</time></trkpt><trkpt lat="38.00983" lon="15.74878"><ele>676.0</ele><time>2026-04-25T07:50:50.665Z</time></trkpt><trkpt lat="38.0099017" lon="15.7488383"><ele>675.0</ele><time>2026-04-25T07:50:51.665Z</time></trkpt><trkpt lat="38.009975" lon="15.748885"><ele>674.0</ele><time>2026-04-25T07:50:52.665Z</time></trkpt><trkpt lat="38.01004" lon="15.7489133"><ele>673.0</ele><time>2026-04-25T07:50:53.665Z</time></trkpt><trkpt lat="38.010105" lon="15.7489283"><ele>673.0</ele><time>2026-04-25T07:50:54.665Z</time></trkpt><trkpt lat="38.0102133" lon="15.7489667"><ele>673.0</ele><time>2026-04-25T07:50:56.665Z</time></trkpt><trkpt lat="38.0102733" lon="15.7490017"><ele>673.0</ele><time>2026-04-25T07:50:57.665Z</time></trkpt><trkpt lat="38.0103333" lon="15.7490367"><ele>673.0</ele><time>2026-04-25T07:50:58.665Z</time></trkpt><trkpt lat="38.0104233" lon="15.7491117"><ele>673.0</ele><time>2026-04-25T07:51:00.665Z</time></trkpt><trkpt lat="38.0104883" lon="15.7492"><ele>673.0</ele><time>2026-04-25T07:51:02.665Z</time></trkpt><trkpt lat="38.0105333" lon="15.7492933"><ele>667.5999999999999</ele><time>2026-04-25T07:51:04.665Z</time></trkpt><trkpt lat="38.0105767" lon="15.7493867"><ele>662.1999999999999</ele><time>2026-04-25T07:51:06.665Z</time></trkpt><trkpt lat="38.0106183" lon="15.7494867"><ele>656.8</ele><time>2026-04-25T07:51:08.665Z</time></trkpt><trkpt lat="38.0106783" lon="15.7496033"><ele>651.4</ele><time>2026-04-25T07:51:10.666Z</time></trkpt><trkpt lat="38.0106967" lon="15.74975"><ele>646.0</ele><time>2026-04-25T07:51:12.665Z</time></trkpt><trkpt lat="38.0106833" lon="15.7498867"><ele>646.0</ele><time>2026-04-25T07:51:14.666Z</time></trkpt><trkpt lat="38.0106183" lon="15.7499417"><ele>646.0</ele><time>2026-04-25T07:51:16.665Z</time></trkpt><trkpt lat="38.0105433" lon="15.7498867"><ele>646.0</ele><time>2026-04-25T07:51:18.665Z</time></trkpt><trkpt lat="38.01047" lon="15.7497817"><ele>646.0</ele><time>2026-04-25T07:51:20.666Z</time></trkpt><trkpt lat="38.0103583" lon="15.7497083"><ele>646.0</ele><time>2026-04-25T07:51:22.665Z</time></trkpt><trkpt lat="38.0102983" lon="15.7496817"><ele>646.0</ele><time>2026-04-25T07:51:23.665Z</time></trkpt><trkpt lat="38.0102333" lon="15.7496717"><ele>646.0</ele><time>2026-04-25T07:51:24.666Z</time></trkpt><trkpt lat="38.0101217" lon="15.7496783"><ele>646.0</ele><time>2026-04-25T07:51:26.666Z</time></trkpt><trkpt lat="38.0100267" lon="15.7497317"><ele>646.0</ele><time>2026-04-25T07:51:28.666Z</time></trkpt><trkpt lat="38.0099533" lon="15.7498483"><ele>646.0</ele><time>2026-04-25T07:51:30.665Z</time></trkpt><trkpt lat="38.009915" lon="15.7499183"><ele>643.6666666666667</ele><time>2026-04-25T07:51:31.665Z</time></trkpt><trkpt lat="38.009865" lon="15.7499917"><ele>641.3333333333334</ele><time>2026-04-25T07:51:32.665Z</time></trkpt><trkpt lat="38.00981" lon="15.7500533"><ele>639.0</ele><time>2026-04-25T07:51:33.665Z</time></trkpt><trkpt lat="38.009755" lon="15.75011"><ele>636.6666666666666</ele><time>2026-04-25T07:51:34.665Z</time></trkpt><trkpt lat="38.0097017" lon="15.7501783"><ele>634.3333333333333</ele><time>2026-04-25T07:51:35.665Z</time></trkpt><trkpt lat="38.0096533" lon="15.7502483"><ele>632.0</ele><time>2026-04-25T07:51:36.665Z</time></trkpt><trkpt lat="38.0095717" lon="15.7503517"><ele>632.0</ele><time>2026-04-25T07:51:38.665Z</time></trkpt><trkpt lat="38.0094883" lon="15.7503617"><ele>632.0</ele><time>2026-04-25T07:51:40.665Z</time></trkpt><trkpt lat="38.009415" lon="15.750285"><ele>632.0</ele><time>2026-04-25T07:51:42.666Z</time></trkpt><trkpt lat="38.009315" lon="15.750185"><ele>632.0</ele><time>2026-04-25T07:51:44.665Z</time></trkpt><trkpt lat="38.00926" lon="15.7501183"><ele>632.0</ele><time>2026-04-25T07:51:45.665Z</time></trkpt><trkpt lat="38.0092033" lon="15.7500483"><ele>628.0</ele><time>2026-04-25T07:51:46.666Z</time></trkpt><trkpt lat="38.0091533" lon="15.7499833"><ele>624.0</ele><time>2026-04-25T07:51:47.665Z</time></trkpt><trkpt lat="38.0091033" lon="15.749925"><ele>620.0</ele><time>2026-04-25T07:51:48.665Z</time></trkpt><trkpt lat="38.0090267" lon="15.749845"><ele>616.0</ele><time>2026-04-25T07:51:50.665Z</time></trkpt><trkpt lat="38.008945" lon="15.749845"><ele>612.0</ele><time>2026-04-25T07:51:52.665Z</time></trkpt><trkpt lat="38.00892" lon="15.7499533"><ele>608.0</ele><time>2026-04-25T07:51:54.665Z</time></trkpt><trkpt lat="38.0089383" lon="15.7500517"><ele>608.0</ele><time>2026-04-25T07:51:55.666Z</time></trkpt><trkpt lat="38.0089517" lon="15.7501633"><ele>608.0</ele><time>2026-04-25T07:51:56.665Z</time></trkpt><trkpt lat="38.008965" lon="15.7502683"><ele>608.0</ele><time>2026-04-25T07:51:57.665Z</time></trkpt><trkpt lat="38.0089783" lon="15.7503683"><ele>608.0</ele><time>2026-04-25T07:51:58.665Z</time></trkpt><trkpt lat="38.0089583" lon="15.75046"><ele>608.0</ele><time>2026-04-25T07:51:59.665Z</time></trkpt><trkpt lat="38.0089183" lon="15.7505333"><ele>608.0</ele><time>2026-04-25T07:52:00.665Z</time></trkpt><trkpt lat="38.008825" lon="15.7505967"><ele>605.3333333333333</ele><time>2026-04-25T07:52:02.665Z</time></trkpt><trkpt lat="38.0087433" lon="15.75051"><ele>602.6666666666666</ele><time>2026-04-25T07:52:04.665Z</time></trkpt><trkpt lat="38.008695" lon="15.7504417"><ele>600.0</ele><time>2026-04-25T07:52:05.665Z</time></trkpt><trkpt lat="38.0085983" lon="15.750385"><ele>597.3333333333334</ele><time>2026-04-25T07:52:07.665Z</time></trkpt><trkpt lat="38.0085283" lon="15.75044"><ele>594.6666666666667</ele><time>2026-04-25T07:52:09.666Z</time></trkpt><trkpt lat="38.0085433" lon="15.750525"><ele>592.0</ele><time>2026-04-25T07:52:11.665Z</time></trkpt><trkpt lat="38.0085783" lon="15.7506417"><ele>592.0</ele><time>2026-04-25T07:52:13.665Z</time></trkpt><trkpt lat="38.0085867" lon="15.7507317"><ele>592.0</ele><time>2026-04-25T07:52:14.665Z</time></trkpt><trkpt lat="38.0085917" lon="15.7508233"><ele>592.0</ele><time>2026-04-25T07:52:15.665Z</time></trkpt><trkpt lat="38.0086067" lon="15.750925"><ele>592.0</ele><time>2026-04-25T07:52:16.665Z</time></trkpt><trkpt lat="38.0086333" lon="15.7510283"><ele>592.0</ele><time>2026-04-25T07:52:17.666Z</time></trkpt><trkpt lat="38.0086733" lon="15.7511267"><ele>592.0</ele><time>2026-04-25T07:52:18.665Z</time></trkpt><trkpt lat="38.00871" lon="15.751225"><ele>589.6666666666667</ele><time>2026-04-25T07:52:19.665Z</time></trkpt><trkpt lat="38.0087467" lon="15.751325"><ele>587.3333333333334</ele><time>2026-04-25T07:52:20.665Z</time></trkpt><trkpt lat="38.0087933" lon="15.7514233"><ele>585.0</ele><time>2026-04-25T07:52:21.665Z</time></trkpt><trkpt lat="38.0088417" lon="15.751515"><ele>582.6666666666666</ele><time>2026-04-25T07:52:22.665Z</time></trkpt><trkpt lat="38.00888" lon="15.751605"><ele>580.3333333333333</ele><time>2026-04-25T07:52:23.665Z</time></trkpt><trkpt lat="38.0088967" lon="15.7516867"><ele>578.0</ele><time>2026-04-25T07:52:24.666Z</time></trkpt><trkpt lat="38.008835" lon="15.7518233"><ele>578.0</ele><time>2026-04-25T07:52:26.666Z</time></trkpt><trkpt lat="38.0087717" lon="15.75185"><ele>578.0</ele><time>2026-04-25T07:52:27.665Z</time></trkpt><trkpt lat="38.0086933" lon="15.751835"><ele>578.0</ele><time>2026-04-25T07:52:28.665Z</time></trkpt><trkpt lat="38.0086133" lon="15.75178"><ele>578.0</ele><time>2026-04-25T07:52:29.666Z</time></trkpt><trkpt lat="38.0085333" lon="15.75168"><ele>578.0</ele><time>2026-04-25T07:52:30.666Z</time></trkpt><trkpt lat="38.008455" lon="15.7515683"><ele>578.0</ele><time>2026-04-25T07:52:31.665Z</time></trkpt><trkpt lat="38.0083617" lon="15.7514483"><ele>578.0</ele><time>2026-04-25T07:52:32.666Z</time></trkpt><trkpt lat="38.0082717" lon="15.7513383"><ele>578.0</ele><time>2026-04-25T07:52:33.665Z</time></trkpt><trkpt lat="38.008185" lon="15.7512133"><ele>578.0</ele><time>2026-04-25T07:52:34.665Z</time></trkpt><trkpt lat="38.008085" lon="15.7510933"><ele>577.5</ele><time>2026-04-25T07:52:35.665Z</time></trkpt><trkpt lat="38.00798" lon="15.7509967"><ele>577.0</ele><time>2026-04-25T07:52:36.665Z</time></trkpt><trkpt lat="38.0079" lon="15.75087"><ele>576.5</ele><time>2026-04-25T07:52:37.665Z</time></trkpt><trkpt lat="38.00785" lon="15.7507317"><ele>576.0</ele><time>2026-04-25T07:52:38.665Z</time></trkpt><trkpt lat="38.0078067" lon="15.75058"><ele>576.0</ele><time>2026-04-25T07:52:39.665Z</time></trkpt><trkpt lat="38.007755" lon="15.750465"><ele>576.0</ele><time>2026-04-25T07:52:40.665Z</time></trkpt><trkpt lat="38.00771" lon="15.75038"><ele>576.0</ele><time>2026-04-25T07:52:41.665Z</time></trkpt><trkpt lat="38.00765" lon="15.7503167"><ele>576.0</ele><time>2026-04-25T07:52:42.666Z</time></trkpt><trkpt lat="38.0075867" lon="15.7502433"><ele>576.0</ele><time>2026-04-25T07:52:43.666Z</time></trkpt><trkpt lat="38.0075217" lon="15.750165"><ele>576.0</ele><time>2026-04-25T07:52:44.665Z</time></trkpt><trkpt lat="38.00746" lon="15.7501033"><ele>581.6666666666666</ele><time>2026-04-25T07:52:45.665Z</time></trkpt><trkpt lat="38.0074" lon="15.7500733"><ele>587.3333333333334</ele><time>2026-04-25T07:52:46.665Z</time></trkpt><trkpt lat="38.0073367" lon="15.75007"><ele>593.0</ele><time>2026-04-25T07:52:47.666Z</time></trkpt><trkpt lat="38.0072733" lon="15.7500983"><ele>598.6666666666667</ele><time>2026-04-25T07:52:48.666Z</time></trkpt><trkpt lat="38.007225" lon="15.7502283"><ele>604.3333333333334</ele><time>2026-04-25T07:52:50.665Z</time></trkpt><trkpt lat="38.007225" lon="15.750325"><ele>610.0</ele><time>2026-04-25T07:52:51.665Z</time></trkpt><trkpt lat="38.0072267" lon="15.7504583"><ele>610.0</ele><time>2026-04-25T07:52:52.665Z</time></trkpt><trkpt lat="38.0072333" lon="15.7506267"><ele>610.0</ele><time>2026-04-25T07:52:53.665Z</time></trkpt><trkpt lat="38.00724" lon="15.7508467"><ele>610.0</ele><time>2026-04-25T07:52:54.665Z</time></trkpt><trkpt lat="38.007245" lon="15.7510617"><ele>603.25</ele><time>2026-04-25T07:52:55.666Z</time></trkpt><trkpt lat="38.007245" lon="15.7512417"><ele>596.5</ele><time>2026-04-25T07:52:56.666Z</time></trkpt><trkpt lat="38.0072567" lon="15.75143"><ele>589.75</ele><time>2026-04-25T07:52:57.665Z</time></trkpt><trkpt lat="38.0072967" lon="15.7516217"><ele>583.0</ele><time>2026-04-25T07:52:58.665Z</time></trkpt><trkpt lat="38.007345" lon="15.7518033"><ele>579.0</ele><time>2026-04-25T07:52:59.665Z</time></trkpt><trkpt lat="38.0073967" lon="15.7519783"><ele>575.0</ele><time>2026-04-25T07:53:00.665Z</time></trkpt><trkpt lat="38.0074433" lon="15.7521417"><ele>571.0</ele><time>2026-04-25T07:53:01.665Z</time></trkpt><trkpt lat="38.0074983" lon="15.7522867"><ele>567.0</ele><time>2026-04-25T07:53:02.665Z</time></trkpt><trkpt lat="38.0075467" lon="15.7524167"><ele>565.4</ele><time>2026-04-25T07:53:03.665Z</time></trkpt><trkpt lat="38.0075767" lon="15.7525383"><ele>563.8000000000001</ele><time>2026-04-25T07:53:04.666Z</time></trkpt><trkpt lat="38.007595" lon="15.7526467"><ele>562.2</ele><time>2026-04-25T07:53:05.666Z</time></trkpt><trkpt lat="38.0076" lon="15.75276"><ele>560.6</ele><time>2026-04-25T07:53:06.665Z</time></trkpt><trkpt lat="38.0075817" lon="15.7528917"><ele>559.0</ele><time>2026-04-25T07:53:07.665Z</time></trkpt><trkpt lat="38.0075533" lon="15.7530267"><ele>558.8</ele><time>2026-04-25T07:53:08.665Z</time></trkpt><trkpt lat="38.0075183" lon="15.7531583"><ele>558.5999999999999</ele><time>2026-04-25T07:53:09.665Z</time></trkpt><trkpt lat="38.0074767" lon="15.7532783"><ele>558.4</ele><time>2026-04-25T07:53:10.665Z</time></trkpt><trkpt lat="38.0074417" lon="15.7533833"><ele>558.1999999999999</ele><time>2026-04-25T07:53:11.666Z</time></trkpt><trkpt lat="38.0074133" lon="15.753495"><ele>558.0</ele><time>2026-04-25T07:53:12.665Z</time></trkpt><trkpt lat="38.0073867" lon="15.7536317"><ele>554.0</ele><time>2026-04-25T07:53:13.665Z</time></trkpt><trkpt lat="38.00737" lon="15.7537983"><ele>550.0</ele><time>2026-04-25T07:53:14.666Z</time></trkpt><trkpt lat="38.0073267" lon="15.754005"><ele>546.0</ele><time>2026-04-25T07:53:15.665Z</time></trkpt><trkpt lat="38.0072767" lon="15.7542367"><ele>542.6666666666666</ele><time>2026-04-25T07:53:16.666Z</time></trkpt><trkpt lat="38.0072283" lon="15.754475"><ele>539.3333333333333</ele><time>2026-04-25T07:53:17.665Z</time></trkpt><trkpt lat="38.00718" lon="15.7547233"><ele>536.0</ele><time>2026-04-25T07:53:18.665Z</time></trkpt><trkpt lat="38.00713" lon="15.7549767"><ele>533.6666666666666</ele><time>2026-04-25T07:53:19.666Z</time></trkpt><trkpt lat="38.0070917" lon="15.7552317"><ele>531.3333333333334</ele><time>2026-04-25T07:53:20.665Z</time></trkpt><trkpt lat="38.00705" lon="15.7554683"><ele>529.0</ele><time>2026-04-25T07:53:21.665Z</time></trkpt><trkpt lat="38.0070017" lon="15.7557117"><ele>529.0</ele><time>2026-04-25T07:53:22.665Z</time></trkpt><trkpt lat="38.0069433" lon="15.755935"><ele>529.0</ele><time>2026-04-25T07:53:23.665Z</time></trkpt><trkpt lat="38.00689" lon="15.75615"><ele>529.0</ele><time>2026-04-25T07:53:24.665Z</time></trkpt><trkpt lat="38.006835" lon="15.7563567"><ele>527.0</ele><time>2026-04-25T07:53:25.665Z</time></trkpt><trkpt lat="38.0067867" lon="15.756545"><ele>525.0</ele><time>2026-04-25T07:53:26.665Z</time></trkpt><trkpt lat="38.006725" lon="15.7567117"><ele>523.0</ele><time>2026-04-25T07:53:27.666Z</time></trkpt><trkpt lat="38.0066583" lon="15.75687"><ele>521.0</ele><time>2026-04-25T07:53:28.665Z</time></trkpt><trkpt lat="38.0065833" lon="15.7570183"><ele>520.5</ele><time>2026-04-25T07:53:29.665Z</time></trkpt><trkpt lat="38.0064917" lon="15.7571717"><ele>520.0</ele><time>2026-04-25T07:53:30.665Z</time></trkpt><trkpt lat="38.0063967" lon="15.7573067"><ele>519.5</ele><time>2026-04-25T07:53:31.665Z</time></trkpt><trkpt lat="38.0063" lon="15.7574383"><ele>519.0</ele><time>2026-04-25T07:53:32.665Z</time></trkpt><trkpt lat="38.0062083" lon="15.757565"><ele>519.0</ele><time>2026-04-25T07:53:33.665Z</time></trkpt><trkpt lat="38.0061217" lon="15.757675"><ele>519.0</ele><time>2026-04-25T07:53:34.666Z</time></trkpt><trkpt lat="38.0060483" lon="15.7577733"><ele>519.0</ele><time>2026-04-25T07:53:35.665Z</time></trkpt><trkpt lat="38.0059533" lon="15.75788"><ele>519.0</ele><time>2026-04-25T07:53:36.666Z</time></trkpt><trkpt lat="38.005865" lon="15.7579817"><ele>522.4</ele><time>2026-04-25T07:53:37.665Z</time></trkpt><trkpt lat="38.0057783" lon="15.7580717"><ele>525.8</ele><time>2026-04-25T07:53:38.665Z</time></trkpt><trkpt lat="38.0057217" lon="15.7581367"><ele>529.2</ele><time>2026-04-25T07:53:39.666Z</time></trkpt><trkpt lat="38.00567" lon="15.75822"><ele>532.6</ele><time>2026-04-25T07:53:41.665Z</time></trkpt><trkpt lat="38.00574" lon="15.7581667"><ele>536.0</ele><time>2026-04-25T07:53:50.665Z</time></trkpt><trkpt lat="38.0057917" lon="15.7580617"><ele>533.1666666666666</ele><time>2026-04-25T07:53:52.665Z</time></trkpt><trkpt lat="38.0058433" lon="15.7580017"><ele>530.3333333333333</ele><time>2026-04-25T07:53:53.665Z</time></trkpt><trkpt lat="38.0059033" lon="15.7579383"><ele>527.5</ele><time>2026-04-25T07:53:54.665Z</time></trkpt><trkpt lat="38.0059733" lon="15.7578733"><ele>524.6666666666666</ele><time>2026-04-25T07:53:55.666Z</time></trkpt><trkpt lat="38.0060383" lon="15.7578"><ele>521.8333333333334</ele><time>2026-04-25T07:53:56.666Z</time></trkpt><trkpt lat="38.0060917" lon="15.7577333"><ele>519.0</ele><time>2026-04-25T07:53:57.666Z</time></trkpt><trkpt lat="38.006165" lon="15.7576367"><ele>519.0</ele><time>2026-04-25T07:53:59.666Z</time></trkpt><trkpt lat="38.00621" lon="15.7575767"><ele>519.0</ele><time>2026-04-25T07:54:00.666Z</time></trkpt><trkpt lat="38.006275" lon="15.7574883"><ele>519.0</ele><time>2026-04-25T07:54:01.666Z</time></trkpt><trkpt lat="38.00635" lon="15.7573867"><ele>519.0</ele><time>2026-04-25T07:54:02.666Z</time></trkpt><trkpt lat="38.006415" lon="15.7573"><ele>519.0</ele><time>2026-04-25T07:54:03.666Z</time></trkpt><trkpt lat="38.00647" lon="15.7572333"><ele>519.0</ele><time>2026-04-25T07:54:04.667Z</time></trkpt><trkpt lat="38.0065233" lon="15.75719"><ele>519.0</ele><time>2026-04-25T07:54:05.666Z</time></trkpt><trkpt lat="38.0066067" lon="15.7572167"><ele>519.0</ele><time>2026-04-25T07:54:07.666Z</time></trkpt><trkpt lat="38.006685" lon="15.7573333"><ele>519.0</ele><time>2026-04-25T07:54:09.667Z</time></trkpt><trkpt lat="38.0067567" lon="15.7573767"><ele>519.0</ele><time>2026-04-25T07:54:11.666Z</time></trkpt><trkpt lat="38.00681" lon="15.7573283"><ele>519.0</ele><time>2026-04-25T07:54:13.667Z</time></trkpt><trkpt lat="38.0068717" lon="15.7572367"><ele>519.0</ele><time>2026-04-25T07:54:15.666Z</time></trkpt><trkpt lat="38.0069517" lon="15.7571967"><ele>518.2</ele><time>2026-04-25T07:54:17.667Z</time></trkpt><trkpt lat="38.00705" lon="15.7572117"><ele>517.4</ele><time>2026-04-25T07:54:19.666Z</time></trkpt><trkpt lat="38.0071683" lon="15.7572267"><ele>516.6</ele><time>2026-04-25T07:54:21.667Z</time></trkpt><trkpt lat="38.0072533" lon="15.757205"><ele>515.8</ele><time>2026-04-25T07:54:23.666Z</time></trkpt><trkpt lat="38.00717" lon="15.75722"><ele>515.0</ele><time>2026-04-25T07:54:44.666Z</time></trkpt><trkpt lat="38.00709" lon="15.7572367"><ele>515.0</ele><time>2026-04-25T07:54:46.666Z</time></trkpt><trkpt lat="38.007" lon="15.757225"><ele>515.0</ele><time>2026-04-25T07:54:48.666Z</time></trkpt><trkpt lat="38.006915" lon="15.7572283"><ele>515.0</ele><time>2026-04-25T07:54:50.667Z</time></trkpt><trkpt lat="38.00688" lon="15.7573133"><ele>515.0</ele><time>2026-04-25T07:54:54.666Z</time></trkpt><trkpt lat="38.0068717" lon="15.7573933"><ele>515.0</ele><time>2026-04-25T07:54:56.666Z</time></trkpt><trkpt lat="38.006795" lon="15.7574633"><ele>515.0</ele><time>2026-04-25T07:54:59.666Z</time></trkpt><trkpt lat="38.0067433" lon="15.7575367"><ele>515.0</ele><time>2026-04-25T07:55:01.666Z</time></trkpt><trkpt lat="38.006695" lon="15.7576183"><ele>515.0</ele><time>2026-04-25T07:55:03.667Z</time></trkpt><trkpt lat="38.006655" lon="15.7577067"><ele>515.0</ele><time>2026-04-25T07:55:05.666Z</time></trkpt><trkpt lat="38.0065967" lon="15.7577817"><ele>515.0</ele><time>2026-04-25T07:55:07.666Z</time></trkpt><trkpt lat="38.0065433" lon="15.7578433"><ele>515.0</ele><time>2026-04-25T07:55:09.666Z</time></trkpt><trkpt lat="38.0065183" lon="15.75792"><ele>515.0</ele><time>2026-04-25T07:55:11.666Z</time></trkpt><trkpt lat="38.00648" lon="15.757985"><ele>515.0</ele><time>2026-04-25T07:55:13.666Z</time></trkpt><trkpt lat="38.0064333" lon="15.7580983"><ele>514.5</ele><time>2026-04-25T07:55:16.666Z</time></trkpt><trkpt lat="38.0063967" lon="15.758205"><ele>514.0</ele><time>2026-04-25T07:55:18.667Z</time></trkpt><trkpt lat="38.006345" lon="15.7582933"><ele>513.5</ele><time>2026-04-25T07:55:20.666Z</time></trkpt><trkpt lat="38.0063017" lon="15.7583833"><ele>513.0</ele><time>2026-04-25T07:55:23.667Z</time></trkpt><trkpt lat="38.0062767" lon="15.758465"><ele>512.5</ele><time>2026-04-25T07:55:25.666Z</time></trkpt><trkpt lat="38.0062433" lon="15.7585417"><ele>512.0</ele><time>2026-04-25T07:55:27.666Z</time></trkpt><trkpt lat="38.0062033" lon="15.758645"><ele>510.99999999999994</ele><time>2026-04-25T07:55:33.667Z</time></trkpt><trkpt lat="38.0061633" lon="15.75872"><ele>510.0</ele><time>2026-04-25T07:55:35.666Z</time></trkpt><trkpt lat="38.0061183" lon="15.7587867"><ele>509.0</ele><time>2026-04-25T07:55:37.666Z</time></trkpt><trkpt lat="38.0060667" lon="15.7588417"><ele>508.0</ele><time>2026-04-25T07:55:39.666Z</time></trkpt><trkpt lat="38.0060167" lon="15.7589217"><ele>506.99999999999994</ele><time>2026-04-25T07:55:42.666Z</time></trkpt><trkpt lat="38.00595" lon="15.7589833"><ele>506.0</ele><time>2026-04-25T07:55:44.666Z</time></trkpt><trkpt lat="38.0058883" lon="15.75905"><ele>507.00000000000006</ele><time>2026-04-25T07:55:46.666Z</time></trkpt><trkpt lat="38.0058283" lon="15.7591317"><ele>508.0</ele><time>2026-04-25T07:55:49.667Z</time></trkpt><trkpt lat="38.0057933" lon="15.759205"><ele>509.00000000000006</ele><time>2026-04-25T07:55:51.666Z</time></trkpt><trkpt lat="38.0057517" lon="15.759295"><ele>510.00000000000006</ele><time>2026-04-25T07:55:53.667Z</time></trkpt><trkpt lat="38.00571" lon="15.759375"><ele>511.0</ele><time>2026-04-25T07:55:55.666Z</time></trkpt><trkpt lat="38.0056817" lon="15.7594483"><ele>512.0000000000001</ele><time>2026-04-25T07:55:57.666Z</time></trkpt><trkpt lat="38.0056333" lon="15.759515"><ele>513.0</ele><time>2026-04-25T07:55:59.666Z</time></trkpt><trkpt lat="38.0055683" lon="15.7595683"><ele>509.59999999999997</ele><time>2026-04-25T07:56:01.667Z</time></trkpt><trkpt lat="38.0054867" lon="15.7596217"><ele>506.19999999999993</ele><time>2026-04-25T07:56:03.667Z</time></trkpt><trkpt lat="38.0054" lon="15.7596683"><ele>502.8</ele><time>2026-04-25T07:56:05.666Z</time></trkpt><trkpt lat="38.0053283" lon="15.7597517"><ele>499.4</ele><time>2026-04-25T07:56:07.666Z</time></trkpt><trkpt lat="38.005265" lon="15.759855"><ele>496.0</ele><time>2026-04-25T07:56:09.667Z</time></trkpt><trkpt lat="38.005215" lon="15.7599383"><ele>496.00000000000006</ele><time>2026-04-25T07:56:11.666Z</time></trkpt><trkpt lat="38.005165" lon="15.7600267"><ele>496.0</ele><time>2026-04-25T07:56:13.667Z</time></trkpt><trkpt lat="38.005105" lon="15.760095"><ele>496.0</ele><time>2026-04-25T07:56:15.666Z</time></trkpt><trkpt lat="38.00505" lon="15.7601583"><ele>496.0</ele><time>2026-04-25T07:56:17.666Z</time></trkpt><trkpt lat="38.0050017" lon="15.7602133"><ele>496.00000000000006</ele><time>2026-04-25T07:56:19.666Z</time></trkpt><trkpt lat="38.0049483" lon="15.76031"><ele>496.0</ele><time>2026-04-25T07:56:33.667Z</time></trkpt><trkpt lat="38.0049167" lon="15.7603817"><ele>496.00000000000006</ele><time>2026-04-25T07:56:36.667Z</time></trkpt><trkpt lat="38.0048667" lon="15.7604517"><ele>496.0</ele><time>2026-04-25T07:56:38.666Z</time></trkpt><trkpt lat="38.0047933" lon="15.760525"><ele>496.0</ele><time>2026-04-25T07:56:40.666Z</time></trkpt><trkpt lat="38.00472" lon="15.7606033"><ele>496.0</ele><time>2026-04-25T07:56:42.666Z</time></trkpt><trkpt lat="38.0046617" lon="15.7606883"><ele>496.00000000000006</ele><time>2026-04-25T07:56:44.666Z</time></trkpt><trkpt lat="38.0046017" lon="15.7607783"><ele>496.0</ele><time>2026-04-25T07:56:46.666Z</time></trkpt><trkpt lat="38.0045417" lon="15.7609067"><ele>493.6</ele><time>2026-04-25T07:56:48.667Z</time></trkpt><trkpt lat="38.00447" lon="15.7610333"><ele>491.20000000000005</ele><time>2026-04-25T07:56:50.666Z</time></trkpt><trkpt lat="38.0044167" lon="15.761155"><ele>488.79999999999995</ele><time>2026-04-25T07:56:52.666Z</time></trkpt><trkpt lat="38.00438" lon="15.7612733"><ele>486.4</ele><time>2026-04-25T07:56:54.666Z</time></trkpt><trkpt lat="38.004305" lon="15.7613833"><ele>484.0</ele><time>2026-04-25T07:56:56.666Z</time></trkpt><trkpt lat="38.0042583" lon="15.7614383"><ele>484.00000000000006</ele><time>2026-04-25T07:56:57.666Z</time></trkpt><trkpt lat="38.004165" lon="15.76153"><ele>484.0</ele><time>2026-04-25T07:56:59.666Z</time></trkpt><trkpt lat="38.004105" lon="15.761605"><ele>484.0</ele><time>2026-04-25T07:57:01.666Z</time></trkpt><trkpt lat="38.0040417" lon="15.761675"><ele>484.0</ele><time>2026-04-25T07:57:03.666Z</time></trkpt><trkpt lat="38.003995" lon="15.761735"><ele>484.00000000000006</ele><time>2026-04-25T07:57:05.666Z</time></trkpt><trkpt lat="38.0039633" lon="15.7618217"><ele>484.0</ele><time>2026-04-25T07:57:11.666Z</time></trkpt><trkpt lat="38.0039217" lon="15.7618983"><ele>484.2</ele><time>2026-04-25T07:57:13.667Z</time></trkpt><trkpt lat="38.003925" lon="15.7619933"><ele>484.4</ele><time>2026-04-25T07:57:17.667Z</time></trkpt><trkpt lat="38.0040033" lon="15.7620317"><ele>484.6</ele><time>2026-04-25T07:57:20.667Z</time></trkpt><trkpt lat="38.00408" lon="15.7620617"><ele>484.8</ele><time>2026-04-25T07:57:30.666Z</time></trkpt><trkpt lat="38.00418" lon="15.762095"><ele>485.0</ele><time>2026-04-25T07:57:32.666Z</time></trkpt><trkpt lat="38.0043117" lon="15.7621133"><ele>485.0</ele><time>2026-04-25T07:57:34.666Z</time></trkpt><trkpt lat="38.0044317" lon="15.7621083"><ele>485.0</ele><time>2026-04-25T07:57:36.666Z</time></trkpt><trkpt lat="38.0045533" lon="15.7621583"><ele>485.0</ele><time>2026-04-25T07:57:38.666Z</time></trkpt><trkpt lat="38.0046367" lon="15.7622117"><ele>485.0</ele><time>2026-04-25T07:57:39.667Z</time></trkpt><trkpt lat="38.0047467" lon="15.7622983"><ele>485.0</ele><time>2026-04-25T07:57:40.666Z</time></trkpt><trkpt lat="38.0048817" lon="15.7623683"><ele>485.0</ele><time>2026-04-25T07:57:41.666Z</time></trkpt><trkpt lat="38.0049867" lon="15.7624167"><ele>485.0</ele><time>2026-04-25T07:57:42.666Z</time></trkpt><trkpt lat="38.005105" lon="15.7624617"><ele>485.0</ele><time>2026-04-25T07:57:43.666Z</time></trkpt><trkpt lat="38.00524" lon="15.76251"><ele>487.0</ele><time>2026-04-25T07:57:44.666Z</time></trkpt><trkpt lat="38.0053683" lon="15.76256"><ele>489.0</ele><time>2026-04-25T07:57:45.666Z</time></trkpt><trkpt lat="38.00548" lon="15.7626267"><ele>491.0</ele><time>2026-04-25T07:57:46.666Z</time></trkpt><trkpt lat="38.0056033" lon="15.7627183"><ele>493.0</ele><time>2026-04-25T07:57:47.666Z</time></trkpt><trkpt lat="38.005735" lon="15.7628133"><ele>495.25</ele><time>2026-04-25T07:57:48.666Z</time></trkpt><trkpt lat="38.0058617" lon="15.7629083"><ele>497.5</ele><time>2026-04-25T07:57:49.666Z</time></trkpt><trkpt lat="38.0059883" lon="15.7629917"><ele>499.75</ele><time>2026-04-25T07:57:50.666Z</time></trkpt><trkpt lat="38.006095" lon="15.763065"><ele>502.0</ele><time>2026-04-25T07:57:51.666Z</time></trkpt><trkpt lat="38.00619" lon="15.7631283"><ele>502.0</ele><time>2026-04-25T07:57:52.666Z</time></trkpt><trkpt lat="38.006285" lon="15.7632133"><ele>502.00000000000006</ele><time>2026-04-25T07:57:53.666Z</time></trkpt><trkpt lat="38.0063733" lon="15.7632967"><ele>502.00000000000006</ele><time>2026-04-25T07:57:54.667Z</time></trkpt><trkpt lat="38.0064433" lon="15.7633533"><ele>502.0</ele><time>2026-04-25T07:57:55.666Z</time></trkpt><trkpt lat="38.0065183" lon="15.7634083"><ele>502.0</ele><time>2026-04-25T07:57:56.667Z</time></trkpt><trkpt lat="38.0066083" lon="15.76346"><ele>502.83333333333337</ele><time>2026-04-25T07:57:57.666Z</time></trkpt><trkpt lat="38.0067167" lon="15.7635067"><ele>503.6666666666667</ele><time>2026-04-25T07:57:58.666Z</time></trkpt><trkpt lat="38.00681" lon="15.7635583"><ele>504.5</ele><time>2026-04-25T07:57:59.666Z</time></trkpt><trkpt lat="38.0068867" lon="15.7635883"><ele>505.33333333333337</ele><time>2026-04-25T07:58:00.667Z</time></trkpt><trkpt lat="38.0069517" lon="15.763605"><ele>506.1666666666667</ele><time>2026-04-25T07:58:01.666Z</time></trkpt><trkpt lat="38.0070317" lon="15.7636267"><ele>507.0</ele><time>2026-04-25T07:58:03.666Z</time></trkpt><trkpt lat="38.007095" lon="15.763705"><ele>509.0</ele><time>2026-04-25T07:58:06.666Z</time></trkpt><trkpt lat="38.007125" lon="15.7637783"><ele>511.0</ele><time>2026-04-25T07:58:08.666Z</time></trkpt><trkpt lat="38.0071683" lon="15.7638633"><ele>513.0</ele><time>2026-04-25T07:58:10.666Z</time></trkpt><trkpt lat="38.0072383" lon="15.763945"><ele>515.0</ele><time>2026-04-25T07:58:12.666Z</time></trkpt><trkpt lat="38.0072933" lon="15.7640083"><ele>517.0</ele><time>2026-04-25T07:58:13.666Z</time></trkpt><trkpt lat="38.007355" lon="15.76409"><ele>519.0</ele><time>2026-04-25T07:58:14.666Z</time></trkpt><trkpt lat="38.0074267" lon="15.7641833"><ele>519.25</ele><time>2026-04-25T07:58:15.667Z</time></trkpt><trkpt lat="38.0075067" lon="15.7642817"><ele>519.5</ele><time>2026-04-25T07:58:16.666Z</time></trkpt><trkpt lat="38.0075933" lon="15.76439"><ele>519.75</ele><time>2026-04-25T07:58:17.666Z</time></trkpt><trkpt lat="38.0076733" lon="15.764485"><ele>520.0</ele><time>2026-04-25T07:58:18.667Z</time></trkpt><trkpt lat="38.007755" lon="15.7645733"><ele>521.8</ele><time>2026-04-25T07:58:19.666Z</time></trkpt><trkpt lat="38.0078317" lon="15.7646633"><ele>523.6</ele><time>2026-04-25T07:58:20.666Z</time></trkpt><trkpt lat="38.0079083" lon="15.7647567"><ele>525.4</ele><time>2026-04-25T07:58:21.666Z</time></trkpt><trkpt lat="38.0079883" lon="15.764845"><ele>527.2</ele><time>2026-04-25T07:58:22.666Z</time></trkpt><trkpt lat="38.00807" lon="15.7649233"><ele>529.0</ele><time>2026-04-25T07:58:23.666Z</time></trkpt><trkpt lat="38.008155" lon="15.7650067"><ele>529.0</ele><time>2026-04-25T07:58:24.666Z</time></trkpt><trkpt lat="38.008235" lon="15.76508"><ele>529.0</ele><time>2026-04-25T07:58:25.666Z</time></trkpt><trkpt lat="38.0083117" lon="15.7651567"><ele>529.0</ele><time>2026-04-25T07:58:26.666Z</time></trkpt><trkpt lat="38.008385" lon="15.7652283"><ele>529.0</ele><time>2026-04-25T07:58:27.666Z</time></trkpt><trkpt lat="38.0084567" lon="15.7653017"><ele>529.0</ele><time>2026-04-25T07:58:28.666Z</time></trkpt><trkpt lat="38.0085217" lon="15.76539"><ele>530.4</ele><time>2026-04-25T07:58:29.666Z</time></trkpt><trkpt lat="38.0086017" lon="15.7654617"><ele>531.8</ele><time>2026-04-25T07:58:30.666Z</time></trkpt><trkpt lat="38.0086783" lon="15.765535"><ele>533.2</ele><time>2026-04-25T07:58:31.666Z</time></trkpt><trkpt lat="38.0087583" lon="15.7656067"><ele>534.6</ele><time>2026-04-25T07:58:32.666Z</time></trkpt><trkpt lat="38.0088367" lon="15.765685"><ele>536.0</ele><time>2026-04-25T07:58:33.666Z</time></trkpt><trkpt lat="38.00891" lon="15.7657667"><ele>536.0</ele><time>2026-04-25T07:58:34.666Z</time></trkpt><trkpt lat="38.0089867" lon="15.7658483"><ele>536.0</ele><time>2026-04-25T07:58:35.666Z</time></trkpt><trkpt lat="38.0090717" lon="15.765925"><ele>536.0</ele><time>2026-04-25T07:58:36.666Z</time></trkpt><trkpt lat="38.0091567" lon="15.7660117"><ele>536.0</ele><time>2026-04-25T07:58:37.666Z</time></trkpt><trkpt lat="38.0092383" lon="15.7661033"><ele>536.0</ele><time>2026-04-25T07:58:38.666Z</time></trkpt><trkpt lat="38.0093267" lon="15.7662017"><ele>538.25</ele><time>2026-04-25T07:58:39.666Z</time></trkpt><trkpt lat="38.009415" lon="15.766305"><ele>540.5</ele><time>2026-04-25T07:58:40.666Z</time></trkpt><trkpt lat="38.0095083" lon="15.7664"><ele>542.75</ele><time>2026-04-25T07:58:41.666Z</time></trkpt><trkpt lat="38.0095983" lon="15.7664883"><ele>545.0</ele><time>2026-04-25T07:58:42.666Z</time></trkpt><trkpt lat="38.0097" lon="15.7665833"><ele>545.0</ele><time>2026-04-25T07:58:43.666Z</time></trkpt><trkpt lat="38.0097967" lon="15.766685"><ele>545.0</ele><time>2026-04-25T07:58:44.666Z</time></trkpt><trkpt lat="38.0098917" lon="15.7667767"><ele>545.0</ele><time>2026-04-25T07:58:45.666Z</time></trkpt><trkpt lat="38.0099833" lon="15.7668633"><ele>545.0</ele><time>2026-04-25T07:58:46.666Z</time></trkpt><trkpt lat="38.01008" lon="15.7669367"><ele>548.5</ele><time>2026-04-25T07:58:47.666Z</time></trkpt><trkpt lat="38.0101633" lon="15.7670083"><ele>552.0</ele><time>2026-04-25T07:58:48.666Z</time></trkpt><trkpt lat="38.0102467" lon="15.7671"><ele>555.5</ele><time>2026-04-25T07:58:49.666Z</time></trkpt><trkpt lat="38.0103383" lon="15.7672067"><ele>559.0</ele><time>2026-04-25T07:58:50.666Z</time></trkpt><trkpt lat="38.0104283" lon="15.7673233"><ele>559.0</ele><time>2026-04-25T07:58:51.666Z</time></trkpt><trkpt lat="38.0105233" lon="15.7674383"><ele>559.0</ele><time>2026-04-25T07:58:52.666Z</time></trkpt><trkpt lat="38.01062" lon="15.7675567"><ele>559.0</ele><time>2026-04-25T07:58:53.666Z</time></trkpt><trkpt lat="38.0107283" lon="15.767675"><ele>559.0</ele><time>2026-04-25T07:58:54.666Z</time></trkpt><trkpt lat="38.0108417" lon="15.767795"><ele>561.6666666666667</ele><time>2026-04-25T07:58:55.666Z</time></trkpt><trkpt lat="38.0109583" lon="15.7679217"><ele>564.3333333333334</ele><time>2026-04-25T07:58:56.667Z</time></trkpt><trkpt lat="38.0110833" lon="15.768055"><ele>567.0</ele><time>2026-04-25T07:58:57.666Z</time></trkpt><trkpt lat="38.011205" lon="15.7681883"><ele>567.0</ele><time>2026-04-25T07:58:58.666Z</time></trkpt><trkpt lat="38.0113283" lon="15.7683167"><ele>567.0</ele><time>2026-04-25T07:58:59.667Z</time></trkpt><trkpt lat="38.0114533" lon="15.768435"><ele>567.0</ele><time>2026-04-25T07:59:00.666Z</time></trkpt><trkpt lat="38.011585" lon="15.768545"><ele>572.0</ele><time>2026-04-25T07:59:01.667Z</time></trkpt><trkpt lat="38.01171" lon="15.7686483"><ele>577.0</ele><time>2026-04-25T07:59:02.666Z</time></trkpt><trkpt lat="38.0118433" lon="15.7687367"><ele>582.0</ele><time>2026-04-25T07:59:03.666Z</time></trkpt><trkpt lat="38.0119817" lon="15.768815"><ele>582.0</ele><time>2026-04-25T07:59:04.666Z</time></trkpt><trkpt lat="38.0121133" lon="15.76889"><ele>582.0</ele><time>2026-04-25T07:59:05.666Z</time></trkpt><trkpt lat="38.012235" lon="15.7689533"><ele>582.0</ele><time>2026-04-25T07:59:06.667Z</time></trkpt><trkpt lat="38.0123517" lon="15.7690183"><ele>582.0</ele><time>2026-04-25T07:59:07.666Z</time></trkpt><trkpt lat="38.0124683" lon="15.7690533"><ele>581.0</ele><time>2026-04-25T07:59:08.666Z</time></trkpt><trkpt lat="38.0125933" lon="15.7690667"><ele>580.0</ele><time>2026-04-25T07:59:09.666Z</time></trkpt><trkpt lat="38.0127267" lon="15.7690833"><ele>579.0</ele><time>2026-04-25T07:59:10.666Z</time></trkpt><trkpt lat="38.0128517" lon="15.7690983"><ele>578.0</ele><time>2026-04-25T07:59:11.666Z</time></trkpt><trkpt lat="38.01297" lon="15.769115"><ele>578.0</ele><time>2026-04-25T07:59:12.666Z</time></trkpt><trkpt lat="38.013075" lon="15.7691267"><ele>578.0</ele><time>2026-04-25T07:59:13.666Z</time></trkpt><trkpt lat="38.0131833" lon="15.7691317"><ele>578.0</ele><time>2026-04-25T07:59:14.666Z</time></trkpt><trkpt lat="38.0132917" lon="15.7691317"><ele>578.0</ele><time>2026-04-25T07:59:15.666Z</time></trkpt><trkpt lat="38.013405" lon="15.7691233"><ele>578.0</ele><time>2026-04-25T07:59:16.667Z</time></trkpt><trkpt lat="38.0135267" lon="15.7691"><ele>579.6</ele><time>2026-04-25T07:59:17.666Z</time></trkpt><trkpt lat="38.01364" lon="15.76907"><ele>581.1999999999999</ele><time>2026-04-25T07:59:18.666Z</time></trkpt><trkpt lat="38.0137467" lon="15.76905"><ele>582.8</ele><time>2026-04-25T07:59:19.666Z</time></trkpt><trkpt lat="38.0138233" lon="15.7690417"><ele>584.4</ele><time>2026-04-25T07:59:20.666Z</time></trkpt><trkpt lat="38.0139067" lon="15.7690767"><ele>586.0</ele><time>2026-04-25T07:59:22.666Z</time></trkpt><trkpt lat="38.01395" lon="15.7691917"><ele>586.0</ele><time>2026-04-25T07:59:24.666Z</time></trkpt><trkpt lat="38.0139517" lon="15.7692767"><ele>586.0</ele><time>2026-04-25T07:59:25.667Z</time></trkpt><trkpt lat="38.0139483" lon="15.769375"><ele>586.0</ele><time>2026-04-25T07:59:26.666Z</time></trkpt><trkpt lat="38.0139417" lon="15.76949"><ele>586.0</ele><time>2026-04-25T07:59:27.666Z</time></trkpt><trkpt lat="38.013935" lon="15.7696183"><ele>586.0</ele><time>2026-04-25T07:59:28.666Z</time></trkpt><trkpt lat="38.0139317" lon="15.7697583"><ele>586.0</ele><time>2026-04-25T07:59:29.667Z</time></trkpt><trkpt lat="38.0139283" lon="15.7699117"><ele>586.25</ele><time>2026-04-25T07:59:30.666Z</time></trkpt><trkpt lat="38.01392" lon="15.7700767"><ele>586.5</ele><time>2026-04-25T07:59:31.667Z</time></trkpt><trkpt lat="38.0138883" lon="15.7702433"><ele>586.75</ele><time>2026-04-25T07:59:32.667Z</time></trkpt><trkpt lat="38.01383" lon="15.7704267"><ele>587.0</ele><time>2026-04-25T07:59:33.667Z</time></trkpt><trkpt lat="38.0137633" lon="15.7706233"><ele>592.3333333333333</ele><time>2026-04-25T07:59:34.666Z</time></trkpt><trkpt lat="38.013715" lon="15.770815"><ele>597.6666666666666</ele><time>2026-04-25T07:59:35.666Z</time></trkpt><trkpt lat="38.0136833" lon="15.7710067"><ele>603.0</ele><time>2026-04-25T07:59:36.667Z</time></trkpt><trkpt lat="38.0136733" lon="15.771205"><ele>607.3333333333334</ele><time>2026-04-25T07:59:37.666Z</time></trkpt><trkpt lat="38.0136817" lon="15.771405"><ele>611.6666666666667</ele><time>2026-04-25T07:59:38.666Z</time></trkpt><trkpt lat="38.0137133" lon="15.7716267"><ele>616.0</ele><time>2026-04-25T07:59:39.667Z</time></trkpt><trkpt lat="38.01376" lon="15.7718383"><ele>619.0</ele><time>2026-04-25T07:59:40.666Z</time></trkpt><trkpt lat="38.0138183" lon="15.7720483"><ele>622.0</ele><time>2026-04-25T07:59:41.666Z</time></trkpt><trkpt lat="38.0138933" lon="15.7722417"><ele>625.0</ele><time>2026-04-25T07:59:42.666Z</time></trkpt><trkpt lat="38.0139783" lon="15.7724417"><ele>625.0</ele><time>2026-04-25T07:59:43.666Z</time></trkpt><trkpt lat="38.014095" lon="15.77262"><ele>625.0</ele><time>2026-04-25T07:59:44.666Z</time></trkpt><trkpt lat="38.0142283" lon="15.77279"><ele>625.0</ele><time>2026-04-25T07:59:45.666Z</time></trkpt><trkpt lat="38.0143817" lon="15.7729567"><ele>620.3333333333334</ele><time>2026-04-25T07:59:46.666Z</time></trkpt><trkpt lat="38.0145367" lon="15.773125"><ele>615.6666666666666</ele><time>2026-04-25T07:59:47.666Z</time></trkpt><trkpt lat="38.014695" lon="15.7732817"><ele>611.0</ele><time>2026-04-25T07:59:48.666Z</time></trkpt><trkpt lat="38.0148533" lon="15.7734367"><ele>613.6666666666666</ele><time>2026-04-25T07:59:49.666Z</time></trkpt><trkpt lat="38.015005" lon="15.773575"><ele>616.3333333333334</ele><time>2026-04-25T07:59:50.666Z</time></trkpt><trkpt lat="38.0151533" lon="15.7736983"><ele>619.0</ele><time>2026-04-25T07:59:51.666Z</time></trkpt><trkpt lat="38.0152917" lon="15.7737817"><ele>619.0</ele><time>2026-04-25T07:59:52.667Z</time></trkpt><trkpt lat="38.015405" lon="15.77383"><ele>619.0</ele><time>2026-04-25T07:59:53.666Z</time></trkpt><trkpt lat="38.01552" lon="15.7738233"><ele>619.0</ele><time>2026-04-25T07:59:54.666Z</time></trkpt><trkpt lat="38.0156383" lon="15.7737817"><ele>619.0</ele><time>2026-04-25T07:59:55.666Z</time></trkpt><trkpt lat="38.0157633" lon="15.7737367"><ele>620.25</ele><time>2026-04-25T07:59:56.666Z</time></trkpt><trkpt lat="38.0158917" lon="15.77372"><ele>621.5</ele><time>2026-04-25T07:59:57.666Z</time></trkpt><trkpt lat="38.016025" lon="15.7737367"><ele>622.75</ele><time>2026-04-25T07:59:58.666Z</time></trkpt><trkpt lat="38.0161317" lon="15.7737833"><ele>624.0</ele><time>2026-04-25T07:59:59.667Z</time></trkpt><trkpt lat="38.0162" lon="15.7738533"><ele>624.0</ele><time>2026-04-25T08:00:00.666Z</time></trkpt><trkpt lat="38.0162417" lon="15.7739533"><ele>624.0</ele><time>2026-04-25T08:00:01.666Z</time></trkpt><trkpt lat="38.016255" lon="15.7740567"><ele>624.0</ele><time>2026-04-25T08:00:02.667Z</time></trkpt><trkpt lat="38.016225" lon="15.77418"><ele>624.0</ele><time>2026-04-25T08:00:03.666Z</time></trkpt><trkpt lat="38.0161667" lon="15.7743267"><ele>624.0</ele><time>2026-04-25T08:00:04.666Z</time></trkpt><trkpt lat="38.0160767" lon="15.7745267"><ele>628.0</ele><time>2026-04-25T08:00:05.666Z</time></trkpt><trkpt lat="38.0159833" lon="15.7747417"><ele>632.0</ele><time>2026-04-25T08:00:06.666Z</time></trkpt><trkpt lat="38.01591" lon="15.7749217"><ele>636.0</ele><time>2026-04-25T08:00:07.666Z</time></trkpt><trkpt lat="38.01584" lon="15.7750583"><ele>636.0</ele><time>2026-04-25T08:00:08.666Z</time></trkpt><trkpt lat="38.0157717" lon="15.7751483"><ele>636.0</ele><time>2026-04-25T08:00:09.667Z</time></trkpt><trkpt lat="38.0157033" lon="15.775205"><ele>636.0</ele><time>2026-04-25T08:00:10.666Z</time></trkpt><trkpt lat="38.015605" lon="15.77523"><ele>636.0</ele><time>2026-04-25T08:00:11.666Z</time></trkpt><trkpt lat="38.0154867" lon="15.77522"><ele>636.0</ele><time>2026-04-25T08:00:12.666Z</time></trkpt><trkpt lat="38.0153383" lon="15.7752"><ele>639.3333333333334</ele><time>2026-04-25T08:00:13.666Z</time></trkpt><trkpt lat="38.0151817" lon="15.77522"><ele>642.6666666666667</ele><time>2026-04-25T08:00:14.666Z</time></trkpt><trkpt lat="38.0150283" lon="15.77526"><ele>646.0</ele><time>2026-04-25T08:00:15.666Z</time></trkpt><trkpt lat="38.0148883" lon="15.7753"><ele>646.0</ele><time>2026-04-25T08:00:16.666Z</time></trkpt><trkpt lat="38.014765" lon="15.775345"><ele>646.0</ele><time>2026-04-25T08:00:17.666Z</time></trkpt><trkpt lat="38.0146633" lon="15.7753917"><ele>646.0</ele><time>2026-04-25T08:00:18.667Z</time></trkpt><trkpt lat="38.0145867" lon="15.7754417"><ele>646.0</ele><time>2026-04-25T08:00:19.666Z</time></trkpt><trkpt lat="38.014535" lon="15.7755033"><ele>646.0</ele><time>2026-04-25T08:00:20.666Z</time></trkpt><trkpt lat="38.0144967" lon="15.7755917"><ele>646.0</ele><time>2026-04-25T08:00:21.666Z</time></trkpt><trkpt lat="38.01449" lon="15.775675"><ele>646.0</ele><time>2026-04-25T08:00:22.666Z</time></trkpt><trkpt lat="38.0144983" lon="15.775765"><ele>646.0</ele><time>2026-04-25T08:00:23.666Z</time></trkpt><trkpt lat="38.01449" lon="15.77587"><ele>646.0</ele><time>2026-04-25T08:00:24.666Z</time></trkpt><trkpt lat="38.014465" lon="15.7759567"><ele>646.0</ele><time>2026-04-25T08:00:25.666Z</time></trkpt><trkpt lat="38.0144117" lon="15.77603"><ele>646.0</ele><time>2026-04-25T08:00:26.666Z</time></trkpt><trkpt lat="38.014335" lon="15.776095"><ele>646.8333333333334</ele><time>2026-04-25T08:00:27.666Z</time></trkpt><trkpt lat="38.0142633" lon="15.77616"><ele>647.6666666666667</ele><time>2026-04-25T08:00:28.667Z</time></trkpt><trkpt lat="38.0142033" lon="15.7762167"><ele>648.5</ele><time>2026-04-25T08:00:29.666Z</time></trkpt><trkpt lat="38.0141367" lon="15.776295"><ele>649.3333333333334</ele><time>2026-04-25T08:00:30.666Z</time></trkpt><trkpt lat="38.0140733" lon="15.7763717"><ele>650.1666666666666</ele><time>2026-04-25T08:00:31.667Z</time></trkpt><trkpt lat="38.0139983" lon="15.7764467"><ele>651.0</ele><time>2026-04-25T08:00:32.667Z</time></trkpt><trkpt lat="38.0139133" lon="15.7765117"><ele>651.0</ele><time>2026-04-25T08:00:33.666Z</time></trkpt><trkpt lat="38.0138417" lon="15.7765717"><ele>651.0</ele><time>2026-04-25T08:00:34.666Z</time></trkpt><trkpt lat="38.013775" lon="15.7766483"><ele>651.0</ele><time>2026-04-25T08:00:35.667Z</time></trkpt><trkpt lat="38.013725" lon="15.7767283"><ele>651.0</ele><time>2026-04-25T08:00:36.666Z</time></trkpt><trkpt lat="38.0136917" lon="15.7768167"><ele>651.0</ele><time>2026-04-25T08:00:37.666Z</time></trkpt><trkpt lat="38.01366" lon="15.7769133"><ele>651.0</ele><time>2026-04-25T08:00:38.666Z</time></trkpt><trkpt lat="38.0136267" lon="15.777035"><ele>653.75</ele><time>2026-04-25T08:00:39.667Z</time></trkpt><trkpt lat="38.0135783" lon="15.7771817"><ele>656.5</ele><time>2026-04-25T08:00:40.666Z</time></trkpt><trkpt lat="38.013535" lon="15.7773433"><ele>659.25</ele><time>2026-04-25T08:00:41.666Z</time></trkpt><trkpt lat="38.0135117" lon="15.777485"><ele>662.0</ele><time>2026-04-25T08:00:42.666Z</time></trkpt><trkpt lat="38.0135" lon="15.7775967"><ele>664.2</ele><time>2026-04-25T08:00:43.666Z</time></trkpt><trkpt lat="38.0135017" lon="15.7776983"><ele>666.4000000000001</ele><time>2026-04-25T08:00:44.666Z</time></trkpt><trkpt lat="38.0135067" lon="15.777805"><ele>668.5999999999999</ele><time>2026-04-25T08:00:45.666Z</time></trkpt><trkpt lat="38.0135083" lon="15.7779367"><ele>670.8</ele><time>2026-04-25T08:00:46.666Z</time></trkpt><trkpt lat="38.0134883" lon="15.7780783"><ele>673.0</ele><time>2026-04-25T08:00:47.666Z</time></trkpt><trkpt lat="38.013465" lon="15.778235"><ele>673.0</ele><time>2026-04-25T08:00:48.667Z</time></trkpt><trkpt lat="38.013455" lon="15.7783633"><ele>673.0</ele><time>2026-04-25T08:00:49.667Z</time></trkpt><trkpt lat="38.0134383" lon="15.7784433"><ele>673.0</ele><time>2026-04-25T08:00:50.666Z</time></trkpt><trkpt lat="38.0133867" lon="15.77851"><ele>673.0</ele><time>2026-04-25T08:00:52.667Z</time></trkpt><trkpt lat="38.0132533" lon="15.77843"><ele>673.0</ele><time>2026-04-25T08:00:54.666Z</time></trkpt><trkpt lat="38.01316" lon="15.77835"><ele>675.2</ele><time>2026-04-25T08:00:55.667Z</time></trkpt><trkpt lat="38.013065" lon="15.77828"><ele>677.4</ele><time>2026-04-25T08:00:56.666Z</time></trkpt><trkpt lat="38.0129767" lon="15.778225"><ele>679.6</ele><time>2026-04-25T08:00:57.666Z</time></trkpt><trkpt lat="38.0128983" lon="15.7781967"><ele>681.8000000000001</ele><time>2026-04-25T08:00:58.666Z</time></trkpt><trkpt lat="38.0128267" lon="15.7781533"><ele>684.0</ele><time>2026-04-25T08:00:59.666Z</time></trkpt><trkpt lat="38.0127633" lon="15.778085"><ele>684.0</ele><time>2026-04-25T08:01:00.666Z</time></trkpt><trkpt lat="38.0127" lon="15.7779867"><ele>684.0</ele><time>2026-04-25T08:01:01.666Z</time></trkpt><trkpt lat="38.0126583" lon="15.777875"><ele>684.0</ele><time>2026-04-25T08:01:02.666Z</time></trkpt><trkpt lat="38.01263" lon="15.7777633"><ele>684.0</ele><time>2026-04-25T08:01:03.666Z</time></trkpt><trkpt lat="38.0126083" lon="15.7776417"><ele>684.0</ele><time>2026-04-25T08:01:04.667Z</time></trkpt><trkpt lat="38.0125767" lon="15.7775383"><ele>684.0</ele><time>2026-04-25T08:01:05.667Z</time></trkpt><trkpt lat="38.012525" lon="15.7774583"><ele>684.0</ele><time>2026-04-25T08:01:06.666Z</time></trkpt><trkpt lat="38.0124517" lon="15.77739"><ele>684.0</ele><time>2026-04-25T08:01:07.666Z</time></trkpt><trkpt lat="38.0123783" lon="15.777335"><ele>684.0</ele><time>2026-04-25T08:01:08.666Z</time></trkpt><trkpt lat="38.0123" lon="15.7772717"><ele>684.0</ele><time>2026-04-25T08:01:09.666Z</time></trkpt><trkpt lat="38.0122233" lon="15.77721"><ele>684.0</ele><time>2026-04-25T08:01:10.666Z</time></trkpt><trkpt lat="38.0121483" lon="15.7771567"><ele>684.0</ele><time>2026-04-25T08:01:11.666Z</time></trkpt><trkpt lat="38.0120783" lon="15.77714"><ele>684.0</ele><time>2026-04-25T08:01:12.667Z</time></trkpt><trkpt lat="38.0120083" lon="15.7771467"><ele>684.0</ele><time>2026-04-25T08:01:13.666Z</time></trkpt><trkpt lat="38.0119333" lon="15.7771767"><ele>684.0</ele><time>2026-04-25T08:01:14.667Z</time></trkpt><trkpt lat="38.01187" lon="15.777225"><ele>684.0</ele><time>2026-04-25T08:01:15.666Z</time></trkpt><trkpt lat="38.0118217" lon="15.7773033"><ele>684.0</ele><time>2026-04-25T08:01:16.666Z</time></trkpt><trkpt lat="38.0117633" lon="15.7774117"><ele>684.0</ele><time>2026-04-25T08:01:17.666Z</time></trkpt><trkpt lat="38.01171" lon="15.7775183"><ele>684.0</ele><time>2026-04-25T08:01:18.666Z</time></trkpt><trkpt lat="38.0116717" lon="15.7776133"><ele>684.0</ele><time>2026-04-25T08:01:19.666Z</time></trkpt><trkpt lat="38.0116667" lon="15.777705"><ele>684.0</ele><time>2026-04-25T08:01:20.667Z</time></trkpt><trkpt lat="38.011685" lon="15.77781"><ele>684.0</ele><time>2026-04-25T08:01:21.667Z</time></trkpt><trkpt lat="38.0117417" lon="15.777925"><ele>684.0</ele><time>2026-04-25T08:01:22.666Z</time></trkpt><trkpt lat="38.01183" lon="15.7780483"><ele>683.0</ele><time>2026-04-25T08:01:23.666Z</time></trkpt><trkpt lat="38.0119233" lon="15.778135"><ele>682.0</ele><time>2026-04-25T08:01:24.667Z</time></trkpt><trkpt lat="38.012035" lon="15.7781983"><ele>681.0</ele><time>2026-04-25T08:01:25.666Z</time></trkpt><trkpt lat="38.012155" lon="15.7782283"><ele>680.0</ele><time>2026-04-25T08:01:26.666Z</time></trkpt><trkpt lat="38.012245" lon="15.77826"><ele>680.0</ele><time>2026-04-25T08:01:27.666Z</time></trkpt><trkpt lat="38.0123167" lon="15.7783233"><ele>680.0</ele><time>2026-04-25T08:01:28.666Z</time></trkpt><trkpt lat="38.0123783" lon="15.7784383"><ele>680.0</ele><time>2026-04-25T08:01:29.666Z</time></trkpt><trkpt lat="38.0124317" lon="15.778605"><ele>680.0</ele><time>2026-04-25T08:01:30.666Z</time></trkpt><trkpt lat="38.012475" lon="15.7787967"><ele>683.25</ele><time>2026-04-25T08:01:31.666Z</time></trkpt><trkpt lat="38.0125067" lon="15.7789767"><ele>686.5</ele><time>2026-04-25T08:01:32.666Z</time></trkpt><trkpt lat="38.01254" lon="15.779125"><ele>689.75</ele><time>2026-04-25T08:01:33.667Z</time></trkpt><trkpt lat="38.012545" lon="15.7792717"><ele>693.0</ele><time>2026-04-25T08:01:34.667Z</time></trkpt><trkpt lat="38.0125483" lon="15.77942"><ele>694.8</ele><time>2026-04-25T08:01:35.666Z</time></trkpt><trkpt lat="38.0125467" lon="15.7795433"><ele>696.5999999999999</ele><time>2026-04-25T08:01:36.667Z</time></trkpt><trkpt lat="38.012535" lon="15.779665"><ele>698.4000000000001</ele><time>2026-04-25T08:01:37.666Z</time></trkpt><trkpt lat="38.012515" lon="15.77979"><ele>700.2</ele><time>2026-04-25T08:01:38.666Z</time></trkpt><trkpt lat="38.01249" lon="15.779925"><ele>702.0</ele><time>2026-04-25T08:01:39.666Z</time></trkpt><trkpt lat="38.0124833" lon="15.7800617"><ele>696.8</ele><time>2026-04-25T08:01:40.666Z</time></trkpt><trkpt lat="38.01247" lon="15.7802133"><ele>691.6</ele><time>2026-04-25T08:01:41.667Z</time></trkpt><trkpt lat="38.01246" lon="15.7803583"><ele>686.4</ele><time>2026-04-25T08:01:42.667Z</time></trkpt><trkpt lat="38.0124567" lon="15.7805033"><ele>681.1999999999999</ele><time>2026-04-25T08:01:43.666Z</time></trkpt><trkpt lat="38.01244" lon="15.7806283"><ele>676.0</ele><time>2026-04-25T08:01:44.667Z</time></trkpt><trkpt lat="38.012415" lon="15.7807617"><ele>676.0</ele><time>2026-04-25T08:01:45.666Z</time></trkpt><trkpt lat="38.0124033" lon="15.7808933"><ele>676.0</ele><time>2026-04-25T08:01:46.666Z</time></trkpt><trkpt lat="38.0124" lon="15.781035"><ele>676.0</ele><time>2026-04-25T08:01:47.666Z</time></trkpt><trkpt lat="38.012385" lon="15.7811883"><ele>676.0</ele><time>2026-04-25T08:01:48.666Z</time></trkpt><trkpt lat="38.0123567" lon="15.78133"><ele>679.0</ele><time>2026-04-25T08:01:49.667Z</time></trkpt><trkpt lat="38.0123267" lon="15.7814333"><ele>682.0</ele><time>2026-04-25T08:01:50.666Z</time></trkpt><trkpt lat="38.0122967" lon="15.78151"><ele>685.0</ele><time>2026-04-25T08:01:51.666Z</time></trkpt><trkpt lat="38.01226" lon="15.7815767"><ele>688.0</ele><time>2026-04-25T08:01:52.666Z</time></trkpt><trkpt lat="38.0122167" lon="15.78165"><ele>691.0</ele><time>2026-04-25T08:01:53.667Z</time></trkpt><trkpt lat="38.012165" lon="15.7817217"><ele>694.0</ele><time>2026-04-25T08:01:54.666Z</time></trkpt><trkpt lat="38.0121017" lon="15.78181"><ele>697.6</ele><time>2026-04-25T08:01:55.666Z</time></trkpt><trkpt lat="38.0120317" lon="15.7818883"><ele>701.2</ele><time>2026-04-25T08:01:56.666Z</time></trkpt><trkpt lat="38.0119583" lon="15.781945"><ele>704.8000000000001</ele><time>2026-04-25T08:01:57.667Z</time></trkpt><trkpt lat="38.01187" lon="15.7820233"><ele>708.4000000000001</ele><time>2026-04-25T08:01:58.666Z</time></trkpt><trkpt lat="38.0118083" lon="15.7820933"><ele>712.0</ele><time>2026-04-25T08:01:59.667Z</time></trkpt><trkpt lat="38.0117533" lon="15.7821767"><ele>712.0</ele><time>2026-04-25T08:02:00.666Z</time></trkpt><trkpt lat="38.011695" lon="15.7822883"><ele>712.0</ele><time>2026-04-25T08:02:01.666Z</time></trkpt><trkpt lat="38.011635" lon="15.7823783"><ele>712.0</ele><time>2026-04-25T08:02:02.667Z</time></trkpt><trkpt lat="38.0115967" lon="15.7824567"><ele>712.0</ele><time>2026-04-25T08:02:03.666Z</time></trkpt><trkpt lat="38.0115983" lon="15.7826167"><ele>712.0</ele><time>2026-04-25T08:02:05.666Z</time></trkpt><trkpt lat="38.0116333" lon="15.7827267"><ele>711.6</ele><time>2026-04-25T08:02:06.666Z</time></trkpt><trkpt lat="38.0116733" lon="15.78286"><ele>711.2</ele><time>2026-04-25T08:02:07.666Z</time></trkpt><trkpt lat="38.0116917" lon="15.7829867"><ele>710.8</ele><time>2026-04-25T08:02:08.667Z</time></trkpt><trkpt lat="38.011675" lon="15.7831167"><ele>710.4</ele><time>2026-04-25T08:02:09.666Z</time></trkpt><trkpt lat="38.0116483" lon="15.78326"><ele>710.0</ele><time>2026-04-25T08:02:10.666Z</time></trkpt><trkpt lat="38.01162" lon="15.7833883"><ele>710.0</ele><time>2026-04-25T08:02:11.667Z</time></trkpt><trkpt lat="38.0115833" lon="15.783485"><ele>710.0</ele><time>2026-04-25T08:02:12.667Z</time></trkpt><trkpt lat="38.011535" lon="15.78358"><ele>710.0</ele><time>2026-04-25T08:02:14.667Z</time></trkpt><trkpt lat="38.0115633" lon="15.7835083"><ele>710.0</ele><time>2026-04-25T08:02:30.666Z</time></trkpt><trkpt lat="38.0115983" lon="15.7834033"><ele>710.0</ele><time>2026-04-25T08:02:31.666Z</time></trkpt><trkpt lat="38.0116383" lon="15.7832767"><ele>710.0</ele><time>2026-04-25T08:02:32.666Z</time></trkpt><trkpt lat="38.0116767" lon="15.7831383"><ele>710.0</ele><time>2026-04-25T08:02:33.666Z</time></trkpt><trkpt lat="38.0117" lon="15.78301"><ele>710.0</ele><time>2026-04-25T08:02:34.666Z</time></trkpt><trkpt lat="38.0117067" lon="15.7828783"><ele>710.0</ele><time>2026-04-25T08:02:35.666Z</time></trkpt><trkpt lat="38.0116933" lon="15.7827367"><ele>710.0</ele><time>2026-04-25T08:02:36.667Z</time></trkpt><trkpt lat="38.01165" lon="15.7826083"><ele>710.0</ele><time>2026-04-25T08:02:37.666Z</time></trkpt><trkpt lat="38.0116117" lon="15.78251"><ele>710.4</ele><time>2026-04-25T08:02:38.667Z</time></trkpt><trkpt lat="38.01161" lon="15.7823717"><ele>710.8</ele><time>2026-04-25T08:02:40.666Z</time></trkpt><trkpt lat="38.0116983" lon="15.7822417"><ele>711.2</ele><time>2026-04-25T08:02:42.666Z</time></trkpt><trkpt lat="38.011755" lon="15.782155"><ele>711.6</ele><time>2026-04-25T08:02:43.666Z</time></trkpt><trkpt lat="38.0118017" lon="15.7820833"><ele>712.0</ele><time>2026-04-25T08:02:44.666Z</time></trkpt><trkpt lat="38.0118517" lon="15.7820267"><ele>712.0</ele><time>2026-04-25T08:02:45.667Z</time></trkpt><trkpt lat="38.0119167" lon="15.78196"><ele>712.0</ele><time>2026-04-25T08:02:46.666Z</time></trkpt><trkpt lat="38.012" lon="15.7818983"><ele>712.0</ele><time>2026-04-25T08:02:47.667Z</time></trkpt><trkpt lat="38.0120783" lon="15.7818267"><ele>712.0</ele><time>2026-04-25T08:02:48.666Z</time></trkpt><trkpt lat="38.0121433" lon="15.78175"><ele>712.0</ele><time>2026-04-25T08:02:49.666Z</time></trkpt><trkpt lat="38.0121967" lon="15.7816833"><ele>712.0</ele><time>2026-04-25T08:02:50.666Z</time></trkpt><trkpt lat="38.0122717" lon="15.7816017"><ele>712.0</ele><time>2026-04-25T08:02:52.666Z</time></trkpt><trkpt lat="38.0123383" lon="15.7816533"><ele>712.0</ele><time>2026-04-25T08:02:57.666Z</time></trkpt><trkpt lat="38.0123633" lon="15.7817583"><ele>712.0</ele><time>2026-04-25T08:02:59.666Z</time></trkpt><trkpt lat="38.0123883" lon="15.781885"><ele>712.0</ele><time>2026-04-25T08:03:01.666Z</time></trkpt><trkpt lat="38.0124017" lon="15.7819667"><ele>712.0</ele><time>2026-04-25T08:03:02.666Z</time></trkpt><trkpt lat="38.0124133" lon="15.7820633"><ele>712.0</ele><time>2026-04-25T08:03:03.666Z</time></trkpt><trkpt lat="38.0124067" lon="15.7821817"><ele>712.0</ele><time>2026-04-25T08:03:04.666Z</time></trkpt><trkpt lat="38.0123833" lon="15.7823167"><ele>712.0</ele><time>2026-04-25T08:03:05.666Z</time></trkpt><trkpt lat="38.0123517" lon="15.78245"><ele>712.0</ele><time>2026-04-25T08:03:06.666Z</time></trkpt><trkpt lat="38.0123267" lon="15.782585"><ele>712.0</ele><time>2026-04-25T08:03:07.666Z</time></trkpt><trkpt lat="38.0123033" lon="15.7827217"><ele>712.0</ele><time>2026-04-25T08:03:08.666Z</time></trkpt><trkpt lat="38.0122767" lon="15.782855"><ele>711.5</ele><time>2026-04-25T08:03:09.666Z</time></trkpt><trkpt lat="38.0122433" lon="15.7829917"><ele>711.0</ele><time>2026-04-25T08:03:10.667Z</time></trkpt><trkpt lat="38.0122" lon="15.7831317"><ele>710.5</ele><time>2026-04-25T08:03:11.666Z</time></trkpt><trkpt lat="38.0121683" lon="15.7832767"><ele>710.0</ele><time>2026-04-25T08:03:12.666Z</time></trkpt><trkpt lat="38.0121367" lon="15.7834133"><ele>708.4</ele><time>2026-04-25T08:03:13.666Z</time></trkpt><trkpt lat="38.0120917" lon="15.78354"><ele>706.8</ele><time>2026-04-25T08:03:14.667Z</time></trkpt><trkpt lat="38.0120483" lon="15.783655"><ele>705.2</ele><time>2026-04-25T08:03:15.666Z</time></trkpt><trkpt lat="38.0120167" lon="15.78376"><ele>703.6</ele><time>2026-04-25T08:03:16.666Z</time></trkpt><trkpt lat="38.0119883" lon="15.7838633"><ele>702.0</ele><time>2026-04-25T08:03:17.666Z</time></trkpt><trkpt lat="38.0119483" lon="15.783965"><ele>702.0</ele><time>2026-04-25T08:03:18.666Z</time></trkpt><trkpt lat="38.0119033" lon="15.7840583"><ele>702.0</ele><time>2026-04-25T08:03:19.666Z</time></trkpt><trkpt lat="38.01187" lon="15.7841367"><ele>702.0</ele><time>2026-04-25T08:03:20.667Z</time></trkpt><trkpt lat="38.011875" lon="15.7842533"><ele>702.0</ele><time>2026-04-25T08:03:22.667Z</time></trkpt><trkpt lat="38.0119483" lon="15.7842517"><ele>702.0</ele><time>2026-04-25T08:03:25.666Z</time></trkpt><trkpt lat="38.0120133" lon="15.7841583"><ele>702.0</ele><time>2026-04-25T08:03:27.667Z</time></trkpt><trkpt lat="38.0120983" lon="15.7840317"><ele>702.0</ele><time>2026-04-25T08:03:29.666Z</time></trkpt><trkpt lat="38.01215" lon="15.7839683"><ele>702.0</ele><time>2026-04-25T08:03:30.667Z</time></trkpt><trkpt lat="38.0122017" lon="15.7839133"><ele>702.0</ele><time>2026-04-25T08:03:31.666Z</time></trkpt><trkpt lat="38.0122667" lon="15.78385"><ele>702.0</ele><time>2026-04-25T08:03:32.666Z</time></trkpt><trkpt lat="38.01234" lon="15.7837883"><ele>702.0</ele><time>2026-04-25T08:03:33.666Z</time></trkpt><trkpt lat="38.0124017" lon="15.7837283"><ele>702.0</ele><time>2026-04-25T08:03:34.667Z</time></trkpt><trkpt lat="38.0124617" lon="15.7836983"><ele>695.0</ele><time>2026-04-25T08:03:35.667Z</time></trkpt><trkpt lat="38.0125517" lon="15.78368"><ele>688.0</ele><time>2026-04-25T08:03:37.666Z</time></trkpt><trkpt lat="38.01264" lon="15.78369"><ele>681.0</ele><time>2026-04-25T08:03:39.667Z</time></trkpt><trkpt lat="38.012705" lon="15.783715"><ele>674.0</ele><time>2026-04-25T08:03:41.666Z</time></trkpt><trkpt lat="38.0127217" lon="15.7838283"><ele>667.0</ele><time>2026-04-25T08:03:44.666Z</time></trkpt><trkpt lat="38.0126533" lon="15.7839617"><ele>667.0</ele><time>2026-04-25T08:03:46.666Z</time></trkpt><trkpt lat="38.012615" lon="15.784035"><ele>667.0</ele><time>2026-04-25T08:03:47.666Z</time></trkpt><trkpt lat="38.0125667" lon="15.78417"><ele>667.0</ele><time>2026-04-25T08:03:49.667Z</time></trkpt><trkpt lat="38.0125367" lon="15.7843133"><ele>667.0</ele><time>2026-04-25T08:03:51.666Z</time></trkpt><trkpt lat="38.0125317" lon="15.7843933"><ele>667.0</ele><time>2026-04-25T08:03:52.666Z</time></trkpt><trkpt lat="38.012535" lon="15.7844767"><ele>667.0</ele><time>2026-04-25T08:03:53.667Z</time></trkpt><trkpt lat="38.0125483" lon="15.78456"><ele>664.6666666666667</ele><time>2026-04-25T08:03:54.666Z</time></trkpt><trkpt lat="38.012515" lon="15.78467"><ele>662.3333333333334</ele><time>2026-04-25T08:03:56.666Z</time></trkpt><trkpt lat="38.012425" lon="15.7847267"><ele>660.0</ele><time>2026-04-25T08:03:58.666Z</time></trkpt><trkpt lat="38.0123833" lon="15.7847883"><ele>657.6666666666666</ele><time>2026-04-25T08:03:59.666Z</time></trkpt><trkpt lat="38.0123567" lon="15.7848817"><ele>655.3333333333333</ele><time>2026-04-25T08:04:00.666Z</time></trkpt><trkpt lat="38.0123483" lon="15.7849883"><ele>653.0</ele><time>2026-04-25T08:04:01.666Z</time></trkpt><trkpt lat="38.0123433" lon="15.7850933"><ele>655.3333333333333</ele><time>2026-04-25T08:04:02.666Z</time></trkpt><trkpt lat="38.0123283" lon="15.7851867"><ele>657.6666666666666</ele><time>2026-04-25T08:04:03.666Z</time></trkpt><trkpt lat="38.0123133" lon="15.78528"><ele>660.0</ele><time>2026-04-25T08:04:04.666Z</time></trkpt><trkpt lat="38.012305" lon="15.7853767"><ele>662.3333333333334</ele><time>2026-04-25T08:04:05.666Z</time></trkpt><trkpt lat="38.012295" lon="15.7854633"><ele>664.6666666666667</ele><time>2026-04-25T08:04:06.666Z</time></trkpt><trkpt lat="38.0122683" lon="15.7856183"><ele>667.0</ele><time>2026-04-25T08:04:08.666Z</time></trkpt><trkpt lat="38.01226" lon="15.7857433"><ele>667.0</ele><time>2026-04-25T08:04:10.667Z</time></trkpt><trkpt lat="38.0122383" lon="15.7858417"><ele>667.0</ele><time>2026-04-25T08:04:12.666Z</time></trkpt><trkpt lat="38.0122317" lon="15.7859383"><ele>667.0</ele><time>2026-04-25T08:04:14.667Z</time></trkpt><trkpt lat="38.0122267" lon="15.7860517"><ele>667.0</ele><time>2026-04-25T08:04:16.666Z</time></trkpt><trkpt lat="38.012295" lon="15.7861033"><ele>667.0</ele><time>2026-04-25T08:04:19.666Z</time></trkpt><trkpt lat="38.0123583" lon="15.7860383"><ele>667.0</ele><time>2026-04-25T08:04:21.666Z</time></trkpt><trkpt lat="38.0124033" lon="15.7859783"><ele>667.0</ele><time>2026-04-25T08:04:23.666Z</time></trkpt><trkpt lat="38.0124633" lon="15.785895"><ele>667.0</ele><time>2026-04-25T08:04:26.666Z</time></trkpt><trkpt lat="38.0124967" lon="15.785805"><ele>667.0</ele><time>2026-04-25T08:04:28.666Z</time></trkpt><trkpt lat="38.0125317" lon="15.7857333"><ele>667.0</ele><time>2026-04-25T08:04:29.666Z</time></trkpt><trkpt lat="38.012595" lon="15.7856533"><ele>667.0</ele><time>2026-04-25T08:04:30.666Z</time></trkpt><trkpt lat="38.0126683" lon="15.78558"><ele>667.0</ele><time>2026-04-25T08:04:31.666Z</time></trkpt><trkpt lat="38.0127467" lon="15.785515"><ele>661.3333333333334</ele><time>2026-04-25T08:04:32.666Z</time></trkpt><trkpt lat="38.0128133" lon="15.7854567"><ele>655.6666666666667</ele><time>2026-04-25T08:04:33.667Z</time></trkpt><trkpt lat="38.01288" lon="15.7854167"><ele>650.0</ele><time>2026-04-25T08:04:34.666Z</time></trkpt><trkpt lat="38.013" lon="15.7854083"><ele>644.3333333333334</ele><time>2026-04-25T08:04:36.666Z</time></trkpt><trkpt lat="38.0130717" lon="15.7853967"><ele>638.6666666666666</ele><time>2026-04-25T08:04:37.666Z</time></trkpt><trkpt lat="38.0131467" lon="15.7853817"><ele>633.0</ele><time>2026-04-25T08:04:38.666Z</time></trkpt><trkpt lat="38.0132217" lon="15.785355"><ele>633.0</ele><time>2026-04-25T08:04:39.666Z</time></trkpt><trkpt lat="38.0132933" lon="15.785305"><ele>633.0</ele><time>2026-04-25T08:04:40.667Z</time></trkpt><trkpt lat="38.013365" lon="15.7852283"><ele>633.0</ele><time>2026-04-25T08:04:41.667Z</time></trkpt><trkpt lat="38.0134433" lon="15.78514"><ele>633.0</ele><time>2026-04-25T08:04:42.666Z</time></trkpt><trkpt lat="38.013515" lon="15.7850567"><ele>633.0</ele><time>2026-04-25T08:04:43.666Z</time></trkpt><trkpt lat="38.0135817" lon="15.7849883"><ele>631.3333333333334</ele><time>2026-04-25T08:04:44.667Z</time></trkpt><trkpt lat="38.0136333" lon="15.7849217"><ele>629.6666666666666</ele><time>2026-04-25T08:04:45.666Z</time></trkpt><trkpt lat="38.0136867" lon="15.7847833"><ele>628.0</ele><time>2026-04-25T08:04:47.666Z</time></trkpt><trkpt lat="38.0137117" lon="15.7847067"><ele>626.3333333333333</ele><time>2026-04-25T08:04:48.666Z</time></trkpt><trkpt lat="38.0137433" lon="15.7846267"><ele>624.6666666666666</ele><time>2026-04-25T08:04:49.667Z</time></trkpt><trkpt lat="38.0137833" lon="15.784525"><ele>623.0</ele><time>2026-04-25T08:04:50.667Z</time></trkpt><trkpt lat="38.0138233" lon="15.7844333"><ele>623.0</ele><time>2026-04-25T08:04:51.666Z</time></trkpt><trkpt lat="38.0138767" lon="15.7843717"><ele>623.0</ele><time>2026-04-25T08:04:52.667Z</time></trkpt><trkpt lat="38.013945" lon="15.7843317"><ele>623.0</ele><time>2026-04-25T08:04:53.667Z</time></trkpt><trkpt lat="38.0140133" lon="15.7843167"><ele>623.0</ele><time>2026-04-25T08:04:54.666Z</time></trkpt><trkpt lat="38.0140733" lon="15.7843733"><ele>623.0</ele><time>2026-04-25T08:04:56.666Z</time></trkpt><trkpt lat="38.01408" lon="15.78453"><ele>623.0</ele><time>2026-04-25T08:04:58.666Z</time></trkpt><trkpt lat="38.0140617" lon="15.7846417"><ele>623.0</ele><time>2026-04-25T08:04:59.666Z</time></trkpt><trkpt lat="38.0140333" lon="15.7847533"><ele>623.0</ele><time>2026-04-25T08:05:00.667Z</time></trkpt><trkpt lat="38.0140067" lon="15.7848617"><ele>623.0</ele><time>2026-04-25T08:05:01.666Z</time></trkpt><trkpt lat="38.014005" lon="15.7849617"><ele>623.0</ele><time>2026-04-25T08:05:02.666Z</time></trkpt><trkpt lat="38.0139967" lon="15.7850567"><ele>623.0</ele><time>2026-04-25T08:05:03.667Z</time></trkpt><trkpt lat="38.0139933" lon="15.78515"><ele>623.0</ele><time>2026-04-25T08:05:04.667Z</time></trkpt><trkpt lat="38.014" lon="15.785255"><ele>620.3333333333333</ele><time>2026-04-25T08:05:05.666Z</time></trkpt><trkpt lat="38.014005" lon="15.7853633"><ele>617.6666666666666</ele><time>2026-04-25T08:05:06.666Z</time></trkpt><trkpt lat="38.01401" lon="15.785485"><ele>615.0</ele><time>2026-04-25T08:05:07.666Z</time></trkpt><trkpt lat="38.0140083" lon="15.785595"><ele>612.3333333333334</ele><time>2026-04-25T08:05:08.666Z</time></trkpt><trkpt lat="38.014015" lon="15.7857"><ele>609.6666666666667</ele><time>2026-04-25T08:05:09.666Z</time></trkpt><trkpt lat="38.01403" lon="15.7858033"><ele>607.0</ele><time>2026-04-25T08:05:10.667Z</time></trkpt><trkpt lat="38.014035" lon="15.78591"><ele>604.8333333333334</ele><time>2026-04-25T08:05:11.666Z</time></trkpt><trkpt lat="38.014055" lon="15.7860233"><ele>602.6666666666667</ele><time>2026-04-25T08:05:12.666Z</time></trkpt><trkpt lat="38.0140583" lon="15.7861483"><ele>600.5</ele><time>2026-04-25T08:05:13.666Z</time></trkpt><trkpt lat="38.01406" lon="15.7862583"><ele>598.3333333333334</ele><time>2026-04-25T08:05:14.666Z</time></trkpt><trkpt lat="38.0140617" lon="15.7863467"><ele>596.1666666666666</ele><time>2026-04-25T08:05:15.667Z</time></trkpt><trkpt lat="38.014065" lon="15.78643"><ele>594.0</ele><time>2026-04-25T08:05:16.666Z</time></trkpt><trkpt lat="38.0140483" lon="15.7865683"><ele>594.0</ele><time>2026-04-25T08:05:18.666Z</time></trkpt><trkpt lat="38.0139833" lon="15.7866967"><ele>594.0</ele><time>2026-04-25T08:05:20.666Z</time></trkpt><trkpt lat="38.0139533" lon="15.7867817"><ele>594.0</ele><time>2026-04-25T08:05:21.667Z</time></trkpt><trkpt lat="38.0139383" lon="15.786895"><ele>594.0</ele><time>2026-04-25T08:05:22.666Z</time></trkpt><trkpt lat="38.0139233" lon="15.78701"><ele>594.0</ele><time>2026-04-25T08:05:23.666Z</time></trkpt><trkpt lat="38.0139067" lon="15.787115"><ele>592.0</ele><time>2026-04-25T08:05:24.666Z</time></trkpt><trkpt lat="38.013885" lon="15.7872083"><ele>590.0</ele><time>2026-04-25T08:05:25.666Z</time></trkpt><trkpt lat="38.0138767" lon="15.7872983"><ele>588.0</ele><time>2026-04-25T08:05:26.666Z</time></trkpt><trkpt lat="38.0138683" lon="15.7874017"><ele>586.0</ele><time>2026-04-25T08:05:28.666Z</time></trkpt><trkpt lat="38.0138617" lon="15.7874983"><ele>584.0</ele><time>2026-04-25T08:05:31.666Z</time></trkpt><trkpt lat="38.01387" lon="15.7876383"><ele>582.0</ele><time>2026-04-25T08:05:33.666Z</time></trkpt><trkpt lat="38.0138717" lon="15.7877383"><ele>581.0</ele><time>2026-04-25T08:05:34.666Z</time></trkpt><trkpt lat="38.0138733" lon="15.787825"><ele>580.0</ele><time>2026-04-25T08:05:35.666Z</time></trkpt><trkpt lat="38.0138683" lon="15.78796"><ele>579.0</ele><time>2026-04-25T08:05:37.666Z</time></trkpt><trkpt lat="38.01384" lon="15.7881167"><ele>578.0</ele><time>2026-04-25T08:05:39.666Z</time></trkpt><trkpt lat="38.013825" lon="15.7881967"><ele>577.0</ele><time>2026-04-25T08:05:40.666Z</time></trkpt><trkpt lat="38.013795" lon="15.7883267"><ele>577.0</ele><time>2026-04-25T08:05:42.666Z</time></trkpt><trkpt lat="38.013795" lon="15.7884817"><ele>577.0</ele><time>2026-04-25T08:05:44.666Z</time></trkpt><trkpt lat="38.0137983" lon="15.7885633"><ele>577.0</ele><time>2026-04-25T08:05:45.666Z</time></trkpt><trkpt lat="38.0138017" lon="15.7886467"><ele>577.0</ele><time>2026-04-25T08:05:46.666Z</time></trkpt><trkpt lat="38.0138017" lon="15.7887267"><ele>577.0</ele><time>2026-04-25T08:05:47.666Z</time></trkpt><trkpt lat="38.0137983" lon="15.7888067"><ele>577.0</ele><time>2026-04-25T08:05:48.666Z</time></trkpt><trkpt lat="38.0137883" lon="15.78895"><ele>575.8000000000001</ele><time>2026-04-25T08:05:50.666Z</time></trkpt><trkpt lat="38.0137783" lon="15.7891017"><ele>574.6</ele><time>2026-04-25T08:05:52.666Z</time></trkpt><trkpt lat="38.0137767" lon="15.7891817"><ele>573.4000000000001</ele><time>2026-04-25T08:05:53.666Z</time></trkpt><trkpt lat="38.013785" lon="15.7893317"><ele>572.2</ele><time>2026-04-25T08:05:55.666Z</time></trkpt><trkpt lat="38.0138033" lon="15.7894617"><ele>571.0</ele><time>2026-04-25T08:05:57.666Z</time></trkpt><trkpt lat="38.0138" lon="15.7896083"><ele>569.5</ele><time>2026-04-25T08:05:59.667Z</time></trkpt><trkpt lat="38.0138117" lon="15.7897533"><ele>568.0</ele><time>2026-04-25T08:06:01.666Z</time></trkpt><trkpt lat="38.0138283" lon="15.7898383"><ele>566.5</ele><time>2026-04-25T08:06:02.667Z</time></trkpt><trkpt lat="38.0138383" lon="15.7899283"><ele>565.0</ele><time>2026-04-25T08:06:03.666Z</time></trkpt><trkpt lat="38.0138583" lon="15.7900233"><ele>563.5</ele><time>2026-04-25T08:06:04.666Z</time></trkpt><trkpt lat="38.013865" lon="15.7901283"><ele>562.0</ele><time>2026-04-25T08:06:05.666Z</time></trkpt><trkpt lat="38.013865" lon="15.7902467"><ele>560.25</ele><time>2026-04-25T08:06:06.666Z</time></trkpt><trkpt lat="38.013855" lon="15.7903783"><ele>558.5</ele><time>2026-04-25T08:06:07.666Z</time></trkpt><trkpt lat="38.01385" lon="15.7905283"><ele>556.75</ele><time>2026-04-25T08:06:08.667Z</time></trkpt><trkpt lat="38.01385" lon="15.7906833"><ele>555.0</ele><time>2026-04-25T08:06:09.666Z</time></trkpt><trkpt lat="38.01386" lon="15.7908317"><ele>555.0</ele><time>2026-04-25T08:06:10.666Z</time></trkpt><trkpt lat="38.0138683" lon="15.7909717"><ele>555.0</ele><time>2026-04-25T08:06:11.666Z</time></trkpt><trkpt lat="38.0138567" lon="15.79109"><ele>555.0</ele><time>2026-04-25T08:06:12.667Z</time></trkpt><trkpt lat="38.01385" lon="15.7911833"><ele>555.0</ele><time>2026-04-25T08:06:13.666Z</time></trkpt><trkpt lat="38.0138867" lon="15.7913467"><ele>555.0</ele><time>2026-04-25T08:06:15.666Z</time></trkpt><trkpt lat="38.0139233" lon="15.79146"><ele>554.2</ele><time>2026-04-25T08:06:16.666Z</time></trkpt><trkpt lat="38.01396" lon="15.7915933"><ele>553.4</ele><time>2026-04-25T08:06:17.666Z</time></trkpt><trkpt lat="38.0139867" lon="15.7917267"><ele>552.6</ele><time>2026-04-25T08:06:18.666Z</time></trkpt><trkpt lat="38.0140083" lon="15.7918517"><ele>551.8</ele><time>2026-04-25T08:06:19.666Z</time></trkpt><trkpt lat="38.0140333" lon="15.7919667"><ele>551.0</ele><time>2026-04-25T08:06:20.666Z</time></trkpt><trkpt lat="38.01404" lon="15.7920917"><ele>549.6</ele><time>2026-04-25T08:06:21.666Z</time></trkpt><trkpt lat="38.0140317" lon="15.7922267"><ele>548.2</ele><time>2026-04-25T08:06:22.666Z</time></trkpt><trkpt lat="38.0140217" lon="15.7923467"><ele>546.8</ele><time>2026-04-25T08:06:23.666Z</time></trkpt><trkpt lat="38.0140067" lon="15.7924583"><ele>545.4</ele><time>2026-04-25T08:06:24.666Z</time></trkpt><trkpt lat="38.014" lon="15.7925667"><ele>544.0</ele><time>2026-04-25T08:06:25.666Z</time></trkpt><trkpt lat="38.013995" lon="15.7927017"><ele>543.0</ele><time>2026-04-25T08:06:26.667Z</time></trkpt><trkpt lat="38.0139867" lon="15.7928283"><ele>542.0</ele><time>2026-04-25T08:06:27.666Z</time></trkpt><trkpt lat="38.0139733" lon="15.792945"><ele>541.0</ele><time>2026-04-25T08:06:28.666Z</time></trkpt><trkpt lat="38.0139683" lon="15.7930433"><ele>540.0</ele><time>2026-04-25T08:06:29.666Z</time></trkpt><trkpt lat="38.0139633" lon="15.7931367"><ele>539.0</ele><time>2026-04-25T08:06:30.666Z</time></trkpt><trkpt lat="38.01396" lon="15.7932333"><ele>538.0</ele><time>2026-04-25T08:06:31.666Z</time></trkpt><trkpt lat="38.0139617" lon="15.793315"><ele>538.0</ele><time>2026-04-25T08:06:32.666Z</time></trkpt><trkpt lat="38.013975" lon="15.7934033"><ele>538.0</ele><time>2026-04-25T08:06:33.666Z</time></trkpt><trkpt lat="38.0140067" lon="15.7935017"><ele>538.0</ele><time>2026-04-25T08:06:34.666Z</time></trkpt><trkpt lat="38.0140417" lon="15.7936117"><ele>538.0</ele><time>2026-04-25T08:06:35.666Z</time></trkpt><trkpt lat="38.0140883" lon="15.7937217"><ele>538.0</ele><time>2026-04-25T08:06:36.667Z</time></trkpt><trkpt lat="38.0141233" lon="15.7938283"><ele>538.0</ele><time>2026-04-25T08:06:37.666Z</time></trkpt><trkpt lat="38.0141517" lon="15.7939367"><ele>535.8333333333334</ele><time>2026-04-25T08:06:38.666Z</time></trkpt><trkpt lat="38.0141683" lon="15.79404"><ele>533.6666666666667</ele><time>2026-04-25T08:06:39.667Z</time></trkpt><trkpt lat="38.0141717" lon="15.79413"><ele>531.5</ele><time>2026-04-25T08:06:40.666Z</time></trkpt><trkpt lat="38.0141717" lon="15.7942283"><ele>529.3333333333334</ele><time>2026-04-25T08:06:41.666Z</time></trkpt><trkpt lat="38.0141717" lon="15.7943267"><ele>527.1666666666666</ele><time>2026-04-25T08:06:42.666Z</time></trkpt><trkpt lat="38.014175" lon="15.7944283"><ele>525.0</ele><time>2026-04-25T08:06:43.666Z</time></trkpt><trkpt lat="38.014175" lon="15.7945233"><ele>524.2</ele><time>2026-04-25T08:06:44.666Z</time></trkpt><trkpt lat="38.0141733" lon="15.7946333"><ele>523.4</ele><time>2026-04-25T08:06:45.666Z</time></trkpt><trkpt lat="38.0141767" lon="15.7947517"><ele>522.6</ele><time>2026-04-25T08:06:46.666Z</time></trkpt><trkpt lat="38.01419" lon="15.7948717"><ele>521.8</ele><time>2026-04-25T08:06:47.666Z</time></trkpt><trkpt lat="38.0142067" lon="15.79501"><ele>521.0</ele><time>2026-04-25T08:06:48.666Z</time></trkpt><trkpt lat="38.014215" lon="15.7951583"><ele>520.6666666666666</ele><time>2026-04-25T08:06:49.666Z</time></trkpt><trkpt lat="38.0142383" lon="15.7952917"><ele>520.3333333333333</ele><time>2026-04-25T08:06:50.666Z</time></trkpt><trkpt lat="38.0142583" lon="15.7954"><ele>520.0</ele><time>2026-04-25T08:06:51.666Z</time></trkpt><trkpt lat="38.014275" lon="15.7954883"><ele>519.6666666666666</ele><time>2026-04-25T08:06:52.666Z</time></trkpt><trkpt lat="38.0142817" lon="15.7955717"><ele>519.3333333333334</ele><time>2026-04-25T08:06:53.667Z</time></trkpt><trkpt lat="38.0142967" lon="15.79566"><ele>519.0</ele><time>2026-04-25T08:06:54.666Z</time></trkpt><trkpt lat="38.0143033" lon="15.795755"><ele>519.0</ele><time>2026-04-25T08:06:55.666Z</time></trkpt><trkpt lat="38.01431" lon="15.7958467"><ele>519.0</ele><time>2026-04-25T08:06:56.666Z</time></trkpt><trkpt lat="38.0142883" lon="15.7959783"><ele>519.0</ele><time>2026-04-25T08:06:58.666Z</time></trkpt><trkpt lat="38.014215" lon="15.79611"><ele>519.0</ele><time>2026-04-25T08:07:00.666Z</time></trkpt><trkpt lat="38.0141783" lon="15.796215"><ele>519.0</ele><time>2026-04-25T08:07:02.666Z</time></trkpt><trkpt lat="38.0142117" lon="15.7963817"><ele>519.6</ele><time>2026-04-25T08:07:04.666Z</time></trkpt><trkpt lat="38.0142583" lon="15.7965117"><ele>520.2</ele><time>2026-04-25T08:07:05.667Z</time></trkpt><trkpt lat="38.0143117" lon="15.7966517"><ele>520.8000000000001</ele><time>2026-04-25T08:07:06.667Z</time></trkpt><trkpt lat="38.0143533" lon="15.7967667"><ele>521.4</ele><time>2026-04-25T08:07:07.666Z</time></trkpt><trkpt lat="38.0143867" lon="15.796845"><ele>522.0</ele><time>2026-04-25T08:07:08.666Z</time></trkpt><trkpt lat="38.0144233" lon="15.7969217"><ele>523.0</ele><time>2026-04-25T08:07:09.666Z</time></trkpt><trkpt lat="38.0144583" lon="15.796995"><ele>524.0</ele><time>2026-04-25T08:07:10.666Z</time></trkpt><trkpt lat="38.0145017" lon="15.7970567"><ele>525.0</ele><time>2026-04-25T08:07:11.667Z</time></trkpt><trkpt lat="38.0145483" lon="15.7971117"><ele>526.0</ele><time>2026-04-25T08:07:12.667Z</time></trkpt><trkpt lat="38.0145967" lon="15.7971633"><ele>527.0</ele><time>2026-04-25T08:07:13.666Z</time></trkpt><trkpt lat="38.0146483" lon="15.7972133"><ele>528.0</ele><time>2026-04-25T08:07:14.666Z</time></trkpt><trkpt lat="38.0147067" lon="15.7972583"><ele>529.0</ele><time>2026-04-25T08:07:15.666Z</time></trkpt><trkpt lat="38.0147733" lon="15.7972967"><ele>529.0</ele><time>2026-04-25T08:07:16.666Z</time></trkpt><trkpt lat="38.0148417" lon="15.7973267"><ele>529.0</ele><time>2026-04-25T08:07:17.666Z</time></trkpt><trkpt lat="38.014905" lon="15.7973533"><ele>529.0</ele><time>2026-04-25T08:07:18.666Z</time></trkpt><trkpt lat="38.01497" lon="15.79739"><ele>529.0</ele><time>2026-04-25T08:07:19.666Z</time></trkpt><trkpt lat="38.0150583" lon="15.79748"><ele>529.0</ele><time>2026-04-25T08:07:21.667Z</time></trkpt><trkpt lat="38.01513" lon="15.7975967"><ele>529.0</ele><time>2026-04-25T08:07:23.667Z</time></trkpt><trkpt lat="38.0152033" lon="15.7976917"><ele>524.6</ele><time>2026-04-25T08:07:25.666Z</time></trkpt><trkpt lat="38.01529" lon="15.7977783"><ele>520.2</ele><time>2026-04-25T08:07:27.666Z</time></trkpt><trkpt lat="38.0153717" lon="15.7978767"><ele>515.8000000000001</ele><time>2026-04-25T08:07:29.666Z</time></trkpt><trkpt lat="38.0154467" lon="15.797985"><ele>511.40000000000003</ele><time>2026-04-25T08:07:31.666Z</time></trkpt><trkpt lat="38.015505" lon="15.798105"><ele>507.0</ele><time>2026-04-25T08:07:33.667Z</time></trkpt><trkpt lat="38.01553" lon="15.7982033"><ele>507.0</ele><time>2026-04-25T08:07:34.666Z</time></trkpt><trkpt lat="38.0155583" lon="15.7983233"><ele>507.0</ele><time>2026-04-25T08:07:35.666Z</time></trkpt><trkpt lat="38.015595" lon="15.7984417"><ele>507.0</ele><time>2026-04-25T08:07:36.666Z</time></trkpt><trkpt lat="38.0156367" lon="15.79854"><ele>507.0</ele><time>2026-04-25T08:07:37.666Z</time></trkpt><trkpt lat="38.01568" lon="15.798625"><ele>507.0</ele><time>2026-04-25T08:07:38.666Z</time></trkpt><trkpt lat="38.0157283" lon="15.79869"><ele>507.0</ele><time>2026-04-25T08:07:39.666Z</time></trkpt><trkpt lat="38.01577" lon="15.7987533"><ele>505.1666666666667</ele><time>2026-04-25T08:07:40.666Z</time></trkpt><trkpt lat="38.015805" lon="15.79882"><ele>503.33333333333337</ele><time>2026-04-25T08:07:41.666Z</time></trkpt><trkpt lat="38.0158467" lon="15.79889"><ele>501.5</ele><time>2026-04-25T08:07:42.666Z</time></trkpt><trkpt lat="38.0158933" lon="15.79897"><ele>499.6666666666667</ele><time>2026-04-25T08:07:43.666Z</time></trkpt><trkpt lat="38.0159583" lon="15.7990617"><ele>497.83333333333337</ele><time>2026-04-25T08:07:44.666Z</time></trkpt><trkpt lat="38.01603" lon="15.799155"><ele>496.0</ele><time>2026-04-25T08:07:45.666Z</time></trkpt><trkpt lat="38.0161" lon="15.7992383"><ele>496.0</ele><time>2026-04-25T08:07:46.667Z</time></trkpt><trkpt lat="38.0161817" lon="15.7993067"><ele>496.0</ele><time>2026-04-25T08:07:47.666Z</time></trkpt><trkpt lat="38.016275" lon="15.7993767"><ele>496.0</ele><time>2026-04-25T08:07:48.666Z</time></trkpt><trkpt lat="38.0163667" lon="15.7994367"><ele>496.0</ele><time>2026-04-25T08:07:49.666Z</time></trkpt><trkpt lat="38.0164583" lon="15.79949"><ele>496.0</ele><time>2026-04-25T08:07:50.666Z</time></trkpt><trkpt lat="38.0165517" lon="15.7995317"><ele>495.50000000000006</ele><time>2026-04-25T08:07:51.666Z</time></trkpt><trkpt lat="38.0166467" lon="15.7995683"><ele>495.0</ele><time>2026-04-25T08:07:52.667Z</time></trkpt><trkpt lat="38.0167383" lon="15.7996033"><ele>494.5</ele><time>2026-04-25T08:07:53.666Z</time></trkpt><trkpt lat="38.0168267" lon="15.799645"><ele>494.0</ele><time>2026-04-25T08:07:54.666Z</time></trkpt><trkpt lat="38.0168983" lon="15.7996883"><ele>493.50000000000006</ele><time>2026-04-25T08:07:55.666Z</time></trkpt><trkpt lat="38.0169583" lon="15.79975"><ele>493.0</ele><time>2026-04-25T08:07:56.667Z</time></trkpt><trkpt lat="38.017025" lon="15.7998233"><ele>493.0</ele><time>2026-04-25T08:07:57.666Z</time></trkpt><trkpt lat="38.0171183" lon="15.7999117"><ele>493.0</ele><time>2026-04-25T08:07:58.667Z</time></trkpt><trkpt lat="38.0172433" lon="15.8000017"><ele>493.0</ele><time>2026-04-25T08:07:59.667Z</time></trkpt><trkpt lat="38.0173633" lon="15.8000867"><ele>493.0</ele><time>2026-04-25T08:08:00.666Z</time></trkpt><trkpt lat="38.017445" lon="15.80018"><ele>490.4</ele><time>2026-04-25T08:08:01.667Z</time></trkpt><trkpt lat="38.0175233" lon="15.80029"><ele>487.79999999999995</ele><time>2026-04-25T08:08:02.666Z</time></trkpt><trkpt lat="38.0176083" lon="15.8003733"><ele>485.2</ele><time>2026-04-25T08:08:03.667Z</time></trkpt><trkpt lat="38.0176717" lon="15.8004367"><ele>482.6</ele><time>2026-04-25T08:08:04.667Z</time></trkpt><trkpt lat="38.0177533" lon="15.8005267"><ele>480.0</ele><time>2026-04-25T08:08:06.666Z</time></trkpt><trkpt lat="38.0178233" lon="15.8006267"><ele>480.0</ele><time>2026-04-25T08:08:08.666Z</time></trkpt><trkpt lat="38.0178583" lon="15.8006967"><ele>480.0</ele><time>2026-04-25T08:08:09.666Z</time></trkpt><trkpt lat="38.01792" lon="15.8008133"><ele>480.0</ele><time>2026-04-25T08:08:11.666Z</time></trkpt><trkpt lat="38.0180033" lon="15.8009067"><ele>480.0</ele><time>2026-04-25T08:08:13.666Z</time></trkpt><trkpt lat="38.0180617" lon="15.8009517"><ele>480.0</ele><time>2026-04-25T08:08:14.667Z</time></trkpt><trkpt lat="38.0181283" lon="15.80101"><ele>480.0</ele><time>2026-04-25T08:08:15.666Z</time></trkpt><trkpt lat="38.01819" lon="15.80107"><ele>478.0</ele><time>2026-04-25T08:08:16.666Z</time></trkpt><trkpt lat="38.0182467" lon="15.8011183"><ele>476.0</ele><time>2026-04-25T08:08:17.666Z</time></trkpt><trkpt lat="38.01836" lon="15.801195"><ele>474.0</ele><time>2026-04-25T08:08:19.666Z</time></trkpt><trkpt lat="38.0184467" lon="15.8012617"><ele>472.0</ele><time>2026-04-25T08:08:21.666Z</time></trkpt><trkpt lat="38.0185383" lon="15.8013383"><ele>470.0</ele><time>2026-04-25T08:08:23.666Z</time></trkpt><trkpt lat="38.018595" lon="15.80139"><ele>470.0</ele><time>2026-04-25T08:08:24.667Z</time></trkpt><trkpt lat="38.0187" lon="15.801495"><ele>470.0</ele><time>2026-04-25T08:08:26.666Z</time></trkpt><trkpt lat="38.0187683" lon="15.8015783"><ele>470.0</ele><time>2026-04-25T08:08:27.666Z</time></trkpt><trkpt lat="38.0188367" lon="15.8016717"><ele>470.0</ele><time>2026-04-25T08:08:28.666Z</time></trkpt><trkpt lat="38.0188867" lon="15.8017583"><ele>470.0</ele><time>2026-04-25T08:08:29.666Z</time></trkpt><trkpt lat="38.0189317" lon="15.8018417"><ele>469.2</ele><time>2026-04-25T08:08:30.666Z</time></trkpt><trkpt lat="38.018995" lon="15.80195"><ele>468.4</ele><time>2026-04-25T08:08:32.667Z</time></trkpt><trkpt lat="38.0190783" lon="15.80205"><ele>467.6</ele><time>2026-04-25T08:08:34.666Z</time></trkpt><trkpt lat="38.01914" lon="15.8021333"><ele>466.8</ele><time>2026-04-25T08:08:35.666Z</time></trkpt><trkpt lat="38.0192083" lon="15.8022133"><ele>466.0</ele><time>2026-04-25T08:08:36.666Z</time></trkpt><trkpt lat="38.01926" lon="15.80228"><ele>466.0</ele><time>2026-04-25T08:08:37.666Z</time></trkpt><trkpt lat="38.0193133" lon="15.8023233"><ele>466.0</ele><time>2026-04-25T08:08:38.666Z</time></trkpt><trkpt lat="38.0194033" lon="15.802375"><ele>466.0</ele><time>2026-04-25T08:08:40.666Z</time></trkpt><trkpt lat="38.0195167" lon="15.8024083"><ele>466.0</ele><time>2026-04-25T08:08:42.666Z</time></trkpt><trkpt lat="38.01961" lon="15.8024983"><ele>466.0</ele><time>2026-04-25T08:08:44.667Z</time></trkpt><trkpt lat="38.0196533" lon="15.802565"><ele>466.00000000000006</ele><time>2026-04-25T08:08:45.666Z</time></trkpt><trkpt lat="38.019695" lon="15.8026333"><ele>466.0</ele><time>2026-04-25T08:08:46.667Z</time></trkpt><trkpt lat="38.0197717" lon="15.8027183"><ele>466.0</ele><time>2026-04-25T08:08:48.667Z</time></trkpt><trkpt lat="38.01983" lon="15.802795"><ele>466.0</ele><time>2026-04-25T08:08:50.666Z</time></trkpt><trkpt lat="38.0198917" lon="15.8028783"><ele>466.00000000000006</ele><time>2026-04-25T08:08:52.666Z</time></trkpt><trkpt lat="38.01998" lon="15.8029483"><ele>466.0</ele><time>2026-04-25T08:08:54.666Z</time></trkpt><trkpt lat="38.020055" lon="15.8030183"><ele>462.6</ele><time>2026-04-25T08:08:55.666Z</time></trkpt><trkpt lat="38.02014" lon="15.8030983"><ele>459.20000000000005</ele><time>2026-04-25T08:08:56.667Z</time></trkpt><trkpt lat="38.0202167" lon="15.803165"><ele>455.79999999999995</ele><time>2026-04-25T08:08:57.666Z</time></trkpt><trkpt lat="38.0202933" lon="15.80326"><ele>452.4</ele><time>2026-04-25T08:08:59.666Z</time></trkpt><trkpt lat="38.0203367" lon="15.8033467"><ele>449.0</ele><time>2026-04-25T08:09:01.666Z</time></trkpt><trkpt lat="38.0203817" lon="15.8034317"><ele>448.16666666666663</ele><time>2026-04-25T08:09:03.666Z</time></trkpt><trkpt lat="38.020415" lon="15.80351"><ele>447.3333333333333</ele><time>2026-04-25T08:09:05.666Z</time></trkpt><trkpt lat="38.0204567" lon="15.8036067"><ele>446.5</ele><time>2026-04-25T08:09:08.667Z</time></trkpt><trkpt lat="38.0204567" lon="15.8036917"><ele>445.66666666666663</ele><time>2026-04-25T08:09:10.667Z</time></trkpt><trkpt lat="38.0204867" lon="15.8037733"><ele>444.8333333333333</ele><time>2026-04-25T08:09:14.666Z</time></trkpt><trkpt lat="38.0205633" lon="15.8037267"><ele>444.0</ele><time>2026-04-25T08:09:17.666Z</time></trkpt><trkpt lat="38.020655" lon="15.803645"><ele>444.0</ele><time>2026-04-25T08:11:29.666Z</time></trkpt><trkpt lat="38.020735" lon="15.8035317"><ele>444.0</ele><time>2026-04-25T08:11:31.666Z</time></trkpt><trkpt lat="38.0207883" lon="15.8033967"><ele>444.0</ele><time>2026-04-25T08:11:33.667Z</time></trkpt><trkpt lat="38.0208183" lon="15.8032783"><ele>444.0</ele><time>2026-04-25T08:11:35.666Z</time></trkpt><trkpt lat="38.02085" lon="15.8031583"><ele>444.0</ele><time>2026-04-25T08:11:37.666Z</time></trkpt><trkpt lat="38.0208867" lon="15.8030883"><ele>445.6</ele><time>2026-04-25T08:11:38.667Z</time></trkpt><trkpt lat="38.0209267" lon="15.802995"><ele>447.2</ele><time>2026-04-25T08:11:39.666Z</time></trkpt><trkpt lat="38.0209783" lon="15.8029067"><ele>448.80000000000007</ele><time>2026-04-25T08:11:40.667Z</time></trkpt><trkpt lat="38.0210433" lon="15.8028417"><ele>450.40000000000003</ele><time>2026-04-25T08:11:41.666Z</time></trkpt><trkpt lat="38.0211267" lon="15.8027833"><ele>452.0</ele><time>2026-04-25T08:11:42.666Z</time></trkpt><trkpt lat="38.0212217" lon="15.80273"><ele>452.0</ele><time>2026-04-25T08:11:43.667Z</time></trkpt><trkpt lat="38.0212933" lon="15.8026783"><ele>452.00000000000006</ele><time>2026-04-25T08:11:44.667Z</time></trkpt><trkpt lat="38.021355" lon="15.80259"><ele>452.00000000000006</ele><time>2026-04-25T08:11:45.666Z</time></trkpt><trkpt lat="38.0214083" lon="15.8024817"><ele>452.0</ele><time>2026-04-25T08:11:46.666Z</time></trkpt><trkpt lat="38.021475" lon="15.8023767"><ele>452.0</ele><time>2026-04-25T08:11:47.667Z</time></trkpt><trkpt lat="38.02155" lon="15.8022817"><ele>452.6</ele><time>2026-04-25T08:11:48.667Z</time></trkpt><trkpt lat="38.0216367" lon="15.8022033"><ele>453.20000000000005</ele><time>2026-04-25T08:11:49.666Z</time></trkpt><trkpt lat="38.0217233" lon="15.80215"><ele>453.8</ele><time>2026-04-25T08:11:50.666Z</time></trkpt><trkpt lat="38.0218217" lon="15.8021033"><ele>454.4</ele><time>2026-04-25T08:11:51.666Z</time></trkpt><trkpt lat="38.0219283" lon="15.802075"><ele>455.0</ele><time>2026-04-25T08:11:52.666Z</time></trkpt><trkpt lat="38.0220617" lon="15.8020517"><ele>456.0</ele><time>2026-04-25T08:11:53.666Z</time></trkpt><trkpt lat="38.0222083" lon="15.80202"><ele>457.0</ele><time>2026-04-25T08:11:54.666Z</time></trkpt><trkpt lat="38.0223617" lon="15.8019767"><ele>458.0</ele><time>2026-04-25T08:11:55.666Z</time></trkpt><trkpt lat="38.022505" lon="15.8019233"><ele>460.5</ele><time>2026-04-25T08:11:56.667Z</time></trkpt><trkpt lat="38.0226333" lon="15.8018567"><ele>463.0</ele><time>2026-04-25T08:11:57.667Z</time></trkpt><trkpt lat="38.0227667" lon="15.801795"><ele>465.5</ele><time>2026-04-25T08:11:58.666Z</time></trkpt><trkpt lat="38.0229133" lon="15.80174"><ele>468.0</ele><time>2026-04-25T08:11:59.666Z</time></trkpt><trkpt lat="38.023085" lon="15.801685"><ele>468.0</ele><time>2026-04-25T08:12:00.667Z</time></trkpt><trkpt lat="38.023255" lon="15.8016267"><ele>468.0</ele><time>2026-04-25T08:12:01.667Z</time></trkpt><trkpt lat="38.02342" lon="15.8015633"><ele>468.0</ele><time>2026-04-25T08:12:02.666Z</time></trkpt><trkpt lat="38.0235633" lon="15.8015017"><ele>469.75</ele><time>2026-04-25T08:12:03.667Z</time></trkpt><trkpt lat="38.0236933" lon="15.8014433"><ele>471.5</ele><time>2026-04-25T08:12:04.666Z</time></trkpt><trkpt lat="38.02381" lon="15.8014067"><ele>473.25</ele><time>2026-04-25T08:12:05.666Z</time></trkpt><trkpt lat="38.02392" lon="15.801375"><ele>475.0</ele><time>2026-04-25T08:12:06.666Z</time></trkpt><trkpt lat="38.0240217" lon="15.8013383"><ele>475.00000000000006</ele><time>2026-04-25T08:12:07.667Z</time></trkpt><trkpt lat="38.0241067" lon="15.8012917"><ele>475.0</ele><time>2026-04-25T08:12:08.666Z</time></trkpt><trkpt lat="38.02418" lon="15.80125"><ele>475.0</ele><time>2026-04-25T08:12:09.666Z</time></trkpt><trkpt lat="38.0242517" lon="15.8012233"><ele>475.0</ele><time>2026-04-25T08:12:10.666Z</time></trkpt><trkpt lat="38.02433" lon="15.8012033"><ele>475.00000000000006</ele><time>2026-04-25T08:12:11.666Z</time></trkpt><trkpt lat="38.0244017" lon="15.801185"><ele>475.0</ele><time>2026-04-25T08:12:12.666Z</time></trkpt><trkpt lat="38.024475" lon="15.8011583"><ele>476.1666666666667</ele><time>2026-04-25T08:12:13.666Z</time></trkpt><trkpt lat="38.024535" lon="15.8011167"><ele>477.33333333333337</ele><time>2026-04-25T08:12:14.666Z</time></trkpt><trkpt lat="38.0245933" lon="15.80107"><ele>478.5</ele><time>2026-04-25T08:12:15.666Z</time></trkpt><trkpt lat="38.0246483" lon="15.8010283"><ele>479.66666666666663</ele><time>2026-04-25T08:12:16.666Z</time></trkpt><trkpt lat="38.024755" lon="15.800985"><ele>480.8333333333333</ele><time>2026-04-25T08:12:18.666Z</time></trkpt><trkpt lat="38.024845" lon="15.801"><ele>482.0</ele><time>2026-04-25T08:12:20.666Z</time></trkpt><trkpt lat="38.0249267" lon="15.8010667"><ele>484.0</ele><time>2026-04-25T08:12:22.666Z</time></trkpt><trkpt lat="38.02504" lon="15.80112"><ele>486.00000000000006</ele><time>2026-04-25T08:12:24.667Z</time></trkpt><trkpt lat="38.0251083" lon="15.80115"><ele>488.00000000000006</ele><time>2026-04-25T08:12:25.666Z</time></trkpt><trkpt lat="38.0251883" lon="15.8011617"><ele>490.0</ele><time>2026-04-25T08:12:26.666Z</time></trkpt><trkpt lat="38.0252733" lon="15.8011567"><ele>492.0</ele><time>2026-04-25T08:12:27.666Z</time></trkpt><trkpt lat="38.0253617" lon="15.8011283"><ele>492.0</ele><time>2026-04-25T08:12:28.667Z</time></trkpt><trkpt lat="38.0254567" lon="15.8010933"><ele>492.00000000000006</ele><time>2026-04-25T08:12:29.667Z</time></trkpt><trkpt lat="38.0255583" lon="15.8010883"><ele>492.00000000000006</ele><time>2026-04-25T08:12:30.666Z</time></trkpt><trkpt lat="38.0256567" lon="15.8011033"><ele>492.0</ele><time>2026-04-25T08:12:31.667Z</time></trkpt><trkpt lat="38.0257417" lon="15.8011217"><ele>492.0</ele><time>2026-04-25T08:12:32.667Z</time></trkpt><trkpt lat="38.0258217" lon="15.8011217"><ele>492.6</ele><time>2026-04-25T08:12:33.667Z</time></trkpt><trkpt lat="38.0259067" lon="15.8011067"><ele>493.20000000000005</ele><time>2026-04-25T08:12:34.666Z</time></trkpt><trkpt lat="38.0259917" lon="15.8010833"><ele>493.8</ele><time>2026-04-25T08:12:35.666Z</time></trkpt><trkpt lat="38.026095" lon="15.8010567"><ele>494.4</ele><time>2026-04-25T08:12:36.666Z</time></trkpt><trkpt lat="38.02621" lon="15.801025"><ele>495.0</ele><time>2026-04-25T08:12:37.666Z</time></trkpt><trkpt lat="38.0263117" lon="15.8009767"><ele>495.0</ele><time>2026-04-25T08:12:38.666Z</time></trkpt><trkpt lat="38.02641" lon="15.8009233"><ele>495.0</ele><time>2026-04-25T08:12:39.666Z</time></trkpt><trkpt lat="38.0265017" lon="15.800875"><ele>495.0</ele><time>2026-04-25T08:12:40.666Z</time></trkpt><trkpt lat="38.0266" lon="15.8008317"><ele>495.0</ele><time>2026-04-25T08:12:41.666Z</time></trkpt><trkpt lat="38.0267067" lon="15.8007883"><ele>495.0</ele><time>2026-04-25T08:12:42.666Z</time></trkpt><trkpt lat="38.02681" lon="15.8007433"><ele>497.8</ele><time>2026-04-25T08:12:43.666Z</time></trkpt><trkpt lat="38.0269117" lon="15.8006767"><ele>500.6</ele><time>2026-04-25T08:12:44.667Z</time></trkpt><trkpt lat="38.027005" lon="15.800605"><ele>503.4</ele><time>2026-04-25T08:12:45.666Z</time></trkpt><trkpt lat="38.027095" lon="15.80055"><ele>506.2</ele><time>2026-04-25T08:12:46.666Z</time></trkpt><trkpt lat="38.02719" lon="15.800475"><ele>509.0</ele><time>2026-04-25T08:12:47.666Z</time></trkpt><trkpt lat="38.0272933" lon="15.8004"><ele>509.0</ele><time>2026-04-25T08:12:48.666Z</time></trkpt><trkpt lat="38.0273933" lon="15.8003183"><ele>509.0</ele><time>2026-04-25T08:12:49.667Z</time></trkpt><trkpt lat="38.0274983" lon="15.8002467"><ele>509.0</ele><time>2026-04-25T08:12:50.667Z</time></trkpt><trkpt lat="38.0275967" lon="15.800175"><ele>509.0</ele><time>2026-04-25T08:12:51.666Z</time></trkpt><trkpt lat="38.0277133" lon="15.8001"><ele>509.4</ele><time>2026-04-25T08:12:52.666Z</time></trkpt><trkpt lat="38.0278267" lon="15.8000283"><ele>509.79999999999995</ele><time>2026-04-25T08:12:53.666Z</time></trkpt><trkpt lat="38.0279333" lon="15.799965"><ele>510.20000000000005</ele><time>2026-04-25T08:12:54.666Z</time></trkpt><trkpt lat="38.028005" lon="15.7998867"><ele>510.6</ele><time>2026-04-25T08:12:55.666Z</time></trkpt><trkpt lat="38.0280683" lon="15.799795"><ele>511.0</ele><time>2026-04-25T08:12:56.667Z</time></trkpt><trkpt lat="38.0281333" lon="15.799705"><ele>511.0</ele><time>2026-04-25T08:12:57.666Z</time></trkpt><trkpt lat="38.0282083" lon="15.7996033"><ele>511.0</ele><time>2026-04-25T08:12:58.667Z</time></trkpt><trkpt lat="38.028285" lon="15.7994983"><ele>511.0</ele><time>2026-04-25T08:12:59.666Z</time></trkpt><trkpt lat="38.02836" lon="15.799395"><ele>511.0</ele><time>2026-04-25T08:13:00.666Z</time></trkpt><trkpt lat="38.0284467" lon="15.7992917"><ele>513.0</ele><time>2026-04-25T08:13:01.666Z</time></trkpt><trkpt lat="38.0285433" lon="15.79919"><ele>515.0</ele><time>2026-04-25T08:13:02.666Z</time></trkpt><trkpt lat="38.0286633" lon="15.7990833"><ele>517.0</ele><time>2026-04-25T08:13:03.666Z</time></trkpt><trkpt lat="38.0287883" lon="15.798995"><ele>519.0</ele><time>2026-04-25T08:13:04.666Z</time></trkpt><trkpt lat="38.0289267" lon="15.7989317"><ele>519.0</ele><time>2026-04-25T08:13:05.666Z</time></trkpt><trkpt lat="38.02906" lon="15.798895"><ele>519.0</ele><time>2026-04-25T08:13:06.666Z</time></trkpt><trkpt lat="38.029195" lon="15.7988617"><ele>519.0</ele><time>2026-04-25T08:13:07.667Z</time></trkpt><trkpt lat="38.0293033" lon="15.798845"><ele>519.0</ele><time>2026-04-25T08:13:08.667Z</time></trkpt><trkpt lat="38.0293967" lon="15.7988383"><ele>521.5</ele><time>2026-04-25T08:13:09.666Z</time></trkpt><trkpt lat="38.0294833" lon="15.7988383"><ele>524.0</ele><time>2026-04-25T08:13:10.666Z</time></trkpt><trkpt lat="38.02957" lon="15.79884"><ele>526.5</ele><time>2026-04-25T08:13:11.666Z</time></trkpt><trkpt lat="38.02965" lon="15.79884"><ele>529.0</ele><time>2026-04-25T08:13:12.666Z</time></trkpt><trkpt lat="38.0297367" lon="15.7988367"><ele>531.5</ele><time>2026-04-25T08:13:13.666Z</time></trkpt><trkpt lat="38.0298383" lon="15.7988233"><ele>534.0</ele><time>2026-04-25T08:13:14.666Z</time></trkpt><trkpt lat="38.02994" lon="15.7988183"><ele>538.75</ele><time>2026-04-25T08:13:15.666Z</time></trkpt><trkpt lat="38.0300383" lon="15.798825"><ele>543.5</ele><time>2026-04-25T08:13:16.666Z</time></trkpt><trkpt lat="38.03017" lon="15.798915"><ele>548.25</ele><time>2026-04-25T08:13:18.667Z</time></trkpt><trkpt lat="38.0302633" lon="15.7989517"><ele>553.0</ele><time>2026-04-25T08:13:19.667Z</time></trkpt><trkpt lat="38.0303783" lon="15.799"><ele>553.0</ele><time>2026-04-25T08:13:20.666Z</time></trkpt><trkpt lat="38.0305" lon="15.79905"><ele>553.0</ele><time>2026-04-25T08:13:21.666Z</time></trkpt><trkpt lat="38.030625" lon="15.7991033"><ele>553.0</ele><time>2026-04-25T08:13:22.667Z</time></trkpt><trkpt lat="38.0307583" lon="15.7991483"><ele>553.0</ele><time>2026-04-25T08:13:23.666Z</time></trkpt><trkpt lat="38.0308733" lon="15.7991683"><ele>556.0</ele><time>2026-04-25T08:13:24.666Z</time></trkpt><trkpt lat="38.030975" lon="15.799185"><ele>559.0</ele><time>2026-04-25T08:13:25.666Z</time></trkpt><trkpt lat="38.031055" lon="15.7991833"><ele>562.0</ele><time>2026-04-25T08:13:26.666Z</time></trkpt><trkpt lat="38.0311367" lon="15.7991667"><ele>565.0</ele><time>2026-04-25T08:13:27.666Z</time></trkpt><trkpt lat="38.031235" lon="15.7991283"><ele>568.0</ele><time>2026-04-25T08:13:28.667Z</time></trkpt><trkpt lat="38.0313567" lon="15.7990933"><ele>568.0</ele><time>2026-04-25T08:13:29.666Z</time></trkpt><trkpt lat="38.03152" lon="15.7990733"><ele>568.0</ele><time>2026-04-25T08:13:30.666Z</time></trkpt><trkpt lat="38.0316717" lon="15.7990533"><ele>568.0</ele><time>2026-04-25T08:13:31.667Z</time></trkpt><trkpt lat="38.0317933" lon="15.799035"><ele>568.0</ele><time>2026-04-25T08:13:32.666Z</time></trkpt><trkpt lat="38.0318833" lon="15.7990183"><ele>569.0</ele><time>2026-04-25T08:13:33.666Z</time></trkpt><trkpt lat="38.0319617" lon="15.7990183"><ele>570.0</ele><time>2026-04-25T08:13:34.666Z</time></trkpt><trkpt lat="38.0320367" lon="15.7990417"><ele>571.0</ele><time>2026-04-25T08:13:35.666Z</time></trkpt><trkpt lat="38.03211" lon="15.7990933"><ele>572.0</ele><time>2026-04-25T08:13:36.667Z</time></trkpt><trkpt lat="38.0321833" lon="15.79913"><ele>573.0</ele><time>2026-04-25T08:13:37.666Z</time></trkpt><trkpt lat="38.0322517" lon="15.799145"><ele>574.0</ele><time>2026-04-25T08:13:38.666Z</time></trkpt><trkpt lat="38.0323167" lon="15.7991367"><ele>574.0</ele><time>2026-04-25T08:13:39.666Z</time></trkpt><trkpt lat="38.0324067" lon="15.799135"><ele>574.0</ele><time>2026-04-25T08:13:40.666Z</time></trkpt><trkpt lat="38.0325133" lon="15.799135"><ele>574.0</ele><time>2026-04-25T08:13:41.666Z</time></trkpt><trkpt lat="38.0326333" lon="15.7991267"><ele>574.0</ele><time>2026-04-25T08:13:42.666Z</time></trkpt><trkpt lat="38.0327517" lon="15.799115"><ele>574.0</ele><time>2026-04-25T08:13:43.666Z</time></trkpt><trkpt lat="38.0328717" lon="15.799095"><ele>576.5</ele><time>2026-04-25T08:13:44.666Z</time></trkpt><trkpt lat="38.0329967" lon="15.7990683"><ele>579.0</ele><time>2026-04-25T08:13:45.666Z</time></trkpt><trkpt lat="38.03313" lon="15.799045"><ele>581.5</ele><time>2026-04-25T08:13:46.666Z</time></trkpt><trkpt lat="38.0332717" lon="15.7989983"><ele>584.0</ele><time>2026-04-25T08:13:47.666Z</time></trkpt><trkpt lat="38.0334133" lon="15.798965"><ele>586.2</ele><time>2026-04-25T08:13:48.666Z</time></trkpt><trkpt lat="38.0335383" lon="15.79894"><ele>588.4</ele><time>2026-04-25T08:13:49.666Z</time></trkpt><trkpt lat="38.033645" lon="15.798905"><ele>590.6</ele><time>2026-04-25T08:13:50.666Z</time></trkpt><trkpt lat="38.03371" lon="15.79887"><ele>592.8</ele><time>2026-04-25T08:13:51.666Z</time></trkpt><trkpt lat="38.0337717" lon="15.7988117"><ele>595.0</ele><time>2026-04-25T08:13:52.666Z</time></trkpt><trkpt lat="38.0338417" lon="15.79875"><ele>595.0</ele><time>2026-04-25T08:13:53.666Z</time></trkpt><trkpt lat="38.0339167" lon="15.7987083"><ele>595.0</ele><time>2026-04-25T08:13:54.666Z</time></trkpt><trkpt lat="38.0340083" lon="15.798685"><ele>595.0</ele><time>2026-04-25T08:13:55.666Z</time></trkpt><trkpt lat="38.0341217" lon="15.7986817"><ele>595.0</ele><time>2026-04-25T08:13:56.666Z</time></trkpt><trkpt lat="38.0342517" lon="15.798705"><ele>595.0</ele><time>2026-04-25T08:13:57.666Z</time></trkpt><trkpt lat="38.0343817" lon="15.79872"><ele>597.75</ele><time>2026-04-25T08:13:58.666Z</time></trkpt><trkpt lat="38.0345183" lon="15.798705"><ele>600.5</ele><time>2026-04-25T08:13:59.666Z</time></trkpt><trkpt lat="38.0346433" lon="15.798705"><ele>603.25</ele><time>2026-04-25T08:14:00.667Z</time></trkpt><trkpt lat="38.034775" lon="15.798695"><ele>606.0</ele><time>2026-04-25T08:14:01.666Z</time></trkpt><trkpt lat="38.0349" lon="15.7986833"><ele>608.5</ele><time>2026-04-25T08:14:02.666Z</time></trkpt><trkpt lat="38.0350233" lon="15.7986467"><ele>611.0</ele><time>2026-04-25T08:14:03.667Z</time></trkpt><trkpt lat="38.0351583" lon="15.7986"><ele>613.5</ele><time>2026-04-25T08:14:04.666Z</time></trkpt><trkpt lat="38.035265" lon="15.79855"><ele>616.0</ele><time>2026-04-25T08:14:05.667Z</time></trkpt><trkpt lat="38.03538" lon="15.7984867"><ele>612.5</ele><time>2026-04-25T08:14:06.667Z</time></trkpt><trkpt lat="38.035485" lon="15.798435"><ele>609.0</ele><time>2026-04-25T08:14:07.666Z</time></trkpt><trkpt lat="38.0355983" lon="15.7983733"><ele>605.5</ele><time>2026-04-25T08:14:08.666Z</time></trkpt><trkpt lat="38.0357117" lon="15.7983133"><ele>602.0</ele><time>2026-04-25T08:14:09.666Z</time></trkpt><trkpt lat="38.0358217" lon="15.7982667"><ele>602.0</ele><time>2026-04-25T08:14:10.666Z</time></trkpt><trkpt lat="38.0359433" lon="15.7981983"><ele>602.0</ele><time>2026-04-25T08:14:11.666Z</time></trkpt><trkpt lat="38.0360667" lon="15.7981333"><ele>602.0</ele><time>2026-04-25T08:14:12.667Z</time></trkpt><trkpt lat="38.0361733" lon="15.7980683"><ele>602.0</ele><time>2026-04-25T08:14:13.666Z</time></trkpt><trkpt lat="38.0362817" lon="15.798015"><ele>602.0</ele><time>2026-04-25T08:14:14.666Z</time></trkpt><trkpt lat="38.036395" lon="15.7979717"><ele>602.0</ele><time>2026-04-25T08:14:15.666Z</time></trkpt><trkpt lat="38.0365217" lon="15.7979317"><ele>602.0</ele><time>2026-04-25T08:14:16.667Z</time></trkpt><trkpt lat="38.03665" lon="15.797885"><ele>602.0</ele><time>2026-04-25T08:14:17.666Z</time></trkpt><trkpt lat="38.036785" lon="15.797835"><ele>602.0</ele><time>2026-04-25T08:14:18.667Z</time></trkpt><trkpt lat="38.0369067" lon="15.7977767"><ele>602.0</ele><time>2026-04-25T08:14:19.666Z</time></trkpt><trkpt lat="38.03701" lon="15.797705"><ele>602.0</ele><time>2026-04-25T08:14:20.666Z</time></trkpt><trkpt lat="38.0371167" lon="15.7976383"><ele>602.0</ele><time>2026-04-25T08:14:21.666Z</time></trkpt><trkpt lat="38.03721" lon="15.7975867"><ele>602.0</ele><time>2026-04-25T08:14:22.667Z</time></trkpt><trkpt lat="38.0372883" lon="15.7975217"><ele>602.0</ele><time>2026-04-25T08:14:23.666Z</time></trkpt><trkpt lat="38.03737" lon="15.79745"><ele>602.0</ele><time>2026-04-25T08:14:24.666Z</time></trkpt><trkpt lat="38.0374583" lon="15.7973817"><ele>602.0</ele><time>2026-04-25T08:14:25.667Z</time></trkpt><trkpt lat="38.03756" lon="15.79733"><ele>602.0</ele><time>2026-04-25T08:14:26.666Z</time></trkpt><trkpt lat="38.0376683" lon="15.7972783"><ele>604.8000000000001</ele><time>2026-04-25T08:14:27.666Z</time></trkpt><trkpt lat="38.0377783" lon="15.7972317"><ele>607.6</ele><time>2026-04-25T08:14:28.666Z</time></trkpt><trkpt lat="38.0378833" lon="15.7972"><ele>610.4000000000001</ele><time>2026-04-25T08:14:29.667Z</time></trkpt><trkpt lat="38.0380033" lon="15.7971717"><ele>613.2</ele><time>2026-04-25T08:14:30.666Z</time></trkpt><trkpt lat="38.0381" lon="15.79716"><ele>616.0</ele><time>2026-04-25T08:14:31.667Z</time></trkpt><trkpt lat="38.0381833" lon="15.7971433"><ele>616.0</ele><time>2026-04-25T08:14:32.666Z</time></trkpt><trkpt lat="38.0382783" lon="15.7971367"><ele>616.0</ele><time>2026-04-25T08:14:34.666Z</time></trkpt><trkpt lat="38.0383567" lon="15.797115"><ele>616.0</ele><time>2026-04-25T08:14:48.667Z</time></trkpt><trkpt lat="38.03847" lon="15.7971"><ele>616.0</ele><time>2026-04-25T08:14:50.666Z</time></trkpt><trkpt lat="38.03854" lon="15.7970967"><ele>616.0</ele><time>2026-04-25T08:14:51.667Z</time></trkpt><trkpt lat="38.03861" lon="15.7970917"><ele>616.0</ele><time>2026-04-25T08:14:52.666Z</time></trkpt><trkpt lat="38.0386833" lon="15.7971083"><ele>618.0</ele><time>2026-04-25T08:14:53.666Z</time></trkpt><trkpt lat="38.0387617" lon="15.7971383"><ele>620.0</ele><time>2026-04-25T08:14:54.666Z</time></trkpt><trkpt lat="38.0388583" lon="15.7971617"><ele>622.0</ele><time>2026-04-25T08:14:55.666Z</time></trkpt><trkpt lat="38.03896" lon="15.797185"><ele>624.0</ele><time>2026-04-25T08:14:56.666Z</time></trkpt><trkpt lat="38.0390583" lon="15.7972117"><ele>626.0</ele><time>2026-04-25T08:14:57.666Z</time></trkpt><trkpt lat="38.03915" lon="15.7972333"><ele>627.3333333333333</ele><time>2026-04-25T08:14:58.667Z</time></trkpt><trkpt lat="38.039235" lon="15.797245"><ele>628.6666666666666</ele><time>2026-04-25T08:14:59.666Z</time></trkpt><trkpt lat="38.0392983" lon="15.7972633"><ele>630.0</ele><time>2026-04-25T08:15:00.666Z</time></trkpt><trkpt lat="38.039375" lon="15.7973533"><ele>631.3333333333334</ele><time>2026-04-25T08:15:02.666Z</time></trkpt><trkpt lat="38.0394017" lon="15.7974317"><ele>632.6666666666667</ele><time>2026-04-25T08:15:03.666Z</time></trkpt><trkpt lat="38.03943" lon="15.7975233"><ele>634.0</ele><time>2026-04-25T08:15:04.666Z</time></trkpt><trkpt lat="38.0394583" lon="15.7976233"><ele>635.1666666666667</ele><time>2026-04-25T08:15:05.666Z</time></trkpt><trkpt lat="38.0394933" lon="15.797725"><ele>636.3333333333334</ele><time>2026-04-25T08:15:06.666Z</time></trkpt><trkpt lat="38.0395333" lon="15.7978333"><ele>637.5</ele><time>2026-04-25T08:15:07.666Z</time></trkpt><trkpt lat="38.039565" lon="15.7979267"><ele>638.6666666666666</ele><time>2026-04-25T08:15:08.666Z</time></trkpt><trkpt lat="38.0396083" lon="15.7980083"><ele>639.8333333333333</ele><time>2026-04-25T08:15:09.666Z</time></trkpt><trkpt lat="38.039645" lon="15.798075"><ele>641.0</ele><time>2026-04-25T08:15:10.666Z</time></trkpt><trkpt lat="38.03968" lon="15.7981483"><ele>641.0</ele><time>2026-04-25T08:15:11.666Z</time></trkpt><trkpt lat="38.0397133" lon="15.7982267"><ele>641.0</ele><time>2026-04-25T08:15:12.667Z</time></trkpt><trkpt lat="38.0397583" lon="15.7983383"><ele>641.0</ele><time>2026-04-25T08:15:14.666Z</time></trkpt><trkpt lat="38.039825" lon="15.798385"><ele>641.0</ele><time>2026-04-25T08:15:17.666Z</time></trkpt><trkpt lat="38.0398817" lon="15.7983317"><ele>641.0</ele><time>2026-04-25T08:15:19.666Z</time></trkpt><trkpt lat="38.0399767" lon="15.7982733"><ele>641.0</ele><time>2026-04-25T08:15:21.667Z</time></trkpt><trkpt lat="38.0401083" lon="15.79823"><ele>643.8</ele><time>2026-04-25T08:15:23.666Z</time></trkpt><trkpt lat="38.0401933" lon="15.7982133"><ele>646.5999999999999</ele><time>2026-04-25T08:15:24.666Z</time></trkpt><trkpt lat="38.0402817" lon="15.7981933"><ele>649.4</ele><time>2026-04-25T08:15:25.666Z</time></trkpt><trkpt lat="38.04038" lon="15.7981533"><ele>652.2</ele><time>2026-04-25T08:15:26.666Z</time></trkpt><trkpt lat="38.040475" lon="15.7981167"><ele>655.0</ele><time>2026-04-25T08:15:27.667Z</time></trkpt><trkpt lat="38.0405717" lon="15.7980867"><ele>655.0</ele><time>2026-04-25T08:15:28.666Z</time></trkpt><trkpt lat="38.0406717" lon="15.798055"><ele>655.0</ele><time>2026-04-25T08:15:29.666Z</time></trkpt><trkpt lat="38.04076" lon="15.7980083"><ele>655.0</ele><time>2026-04-25T08:15:30.666Z</time></trkpt><trkpt lat="38.040845" lon="15.7979867"><ele>655.0</ele><time>2026-04-25T08:15:31.666Z</time></trkpt><trkpt lat="38.0409367" lon="15.7979417"><ele>655.0</ele><time>2026-04-25T08:15:32.666Z</time></trkpt><trkpt lat="38.041015" lon="15.7978983"><ele>659.8</ele><time>2026-04-25T08:15:33.667Z</time></trkpt><trkpt lat="38.0410983" lon="15.7978633"><ele>664.6</ele><time>2026-04-25T08:15:34.666Z</time></trkpt><trkpt lat="38.04119" lon="15.7978217"><ele>669.4000000000001</ele><time>2026-04-25T08:15:35.666Z</time></trkpt><trkpt lat="38.04127" lon="15.7977967"><ele>674.2</ele><time>2026-04-25T08:15:36.666Z</time></trkpt><trkpt lat="38.04136" lon="15.7977583"><ele>679.0</ele><time>2026-04-25T08:15:37.666Z</time></trkpt><trkpt lat="38.0414483" lon="15.7977333"><ele>679.0</ele><time>2026-04-25T08:15:38.666Z</time></trkpt><trkpt lat="38.0415183" lon="15.7977183"><ele>679.0</ele><time>2026-04-25T08:15:39.667Z</time></trkpt><trkpt lat="38.0415917" lon="15.7977483"><ele>679.0</ele><time>2026-04-25T08:15:41.666Z</time></trkpt><trkpt lat="38.041685" lon="15.7977567"><ele>679.0</ele><time>2026-04-25T08:15:43.666Z</time></trkpt><trkpt lat="38.0416067" lon="15.7978017"><ele>679.0</ele><time>2026-04-25T08:15:48.666Z</time></trkpt><trkpt lat="38.0415333" lon="15.7978383"><ele>679.0</ele><time>2026-04-25T08:15:49.667Z</time></trkpt><trkpt lat="38.0414567" lon="15.79789"><ele>679.0</ele><time>2026-04-25T08:15:50.666Z</time></trkpt><trkpt lat="38.041385" lon="15.7979683"><ele>679.0</ele><time>2026-04-25T08:15:51.666Z</time></trkpt><trkpt lat="38.0413117" lon="15.7980533"><ele>679.0</ele><time>2026-04-25T08:15:52.666Z</time></trkpt><trkpt lat="38.0412433" lon="15.7981433"><ele>679.0</ele><time>2026-04-25T08:15:53.666Z</time></trkpt><trkpt lat="38.0411933" lon="15.79822"><ele>679.0</ele><time>2026-04-25T08:15:54.667Z</time></trkpt><trkpt lat="38.04117" lon="15.7983267"><ele>679.0</ele><time>2026-04-25T08:15:56.666Z</time></trkpt><trkpt lat="38.0412567" lon="15.7983983"><ele>679.0</ele><time>2026-04-25T08:15:58.666Z</time></trkpt><trkpt lat="38.0413217" lon="15.7984367"><ele>679.0</ele><time>2026-04-25T08:15:59.666Z</time></trkpt><trkpt lat="38.0413883" lon="15.798475"><ele>679.0</ele><time>2026-04-25T08:16:00.667Z</time></trkpt><trkpt lat="38.0414467" lon="15.7985167"><ele>679.0</ele><time>2026-04-25T08:16:01.666Z</time></trkpt><trkpt lat="38.04154" lon="15.79858"><ele>679.0</ele><time>2026-04-25T08:16:03.666Z</time></trkpt><trkpt lat="38.04162" lon="15.7986617"><ele>679.0</ele><time>2026-04-25T08:16:05.666Z</time></trkpt><trkpt lat="38.0417017" lon="15.79876"><ele>679.0</ele><time>2026-04-25T08:16:07.666Z</time></trkpt><trkpt lat="38.04136" lon="15.7977583"><ele>679.0</ele><time>2026-04-25T08:15:37.666Z</time></trkpt><trkpt lat="38.0414483" lon="15.7977333"><ele>679.0</ele><time>2026-04-25T08:15:38.666Z</time></trkpt><trkpt lat="38.0415183" lon="15.7977183"><ele>679.0</ele><time>2026-04-25T08:15:39.667Z</time></trkpt><trkpt lat="38.0415917" lon="15.7977483"><ele>679.0</ele><time>2026-04-25T08:15:41.666Z</time></trkpt><trkpt lat="38.041685" lon="15.7977567"><ele>679.0</ele><time>2026-04-25T08:15:43.666Z</time></trkpt><trkpt lat="38.0416067" lon="15.7978017"><ele>679.0</ele><time>2026-04-25T08:15:48.666Z</time></trkpt><trkpt lat="38.0415333" lon="15.7978383"><ele>679.0</ele><time>2026-04-25T08:15:49.667Z</time></trkpt><trkpt lat="38.0414567" lon="15.79789"><ele>679.0</ele><time>2026-04-25T08:15:50.666Z</time></trkpt><trkpt lat="38.041385" lon="15.7979683"><ele>679.0</ele><time>2026-04-25T08:15:51.666Z</time></trkpt><trkpt lat="38.0413117" lon="15.7980533"><ele>679.0</ele><time>2026-04-25T08:15:52.666Z</time></trkpt><trkpt lat="38.0412433" lon="15.7981433"><ele>679.0</ele><time>2026-04-25T08:15:53.666Z</time></trkpt><trkpt lat="38.0411933" lon="15.79822"><ele>679.0</ele><time>2026-04-25T08:15:54.667Z</time></trkpt><trkpt lat="38.04117" lon="15.7983267"><ele>679.0</ele><time>2026-04-25T08:15:56.666Z</time></trkpt><trkpt lat="38.0412567" lon="15.7983983"><ele>679.0</ele><time>2026-04-25T08:15:58.666Z</time></trkpt><trkpt lat="38.0413217" lon="15.7984367"><ele>679.0</ele><time>2026-04-25T08:15:59.666Z</time></trkpt><trkpt lat="38.0413883" lon="15.798475"><ele>679.0</ele><time>2026-04-25T08:16:00.667Z</time></trkpt><trkpt lat="38.0414467" lon="15.7985167"><ele>679.0</ele><time>2026-04-25T08:16:01.666Z</time></trkpt><trkpt lat="38.04154" lon="15.79858"><ele>678.0</ele><time>2026-04-25T08:16:03.666Z</time></trkpt><trkpt lat="38.04162" lon="15.7986617"><ele>677.0</ele><time>2026-04-25T08:16:05.666Z</time></trkpt><trkpt lat="38.0417017" lon="15.79876"><ele>676.0</ele><time>2026-04-25T08:16:07.666Z</time></trkpt><trkpt lat="38.0417533" lon="15.7988067"><ele>675.0</ele><time>2026-04-25T08:16:08.667Z</time></trkpt><trkpt lat="38.0418083" lon="15.7989333"><ele>674.0</ele><time>2026-04-25T08:16:10.666Z</time></trkpt><trkpt lat="38.0418317" lon="15.7990217"><ele>678.7142857142858</ele><time>2026-04-25T08:16:11.666Z</time></trkpt><trkpt lat="38.0418583" lon="15.7990983"><ele>683.4285714285714</ele><time>2026-04-25T08:16:12.666Z</time></trkpt><trkpt lat="38.0418867" lon="15.7991767"><ele>688.1428571428571</ele><time>2026-04-25T08:16:13.666Z</time></trkpt><trkpt lat="38.0419083" lon="15.7992617"><ele>692.8571428571429</ele><time>2026-04-25T08:16:14.666Z</time></trkpt><trkpt lat="38.0419367" lon="15.7993567"><ele>697.5714285714286</ele><time>2026-04-25T08:16:15.666Z</time></trkpt><trkpt lat="38.04197" lon="15.7994533"><ele>702.2857142857143</ele><time>2026-04-25T08:16:16.666Z</time></trkpt><trkpt lat="38.0420033" lon="15.7995417"><ele>707.0</ele><time>2026-04-25T08:16:17.666Z</time></trkpt><trkpt lat="38.0420667" lon="15.7996367"><ele>707.0</ele><time>2026-04-25T08:16:19.666Z</time></trkpt><trkpt lat="38.04211" lon="15.799555"><ele>707.0</ele><time>2026-04-25T08:16:22.666Z</time></trkpt><trkpt lat="38.042095" lon="15.7994767"><ele>707.0</ele><time>2026-04-25T08:16:23.666Z</time></trkpt><trkpt lat="38.04207" lon="15.7993733"><ele>707.0</ele><time>2026-04-25T08:16:24.666Z</time></trkpt><trkpt lat="38.0420617" lon="15.7992583"><ele>707.0</ele><time>2026-04-25T08:16:25.666Z</time></trkpt><trkpt lat="38.0420667" lon="15.7991317"><ele>707.0</ele><time>2026-04-25T08:16:26.666Z</time></trkpt><trkpt lat="38.0420817" lon="15.7990017"><ele>707.3333333333333</ele><time>2026-04-25T08:16:27.666Z</time></trkpt><trkpt lat="38.0420933" lon="15.7988817"><ele>707.6666666666666</ele><time>2026-04-25T08:16:28.666Z</time></trkpt><trkpt lat="38.0421017" lon="15.79878"><ele>708.0</ele><time>2026-04-25T08:16:29.666Z</time></trkpt><trkpt lat="38.0420883" lon="15.7986267"><ele>708.3333333333334</ele><time>2026-04-25T08:16:31.666Z</time></trkpt><trkpt lat="38.04207" lon="15.7985417"><ele>708.6666666666667</ele><time>2026-04-25T08:16:32.666Z</time></trkpt><trkpt lat="38.042055" lon="15.79846"><ele>709.0</ele><time>2026-04-25T08:16:33.666Z</time></trkpt><trkpt lat="38.0421133" lon="15.798305"><ele>710.2</ele><time>2026-04-25T08:16:35.666Z</time></trkpt><trkpt lat="38.0421783" lon="15.7982383"><ele>711.4000000000001</ele><time>2026-04-25T08:16:36.666Z</time></trkpt><trkpt lat="38.0422683" lon="15.7981617"><ele>712.6</ele><time>2026-04-25T08:16:37.667Z</time></trkpt><trkpt lat="38.0423533" lon="15.7981067"><ele>713.8</ele><time>2026-04-25T08:16:38.666Z</time></trkpt><trkpt lat="38.042435" lon="15.7980733"><ele>715.0</ele><time>2026-04-25T08:16:39.666Z</time></trkpt><trkpt lat="38.0425117" lon="15.79806"><ele>722.1666666666667</ele><time>2026-04-25T08:16:40.666Z</time></trkpt><trkpt lat="38.0425783" lon="15.798055"><ele>729.3333333333334</ele><time>2026-04-25T08:16:41.667Z</time></trkpt><trkpt lat="38.0426917" lon="15.7980267"><ele>736.5</ele><time>2026-04-25T08:16:43.666Z</time></trkpt><trkpt lat="38.0427567" lon="15.797955"><ele>743.6666666666666</ele><time>2026-04-25T08:16:45.666Z</time></trkpt><trkpt lat="38.0427883" lon="15.7978817"><ele>750.8333333333333</ele><time>2026-04-25T08:16:46.666Z</time></trkpt><trkpt lat="38.042825" lon="15.7978167"><ele>758.0</ele><time>2026-04-25T08:16:47.666Z</time></trkpt><trkpt lat="38.0428717" lon="15.7977583"><ele>758.0</ele><time>2026-04-25T08:16:48.666Z</time></trkpt><trkpt lat="38.042965" lon="15.79775"><ele>758.0</ele><time>2026-04-25T08:16:50.666Z</time></trkpt><trkpt lat="38.0430383" lon="15.79782"><ele>758.0</ele><time>2026-04-25T08:16:52.666Z</time></trkpt><trkpt lat="38.043135" lon="15.7979"><ele>758.0</ele><time>2026-04-25T08:16:54.666Z</time></trkpt><trkpt lat="38.0432383" lon="15.797955"><ele>758.0</ele><time>2026-04-25T08:16:56.666Z</time></trkpt><trkpt lat="38.0433317" lon="15.7980017"><ele>758.0</ele><time>2026-04-25T08:16:58.666Z</time></trkpt><trkpt lat="38.04341" lon="15.798045"><ele>758.0</ele><time>2026-04-25T08:17:00.666Z</time></trkpt><trkpt lat="38.0433633" lon="15.7981167"><ele>758.0</ele><time>2026-04-25T08:17:04.666Z</time></trkpt><trkpt lat="38.0432583" lon="15.79812"><ele>758.0</ele><time>2026-04-25T08:17:06.666Z</time></trkpt><trkpt lat="38.043135" lon="15.7981167"><ele>758.0</ele><time>2026-04-25T08:17:08.666Z</time></trkpt><trkpt lat="38.0430683" lon="15.79811"><ele>758.0</ele><time>2026-04-25T08:17:09.667Z</time></trkpt><trkpt lat="38.0429983" lon="15.7981367"><ele>758.0</ele><time>2026-04-25T08:17:10.666Z</time></trkpt><trkpt lat="38.042935" lon="15.7982033"><ele>758.0</ele><time>2026-04-25T08:17:11.666Z</time></trkpt><trkpt lat="38.0428783" lon="15.79829"><ele>758.0</ele><time>2026-04-25T08:17:12.667Z</time></trkpt><trkpt lat="38.0428283" lon="15.7984167"><ele>758.0</ele><time>2026-04-25T08:17:13.666Z</time></trkpt><trkpt lat="38.0427817" lon="15.7985333"><ele>758.0</ele><time>2026-04-25T08:17:14.666Z</time></trkpt><trkpt lat="38.0427283" lon="15.798615"><ele>758.0</ele><time>2026-04-25T08:17:15.666Z</time></trkpt><trkpt lat="38.0427017" lon="15.7987033"><ele>758.0</ele><time>2026-04-25T08:17:17.666Z</time></trkpt><trkpt lat="38.0427917" lon="15.7986733"><ele>758.0</ele><time>2026-04-25T08:17:20.666Z</time></trkpt><trkpt lat="38.0428433" lon="15.79862"><ele>758.0</ele><time>2026-04-25T08:17:21.666Z</time></trkpt><trkpt lat="38.0429033" lon="15.7985533"><ele>758.0</ele><time>2026-04-25T08:17:22.666Z</time></trkpt><trkpt lat="38.04297" lon="15.7984783"><ele>758.0</ele><time>2026-04-25T08:17:23.666Z</time></trkpt><trkpt lat="38.0430483" lon="15.7984267"><ele>758.0</ele><time>2026-04-25T08:17:24.666Z</time></trkpt><trkpt lat="38.04313" lon="15.7984083"><ele>758.0</ele><time>2026-04-25T08:17:25.667Z</time></trkpt><trkpt lat="38.043225" lon="15.798425"><ele>758.0</ele><time>2026-04-25T08:17:26.667Z</time></trkpt><trkpt lat="38.0433233" lon="15.79845"><ele>758.0</ele><time>2026-04-25T08:17:27.666Z</time></trkpt><trkpt lat="38.043405" lon="15.7984717"><ele>758.6666666666666</ele><time>2026-04-25T08:17:28.666Z</time></trkpt><trkpt lat="38.043475" lon="15.7985183"><ele>759.3333333333333</ele><time>2026-04-25T08:17:30.667Z</time></trkpt><trkpt lat="38.0434017" lon="15.7985583"><ele>760.0</ele><time>2026-04-25T08:17:33.666Z</time></trkpt><trkpt lat="38.043275" lon="15.7985633"><ele>760.6666666666666</ele><time>2026-04-25T08:17:35.666Z</time></trkpt><trkpt lat="38.0432033" lon="15.7985917"><ele>761.3333333333334</ele><time>2026-04-25T08:17:36.666Z</time></trkpt><trkpt lat="38.0431433" lon="15.7986367"><ele>762.0</ele><time>2026-04-25T08:17:37.666Z</time></trkpt><trkpt lat="38.0430883" lon="15.798705"><ele>762.0</ele><time>2026-04-25T08:17:38.666Z</time></trkpt><trkpt lat="38.0430533" lon="15.79881"><ele>762.0</ele><time>2026-04-25T08:17:40.666Z</time></trkpt><trkpt lat="38.0431" lon="15.7989183"><ele>762.0</ele><time>2026-04-25T08:17:42.666Z</time></trkpt><trkpt lat="38.0432233" lon="15.7989867"><ele>762.0</ele><time>2026-04-25T08:17:44.666Z</time></trkpt><trkpt lat="38.0433033" lon="15.79901"><ele>762.0</ele><time>2026-04-25T08:17:45.666Z</time></trkpt><trkpt lat="38.0433917" lon="15.79903"><ele>765.5</ele><time>2026-04-25T08:17:46.666Z</time></trkpt><trkpt lat="38.0434783" lon="15.79907"><ele>769.0</ele><time>2026-04-25T08:17:47.666Z</time></trkpt><trkpt lat="38.0435633" lon="15.7991067"><ele>772.5</ele><time>2026-04-25T08:17:48.666Z</time></trkpt><trkpt lat="38.04364" lon="15.7991517"><ele>776.0</ele><time>2026-04-25T08:17:49.666Z</time></trkpt><trkpt lat="38.0437033" lon="15.7992017"><ele>779.5</ele><time>2026-04-25T08:17:50.667Z</time></trkpt><trkpt lat="38.0437617" lon="15.799265"><ele>783.0</ele><time>2026-04-25T08:17:51.666Z</time></trkpt><trkpt lat="38.04382" lon="15.7993383"><ele>783.0</ele><time>2026-04-25T08:17:52.666Z</time></trkpt><trkpt lat="38.0438667" lon="15.799415"><ele>783.0</ele><time>2026-04-25T08:17:53.666Z</time></trkpt><trkpt lat="38.0439417" lon="15.7995433"><ele>783.0</ele><time>2026-04-25T08:17:55.666Z</time></trkpt><trkpt lat="38.0439933" lon="15.7996033"><ele>783.0</ele><time>2026-04-25T08:17:56.666Z</time></trkpt><trkpt lat="38.0440533" lon="15.7996633"><ele>783.0</ele><time>2026-04-25T08:17:57.666Z</time></trkpt><trkpt lat="38.0441217" lon="15.79971"><ele>783.0</ele><time>2026-04-25T08:17:58.666Z</time></trkpt><trkpt lat="38.0441917" lon="15.799755"><ele>791.0</ele><time>2026-04-25T08:17:59.667Z</time></trkpt><trkpt lat="38.0442667" lon="15.799795"><ele>799.0</ele><time>2026-04-25T08:18:00.666Z</time></trkpt><trkpt lat="38.044335" lon="15.7998317"><ele>807.0</ele><time>2026-04-25T08:18:01.666Z</time></trkpt><trkpt lat="38.0443933" lon="15.7998683"><ele>815.0</ele><time>2026-04-25T08:18:02.667Z</time></trkpt><trkpt lat="38.044445" lon="15.7999283"><ele>823.0</ele><time>2026-04-25T08:18:03.666Z</time></trkpt><trkpt lat="38.0445033" lon="15.80007"><ele>831.0</ele><time>2026-04-25T08:18:05.666Z</time></trkpt><trkpt lat="38.04458" lon="15.80019"><ele>833.0</ele><time>2026-04-25T08:18:07.666Z</time></trkpt><trkpt lat="38.0446917" lon="15.80026"><ele>835.0</ele><time>2026-04-25T08:18:09.666Z</time></trkpt><trkpt lat="38.0447833" lon="15.80034"><ele>837.0</ele><time>2026-04-25T08:18:11.667Z</time></trkpt><trkpt lat="38.044755" lon="15.8004633"><ele>839.0</ele><time>2026-04-25T08:18:14.667Z</time></trkpt><trkpt lat="38.04468" lon="15.8005617"><ele>841.0</ele><time>2026-04-25T08:18:16.666Z</time></trkpt><trkpt lat="38.0446167" lon="15.8006633"><ele>840.9999999999999</ele><time>2026-04-25T08:18:18.666Z</time></trkpt><trkpt lat="38.044565" lon="15.80074"><ele>841.0</ele><time>2026-04-25T08:18:19.666Z</time></trkpt><trkpt lat="38.044485" lon="15.8008167"><ele>841.0</ele><time>2026-04-25T08:18:20.666Z</time></trkpt><trkpt lat="38.04441" lon="15.8008867"><ele>841.0</ele><time>2026-04-25T08:18:21.666Z</time></trkpt><trkpt lat="38.0443533" lon="15.8009417"><ele>840.9999999999999</ele><time>2026-04-25T08:18:22.666Z</time></trkpt><trkpt lat="38.0442867" lon="15.8010383"><ele>841.0</ele><time>2026-04-25T08:18:24.666Z</time></trkpt><trkpt lat="38.0443633" lon="15.8010517"><ele>841.0</ele><time>2026-04-25T08:18:27.666Z</time></trkpt><trkpt lat="38.044475" lon="15.8009783"><ele>841.0</ele><time>2026-04-25T08:18:29.667Z</time></trkpt><trkpt lat="38.0445467" lon="15.800935"><ele>841.0</ele><time>2026-04-25T08:18:30.666Z</time></trkpt><trkpt lat="38.0446283" lon="15.8008867"><ele>841.0</ele><time>2026-04-25T08:18:31.666Z</time></trkpt><trkpt lat="38.0447117" lon="15.8008317"><ele>841.0</ele><time>2026-04-25T08:18:32.666Z</time></trkpt><trkpt lat="38.04479" lon="15.8007833"><ele>840.9999999999999</ele><time>2026-04-25T08:18:33.666Z</time></trkpt><trkpt lat="38.0448667" lon="15.800755"><ele>841.0</ele><time>2026-04-25T08:18:34.666Z</time></trkpt><trkpt lat="38.044945" lon="15.8007433"><ele>841.0</ele><time>2026-04-25T08:18:35.666Z</time></trkpt><trkpt lat="38.045015" lon="15.8007433"><ele>841.0</ele><time>2026-04-25T08:18:36.666Z</time></trkpt><trkpt lat="38.0450967" lon="15.8007283"><ele>840.9999999999999</ele><time>2026-04-25T08:18:37.666Z</time></trkpt><trkpt lat="38.045215" lon="15.8006583"><ele>841.0</ele><time>2026-04-25T08:18:39.666Z</time></trkpt><trkpt lat="38.0452717" lon="15.8006033"><ele>846.6666666666666</ele><time>2026-04-25T08:18:40.666Z</time></trkpt><trkpt lat="38.045315" lon="15.800465"><ele>852.3333333333333</ele><time>2026-04-25T08:18:42.666Z</time></trkpt><trkpt lat="38.045275" lon="15.8003567"><ele>858.0</ele><time>2026-04-25T08:18:44.666Z</time></trkpt><trkpt lat="38.0452317" lon="15.800295"><ele>863.6666666666667</ele><time>2026-04-25T08:18:45.666Z</time></trkpt><trkpt lat="38.0451867" lon="15.8002217"><ele>869.3333333333334</ele><time>2026-04-25T08:18:46.666Z</time></trkpt><trkpt lat="38.045145" lon="15.8001417"><ele>875.0</ele><time>2026-04-25T08:18:47.666Z</time></trkpt><trkpt lat="38.04511" lon="15.8000417"><ele>875.5000000000001</ele><time>2026-04-25T08:18:48.667Z</time></trkpt><trkpt lat="38.0450667" lon="15.7999367"><ele>876.0</ele><time>2026-04-25T08:18:49.666Z</time></trkpt><trkpt lat="38.0450367" lon="15.79984"><ele>876.5</ele><time>2026-04-25T08:18:50.666Z</time></trkpt><trkpt lat="38.0450083" lon="15.7997417"><ele>877.0</ele><time>2026-04-25T08:18:51.666Z</time></trkpt><trkpt lat="38.044985" lon="15.7996533"><ele>877.5000000000001</ele><time>2026-04-25T08:18:52.667Z</time></trkpt><trkpt lat="38.0449967" lon="15.7995167"><ele>878.0</ele><time>2026-04-25T08:18:54.667Z</time></trkpt><trkpt lat="38.045055" lon="15.79957"><ele>878.0000000000001</ele><time>2026-04-25T08:18:57.667Z</time></trkpt><trkpt lat="38.04507" lon="15.7996617"><ele>878.0</ele><time>2026-04-25T08:18:58.666Z</time></trkpt><trkpt lat="38.045095" lon="15.7997467"><ele>878.0</ele><time>2026-04-25T08:18:59.666Z</time></trkpt><trkpt lat="38.045175" lon="15.7998717"><ele>878.0</ele><time>2026-04-25T08:19:01.666Z</time></trkpt><trkpt lat="38.0452383" lon="15.7999333"><ele>878.0000000000001</ele><time>2026-04-25T08:19:02.667Z</time></trkpt><trkpt lat="38.0452983" lon="15.7999967"><ele>878.0</ele><time>2026-04-25T08:19:03.666Z</time></trkpt><trkpt lat="38.045365" lon="15.8000617"><ele>878.0000000000001</ele><time>2026-04-25T08:19:04.667Z</time></trkpt><trkpt lat="38.0454333" lon="15.800125"><ele>878.0</ele><time>2026-04-25T08:19:05.666Z</time></trkpt><trkpt lat="38.0455083" lon="15.8001783"><ele>878.0</ele><time>2026-04-25T08:19:06.666Z</time></trkpt><trkpt lat="38.0455833" lon="15.8002133"><ele>878.0</ele><time>2026-04-25T08:19:07.667Z</time></trkpt><trkpt lat="38.0456717" lon="15.8002333"><ele>878.0000000000001</ele><time>2026-04-25T08:19:08.666Z</time></trkpt><trkpt lat="38.0457633" lon="15.80023"><ele>878.0</ele><time>2026-04-25T08:19:09.666Z</time></trkpt><trkpt lat="38.045855" lon="15.8002183"><ele>883.8</ele><time>2026-04-25T08:19:10.666Z</time></trkpt><trkpt lat="38.0459367" lon="15.8002317"><ele>889.5999999999999</ele><time>2026-04-25T08:19:11.666Z</time></trkpt><trkpt lat="38.04601" lon="15.8002583"><ele>895.4000000000001</ele><time>2026-04-25T08:19:12.666Z</time></trkpt><trkpt lat="38.0460467" lon="15.80034"><ele>901.2</ele><time>2026-04-25T08:19:14.666Z</time></trkpt><trkpt lat="38.0459633" lon="15.80051"><ele>907.0</ele><time>2026-04-25T08:19:16.667Z</time></trkpt><trkpt lat="38.04591" lon="15.8006317"><ele>907.0</ele><time>2026-04-25T08:19:17.667Z</time></trkpt><trkpt lat="38.04585" lon="15.8007667"><ele>907.0</ele><time>2026-04-25T08:19:18.667Z</time></trkpt><trkpt lat="38.045795" lon="15.8008733"><ele>907.0</ele><time>2026-04-25T08:19:19.666Z</time></trkpt><trkpt lat="38.0457567" lon="15.80094"><ele>907.0</ele><time>2026-04-25T08:19:20.667Z</time></trkpt><trkpt lat="38.04585" lon="15.8009167"><ele>907.0</ele><time>2026-04-25T08:19:25.666Z</time></trkpt><trkpt lat="38.0458983" lon="15.8008417"><ele>906.9999999999999</ele><time>2026-04-25T08:19:26.666Z</time></trkpt><trkpt lat="38.0459467" lon="15.8007617"><ele>907.0</ele><time>2026-04-25T08:19:27.667Z</time></trkpt><trkpt lat="38.046005" lon="15.8006883"><ele>907.0</ele><time>2026-04-25T08:19:28.666Z</time></trkpt><trkpt lat="38.0460683" lon="15.80062"><ele>907.0</ele><time>2026-04-25T08:19:29.666Z</time></trkpt><trkpt lat="38.0461317" lon="15.80057"><ele>906.9999999999999</ele><time>2026-04-25T08:19:30.666Z</time></trkpt><trkpt lat="38.04619" lon="15.8005267"><ele>907.0</ele><time>2026-04-25T08:19:31.666Z</time></trkpt><trkpt lat="38.0462667" lon="15.8004317"><ele>906.9999999999999</ele><time>2026-04-25T08:19:33.666Z</time></trkpt><trkpt lat="38.0462867" lon="15.800355"><ele>907.0</ele><time>2026-04-25T08:19:35.666Z</time></trkpt><trkpt lat="38.0463467" lon="15.8002567"><ele>907.0</ele><time>2026-04-25T08:19:58.666Z</time></trkpt><trkpt lat="38.0463983" lon="15.80013"><ele>907.0</ele><time>2026-04-25T08:20:00.666Z</time></trkpt><trkpt lat="38.0464217" lon="15.8000483"><ele>906.9999999999999</ele><time>2026-04-25T08:20:02.666Z</time></trkpt><trkpt lat="38.046475" lon="15.8000017"><ele>907.0</ele><time>2026-04-25T08:20:06.666Z</time></trkpt><trkpt lat="38.0465483" lon="15.8000567"><ele>908.4000000000001</ele><time>2026-04-25T08:20:19.666Z</time></trkpt><trkpt lat="38.0466" lon="15.800125"><ele>909.8000000000001</ele><time>2026-04-25T08:20:21.666Z</time></trkpt><trkpt lat="38.046655" lon="15.8001983"><ele>911.2</ele><time>2026-04-25T08:20:23.666Z</time></trkpt><trkpt lat="38.0467017" lon="15.800285"><ele>912.6</ele><time>2026-04-25T08:20:25.666Z</time></trkpt><trkpt lat="38.0467033" lon="15.800405"><ele>914.0</ele><time>2026-04-25T08:20:27.667Z</time></trkpt><trkpt lat="38.0466517" lon="15.8005467"><ele>912.6</ele><time>2026-04-25T08:20:29.666Z</time></trkpt><trkpt lat="38.0466167" lon="15.800615"><ele>911.2</ele><time>2026-04-25T08:20:30.666Z</time></trkpt><trkpt lat="38.0465633" lon="15.8007417"><ele>909.8000000000001</ele><time>2026-04-25T08:20:32.666Z</time></trkpt><trkpt lat="38.0465867" lon="15.8008217"><ele>908.4000000000001</ele><time>2026-04-25T08:20:34.666Z</time></trkpt><trkpt lat="38.0466767" lon="15.8007817"><ele>907.0</ele><time>2026-04-25T08:20:37.666Z</time></trkpt><trkpt lat="38.046745" lon="15.800625"><ele>911.6666666666666</ele><time>2026-04-25T08:20:39.666Z</time></trkpt><trkpt lat="38.04678" lon="15.80053"><ele>916.3333333333333</ele><time>2026-04-25T08:20:40.666Z</time></trkpt><trkpt lat="38.0468467" lon="15.80045"><ele>921.0</ele><time>2026-04-25T08:20:42.666Z</time></trkpt><trkpt lat="38.046895" lon="15.80052"><ele>925.6666666666667</ele><time>2026-04-25T08:20:44.666Z</time></trkpt><trkpt lat="38.0468833" lon="15.8006017"><ele>930.3333333333334</ele><time>2026-04-25T08:20:45.667Z</time></trkpt><trkpt lat="38.0468433" lon="15.8007083"><ele>935.0</ele><time>2026-04-25T08:20:46.666Z</time></trkpt><trkpt lat="38.0468033" lon="15.8008267"><ele>935.0</ele><time>2026-04-25T08:20:47.666Z</time></trkpt><trkpt lat="38.0467817" lon="15.8009283"><ele>935.0</ele><time>2026-04-25T08:20:48.666Z</time></trkpt><trkpt lat="38.0468183" lon="15.8010567"><ele>935.0</ele><time>2026-04-25T08:20:50.666Z</time></trkpt><trkpt lat="38.046915" lon="15.8011167"><ele>935.0</ele><time>2026-04-25T08:20:52.666Z</time></trkpt><trkpt lat="38.0470183" lon="15.8011233"><ele>935.0</ele><time>2026-04-25T08:20:54.666Z</time></trkpt><trkpt lat="38.0470817" lon="15.8011333"><ele>938.1666666666667</ele><time>2026-04-25T08:20:55.666Z</time></trkpt><trkpt lat="38.0471583" lon="15.801145"><ele>941.3333333333334</ele><time>2026-04-25T08:20:56.666Z</time></trkpt><trkpt lat="38.0472283" lon="15.8011533"><ele>944.5</ele><time>2026-04-25T08:20:57.666Z</time></trkpt><trkpt lat="38.0473067" lon="15.801165"><ele>947.6666666666667</ele><time>2026-04-25T08:20:58.666Z</time></trkpt><trkpt lat="38.0473867" lon="15.801185"><ele>950.8333333333334</ele><time>2026-04-25T08:20:59.667Z</time></trkpt><trkpt lat="38.04747" lon="15.8012033"><ele>954.0</ele><time>2026-04-25T08:21:00.666Z</time></trkpt><trkpt lat="38.04755" lon="15.8012167"><ele>954.0</ele><time>2026-04-25T08:21:01.666Z</time></trkpt><trkpt lat="38.04764" lon="15.8012567"><ele>954.0000000000001</ele><time>2026-04-25T08:21:02.666Z</time></trkpt><trkpt lat="38.0477317" lon="15.8013067"><ele>954.0000000000001</ele><time>2026-04-25T08:21:03.666Z</time></trkpt><trkpt lat="38.0478117" lon="15.8013583"><ele>954.0</ele><time>2026-04-25T08:21:04.666Z</time></trkpt><trkpt lat="38.0478933" lon="15.8014233"><ele>954.0</ele><time>2026-04-25T08:21:05.666Z</time></trkpt><trkpt lat="38.047975" lon="15.80148"><ele>954.0</ele><time>2026-04-25T08:21:06.667Z</time></trkpt><trkpt lat="38.0480483" lon="15.8015233"><ele>953.9999999999999</ele><time>2026-04-25T08:21:07.666Z</time></trkpt><trkpt lat="38.0481133" lon="15.801555"><ele>954.0</ele><time>2026-04-25T08:21:08.666Z</time></trkpt><trkpt lat="38.048175" lon="15.801585"><ele>954.0</ele><time>2026-04-25T08:21:09.667Z</time></trkpt><trkpt lat="38.0482433" lon="15.8016"><ele>953.9999999999999</ele><time>2026-04-25T08:21:10.666Z</time></trkpt><trkpt lat="38.0483217" lon="15.8016017"><ele>954.0</ele><time>2026-04-25T08:21:11.666Z</time></trkpt><trkpt lat="38.0484" lon="15.8015983"><ele>954.0</ele><time>2026-04-25T08:21:12.666Z</time></trkpt><trkpt lat="38.0484633" lon="15.8016167"><ele>957.5</ele><time>2026-04-25T08:21:13.666Z</time></trkpt><trkpt lat="38.0485317" lon="15.8016383"><ele>961.0</ele><time>2026-04-25T08:21:14.666Z</time></trkpt><trkpt lat="38.04861" lon="15.801665"><ele>964.5</ele><time>2026-04-25T08:21:15.666Z</time></trkpt><trkpt lat="38.04868" lon="15.8017067"><ele>968.0</ele><time>2026-04-25T08:21:16.666Z</time></trkpt><trkpt lat="38.048765" lon="15.8017567"><ele>971.5</ele><time>2026-04-25T08:21:17.666Z</time></trkpt><trkpt lat="38.048845" lon="15.8017933"><ele>975.0</ele><time>2026-04-25T08:21:18.666Z</time></trkpt><trkpt lat="38.0489217" lon="15.801825"><ele>975.0</ele><time>2026-04-25T08:21:19.666Z</time></trkpt><trkpt lat="38.0490033" lon="15.8018183"><ele>975.0</ele><time>2026-04-25T08:21:20.667Z</time></trkpt><trkpt lat="38.049085" lon="15.8017783"><ele>975.0</ele><time>2026-04-25T08:21:21.666Z</time></trkpt><trkpt lat="38.04916" lon="15.8017233"><ele>975.0</ele><time>2026-04-25T08:21:22.667Z</time></trkpt><trkpt lat="38.04922" lon="15.80166"><ele>975.0</ele><time>2026-04-25T08:21:23.666Z</time></trkpt><trkpt lat="38.0492683" lon="15.8015783"><ele>975.0</ele><time>2026-04-25T08:21:24.666Z</time></trkpt><trkpt lat="38.0493167" lon="15.8014967"><ele>978.3333333333334</ele><time>2026-04-25T08:21:25.666Z</time></trkpt><trkpt lat="38.0493667" lon="15.8014283"><ele>981.6666666666667</ele><time>2026-04-25T08:21:26.667Z</time></trkpt><trkpt lat="38.04941" lon="15.80137"><ele>985.0</ele><time>2026-04-25T08:21:27.667Z</time></trkpt><trkpt lat="38.0494833" lon="15.8013117"><ele>988.3333333333334</ele><time>2026-04-25T08:21:29.666Z</time></trkpt><trkpt lat="38.0495017" lon="15.80139"><ele>991.6666666666667</ele><time>2026-04-25T08:21:32.666Z</time></trkpt><trkpt lat="38.049445" lon="15.8014867"><ele>995.0</ele><time>2026-04-25T08:21:34.666Z</time></trkpt><trkpt lat="38.0493683" lon="15.8016333"><ele>995.0</ele><time>2026-04-25T08:21:36.666Z</time></trkpt><trkpt lat="38.04935" lon="15.8017133"><ele>995.0</ele><time>2026-04-25T08:21:37.666Z</time></trkpt><trkpt lat="38.04937" lon="15.8018533"><ele>995.0</ele><time>2026-04-25T08:21:39.666Z</time></trkpt><trkpt lat="38.049455" lon="15.8019783"><ele>995.0</ele><time>2026-04-25T08:21:41.666Z</time></trkpt><trkpt lat="38.0495" lon="15.8020417"><ele>995.0</ele><time>2026-04-25T08:21:42.667Z</time></trkpt><trkpt lat="38.0495483" lon="15.8021267"><ele>993.8333333333334</ele><time>2026-04-25T08:21:43.667Z</time></trkpt><trkpt lat="38.0495883" lon="15.8022217"><ele>992.6666666666667</ele><time>2026-04-25T08:21:44.666Z</time></trkpt><trkpt lat="38.0496167" lon="15.8023167"><ele>991.5</ele><time>2026-04-25T08:21:45.666Z</time></trkpt><trkpt lat="38.0496367" lon="15.8024083"><ele>990.3333333333333</ele><time>2026-04-25T08:21:46.666Z</time></trkpt><trkpt lat="38.0496483" lon="15.8024933"><ele>989.1666666666666</ele><time>2026-04-25T08:21:47.666Z</time></trkpt><trkpt lat="38.0497017" lon="15.8026217"><ele>988.0</ele><time>2026-04-25T08:21:49.666Z</time></trkpt><trkpt lat="38.049775" lon="15.8027533"><ele>993.5999999999999</ele><time>2026-04-25T08:21:51.666Z</time></trkpt><trkpt lat="38.04981" lon="15.8028267"><ele>999.1999999999999</ele><time>2026-04-25T08:21:52.666Z</time></trkpt><trkpt lat="38.04989" lon="15.80293"><ele>1004.8</ele><time>2026-04-25T08:21:54.667Z</time></trkpt><trkpt lat="38.0499767" lon="15.8029717"><ele>1010.4</ele><time>2026-04-25T08:21:56.666Z</time></trkpt><trkpt lat="38.0501" lon="15.80298"><ele>1016.0</ele><time>2026-04-25T08:21:58.666Z</time></trkpt><trkpt lat="38.0501617" lon="15.8030067"><ele>1016.0</ele><time>2026-04-25T08:21:59.666Z</time></trkpt><trkpt lat="38.0502567" lon="15.8030883"><ele>1015.9999999999999</ele><time>2026-04-25T08:22:01.667Z</time></trkpt><trkpt lat="38.0502933" lon="15.8032067"><ele>1015.9999999999999</ele><time>2026-04-25T08:22:03.667Z</time></trkpt><trkpt lat="38.0503433" lon="15.8033117"><ele>1016.0</ele><time>2026-04-25T08:22:05.666Z</time></trkpt><trkpt lat="38.0504" lon="15.8033833"><ele>1016.0</ele><time>2026-04-25T08:22:07.667Z</time></trkpt><trkpt lat="38.0504583" lon="15.8034483"><ele>1015.0</ele><time>2026-04-25T08:22:09.666Z</time></trkpt><trkpt lat="38.05054" lon="15.803515"><ele>1013.9999999999999</ele><time>2026-04-25T08:22:11.666Z</time></trkpt><trkpt lat="38.050595" lon="15.80361"><ele>1012.9999999999999</ele><time>2026-04-25T08:22:13.667Z</time></trkpt><trkpt lat="38.0506017" lon="15.8037117"><ele>1012.0</ele><time>2026-04-25T08:22:15.666Z</time></trkpt><trkpt lat="38.0505567" lon="15.8038333"><ele>1011.0</ele><time>2026-04-25T08:22:17.666Z</time></trkpt><trkpt lat="38.0505333" lon="15.8039367"><ele>1011.0</ele><time>2026-04-25T08:22:19.666Z</time></trkpt><trkpt lat="38.0505767" lon="15.80404"><ele>1010.9999999999999</ele><time>2026-04-25T08:22:21.667Z</time></trkpt><trkpt lat="38.0506367" lon="15.8041317"><ele>1010.9999999999999</ele><time>2026-04-25T08:22:23.666Z</time></trkpt><trkpt lat="38.0507" lon="15.8042517"><ele>1011.0</ele><time>2026-04-25T08:22:25.666Z</time></trkpt><trkpt lat="38.0507567" lon="15.8043917"><ele>1011.0</ele><time>2026-04-25T08:22:27.667Z</time></trkpt><trkpt lat="38.050815" lon="15.8045217"><ele>1015.3333333333334</ele><time>2026-04-25T08:22:29.666Z</time></trkpt><trkpt lat="38.0508483" lon="15.8045917"><ele>1019.6666666666667</ele><time>2026-04-25T08:22:30.666Z</time></trkpt><trkpt lat="38.050885" lon="15.8046567"><ele>1024.0</ele><time>2026-04-25T08:22:31.667Z</time></trkpt><trkpt lat="38.0509217" lon="15.8047217"><ele>1028.3333333333335</ele><time>2026-04-25T08:22:32.666Z</time></trkpt><trkpt lat="38.0509933" lon="15.8047933"><ele>1032.6666666666667</ele><time>2026-04-25T08:22:34.667Z</time></trkpt><trkpt lat="38.0510933" lon="15.804835"><ele>1037.0</ele><time>2026-04-25T08:22:36.666Z</time></trkpt><trkpt lat="38.0512017" lon="15.8048767"><ele>1037.0</ele><time>2026-04-25T08:22:38.666Z</time></trkpt><trkpt lat="38.051295" lon="15.8049583"><ele>1037.0</ele><time>2026-04-25T08:22:40.666Z</time></trkpt><trkpt lat="38.05138" lon="15.8050033"><ele>1037.0</ele><time>2026-04-25T08:22:42.666Z</time></trkpt><trkpt lat="38.0514567" lon="15.80497"><ele>1037.0</ele><time>2026-04-25T08:22:45.666Z</time></trkpt><trkpt lat="38.0514567" lon="15.8048683"><ele>1037.0</ele><time>2026-04-25T08:22:48.666Z</time></trkpt><trkpt lat="38.0514583" lon="15.8047533"><ele>1037.0</ele><time>2026-04-25T08:22:50.666Z</time></trkpt><trkpt lat="38.0514767" lon="15.8046267"><ele>1037.0</ele><time>2026-04-25T08:22:52.667Z</time></trkpt><trkpt lat="38.05151" lon="15.804495"><ele>1037.0</ele><time>2026-04-25T08:22:54.666Z</time></trkpt><trkpt lat="38.0515283" lon="15.8044167"><ele>1037.0</ele><time>2026-04-25T08:22:55.667Z</time></trkpt><trkpt lat="38.0515533" lon="15.8042767"><ele>1037.0</ele><time>2026-04-25T08:22:57.666Z</time></trkpt><trkpt lat="38.0516133" lon="15.804165"><ele>1041.6</ele><time>2026-04-25T08:22:59.666Z</time></trkpt><trkpt lat="38.0517067" lon="15.8041467"><ele>1046.2</ele><time>2026-04-25T08:23:01.666Z</time></trkpt><trkpt lat="38.0518133" lon="15.8041933"><ele>1050.8</ele><time>2026-04-25T08:23:03.666Z</time></trkpt><trkpt lat="38.0518817" lon="15.8042383"><ele>1055.4</ele><time>2026-04-25T08:23:04.666Z</time></trkpt><trkpt lat="38.0519433" lon="15.80429"><ele>1060.0</ele><time>2026-04-25T08:23:05.666Z</time></trkpt><trkpt lat="38.0520433" lon="15.804385"><ele>1062.0</ele><time>2026-04-25T08:23:07.666Z</time></trkpt><trkpt lat="38.0521333" lon="15.8044617"><ele>1064.0</ele><time>2026-04-25T08:23:09.667Z</time></trkpt><trkpt lat="38.052245" lon="15.804545"><ele>1066.0</ele><time>2026-04-25T08:23:11.666Z</time></trkpt><trkpt lat="38.0523067" lon="15.8045983"><ele>1068.0</ele><time>2026-04-25T08:23:12.666Z</time></trkpt><trkpt lat="38.0523767" lon="15.8046533"><ele>1070.0</ele><time>2026-04-25T08:23:13.666Z</time></trkpt><trkpt lat="38.052455" lon="15.8047167"><ele>1070.6</ele><time>2026-04-25T08:23:14.666Z</time></trkpt><trkpt lat="38.0525567" lon="15.8047917"><ele>1071.2</ele><time>2026-04-25T08:23:15.667Z</time></trkpt><trkpt lat="38.0526417" lon="15.8048683"><ele>1071.8</ele><time>2026-04-25T08:23:16.666Z</time></trkpt><trkpt lat="38.0527" lon="15.8049333"><ele>1072.4</ele><time>2026-04-25T08:23:17.667Z</time></trkpt><trkpt lat="38.0527617" lon="15.805055"><ele>1073.0</ele><time>2026-04-25T08:23:19.666Z</time></trkpt><trkpt lat="38.052805" lon="15.805125"><ele>1072.0</ele><time>2026-04-25T08:23:20.666Z</time></trkpt><trkpt lat="38.0528733" lon="15.8052017"><ele>1071.0</ele><time>2026-04-25T08:23:21.666Z</time></trkpt><trkpt lat="38.05297" lon="15.805285"><ele>1070.0</ele><time>2026-04-25T08:23:22.666Z</time></trkpt><trkpt lat="38.0530667" lon="15.8053533"><ele>1069.0</ele><time>2026-04-25T08:23:23.666Z</time></trkpt><trkpt lat="38.05315" lon="15.8054083"><ele>1068.0</ele><time>2026-04-25T08:23:24.666Z</time></trkpt><trkpt lat="38.0532233" lon="15.805445"><ele>1069.6</ele><time>2026-04-25T08:23:25.666Z</time></trkpt><trkpt lat="38.0533083" lon="15.8054933"><ele>1071.1999999999998</ele><time>2026-04-25T08:23:26.666Z</time></trkpt><trkpt lat="38.0534083" lon="15.8055533"><ele>1072.8</ele><time>2026-04-25T08:23:27.666Z</time></trkpt><trkpt lat="38.053515" lon="15.8056117"><ele>1074.3999999999999</ele><time>2026-04-25T08:23:28.666Z</time></trkpt><trkpt lat="38.05361" lon="15.8056583"><ele>1076.0</ele><time>2026-04-25T08:23:29.666Z</time></trkpt><trkpt lat="38.05369" lon="15.8056967"><ele>1076.0</ele><time>2026-04-25T08:23:30.666Z</time></trkpt><trkpt lat="38.0537633" lon="15.8057317"><ele>1076.0</ele><time>2026-04-25T08:23:31.666Z</time></trkpt><trkpt lat="38.0538383" lon="15.8057633"><ele>1076.0</ele><time>2026-04-25T08:23:32.666Z</time></trkpt><trkpt lat="38.0539217" lon="15.8057817"><ele>1076.0</ele><time>2026-04-25T08:23:33.666Z</time></trkpt><trkpt lat="38.0539983" lon="15.8057983"><ele>1076.0</ele><time>2026-04-25T08:23:34.666Z</time></trkpt><trkpt lat="38.054075" lon="15.8058167"><ele>1076.0</ele><time>2026-04-25T08:23:35.666Z</time></trkpt><trkpt lat="38.0541433" lon="15.8058317"><ele>1077.857142857143</ele><time>2026-04-25T08:23:36.666Z</time></trkpt><trkpt lat="38.0542067" lon="15.80585"><ele>1079.7142857142858</ele><time>2026-04-25T08:23:37.666Z</time></trkpt><trkpt lat="38.054275" lon="15.8058683"><ele>1081.5714285714287</ele><time>2026-04-25T08:23:38.666Z</time></trkpt><trkpt lat="38.05434" lon="15.8058883"><ele>1083.4285714285716</ele><time>2026-04-25T08:23:39.666Z</time></trkpt><trkpt lat="38.0544033" lon="15.805905"><ele>1085.2857142857142</ele><time>2026-04-25T08:23:40.666Z</time></trkpt><trkpt lat="38.05447" lon="15.80591"><ele>1087.1428571428573</ele><time>2026-04-25T08:23:41.666Z</time></trkpt><trkpt lat="38.054535" lon="15.8059233"><ele>1089.0</ele><time>2026-04-25T08:23:42.666Z</time></trkpt><trkpt lat="38.0546067" lon="15.8059383"><ele>1089.0</ele><time>2026-04-25T08:23:43.666Z</time></trkpt><trkpt lat="38.05467" lon="15.8059667"><ele>1089.0</ele><time>2026-04-25T08:23:44.666Z</time></trkpt><trkpt lat="38.05474" lon="15.80599"><ele>1089.0</ele><time>2026-04-25T08:23:45.666Z</time></trkpt><trkpt lat="38.0548017" lon="15.8060117"><ele>1089.0</ele><time>2026-04-25T08:23:46.666Z</time></trkpt><trkpt lat="38.0548883" lon="15.8060383"><ele>1089.0</ele><time>2026-04-25T08:23:48.666Z</time></trkpt><trkpt lat="38.0549633" lon="15.8059783"><ele>1089.0</ele><time>2026-04-25T08:23:52.666Z</time></trkpt><trkpt lat="38.055015" lon="15.8058817"><ele>1091.1666666666667</ele><time>2026-04-25T08:23:54.666Z</time></trkpt><trkpt lat="38.055095" lon="15.8058833"><ele>1093.3333333333333</ele><time>2026-04-25T08:23:57.666Z</time></trkpt><trkpt lat="38.055115" lon="15.806005"><ele>1095.5</ele><time>2026-04-25T08:23:59.666Z</time></trkpt><trkpt lat="38.05511" lon="15.80611"><ele>1097.6666666666665</ele><time>2026-04-25T08:24:00.666Z</time></trkpt><trkpt lat="38.055125" lon="15.806225"><ele>1099.8333333333333</ele><time>2026-04-25T08:24:01.666Z</time></trkpt><trkpt lat="38.0551667" lon="15.8062967"><ele>1102.0</ele><time>2026-04-25T08:24:02.666Z</time></trkpt><trkpt lat="38.0552183" lon="15.806405"><ele>1102.0</ele><time>2026-04-25T08:24:04.666Z</time></trkpt><trkpt lat="38.0553183" lon="15.8064633"><ele>1102.0</ele><time>2026-04-25T08:24:06.666Z</time></trkpt><trkpt lat="38.0553817" lon="15.80647"><ele>1102.0</ele><time>2026-04-25T08:24:07.667Z</time></trkpt><trkpt lat="38.055445" lon="15.8064683"><ele>1102.0</ele><time>2026-04-25T08:24:08.666Z</time></trkpt><trkpt lat="38.05551" lon="15.8064417"><ele>1102.0</ele><time>2026-04-25T08:24:09.666Z</time></trkpt><trkpt lat="38.055575" lon="15.8064083"><ele>1102.0</ele><time>2026-04-25T08:24:10.666Z</time></trkpt><trkpt lat="38.0556417" lon="15.8063633"><ele>1102.0</ele><time>2026-04-25T08:24:11.667Z</time></trkpt><trkpt lat="38.0556967" lon="15.80632"><ele>1102.0</ele><time>2026-04-25T08:24:12.666Z</time></trkpt><trkpt lat="38.0557467" lon="15.8062583"><ele>1102.0</ele><time>2026-04-25T08:24:13.666Z</time></trkpt><trkpt lat="38.05579" lon="15.8061933"><ele>1102.0</ele><time>2026-04-25T08:24:14.667Z</time></trkpt><trkpt lat="38.0558367" lon="15.8061267"><ele>1102.0</ele><time>2026-04-25T08:24:15.667Z</time></trkpt><trkpt lat="38.0558883" lon="15.8060633"><ele>1102.0</ele><time>2026-04-25T08:24:16.666Z</time></trkpt><trkpt lat="38.05598" lon="15.8059567"><ele>1103.8333333333333</ele><time>2026-04-25T08:24:18.666Z</time></trkpt><trkpt lat="38.0560367" lon="15.8059083"><ele>1105.6666666666665</ele><time>2026-04-25T08:24:19.666Z</time></trkpt><trkpt lat="38.056105" lon="15.805855"><ele>1107.5</ele><time>2026-04-25T08:24:20.666Z</time></trkpt><trkpt lat="38.0561933" lon="15.8058033"><ele>1109.3333333333333</ele><time>2026-04-25T08:24:21.666Z</time></trkpt><trkpt lat="38.0562817" lon="15.8057633"><ele>1111.1666666666667</ele><time>2026-04-25T08:24:22.667Z</time></trkpt><trkpt lat="38.056385" lon="15.805735"><ele>1113.0</ele><time>2026-04-25T08:24:23.666Z</time></trkpt><trkpt lat="38.056485" lon="15.8057167"><ele>1113.0</ele><time>2026-04-25T08:24:24.667Z</time></trkpt><trkpt lat="38.05657" lon="15.805695"><ele>1113.0</ele><time>2026-04-25T08:24:25.666Z</time></trkpt><trkpt lat="38.056635" lon="15.805655"><ele>1113.0</ele><time>2026-04-25T08:24:27.666Z</time></trkpt><trkpt lat="38.0566617" lon="15.805575"><ele>1113.0</ele><time>2026-04-25T08:24:29.666Z</time></trkpt><trkpt lat="38.05666" lon="15.805445"><ele>1113.0</ele><time>2026-04-25T08:24:31.666Z</time></trkpt><trkpt lat="38.05666" lon="15.8052817"><ele>1114.3333333333333</ele><time>2026-04-25T08:24:33.666Z</time></trkpt><trkpt lat="38.05667" lon="15.8051833"><ele>1115.6666666666667</ele><time>2026-04-25T08:24:34.666Z</time></trkpt><trkpt lat="38.05667" lon="15.8050867"><ele>1117.0</ele><time>2026-04-25T08:24:35.666Z</time></trkpt><trkpt lat="38.056675" lon="15.8049883"><ele>1118.3333333333335</ele><time>2026-04-25T08:24:36.666Z</time></trkpt><trkpt lat="38.0566767" lon="15.8048917"><ele>1119.6666666666667</ele><time>2026-04-25T08:24:37.666Z</time></trkpt><trkpt lat="38.05668" lon="15.8047867"><ele>1121.0</ele><time>2026-04-25T08:24:38.666Z</time></trkpt><trkpt lat="38.0566917" lon="15.80467"><ele>1121.0</ele><time>2026-04-25T08:24:39.667Z</time></trkpt><trkpt lat="38.056715" lon="15.804545"><ele>1121.0</ele><time>2026-04-25T08:24:40.666Z</time></trkpt><trkpt lat="38.0567467" lon="15.8044133"><ele>1121.0</ele><time>2026-04-25T08:24:41.666Z</time></trkpt><trkpt lat="38.0567867" lon="15.8042733"><ele>1121.0</ele><time>2026-04-25T08:24:42.667Z</time></trkpt><trkpt lat="38.0568283" lon="15.804135"><ele>1121.0</ele><time>2026-04-25T08:24:43.666Z</time></trkpt><trkpt lat="38.0568533" lon="15.8040083"><ele>1119.6</ele><time>2026-04-25T08:24:44.666Z</time></trkpt><trkpt lat="38.05689" lon="15.80387"><ele>1118.1999999999998</ele><time>2026-04-25T08:24:45.666Z</time></trkpt><trkpt lat="38.0569283" lon="15.8037417"><ele>1116.8000000000002</ele><time>2026-04-25T08:24:46.666Z</time></trkpt><trkpt lat="38.0569633" lon="15.8036167"><ele>1115.4</ele><time>2026-04-25T08:24:47.667Z</time></trkpt><trkpt lat="38.0570133" lon="15.8034917"><ele>1114.0</ele><time>2026-04-25T08:24:48.666Z</time></trkpt><trkpt lat="38.0570717" lon="15.8033533"><ele>1114.0</ele><time>2026-04-25T08:24:49.666Z</time></trkpt><trkpt lat="38.0571317" lon="15.8032217"><ele>1114.0</ele><time>2026-04-25T08:24:50.666Z</time></trkpt><trkpt lat="38.057205" lon="15.8031"><ele>1114.0</ele><time>2026-04-25T08:24:51.667Z</time></trkpt><trkpt lat="38.0573083" lon="15.8029717"><ele>1114.0</ele><time>2026-04-25T08:24:52.666Z</time></trkpt><trkpt lat="38.05743" lon="15.8028383"><ele>1114.3333333333333</ele><time>2026-04-25T08:24:53.666Z</time></trkpt><trkpt lat="38.0575567" lon="15.8026817"><ele>1114.6666666666667</ele><time>2026-04-25T08:24:54.666Z</time></trkpt><trkpt lat="38.0577017" lon="15.8025067"><ele>1115.0</ele><time>2026-04-25T08:24:55.666Z</time></trkpt><trkpt lat="38.0578383" lon="15.8023533"><ele>1115.0</ele><time>2026-04-25T08:24:56.666Z</time></trkpt><trkpt lat="38.0579817" lon="15.8022083"><ele>1115.0</ele><time>2026-04-25T08:24:57.667Z</time></trkpt><trkpt lat="38.05811" lon="15.802075"><ele>1115.0</ele><time>2026-04-25T08:24:58.666Z</time></trkpt><trkpt lat="38.0582217" lon="15.8019417"><ele>1115.5</ele><time>2026-04-25T08:24:59.666Z</time></trkpt><trkpt lat="38.058325" lon="15.801825"><ele>1116.0</ele><time>2026-04-25T08:25:00.667Z</time></trkpt><trkpt lat="38.0584317" lon="15.8017017"><ele>1116.5</ele><time>2026-04-25T08:25:01.666Z</time></trkpt><trkpt lat="38.0585433" lon="15.8015733"><ele>1117.0</ele><time>2026-04-25T08:25:02.666Z</time></trkpt><trkpt lat="38.0586667" lon="15.80144"><ele>1117.0</ele><time>2026-04-25T08:25:03.666Z</time></trkpt><trkpt lat="38.0587767" lon="15.8013183"><ele>1117.0</ele><time>2026-04-25T08:25:04.667Z</time></trkpt><trkpt lat="38.0588783" lon="15.801195"><ele>1117.0</ele><time>2026-04-25T08:25:05.666Z</time></trkpt><trkpt lat="38.0589667" lon="15.80109"><ele>1117.0</ele><time>2026-04-25T08:25:06.666Z</time></trkpt><trkpt lat="38.0590417" lon="15.8010067"><ele>1116.8</ele><time>2026-04-25T08:25:07.667Z</time></trkpt><trkpt lat="38.0590883" lon="15.800925"><ele>1116.6</ele><time>2026-04-25T08:25:08.666Z</time></trkpt><trkpt lat="38.0591233" lon="15.8008333"><ele>1116.3999999999999</ele><time>2026-04-25T08:25:09.666Z</time></trkpt><trkpt lat="38.059145" lon="15.80073"><ele>1116.2</ele><time>2026-04-25T08:25:10.666Z</time></trkpt><trkpt lat="38.0591567" lon="15.8006"><ele>1116.0</ele><time>2026-04-25T08:25:11.667Z</time></trkpt><trkpt lat="38.05917" lon="15.8004383"><ele>1116.0</ele><time>2026-04-25T08:25:12.666Z</time></trkpt><trkpt lat="38.0591767" lon="15.800265"><ele>1116.0</ele><time>2026-04-25T08:25:13.666Z</time></trkpt><trkpt lat="38.059185" lon="15.8000983"><ele>1116.0</ele><time>2026-04-25T08:25:14.667Z</time></trkpt><trkpt lat="38.0591917" lon="15.7999633"><ele>1116.0</ele><time>2026-04-25T08:25:15.666Z</time></trkpt><trkpt lat="38.0591983" lon="15.7998633"><ele>1116.0</ele><time>2026-04-25T08:25:16.667Z</time></trkpt><trkpt lat="38.059205" lon="15.799755"><ele>1116.0</ele><time>2026-04-25T08:25:18.666Z</time></trkpt><trkpt lat="38.0591533" lon="15.7998933"><ele>1116.0</ele><time>2026-04-25T08:25:27.666Z</time></trkpt><trkpt lat="38.0591533" lon="15.8000183"><ele>1116.0</ele><time>2026-04-25T08:25:28.666Z</time></trkpt><trkpt lat="38.0591483" lon="15.800195"><ele>1116.0</ele><time>2026-04-25T08:25:29.667Z</time></trkpt><trkpt lat="38.0591383" lon="15.80039"><ele>1116.0</ele><time>2026-04-25T08:25:30.666Z</time></trkpt><trkpt lat="38.059125" lon="15.8005483"><ele>1116.0</ele><time>2026-04-25T08:25:31.667Z</time></trkpt><trkpt lat="38.0591117" lon="15.8006617"><ele>1116.0</ele><time>2026-04-25T08:25:32.666Z</time></trkpt><trkpt lat="38.0591" lon="15.8007567"><ele>1116.0</ele><time>2026-04-25T08:25:34.667Z</time></trkpt><trkpt lat="38.05918" lon="15.80074"><ele>1116.0</ele><time>2026-04-25T08:25:40.666Z</time></trkpt><trkpt lat="38.0593033" lon="15.8007533"><ele>1116.0</ele><time>2026-04-25T08:25:42.666Z</time></trkpt><trkpt lat="38.0593683" lon="15.80076"><ele>1116.0</ele><time>2026-04-25T08:25:43.667Z</time></trkpt><trkpt lat="38.0594833" lon="15.8007267"><ele>1116.0</ele><time>2026-04-25T08:25:45.666Z</time></trkpt><trkpt lat="38.0595617" lon="15.800675"><ele>1116.0</ele><time>2026-04-25T08:25:46.666Z</time></trkpt><trkpt lat="38.05965" lon="15.80063"><ele>1116.0</ele><time>2026-04-25T08:25:47.666Z</time></trkpt><trkpt lat="38.0597467" lon="15.80059"><ele>1116.0</ele><time>2026-04-25T08:25:48.666Z</time></trkpt><trkpt lat="38.059845" lon="15.8005467"><ele>1116.0</ele><time>2026-04-25T08:25:49.666Z</time></trkpt><trkpt lat="38.0599317" lon="15.800505"><ele>1116.0</ele><time>2026-04-25T08:25:50.666Z</time></trkpt><trkpt lat="38.0600283" lon="15.80046"><ele>1116.0</ele><time>2026-04-25T08:25:51.667Z</time></trkpt><trkpt lat="38.0601117" lon="15.80043"><ele>1116.0</ele><time>2026-04-25T08:25:52.666Z</time></trkpt><trkpt lat="38.0601967" lon="15.80041"><ele>1117.3999999999999</ele><time>2026-04-25T08:25:53.667Z</time></trkpt><trkpt lat="38.0602833" lon="15.8003867"><ele>1118.8</ele><time>2026-04-25T08:25:54.666Z</time></trkpt><trkpt lat="38.0603683" lon="15.8003583"><ele>1120.1999999999998</ele><time>2026-04-25T08:25:55.666Z</time></trkpt><trkpt lat="38.0604567" lon="15.800315"><ele>1121.6</ele><time>2026-04-25T08:25:56.666Z</time></trkpt><trkpt lat="38.06054" lon="15.8002533"><ele>1123.0</ele><time>2026-04-25T08:25:57.666Z</time></trkpt><trkpt lat="38.060625" lon="15.80018"><ele>1122.8</ele><time>2026-04-25T08:25:58.666Z</time></trkpt><trkpt lat="38.06072" lon="15.800115"><ele>1122.6</ele><time>2026-04-25T08:25:59.666Z</time></trkpt><trkpt lat="38.0608167" lon="15.8000783"><ele>1122.4</ele><time>2026-04-25T08:26:00.666Z</time></trkpt><trkpt lat="38.0609117" lon="15.80007"><ele>1122.2</ele><time>2026-04-25T08:26:01.666Z</time></trkpt><trkpt lat="38.0610083" lon="15.8000633"><ele>1122.0</ele><time>2026-04-25T08:26:02.666Z</time></trkpt><trkpt lat="38.0610983" lon="15.80007"><ele>1122.0</ele><time>2026-04-25T08:26:03.666Z</time></trkpt><trkpt lat="38.0611783" lon="15.8000717"><ele>1122.0</ele><time>2026-04-25T08:26:04.666Z</time></trkpt><trkpt lat="38.0612517" lon="15.80005"><ele>1122.0</ele><time>2026-04-25T08:26:05.666Z</time></trkpt><trkpt lat="38.0613217" lon="15.8000217"><ele>1122.0</ele><time>2026-04-25T08:26:06.666Z</time></trkpt><trkpt lat="38.06143" lon="15.7999617"><ele>1122.0</ele><time>2026-04-25T08:26:08.666Z</time></trkpt><trkpt lat="38.061515" lon="15.7999233"><ele>1122.0</ele><time>2026-04-25T08:26:10.667Z</time></trkpt><trkpt lat="38.061625" lon="15.79988"><ele>1121.5</ele><time>2026-04-25T08:26:12.666Z</time></trkpt><trkpt lat="38.0616917" lon="15.799845"><ele>1121.0</ele><time>2026-04-25T08:26:13.666Z</time></trkpt><trkpt lat="38.06175" lon="15.7998"><ele>1120.5</ele><time>2026-04-25T08:26:14.667Z</time></trkpt><trkpt lat="38.0618033" lon="15.799755"><ele>1120.0</ele><time>2026-04-25T08:26:15.667Z</time></trkpt><trkpt lat="38.0618533" lon="15.799705"><ele>1119.5</ele><time>2026-04-25T08:26:16.666Z</time></trkpt><trkpt lat="38.0619317" lon="15.7996017"><ele>1119.0</ele><time>2026-04-25T08:26:18.666Z</time></trkpt><trkpt lat="38.062" lon="15.79952"><ele>1119.0</ele><time>2026-04-25T08:26:20.666Z</time></trkpt><trkpt lat="38.06205" lon="15.7994283"><ele>1119.0</ele><time>2026-04-25T08:26:22.666Z</time></trkpt><trkpt lat="38.0620783" lon="15.7993033"><ele>1119.0</ele><time>2026-04-25T08:26:24.667Z</time></trkpt><trkpt lat="38.0620933" lon="15.79918"><ele>1119.0</ele><time>2026-04-25T08:26:26.666Z</time></trkpt><trkpt lat="38.0621567" lon="15.7991417"><ele>1119.0</ele><time>2026-04-25T08:26:45.667Z</time></trkpt><trkpt lat="38.062145" lon="15.79925"><ele>1119.0</ele><time>2026-04-25T08:26:48.666Z</time></trkpt><trkpt lat="38.0621383" lon="15.7994067"><ele>1119.0</ele><time>2026-04-25T08:26:50.667Z</time></trkpt><trkpt lat="38.0621317" lon="15.7995033"><ele>1119.0</ele><time>2026-04-25T08:26:51.666Z</time></trkpt><trkpt lat="38.062115" lon="15.7995833"><ele>1119.0</ele><time>2026-04-25T08:26:52.666Z</time></trkpt><trkpt lat="38.0621167" lon="15.7996717"><ele>1119.0</ele><time>2026-04-25T08:26:54.666Z</time></trkpt><trkpt lat="38.062185" lon="15.79971"><ele>1119.0</ele><time>2026-04-25T08:26:57.666Z</time></trkpt><trkpt lat="38.0622467" lon="15.79973"><ele>1119.0</ele><time>2026-04-25T08:28:03.666Z</time></trkpt><trkpt lat="38.06233" lon="15.79971"><ele>1119.0</ele><time>2026-04-25T08:28:06.666Z</time></trkpt><trkpt lat="38.0624267" lon="15.79969"><ele>1117.5</ele><time>2026-04-25T08:28:12.666Z</time></trkpt><trkpt lat="38.06251" lon="15.7997217"><ele>1116.0</ele><time>2026-04-25T08:28:16.666Z</time></trkpt><trkpt lat="38.0625867" lon="15.799735"><ele>1114.5</ele><time>2026-04-25T08:28:23.666Z</time></trkpt><trkpt lat="38.0626733" lon="15.7997733"><ele>1113.0</ele><time>2026-04-25T08:28:26.666Z</time></trkpt><trkpt lat="38.062735" lon="15.7997983"><ele>1111.5</ele><time>2026-04-25T08:28:28.666Z</time></trkpt><trkpt lat="38.0628183" lon="15.7998167"><ele>1110.0</ele><time>2026-04-25T08:28:31.667Z</time></trkpt><trkpt lat="38.06289" lon="15.7998467"><ele>1110.0</ele><time>2026-04-25T08:29:32.666Z</time></trkpt><trkpt lat="38.06298" lon="15.799885"><ele>1110.0</ele><time>2026-04-25T08:29:34.666Z</time></trkpt><trkpt lat="38.063085" lon="15.7999117"><ele>1110.0</ele><time>2026-04-25T08:29:36.666Z</time></trkpt><trkpt lat="38.0632" lon="15.7999767"><ele>1110.0</ele><time>2026-04-25T08:29:38.666Z</time></trkpt><trkpt lat="38.0633183" lon="15.8000167"><ele>1110.8333333333333</ele><time>2026-04-25T08:29:40.666Z</time></trkpt><trkpt lat="38.0633983" lon="15.8000383"><ele>1111.6666666666667</ele><time>2026-04-25T08:29:41.666Z</time></trkpt><trkpt lat="38.06348" lon="15.8000767"><ele>1112.5</ele><time>2026-04-25T08:29:42.666Z</time></trkpt><trkpt lat="38.0635517" lon="15.8001117"><ele>1113.3333333333335</ele><time>2026-04-25T08:29:43.666Z</time></trkpt><trkpt lat="38.0636267" lon="15.8001433"><ele>1114.1666666666667</ele><time>2026-04-25T08:29:44.666Z</time></trkpt><trkpt lat="38.06371" lon="15.8001733"><ele>1115.0</ele><time>2026-04-25T08:29:45.666Z</time></trkpt><trkpt lat="38.0637883" lon="15.8002017"><ele>1115.0</ele><time>2026-04-25T08:29:46.666Z</time></trkpt><trkpt lat="38.0638617" lon="15.8002333"><ele>1115.0</ele><time>2026-04-25T08:29:47.666Z</time></trkpt><trkpt lat="38.0639317" lon="15.80026"><ele>1115.0</ele><time>2026-04-25T08:29:48.666Z</time></trkpt><trkpt lat="38.064005" lon="15.8002767"><ele>1115.0</ele><time>2026-04-25T08:29:49.666Z</time></trkpt><trkpt lat="38.064075" lon="15.800275"><ele>1115.0</ele><time>2026-04-25T08:29:50.666Z</time></trkpt><trkpt lat="38.0641533" lon="15.8002683"><ele>1115.0</ele><time>2026-04-25T08:29:51.667Z</time></trkpt><trkpt lat="38.0642333" lon="15.800265"><ele>1116.6</ele><time>2026-04-25T08:29:52.667Z</time></trkpt><trkpt lat="38.0643217" lon="15.8002667"><ele>1118.2</ele><time>2026-04-25T08:29:53.666Z</time></trkpt><trkpt lat="38.0644183" lon="15.8002683"><ele>1119.8</ele><time>2026-04-25T08:29:54.666Z</time></trkpt><trkpt lat="38.0645067" lon="15.8002583"><ele>1121.4</ele><time>2026-04-25T08:29:55.666Z</time></trkpt><trkpt lat="38.0646" lon="15.80025"><ele>1123.0</ele><time>2026-04-25T08:29:56.666Z</time></trkpt><trkpt lat="38.0646917" lon="15.8002333"><ele>1123.0</ele><time>2026-04-25T08:29:57.666Z</time></trkpt><trkpt lat="38.0647817" lon="15.800215"><ele>1123.0</ele><time>2026-04-25T08:29:58.666Z</time></trkpt><trkpt lat="38.0648667" lon="15.800185"><ele>1123.0</ele><time>2026-04-25T08:29:59.666Z</time></trkpt><trkpt lat="38.0649517" lon="15.8001533"><ele>1123.0</ele><time>2026-04-25T08:30:00.666Z</time></trkpt><trkpt lat="38.06503" lon="15.8001167"><ele>1123.0</ele><time>2026-04-25T08:30:01.667Z</time></trkpt><trkpt lat="38.0650983" lon="15.8000967"><ele>1123.0</ele><time>2026-04-25T08:30:02.666Z</time></trkpt><trkpt lat="38.0651683" lon="15.800085"><ele>1123.3333333333333</ele><time>2026-04-25T08:30:03.666Z</time></trkpt><trkpt lat="38.0652433" lon="15.8001483"><ele>1123.6666666666665</ele><time>2026-04-25T08:30:05.667Z</time></trkpt><trkpt lat="38.06527" lon="15.8002283"><ele>1124.0</ele><time>2026-04-25T08:30:06.667Z</time></trkpt><trkpt lat="38.0652783" lon="15.8003317"><ele>1124.3333333333333</ele><time>2026-04-25T08:30:07.667Z</time></trkpt><trkpt lat="38.065295" lon="15.8004433"><ele>1124.6666666666667</ele><time>2026-04-25T08:30:08.666Z</time></trkpt><trkpt lat="38.0653167" lon="15.8005667"><ele>1125.0</ele><time>2026-04-25T08:30:09.666Z</time></trkpt><trkpt lat="38.0653517" lon="15.800715"><ele>1125.0</ele><time>2026-04-25T08:30:10.666Z</time></trkpt><trkpt lat="38.0653883" lon="15.8008767"><ele>1125.0</ele><time>2026-04-25T08:30:11.666Z</time></trkpt><trkpt lat="38.0654367" lon="15.8010083"><ele>1125.0</ele><time>2026-04-25T08:30:12.666Z</time></trkpt><trkpt lat="38.0654667" lon="15.80112"><ele>1125.0</ele><time>2026-04-25T08:30:13.666Z</time></trkpt><trkpt lat="38.065485" lon="15.8012133"><ele>1125.0</ele><time>2026-04-25T08:30:14.667Z</time></trkpt><trkpt lat="38.0654883" lon="15.801305"><ele>1125.0</ele><time>2026-04-25T08:30:15.666Z</time></trkpt><trkpt lat="38.0654883" lon="15.8013967"><ele>1125.0</ele><time>2026-04-25T08:30:16.666Z</time></trkpt><trkpt lat="38.065495" lon="15.8014933"><ele>1125.0</ele><time>2026-04-25T08:30:17.666Z</time></trkpt><trkpt lat="38.0655017" lon="15.8016033"><ele>1125.0</ele><time>2026-04-25T08:30:18.666Z</time></trkpt><trkpt lat="38.0655083" lon="15.8017167"><ele>1125.0</ele><time>2026-04-25T08:30:19.666Z</time></trkpt><trkpt lat="38.0655083" lon="15.801845"><ele>1125.0</ele><time>2026-04-25T08:30:20.667Z</time></trkpt><trkpt lat="38.0655017" lon="15.8019867"><ele>1125.0</ele><time>2026-04-25T08:30:21.666Z</time></trkpt><trkpt lat="38.0654983" lon="15.8021417"><ele>1125.0</ele><time>2026-04-25T08:30:22.666Z</time></trkpt><trkpt lat="38.0655167" lon="15.8023"><ele>1125.0</ele><time>2026-04-25T08:30:23.666Z</time></trkpt><trkpt lat="38.0655417" lon="15.8024567"><ele>1125.0</ele><time>2026-04-25T08:30:24.666Z</time></trkpt><trkpt lat="38.0655717" lon="15.8026017"><ele>1125.8</ele><time>2026-04-25T08:30:25.666Z</time></trkpt><trkpt lat="38.065605" lon="15.80272"><ele>1126.6</ele><time>2026-04-25T08:30:26.666Z</time></trkpt><trkpt lat="38.06565" lon="15.802825"><ele>1127.4</ele><time>2026-04-25T08:30:27.666Z</time></trkpt><trkpt lat="38.06569" lon="15.8029517"><ele>1128.2</ele><time>2026-04-25T08:30:28.666Z</time></trkpt><trkpt lat="38.0657317" lon="15.8030883"><ele>1129.0</ele><time>2026-04-25T08:30:29.666Z</time></trkpt><trkpt lat="38.0657667" lon="15.8032317"><ele>1129.4</ele><time>2026-04-25T08:30:30.666Z</time></trkpt><trkpt lat="38.0658067" lon="15.80338"><ele>1129.8000000000002</ele><time>2026-04-25T08:30:31.667Z</time></trkpt><trkpt lat="38.0658517" lon="15.80352"><ele>1130.1999999999998</ele><time>2026-04-25T08:30:32.666Z</time></trkpt><trkpt lat="38.0658867" lon="15.8036433"><ele>1130.6</ele><time>2026-04-25T08:30:33.666Z</time></trkpt><trkpt lat="38.065915" lon="15.803755"><ele>1131.0</ele><time>2026-04-25T08:30:34.667Z</time></trkpt><trkpt lat="38.0659333" lon="15.8038617"><ele>1131.8333333333333</ele><time>2026-04-25T08:30:35.666Z</time></trkpt><trkpt lat="38.0659567" lon="15.8039583"><ele>1132.6666666666667</ele><time>2026-04-25T08:30:36.666Z</time></trkpt><trkpt lat="38.0659733" lon="15.80406"><ele>1133.5</ele><time>2026-04-25T08:30:37.666Z</time></trkpt><trkpt lat="38.065995" lon="15.804175"><ele>1134.3333333333335</ele><time>2026-04-25T08:30:38.667Z</time></trkpt><trkpt lat="38.0660183" lon="15.8042883"><ele>1135.1666666666667</ele><time>2026-04-25T08:30:39.667Z</time></trkpt><trkpt lat="38.0660367" lon="15.8044033"><ele>1136.0</ele><time>2026-04-25T08:30:40.666Z</time></trkpt><trkpt lat="38.066045" lon="15.8045067"><ele>1136.5</ele><time>2026-04-25T08:30:41.666Z</time></trkpt><trkpt lat="38.06605" lon="15.8046117"><ele>1137.0</ele><time>2026-04-25T08:30:42.666Z</time></trkpt><trkpt lat="38.06606" lon="15.8047333"><ele>1137.5</ele><time>2026-04-25T08:30:43.666Z</time></trkpt><trkpt lat="38.0660717" lon="15.8048517"><ele>1138.0</ele><time>2026-04-25T08:30:44.666Z</time></trkpt><trkpt lat="38.0660783" lon="15.8049483"><ele>1138.5</ele><time>2026-04-25T08:30:45.667Z</time></trkpt><trkpt lat="38.06608" lon="15.8050333"><ele>1139.0</ele><time>2026-04-25T08:30:46.666Z</time></trkpt><trkpt lat="38.0660767" lon="15.8051183"><ele>1139.3333333333335</ele><time>2026-04-25T08:30:47.666Z</time></trkpt><trkpt lat="38.0660733" lon="15.8052083"><ele>1139.6666666666667</ele><time>2026-04-25T08:30:48.666Z</time></trkpt><trkpt lat="38.0660733" lon="15.8053117"><ele>1140.0</ele><time>2026-04-25T08:30:49.667Z</time></trkpt><trkpt lat="38.0660833" lon="15.8054133"><ele>1140.3333333333333</ele><time>2026-04-25T08:30:50.666Z</time></trkpt><trkpt lat="38.0661083" lon="15.8055033"><ele>1140.6666666666665</ele><time>2026-04-25T08:30:51.666Z</time></trkpt><trkpt lat="38.0661317" lon="15.8056067"><ele>1141.0</ele><time>2026-04-25T08:30:52.666Z</time></trkpt><trkpt lat="38.0661467" lon="15.8057083"><ele>1141.0</ele><time>2026-04-25T08:30:53.666Z</time></trkpt><trkpt lat="38.0661517" lon="15.8058067"><ele>1141.0</ele><time>2026-04-25T08:30:54.666Z</time></trkpt><trkpt lat="38.0661583" lon="15.8059017"><ele>1141.0</ele><time>2026-04-25T08:30:55.666Z</time></trkpt><trkpt lat="38.0661767" lon="15.805985"><ele>1141.0</ele><time>2026-04-25T08:30:56.666Z</time></trkpt><trkpt lat="38.06619" lon="15.8060717"><ele>1141.0</ele><time>2026-04-25T08:30:57.666Z</time></trkpt><trkpt lat="38.0662017" lon="15.8061683"><ele>1141.0</ele><time>2026-04-25T08:30:58.666Z</time></trkpt><trkpt lat="38.0662183" lon="15.8062767"><ele>1141.3333333333333</ele><time>2026-04-25T08:30:59.666Z</time></trkpt><trkpt lat="38.0662267" lon="15.80638"><ele>1141.6666666666665</ele><time>2026-04-25T08:31:00.666Z</time></trkpt><trkpt lat="38.0662467" lon="15.8064783"><ele>1142.0</ele><time>2026-04-25T08:31:01.667Z</time></trkpt><trkpt lat="38.06628" lon="15.806565"><ele>1142.3333333333333</ele><time>2026-04-25T08:31:02.666Z</time></trkpt><trkpt lat="38.0663133" lon="15.80666"><ele>1142.6666666666667</ele><time>2026-04-25T08:31:03.666Z</time></trkpt><trkpt lat="38.0663467" lon="15.80677"><ele>1143.0</ele><time>2026-04-25T08:31:04.666Z</time></trkpt><trkpt lat="38.066375" lon="15.8069"><ele>1143.6</ele><time>2026-04-25T08:31:05.666Z</time></trkpt><trkpt lat="38.0664" lon="15.80704"><ele>1144.1999999999998</ele><time>2026-04-25T08:31:06.666Z</time></trkpt><trkpt lat="38.06643" lon="15.8071833"><ele>1144.8</ele><time>2026-04-25T08:31:07.667Z</time></trkpt><trkpt lat="38.066455" lon="15.8073133"><ele>1145.3999999999999</ele><time>2026-04-25T08:31:08.666Z</time></trkpt><trkpt lat="38.0664733" lon="15.80743"><ele>1146.0</ele><time>2026-04-25T08:31:09.666Z</time></trkpt><trkpt lat="38.0664967" lon="15.8075483"><ele>1146.0</ele><time>2026-04-25T08:31:10.666Z</time></trkpt><trkpt lat="38.066515" lon="15.8076567"><ele>1146.0</ele><time>2026-04-25T08:31:11.666Z</time></trkpt><trkpt lat="38.0665367" lon="15.8077617"><ele>1146.0</ele><time>2026-04-25T08:31:12.666Z</time></trkpt><trkpt lat="38.06656" lon="15.80787"><ele>1146.0</ele><time>2026-04-25T08:31:13.666Z</time></trkpt><trkpt lat="38.06658" lon="15.8079933"><ele>1146.0</ele><time>2026-04-25T08:31:14.666Z</time></trkpt><trkpt lat="38.0665983" lon="15.8081267"><ele>1146.8</ele><time>2026-04-25T08:31:15.666Z</time></trkpt><trkpt lat="38.0666167" lon="15.8082633"><ele>1147.6</ele><time>2026-04-25T08:31:16.666Z</time></trkpt><trkpt lat="38.0666317" lon="15.808395"><ele>1148.4</ele><time>2026-04-25T08:31:17.666Z</time></trkpt><trkpt lat="38.0666533" lon="15.8085117"><ele>1149.2</ele><time>2026-04-25T08:31:18.667Z</time></trkpt><trkpt lat="38.0666733" lon="15.808635"><ele>1150.0</ele><time>2026-04-25T08:31:19.666Z</time></trkpt><trkpt lat="38.0666983" lon="15.8087683"><ele>1150.0</ele><time>2026-04-25T08:31:20.666Z</time></trkpt><trkpt lat="38.0667333" lon="15.80892"><ele>1150.0</ele><time>2026-04-25T08:31:21.666Z</time></trkpt><trkpt lat="38.0667833" lon="15.8090817"><ele>1150.0</ele><time>2026-04-25T08:31:22.667Z</time></trkpt><trkpt lat="38.0668267" lon="15.8092217"><ele>1150.0</ele><time>2026-04-25T08:31:23.667Z</time></trkpt><trkpt lat="38.0668683" lon="15.809375"><ele>1150.3333333333333</ele><time>2026-04-25T08:31:24.667Z</time></trkpt><trkpt lat="38.0669383" lon="15.80955"><ele>1150.6666666666667</ele><time>2026-04-25T08:31:25.666Z</time></trkpt><trkpt lat="38.067005" lon="15.809745"><ele>1151.0</ele><time>2026-04-25T08:31:26.666Z</time></trkpt><trkpt lat="38.0670683" lon="15.80992"><ele>1151.0</ele><time>2026-04-25T08:31:27.666Z</time></trkpt><trkpt lat="38.0671333" lon="15.8100483"><ele>1151.0</ele><time>2026-04-25T08:31:28.666Z</time></trkpt><trkpt lat="38.0671867" lon="15.8101367"><ele>1151.0</ele><time>2026-04-25T08:31:29.667Z</time></trkpt><trkpt lat="38.06723" lon="15.8102033"><ele>1151.0</ele><time>2026-04-25T08:31:30.666Z</time></trkpt><trkpt lat="38.0673067" lon="15.8103267"><ele>1151.0</ele><time>2026-04-25T08:31:32.666Z</time></trkpt><trkpt lat="38.067345" lon="15.8104017"><ele>1152.0</ele><time>2026-04-25T08:31:33.666Z</time></trkpt><trkpt lat="38.06738" lon="15.81048"><ele>1153.0</ele><time>2026-04-25T08:31:34.666Z</time></trkpt><trkpt lat="38.0674217" lon="15.8105433"><ele>1154.0</ele><time>2026-04-25T08:31:35.666Z</time></trkpt><trkpt lat="38.06747" lon="15.810605"><ele>1155.0</ele><time>2026-04-25T08:31:36.666Z</time></trkpt><trkpt lat="38.0675733" lon="15.8107"><ele>1156.0</ele><time>2026-04-25T08:31:38.666Z</time></trkpt><trkpt lat="38.067625" lon="15.8107483"><ele>1157.0</ele><time>2026-04-25T08:31:39.667Z</time></trkpt><trkpt lat="38.0676833" lon="15.810805"><ele>1157.2</ele><time>2026-04-25T08:31:40.666Z</time></trkpt><trkpt lat="38.0677533" lon="15.8108717"><ele>1157.4</ele><time>2026-04-25T08:31:41.666Z</time></trkpt><trkpt lat="38.067835" lon="15.81093"><ele>1157.6</ele><time>2026-04-25T08:31:42.666Z</time></trkpt><trkpt lat="38.06793" lon="15.810995"><ele>1157.8</ele><time>2026-04-25T08:31:43.666Z</time></trkpt><trkpt lat="38.06803" lon="15.8110733"><ele>1158.0</ele><time>2026-04-25T08:31:44.666Z</time></trkpt><trkpt lat="38.0681367" lon="15.8111617"><ele>1158.4</ele><time>2026-04-25T08:31:45.666Z</time></trkpt><trkpt lat="38.068235" lon="15.8112383"><ele>1158.8</ele><time>2026-04-25T08:31:46.666Z</time></trkpt><trkpt lat="38.0682983" lon="15.8113333"><ele>1159.2</ele><time>2026-04-25T08:31:47.666Z</time></trkpt><trkpt lat="38.0683517" lon="15.8114333"><ele>1159.6</ele><time>2026-04-25T08:31:48.666Z</time></trkpt><trkpt lat="38.0683967" lon="15.81155"><ele>1160.0</ele><time>2026-04-25T08:31:49.666Z</time></trkpt><trkpt lat="38.0684317" lon="15.8117"><ele>1160.8</ele><time>2026-04-25T08:31:50.666Z</time></trkpt><trkpt lat="38.0684633" lon="15.811855"><ele>1161.6</ele><time>2026-04-25T08:31:51.666Z</time></trkpt><trkpt lat="38.0684817" lon="15.811995"><ele>1162.4</ele><time>2026-04-25T08:31:52.666Z</time></trkpt><trkpt lat="38.0685217" lon="15.8121117"><ele>1163.2</ele><time>2026-04-25T08:31:53.666Z</time></trkpt><trkpt lat="38.06858" lon="15.8122283"><ele>1164.0</ele><time>2026-04-25T08:31:54.667Z</time></trkpt><trkpt lat="38.06866" lon="15.812365"><ele>1164.0</ele><time>2026-04-25T08:31:55.666Z</time></trkpt><trkpt lat="38.0687567" lon="15.8125217"><ele>1164.0</ele><time>2026-04-25T08:31:56.666Z</time></trkpt><trkpt lat="38.06884" lon="15.81269"><ele>1164.0</ele><time>2026-04-25T08:31:57.667Z</time></trkpt><trkpt lat="38.0689167" lon="15.812865"><ele>1164.25</ele><time>2026-04-25T08:31:58.666Z</time></trkpt><trkpt lat="38.068965" lon="15.81301"><ele>1164.5</ele><time>2026-04-25T08:31:59.667Z</time></trkpt><trkpt lat="38.0690083" lon="15.8131333"><ele>1164.75</ele><time>2026-04-25T08:32:00.666Z</time></trkpt><trkpt lat="38.0690733" lon="15.8132517"><ele>1165.0</ele><time>2026-04-25T08:32:01.666Z</time></trkpt><trkpt lat="38.0691533" lon="15.8133733"><ele>1166.25</ele><time>2026-04-25T08:32:02.666Z</time></trkpt><trkpt lat="38.0692467" lon="15.8135017"><ele>1167.5</ele><time>2026-04-25T08:32:03.667Z</time></trkpt><trkpt lat="38.0693533" lon="15.8136317"><ele>1168.75</ele><time>2026-04-25T08:32:04.666Z</time></trkpt><trkpt lat="38.0694583" lon="15.81376"><ele>1170.0</ele><time>2026-04-25T08:32:05.667Z</time></trkpt><trkpt lat="38.0695533" lon="15.8138817"><ele>1170.0</ele><time>2026-04-25T08:32:06.666Z</time></trkpt><trkpt lat="38.06963" lon="15.8140067"><ele>1170.0</ele><time>2026-04-25T08:32:07.666Z</time></trkpt><trkpt lat="38.0696883" lon="15.8141217"><ele>1170.0</ele><time>2026-04-25T08:32:08.666Z</time></trkpt><trkpt lat="38.06975" lon="15.8142483"><ele>1170.0</ele><time>2026-04-25T08:32:09.666Z</time></trkpt><trkpt lat="38.06981" lon="15.8143883"><ele>1170.25</ele><time>2026-04-25T08:32:10.667Z</time></trkpt><trkpt lat="38.06987" lon="15.8145383"><ele>1170.5</ele><time>2026-04-25T08:32:11.666Z</time></trkpt><trkpt lat="38.0699167" lon="15.8146717"><ele>1170.75</ele><time>2026-04-25T08:32:12.666Z</time></trkpt><trkpt lat="38.0699467" lon="15.8148183"><ele>1171.0</ele><time>2026-04-25T08:32:13.666Z</time></trkpt><trkpt lat="38.06998" lon="15.8149833"><ele>1172.3333333333333</ele><time>2026-04-25T08:32:14.666Z</time></trkpt><trkpt lat="38.0700283" lon="15.81518"><ele>1173.6666666666667</ele><time>2026-04-25T08:32:15.666Z</time></trkpt><trkpt lat="38.0701017" lon="15.8154033"><ele>1175.0</ele><time>2026-04-25T08:32:16.666Z</time></trkpt><trkpt lat="38.0701717" lon="15.8156167"><ele>1175.0</ele><time>2026-04-25T08:32:17.666Z</time></trkpt><trkpt lat="38.0702317" lon="15.8158"><ele>1175.0</ele><time>2026-04-25T08:32:18.666Z</time></trkpt><trkpt lat="38.0702833" lon="15.8159467"><ele>1175.0</ele><time>2026-04-25T08:32:19.666Z</time></trkpt><trkpt lat="38.07032" lon="15.81606"><ele>1175.0</ele><time>2026-04-25T08:32:20.666Z</time></trkpt><trkpt lat="38.07035" lon="15.8161383"><ele>1175.0</ele><time>2026-04-25T08:32:21.666Z</time></trkpt><trkpt lat="38.0703917" lon="15.8162333"><ele>1175.0</ele><time>2026-04-25T08:32:23.666Z</time></trkpt><trkpt lat="38.0704133" lon="15.8163283"><ele>1175.0</ele><time>2026-04-25T08:32:34.667Z</time></trkpt><trkpt lat="38.0703783" lon="15.8164017"><ele>1175.0</ele><time>2026-04-25T08:32:36.666Z</time></trkpt><trkpt lat="38.0703567" lon="15.8164817"><ele>1175.0</ele><time>2026-04-25T08:32:38.666Z</time></trkpt><trkpt lat="38.0703433" lon="15.81659"><ele>1175.0</ele><time>2026-04-25T08:32:40.667Z</time></trkpt><trkpt lat="38.0703417" lon="15.8167383"><ele>1175.0</ele><time>2026-04-25T08:32:42.666Z</time></trkpt><trkpt lat="38.0703483" lon="15.8168183"><ele>1175.5</ele><time>2026-04-25T08:32:43.667Z</time></trkpt><trkpt lat="38.0703767" lon="15.816975"><ele>1176.0</ele><time>2026-04-25T08:32:45.667Z</time></trkpt><trkpt lat="38.0703933" lon="15.8170567"><ele>1176.5</ele><time>2026-04-25T08:32:46.666Z</time></trkpt><trkpt lat="38.07041" lon="15.8171367"><ele>1177.0</ele><time>2026-04-25T08:32:47.667Z</time></trkpt><trkpt lat="38.0704317" lon="15.817225"><ele>1177.5</ele><time>2026-04-25T08:32:48.666Z</time></trkpt><trkpt lat="38.0704583" lon="15.8173233"><ele>1178.0</ele><time>2026-04-25T08:32:49.666Z</time></trkpt><trkpt lat="38.070485" lon="15.8174417"><ele>1178.0</ele><time>2026-04-25T08:32:50.666Z</time></trkpt><trkpt lat="38.07052" lon="15.817575"><ele>1178.0</ele><time>2026-04-25T08:32:51.666Z</time></trkpt><trkpt lat="38.070555" lon="15.8177233"><ele>1178.0</ele><time>2026-04-25T08:32:52.666Z</time></trkpt><trkpt lat="38.0706033" lon="15.8179033"><ele>1178.0</ele><time>2026-04-25T08:32:53.666Z</time></trkpt><trkpt lat="38.0706517" lon="15.8180867"><ele>1179.0</ele><time>2026-04-25T08:32:54.666Z</time></trkpt><trkpt lat="38.0707033" lon="15.8182833"><ele>1180.0</ele><time>2026-04-25T08:32:55.666Z</time></trkpt><trkpt lat="38.0707517" lon="15.8184833"><ele>1181.0</ele><time>2026-04-25T08:32:56.666Z</time></trkpt><trkpt lat="38.0708017" lon="15.8186833"><ele>1181.0</ele><time>2026-04-25T08:32:57.666Z</time></trkpt><trkpt lat="38.07085" lon="15.8188817"><ele>1181.0</ele><time>2026-04-25T08:32:58.666Z</time></trkpt><trkpt lat="38.0708867" lon="15.8191017"><ele>1181.0</ele><time>2026-04-25T08:32:59.666Z</time></trkpt><trkpt lat="38.0709217" lon="15.8193067"><ele>1182.6666666666667</ele><time>2026-04-25T08:33:00.666Z</time></trkpt><trkpt lat="38.0709583" lon="15.8195083"><ele>1184.3333333333333</ele><time>2026-04-25T08:33:01.666Z</time></trkpt><trkpt lat="38.0710033" lon="15.81971"><ele>1186.0</ele><time>2026-04-25T08:33:02.666Z</time></trkpt><trkpt lat="38.0710433" lon="15.8199067"><ele>1186.0</ele><time>2026-04-25T08:33:03.666Z</time></trkpt><trkpt lat="38.0710717" lon="15.82011"><ele>1186.0</ele><time>2026-04-25T08:33:04.666Z</time></trkpt><trkpt lat="38.0710983" lon="15.82032"><ele>1186.0</ele><time>2026-04-25T08:33:05.666Z</time></trkpt><trkpt lat="38.0711283" lon="15.8205417"><ele>1186.0</ele><time>2026-04-25T08:33:06.666Z</time></trkpt><trkpt lat="38.0711633" lon="15.8207583"><ele>1186.0</ele><time>2026-04-25T08:33:07.666Z</time></trkpt><trkpt lat="38.0712" lon="15.8209367"><ele>1186.0</ele><time>2026-04-25T08:33:08.666Z</time></trkpt><trkpt lat="38.0712267" lon="15.8210883"><ele>1186.0</ele><time>2026-04-25T08:33:09.666Z</time></trkpt><trkpt lat="38.0712717" lon="15.821225"><ele>1186.75</ele><time>2026-04-25T08:33:10.667Z</time></trkpt><trkpt lat="38.0713383" lon="15.821365"><ele>1187.5</ele><time>2026-04-25T08:33:11.666Z</time></trkpt><trkpt lat="38.0714183" lon="15.8215"><ele>1188.25</ele><time>2026-04-25T08:33:12.666Z</time></trkpt><trkpt lat="38.0715" lon="15.8216483"><ele>1189.0</ele><time>2026-04-25T08:33:13.666Z</time></trkpt><trkpt lat="38.0715917" lon="15.8217867"><ele>1190.8</ele><time>2026-04-25T08:33:14.667Z</time></trkpt><trkpt lat="38.0716717" lon="15.821905"><ele>1192.6000000000001</ele><time>2026-04-25T08:33:15.666Z</time></trkpt><trkpt lat="38.0717383" lon="15.822025"><ele>1194.4</ele><time>2026-04-25T08:33:16.666Z</time></trkpt><trkpt lat="38.0718017" lon="15.8221367"><ele>1196.2</ele><time>2026-04-25T08:33:17.666Z</time></trkpt><trkpt lat="38.071835" lon="15.8222117"><ele>1198.0</ele><time>2026-04-25T08:33:18.666Z</time></trkpt><trkpt lat="38.0718783" lon="15.82231"><ele>1198.0</ele><time>2026-04-25T08:33:20.666Z</time></trkpt><trkpt lat="38.0717917" lon="15.8222783"><ele>1198.0</ele><time>2026-04-25T08:33:32.666Z</time></trkpt><trkpt lat="38.07171" lon="15.8222617"><ele>1198.0</ele><time>2026-04-25T08:33:33.667Z</time></trkpt><trkpt lat="38.07163" lon="15.8222233"><ele>1198.0</ele><time>2026-04-25T08:33:34.666Z</time></trkpt><trkpt lat="38.071555" lon="15.822185"><ele>1198.0</ele><time>2026-04-25T08:33:35.666Z</time></trkpt><trkpt lat="38.0714667" lon="15.8221317"><ele>1198.0</ele><time>2026-04-25T08:33:37.667Z</time></trkpt><trkpt lat="38.0713967" lon="15.8221167"><ele>1198.0</ele><time>2026-04-25T08:33:40.666Z</time></trkpt><trkpt lat="38.071505" lon="15.8221217"><ele>1198.0</ele><time>2026-04-25T08:42:03.666Z</time></trkpt><trkpt lat="38.0715733" lon="15.8221433"><ele>1198.0</ele><time>2026-04-25T08:42:04.666Z</time></trkpt><trkpt lat="38.0716517" lon="15.822165"><ele>1198.0</ele><time>2026-04-25T08:42:05.667Z</time></trkpt><trkpt lat="38.0717267" lon="15.8221967"><ele>1198.0</ele><time>2026-04-25T08:42:06.666Z</time></trkpt><trkpt lat="38.0717867" lon="15.8222283"><ele>1198.0</ele><time>2026-04-25T08:42:07.666Z</time></trkpt><trkpt lat="38.0718683" lon="15.8222967"><ele>1198.0</ele><time>2026-04-25T08:42:09.666Z</time></trkpt><trkpt lat="38.071905" lon="15.8223783"><ele>1198.0</ele><time>2026-04-25T08:42:11.666Z</time></trkpt><trkpt lat="38.0718967" lon="15.8224767"><ele>1198.0</ele><time>2026-04-25T08:42:13.666Z</time></trkpt><trkpt lat="38.0718517" lon="15.8225833"><ele>1198.0</ele><time>2026-04-25T08:42:15.666Z</time></trkpt><trkpt lat="38.0717917" lon="15.822675"><ele>1198.0</ele><time>2026-04-25T08:42:17.666Z</time></trkpt><trkpt lat="38.0717333" lon="15.82277"><ele>1198.0</ele><time>2026-04-25T08:42:19.666Z</time></trkpt><trkpt lat="38.0716783" lon="15.8228683"><ele>1198.0</ele><time>2026-04-25T08:42:21.666Z</time></trkpt><trkpt lat="38.0716333" lon="15.8229567"><ele>1198.0</ele><time>2026-04-25T08:42:23.666Z</time></trkpt><trkpt lat="38.071605" lon="15.8230317"><ele>1198.0</ele><time>2026-04-25T08:42:24.666Z</time></trkpt><trkpt lat="38.071555" lon="15.8231733"><ele>1198.0</ele><time>2026-04-25T08:42:26.666Z</time></trkpt><trkpt lat="38.0715183" lon="15.82324"><ele>1198.0</ele><time>2026-04-25T08:42:27.667Z</time></trkpt><trkpt lat="38.0714717" lon="15.8233"><ele>1198.0</ele><time>2026-04-25T08:42:28.667Z</time></trkpt><trkpt lat="38.07142" lon="15.82336"><ele>1198.0</ele><time>2026-04-25T08:42:29.666Z</time></trkpt><trkpt lat="38.0713417" lon="15.8234683"><ele>1198.0</ele><time>2026-04-25T08:42:31.666Z</time></trkpt><trkpt lat="38.0712683" lon="15.8235917"><ele>1198.0</ele><time>2026-04-25T08:42:33.666Z</time></trkpt><trkpt lat="38.07121" lon="15.8237267"><ele>1198.0</ele><time>2026-04-25T08:42:35.666Z</time></trkpt><trkpt lat="38.0711717" lon="15.8238167"><ele>1198.0</ele><time>2026-04-25T08:42:36.666Z</time></trkpt><trkpt lat="38.0711233" lon="15.8239117"><ele>1199.25</ele><time>2026-04-25T08:42:37.667Z</time></trkpt><trkpt lat="38.0710667" lon="15.82402"><ele>1200.5</ele><time>2026-04-25T08:42:38.666Z</time></trkpt><trkpt lat="38.07101" lon="15.8241383"><ele>1201.75</ele><time>2026-04-25T08:42:39.666Z</time></trkpt><trkpt lat="38.0709467" lon="15.824275"><ele>1203.0</ele><time>2026-04-25T08:42:40.666Z</time></trkpt><trkpt lat="38.070875" lon="15.8244267"><ele>1203.0</ele><time>2026-04-25T08:42:41.666Z</time></trkpt><trkpt lat="38.07082" lon="15.8246017"><ele>1203.0</ele><time>2026-04-25T08:42:42.666Z</time></trkpt><trkpt lat="38.0707617" lon="15.8247667"><ele>1203.0</ele><time>2026-04-25T08:42:43.666Z</time></trkpt><trkpt lat="38.0707133" lon="15.82492"><ele>1203.0</ele><time>2026-04-25T08:42:44.666Z</time></trkpt><trkpt lat="38.0706817" lon="15.8250567"><ele>1204.6</ele><time>2026-04-25T08:42:45.666Z</time></trkpt><trkpt lat="38.0706517" lon="15.82519"><ele>1206.1999999999998</ele><time>2026-04-25T08:42:46.666Z</time></trkpt><trkpt lat="38.0706267" lon="15.8252983"><ele>1207.8</ele><time>2026-04-25T08:42:47.666Z</time></trkpt><trkpt lat="38.0705983" lon="15.8254083"><ele>1209.3999999999999</ele><time>2026-04-25T08:42:48.666Z</time></trkpt><trkpt lat="38.07056" lon="15.8255367"><ele>1211.0</ele><time>2026-04-25T08:42:49.666Z</time></trkpt><trkpt lat="38.0705267" lon="15.8256533"><ele>1211.0</ele><time>2026-04-25T08:42:50.667Z</time></trkpt><trkpt lat="38.0705067" lon="15.82576"><ele>1211.0</ele><time>2026-04-25T08:42:51.666Z</time></trkpt><trkpt lat="38.070485" lon="15.82587"><ele>1211.0</ele><time>2026-04-25T08:42:52.666Z</time></trkpt><trkpt lat="38.0704667" lon="15.82598"><ele>1211.0</ele><time>2026-04-25T08:42:53.666Z</time></trkpt><trkpt lat="38.0704467" lon="15.8260867"><ele>1211.0</ele><time>2026-04-25T08:42:54.667Z</time></trkpt><trkpt lat="38.07043" lon="15.8261883"><ele>1211.0</ele><time>2026-04-25T08:42:55.666Z</time></trkpt><trkpt lat="38.0704083" lon="15.82628"><ele>1212.6</ele><time>2026-04-25T08:42:56.666Z</time></trkpt><trkpt lat="38.07039" lon="15.8263967"><ele>1214.1999999999998</ele><time>2026-04-25T08:42:58.666Z</time></trkpt><trkpt lat="38.0703817" lon="15.8264983"><ele>1215.8000000000002</ele><time>2026-04-25T08:43:00.666Z</time></trkpt><trkpt lat="38.0703733" lon="15.82664"><ele>1217.4</ele><time>2026-04-25T08:43:02.666Z</time></trkpt><trkpt lat="38.07038" lon="15.826725"><ele>1219.0</ele><time>2026-04-25T08:43:03.666Z</time></trkpt><trkpt lat="38.0712683" lon="15.8235917"><ele>1215.8</ele><time>2026-04-25T08:42:33.666Z</time></trkpt><trkpt lat="38.07121" lon="15.8237267"><ele>1212.6000000000001</ele><time>2026-04-25T08:42:35.666Z</time></trkpt><trkpt lat="38.0711717" lon="15.8238167"><ele>1209.4</ele><time>2026-04-25T08:42:36.666Z</time></trkpt><trkpt lat="38.0711233" lon="15.8239117"><ele>1206.2</ele><time>2026-04-25T08:42:37.667Z</time></trkpt><trkpt lat="38.0710667" lon="15.82402"><ele>1203.0</ele><time>2026-04-25T08:42:38.666Z</time></trkpt><trkpt lat="38.07101" lon="15.8241383"><ele>1203.0</ele><time>2026-04-25T08:42:39.666Z</time></trkpt><trkpt lat="38.0709467" lon="15.824275"><ele>1203.0</ele><time>2026-04-25T08:42:40.666Z</time></trkpt><trkpt lat="38.070875" lon="15.8244267"><ele>1203.0</ele><time>2026-04-25T08:42:41.666Z</time></trkpt><trkpt lat="38.07082" lon="15.8246017"><ele>1203.0</ele><time>2026-04-25T08:42:42.666Z</time></trkpt><trkpt lat="38.0707617" lon="15.8247667"><ele>1203.0</ele><time>2026-04-25T08:42:43.666Z</time></trkpt><trkpt lat="38.0707133" lon="15.82492"><ele>1203.0</ele><time>2026-04-25T08:42:44.666Z</time></trkpt><trkpt lat="38.0706817" lon="15.8250567"><ele>1203.0</ele><time>2026-04-25T08:42:45.666Z</time></trkpt><trkpt lat="38.0706517" lon="15.82519"><ele>1203.0</ele><time>2026-04-25T08:42:46.666Z</time></trkpt><trkpt lat="38.0706267" lon="15.8252983"><ele>1203.0</ele><time>2026-04-25T08:42:47.666Z</time></trkpt><trkpt lat="38.0705983" lon="15.8254083"><ele>1204.6</ele><time>2026-04-25T08:42:48.666Z</time></trkpt><trkpt lat="38.07056" lon="15.8255367"><ele>1206.1999999999998</ele><time>2026-04-25T08:42:49.666Z</time></trkpt><trkpt lat="38.0705267" lon="15.8256533"><ele>1207.8</ele><time>2026-04-25T08:42:50.667Z</time></trkpt><trkpt lat="38.0705067" lon="15.82576"><ele>1209.3999999999999</ele><time>2026-04-25T08:42:51.666Z</time></trkpt><trkpt lat="38.070485" lon="15.82587"><ele>1211.0</ele><time>2026-04-25T08:42:52.666Z</time></trkpt><trkpt lat="38.0704667" lon="15.82598"><ele>1212.3333333333335</ele><time>2026-04-25T08:42:53.666Z</time></trkpt><trkpt lat="38.0704467" lon="15.8260867"><ele>1213.6666666666667</ele><time>2026-04-25T08:42:54.667Z</time></trkpt><trkpt lat="38.07043" lon="15.8261883"><ele>1215.0</ele><time>2026-04-25T08:42:55.666Z</time></trkpt><trkpt lat="38.0704083" lon="15.82628"><ele>1216.3333333333333</ele><time>2026-04-25T08:42:56.666Z</time></trkpt><trkpt lat="38.07039" lon="15.8263967"><ele>1217.6666666666665</ele><time>2026-04-25T08:42:58.666Z</time></trkpt><trkpt lat="38.0703817" lon="15.8264983"><ele>1219.0</ele><time>2026-04-25T08:43:00.666Z</time></trkpt><trkpt lat="38.0703733" lon="15.82664"><ele>1219.0</ele><time>2026-04-25T08:43:02.666Z</time></trkpt><trkpt lat="38.07038" lon="15.826725"><ele>1219.0</ele><time>2026-04-25T08:43:03.666Z</time></trkpt><trkpt lat="38.070385" lon="15.8268167"><ele>1219.0</ele><time>2026-04-25T08:43:04.666Z</time></trkpt><trkpt lat="38.0704067" lon="15.8269167"><ele>1219.0</ele><time>2026-04-25T08:43:05.667Z</time></trkpt><trkpt lat="38.0704333" lon="15.8270067"><ele>1219.0</ele><time>2026-04-25T08:43:06.666Z</time></trkpt><trkpt lat="38.07046" lon="15.827085"><ele>1219.0</ele><time>2026-04-25T08:43:07.667Z</time></trkpt><trkpt lat="38.070505" lon="15.8271483"><ele>1219.0</ele><time>2026-04-25T08:43:08.667Z</time></trkpt><trkpt lat="38.0705667" lon="15.8271683"><ele>1218.3333333333333</ele><time>2026-04-25T08:43:09.666Z</time></trkpt><trkpt lat="38.0706883" lon="15.827185"><ele>1217.6666666666665</ele><time>2026-04-25T08:43:11.666Z</time></trkpt><trkpt lat="38.0707533" lon="15.827195"><ele>1217.0</ele><time>2026-04-25T08:43:12.666Z</time></trkpt><trkpt lat="38.070815" lon="15.8272133"><ele>1216.3333333333333</ele><time>2026-04-25T08:43:13.666Z</time></trkpt><trkpt lat="38.0709083" lon="15.827265"><ele>1215.6666666666667</ele><time>2026-04-25T08:43:15.667Z</time></trkpt><trkpt lat="38.0709617" lon="15.8273217"><ele>1215.0</ele><time>2026-04-25T08:43:17.666Z</time></trkpt><trkpt lat="38.07093" lon="15.827415"><ele>1215.0</ele><time>2026-04-25T08:43:20.666Z</time></trkpt><trkpt lat="38.0708533" lon="15.827505"><ele>1215.0</ele><time>2026-04-25T08:43:22.666Z</time></trkpt><trkpt lat="38.0707833" lon="15.8276717"><ele>1215.0</ele><time>2026-04-25T08:43:24.667Z</time></trkpt><trkpt lat="38.0707433" lon="15.827805"><ele>1215.0</ele><time>2026-04-25T08:43:25.666Z</time></trkpt><trkpt lat="38.0707317" lon="15.8279417"><ele>1212.0</ele><time>2026-04-25T08:43:26.666Z</time></trkpt><trkpt lat="38.070735" lon="15.8280683"><ele>1209.0</ele><time>2026-04-25T08:43:27.666Z</time></trkpt><trkpt lat="38.0707217" lon="15.8281917"><ele>1206.0</ele><time>2026-04-25T08:43:28.666Z</time></trkpt><trkpt lat="38.07072" lon="15.8283117"><ele>1203.0</ele><time>2026-04-25T08:43:29.666Z</time></trkpt><trkpt lat="38.0707217" lon="15.8284233"><ele>1200.0</ele><time>2026-04-25T08:43:30.666Z</time></trkpt><trkpt lat="38.0707417" lon="15.8285533"><ele>1199.5</ele><time>2026-04-25T08:43:31.666Z</time></trkpt><trkpt lat="38.0707733" lon="15.8286767"><ele>1199.0</ele><time>2026-04-25T08:43:32.666Z</time></trkpt><trkpt lat="38.0708017" lon="15.8287933"><ele>1198.5</ele><time>2026-04-25T08:43:33.666Z</time></trkpt><trkpt lat="38.0708567" lon="15.82889"><ele>1198.0</ele><time>2026-04-25T08:43:34.666Z</time></trkpt><trkpt lat="38.0709217" lon="15.828935"><ele>1197.5</ele><time>2026-04-25T08:43:35.666Z</time></trkpt><trkpt lat="38.0709917" lon="15.82895"><ele>1197.0</ele><time>2026-04-25T08:43:36.666Z</time></trkpt><trkpt lat="38.0710633" lon="15.828935"><ele>1197.0</ele><time>2026-04-25T08:43:37.667Z</time></trkpt><trkpt lat="38.0711417" lon="15.8289133"><ele>1197.0</ele><time>2026-04-25T08:43:38.666Z</time></trkpt><trkpt lat="38.0712167" lon="15.8288867"><ele>1197.0</ele><time>2026-04-25T08:43:39.666Z</time></trkpt><trkpt lat="38.0712817" lon="15.8288717"><ele>1197.0</ele><time>2026-04-25T08:43:40.666Z</time></trkpt><trkpt lat="38.0714067" lon="15.8288417"><ele>1197.0</ele><time>2026-04-25T08:43:42.666Z</time></trkpt><trkpt lat="38.071495" lon="15.8288417"><ele>1197.0</ele><time>2026-04-25T08:43:44.667Z</time></trkpt><trkpt lat="38.0715267" lon="15.8289533"><ele>1197.0</ele><time>2026-04-25T08:43:46.666Z</time></trkpt><trkpt lat="38.0714783" lon="15.8290733"><ele>1197.0</ele><time>2026-04-25T08:43:48.666Z</time></trkpt><trkpt lat="38.0713867" lon="15.82915"><ele>1197.0</ele><time>2026-04-25T08:43:50.667Z</time></trkpt><trkpt lat="38.0713" lon="15.8291717"><ele>1197.0</ele><time>2026-04-25T08:43:51.666Z</time></trkpt><trkpt lat="38.0711883" lon="15.8292067"><ele>1197.0</ele><time>2026-04-25T08:43:52.666Z</time></trkpt><trkpt lat="38.0710967" lon="15.8292567"><ele>1195.6666666666667</ele><time>2026-04-25T08:43:53.667Z</time></trkpt><trkpt lat="38.0710333" lon="15.8293217"><ele>1194.3333333333333</ele><time>2026-04-25T08:43:54.666Z</time></trkpt><trkpt lat="38.0709783" lon="15.8294083"><ele>1193.0</ele><time>2026-04-25T08:43:55.667Z</time></trkpt><trkpt lat="38.0709417" lon="15.829505"><ele>1191.6666666666665</ele><time>2026-04-25T08:43:56.666Z</time></trkpt><trkpt lat="38.07089" lon="15.829595"><ele>1190.3333333333333</ele><time>2026-04-25T08:43:57.666Z</time></trkpt><trkpt lat="38.0708467" lon="15.82968"><ele>1189.0</ele><time>2026-04-25T08:43:58.667Z</time></trkpt><trkpt lat="38.0708067" lon="15.8297733"><ele>1187.8333333333333</ele><time>2026-04-25T08:43:59.666Z</time></trkpt><trkpt lat="38.0707717" lon="15.8298467"><ele>1186.6666666666665</ele><time>2026-04-25T08:44:00.666Z</time></trkpt><trkpt lat="38.0706983" lon="15.8299233"><ele>1185.5</ele><time>2026-04-25T08:44:02.666Z</time></trkpt><trkpt lat="38.0705883" lon="15.8299133"><ele>1184.3333333333333</ele><time>2026-04-25T08:44:04.666Z</time></trkpt><trkpt lat="38.070505" lon="15.8298817"><ele>1183.1666666666667</ele><time>2026-04-25T08:44:05.666Z</time></trkpt><trkpt lat="38.0704183" lon="15.8298533"><ele>1182.0</ele><time>2026-04-25T08:44:06.666Z</time></trkpt><trkpt lat="38.0703233" lon="15.829825"><ele>1182.0</ele><time>2026-04-25T08:44:07.667Z</time></trkpt><trkpt lat="38.0702383" lon="15.8298067"><ele>1182.0</ele><time>2026-04-25T08:44:08.666Z</time></trkpt><trkpt lat="38.070155" lon="15.8298167"><ele>1182.0</ele><time>2026-04-25T08:44:09.666Z</time></trkpt><trkpt lat="38.0700767" lon="15.8298433"><ele>1182.0</ele><time>2026-04-25T08:44:10.666Z</time></trkpt><trkpt lat="38.0700033" lon="15.82987"><ele>1182.0</ele><time>2026-04-25T08:44:11.666Z</time></trkpt><trkpt lat="38.0699333" lon="15.8298817"><ele>1182.0</ele><time>2026-04-25T08:44:12.666Z</time></trkpt><trkpt lat="38.06987" lon="15.82989"><ele>1180.142857142857</ele><time>2026-04-25T08:44:13.667Z</time></trkpt><trkpt lat="38.069805" lon="15.8298883"><ele>1178.2857142857142</ele><time>2026-04-25T08:44:14.666Z</time></trkpt><trkpt lat="38.0697333" lon="15.8299017"><ele>1176.4285714285716</ele><time>2026-04-25T08:44:15.666Z</time></trkpt><trkpt lat="38.069665" lon="15.8299017"><ele>1174.5714285714284</ele><time>2026-04-25T08:44:16.667Z</time></trkpt><trkpt lat="38.0695917" lon="15.8298933"><ele>1172.7142857142858</ele><time>2026-04-25T08:44:17.666Z</time></trkpt><trkpt lat="38.0695133" lon="15.8298883"><ele>1170.857142857143</ele><time>2026-04-25T08:44:18.666Z</time></trkpt><trkpt lat="38.0694333" lon="15.8298817"><ele>1169.0</ele><time>2026-04-25T08:44:19.666Z</time></trkpt><trkpt lat="38.069345" lon="15.8298833"><ele>1169.0</ele><time>2026-04-25T08:44:20.666Z</time></trkpt><trkpt lat="38.069265" lon="15.8298833"><ele>1169.0</ele><time>2026-04-25T08:44:21.667Z</time></trkpt><trkpt lat="38.069185" lon="15.8298933"><ele>1169.0</ele><time>2026-04-25T08:44:22.666Z</time></trkpt><trkpt lat="38.0691067" lon="15.829905"><ele>1169.0</ele><time>2026-04-25T08:44:23.666Z</time></trkpt><trkpt lat="38.069035" lon="15.8299217"><ele>1169.0</ele><time>2026-04-25T08:44:24.666Z</time></trkpt><trkpt lat="38.0689417" lon="15.8299933"><ele>1169.0</ele><time>2026-04-25T08:44:26.666Z</time></trkpt><trkpt lat="38.068925" lon="15.8301117"><ele>1165.8</ele><time>2026-04-25T08:44:28.667Z</time></trkpt><trkpt lat="38.0690117" lon="15.8302183"><ele>1162.6000000000001</ele><time>2026-04-25T08:44:30.666Z</time></trkpt><trkpt lat="38.06908" lon="15.8302867"><ele>1159.4</ele><time>2026-04-25T08:44:31.666Z</time></trkpt><trkpt lat="38.0691467" lon="15.830375"><ele>1156.2</ele><time>2026-04-25T08:44:32.666Z</time></trkpt><trkpt lat="38.0692067" lon="15.8304767"><ele>1153.0</ele><time>2026-04-25T08:44:33.666Z</time></trkpt><trkpt lat="38.0692717" lon="15.8305817"><ele>1153.0</ele><time>2026-04-25T08:44:34.666Z</time></trkpt><trkpt lat="38.0693267" lon="15.83067"><ele>1153.0</ele><time>2026-04-25T08:44:35.666Z</time></trkpt><trkpt lat="38.069355" lon="15.8307517"><ele>1153.0</ele><time>2026-04-25T08:44:36.666Z</time></trkpt><trkpt lat="38.0693667" lon="15.83092"><ele>1153.0</ele><time>2026-04-25T08:44:38.667Z</time></trkpt><trkpt lat="38.069345" lon="15.8310283"><ele>1153.0</ele><time>2026-04-25T08:44:39.666Z</time></trkpt><trkpt lat="38.0693333" lon="15.831135"><ele>1149.1666666666665</ele><time>2026-04-25T08:44:40.666Z</time></trkpt><trkpt lat="38.0693467" lon="15.831225"><ele>1145.3333333333333</ele><time>2026-04-25T08:44:41.666Z</time></trkpt><trkpt lat="38.0693733" lon="15.831305"><ele>1141.5</ele><time>2026-04-25T08:44:42.666Z</time></trkpt><trkpt lat="38.069465" lon="15.831375"><ele>1137.6666666666667</ele><time>2026-04-25T08:44:44.666Z</time></trkpt><trkpt lat="38.0695367" lon="15.831385"><ele>1133.8333333333335</ele><time>2026-04-25T08:44:45.666Z</time></trkpt><trkpt lat="38.0696117" lon="15.831375"><ele>1130.0</ele><time>2026-04-25T08:44:46.666Z</time></trkpt><trkpt lat="38.069685" lon="15.8313567"><ele>1130.0</ele><time>2026-04-25T08:44:47.666Z</time></trkpt><trkpt lat="38.069755" lon="15.831345"><ele>1130.0</ele><time>2026-04-25T08:44:48.667Z</time></trkpt><trkpt lat="38.069825" lon="15.8313833"><ele>1130.0</ele><time>2026-04-25T08:44:50.666Z</time></trkpt><trkpt lat="38.0697933" lon="15.8314733"><ele>1130.0</ele><time>2026-04-25T08:44:53.666Z</time></trkpt><trkpt lat="38.0697333" lon="15.8315"><ele>1130.0</ele><time>2026-04-25T08:44:54.666Z</time></trkpt><trkpt lat="38.0696383" lon="15.8315567"><ele>1130.0</ele><time>2026-04-25T08:44:56.666Z</time></trkpt><trkpt lat="38.0696133" lon="15.8316567"><ele>1130.0</ele><time>2026-04-25T08:44:58.666Z</time></trkpt><trkpt lat="38.0696767" lon="15.8317"><ele>1130.0</ele><time>2026-04-25T08:45:01.666Z</time></trkpt><trkpt lat="38.0697383" lon="15.8316517"><ele>1130.0</ele><time>2026-04-25T08:45:03.666Z</time></trkpt><trkpt lat="38.06985" lon="15.831565"><ele>1130.0</ele><time>2026-04-25T08:45:05.666Z</time></trkpt><trkpt lat="38.0699233" lon="15.8315"><ele>1130.0</ele><time>2026-04-25T08:45:06.666Z</time></trkpt><trkpt lat="38.0700117" lon="15.8314283"><ele>1131.2</ele><time>2026-04-25T08:45:07.666Z</time></trkpt><trkpt lat="38.070095" lon="15.8313683"><ele>1132.4</ele><time>2026-04-25T08:45:08.666Z</time></trkpt><trkpt lat="38.0701767" lon="15.83131"><ele>1133.6</ele><time>2026-04-25T08:45:09.666Z</time></trkpt><trkpt lat="38.070265" lon="15.83126"><ele>1134.8</ele><time>2026-04-25T08:45:10.666Z</time></trkpt><trkpt lat="38.07035" lon="15.8312233"><ele>1136.0</ele><time>2026-04-25T08:45:11.667Z</time></trkpt><trkpt lat="38.0704283" lon="15.8311867"><ele>1136.0</ele><time>2026-04-25T08:45:12.666Z</time></trkpt><trkpt lat="38.0705167" lon="15.8311517"><ele>1136.0</ele><time>2026-04-25T08:45:13.667Z</time></trkpt><trkpt lat="38.0705933" lon="15.8311217"><ele>1136.0</ele><time>2026-04-25T08:45:14.666Z</time></trkpt><trkpt lat="38.070675" lon="15.8310983"><ele>1136.0</ele><time>2026-04-25T08:45:15.666Z</time></trkpt><trkpt lat="38.0707617" lon="15.831085"><ele>1136.0</ele><time>2026-04-25T08:45:16.666Z</time></trkpt><trkpt lat="38.0708583" lon="15.8310817"><ele>1136.0</ele><time>2026-04-25T08:45:17.666Z</time></trkpt><trkpt lat="38.070955" lon="15.8310917"><ele>1132.0</ele><time>2026-04-25T08:45:18.666Z</time></trkpt><trkpt lat="38.0710483" lon="15.83111"><ele>1128.0</ele><time>2026-04-25T08:45:19.666Z</time></trkpt><trkpt lat="38.071135" lon="15.8311367"><ele>1124.0</ele><time>2026-04-25T08:45:20.666Z</time></trkpt><trkpt lat="38.0712133" lon="15.8311767"><ele>1120.0</ele><time>2026-04-25T08:45:21.666Z</time></trkpt><trkpt lat="38.07129" lon="15.8312183"><ele>1116.0</ele><time>2026-04-25T08:45:22.667Z</time></trkpt><trkpt lat="38.0713633" lon="15.83126"><ele>1112.0</ele><time>2026-04-25T08:45:23.666Z</time></trkpt><trkpt lat="38.07143" lon="15.8313033"><ele>1112.0</ele><time>2026-04-25T08:45:24.666Z</time></trkpt><trkpt lat="38.07149" lon="15.8313483"><ele>1112.0</ele><time>2026-04-25T08:45:25.666Z</time></trkpt><trkpt lat="38.07156" lon="15.831425"><ele>1112.0</ele><time>2026-04-25T08:45:27.666Z</time></trkpt><trkpt lat="38.0715567" lon="15.831505"><ele>1112.0</ele><time>2026-04-25T08:45:29.666Z</time></trkpt><trkpt lat="38.0714767" lon="15.8315367"><ele>1112.0</ele><time>2026-04-25T08:45:31.667Z</time></trkpt><trkpt lat="38.0713483" lon="15.8315167"><ele>1112.0</ele><time>2026-04-25T08:45:33.667Z</time></trkpt><trkpt lat="38.0712833" lon="15.83152"><ele>1112.0</ele><time>2026-04-25T08:45:34.666Z</time></trkpt><trkpt lat="38.0712083" lon="15.831525"><ele>1112.0</ele><time>2026-04-25T08:45:35.666Z</time></trkpt><trkpt lat="38.0711267" lon="15.831555"><ele>1112.0</ele><time>2026-04-25T08:45:36.667Z</time></trkpt><trkpt lat="38.0710517" lon="15.831595"><ele>1112.0</ele><time>2026-04-25T08:45:37.666Z</time></trkpt><trkpt lat="38.0709983" lon="15.8316517"><ele>1112.0</ele><time>2026-04-25T08:45:38.666Z</time></trkpt><trkpt lat="38.07093" lon="15.8317367"><ele>1112.0</ele><time>2026-04-25T08:45:40.666Z</time></trkpt><trkpt lat="38.070875" lon="15.831815"><ele>1105.75</ele><time>2026-04-25T08:45:42.666Z</time></trkpt><trkpt lat="38.0707617" lon="15.8319283"><ele>1099.5</ele><time>2026-04-25T08:45:44.666Z</time></trkpt><trkpt lat="38.0706817" lon="15.8320117"><ele>1093.25</ele><time>2026-04-25T08:45:45.666Z</time></trkpt><trkpt lat="38.0705967" lon="15.832095"><ele>1087.0</ele><time>2026-04-25T08:45:46.667Z</time></trkpt><trkpt lat="38.0705217" lon="15.8321717"><ele>1087.0</ele><time>2026-04-25T08:45:47.666Z</time></trkpt><trkpt lat="38.0704583" lon="15.8322317"><ele>1087.0</ele><time>2026-04-25T08:45:48.666Z</time></trkpt><trkpt lat="38.070425" lon="15.83232"><ele>1087.0</ele><time>2026-04-25T08:45:50.667Z</time></trkpt><trkpt lat="38.0705383" lon="15.8323917"><ele>1087.0</ele><time>2026-04-25T08:45:52.666Z</time></trkpt><trkpt lat="38.0706417" lon="15.8324267"><ele>1087.0</ele><time>2026-04-25T08:45:53.666Z</time></trkpt><trkpt lat="38.0707417" lon="15.8324833"><ele>1086.0</ele><time>2026-04-25T08:45:54.666Z</time></trkpt><trkpt lat="38.0708233" lon="15.8325317"><ele>1085.0</ele><time>2026-04-25T08:45:55.666Z</time></trkpt><trkpt lat="38.0708867" lon="15.83257"><ele>1084.0</ele><time>2026-04-25T08:45:56.666Z</time></trkpt><trkpt lat="38.0709383" lon="15.832655"><ele>1083.0</ele><time>2026-04-25T08:45:58.666Z</time></trkpt><trkpt lat="38.07085" lon="15.8326933"><ele>1082.0</ele><time>2026-04-25T08:46:00.666Z</time></trkpt><trkpt lat="38.0707717" lon="15.8326583"><ele>1081.0</ele><time>2026-04-25T08:46:01.666Z</time></trkpt><trkpt lat="38.0707033" lon="15.832655"><ele>1076.5</ele><time>2026-04-25T08:46:02.667Z</time></trkpt><trkpt lat="38.07066" lon="15.832735"><ele>1072.0</ele><time>2026-04-25T08:46:04.667Z</time></trkpt><trkpt lat="38.0707433" lon="15.8328317"><ele>1067.5</ele><time>2026-04-25T08:46:06.666Z</time></trkpt><trkpt lat="38.07079" lon="15.8329117"><ele>1063.0</ele><time>2026-04-25T08:46:08.666Z</time></trkpt><trkpt lat="38.0707033" lon="15.83293"><ele>1058.5</ele><time>2026-04-25T08:46:10.666Z</time></trkpt><trkpt lat="38.0706217" lon="15.8329"><ele>1054.0</ele><time>2026-04-25T08:46:11.666Z</time></trkpt><trkpt lat="38.0705283" lon="15.8328667"><ele>1053.0</ele><time>2026-04-25T08:46:12.666Z</time></trkpt><trkpt lat="38.0704467" lon="15.8328517"><ele>1052.0</ele><time>2026-04-25T08:46:13.666Z</time></trkpt><trkpt lat="38.0703683" lon="15.8328483"><ele>1051.0</ele><time>2026-04-25T08:46:14.667Z</time></trkpt><trkpt lat="38.0702967" lon="15.8328567"><ele>1050.0</ele><time>2026-04-25T08:46:15.667Z</time></trkpt><trkpt lat="38.07022" lon="15.8328783"><ele>1049.0</ele><time>2026-04-25T08:46:16.666Z</time></trkpt><trkpt lat="38.0701483" lon="15.83291"><ele>1048.0</ele><time>2026-04-25T08:46:17.666Z</time></trkpt><trkpt lat="38.0700717" lon="15.8329417"><ele>1048.0</ele><time>2026-04-25T08:46:18.666Z</time></trkpt><trkpt lat="38.069995" lon="15.8329767"><ele>1048.0</ele><time>2026-04-25T08:46:19.667Z</time></trkpt><trkpt lat="38.069925" lon="15.83301"><ele>1048.0</ele><time>2026-04-25T08:46:20.666Z</time></trkpt><trkpt lat="38.0698433" lon="15.8330533"><ele>1048.0</ele><time>2026-04-25T08:46:21.666Z</time></trkpt><trkpt lat="38.0697567" lon="15.8331067"><ele>1048.0</ele><time>2026-04-25T08:46:22.666Z</time></trkpt><trkpt lat="38.0696733" lon="15.8331583"><ele>1048.0</ele><time>2026-04-25T08:46:23.667Z</time></trkpt><trkpt lat="38.069565" lon="15.8332017"><ele>1046.8</ele><time>2026-04-25T08:46:24.666Z</time></trkpt><trkpt lat="38.06945" lon="15.83325"><ele>1045.6</ele><time>2026-04-25T08:46:25.666Z</time></trkpt><trkpt lat="38.069355" lon="15.83329"><ele>1044.4</ele><time>2026-04-25T08:46:26.666Z</time></trkpt><trkpt lat="38.069255" lon="15.8333417"><ele>1043.2</ele><time>2026-04-25T08:46:27.666Z</time></trkpt><trkpt lat="38.0691533" lon="15.8334017"><ele>1042.0</ele><time>2026-04-25T08:46:28.666Z</time></trkpt><trkpt lat="38.069045" lon="15.8334733"><ele>1042.0</ele><time>2026-04-25T08:46:29.666Z</time></trkpt><trkpt lat="38.06894" lon="15.8335567"><ele>1042.0</ele><time>2026-04-25T08:46:30.666Z</time></trkpt><trkpt lat="38.0688467" lon="15.8336417"><ele>1042.0</ele><time>2026-04-25T08:46:31.667Z</time></trkpt><trkpt lat="38.068765" lon="15.8337283"><ele>1042.0</ele><time>2026-04-25T08:46:32.666Z</time></trkpt><trkpt lat="38.0686817" lon="15.8338117"><ele>1042.0</ele><time>2026-04-25T08:46:33.666Z</time></trkpt><trkpt lat="38.0686083" lon="15.833905"><ele>1042.0</ele><time>2026-04-25T08:46:34.666Z</time></trkpt><trkpt lat="38.0685417" lon="15.83401"><ele>1042.0</ele><time>2026-04-25T08:46:35.667Z</time></trkpt><trkpt lat="38.0684933" lon="15.8340967"><ele>1042.0</ele><time>2026-04-25T08:46:36.666Z</time></trkpt><trkpt lat="38.0684567" lon="15.8341867"><ele>1042.0</ele><time>2026-04-25T08:46:37.666Z</time></trkpt><trkpt lat="38.0684117" lon="15.83429"><ele>1037.8333333333333</ele><time>2026-04-25T08:46:38.666Z</time></trkpt><trkpt lat="38.0683633" lon="15.8344"><ele>1033.6666666666665</ele><time>2026-04-25T08:46:39.666Z</time></trkpt><trkpt lat="38.0683333" lon="15.83449"><ele>1029.5</ele><time>2026-04-25T08:46:40.666Z</time></trkpt><trkpt lat="38.0682883" lon="15.834575"><ele>1025.3333333333333</ele><time>2026-04-25T08:46:41.666Z</time></trkpt><trkpt lat="38.0682333" lon="15.8346517"><ele>1021.1666666666666</ele><time>2026-04-25T08:46:42.666Z</time></trkpt><trkpt lat="38.0681683" lon="15.83472"><ele>1017.0</ele><time>2026-04-25T08:46:43.666Z</time></trkpt><trkpt lat="38.068105" lon="15.8347917"><ele>1014.2</ele><time>2026-04-25T08:46:44.666Z</time></trkpt><trkpt lat="38.0680417" lon="15.83485"><ele>1011.4000000000001</ele><time>2026-04-25T08:46:45.666Z</time></trkpt><trkpt lat="38.0679433" lon="15.834865"><ele>1008.5999999999999</ele><time>2026-04-25T08:46:47.666Z</time></trkpt><trkpt lat="38.0678517" lon="15.8348133"><ele>1005.8</ele><time>2026-04-25T08:46:49.667Z</time></trkpt><trkpt lat="38.0677617" lon="15.834715"><ele>1003.0</ele><time>2026-04-25T08:46:51.667Z</time></trkpt><trkpt lat="38.06772" lon="15.83464"><ele>1002.9999999999999</ele><time>2026-04-25T08:46:52.666Z</time></trkpt><trkpt lat="38.06768" lon="15.8345533"><ele>1003.0</ele><time>2026-04-25T08:46:53.666Z</time></trkpt><trkpt lat="38.0676383" lon="15.8344717"><ele>1003.0</ele><time>2026-04-25T08:46:54.666Z</time></trkpt><trkpt lat="38.06759" lon="15.834395"><ele>1003.0</ele><time>2026-04-25T08:46:55.666Z</time></trkpt><trkpt lat="38.067525" lon="15.8343633"><ele>1002.9999999999999</ele><time>2026-04-25T08:46:57.666Z</time></trkpt><trkpt lat="38.0674967" lon="15.8344767"><ele>1003.0</ele><time>2026-04-25T08:47:00.666Z</time></trkpt><trkpt lat="38.0675017" lon="15.8345583"><ele>1002.9999999999999</ele><time>2026-04-25T08:47:01.666Z</time></trkpt><trkpt lat="38.0675083" lon="15.8346467"><ele>1003.0</ele><time>2026-04-25T08:47:02.666Z</time></trkpt><trkpt lat="38.0675317" lon="15.83474"><ele>1003.0</ele><time>2026-04-25T08:47:03.667Z</time></trkpt><trkpt lat="38.06756" lon="15.834845"><ele>1003.0</ele><time>2026-04-25T08:47:04.666Z</time></trkpt><trkpt lat="38.0676033" lon="15.8349383"><ele>1002.9999999999999</ele><time>2026-04-25T08:47:05.666Z</time></trkpt><trkpt lat="38.0676533" lon="15.8350117"><ele>1003.0</ele><time>2026-04-25T08:47:06.666Z</time></trkpt><trkpt lat="38.06771" lon="15.83508"><ele>997.0</ele><time>2026-04-25T08:47:07.666Z</time></trkpt><trkpt lat="38.067775" lon="15.83515"><ele>991.0</ele><time>2026-04-25T08:47:08.666Z</time></trkpt><trkpt lat="38.067835" lon="15.83522"><ele>985.0</ele><time>2026-04-25T08:47:09.666Z</time></trkpt><trkpt lat="38.0678983" lon="15.835305"><ele>979.0</ele><time>2026-04-25T08:47:11.666Z</time></trkpt><trkpt lat="38.06781" lon="15.8353383"><ele>973.0</ele><time>2026-04-25T08:47:15.666Z</time></trkpt><trkpt lat="38.0676933" lon="15.8352467"><ele>972.9999999999999</ele><time>2026-04-25T08:47:17.666Z</time></trkpt><trkpt lat="38.0676167" lon="15.83519"><ele>973.0</ele><time>2026-04-25T08:47:18.666Z</time></trkpt><trkpt lat="38.0675517" lon="15.8351367"><ele>973.0</ele><time>2026-04-25T08:47:19.666Z</time></trkpt><trkpt lat="38.0674883" lon="15.835085"><ele>973.0</ele><time>2026-04-25T08:47:20.666Z</time></trkpt><trkpt lat="38.0674283" lon="15.8350133"><ele>972.9999999999999</ele><time>2026-04-25T08:47:21.667Z</time></trkpt><trkpt lat="38.0673683" lon="15.834945"><ele>973.0</ele><time>2026-04-25T08:47:22.666Z</time></trkpt><trkpt lat="38.0673133" lon="15.834875"><ele>970.3333333333333</ele><time>2026-04-25T08:47:23.666Z</time></trkpt><trkpt lat="38.0672683" lon="15.8348167"><ele>967.6666666666666</ele><time>2026-04-25T08:47:24.666Z</time></trkpt><trkpt lat="38.0672033" lon="15.83475"><ele>965.0</ele><time>2026-04-25T08:47:26.666Z</time></trkpt><trkpt lat="38.067195" lon="15.8348333"><ele>962.3333333333333</ele><time>2026-04-25T08:47:30.666Z</time></trkpt><trkpt lat="38.0672633" lon="15.8349567"><ele>959.6666666666666</ele><time>2026-04-25T08:47:32.666Z</time></trkpt><trkpt lat="38.06733" lon="15.8350417"><ele>957.0</ele><time>2026-04-25T08:47:33.666Z</time></trkpt><trkpt lat="38.0674" lon="15.8351333"><ele>959.6666666666666</ele><time>2026-04-25T08:47:34.666Z</time></trkpt><trkpt lat="38.06747" lon="15.8352167"><ele>962.3333333333333</ele><time>2026-04-25T08:47:35.666Z</time></trkpt><trkpt lat="38.0675333" lon="15.8352967"><ele>965.0</ele><time>2026-04-25T08:47:36.666Z</time></trkpt><trkpt lat="38.06758" lon="15.8353817"><ele>967.6666666666666</ele><time>2026-04-25T08:47:37.666Z</time></trkpt><trkpt lat="38.0676117" lon="15.8354667"><ele>970.3333333333333</ele><time>2026-04-25T08:47:38.666Z</time></trkpt><trkpt lat="38.0676433" lon="15.8355433"><ele>973.0</ele><time>2026-04-25T08:47:39.666Z</time></trkpt><trkpt lat="38.0676667" lon="15.8356333"><ele>973.0</ele><time>2026-04-25T08:47:40.666Z</time></trkpt><trkpt lat="38.0676817" lon="15.835715"><ele>973.0</ele><time>2026-04-25T08:47:41.666Z</time></trkpt><trkpt lat="38.0677783" lon="15.835805"><ele>973.0</ele><time>2026-04-25T08:47:43.666Z</time></trkpt><trkpt lat="38.0678433" lon="15.8358683"><ele>973.0</ele><time>2026-04-25T08:47:45.666Z</time></trkpt><trkpt lat="38.06778" lon="15.8359117"><ele>973.0</ele><time>2026-04-25T08:47:49.667Z</time></trkpt><trkpt lat="38.0676617" lon="15.8358617"><ele>972.9999999999999</ele><time>2026-04-25T08:47:51.667Z</time></trkpt><trkpt lat="38.0675917" lon="15.8358233"><ele>973.0</ele><time>2026-04-25T08:47:52.666Z</time></trkpt><trkpt lat="38.06753" lon="15.83578"><ele>973.0</ele><time>2026-04-25T08:47:53.666Z</time></trkpt><trkpt lat="38.0674767" lon="15.8357133"><ele>973.0</ele><time>2026-04-25T08:47:54.666Z</time></trkpt><trkpt lat="38.0674233" lon="15.83563"><ele>972.9999999999999</ele><time>2026-04-25T08:47:55.666Z</time></trkpt><trkpt lat="38.0673633" lon="15.8355367"><ele>973.0</ele><time>2026-04-25T08:47:56.666Z</time></trkpt><trkpt lat="38.0673067" lon="15.8354417"><ele>967.4999999999999</ele><time>2026-04-25T08:47:57.666Z</time></trkpt><trkpt lat="38.0672433" lon="15.83536"><ele>962.0</ele><time>2026-04-25T08:47:58.666Z</time></trkpt><trkpt lat="38.0671817" lon="15.8353"><ele>956.5</ele><time>2026-04-25T08:47:59.666Z</time></trkpt><trkpt lat="38.0671183" lon="15.835255"><ele>951.0</ele><time>2026-04-25T08:48:00.666Z</time></trkpt><trkpt lat="38.0670433" lon="15.8352283"><ele>945.4999999999999</ele><time>2026-04-25T08:48:01.666Z</time></trkpt><trkpt lat="38.06696" lon="15.8351967"><ele>940.0</ele><time>2026-04-25T08:48:02.666Z</time></trkpt><trkpt lat="38.0668783" lon="15.8351817"><ele>940.0</ele><time>2026-04-25T08:48:03.667Z</time></trkpt><trkpt lat="38.0668183" lon="15.835155"><ele>940.0</ele><time>2026-04-25T08:48:04.666Z</time></trkpt><trkpt lat="38.0667483" lon="15.8350567"><ele>940.0</ele><time>2026-04-25T08:48:06.667Z</time></trkpt><trkpt lat="38.066735" lon="15.8349233"><ele>940.0</ele><time>2026-04-25T08:48:08.666Z</time></trkpt><trkpt lat="38.0667717" lon="15.83477"><ele>940.0</ele><time>2026-04-25T08:48:10.666Z</time></trkpt><trkpt lat="38.0668067" lon="15.8346483"><ele>942.3333333333333</ele><time>2026-04-25T08:48:11.666Z</time></trkpt><trkpt lat="38.066845" lon="15.834545"><ele>944.6666666666666</ele><time>2026-04-25T08:48:12.666Z</time></trkpt><trkpt lat="38.0668767" lon="15.83445"><ele>947.0</ele><time>2026-04-25T08:48:13.666Z</time></trkpt><trkpt lat="38.0668983" lon="15.8343667"><ele>949.3333333333333</ele><time>2026-04-25T08:48:14.666Z</time></trkpt><trkpt lat="38.06688" lon="15.8342267"><ele>951.6666666666666</ele><time>2026-04-25T08:48:16.667Z</time></trkpt><trkpt lat="38.066815" lon="15.8342133"><ele>954.0</ele><time>2026-04-25T08:48:19.666Z</time></trkpt><trkpt lat="38.066795" lon="15.8342917"><ele>954.6</ele><time>2026-04-25T08:48:21.666Z</time></trkpt><trkpt lat="38.06674" lon="15.8344567"><ele>955.2</ele><time>2026-04-25T08:48:23.667Z</time></trkpt><trkpt lat="38.0666867" lon="15.8345683"><ele>955.8000000000001</ele><time>2026-04-25T08:48:24.666Z</time></trkpt><trkpt lat="38.0666267" lon="15.8346767"><ele>956.4000000000001</ele><time>2026-04-25T08:48:25.666Z</time></trkpt><trkpt lat="38.0665817" lon="15.8347733"><ele>957.0</ele><time>2026-04-25T08:48:26.667Z</time></trkpt><trkpt lat="38.0665483" lon="15.8348533"><ele>954.1666666666666</ele><time>2026-04-25T08:48:27.666Z</time></trkpt><trkpt lat="38.06654" lon="15.8349967"><ele>951.3333333333333</ele><time>2026-04-25T08:48:29.667Z</time></trkpt><trkpt lat="38.0665633" lon="15.83508"><ele>948.5</ele><time>2026-04-25T08:48:30.666Z</time></trkpt><trkpt lat="38.066605" lon="15.8351917"><ele>945.6666666666666</ele><time>2026-04-25T08:48:31.666Z</time></trkpt><trkpt lat="38.0666467" lon="15.8352833"><ele>942.8333333333333</ele><time>2026-04-25T08:48:32.666Z</time></trkpt><trkpt lat="38.0666917" lon="15.8353517"><ele>940.0</ele><time>2026-04-25T08:48:33.667Z</time></trkpt><trkpt lat="38.0667417" lon="15.8354017"><ele>939.9999999999999</ele><time>2026-04-25T08:48:34.667Z</time></trkpt><trkpt lat="38.0668167" lon="15.8354283"><ele>940.0</ele><time>2026-04-25T08:48:35.666Z</time></trkpt><trkpt lat="38.066895" lon="15.8354617"><ele>940.0</ele><time>2026-04-25T08:48:36.666Z</time></trkpt><trkpt lat="38.0669767" lon="15.835505"><ele>940.0</ele><time>2026-04-25T08:48:37.666Z</time></trkpt><trkpt lat="38.0670567" lon="15.8355617"><ele>939.9999999999999</ele><time>2026-04-25T08:48:38.667Z</time></trkpt><trkpt lat="38.0671117" lon="15.8356433"><ele>940.0</ele><time>2026-04-25T08:48:39.666Z</time></trkpt><trkpt lat="38.0671617" lon="15.8357433"><ele>940.0</ele><time>2026-04-25T08:48:40.667Z</time></trkpt><trkpt lat="38.0672" lon="15.83587"><ele>940.0</ele><time>2026-04-25T08:48:41.666Z</time></trkpt><trkpt lat="38.0672383" lon="15.83598"><ele>940.0</ele><time>2026-04-25T08:48:42.667Z</time></trkpt><trkpt lat="38.0672683" lon="15.83608"><ele>940.0</ele><time>2026-04-25T08:48:43.666Z</time></trkpt><trkpt lat="38.0673067" lon="15.8361617"><ele>940.0</ele><time>2026-04-25T08:48:44.666Z</time></trkpt><trkpt lat="38.0673983" lon="15.83625"><ele>937.4999999999999</ele><time>2026-04-25T08:48:46.666Z</time></trkpt><trkpt lat="38.0674667" lon="15.8362717"><ele>935.0</ele><time>2026-04-25T08:48:47.666Z</time></trkpt><trkpt lat="38.0675417" lon="15.8362967"><ele>932.5</ele><time>2026-04-25T08:48:48.666Z</time></trkpt><trkpt lat="38.06762" lon="15.8363017"><ele>930.0</ele><time>2026-04-25T08:48:49.666Z</time></trkpt><trkpt lat="38.0676917" lon="15.8363317"><ele>927.4999999999999</ele><time>2026-04-25T08:48:50.666Z</time></trkpt><trkpt lat="38.0677633" lon="15.8363833"><ele>925.0</ele><time>2026-04-25T08:48:51.666Z</time></trkpt><trkpt lat="38.0678183" lon="15.8364433"><ele>924.9999999999999</ele><time>2026-04-25T08:48:52.666Z</time></trkpt><trkpt lat="38.06791" lon="15.836475"><ele>925.0</ele><time>2026-04-25T08:48:54.666Z</time></trkpt><trkpt lat="38.0680183" lon="15.8364333"><ele>925.0</ele><time>2026-04-25T08:48:56.666Z</time></trkpt><trkpt lat="38.0680933" lon="15.8364217"><ele>925.0</ele><time>2026-04-25T08:48:57.666Z</time></trkpt><trkpt lat="38.0681767" lon="15.836415"><ele>924.9999999999999</ele><time>2026-04-25T08:48:58.666Z</time></trkpt><trkpt lat="38.0682467" lon="15.8363917"><ele>925.0</ele><time>2026-04-25T08:48:59.666Z</time></trkpt><trkpt lat="38.068315" lon="15.8363533"><ele>925.3333333333333</ele><time>2026-04-25T08:49:00.666Z</time></trkpt><trkpt lat="38.068385" lon="15.8363017"><ele>925.6666666666666</ele><time>2026-04-25T08:49:01.666Z</time></trkpt><trkpt lat="38.06846" lon="15.8362417"><ele>926.0</ele><time>2026-04-25T08:49:02.667Z</time></trkpt><trkpt lat="38.0685483" lon="15.836175"><ele>926.3333333333333</ele><time>2026-04-25T08:49:03.666Z</time></trkpt><trkpt lat="38.068615" lon="15.8361117"><ele>926.6666666666666</ele><time>2026-04-25T08:49:04.666Z</time></trkpt><trkpt lat="38.06867" lon="15.83604"><ele>927.0</ele><time>2026-04-25T08:49:05.667Z</time></trkpt><trkpt lat="38.0687233" lon="15.8359717"><ele>927.0</ele><time>2026-04-25T08:49:06.666Z</time></trkpt><trkpt lat="38.0688167" lon="15.8358883"><ele>927.0</ele><time>2026-04-25T08:49:08.666Z</time></trkpt><trkpt lat="38.0689133" lon="15.8358733"><ele>927.0</ele><time>2026-04-25T08:49:10.666Z</time></trkpt><trkpt lat="38.0689917" lon="15.8359783"><ele>927.0</ele><time>2026-04-25T08:49:12.666Z</time></trkpt><trkpt lat="38.069045" lon="15.83604"><ele>927.0</ele><time>2026-04-25T08:49:13.666Z</time></trkpt><trkpt lat="38.069105" lon="15.8361"><ele>925.4000000000001</ele><time>2026-04-25T08:49:14.666Z</time></trkpt><trkpt lat="38.0691617" lon="15.8361533"><ele>923.8000000000001</ele><time>2026-04-25T08:49:15.667Z</time></trkpt><trkpt lat="38.0692317" lon="15.8361933"><ele>922.2</ele><time>2026-04-25T08:49:16.667Z</time></trkpt><trkpt lat="38.06935" lon="15.8362367"><ele>920.6</ele><time>2026-04-25T08:49:18.666Z</time></trkpt><trkpt lat="38.0694683" lon="15.83624"><ele>919.0</ele><time>2026-04-25T08:49:20.666Z</time></trkpt><trkpt lat="38.0695733" lon="15.836165"><ele>919.0</ele><time>2026-04-25T08:49:22.666Z</time></trkpt><trkpt lat="38.0696867" lon="15.83611"><ele>919.0000000000001</ele><time>2026-04-25T08:49:24.666Z</time></trkpt><trkpt lat="38.069765" lon="15.8361033"><ele>919.0000000000001</ele><time>2026-04-25T08:49:25.666Z</time></trkpt><trkpt lat="38.06985" lon="15.8361067"><ele>919.0</ele><time>2026-04-25T08:49:26.666Z</time></trkpt><trkpt lat="38.0699317" lon="15.8361183"><ele>919.0</ele><time>2026-04-25T08:49:27.666Z</time></trkpt><trkpt lat="38.0700217" lon="15.836145"><ele>919.2</ele><time>2026-04-25T08:49:28.666Z</time></trkpt><trkpt lat="38.0701117" lon="15.8361967"><ele>919.4000000000001</ele><time>2026-04-25T08:49:29.666Z</time></trkpt><trkpt lat="38.07018" lon="15.8362633"><ele>919.6</ele><time>2026-04-25T08:49:30.666Z</time></trkpt><trkpt lat="38.0702433" lon="15.836325"><ele>919.8</ele><time>2026-04-25T08:49:31.666Z</time></trkpt><trkpt lat="38.0703083" lon="15.8363767"><ele>920.0</ele><time>2026-04-25T08:49:32.666Z</time></trkpt><trkpt lat="38.0704067" lon="15.8364433"><ele>920.0</ele><time>2026-04-25T08:49:34.666Z</time></trkpt><trkpt lat="38.0704733" lon="15.836575"><ele>920.0</ele><time>2026-04-25T08:49:36.666Z</time></trkpt><trkpt lat="38.0704917" lon="15.836665"><ele>920.0</ele><time>2026-04-25T08:49:37.666Z</time></trkpt><trkpt lat="38.0705383" lon="15.8367967"><ele>920.0</ele><time>2026-04-25T08:49:39.667Z</time></trkpt><trkpt lat="38.070625" lon="15.8368967"><ele>920.0</ele><time>2026-04-25T08:49:41.666Z</time></trkpt><trkpt lat="38.0706883" lon="15.8369383"><ele>920.8333333333334</ele><time>2026-04-25T08:49:42.666Z</time></trkpt><trkpt lat="38.07077" lon="15.83699"><ele>921.6666666666667</ele><time>2026-04-25T08:49:43.666Z</time></trkpt><trkpt lat="38.0708417" lon="15.8370533"><ele>922.5</ele><time>2026-04-25T08:49:44.666Z</time></trkpt><trkpt lat="38.0709" lon="15.8371033"><ele>923.3333333333333</ele><time>2026-04-25T08:49:45.666Z</time></trkpt><trkpt lat="38.0709783" lon="15.8371417"><ele>924.1666666666666</ele><time>2026-04-25T08:49:47.666Z</time></trkpt><trkpt lat="38.071045" lon="15.8372067"><ele>925.0</ele><time>2026-04-25T08:49:50.666Z</time></trkpt><trkpt lat="38.0710083" lon="15.8373167"><ele>924.9999999999999</ele><time>2026-04-25T08:49:53.666Z</time></trkpt><trkpt lat="38.07095" lon="15.8373783"><ele>925.0</ele><time>2026-04-25T08:49:55.666Z</time></trkpt><trkpt lat="38.0708767" lon="15.8374067"><ele>925.0</ele><time>2026-04-25T08:49:57.667Z</time></trkpt><trkpt lat="38.0707467" lon="15.8374133"><ele>925.0</ele><time>2026-04-25T08:49:59.666Z</time></trkpt><trkpt lat="38.0706833" lon="15.83739"><ele>924.9999999999999</ele><time>2026-04-25T08:50:00.666Z</time></trkpt><trkpt lat="38.0706217" lon="15.83736"><ele>925.0</ele><time>2026-04-25T08:50:01.666Z</time></trkpt><trkpt lat="38.0705167" lon="15.8373183"><ele>925.0</ele><time>2026-04-25T08:50:03.667Z</time></trkpt><trkpt lat="38.0704083" lon="15.8372883"><ele>925.0</ele><time>2026-04-25T08:50:05.667Z</time></trkpt><trkpt lat="38.0702833" lon="15.8372683"><ele>925.0</ele><time>2026-04-25T08:50:07.667Z</time></trkpt><trkpt lat="38.0701683" lon="15.8372317"><ele>925.0</ele><time>2026-04-25T08:50:09.667Z</time></trkpt><trkpt lat="38.0701133" lon="15.83719"><ele>925.0</ele><time>2026-04-25T08:50:10.666Z</time></trkpt><trkpt lat="38.0700383" lon="15.837155"><ele>924.9999999999999</ele><time>2026-04-25T08:50:12.666Z</time></trkpt><trkpt lat="38.069995" lon="15.8372317"><ele>925.0</ele><time>2026-04-25T08:50:15.666Z</time></trkpt><trkpt lat="38.069975" lon="15.8373183"><ele>925.0</ele><time>2026-04-25T08:50:17.666Z</time></trkpt><trkpt lat="38.06994" lon="15.837425"><ele>925.0</ele><time>2026-04-25T08:50:20.666Z</time></trkpt><trkpt lat="38.0699117" lon="15.8374983"><ele>924.9999999999999</ele><time>2026-04-25T08:50:22.666Z</time></trkpt><trkpt lat="38.06988" lon="15.8376067"><ele>925.0</ele><time>2026-04-25T08:50:25.667Z</time></trkpt><trkpt lat="38.0698467" lon="15.837705"><ele>923.8333333333333</ele><time>2026-04-25T08:50:28.666Z</time></trkpt><trkpt lat="38.0698033" lon="15.8378"><ele>922.6666666666666</ele><time>2026-04-25T08:50:47.666Z</time></trkpt><trkpt lat="38.06974" lon="15.8379217"><ele>921.5</ele><time>2026-04-25T08:50:49.666Z</time></trkpt><trkpt lat="38.0696867" lon="15.8379867"><ele>920.3333333333333</ele><time>2026-04-25T08:50:50.666Z</time></trkpt><trkpt lat="38.0696233" lon="15.8380417"><ele>919.1666666666666</ele><time>2026-04-25T08:50:51.666Z</time></trkpt><trkpt lat="38.0695667" lon="15.8380867"><ele>918.0</ele><time>2026-04-25T08:50:52.666Z</time></trkpt><trkpt lat="38.0695233" lon="15.838145"><ele>918.0</ele><time>2026-04-25T08:50:53.666Z</time></trkpt><trkpt lat="38.069495" lon="15.8382233"><ele>918.0</ele><time>2026-04-25T08:50:54.667Z</time></trkpt><trkpt lat="38.0694633" lon="15.83833"><ele>918.0</ele><time>2026-04-25T08:50:55.666Z</time></trkpt><trkpt lat="38.0694183" lon="15.8384533"><ele>918.0</ele><time>2026-04-25T08:50:56.666Z</time></trkpt><trkpt lat="38.06937" lon="15.83857"><ele>918.0</ele><time>2026-04-25T08:50:57.666Z</time></trkpt><trkpt lat="38.0693217" lon="15.8386567"><ele>918.0</ele><time>2026-04-25T08:50:58.666Z</time></trkpt><trkpt lat="38.069265" lon="15.8387217"><ele>918.0</ele><time>2026-04-25T08:50:59.666Z</time></trkpt><trkpt lat="38.0692033" lon="15.8387667"><ele>918.0</ele><time>2026-04-25T08:51:00.666Z</time></trkpt><trkpt lat="38.0691533" lon="15.8388167"><ele>918.0</ele><time>2026-04-25T08:51:01.666Z</time></trkpt><trkpt lat="38.0691" lon="15.8388917"><ele>918.0</ele><time>2026-04-25T08:51:02.666Z</time></trkpt><trkpt lat="38.069055" lon="15.8389833"><ele>918.0</ele><time>2026-04-25T08:51:03.666Z</time></trkpt><trkpt lat="38.0690133" lon="15.8390833"><ele>918.0</ele><time>2026-04-25T08:51:04.666Z</time></trkpt><trkpt lat="38.06898" lon="15.8392117"><ele>918.0</ele><time>2026-04-25T08:51:05.666Z</time></trkpt><trkpt lat="38.0689483" lon="15.8393283"><ele>918.0</ele><time>2026-04-25T08:51:06.666Z</time></trkpt><trkpt lat="38.0689167" lon="15.8394383"><ele>918.0</ele><time>2026-04-25T08:51:07.666Z</time></trkpt><trkpt lat="38.0688983" lon="15.8395267"><ele>918.0</ele><time>2026-04-25T08:51:08.667Z</time></trkpt><trkpt lat="38.0688767" lon="15.839615"><ele>918.0</ele><time>2026-04-25T08:51:10.667Z</time></trkpt><trkpt lat="38.0688033" lon="15.8395983"><ele>926.8</ele><time>2026-04-25T08:51:14.667Z</time></trkpt><trkpt lat="38.068685" lon="15.8395283"><ele>935.5999999999999</ele><time>2026-04-25T08:51:16.666Z</time></trkpt><trkpt lat="38.06861" lon="15.8394867"><ele>944.4000000000001</ele><time>2026-04-25T08:51:17.667Z</time></trkpt><trkpt lat="38.0685317" lon="15.839435"><ele>953.2</ele><time>2026-04-25T08:51:18.666Z</time></trkpt><trkpt lat="38.0684533" lon="15.8393783"><ele>962.0</ele><time>2026-04-25T08:51:19.666Z</time></trkpt><trkpt lat="38.0683717" lon="15.8393217"><ele>955.4000000000001</ele><time>2026-04-25T08:51:20.666Z</time></trkpt><trkpt lat="38.0682917" lon="15.83926"><ele>948.8000000000001</ele><time>2026-04-25T08:51:21.666Z</time></trkpt><trkpt lat="38.0682083" lon="15.839195"><ele>942.2</ele><time>2026-04-25T08:51:22.667Z</time></trkpt><trkpt lat="38.06813" lon="15.8391333"><ele>935.6</ele><time>2026-04-25T08:51:23.666Z</time></trkpt><trkpt lat="38.0680467" lon="15.83908"><ele>929.0</ele><time>2026-04-25T08:51:24.666Z</time></trkpt><trkpt lat="38.06797" lon="15.8390383"><ele>929.0000000000001</ele><time>2026-04-25T08:51:25.666Z</time></trkpt><trkpt lat="38.06789" lon="15.8389967"><ele>929.0</ele><time>2026-04-25T08:51:26.666Z</time></trkpt><trkpt lat="38.0678167" lon="15.83894"><ele>929.0</ele><time>2026-04-25T08:51:27.667Z</time></trkpt><trkpt lat="38.067735" lon="15.8388883"><ele>929.0</ele><time>2026-04-25T08:51:28.666Z</time></trkpt><trkpt lat="38.067655" lon="15.83883"><ele>929.0000000000001</ele><time>2026-04-25T08:51:29.666Z</time></trkpt><trkpt lat="38.0675783" lon="15.8387883"><ele>929.0</ele><time>2026-04-25T08:51:30.666Z</time></trkpt><trkpt lat="38.0675083" lon="15.8387483"><ele>929.0000000000001</ele><time>2026-04-25T08:51:31.667Z</time></trkpt><trkpt lat="38.0674533" lon="15.8387033"><ele>929.0</ele><time>2026-04-25T08:51:32.666Z</time></trkpt><trkpt lat="38.0673983" lon="15.838655"><ele>929.0</ele><time>2026-04-25T08:51:33.667Z</time></trkpt><trkpt lat="38.0673217" lon="15.8385433"><ele>929.0</ele><time>2026-04-25T08:51:35.666Z</time></trkpt><trkpt lat="38.0672167" lon="15.8384567"><ele>929.0000000000001</ele><time>2026-04-25T08:51:37.666Z</time></trkpt><trkpt lat="38.0671533" lon="15.8384267"><ele>929.0</ele><time>2026-04-25T08:51:38.666Z</time></trkpt><trkpt lat="38.0670483" lon="15.8383683"><ele>922.2</ele><time>2026-04-25T08:51:40.667Z</time></trkpt><trkpt lat="38.0669733" lon="15.8382717"><ele>915.4000000000001</ele><time>2026-04-25T08:51:42.666Z</time></trkpt><trkpt lat="38.0668883" lon="15.83822"><ele>908.6</ele><time>2026-04-25T08:51:44.666Z</time></trkpt><trkpt lat="38.0667717" lon="15.8382467"><ele>901.8</ele><time>2026-04-25T08:51:46.666Z</time></trkpt><trkpt lat="38.066705" lon="15.8382717"><ele>895.0</ele><time>2026-04-25T08:51:47.666Z</time></trkpt><trkpt lat="38.066635" lon="15.8382967"><ele>895.7142857142857</ele><time>2026-04-25T08:51:48.666Z</time></trkpt><trkpt lat="38.066555" lon="15.8383233"><ele>896.4285714285716</ele><time>2026-04-25T08:51:49.666Z</time></trkpt><trkpt lat="38.06648" lon="15.8383317"><ele>897.1428571428572</ele><time>2026-04-25T08:51:50.667Z</time></trkpt><trkpt lat="38.0664117" lon="15.8383417"><ele>897.8571428571429</ele><time>2026-04-25T08:51:51.666Z</time></trkpt><trkpt lat="38.0663483" lon="15.8383267"><ele>898.5714285714287</ele><time>2026-04-25T08:51:52.666Z</time></trkpt><trkpt lat="38.0662833" lon="15.8382933"><ele>899.2857142857144</ele><time>2026-04-25T08:51:53.666Z</time></trkpt><trkpt lat="38.0662217" lon="15.8382433"><ele>900.0000000000001</ele><time>2026-04-25T08:51:54.666Z</time></trkpt><trkpt lat="38.06617" lon="15.8381867"><ele>900.0</ele><time>2026-04-25T08:51:55.666Z</time></trkpt><trkpt lat="38.0661133" lon="15.838135"><ele>900.0</ele><time>2026-04-25T08:51:56.666Z</time></trkpt><trkpt lat="38.066055" lon="15.8380767"><ele>900.0</ele><time>2026-04-25T08:51:57.667Z</time></trkpt><trkpt lat="38.0659883" lon="15.8379933"><ele>900.0</ele><time>2026-04-25T08:51:58.666Z</time></trkpt><trkpt lat="38.0659083" lon="15.83792"><ele>900.0</ele><time>2026-04-25T08:51:59.666Z</time></trkpt><trkpt lat="38.0658483" lon="15.8378617"><ele>900.0</ele><time>2026-04-25T08:52:00.666Z</time></trkpt><trkpt lat="38.0657517" lon="15.83783"><ele>899.0</ele><time>2026-04-25T08:52:02.666Z</time></trkpt><trkpt lat="38.06566" lon="15.8379083"><ele>898.0</ele><time>2026-04-25T08:52:04.666Z</time></trkpt><trkpt lat="38.0656117" lon="15.8379683"><ele>897.0</ele><time>2026-04-25T08:52:05.666Z</time></trkpt><trkpt lat="38.06557" lon="15.8380367"><ele>896.0</ele><time>2026-04-25T08:52:06.666Z</time></trkpt><trkpt lat="38.0655167" lon="15.8381917"><ele>895.0</ele><time>2026-04-25T08:52:08.666Z</time></trkpt><trkpt lat="38.065495" lon="15.8383033"><ele>895.0</ele><time>2026-04-25T08:52:09.666Z</time></trkpt><trkpt lat="38.0654667" lon="15.8384083"><ele>895.0</ele><time>2026-04-25T08:52:10.666Z</time></trkpt><trkpt lat="38.0654383" lon="15.8384917"><ele>895.0</ele><time>2026-04-25T08:52:11.666Z</time></trkpt><trkpt lat="38.0653417" lon="15.8385533"><ele>895.0</ele><time>2026-04-25T08:52:13.666Z</time></trkpt><trkpt lat="38.065225" lon="15.8385467"><ele>895.0</ele><time>2026-04-25T08:52:15.666Z</time></trkpt><trkpt lat="38.0651583" lon="15.8384983"><ele>894.9999999999999</ele><time>2026-04-25T08:52:16.666Z</time></trkpt><trkpt lat="38.0650967" lon="15.8384183"><ele>895.0</ele><time>2026-04-25T08:52:17.666Z</time></trkpt><trkpt lat="38.0650483" lon="15.83831"><ele>895.0</ele><time>2026-04-25T08:52:18.666Z</time></trkpt><trkpt lat="38.06501" lon="15.8382033"><ele>895.0</ele><time>2026-04-25T08:52:19.666Z</time></trkpt><trkpt lat="38.0649717" lon="15.8381083"><ele>894.9999999999999</ele><time>2026-04-25T08:52:20.667Z</time></trkpt><trkpt lat="38.064925" lon="15.8380317"><ele>895.0</ele><time>2026-04-25T08:52:21.666Z</time></trkpt><trkpt lat="38.064875" lon="15.8379617"><ele>902.4999999999999</ele><time>2026-04-25T08:52:22.666Z</time></trkpt><trkpt lat="38.0648183" lon="15.83789"><ele>910.0</ele><time>2026-04-25T08:52:23.667Z</time></trkpt><trkpt lat="38.0647617" lon="15.837825"><ele>917.5</ele><time>2026-04-25T08:52:24.666Z</time></trkpt><trkpt lat="38.0646883" lon="15.8377667"><ele>925.0</ele><time>2026-04-25T08:52:25.667Z</time></trkpt><trkpt lat="38.06462" lon="15.8377083"><ele>932.4999999999999</ele><time>2026-04-25T08:52:26.666Z</time></trkpt><trkpt lat="38.0645467" lon="15.83767"><ele>940.0</ele><time>2026-04-25T08:52:27.666Z</time></trkpt><trkpt lat="38.0644817" lon="15.8376417"><ele>938.1666666666666</ele><time>2026-04-25T08:52:28.667Z</time></trkpt><trkpt lat="38.0644033" lon="15.83763"><ele>936.3333333333333</ele><time>2026-04-25T08:52:29.666Z</time></trkpt><trkpt lat="38.0643217" lon="15.8376217"><ele>934.5</ele><time>2026-04-25T08:52:30.667Z</time></trkpt><trkpt lat="38.0642367" lon="15.837625"><ele>932.6666666666667</ele><time>2026-04-25T08:52:31.666Z</time></trkpt><trkpt lat="38.06414" lon="15.8376133"><ele>930.8333333333334</ele><time>2026-04-25T08:52:32.666Z</time></trkpt><trkpt lat="38.0640433" lon="15.83761"><ele>929.0</ele><time>2026-04-25T08:52:33.666Z</time></trkpt><trkpt lat="38.0639333" lon="15.8375933"><ele>929.0</ele><time>2026-04-25T08:52:34.667Z</time></trkpt><trkpt lat="38.063825" lon="15.8375583"><ele>929.0000000000001</ele><time>2026-04-25T08:52:35.666Z</time></trkpt><trkpt lat="38.063725" lon="15.8375233"><ele>929.0000000000001</ele><time>2026-04-25T08:52:36.667Z</time></trkpt><trkpt lat="38.063645" lon="15.8374633"><ele>929.0</ele><time>2026-04-25T08:52:37.666Z</time></trkpt><trkpt lat="38.0635917" lon="15.83739"><ele>929.0</ele><time>2026-04-25T08:52:38.666Z</time></trkpt><trkpt lat="38.0635517" lon="15.8373"><ele>929.0000000000001</ele><time>2026-04-25T08:52:39.667Z</time></trkpt><trkpt lat="38.0634983" lon="15.8371967"><ele>929.0</ele><time>2026-04-25T08:52:40.666Z</time></trkpt><trkpt lat="38.0634467" lon="15.8370983"><ele>929.0</ele><time>2026-04-25T08:52:41.666Z</time></trkpt><trkpt lat="38.0634067" lon="15.8370183"><ele>929.0</ele><time>2026-04-25T08:52:42.666Z</time></trkpt><trkpt lat="38.06336" lon="15.8369583"><ele>929.0000000000001</ele><time>2026-04-25T08:52:43.666Z</time></trkpt><trkpt lat="38.0632833" lon="15.8368783"><ele>929.0</ele><time>2026-04-25T08:52:44.667Z</time></trkpt><trkpt lat="38.0631967" lon="15.836785"><ele>926.0000000000001</ele><time>2026-04-25T08:52:45.666Z</time></trkpt><trkpt lat="38.0631317" lon="15.8367083"><ele>923.0</ele><time>2026-04-25T08:52:46.666Z</time></trkpt><trkpt lat="38.0630717" lon="15.8366567"><ele>920.0</ele><time>2026-04-25T08:52:47.667Z</time></trkpt><trkpt lat="38.063005" lon="15.8366233"><ele>917.0</ele><time>2026-04-25T08:52:48.666Z</time></trkpt><trkpt lat="38.0629317" lon="15.8366183"><ele>914.0000000000001</ele><time>2026-04-25T08:52:49.667Z</time></trkpt><trkpt lat="38.062855" lon="15.836625"><ele>911.0</ele><time>2026-04-25T08:52:50.666Z</time></trkpt><trkpt lat="38.06277" lon="15.8366383"><ele>911.0</ele><time>2026-04-25T08:52:51.666Z</time></trkpt><trkpt lat="38.0626683" lon="15.8366617"><ele>910.9999999999999</ele><time>2026-04-25T08:52:52.666Z</time></trkpt><trkpt lat="38.0625667" lon="15.836685"><ele>910.9999999999999</ele><time>2026-04-25T08:52:53.666Z</time></trkpt><trkpt lat="38.0624733" lon="15.8367"><ele>911.0</ele><time>2026-04-25T08:52:54.666Z</time></trkpt><trkpt lat="38.0623917" lon="15.8367217"><ele>911.0</ele><time>2026-04-25T08:52:55.666Z</time></trkpt><trkpt lat="38.062335" lon="15.836765"><ele>918.0000000000001</ele><time>2026-04-25T08:52:57.666Z</time></trkpt><trkpt lat="38.062415" lon="15.8368167"><ele>925.0</ele><time>2026-04-25T08:53:00.666Z</time></trkpt><trkpt lat="38.0624817" lon="15.8368183"><ele>932.0</ele><time>2026-04-25T08:53:02.666Z</time></trkpt><trkpt lat="38.0625567" lon="15.8368217"><ele>939.0</ele><time>2026-04-25T08:53:04.667Z</time></trkpt><trkpt lat="38.0626567" lon="15.8368267"><ele>946.0000000000001</ele><time>2026-04-25T08:53:06.666Z</time></trkpt><trkpt lat="38.062765" lon="15.8368617"><ele>953.0</ele><time>2026-04-25T08:53:08.666Z</time></trkpt><trkpt lat="38.0628583" lon="15.83689"><ele>953.0</ele><time>2026-04-25T08:53:10.666Z</time></trkpt><trkpt lat="38.0629517" lon="15.83693"><ele>953.0</ele><time>2026-04-25T08:53:12.666Z</time></trkpt><trkpt lat="38.063055" lon="15.8369767"><ele>953.0</ele><time>2026-04-25T08:53:14.666Z</time></trkpt><trkpt lat="38.06314" lon="15.8370517"><ele>953.0</ele><time>2026-04-25T08:53:16.666Z</time></trkpt><trkpt lat="38.0631067" lon="15.8371283"><ele>953.0</ele><time>2026-04-25T08:53:20.666Z</time></trkpt><trkpt lat="38.0630233" lon="15.837085"><ele>953.0</ele><time>2026-04-25T08:53:22.666Z</time></trkpt><trkpt lat="38.0629117" lon="15.8370567"><ele>953.0</ele><time>2026-04-25T08:53:24.666Z</time></trkpt><trkpt lat="38.062805" lon="15.83708"><ele>953.0</ele><time>2026-04-25T08:53:26.666Z</time></trkpt><trkpt lat="38.06269" lon="15.837115"><ele>953.0</ele><time>2026-04-25T08:53:28.666Z</time></trkpt><trkpt lat="38.062615" lon="15.8371267"><ele>953.0</ele><time>2026-04-25T08:53:29.667Z</time></trkpt><trkpt lat="38.0625317" lon="15.8371367"><ele>953.5999999999999</ele><time>2026-04-25T08:53:30.666Z</time></trkpt><trkpt lat="38.062445" lon="15.8371417"><ele>954.1999999999999</ele><time>2026-04-25T08:53:31.666Z</time></trkpt><trkpt lat="38.0623483" lon="15.83715"><ele>954.8</ele><time>2026-04-25T08:53:32.666Z</time></trkpt><trkpt lat="38.062255" lon="15.8371467"><ele>955.4</ele><time>2026-04-25T08:53:33.666Z</time></trkpt><trkpt lat="38.0621583" lon="15.83714"><ele>956.0</ele><time>2026-04-25T08:53:34.666Z</time></trkpt><trkpt lat="38.062075" lon="15.8371283"><ele>956.0000000000001</ele><time>2026-04-25T08:53:35.666Z</time></trkpt><trkpt lat="38.0619917" lon="15.8371233"><ele>956.0</ele><time>2026-04-25T08:53:36.666Z</time></trkpt><trkpt lat="38.0619133" lon="15.837115"><ele>956.0</ele><time>2026-04-25T08:53:37.667Z</time></trkpt><trkpt lat="38.0618433" lon="15.8371083"><ele>956.0</ele><time>2026-04-25T08:53:38.666Z</time></trkpt><trkpt lat="38.0617217" lon="15.8370867"><ele>956.0000000000001</ele><time>2026-04-25T08:53:40.666Z</time></trkpt><trkpt lat="38.0616417" lon="15.8371233"><ele>956.0</ele><time>2026-04-25T08:53:42.666Z</time></trkpt><trkpt lat="38.0615583" lon="15.8372167"><ele>953.5000000000001</ele><time>2026-04-25T08:53:44.666Z</time></trkpt><trkpt lat="38.061505" lon="15.837265"><ele>951.0</ele><time>2026-04-25T08:53:45.666Z</time></trkpt><trkpt lat="38.0614467" lon="15.8373133"><ele>948.5</ele><time>2026-04-25T08:53:46.667Z</time></trkpt><trkpt lat="38.06138" lon="15.8373767"><ele>946.0</ele><time>2026-04-25T08:53:47.666Z</time></trkpt><trkpt lat="38.061305" lon="15.8374367"><ele>943.5000000000001</ele><time>2026-04-25T08:53:48.666Z</time></trkpt><trkpt lat="38.0612317" lon="15.8374983"><ele>941.0</ele><time>2026-04-25T08:53:49.666Z</time></trkpt><trkpt lat="38.0611567" lon="15.8375483"><ele>941.0000000000001</ele><time>2026-04-25T08:53:50.666Z</time></trkpt><trkpt lat="38.061085" lon="15.837585"><ele>941.0</ele><time>2026-04-25T08:53:51.666Z</time></trkpt><trkpt lat="38.0610133" lon="15.83762"><ele>941.0</ele><time>2026-04-25T08:53:52.666Z</time></trkpt><trkpt lat="38.0609483" lon="15.83764"><ele>941.0</ele><time>2026-04-25T08:53:53.666Z</time></trkpt><trkpt lat="38.0608783" lon="15.83765"><ele>941.0000000000001</ele><time>2026-04-25T08:53:54.667Z</time></trkpt><trkpt lat="38.060815" lon="15.837655"><ele>941.0</ele><time>2026-04-25T08:53:55.666Z</time></trkpt><trkpt lat="38.0607183" lon="15.837705"><ele>934.5999999999999</ele><time>2026-04-25T08:53:57.666Z</time></trkpt><trkpt lat="38.06063" lon="15.8378183"><ele>928.1999999999999</ele><time>2026-04-25T08:53:59.666Z</time></trkpt><trkpt lat="38.0606083" lon="15.83796"><ele>921.8000000000001</ele><time>2026-04-25T08:54:01.666Z</time></trkpt><trkpt lat="38.060615" lon="15.8380417"><ele>915.4000000000001</ele><time>2026-04-25T08:54:02.666Z</time></trkpt><trkpt lat="38.0606267" lon="15.8381417"><ele>909.0</ele><time>2026-04-25T08:54:03.666Z</time></trkpt><trkpt lat="38.060625" lon="15.8382467"><ele>909.0</ele><time>2026-04-25T08:54:04.666Z</time></trkpt><trkpt lat="38.0606183" lon="15.8383383"><ele>909.0000000000001</ele><time>2026-04-25T08:54:05.666Z</time></trkpt><trkpt lat="38.0606017" lon="15.8384683"><ele>909.0000000000001</ele><time>2026-04-25T08:54:07.666Z</time></trkpt><trkpt lat="38.060635" lon="15.838555"><ele>909.0</ele><time>2026-04-25T08:54:09.667Z</time></trkpt><trkpt lat="38.0607117" lon="15.838625"><ele>909.0</ele><time>2026-04-25T08:54:11.667Z</time></trkpt><trkpt lat="38.0608" lon="15.83874"><ele>916.0</ele><time>2026-04-25T08:54:13.666Z</time></trkpt><trkpt lat="38.0608517" lon="15.838805"><ele>923.0</ele><time>2026-04-25T08:54:14.666Z</time></trkpt><trkpt lat="38.06091" lon="15.838865"><ele>930.0</ele><time>2026-04-25T08:54:15.666Z</time></trkpt><trkpt lat="38.0609667" lon="15.8389217"><ele>937.0</ele><time>2026-04-25T08:54:16.667Z</time></trkpt><trkpt lat="38.0610233" lon="15.838965"><ele>944.0</ele><time>2026-04-25T08:54:17.666Z</time></trkpt><trkpt lat="38.0610833" lon="15.8390217"><ele>951.0</ele><time>2026-04-25T08:54:18.666Z</time></trkpt><trkpt lat="38.0611417" lon="15.8390817"><ele>958.0</ele><time>2026-04-25T08:54:19.666Z</time></trkpt><trkpt lat="38.0611983" lon="15.8391433"><ele>957.9999999999999</ele><time>2026-04-25T08:54:20.666Z</time></trkpt><trkpt lat="38.06126" lon="15.8391883"><ele>958.0</ele><time>2026-04-25T08:54:21.666Z</time></trkpt><trkpt lat="38.06132" lon="15.8392433"><ele>958.0</ele><time>2026-04-25T08:54:22.666Z</time></trkpt><trkpt lat="38.0613733" lon="15.8393183"><ele>958.0</ele><time>2026-04-25T08:54:23.666Z</time></trkpt><trkpt lat="38.0614317" lon="15.8393933"><ele>957.9999999999999</ele><time>2026-04-25T08:54:24.666Z</time></trkpt><trkpt lat="38.0614917" lon="15.8394717"><ele>958.0</ele><time>2026-04-25T08:54:25.666Z</time></trkpt><trkpt lat="38.061545" lon="15.8395383"><ele>954.2</ele><time>2026-04-25T08:54:26.666Z</time></trkpt><trkpt lat="38.061595" lon="15.8396083"><ele>950.4</ele><time>2026-04-25T08:54:27.666Z</time></trkpt><trkpt lat="38.06164" lon="15.8396717"><ele>946.6000000000001</ele><time>2026-04-25T08:54:28.666Z</time></trkpt><trkpt lat="38.0617317" lon="15.8397767"><ele>942.8000000000001</ele><time>2026-04-25T08:54:30.666Z</time></trkpt><trkpt lat="38.0618083" lon="15.8399033"><ele>939.0</ele><time>2026-04-25T08:54:32.666Z</time></trkpt><trkpt lat="38.0618467" lon="15.839985"><ele>946.8333333333334</ele><time>2026-04-25T08:54:33.666Z</time></trkpt><trkpt lat="38.0618833" lon="15.8400733"><ele>954.6666666666667</ele><time>2026-04-25T08:54:34.666Z</time></trkpt><trkpt lat="38.0619117" lon="15.8401633"><ele>962.5</ele><time>2026-04-25T08:54:35.666Z</time></trkpt><trkpt lat="38.0619367" lon="15.840255"><ele>970.3333333333334</ele><time>2026-04-25T08:54:36.667Z</time></trkpt><trkpt lat="38.0619617" lon="15.84036"><ele>978.1666666666667</ele><time>2026-04-25T08:54:37.666Z</time></trkpt><trkpt lat="38.0619833" lon="15.840475"><ele>986.0</ele><time>2026-04-25T08:54:38.666Z</time></trkpt><trkpt lat="38.0620033" lon="15.8405717"><ele>988.0000000000001</ele><time>2026-04-25T08:54:39.666Z</time></trkpt><trkpt lat="38.062025" lon="15.84068"><ele>990.0</ele><time>2026-04-25T08:54:40.666Z</time></trkpt><trkpt lat="38.06204" lon="15.8407633"><ele>992.0</ele><time>2026-04-25T08:54:41.667Z</time></trkpt><trkpt lat="38.062025" lon="15.8408783"><ele>994.0</ele><time>2026-04-25T08:54:43.666Z</time></trkpt><trkpt lat="38.0619233" lon="15.8409683"><ele>996.0000000000001</ele><time>2026-04-25T08:54:45.666Z</time></trkpt><trkpt lat="38.061845" lon="15.8409733"><ele>998.0</ele><time>2026-04-25T08:54:46.667Z</time></trkpt><trkpt lat="38.0617617" lon="15.8409583"><ele>998.0000000000001</ele><time>2026-04-25T08:54:47.666Z</time></trkpt><trkpt lat="38.061685" lon="15.8409467"><ele>998.0</ele><time>2026-04-25T08:54:48.666Z</time></trkpt><trkpt lat="38.0616017" lon="15.8409467"><ele>998.0</ele><time>2026-04-25T08:54:49.667Z</time></trkpt><trkpt lat="38.0615217" lon="15.840965"><ele>998.0</ele><time>2026-04-25T08:54:50.667Z</time></trkpt><trkpt lat="38.0614567" lon="15.841005"><ele>998.0000000000001</ele><time>2026-04-25T08:54:51.666Z</time></trkpt><trkpt lat="38.0613983" lon="15.84105"><ele>998.0</ele><time>2026-04-25T08:54:52.666Z</time></trkpt><trkpt lat="38.0613367" lon="15.841095"><ele>998.6666666666667</ele><time>2026-04-25T08:54:53.666Z</time></trkpt><trkpt lat="38.0612717" lon="15.8411217"><ele>999.3333333333334</ele><time>2026-04-25T08:54:54.667Z</time></trkpt><trkpt lat="38.0612083" lon="15.8411333"><ele>1000.0</ele><time>2026-04-25T08:54:55.666Z</time></trkpt><trkpt lat="38.061105" lon="15.8411583"><ele>1000.6666666666667</ele><time>2026-04-25T08:54:57.666Z</time></trkpt><trkpt lat="38.0610483" lon="15.8412"><ele>1001.3333333333334</ele><time>2026-04-25T08:54:59.667Z</time></trkpt><trkpt lat="38.0609967" lon="15.84132"><ele>1002.0</ele><time>2026-04-25T08:55:02.667Z</time></trkpt><trkpt lat="38.06098" lon="15.8413983"><ele>1002.0</ele><time>2026-04-25T08:55:03.666Z</time></trkpt><trkpt lat="38.0609633" lon="15.8414933"><ele>1002.0</ele><time>2026-04-25T08:55:04.666Z</time></trkpt><trkpt lat="38.06094" lon="15.8415983"><ele>1002.0</ele><time>2026-04-25T08:55:05.666Z</time></trkpt><trkpt lat="38.0609217" lon="15.841705"><ele>1002.0</ele><time>2026-04-25T08:55:06.666Z</time></trkpt><trkpt lat="38.06089" lon="15.8418217"><ele>1002.0</ele><time>2026-04-25T08:55:07.667Z</time></trkpt><trkpt lat="38.0608633" lon="15.8419317"><ele>1002.0</ele><time>2026-04-25T08:55:08.666Z</time></trkpt><trkpt lat="38.0608467" lon="15.8420383"><ele>999.6666666666666</ele><time>2026-04-25T08:55:09.667Z</time></trkpt><trkpt lat="38.0608417" lon="15.8421417"><ele>997.3333333333333</ele><time>2026-04-25T08:55:10.666Z</time></trkpt><trkpt lat="38.060835" lon="15.842245"><ele>995.0</ele><time>2026-04-25T08:55:11.666Z</time></trkpt><trkpt lat="38.0608383" lon="15.84234"><ele>992.6666666666666</ele><time>2026-04-25T08:55:12.666Z</time></trkpt><trkpt lat="38.060815" lon="15.842465"><ele>990.3333333333333</ele><time>2026-04-25T08:55:14.666Z</time></trkpt><trkpt lat="38.060765" lon="15.84252"><ele>988.0</ele><time>2026-04-25T08:55:15.667Z</time></trkpt><trkpt lat="38.0606833" lon="15.84258"><ele>994.8</ele><time>2026-04-25T08:55:16.666Z</time></trkpt><trkpt lat="38.0605883" lon="15.8426517"><ele>1001.5999999999999</ele><time>2026-04-25T08:55:17.666Z</time></trkpt><trkpt lat="38.0604967" lon="15.84274"><ele>1008.4000000000001</ele><time>2026-04-25T08:55:18.666Z</time></trkpt><trkpt lat="38.06041" lon="15.842815"><ele>1015.2</ele><time>2026-04-25T08:55:19.666Z</time></trkpt><trkpt lat="38.0603067" lon="15.8428817"><ele>1022.0</ele><time>2026-04-25T08:55:20.666Z</time></trkpt><trkpt lat="38.0602033" lon="15.84294"><ele>1022.0000000000001</ele><time>2026-04-25T08:55:21.666Z</time></trkpt><trkpt lat="38.0601167" lon="15.8430017"><ele>1022.0</ele><time>2026-04-25T08:55:22.666Z</time></trkpt><trkpt lat="38.0600517" lon="15.8430617"><ele>1022.0</ele><time>2026-04-25T08:55:23.666Z</time></trkpt><trkpt lat="38.059985" lon="15.84312"><ele>1022.0</ele><time>2026-04-25T08:55:24.666Z</time></trkpt><trkpt lat="38.0599267" lon="15.8432033"><ele>1022.0000000000001</ele><time>2026-04-25T08:55:25.667Z</time></trkpt><trkpt lat="38.05988" lon="15.8433017"><ele>1022.0</ele><time>2026-04-25T08:55:26.666Z</time></trkpt><trkpt lat="38.0598533" lon="15.843385"><ele>1012.0</ele><time>2026-04-25T08:55:27.666Z</time></trkpt><trkpt lat="38.059845" lon="15.8435133"><ele>1002.0</ele><time>2026-04-25T08:55:29.666Z</time></trkpt><trkpt lat="38.0598733" lon="15.8436583"><ele>992.0</ele><time>2026-04-25T08:55:31.666Z</time></trkpt><trkpt lat="38.0598967" lon="15.8437567"><ele>982.0</ele><time>2026-04-25T08:55:32.666Z</time></trkpt><trkpt lat="38.0599167" lon="15.8438567"><ele>972.0</ele><time>2026-04-25T08:55:33.666Z</time></trkpt><trkpt lat="38.0599467" lon="15.84395"><ele>981.0</ele><time>2026-04-25T08:55:34.666Z</time></trkpt><trkpt lat="38.0599833" lon="15.8440517"><ele>990.0</ele><time>2026-04-25T08:55:35.666Z</time></trkpt><trkpt lat="38.06003" lon="15.8441717"><ele>999.0</ele><time>2026-04-25T08:55:36.666Z</time></trkpt><trkpt lat="38.0600667" lon="15.8442883"><ele>1008.0</ele><time>2026-04-25T08:55:37.666Z</time></trkpt><trkpt lat="38.0600833" lon="15.844395"><ele>1017.0</ele><time>2026-04-25T08:55:38.666Z</time></trkpt><trkpt lat="38.0600867" lon="15.844495"><ele>1017.0</ele><time>2026-04-25T08:55:39.666Z</time></trkpt><trkpt lat="38.0600633" lon="15.8446367"><ele>1017.0</ele><time>2026-04-25T08:55:41.667Z</time></trkpt><trkpt lat="38.060015" lon="15.8447067"><ele>1017.0</ele><time>2026-04-25T08:55:42.666Z</time></trkpt><trkpt lat="38.0599817" lon="15.8447867"><ele>1017.0</ele><time>2026-04-25T08:55:43.667Z</time></trkpt><trkpt lat="38.0599967" lon="15.8449133"><ele>1017.0</ele><time>2026-04-25T08:55:45.667Z</time></trkpt><trkpt lat="38.0601233" lon="15.8449983"><ele>1017.0</ele><time>2026-04-25T08:55:47.666Z</time></trkpt><trkpt lat="38.0602033" lon="15.8450533"><ele>1017.0</ele><time>2026-04-25T08:55:48.666Z</time></trkpt><trkpt lat="38.06027" lon="15.845125"><ele>1017.0</ele><time>2026-04-25T08:55:49.667Z</time></trkpt><trkpt lat="38.060325" lon="15.8452183"><ele>1017.0</ele><time>2026-04-25T08:55:50.667Z</time></trkpt><trkpt lat="38.060375" lon="15.8453117"><ele>1017.0</ele><time>2026-04-25T08:55:51.667Z</time></trkpt><trkpt lat="38.0604183" lon="15.8453983"><ele>1017.0</ele><time>2026-04-25T08:55:52.666Z</time></trkpt><trkpt lat="38.0604567" lon="15.84547"><ele>1019.2</ele><time>2026-04-25T08:55:53.666Z</time></trkpt><trkpt lat="38.0604633" lon="15.8455917"><ele>1021.4000000000001</ele><time>2026-04-25T08:55:55.667Z</time></trkpt><trkpt lat="38.0603667" lon="15.8455917"><ele>1023.5999999999999</ele><time>2026-04-25T08:55:57.666Z</time></trkpt><trkpt lat="38.0602533" lon="15.845555"><ele>1025.8</ele><time>2026-04-25T08:55:58.666Z</time></trkpt><trkpt lat="38.06015" lon="15.8455333"><ele>1028.0</ele><time>2026-04-25T08:55:59.667Z</time></trkpt><trkpt lat="38.06008" lon="15.8455283"><ele>1028.0</ele><time>2026-04-25T08:56:00.666Z</time></trkpt><trkpt lat="38.0599683" lon="15.8456283"><ele>1028.0</ele><time>2026-04-25T08:56:02.667Z</time></trkpt><trkpt lat="38.0599133" lon="15.8457283"><ele>1028.0</ele><time>2026-04-25T08:56:03.667Z</time></trkpt><trkpt lat="38.0598617" lon="15.84584"><ele>1028.0</ele><time>2026-04-25T08:56:04.666Z</time></trkpt><trkpt lat="38.0598167" lon="15.845925"><ele>1028.0</ele><time>2026-04-25T08:56:05.666Z</time></trkpt><trkpt lat="38.05976" lon="15.845985"><ele>1034.5</ele><time>2026-04-25T08:56:06.666Z</time></trkpt><trkpt lat="38.0596933" lon="15.846035"><ele>1041.0</ele><time>2026-04-25T08:56:07.666Z</time></trkpt><trkpt lat="38.05961" lon="15.8460783"><ele>1047.5</ele><time>2026-04-25T08:56:08.666Z</time></trkpt><trkpt lat="38.059535" lon="15.8461167"><ele>1054.0</ele><time>2026-04-25T08:56:09.667Z</time></trkpt><trkpt lat="38.0594567" lon="15.8461283"><ele>1060.5</ele><time>2026-04-25T08:56:10.666Z</time></trkpt><trkpt lat="38.0593667" lon="15.8461267"><ele>1067.0</ele><time>2026-04-25T08:56:11.666Z</time></trkpt><trkpt lat="38.0592783" lon="15.8461283"><ele>1067.0</ele><time>2026-04-25T08:56:12.666Z</time></trkpt><trkpt lat="38.059195" lon="15.846105"><ele>1067.0</ele><time>2026-04-25T08:56:13.667Z</time></trkpt><trkpt lat="38.0591267" lon="15.8460683"><ele>1067.0</ele><time>2026-04-25T08:56:14.666Z</time></trkpt><trkpt lat="38.0590533" lon="15.8460217"><ele>1067.0</ele><time>2026-04-25T08:56:15.666Z</time></trkpt><trkpt lat="38.0589767" lon="15.8459267"><ele>1067.0</ele><time>2026-04-25T08:56:16.666Z</time></trkpt><trkpt lat="38.0589133" lon="15.8458533"><ele>1067.0</ele><time>2026-04-25T08:56:17.666Z</time></trkpt><trkpt lat="38.05886" lon="15.84581"><ele>1068.0</ele><time>2026-04-25T08:56:18.666Z</time></trkpt><trkpt lat="38.0587883" lon="15.8458433"><ele>1069.0</ele><time>2026-04-25T08:56:20.667Z</time></trkpt><trkpt lat="38.0587117" lon="15.8459533"><ele>1070.0</ele><time>2026-04-25T08:56:22.666Z</time></trkpt><trkpt lat="38.0586633" lon="15.8460267"><ele>1071.0</ele><time>2026-04-25T08:56:23.667Z</time></trkpt><trkpt lat="38.0586133" lon="15.8460917"><ele>1072.0</ele><time>2026-04-25T08:56:24.666Z</time></trkpt><trkpt lat="38.0584967" lon="15.8461317"><ele>1072.0</ele><time>2026-04-25T08:56:26.666Z</time></trkpt><trkpt lat="38.05841" lon="15.8460733"><ele>1072.0</ele><time>2026-04-25T08:56:28.666Z</time></trkpt><trkpt lat="38.058395" lon="15.8459917"><ele>1072.0</ele><time>2026-04-25T08:56:29.666Z</time></trkpt><trkpt lat="38.0583683" lon="15.8458917"><ele>1072.0</ele><time>2026-04-25T08:56:30.666Z</time></trkpt><trkpt lat="38.0583267" lon="15.8458083"><ele>1072.0</ele><time>2026-04-25T08:56:31.666Z</time></trkpt><trkpt lat="38.0582783" lon="15.8457383"><ele>1072.0</ele><time>2026-04-25T08:56:32.666Z</time></trkpt><trkpt lat="38.0582133" lon="15.8456867"><ele>1068.5</ele><time>2026-04-25T08:56:33.667Z</time></trkpt><trkpt lat="38.0581383" lon="15.845655"><ele>1065.0</ele><time>2026-04-25T08:56:34.666Z</time></trkpt><trkpt lat="38.0580433" lon="15.8456417"><ele>1061.5</ele><time>2026-04-25T08:56:35.666Z</time></trkpt><trkpt lat="38.0579667" lon="15.8456133"><ele>1058.0</ele><time>2026-04-25T08:56:36.667Z</time></trkpt><trkpt lat="38.0578967" lon="15.8455833"><ele>1054.5</ele><time>2026-04-25T08:56:37.666Z</time></trkpt><trkpt lat="38.05782" lon="15.8455217"><ele>1051.0</ele><time>2026-04-25T08:56:38.666Z</time></trkpt><trkpt lat="38.0577333" lon="15.8454333"><ele>1051.0</ele><time>2026-04-25T08:56:39.666Z</time></trkpt><trkpt lat="38.0576517" lon="15.84534"><ele>1051.0</ele><time>2026-04-25T08:56:40.666Z</time></trkpt><trkpt lat="38.0575783" lon="15.8452517"><ele>1051.0</ele><time>2026-04-25T08:56:41.667Z</time></trkpt><trkpt lat="38.05752" lon="15.8451583"><ele>1051.0</ele><time>2026-04-25T08:56:42.666Z</time></trkpt><trkpt lat="38.05748" lon="15.8450433"><ele>1051.0</ele><time>2026-04-25T08:56:43.666Z</time></trkpt><trkpt lat="38.0574467" lon="15.84491"><ele>1046.8</ele><time>2026-04-25T08:56:44.666Z</time></trkpt><trkpt lat="38.0574267" lon="15.8447633"><ele>1042.6</ele><time>2026-04-25T08:56:45.666Z</time></trkpt><trkpt lat="38.0574133" lon="15.8446283"><ele>1038.4</ele><time>2026-04-25T08:56:46.666Z</time></trkpt><trkpt lat="38.05741" lon="15.8445133"><ele>1034.2</ele><time>2026-04-25T08:56:47.666Z</time></trkpt><trkpt lat="38.0574033" lon="15.8444233"><ele>1030.0</ele><time>2026-04-25T08:56:48.666Z</time></trkpt><trkpt lat="38.057345" lon="15.8442933"><ele>1025.5</ele><time>2026-04-25T08:56:50.667Z</time></trkpt><trkpt lat="38.057295" lon="15.8442283"><ele>1021.0</ele><time>2026-04-25T08:56:51.666Z</time></trkpt><trkpt lat="38.0572283" lon="15.84417"><ele>1016.5</ele><time>2026-04-25T08:56:52.666Z</time></trkpt><trkpt lat="38.0571667" lon="15.8441383"><ele>1012.0</ele><time>2026-04-25T08:56:53.666Z</time></trkpt><trkpt lat="38.057075" lon="15.8441467"><ele>1007.4999999999999</ele><time>2026-04-25T08:56:55.666Z</time></trkpt><trkpt lat="38.0570117" lon="15.8441883"><ele>1003.0</ele><time>2026-04-25T08:56:56.666Z</time></trkpt><trkpt lat="38.056945" lon="15.8442383"><ele>1002.9999999999999</ele><time>2026-04-25T08:56:57.666Z</time></trkpt><trkpt lat="38.0568767" lon="15.8442767"><ele>1003.0</ele><time>2026-04-25T08:56:58.666Z</time></trkpt><trkpt lat="38.0567983" lon="15.844315"><ele>1003.0</ele><time>2026-04-25T08:56:59.666Z</time></trkpt><trkpt lat="38.056715" lon="15.8443517"><ele>1003.0</ele><time>2026-04-25T08:57:00.666Z</time></trkpt><trkpt lat="38.0566383" lon="15.844385"><ele>1002.9999999999999</ele><time>2026-04-25T08:57:01.666Z</time></trkpt><trkpt lat="38.0565683" lon="15.8444367"><ele>1003.0</ele><time>2026-04-25T08:57:02.666Z</time></trkpt><trkpt lat="38.0565083" lon="15.8445667"><ele>1000.5999999999999</ele><time>2026-04-25T08:57:04.666Z</time></trkpt><trkpt lat="38.0564967" lon="15.84468"><ele>998.1999999999999</ele><time>2026-04-25T08:57:05.666Z</time></trkpt><trkpt lat="38.0564967" lon="15.8448167"><ele>995.8</ele><time>2026-04-25T08:57:06.666Z</time></trkpt><trkpt lat="38.05649" lon="15.8449417"><ele>993.4</ele><time>2026-04-25T08:57:07.666Z</time></trkpt><trkpt lat="38.056475" lon="15.8450667"><ele>991.0</ele><time>2026-04-25T08:57:08.666Z</time></trkpt><trkpt lat="38.0564467" lon="15.8451583"><ele>999.1999999999999</ele><time>2026-04-25T08:57:09.666Z</time></trkpt><trkpt lat="38.0564017" lon="15.845235"><ele>1007.3999999999999</ele><time>2026-04-25T08:57:10.666Z</time></trkpt><trkpt lat="38.056325" lon="15.8452817"><ele>1015.6</ele><time>2026-04-25T08:57:11.666Z</time></trkpt><trkpt lat="38.05622" lon="15.8453183"><ele>1023.8</ele><time>2026-04-25T08:57:12.666Z</time></trkpt><trkpt lat="38.05613" lon="15.84537"><ele>1032.0</ele><time>2026-04-25T08:57:13.666Z</time></trkpt><trkpt lat="38.0560583" lon="15.845425"><ele>1032.0</ele><time>2026-04-25T08:57:14.666Z</time></trkpt><trkpt lat="38.0560117" lon="15.8455017"><ele>1032.0</ele><time>2026-04-25T08:57:15.666Z</time></trkpt><trkpt lat="38.05598" lon="15.8455817"><ele>1032.0</ele><time>2026-04-25T08:57:16.666Z</time></trkpt><trkpt lat="38.05596" lon="15.8456783"><ele>1032.0</ele><time>2026-04-25T08:57:17.666Z</time></trkpt><trkpt lat="38.0559283" lon="15.84578"><ele>1032.0</ele><time>2026-04-25T08:57:18.666Z</time></trkpt><trkpt lat="38.0558917" lon="15.8458583"><ele>1032.0</ele><time>2026-04-25T08:57:19.666Z</time></trkpt><trkpt lat="38.0558317" lon="15.845915"><ele>1031.5</ele><time>2026-04-25T08:57:20.666Z</time></trkpt><trkpt lat="38.055765" lon="15.8459467"><ele>1031.0</ele><time>2026-04-25T08:57:21.666Z</time></trkpt><trkpt lat="38.0556883" lon="15.8459767"><ele>1030.5</ele><time>2026-04-25T08:57:22.666Z</time></trkpt><trkpt lat="38.0556167" lon="15.84602"><ele>1030.0</ele><time>2026-04-25T08:57:23.666Z</time></trkpt><trkpt lat="38.055545" lon="15.8460633"><ele>1029.5</ele><time>2026-04-25T08:57:24.667Z</time></trkpt><trkpt lat="38.0554817" lon="15.8460883"><ele>1029.0</ele><time>2026-04-25T08:57:25.666Z</time></trkpt><trkpt lat="38.05537" lon="15.8460667"><ele>1029.0</ele><time>2026-04-25T08:57:27.667Z</time></trkpt><trkpt lat="38.05529" lon="15.8459167"><ele>1029.0</ele><time>2026-04-25T08:57:29.666Z</time></trkpt><trkpt lat="38.0552633" lon="15.8457933"><ele>1029.0</ele><time>2026-04-25T08:57:30.666Z</time></trkpt><trkpt lat="38.055235" lon="15.8456833"><ele>1029.0</ele><time>2026-04-25T08:57:31.666Z</time></trkpt><trkpt lat="38.0551983" lon="15.8456"><ele>1029.0</ele><time>2026-04-25T08:57:32.666Z</time></trkpt><trkpt lat="38.0551133" lon="15.8455267"><ele>1029.0</ele><time>2026-04-25T08:57:34.666Z</time></trkpt><trkpt lat="38.0550117" lon="15.8455683"><ele>1029.0</ele><time>2026-04-25T08:57:36.666Z</time></trkpt><trkpt lat="38.0549583" lon="15.8456233"><ele>1029.0</ele><time>2026-04-25T08:57:37.667Z</time></trkpt><trkpt lat="38.0549183" lon="15.8457033"><ele>1029.0</ele><time>2026-04-25T08:57:38.666Z</time></trkpt><trkpt lat="38.0548833" lon="15.845795"><ele>1029.0</ele><time>2026-04-25T08:57:39.666Z</time></trkpt><trkpt lat="38.0548483" lon="15.8458933"><ele>1029.0</ele><time>2026-04-25T08:57:40.666Z</time></trkpt><trkpt lat="38.054815" lon="15.845995"><ele>1031.8333333333333</ele><time>2026-04-25T08:57:41.666Z</time></trkpt><trkpt lat="38.0547767" lon="15.8460633"><ele>1034.6666666666667</ele><time>2026-04-25T08:57:42.666Z</time></trkpt><trkpt lat="38.05472" lon="15.8461017"><ele>1037.5</ele><time>2026-04-25T08:57:43.667Z</time></trkpt><trkpt lat="38.0546383" lon="15.8461333"><ele>1040.3333333333335</ele><time>2026-04-25T08:57:44.666Z</time></trkpt><trkpt lat="38.0545483" lon="15.84619"><ele>1043.1666666666667</ele><time>2026-04-25T08:57:45.666Z</time></trkpt><trkpt lat="38.05446" lon="15.8462583"><ele>1046.0</ele><time>2026-04-25T08:57:46.667Z</time></trkpt><trkpt lat="38.05438" lon="15.8463417"><ele>1046.0</ele><time>2026-04-25T08:57:47.666Z</time></trkpt><trkpt lat="38.054315" lon="15.846435"><ele>1046.0</ele><time>2026-04-25T08:57:48.666Z</time></trkpt><trkpt lat="38.0542483" lon="15.84652"><ele>1046.0</ele><time>2026-04-25T08:57:49.666Z</time></trkpt><trkpt lat="38.05417" lon="15.8465967"><ele>1046.0</ele><time>2026-04-25T08:57:50.666Z</time></trkpt><trkpt lat="38.0540983" lon="15.8466567"><ele>1046.0</ele><time>2026-04-25T08:57:51.666Z</time></trkpt><trkpt lat="38.0540317" lon="15.8466883"><ele>1046.0</ele><time>2026-04-25T08:57:52.666Z</time></trkpt><trkpt lat="38.0539567" lon="15.846695"><ele>1043.6</ele><time>2026-04-25T08:57:53.666Z</time></trkpt><trkpt lat="38.0538833" lon="15.8466833"><ele>1041.1999999999998</ele><time>2026-04-25T08:57:54.667Z</time></trkpt><trkpt lat="38.05377" lon="15.846695"><ele>1038.8000000000002</ele><time>2026-04-25T08:57:56.666Z</time></trkpt><trkpt lat="38.0536933" lon="15.8468233"><ele>1036.4</ele><time>2026-04-25T08:57:58.666Z</time></trkpt><trkpt lat="38.0536217" lon="15.8469067"><ele>1034.0</ele><time>2026-04-25T08:57:59.667Z</time></trkpt><trkpt lat="38.0535367" lon="15.84698"><ele>1034.0</ele><time>2026-04-25T08:58:00.666Z</time></trkpt><trkpt lat="38.05346" lon="15.8470383"><ele>1034.0</ele><time>2026-04-25T08:58:01.666Z</time></trkpt><trkpt lat="38.0533967" lon="15.847095"><ele>1034.0</ele><time>2026-04-25T08:58:02.666Z</time></trkpt><trkpt lat="38.0533533" lon="15.8472233"><ele>1034.0</ele><time>2026-04-25T08:58:04.666Z</time></trkpt><trkpt lat="38.053385" lon="15.8473617"><ele>1034.0</ele><time>2026-04-25T08:58:06.666Z</time></trkpt><trkpt lat="38.0534067" lon="15.847445"><ele>1034.0</ele><time>2026-04-25T08:58:07.666Z</time></trkpt><trkpt lat="38.05343" lon="15.84753"><ele>1034.0</ele><time>2026-04-25T08:58:08.666Z</time></trkpt><trkpt lat="38.0534417" lon="15.8476117"><ele>1034.0</ele><time>2026-04-25T08:58:09.666Z</time></trkpt><trkpt lat="38.0534483" lon="15.84777"><ele>1034.0</ele><time>2026-04-25T08:58:11.666Z</time></trkpt><trkpt lat="38.053465" lon="15.8478483"><ele>1034.0</ele><time>2026-04-25T08:58:12.666Z</time></trkpt><trkpt lat="38.0534917" lon="15.8479217"><ele>1034.0</ele><time>2026-04-25T08:58:13.666Z</time></trkpt><trkpt lat="38.0535783" lon="15.84803"><ele>1035.8</ele><time>2026-04-25T08:58:15.667Z</time></trkpt><trkpt lat="38.0536667" lon="15.8481117"><ele>1037.6000000000001</ele><time>2026-04-25T08:58:17.666Z</time></trkpt><trkpt lat="38.0536817" lon="15.8482067"><ele>1039.4</ele><time>2026-04-25T08:58:19.666Z</time></trkpt><trkpt lat="38.0536267" lon="15.8483083"><ele>1041.2</ele><time>2026-04-25T08:58:21.667Z</time></trkpt><trkpt lat="38.0535583" lon="15.84842"><ele>1043.0</ele><time>2026-04-25T08:58:23.666Z</time></trkpt><trkpt lat="38.05347" lon="15.8485117"><ele>1040.8</ele><time>2026-04-25T08:58:25.666Z</time></trkpt><trkpt lat="38.0533667" lon="15.848565"><ele>1038.6</ele><time>2026-04-25T08:58:27.666Z</time></trkpt><trkpt lat="38.0532867" lon="15.84863"><ele>1036.4</ele><time>2026-04-25T08:58:29.666Z</time></trkpt><trkpt lat="38.0532667" lon="15.84875"><ele>1034.2</ele><time>2026-04-25T08:58:31.666Z</time></trkpt><trkpt lat="38.0532867" lon="15.8488867"><ele>1032.0</ele><time>2026-04-25T08:58:33.666Z</time></trkpt><trkpt lat="38.053315" lon="15.84904"><ele>1039.6</ele><time>2026-04-25T08:58:35.666Z</time></trkpt><trkpt lat="38.0533383" lon="15.84918"><ele>1047.2</ele><time>2026-04-25T08:58:37.666Z</time></trkpt><trkpt lat="38.0533533" lon="15.8493067"><ele>1054.8</ele><time>2026-04-25T08:58:39.666Z</time></trkpt><trkpt lat="38.0533267" lon="15.8493867"><ele>1062.4</ele><time>2026-04-25T08:58:41.666Z</time></trkpt><trkpt lat="38.0532417" lon="15.8494233"><ele>1070.0</ele><time>2026-04-25T08:58:43.666Z</time></trkpt><trkpt lat="38.0531283" lon="15.8494083"><ele>1070.0</ele><time>2026-04-25T08:58:45.667Z</time></trkpt><trkpt lat="38.053045" lon="15.8494333"><ele>1070.0</ele><time>2026-04-25T08:58:47.666Z</time></trkpt><trkpt lat="38.0529883" lon="15.849545"><ele>1070.0</ele><time>2026-04-25T08:58:49.666Z</time></trkpt><trkpt lat="38.0529583" lon="15.8496283"><ele>1070.0</ele><time>2026-04-25T08:58:50.666Z</time></trkpt><trkpt lat="38.052925" lon="15.8497217"><ele>1070.0</ele><time>2026-04-25T08:58:51.666Z</time></trkpt><trkpt lat="38.052885" lon="15.849805"><ele>1070.0</ele><time>2026-04-25T08:58:52.666Z</time></trkpt><trkpt lat="38.05285" lon="15.8499"><ele>1070.0</ele><time>2026-04-25T08:58:53.666Z</time></trkpt><trkpt lat="38.0528183" lon="15.8499917"><ele>1070.0</ele><time>2026-04-25T08:58:54.666Z</time></trkpt><trkpt lat="38.052795" lon="15.850075"><ele>1070.0</ele><time>2026-04-25T08:58:55.666Z</time></trkpt><trkpt lat="38.0527467" lon="15.8502217"><ele>1070.0</ele><time>2026-04-25T08:58:57.666Z</time></trkpt><trkpt lat="38.0527267" lon="15.8502983"><ele>1070.0</ele><time>2026-04-25T08:58:58.666Z</time></trkpt><trkpt lat="38.0526917" lon="15.850415"><ele>1070.0</ele><time>2026-04-25T08:59:00.666Z</time></trkpt><trkpt lat="38.0526283" lon="15.85048"><ele>1078.8</ele><time>2026-04-25T08:59:02.666Z</time></trkpt><trkpt lat="38.05253" lon="15.8504717"><ele>1087.6</ele><time>2026-04-25T08:59:04.666Z</time></trkpt><trkpt lat="38.0524717" lon="15.8504283"><ele>1096.4</ele><time>2026-04-25T08:59:05.666Z</time></trkpt><trkpt lat="38.0523717" lon="15.850335"><ele>1105.2</ele><time>2026-04-25T08:59:07.666Z</time></trkpt><trkpt lat="38.0522817" lon="15.85025"><ele>1114.0</ele><time>2026-04-25T08:59:09.667Z</time></trkpt><trkpt lat="38.0522233" lon="15.8502167"><ele>1117.2</ele><time>2026-04-25T08:59:10.666Z</time></trkpt><trkpt lat="38.0521067" lon="15.8502083"><ele>1120.4</ele><time>2026-04-25T08:59:12.667Z</time></trkpt><trkpt lat="38.05201" lon="15.8501783"><ele>1123.6</ele><time>2026-04-25T08:59:14.666Z</time></trkpt><trkpt lat="38.051935" lon="15.8500983"><ele>1126.8</ele><time>2026-04-25T08:59:16.666Z</time></trkpt><trkpt lat="38.0518567" lon="15.8499767"><ele>1130.0</ele><time>2026-04-25T08:59:18.666Z</time></trkpt><trkpt lat="38.051805" lon="15.84992"><ele>1126.1666666666667</ele><time>2026-04-25T08:59:19.666Z</time></trkpt><trkpt lat="38.0517517" lon="15.8498667"><ele>1122.3333333333335</ele><time>2026-04-25T08:59:20.667Z</time></trkpt><trkpt lat="38.0516967" lon="15.8498183"><ele>1118.5</ele><time>2026-04-25T08:59:21.666Z</time></trkpt><trkpt lat="38.0516467" lon="15.8497667"><ele>1114.6666666666667</ele><time>2026-04-25T08:59:22.667Z</time></trkpt><trkpt lat="38.0516033" lon="15.849705"><ele>1110.8333333333333</ele><time>2026-04-25T08:59:23.666Z</time></trkpt><trkpt lat="38.0515633" lon="15.8496383"><ele>1107.0</ele><time>2026-04-25T08:59:24.666Z</time></trkpt><trkpt lat="38.0514867" lon="15.8495183"><ele>1107.0</ele><time>2026-04-25T08:59:26.666Z</time></trkpt><trkpt lat="38.05138" lon="15.849455"><ele>1107.0</ele><time>2026-04-25T08:59:28.666Z</time></trkpt><trkpt lat="38.051315" lon="15.84945"><ele>1107.0</ele><time>2026-04-25T08:59:29.666Z</time></trkpt><trkpt lat="38.0512483" lon="15.8494583"><ele>1107.0</ele><time>2026-04-25T08:59:30.666Z</time></trkpt><trkpt lat="38.05118" lon="15.8494833"><ele>1107.0</ele><time>2026-04-25T08:59:31.666Z</time></trkpt><trkpt lat="38.0511167" lon="15.8495267"><ele>1107.0</ele><time>2026-04-25T08:59:32.667Z</time></trkpt><trkpt lat="38.05105" lon="15.8495783"><ele>1107.0</ele><time>2026-04-25T08:59:33.666Z</time></trkpt><trkpt lat="38.0509817" lon="15.84961"><ele>1107.0</ele><time>2026-04-25T08:59:34.666Z</time></trkpt><trkpt lat="38.0508567" lon="15.8495917"><ele>1107.0</ele><time>2026-04-25T08:59:36.667Z</time></trkpt><trkpt lat="38.050805" lon="15.8495233"><ele>1107.0</ele><time>2026-04-25T08:59:37.666Z</time></trkpt><trkpt lat="38.05075" lon="15.8494383"><ele>1107.0</ele><time>2026-04-25T08:59:38.666Z</time></trkpt><trkpt lat="38.0506817" lon="15.849335"><ele>1108.5</ele><time>2026-04-25T08:59:39.666Z</time></trkpt><trkpt lat="38.0506033" lon="15.8492233"><ele>1110.0</ele><time>2026-04-25T08:59:40.666Z</time></trkpt><trkpt lat="38.0505267" lon="15.8491083"><ele>1111.5</ele><time>2026-04-25T08:59:41.666Z</time></trkpt><trkpt lat="38.0504683" lon="15.8489917"><ele>1113.0</ele><time>2026-04-25T08:59:42.667Z</time></trkpt><trkpt lat="38.0504183" lon="15.8488683"><ele>1113.0</ele><time>2026-04-25T08:59:43.666Z</time></trkpt><trkpt lat="38.0503767" lon="15.848735"><ele>1113.0</ele><time>2026-04-25T08:59:44.666Z</time></trkpt><trkpt lat="38.0503367" lon="15.8485933"><ele>1113.0</ele><time>2026-04-25T08:59:45.666Z</time></trkpt><trkpt lat="38.050315" lon="15.848455"><ele>1113.0</ele><time>2026-04-25T08:59:46.667Z</time></trkpt><trkpt lat="38.050305" lon="15.8483317"><ele>1113.0</ele><time>2026-04-25T08:59:47.667Z</time></trkpt><trkpt lat="38.0503117" lon="15.8482133"><ele>1109.1666666666667</ele><time>2026-04-25T08:59:48.666Z</time></trkpt><trkpt lat="38.050315" lon="15.8481183"><ele>1105.3333333333333</ele><time>2026-04-25T08:59:49.666Z</time></trkpt><trkpt lat="38.0503117" lon="15.848035"><ele>1101.5</ele><time>2026-04-25T08:59:50.666Z</time></trkpt><trkpt lat="38.0502883" lon="15.8479567"><ele>1097.6666666666665</ele><time>2026-04-25T08:59:51.666Z</time></trkpt><trkpt lat="38.050235" lon="15.8478683"><ele>1093.8333333333333</ele><time>2026-04-25T08:59:52.666Z</time></trkpt><trkpt lat="38.0501533" lon="15.84778"><ele>1090.0</ele><time>2026-04-25T08:59:53.666Z</time></trkpt><trkpt lat="38.0500567" lon="15.8476983"><ele>1093.0</ele><time>2026-04-25T08:59:54.666Z</time></trkpt><trkpt lat="38.0499533" lon="15.8476167"><ele>1096.0</ele><time>2026-04-25T08:59:55.666Z</time></trkpt><trkpt lat="38.049855" lon="15.8475333"><ele>1099.0</ele><time>2026-04-25T08:59:56.667Z</time></trkpt><trkpt lat="38.04979" lon="15.8474433"><ele>1102.0</ele><time>2026-04-25T08:59:57.666Z</time></trkpt><trkpt lat="38.0497383" lon="15.8473367"><ele>1105.0</ele><time>2026-04-25T08:59:58.667Z</time></trkpt><trkpt lat="38.04971" lon="15.84722"><ele>1105.0</ele><time>2026-04-25T08:59:59.667Z</time></trkpt><trkpt lat="38.0496933" lon="15.8470833"><ele>1105.0</ele><time>2026-04-25T09:00:00.667Z</time></trkpt><trkpt lat="38.04968" lon="15.8469533"><ele>1105.0</ele><time>2026-04-25T09:00:01.666Z</time></trkpt><trkpt lat="38.0496617" lon="15.846855"><ele>1105.0</ele><time>2026-04-25T09:00:02.666Z</time></trkpt><trkpt lat="38.0496133" lon="15.8467883"><ele>1105.0</ele><time>2026-04-25T09:00:03.667Z</time></trkpt><trkpt lat="38.0495617" lon="15.8467417"><ele>1105.0</ele><time>2026-04-25T09:00:04.666Z</time></trkpt><trkpt lat="38.04949" lon="15.8467"><ele>1102.0</ele><time>2026-04-25T09:00:05.666Z</time></trkpt><trkpt lat="38.0494017" lon="15.846645"><ele>1099.0</ele><time>2026-04-25T09:00:06.666Z</time></trkpt><trkpt lat="38.0493067" lon="15.8465683"><ele>1096.0</ele><time>2026-04-25T09:00:07.666Z</time></trkpt><trkpt lat="38.0492167" lon="15.846475"><ele>1093.0</ele><time>2026-04-25T09:00:08.667Z</time></trkpt><trkpt lat="38.0491367" lon="15.846385"><ele>1090.0</ele><time>2026-04-25T09:00:09.666Z</time></trkpt><trkpt lat="38.0490667" lon="15.8462917"><ele>1090.0</ele><time>2026-04-25T09:00:10.666Z</time></trkpt><trkpt lat="38.04901" lon="15.8462167"><ele>1090.0</ele><time>2026-04-25T09:00:11.666Z</time></trkpt><trkpt lat="38.0489367" lon="15.8461633"><ele>1090.0</ele><time>2026-04-25T09:00:12.666Z</time></trkpt><trkpt lat="38.0488617" lon="15.8461117"><ele>1090.0</ele><time>2026-04-25T09:00:13.666Z</time></trkpt><trkpt lat="38.0487717" lon="15.8460933"><ele>1090.0</ele><time>2026-04-25T09:00:14.666Z</time></trkpt><trkpt lat="38.0487183" lon="15.8460467"><ele>1090.0</ele><time>2026-04-25T09:00:15.667Z</time></trkpt><trkpt lat="38.0486383" lon="15.84602"><ele>1090.0</ele><time>2026-04-25T09:00:17.666Z</time></trkpt><trkpt lat="38.0485383" lon="15.8460583"><ele>1090.0</ele><time>2026-04-25T09:00:19.666Z</time></trkpt><trkpt lat="38.0484583" lon="15.8460967"><ele>1090.0</ele><time>2026-04-25T09:00:20.666Z</time></trkpt><trkpt lat="38.0483683" lon="15.8461367"><ele>1090.0</ele><time>2026-04-25T09:00:21.667Z</time></trkpt><trkpt lat="38.048285" lon="15.84618"><ele>1090.0</ele><time>2026-04-25T09:00:22.666Z</time></trkpt><trkpt lat="38.0482" lon="15.8462117"><ele>1085.6666666666665</ele><time>2026-04-25T09:00:23.667Z</time></trkpt><trkpt lat="38.0481183" lon="15.8462333"><ele>1081.3333333333333</ele><time>2026-04-25T09:00:24.666Z</time></trkpt><trkpt lat="38.0480333" lon="15.8462483"><ele>1077.0</ele><time>2026-04-25T09:00:25.666Z</time></trkpt><trkpt lat="38.047955" lon="15.8462517"><ele>1072.6666666666667</ele><time>2026-04-25T09:00:26.666Z</time></trkpt><trkpt lat="38.0478817" lon="15.8462583"><ele>1068.3333333333335</ele><time>2026-04-25T09:00:27.666Z</time></trkpt><trkpt lat="38.0478183" lon="15.8462533"><ele>1064.0</ele><time>2026-04-25T09:00:28.666Z</time></trkpt><trkpt lat="38.0477183" lon="15.8462517"><ele>1064.0</ele><time>2026-04-25T09:00:30.666Z</time></trkpt><trkpt lat="38.04763" lon="15.8463017"><ele>1064.0</ele><time>2026-04-25T09:00:32.667Z</time></trkpt><trkpt lat="38.0475767" lon="15.8464117"><ele>1064.0</ele><time>2026-04-25T09:00:34.666Z</time></trkpt><trkpt lat="38.0475267" lon="15.8465567"><ele>1064.0</ele><time>2026-04-25T09:00:36.666Z</time></trkpt><trkpt lat="38.0474733" lon="15.8467083"><ele>1062.3333333333335</ele><time>2026-04-25T09:00:38.667Z</time></trkpt><trkpt lat="38.04744" lon="15.8468"><ele>1060.6666666666667</ele><time>2026-04-25T09:00:39.666Z</time></trkpt><trkpt lat="38.0474" lon="15.8469"><ele>1059.0</ele><time>2026-04-25T09:00:40.666Z</time></trkpt><trkpt lat="38.04737" lon="15.847"><ele>1057.3333333333333</ele><time>2026-04-25T09:00:41.666Z</time></trkpt><trkpt lat="38.04734" lon="15.8470867"><ele>1055.6666666666665</ele><time>2026-04-25T09:00:42.666Z</time></trkpt><trkpt lat="38.04729" lon="15.847225"><ele>1054.0</ele><time>2026-04-25T09:00:44.667Z</time></trkpt><trkpt lat="38.0472533" lon="15.8473867"><ele>1054.0</ele><time>2026-04-25T09:00:46.666Z</time></trkpt><trkpt lat="38.0472417" lon="15.8474717"><ele>1054.0</ele><time>2026-04-25T09:00:47.666Z</time></trkpt><trkpt lat="38.0472" lon="15.8476083"><ele>1054.0</ele><time>2026-04-25T09:00:49.666Z</time></trkpt><trkpt lat="38.0470883" lon="15.8476867"><ele>1054.0</ele><time>2026-04-25T09:00:51.666Z</time></trkpt><trkpt lat="38.0470133" lon="15.84773"><ele>1054.0</ele><time>2026-04-25T09:00:52.666Z</time></trkpt><trkpt lat="38.0469417" lon="15.8477617"><ele>1058.2</ele><time>2026-04-25T09:00:53.667Z</time></trkpt><trkpt lat="38.0468583" lon="15.8477833"><ele>1062.4</ele><time>2026-04-25T09:00:54.666Z</time></trkpt><trkpt lat="38.0467667" lon="15.8477967"><ele>1066.6</ele><time>2026-04-25T09:00:55.666Z</time></trkpt><trkpt lat="38.0466833" lon="15.8478033"><ele>1070.8</ele><time>2026-04-25T09:00:56.667Z</time></trkpt><trkpt lat="38.04659" lon="15.84782"><ele>1075.0</ele><time>2026-04-25T09:00:57.667Z</time></trkpt><trkpt lat="38.04649" lon="15.8478483"><ele>1075.0</ele><time>2026-04-25T09:00:58.666Z</time></trkpt><trkpt lat="38.0464017" lon="15.8479"><ele>1075.0</ele><time>2026-04-25T09:00:59.667Z</time></trkpt><trkpt lat="38.0463133" lon="15.847945"><ele>1075.0</ele><time>2026-04-25T09:01:00.666Z</time></trkpt><trkpt lat="38.04623" lon="15.8479767"><ele>1075.0</ele><time>2026-04-25T09:01:01.667Z</time></trkpt><trkpt lat="38.0461367" lon="15.8479967"><ele>1075.0</ele><time>2026-04-25T09:01:02.667Z</time></trkpt><trkpt lat="38.0460433" lon="15.8479917"><ele>1075.0</ele><time>2026-04-25T09:01:03.666Z</time></trkpt><trkpt lat="38.0459467" lon="15.8479833"><ele>1075.0</ele><time>2026-04-25T09:01:04.666Z</time></trkpt><trkpt lat="38.0458567" lon="15.8479817"><ele>1075.0</ele><time>2026-04-25T09:01:05.666Z</time></trkpt><trkpt lat="38.0457733" lon="15.8479883"><ele>1075.0</ele><time>2026-04-25T09:01:06.666Z</time></trkpt><trkpt lat="38.04566" lon="15.848"><ele>1075.0</ele><time>2026-04-25T09:01:07.666Z</time></trkpt><trkpt lat="38.0455317" lon="15.848015"><ele>1072.5</ele><time>2026-04-25T09:01:08.666Z</time></trkpt><trkpt lat="38.0453983" lon="15.8480483"><ele>1070.0</ele><time>2026-04-25T09:01:09.666Z</time></trkpt><trkpt lat="38.0452633" lon="15.848085"><ele>1067.5</ele><time>2026-04-25T09:01:10.666Z</time></trkpt><trkpt lat="38.04513" lon="15.8481333"><ele>1065.0</ele><time>2026-04-25T09:01:11.666Z</time></trkpt><trkpt lat="38.0450067" lon="15.848185"><ele>1064.0</ele><time>2026-04-25T09:01:12.667Z</time></trkpt><trkpt lat="38.0448917" lon="15.84821"><ele>1063.0</ele><time>2026-04-25T09:01:13.667Z</time></trkpt><trkpt lat="38.04479" lon="15.8482183"><ele>1062.0</ele><time>2026-04-25T09:01:14.667Z</time></trkpt><trkpt lat="38.0446867" lon="15.8482383"><ele>1061.0</ele><time>2026-04-25T09:01:15.666Z</time></trkpt><trkpt lat="38.044595" lon="15.848265"><ele>1060.0</ele><time>2026-04-25T09:01:16.666Z</time></trkpt><trkpt lat="38.044505" lon="15.848295"><ele>1060.0</ele><time>2026-04-25T09:01:17.666Z</time></trkpt><trkpt lat="38.0444133" lon="15.8483017"><ele>1060.0</ele><time>2026-04-25T09:01:18.666Z</time></trkpt><trkpt lat="38.0443283" lon="15.84829"><ele>1060.0</ele><time>2026-04-25T09:01:19.666Z</time></trkpt><trkpt lat="38.0442283" lon="15.8482517"><ele>1060.0</ele><time>2026-04-25T09:01:20.666Z</time></trkpt><trkpt lat="38.0441183" lon="15.8482067"><ele>1060.0</ele><time>2026-04-25T09:01:21.666Z</time></trkpt><trkpt lat="38.0440217" lon="15.8481617"><ele>1058.6666666666665</ele><time>2026-04-25T09:01:22.667Z</time></trkpt><trkpt lat="38.04392" lon="15.848155"><ele>1057.3333333333333</ele><time>2026-04-25T09:01:23.666Z</time></trkpt><trkpt lat="38.0438467" lon="15.8481583"><ele>1056.0</ele><time>2026-04-25T09:01:24.667Z</time></trkpt><trkpt lat="38.0437867" lon="15.8481983"><ele>1054.6666666666667</ele><time>2026-04-25T09:01:25.666Z</time></trkpt><trkpt lat="38.04372" lon="15.8482633"><ele>1053.3333333333335</ele><time>2026-04-25T09:01:26.666Z</time></trkpt><trkpt lat="38.0436733" lon="15.8483717"><ele>1052.0</ele><time>2026-04-25T09:01:27.666Z</time></trkpt><trkpt lat="38.043645" lon="15.84851"><ele>1052.0</ele><time>2026-04-25T09:01:28.666Z</time></trkpt><trkpt lat="38.0436067" lon="15.8486483"><ele>1052.0</ele><time>2026-04-25T09:01:29.666Z</time></trkpt><trkpt lat="38.0435483" lon="15.848765"><ele>1052.0</ele><time>2026-04-25T09:01:30.666Z</time></trkpt><trkpt lat="38.0434933" lon="15.8488533"><ele>1052.0</ele><time>2026-04-25T09:01:31.666Z</time></trkpt><trkpt lat="38.043445" lon="15.8489433"><ele>1052.0</ele><time>2026-04-25T09:01:32.667Z</time></trkpt><trkpt lat="38.0434017" lon="15.8490417"><ele>1052.0</ele><time>2026-04-25T09:01:33.666Z</time></trkpt><trkpt lat="38.0433517" lon="15.849125"><ele>1052.0</ele><time>2026-04-25T09:01:34.667Z</time></trkpt><trkpt lat="38.0433167" lon="15.8492017"><ele>1052.0</ele><time>2026-04-25T09:01:35.666Z</time></trkpt><trkpt lat="38.0433217" lon="15.8493267"><ele>1052.0</ele><time>2026-04-25T09:01:37.666Z</time></trkpt><trkpt lat="38.0434083" lon="15.84944"><ele>1052.0</ele><time>2026-04-25T09:01:39.666Z</time></trkpt><trkpt lat="38.0434717" lon="15.849485"><ele>1052.0</ele><time>2026-04-25T09:01:40.666Z</time></trkpt><trkpt lat="38.04354" lon="15.8495167"><ele>1051.0</ele><time>2026-04-25T09:01:41.667Z</time></trkpt><trkpt lat="38.0436533" lon="15.8494783"><ele>1050.0</ele><time>2026-04-25T09:01:43.666Z</time></trkpt><trkpt lat="38.0437033" lon="15.8494283"><ele>1049.0</ele><time>2026-04-25T09:01:44.667Z</time></trkpt><trkpt lat="38.0437983" lon="15.849345"><ele>1048.0</ele><time>2026-04-25T09:01:46.666Z</time></trkpt><trkpt lat="38.0439033" lon="15.8493017"><ele>1047.0</ele><time>2026-04-25T09:01:48.666Z</time></trkpt><trkpt lat="38.044035" lon="15.8493117"><ele>1047.0</ele><time>2026-04-25T09:01:50.666Z</time></trkpt><trkpt lat="38.0441083" lon="15.8493517"><ele>1047.0</ele><time>2026-04-25T09:01:51.666Z</time></trkpt><trkpt lat="38.044175" lon="15.8494067"><ele>1047.0</ele><time>2026-04-25T09:01:52.666Z</time></trkpt><trkpt lat="38.0442417" lon="15.8494583"><ele>1047.0</ele><time>2026-04-25T09:01:53.667Z</time></trkpt><trkpt lat="38.0443033" lon="15.8494917"><ele>1047.0</ele><time>2026-04-25T09:01:54.666Z</time></trkpt><trkpt lat="38.0443967" lon="15.84947"><ele>1047.0</ele><time>2026-04-25T09:01:56.666Z</time></trkpt><trkpt lat="38.0444833" lon="15.84937"><ele>1045.5</ele><time>2026-04-25T09:01:58.667Z</time></trkpt><trkpt lat="38.0445683" lon="15.849285"><ele>1044.0</ele><time>2026-04-25T09:02:00.667Z</time></trkpt><trkpt lat="38.0447033" lon="15.8493083"><ele>1042.5</ele><time>2026-04-25T09:02:02.666Z</time></trkpt><trkpt lat="38.0447933" lon="15.84936"><ele>1041.0</ele><time>2026-04-25T09:02:03.666Z</time></trkpt><trkpt lat="38.0449017" lon="15.8494217"><ele>1042.2</ele><time>2026-04-25T09:02:04.667Z</time></trkpt><trkpt lat="38.045005" lon="15.84948"><ele>1043.3999999999999</ele><time>2026-04-25T09:02:05.666Z</time></trkpt><trkpt lat="38.0451017" lon="15.8495467"><ele>1044.6</ele><time>2026-04-25T09:02:06.666Z</time></trkpt><trkpt lat="38.045185" lon="15.84962"><ele>1045.8</ele><time>2026-04-25T09:02:07.666Z</time></trkpt><trkpt lat="38.0452567" lon="15.8496917"><ele>1047.0</ele><time>2026-04-25T09:02:08.667Z</time></trkpt><trkpt lat="38.0453133" lon="15.84974"><ele>1047.0</ele><time>2026-04-25T09:02:09.666Z</time></trkpt><trkpt lat="38.04538" lon="15.8497733"><ele>1047.0</ele><time>2026-04-25T09:02:10.666Z</time></trkpt><trkpt lat="38.0454567" lon="15.8497917"><ele>1047.0</ele><time>2026-04-25T09:02:11.666Z</time></trkpt><trkpt lat="38.0455333" lon="15.849795"><ele>1047.0</ele><time>2026-04-25T09:02:12.666Z</time></trkpt><trkpt lat="38.04563" lon="15.8497983"><ele>1047.0</ele><time>2026-04-25T09:02:13.666Z</time></trkpt><trkpt lat="38.0457317" lon="15.8498183"><ele>1047.0</ele><time>2026-04-25T09:02:14.666Z</time></trkpt><trkpt lat="38.0458333" lon="15.84986"><ele>1048.0</ele><time>2026-04-25T09:02:15.667Z</time></trkpt><trkpt lat="38.045925" lon="15.8499217"><ele>1049.0</ele><time>2026-04-25T09:02:16.666Z</time></trkpt><trkpt lat="38.0460067" lon="15.84998"><ele>1050.0</ele><time>2026-04-25T09:02:17.666Z</time></trkpt><trkpt lat="38.046085" lon="15.8500367"><ele>1051.0</ele><time>2026-04-25T09:02:18.667Z</time></trkpt><trkpt lat="38.0461617" lon="15.8500867"><ele>1052.0</ele><time>2026-04-25T09:02:19.666Z</time></trkpt><trkpt lat="38.046235" lon="15.850135"><ele>1052.0</ele><time>2026-04-25T09:02:20.666Z</time></trkpt><trkpt lat="38.0463083" lon="15.8501967"><ele>1052.0</ele><time>2026-04-25T09:02:21.666Z</time></trkpt><trkpt lat="38.0463617" lon="15.850255"><ele>1052.0</ele><time>2026-04-25T09:02:22.666Z</time></trkpt><trkpt lat="38.0464033" lon="15.8503783"><ele>1052.0</ele><time>2026-04-25T09:02:24.666Z</time></trkpt><trkpt lat="38.04633" lon="15.8504817"><ele>1052.0</ele><time>2026-04-25T09:02:26.666Z</time></trkpt><trkpt lat="38.0462417" lon="15.8505233"><ele>1052.0</ele><time>2026-04-25T09:02:27.666Z</time></trkpt><trkpt lat="38.0461467" lon="15.85056"><ele>1052.0</ele><time>2026-04-25T09:02:28.666Z</time></trkpt><trkpt lat="38.04607" lon="15.850605"><ele>1052.0</ele><time>2026-04-25T09:02:29.666Z</time></trkpt><trkpt lat="38.0459983" lon="15.8506633"><ele>1052.0</ele><time>2026-04-25T09:02:30.666Z</time></trkpt><trkpt lat="38.0459317" lon="15.850735"><ele>1052.0</ele><time>2026-04-25T09:02:31.666Z</time></trkpt><trkpt lat="38.0458633" lon="15.8508083"><ele>1052.0</ele><time>2026-04-25T09:02:32.666Z</time></trkpt><trkpt lat="38.04579" lon="15.85088"><ele>1048.4</ele><time>2026-04-25T09:02:33.666Z</time></trkpt><trkpt lat="38.0457217" lon="15.8509483"><ele>1044.8000000000002</ele><time>2026-04-25T09:02:34.666Z</time></trkpt><trkpt lat="38.04566" lon="15.8510133"><ele>1041.2</ele><time>2026-04-25T09:02:35.666Z</time></trkpt><trkpt lat="38.045575" lon="15.8511183"><ele>1037.6000000000001</ele><time>2026-04-25T09:02:37.667Z</time></trkpt><trkpt lat="38.0455317" lon="15.8511817"><ele>1034.0</ele><time>2026-04-25T09:02:39.666Z</time></trkpt><trkpt lat="38.0455217" lon="15.85131"><ele>1034.0</ele><time>2026-04-25T09:04:08.667Z</time></trkpt><trkpt lat="38.0455083" lon="15.851465"><ele>1034.0</ele><time>2026-04-25T09:04:10.666Z</time></trkpt><trkpt lat="38.0454933" lon="15.8515533"><ele>1034.0</ele><time>2026-04-25T09:04:11.666Z</time></trkpt><trkpt lat="38.0454783" lon="15.851645"><ele>1034.0</ele><time>2026-04-25T09:04:12.666Z</time></trkpt><trkpt lat="38.0454667" lon="15.85175"><ele>1034.0</ele><time>2026-04-25T09:04:13.667Z</time></trkpt><trkpt lat="38.045475" lon="15.8518567"><ele>1034.0</ele><time>2026-04-25T09:04:14.666Z</time></trkpt><trkpt lat="38.0455133" lon="15.8519617"><ele>1034.4</ele><time>2026-04-25T09:04:15.667Z</time></trkpt><trkpt lat="38.0455783" lon="15.8520233"><ele>1034.8000000000002</ele><time>2026-04-25T09:04:16.667Z</time></trkpt><trkpt lat="38.0456667" lon="15.8520817"><ele>1035.1999999999998</ele><time>2026-04-25T09:04:17.666Z</time></trkpt><trkpt lat="38.0457583" lon="15.8521467"><ele>1035.6</ele><time>2026-04-25T09:04:18.666Z</time></trkpt><trkpt lat="38.045835" lon="15.85221"><ele>1036.0</ele><time>2026-04-25T09:04:19.666Z</time></trkpt><trkpt lat="38.0459167" lon="15.8522433"><ele>1039.25</ele><time>2026-04-25T09:04:20.666Z</time></trkpt><trkpt lat="38.0459967" lon="15.8522517"><ele>1042.5</ele><time>2026-04-25T09:04:21.666Z</time></trkpt><trkpt lat="38.0461" lon="15.85223"><ele>1045.75</ele><time>2026-04-25T09:04:22.666Z</time></trkpt><trkpt lat="38.04623" lon="15.8521983"><ele>1049.0</ele><time>2026-04-25T09:04:23.667Z</time></trkpt><trkpt lat="38.046375" lon="15.8521633"><ele>1049.0</ele><time>2026-04-25T09:04:24.667Z</time></trkpt><trkpt lat="38.0465383" lon="15.8521383"><ele>1049.0</ele><time>2026-04-25T09:04:25.666Z</time></trkpt><trkpt lat="38.046705" lon="15.852125"><ele>1049.0</ele><time>2026-04-25T09:04:26.666Z</time></trkpt><trkpt lat="38.04687" lon="15.8521483"><ele>1053.3333333333335</ele><time>2026-04-25T09:04:27.667Z</time></trkpt><trkpt lat="38.0470517" lon="15.852205"><ele>1057.6666666666667</ele><time>2026-04-25T09:04:28.666Z</time></trkpt><trkpt lat="38.047225" lon="15.8522667"><ele>1062.0</ele><time>2026-04-25T09:04:29.667Z</time></trkpt><trkpt lat="38.0473783" lon="15.8523317"><ele>1065.75</ele><time>2026-04-25T09:04:30.667Z</time></trkpt><trkpt lat="38.047525" lon="15.8523767"><ele>1069.5</ele><time>2026-04-25T09:04:31.666Z</time></trkpt><trkpt lat="38.0476667" lon="15.852385"><ele>1073.25</ele><time>2026-04-25T09:04:32.666Z</time></trkpt><trkpt lat="38.0478" lon="15.8523717"><ele>1077.0</ele><time>2026-04-25T09:04:33.667Z</time></trkpt><trkpt lat="38.0479117" lon="15.8523617"><ele>1077.0</ele><time>2026-04-25T09:04:34.666Z</time></trkpt><trkpt lat="38.04801" lon="15.8523833"><ele>1077.0</ele><time>2026-04-25T09:04:35.666Z</time></trkpt><trkpt lat="38.0480783" lon="15.8524583"><ele>1077.0</ele><time>2026-04-25T09:04:36.666Z</time></trkpt><trkpt lat="38.048115" lon="15.8525733"><ele>1077.0</ele><time>2026-04-25T09:04:37.666Z</time></trkpt><trkpt lat="38.048155" lon="15.8527083"><ele>1077.0</ele><time>2026-04-25T09:04:38.666Z</time></trkpt><trkpt lat="38.04821" lon="15.852855"><ele>1077.4</ele><time>2026-04-25T09:04:39.666Z</time></trkpt><trkpt lat="38.04828" lon="15.8529483"><ele>1077.8000000000002</ele><time>2026-04-25T09:04:40.666Z</time></trkpt><trkpt lat="38.0483517" lon="15.8529983"><ele>1078.2</ele><time>2026-04-25T09:04:41.666Z</time></trkpt><trkpt lat="38.048455" lon="15.8529733"><ele>1078.6000000000001</ele><time>2026-04-25T09:04:43.666Z</time></trkpt><trkpt lat="38.0484733" lon="15.8528517"><ele>1079.0</ele><time>2026-04-25T09:04:45.667Z</time></trkpt><trkpt lat="38.0484283" lon="15.8527717"><ele>1079.0</ele><time>2026-04-25T09:04:46.666Z</time></trkpt><trkpt lat="38.048385" lon="15.8526667"><ele>1079.0</ele><time>2026-04-25T09:04:47.666Z</time></trkpt><trkpt lat="38.0483583" lon="15.85256"><ele>1079.0</ele><time>2026-04-25T09:04:48.666Z</time></trkpt><trkpt lat="38.0483567" lon="15.852445"><ele>1079.0</ele><time>2026-04-25T09:04:49.666Z</time></trkpt><trkpt lat="38.04836" lon="15.8523133"><ele>1079.0</ele><time>2026-04-25T09:04:50.666Z</time></trkpt><trkpt lat="38.0483567" lon="15.85218"><ele>1078.5</ele><time>2026-04-25T09:04:51.666Z</time></trkpt><trkpt lat="38.0483217" lon="15.8520333"><ele>1078.0</ele><time>2026-04-25T09:04:52.666Z</time></trkpt><trkpt lat="38.0482467" lon="15.8518733"><ele>1077.5</ele><time>2026-04-25T09:04:53.666Z</time></trkpt><trkpt lat="38.0481617" lon="15.8517117"><ele>1077.0</ele><time>2026-04-25T09:04:54.666Z</time></trkpt><trkpt lat="38.0481" lon="15.8515417"><ele>1084.0</ele><time>2026-04-25T09:04:55.666Z</time></trkpt><trkpt lat="38.04805" lon="15.8513667"><ele>1091.0</ele><time>2026-04-25T09:04:56.666Z</time></trkpt><trkpt lat="38.0480083" lon="15.851175"><ele>1098.0</ele><time>2026-04-25T09:04:57.666Z</time></trkpt><trkpt lat="38.047965" lon="15.8509633"><ele>1098.6666666666667</ele><time>2026-04-25T09:04:58.666Z</time></trkpt><trkpt lat="38.0479067" lon="15.8507433"><ele>1099.3333333333335</ele><time>2026-04-25T09:04:59.667Z</time></trkpt><trkpt lat="38.0478383" lon="15.8505533"><ele>1100.0</ele><time>2026-04-25T09:05:00.666Z</time></trkpt><trkpt lat="38.0477467" lon="15.8503883"><ele>1100.0</ele><time>2026-04-25T09:05:01.666Z</time></trkpt><trkpt lat="38.0476467" lon="15.8502117"><ele>1100.0</ele><time>2026-04-25T09:05:02.666Z</time></trkpt><trkpt lat="38.0475533" lon="15.8500233"><ele>1100.0</ele><time>2026-04-25T09:05:03.666Z</time></trkpt><trkpt lat="38.047485" lon="15.8498167"><ele>1102.8</ele><time>2026-04-25T09:05:04.666Z</time></trkpt><trkpt lat="38.047465" lon="15.8496533"><ele>1105.6</ele><time>2026-04-25T09:05:05.666Z</time></trkpt><trkpt lat="38.0474933" lon="15.8495567"><ele>1108.4</ele><time>2026-04-25T09:05:06.666Z</time></trkpt><trkpt lat="38.0475933" lon="15.84948"><ele>1111.2</ele><time>2026-04-25T09:05:08.666Z</time></trkpt><trkpt lat="38.0476567" lon="15.8495017"><ele>1114.0</ele><time>2026-04-25T09:05:09.666Z</time></trkpt><trkpt lat="38.0477333" lon="15.849555"><ele>1114.0</ele><time>2026-04-25T09:05:10.667Z</time></trkpt><trkpt lat="38.0478267" lon="15.84962"><ele>1114.0</ele><time>2026-04-25T09:05:11.666Z</time></trkpt><trkpt lat="38.047945" lon="15.8496917"><ele>1114.0</ele><time>2026-04-25T09:05:12.666Z</time></trkpt><trkpt lat="38.0480733" lon="15.84977"><ele>1114.0</ele><time>2026-04-25T09:05:13.667Z</time></trkpt><trkpt lat="38.048205" lon="15.8498533"><ele>1115.75</ele><time>2026-04-25T09:05:14.666Z</time></trkpt><trkpt lat="38.0483367" lon="15.8499317"><ele>1117.5</ele><time>2026-04-25T09:05:15.666Z</time></trkpt><trkpt lat="38.04846" lon="15.850005"><ele>1119.25</ele><time>2026-04-25T09:05:16.666Z</time></trkpt><trkpt lat="38.0485883" lon="15.8500667"><ele>1121.0</ele><time>2026-04-25T09:05:17.666Z</time></trkpt><trkpt lat="38.04871" lon="15.8501333"><ele>1121.0</ele><time>2026-04-25T09:05:18.666Z</time></trkpt><trkpt lat="38.0488267" lon="15.8501983"><ele>1121.0</ele><time>2026-04-25T09:05:19.666Z</time></trkpt><trkpt lat="38.0489433" lon="15.8502533"><ele>1121.0</ele><time>2026-04-25T09:05:20.666Z</time></trkpt><trkpt lat="38.04905" lon="15.85032"><ele>1121.0</ele><time>2026-04-25T09:05:21.666Z</time></trkpt><trkpt lat="38.049155" lon="15.8503867"><ele>1125.25</ele><time>2026-04-25T09:05:22.666Z</time></trkpt><trkpt lat="38.04926" lon="15.85046"><ele>1129.5</ele><time>2026-04-25T09:05:23.666Z</time></trkpt><trkpt lat="38.04936" lon="15.850545"><ele>1133.75</ele><time>2026-04-25T09:05:24.666Z</time></trkpt><trkpt lat="38.0494617" lon="15.8506533"><ele>1138.0</ele><time>2026-04-25T09:05:25.667Z</time></trkpt><trkpt lat="38.049555" lon="15.85076"><ele>1138.0</ele><time>2026-04-25T09:05:26.666Z</time></trkpt><trkpt lat="38.0496467" lon="15.8508667"><ele>1138.0</ele><time>2026-04-25T09:05:27.667Z</time></trkpt><trkpt lat="38.0497367" lon="15.85098"><ele>1138.0</ele><time>2026-04-25T09:05:28.666Z</time></trkpt><trkpt lat="38.0498283" lon="15.8510967"><ele>1138.0</ele><time>2026-04-25T09:05:29.666Z</time></trkpt><trkpt lat="38.0499283" lon="15.8512183"><ele>1140.5</ele><time>2026-04-25T09:05:30.666Z</time></trkpt><trkpt lat="38.0500217" lon="15.8513217"><ele>1143.0</ele><time>2026-04-25T09:05:31.666Z</time></trkpt><trkpt lat="38.050125" lon="15.851425"><ele>1145.5</ele><time>2026-04-25T09:05:32.667Z</time></trkpt><trkpt lat="38.050235" lon="15.851525"><ele>1148.0</ele><time>2026-04-25T09:05:33.666Z</time></trkpt><trkpt lat="38.0503417" lon="15.8516167"><ele>1148.0</ele><time>2026-04-25T09:05:34.666Z</time></trkpt><trkpt lat="38.05045" lon="15.8517167"><ele>1148.0</ele><time>2026-04-25T09:05:35.666Z</time></trkpt><trkpt lat="38.050555" lon="15.85183"><ele>1148.0</ele><time>2026-04-25T09:05:36.666Z</time></trkpt><trkpt lat="38.0506617" lon="15.851965"><ele>1148.0</ele><time>2026-04-25T09:05:37.666Z</time></trkpt><trkpt lat="38.0507533" lon="15.85209"><ele>1148.4</ele><time>2026-04-25T09:05:38.666Z</time></trkpt><trkpt lat="38.0508383" lon="15.85221"><ele>1148.8</ele><time>2026-04-25T09:05:39.666Z</time></trkpt><trkpt lat="38.0509267" lon="15.8523167"><ele>1149.2</ele><time>2026-04-25T09:05:40.667Z</time></trkpt><trkpt lat="38.051005" lon="15.852405"><ele>1149.6</ele><time>2026-04-25T09:05:41.666Z</time></trkpt><trkpt lat="38.0510767" lon="15.852485"><ele>1150.0</ele><time>2026-04-25T09:05:42.666Z</time></trkpt><trkpt lat="38.0511683" lon="15.8525333"><ele>1150.0</ele><time>2026-04-25T09:05:43.666Z</time></trkpt><trkpt lat="38.051275" lon="15.8525583"><ele>1150.0</ele><time>2026-04-25T09:05:44.666Z</time></trkpt><trkpt lat="38.0513867" lon="15.8525617"><ele>1150.0</ele><time>2026-04-25T09:05:45.666Z</time></trkpt><trkpt lat="38.0515017" lon="15.8525683"><ele>1150.0</ele><time>2026-04-25T09:05:46.666Z</time></trkpt><trkpt lat="38.051625" lon="15.8525567"><ele>1151.8</ele><time>2026-04-25T09:05:47.666Z</time></trkpt><trkpt lat="38.051745" lon="15.852545"><ele>1153.6</ele><time>2026-04-25T09:05:48.666Z</time></trkpt><trkpt lat="38.0518583" lon="15.8525333"><ele>1155.4</ele><time>2026-04-25T09:05:49.666Z</time></trkpt><trkpt lat="38.0519717" lon="15.85253"><ele>1157.2</ele><time>2026-04-25T09:05:50.666Z</time></trkpt><trkpt lat="38.0520683" lon="15.8525283"><ele>1159.0</ele><time>2026-04-25T09:05:51.666Z</time></trkpt><trkpt lat="38.0521533" lon="15.8525183"><ele>1159.0</ele><time>2026-04-25T09:05:52.666Z</time></trkpt><trkpt lat="38.0522283" lon="15.852495"><ele>1159.0</ele><time>2026-04-25T09:05:53.666Z</time></trkpt><trkpt lat="38.052305" lon="15.85246"><ele>1159.0</ele><time>2026-04-25T09:05:54.666Z</time></trkpt><trkpt lat="38.0523833" lon="15.8523917"><ele>1159.0</ele><time>2026-04-25T09:05:55.666Z</time></trkpt><trkpt lat="38.05247" lon="15.8523033"><ele>1159.0</ele><time>2026-04-25T09:05:56.666Z</time></trkpt><trkpt lat="38.0526083" lon="15.852245"><ele>1159.5</ele><time>2026-04-25T09:05:58.666Z</time></trkpt><trkpt lat="38.05272" lon="15.8522017"><ele>1160.0</ele><time>2026-04-25T09:05:59.666Z</time></trkpt><trkpt lat="38.0528333" lon="15.8521733"><ele>1160.5</ele><time>2026-04-25T09:06:00.666Z</time></trkpt><trkpt lat="38.0529367" lon="15.85218"><ele>1161.0</ele><time>2026-04-25T09:06:01.666Z</time></trkpt><trkpt lat="38.0530483" lon="15.8522217"><ele>1161.0</ele><time>2026-04-25T09:06:02.666Z</time></trkpt><trkpt lat="38.05314" lon="15.8522917"><ele>1161.0</ele><time>2026-04-25T09:06:03.666Z</time></trkpt><trkpt lat="38.0531833" lon="15.8523967"><ele>1161.0</ele><time>2026-04-25T09:06:04.666Z</time></trkpt><trkpt lat="38.0532517" lon="15.852475"><ele>1161.0</ele><time>2026-04-25T09:06:05.667Z</time></trkpt><trkpt lat="38.05332" lon="15.8525167"><ele>1161.0</ele><time>2026-04-25T09:06:06.667Z</time></trkpt><trkpt lat="38.0533917" lon="15.85254"><ele>1161.0</ele><time>2026-04-25T09:06:07.666Z</time></trkpt><trkpt lat="38.0534617" lon="15.8525117"><ele>1163.0</ele><time>2026-04-25T09:06:08.666Z</time></trkpt><trkpt lat="38.0535317" lon="15.8524383"><ele>1165.0</ele><time>2026-04-25T09:06:09.667Z</time></trkpt><trkpt lat="38.0535967" lon="15.852315"><ele>1167.0</ele><time>2026-04-25T09:06:10.666Z</time></trkpt><trkpt lat="38.053665" lon="15.85215"><ele>1169.0</ele><time>2026-04-25T09:06:11.666Z</time></trkpt><trkpt lat="38.05374" lon="15.8519833"><ele>1169.0</ele><time>2026-04-25T09:06:12.666Z</time></trkpt><trkpt lat="38.0538033" lon="15.8518567"><ele>1169.0</ele><time>2026-04-25T09:06:13.666Z</time></trkpt><trkpt lat="38.0538833" lon="15.8517717"><ele>1169.0</ele><time>2026-04-25T09:06:14.667Z</time></trkpt><trkpt lat="38.0539783" lon="15.8517117"><ele>1169.0</ele><time>2026-04-25T09:06:15.667Z</time></trkpt><trkpt lat="38.054085" lon="15.8516467"><ele>1169.0</ele><time>2026-04-25T09:06:16.666Z</time></trkpt><trkpt lat="38.0542033" lon="15.8515717"><ele>1172.25</ele><time>2026-04-25T09:06:17.666Z</time></trkpt><trkpt lat="38.0543233" lon="15.8515017"><ele>1175.5</ele><time>2026-04-25T09:06:18.666Z</time></trkpt><trkpt lat="38.0544333" lon="15.851435"><ele>1178.75</ele><time>2026-04-25T09:06:19.666Z</time></trkpt><trkpt lat="38.0545617" lon="15.8513967"><ele>1182.0</ele><time>2026-04-25T09:06:20.666Z</time></trkpt><trkpt lat="38.054705" lon="15.8513683"><ele>1182.0</ele><time>2026-04-25T09:06:21.667Z</time></trkpt><trkpt lat="38.0548467" lon="15.85136"><ele>1182.0</ele><time>2026-04-25T09:06:22.666Z</time></trkpt><trkpt lat="38.054975" lon="15.851355"><ele>1182.0</ele><time>2026-04-25T09:06:23.666Z</time></trkpt><trkpt lat="38.05509" lon="15.8513433"><ele>1182.0</ele><time>2026-04-25T09:06:24.666Z</time></trkpt><trkpt lat="38.0551933" lon="15.85133"><ele>1183.0</ele><time>2026-04-25T09:06:25.666Z</time></trkpt><trkpt lat="38.0552717" lon="15.851315"><ele>1184.0</ele><time>2026-04-25T09:06:26.666Z</time></trkpt><trkpt lat="38.0553367" lon="15.851315"><ele>1185.0</ele><time>2026-04-25T09:06:27.666Z</time></trkpt><trkpt lat="38.055445" lon="15.8513683"><ele>1186.0</ele><time>2026-04-25T09:06:29.666Z</time></trkpt><trkpt lat="38.0554967" lon="15.8514617"><ele>1187.0</ele><time>2026-04-25T09:06:31.666Z</time></trkpt><trkpt lat="38.0554967" lon="15.8516"><ele>1187.0</ele><time>2026-04-25T09:06:33.666Z</time></trkpt><trkpt lat="38.055495" lon="15.8517017"><ele>1187.0</ele><time>2026-04-25T09:06:34.666Z</time></trkpt><trkpt lat="38.055505" lon="15.851805"><ele>1187.0</ele><time>2026-04-25T09:06:35.666Z</time></trkpt><trkpt lat="38.0555333" lon="15.8519183"><ele>1187.0</ele><time>2026-04-25T09:06:36.666Z</time></trkpt><trkpt lat="38.0555833" lon="15.85203"><ele>1187.0</ele><time>2026-04-25T09:06:37.666Z</time></trkpt><trkpt lat="38.0556483" lon="15.8521183"><ele>1188.0</ele><time>2026-04-25T09:06:38.666Z</time></trkpt><trkpt lat="38.055735" lon="15.8522033"><ele>1189.0</ele><time>2026-04-25T09:06:39.667Z</time></trkpt><trkpt lat="38.0558367" lon="15.85228"><ele>1190.0</ele><time>2026-04-25T09:06:40.666Z</time></trkpt><trkpt lat="38.0559333" lon="15.852365"><ele>1191.0</ele><time>2026-04-25T09:06:41.666Z</time></trkpt><trkpt lat="38.05601" lon="15.852455"><ele>1191.0</ele><time>2026-04-25T09:06:42.666Z</time></trkpt><trkpt lat="38.0560583" lon="15.8525683"><ele>1191.0</ele><time>2026-04-25T09:06:43.666Z</time></trkpt><trkpt lat="38.05609" lon="15.852695"><ele>1191.0</ele><time>2026-04-25T09:06:44.666Z</time></trkpt><trkpt lat="38.0561017" lon="15.85283"><ele>1191.0</ele><time>2026-04-25T09:06:45.667Z</time></trkpt><trkpt lat="38.056105" lon="15.852935"><ele>1191.0</ele><time>2026-04-25T09:06:46.666Z</time></trkpt><trkpt lat="38.0560867" lon="15.853015"><ele>1192.3999999999999</ele><time>2026-04-25T09:06:47.666Z</time></trkpt><trkpt lat="38.0560167" lon="15.8531167"><ele>1193.8</ele><time>2026-04-25T09:06:49.666Z</time></trkpt><trkpt lat="38.055955" lon="15.8531467"><ele>1195.1999999999998</ele><time>2026-04-25T09:06:50.666Z</time></trkpt><trkpt lat="38.05589" lon="15.8531583"><ele>1196.6</ele><time>2026-04-25T09:06:51.666Z</time></trkpt><trkpt lat="38.0558017" lon="15.8532317"><ele>1198.0</ele><time>2026-04-25T09:06:53.666Z</time></trkpt><trkpt lat="38.0558083" lon="15.8533933"><ele>1199.0</ele><time>2026-04-25T09:06:55.666Z</time></trkpt><trkpt lat="38.05586" lon="15.853495"><ele>1200.0</ele><time>2026-04-25T09:06:56.667Z</time></trkpt><trkpt lat="38.0559233" lon="15.8536267"><ele>1201.0</ele><time>2026-04-25T09:06:57.666Z</time></trkpt><trkpt lat="38.0559967" lon="15.8537833"><ele>1202.0</ele><time>2026-04-25T09:06:58.667Z</time></trkpt><trkpt lat="38.0560633" lon="15.853915"><ele>1202.0</ele><time>2026-04-25T09:06:59.666Z</time></trkpt><trkpt lat="38.0561117" lon="15.8540517"><ele>1202.0</ele><time>2026-04-25T09:07:00.666Z</time></trkpt><trkpt lat="38.0561433" lon="15.8541833"><ele>1202.0</ele><time>2026-04-25T09:07:01.666Z</time></trkpt><trkpt lat="38.0561717" lon="15.85431"><ele>1202.0</ele><time>2026-04-25T09:07:02.666Z</time></trkpt><trkpt lat="38.0562017" lon="15.8544683"><ele>1201.6</ele><time>2026-04-25T09:07:03.666Z</time></trkpt><trkpt lat="38.05623" lon="15.85464"><ele>1201.2</ele><time>2026-04-25T09:07:04.666Z</time></trkpt><trkpt lat="38.056255" lon="15.85475"><ele>1200.8</ele><time>2026-04-25T09:07:05.666Z</time></trkpt><trkpt lat="38.0562717" lon="15.8548483"><ele>1200.4</ele><time>2026-04-25T09:07:06.667Z</time></trkpt><trkpt lat="38.056315" lon="15.8549467"><ele>1200.0</ele><time>2026-04-25T09:07:07.666Z</time></trkpt><trkpt lat="38.0563967" lon="15.85503"><ele>1200.0</ele><time>2026-04-25T09:07:08.666Z</time></trkpt><trkpt lat="38.0564917" lon="15.855115"><ele>1200.0</ele><time>2026-04-25T09:07:09.666Z</time></trkpt><trkpt lat="38.0565883" lon="15.85519"><ele>1200.0</ele><time>2026-04-25T09:07:10.666Z</time></trkpt><trkpt lat="38.0566683" lon="15.8552583"><ele>1200.0</ele><time>2026-04-25T09:07:11.666Z</time></trkpt><trkpt lat="38.0567367" lon="15.8553033"><ele>1200.0</ele><time>2026-04-25T09:07:12.666Z</time></trkpt><trkpt lat="38.0568617" lon="15.8553333"><ele>1201.5</ele><time>2026-04-25T09:07:14.666Z</time></trkpt><trkpt lat="38.05694" lon="15.8553333"><ele>1203.0</ele><time>2026-04-25T09:07:15.666Z</time></trkpt><trkpt lat="38.0570317" lon="15.855315"><ele>1204.5</ele><time>2026-04-25T09:07:16.666Z</time></trkpt><trkpt lat="38.057105" lon="15.8552933"><ele>1206.0</ele><time>2026-04-25T09:07:17.666Z</time></trkpt><trkpt lat="38.0572133" lon="15.8553"><ele>1207.5</ele><time>2026-04-25T09:07:19.667Z</time></trkpt><trkpt lat="38.05728" lon="15.8553717"><ele>1209.0</ele><time>2026-04-25T09:07:21.666Z</time></trkpt><trkpt lat="38.0573283" lon="15.8554417"><ele>1209.0</ele><time>2026-04-25T09:07:22.666Z</time></trkpt><trkpt lat="38.0573933" lon="15.8555233"><ele>1209.0</ele><time>2026-04-25T09:07:23.666Z</time></trkpt><trkpt lat="38.0574583" lon="15.8556017"><ele>1209.0</ele><time>2026-04-25T09:07:24.666Z</time></trkpt><trkpt lat="38.0575317" lon="15.85567"><ele>1209.0</ele><time>2026-04-25T09:07:25.666Z</time></trkpt><trkpt lat="38.0575883" lon="15.85572"><ele>1209.0</ele><time>2026-04-25T09:07:26.666Z</time></trkpt><trkpt lat="38.0576167" lon="15.8556417"><ele>1209.0</ele><time>2026-04-25T09:07:30.666Z</time></trkpt><trkpt lat="38.0575783" lon="15.8555333"><ele>1211.4</ele><time>2026-04-25T09:07:32.666Z</time></trkpt><trkpt lat="38.057575" lon="15.8553833"><ele>1213.8000000000002</ele><time>2026-04-25T09:07:34.666Z</time></trkpt><trkpt lat="38.05759" lon="15.8552817"><ele>1216.1999999999998</ele><time>2026-04-25T09:07:35.666Z</time></trkpt><trkpt lat="38.05761" lon="15.855155"><ele>1218.6</ele><time>2026-04-25T09:07:36.666Z</time></trkpt><trkpt lat="38.05763" lon="15.8550233"><ele>1221.0</ele><time>2026-04-25T09:07:37.666Z</time></trkpt><trkpt lat="38.057635" lon="15.85491"><ele>1220.3333333333333</ele><time>2026-04-25T09:07:38.666Z</time></trkpt><trkpt lat="38.0576067" lon="15.85483"><ele>1219.6666666666667</ele><time>2026-04-25T09:07:39.666Z</time></trkpt><trkpt lat="38.0575533" lon="15.8547683"><ele>1219.0</ele><time>2026-04-25T09:07:40.666Z</time></trkpt><trkpt lat="38.057475" lon="15.85472"><ele>1218.3333333333335</ele><time>2026-04-25T09:07:41.666Z</time></trkpt><trkpt lat="38.0574017" lon="15.8546683"><ele>1217.6666666666667</ele><time>2026-04-25T09:07:42.667Z</time></trkpt><trkpt lat="38.0573467" lon="15.8546067"><ele>1217.0</ele><time>2026-04-25T09:07:43.666Z</time></trkpt><trkpt lat="38.0573283" lon="15.8544567"><ele>1217.0</ele><time>2026-04-25T09:07:45.667Z</time></trkpt><trkpt lat="38.0573667" lon="15.8543567"><ele>1217.0</ele><time>2026-04-25T09:07:46.666Z</time></trkpt><trkpt lat="38.0574367" lon="15.85424"><ele>1217.0</ele><time>2026-04-25T09:07:47.667Z</time></trkpt><trkpt lat="38.0575267" lon="15.8541367"><ele>1217.0</ele><time>2026-04-25T09:07:48.666Z</time></trkpt><trkpt lat="38.0576233" lon="15.8540483"><ele>1217.0</ele><time>2026-04-25T09:07:49.666Z</time></trkpt><trkpt lat="38.0577217" lon="15.8539733"><ele>1219.6</ele><time>2026-04-25T09:07:50.667Z</time></trkpt><trkpt lat="38.0578083" lon="15.8539267"><ele>1222.2</ele><time>2026-04-25T09:07:51.666Z</time></trkpt><trkpt lat="38.0579117" lon="15.8539583"><ele>1224.8</ele><time>2026-04-25T09:07:53.667Z</time></trkpt><trkpt lat="38.0579567" lon="15.8541267"><ele>1227.4</ele><time>2026-04-25T09:07:55.666Z</time></trkpt><trkpt lat="38.0580033" lon="15.854245"><ele>1230.0</ele><time>2026-04-25T09:07:56.666Z</time></trkpt><trkpt lat="38.0580683" lon="15.8543683"><ele>1230.0</ele><time>2026-04-25T09:07:57.666Z</time></trkpt><trkpt lat="38.0581267" lon="15.854475"><ele>1230.0</ele><time>2026-04-25T09:07:58.666Z</time></trkpt><trkpt lat="38.0581683" lon="15.85458"><ele>1230.0</ele><time>2026-04-25T09:07:59.667Z</time></trkpt><trkpt lat="38.0581917" lon="15.8546583"><ele>1230.0</ele><time>2026-04-25T09:08:00.666Z</time></trkpt><trkpt lat="38.0582033" lon="15.85479"><ele>1230.0</ele><time>2026-04-25T09:08:02.666Z</time></trkpt><trkpt lat="38.0582533" lon="15.8548417"><ele>1230.0</ele><time>2026-04-25T09:08:04.667Z</time></trkpt><trkpt lat="38.058325" lon="15.8547533"><ele>1231.5714285714284</ele><time>2026-04-25T09:08:07.667Z</time></trkpt><trkpt lat="38.0583333" lon="15.8546617"><ele>1233.1428571428573</ele><time>2026-04-25T09:08:08.667Z</time></trkpt><trkpt lat="38.0583267" lon="15.85456"><ele>1234.7142857142858</ele><time>2026-04-25T09:08:09.666Z</time></trkpt><trkpt lat="38.0583217" lon="15.8544667"><ele>1236.2857142857142</ele><time>2026-04-25T09:08:10.666Z</time></trkpt><trkpt lat="38.0583217" lon="15.8543833"><ele>1237.8571428571427</ele><time>2026-04-25T09:08:11.666Z</time></trkpt><trkpt lat="38.0583217" lon="15.8543017"><ele>1239.4285714285716</ele><time>2026-04-25T09:08:12.666Z</time></trkpt><trkpt lat="38.0583267" lon="15.8542167"><ele>1241.0</ele><time>2026-04-25T09:08:13.666Z</time></trkpt><trkpt lat="38.0583367" lon="15.8541367"><ele>1242.8</ele><time>2026-04-25T09:08:14.666Z</time></trkpt><trkpt lat="38.0583783" lon="15.8540183"><ele>1244.6</ele><time>2026-04-25T09:08:16.666Z</time></trkpt><trkpt lat="38.0584417" lon="15.8539033"><ele>1246.4</ele><time>2026-04-25T09:08:18.666Z</time></trkpt><trkpt lat="38.0585017" lon="15.8538367"><ele>1248.2</ele><time>2026-04-25T09:08:19.666Z</time></trkpt><trkpt lat="38.0585817" lon="15.853775"><ele>1250.0</ele><time>2026-04-25T09:08:20.667Z</time></trkpt><trkpt lat="38.05868" lon="15.85371"><ele>1250.0</ele><time>2026-04-25T09:08:21.666Z</time></trkpt><trkpt lat="38.0587717" lon="15.8536583"><ele>1250.0</ele><time>2026-04-25T09:08:22.666Z</time></trkpt><trkpt lat="38.058855" lon="15.8536333"><ele>1250.0</ele><time>2026-04-25T09:08:23.667Z</time></trkpt><trkpt lat="38.05894" lon="15.853635"><ele>1250.0</ele><time>2026-04-25T09:08:24.666Z</time></trkpt><trkpt lat="38.0590333" lon="15.8536467"><ele>1250.0</ele><time>2026-04-25T09:08:25.666Z</time></trkpt><trkpt lat="38.05911" lon="15.8536417"><ele>1250.0</ele><time>2026-04-25T09:08:26.666Z</time></trkpt><trkpt lat="38.0591767" lon="15.853625"><ele>1249.3333333333335</ele><time>2026-04-25T09:08:27.666Z</time></trkpt><trkpt lat="38.0592367" lon="15.8535783"><ele>1248.6666666666667</ele><time>2026-04-25T09:08:28.667Z</time></trkpt><trkpt lat="38.0592917" lon="15.8535167"><ele>1248.0</ele><time>2026-04-25T09:08:29.666Z</time></trkpt><trkpt lat="38.05935" lon="15.8534533"><ele>1247.3333333333333</ele><time>2026-04-25T09:08:30.666Z</time></trkpt><trkpt lat="38.0594167" lon="15.8534083"><ele>1246.6666666666665</ele><time>2026-04-25T09:08:31.666Z</time></trkpt><trkpt lat="38.0594917" lon="15.8533783"><ele>1246.0</ele><time>2026-04-25T09:08:32.666Z</time></trkpt><trkpt lat="38.0595767" lon="15.8533617"><ele>1249.8</ele><time>2026-04-25T09:08:33.666Z</time></trkpt><trkpt lat="38.0596667" lon="15.8533583"><ele>1253.6</ele><time>2026-04-25T09:08:34.667Z</time></trkpt><trkpt lat="38.059765" lon="15.85337"><ele>1257.4</ele><time>2026-04-25T09:08:35.666Z</time></trkpt><trkpt lat="38.0598667" lon="15.853375"><ele>1261.2</ele><time>2026-04-25T09:08:36.666Z</time></trkpt><trkpt lat="38.05998" lon="15.8533417"><ele>1265.0</ele><time>2026-04-25T09:08:37.666Z</time></trkpt><trkpt lat="38.0600717" lon="15.8532867"><ele>1265.0</ele><time>2026-04-25T09:08:38.666Z</time></trkpt><trkpt lat="38.0601567" lon="15.8532033"><ele>1265.0</ele><time>2026-04-25T09:08:39.666Z</time></trkpt><trkpt lat="38.060255" lon="15.8531017"><ele>1265.0</ele><time>2026-04-25T09:08:40.666Z</time></trkpt><trkpt lat="38.0603633" lon="15.85299"><ele>1265.0</ele><time>2026-04-25T09:08:41.666Z</time></trkpt><trkpt lat="38.0604667" lon="15.8528817"><ele>1265.0</ele><time>2026-04-25T09:08:42.666Z</time></trkpt><trkpt lat="38.060565" lon="15.852785"><ele>1265.0</ele><time>2026-04-25T09:08:43.667Z</time></trkpt><trkpt lat="38.0606667" lon="15.852705"><ele>1265.0</ele><time>2026-04-25T09:08:44.666Z</time></trkpt><trkpt lat="38.0607633" lon="15.8526267"><ele>1265.0</ele><time>2026-04-25T09:08:45.667Z</time></trkpt><trkpt lat="38.0608567" lon="15.8525517"><ele>1267.8333333333335</ele><time>2026-04-25T09:08:46.667Z</time></trkpt><trkpt lat="38.060945" lon="15.8524767"><ele>1270.6666666666667</ele><time>2026-04-25T09:08:47.666Z</time></trkpt><trkpt lat="38.0610167" lon="15.85241"><ele>1273.5</ele><time>2026-04-25T09:08:48.666Z</time></trkpt><trkpt lat="38.061075" lon="15.8523517"><ele>1276.3333333333333</ele><time>2026-04-25T09:08:49.666Z</time></trkpt><trkpt lat="38.061135" lon="15.8523083"><ele>1279.1666666666665</ele><time>2026-04-25T09:08:50.666Z</time></trkpt><trkpt lat="38.0611983" lon="15.85229"><ele>1282.0</ele><time>2026-04-25T09:08:51.666Z</time></trkpt><trkpt lat="38.0612633" lon="15.85231"><ele>1282.0</ele><time>2026-04-25T09:08:52.666Z</time></trkpt><trkpt lat="38.0613183" lon="15.852365"><ele>1282.0</ele><time>2026-04-25T09:08:53.666Z</time></trkpt><trkpt lat="38.0613933" lon="15.8524517"><ele>1282.0</ele><time>2026-04-25T09:08:54.666Z</time></trkpt><trkpt lat="38.061475" lon="15.8525283"><ele>1282.0</ele><time>2026-04-25T09:08:55.666Z</time></trkpt><trkpt lat="38.06156" lon="15.8525867"><ele>1282.0</ele><time>2026-04-25T09:08:56.666Z</time></trkpt><trkpt lat="38.0616567" lon="15.8526267"><ele>1279.6</ele><time>2026-04-25T09:08:57.666Z</time></trkpt><trkpt lat="38.061745" lon="15.852645"><ele>1277.1999999999998</ele><time>2026-04-25T09:08:58.666Z</time></trkpt><trkpt lat="38.06182" lon="15.85264"><ele>1274.8</ele><time>2026-04-25T09:08:59.666Z</time></trkpt><trkpt lat="38.0619283" lon="15.85258"><ele>1272.4</ele><time>2026-04-25T09:09:01.666Z</time></trkpt><trkpt lat="38.0619867" lon="15.8525017"><ele>1270.0</ele><time>2026-04-25T09:09:02.666Z</time></trkpt><trkpt lat="38.0620383" lon="15.8524067"><ele>1270.0</ele><time>2026-04-25T09:09:03.666Z</time></trkpt><trkpt lat="38.0620817" lon="15.852315"><ele>1270.0</ele><time>2026-04-25T09:09:04.666Z</time></trkpt><trkpt lat="38.06211" lon="15.8522233"><ele>1270.0</ele><time>2026-04-25T09:09:05.666Z</time></trkpt><trkpt lat="38.0621" lon="15.85213"><ele>1270.0</ele><time>2026-04-25T09:09:06.667Z</time></trkpt><trkpt lat="38.0620767" lon="15.8520217"><ele>1270.0</ele><time>2026-04-25T09:09:07.666Z</time></trkpt><trkpt lat="38.06205" lon="15.8519217"><ele>1270.0</ele><time>2026-04-25T09:09:08.666Z</time></trkpt><trkpt lat="38.0620417" lon="15.8518383"><ele>1271.4</ele><time>2026-04-25T09:09:09.666Z</time></trkpt><trkpt lat="38.0620817" lon="15.8517317"><ele>1272.8</ele><time>2026-04-25T09:09:11.666Z</time></trkpt><trkpt lat="38.062195" lon="15.8516833"><ele>1274.2</ele><time>2026-04-25T09:09:13.666Z</time></trkpt><trkpt lat="38.0622917" lon="15.851675"><ele>1275.6</ele><time>2026-04-25T09:09:14.666Z</time></trkpt><trkpt lat="38.062385" lon="15.851665"><ele>1277.0</ele><time>2026-04-25T09:09:15.666Z</time></trkpt><trkpt lat="38.0624667" lon="15.85164"><ele>1274.3333333333335</ele><time>2026-04-25T09:09:16.666Z</time></trkpt><trkpt lat="38.0625483" lon="15.8515967"><ele>1271.6666666666667</ele><time>2026-04-25T09:09:17.667Z</time></trkpt><trkpt lat="38.062635" lon="15.8515367"><ele>1269.0</ele><time>2026-04-25T09:09:18.667Z</time></trkpt><trkpt lat="38.0627167" lon="15.8514867"><ele>1266.3333333333333</ele><time>2026-04-25T09:09:19.667Z</time></trkpt><trkpt lat="38.0627983" lon="15.8514533"><ele>1263.6666666666665</ele><time>2026-04-25T09:09:20.666Z</time></trkpt><trkpt lat="38.0628817" lon="15.8514433"><ele>1261.0</ele><time>2026-04-25T09:09:21.666Z</time></trkpt><trkpt lat="38.0629683" lon="15.851425"><ele>1261.0</ele><time>2026-04-25T09:09:22.666Z</time></trkpt><trkpt lat="38.06304" lon="15.8513867"><ele>1261.0</ele><time>2026-04-25T09:09:23.666Z</time></trkpt><trkpt lat="38.0631317" lon="15.8513267"><ele>1261.0</ele><time>2026-04-25T09:09:24.666Z</time></trkpt><trkpt lat="38.0632233" lon="15.8512433"><ele>1261.0</ele><time>2026-04-25T09:09:25.666Z</time></trkpt><trkpt lat="38.0633117" lon="15.85116"><ele>1261.0</ele><time>2026-04-25T09:09:26.666Z</time></trkpt><trkpt lat="38.063395" lon="15.8510983"><ele>1258.3999999999999</ele><time>2026-04-25T09:09:27.666Z</time></trkpt><trkpt lat="38.063475" lon="15.851045"><ele>1255.8</ele><time>2026-04-25T09:09:28.666Z</time></trkpt><trkpt lat="38.0635517" lon="15.8509983"><ele>1253.1999999999998</ele><time>2026-04-25T09:09:29.667Z</time></trkpt><trkpt lat="38.06361" lon="15.8509517"><ele>1250.6</ele><time>2026-04-25T09:09:30.667Z</time></trkpt><trkpt lat="38.063705" lon="15.8508833"><ele>1248.0</ele><time>2026-04-25T09:09:32.666Z</time></trkpt><trkpt lat="38.06381" lon="15.8508"><ele>1248.0</ele><time>2026-04-25T09:09:34.666Z</time></trkpt><trkpt lat="38.0638667" lon="15.8507617"><ele>1248.0</ele><time>2026-04-25T09:09:35.666Z</time></trkpt><trkpt lat="38.0639267" lon="15.8507267"><ele>1248.0</ele><time>2026-04-25T09:09:36.667Z</time></trkpt><trkpt lat="38.0639983" lon="15.850695"><ele>1248.0</ele><time>2026-04-25T09:09:37.666Z</time></trkpt><trkpt lat="38.0640767" lon="15.8506767"><ele>1248.0</ele><time>2026-04-25T09:09:38.666Z</time></trkpt><trkpt lat="38.06416" lon="15.8506767"><ele>1248.0</ele><time>2026-04-25T09:09:39.666Z</time></trkpt><trkpt lat="38.0642217" lon="15.8507033"><ele>1248.0</ele><time>2026-04-25T09:09:40.667Z</time></trkpt><trkpt lat="38.06428" lon="15.8507433"><ele>1249.4</ele><time>2026-04-25T09:09:41.666Z</time></trkpt><trkpt lat="38.06439" lon="15.8507333"><ele>1250.8</ele><time>2026-04-25T09:09:43.667Z</time></trkpt><trkpt lat="38.0644467" lon="15.8506883"><ele>1252.2</ele><time>2026-04-25T09:09:44.666Z</time></trkpt><trkpt lat="38.0645233" lon="15.8506317"><ele>1253.6</ele><time>2026-04-25T09:09:45.666Z</time></trkpt><trkpt lat="38.064615" lon="15.85058"><ele>1255.0</ele><time>2026-04-25T09:09:46.666Z</time></trkpt><trkpt lat="38.0647217" lon="15.850535"><ele>1255.0</ele><time>2026-04-25T09:09:47.666Z</time></trkpt><trkpt lat="38.0648217" lon="15.850505"><ele>1255.0</ele><time>2026-04-25T09:09:48.667Z</time></trkpt><trkpt lat="38.064905" lon="15.8504717"><ele>1255.0</ele><time>2026-04-25T09:09:49.666Z</time></trkpt><trkpt lat="38.0649667" lon="15.8504167"><ele>1255.0</ele><time>2026-04-25T09:09:50.666Z</time></trkpt><trkpt lat="38.06502" lon="15.8503433"><ele>1255.0</ele><time>2026-04-25T09:09:51.666Z</time></trkpt><trkpt lat="38.0650783" lon="15.8502433"><ele>1255.0</ele><time>2026-04-25T09:09:52.667Z</time></trkpt><trkpt lat="38.0651333" lon="15.850135"><ele>1258.8</ele><time>2026-04-25T09:09:53.666Z</time></trkpt><trkpt lat="38.0651783" lon="15.8500233"><ele>1262.6</ele><time>2026-04-25T09:09:54.667Z</time></trkpt><trkpt lat="38.06522" lon="15.8499133"><ele>1266.4</ele><time>2026-04-25T09:09:55.666Z</time></trkpt><trkpt lat="38.065245" lon="15.8498017"><ele>1270.2</ele><time>2026-04-25T09:09:56.666Z</time></trkpt><trkpt lat="38.0652683" lon="15.8496817"><ele>1274.0</ele><time>2026-04-25T09:09:57.666Z</time></trkpt><trkpt lat="38.06529" lon="15.8495567"><ele>1274.0</ele><time>2026-04-25T09:09:58.667Z</time></trkpt><trkpt lat="38.0653183" lon="15.8494367"><ele>1274.0</ele><time>2026-04-25T09:09:59.666Z</time></trkpt><trkpt lat="38.0653567" lon="15.8493267"><ele>1274.0</ele><time>2026-04-25T09:10:00.666Z</time></trkpt><trkpt lat="38.0654" lon="15.84923"><ele>1274.0</ele><time>2026-04-25T09:10:01.666Z</time></trkpt><trkpt lat="38.0654617" lon="15.8491533"><ele>1274.0</ele><time>2026-04-25T09:10:02.666Z</time></trkpt><trkpt lat="38.06553" lon="15.84908"><ele>1273.1666666666667</ele><time>2026-04-25T09:10:03.666Z</time></trkpt><trkpt lat="38.0656" lon="15.8490067"><ele>1272.3333333333335</ele><time>2026-04-25T09:10:04.666Z</time></trkpt><trkpt lat="38.0656683" lon="15.8489383"><ele>1271.5</ele><time>2026-04-25T09:10:05.667Z</time></trkpt><trkpt lat="38.065735" lon="15.8488933"><ele>1270.6666666666667</ele><time>2026-04-25T09:10:06.666Z</time></trkpt><trkpt lat="38.06582" lon="15.8488667"><ele>1269.8333333333333</ele><time>2026-04-25T09:10:07.666Z</time></trkpt><trkpt lat="38.0659067" lon="15.8488617"><ele>1269.0</ele><time>2026-04-25T09:10:08.666Z</time></trkpt><trkpt lat="38.0659733" lon="15.8488417"><ele>1270.6666666666667</ele><time>2026-04-25T09:10:09.666Z</time></trkpt><trkpt lat="38.06604" lon="15.8488083"><ele>1272.3333333333333</ele><time>2026-04-25T09:10:10.667Z</time></trkpt><trkpt lat="38.0660967" lon="15.84876"><ele>1274.0</ele><time>2026-04-25T09:10:11.666Z</time></trkpt><trkpt lat="38.0661417" lon="15.8486867"><ele>1275.6666666666665</ele><time>2026-04-25T09:10:12.666Z</time></trkpt><trkpt lat="38.06617" lon="15.8486017"><ele>1277.3333333333333</ele><time>2026-04-25T09:10:13.666Z</time></trkpt><trkpt lat="38.0661883" lon="15.8485"><ele>1279.0</ele><time>2026-04-25T09:10:14.666Z</time></trkpt><trkpt lat="38.066205" lon="15.84839"><ele>1281.2</ele><time>2026-04-25T09:10:15.666Z</time></trkpt><trkpt lat="38.06623" lon="15.848285"><ele>1283.4</ele><time>2026-04-25T09:10:16.666Z</time></trkpt><trkpt lat="38.0662783" lon="15.848175"><ele>1285.6</ele><time>2026-04-25T09:10:17.667Z</time></trkpt><trkpt lat="38.0663433" lon="15.8480583"><ele>1287.8</ele><time>2026-04-25T09:10:18.666Z</time></trkpt><trkpt lat="38.06642" lon="15.8479217"><ele>1290.0</ele><time>2026-04-25T09:10:19.666Z</time></trkpt><trkpt lat="38.0664983" lon="15.8478217"><ele>1290.0</ele><time>2026-04-25T09:10:20.666Z</time></trkpt><trkpt lat="38.0665617" lon="15.84776"><ele>1290.0</ele><time>2026-04-25T09:10:21.666Z</time></trkpt><trkpt lat="38.0666567" lon="15.8477583"><ele>1290.0</ele><time>2026-04-25T09:10:23.666Z</time></trkpt><trkpt lat="38.0667167" lon="15.8478183"><ele>1290.0</ele><time>2026-04-25T09:10:24.666Z</time></trkpt><trkpt lat="38.066775" lon="15.847895"><ele>1290.0</ele><time>2026-04-25T09:10:25.667Z</time></trkpt><trkpt lat="38.066835" lon="15.847985"><ele>1290.0</ele><time>2026-04-25T09:10:26.666Z</time></trkpt><trkpt lat="38.066905" lon="15.8480633"><ele>1290.0</ele><time>2026-04-25T09:10:27.666Z</time></trkpt><trkpt lat="38.0669733" lon="15.8481367"><ele>1290.0</ele><time>2026-04-25T09:10:28.666Z</time></trkpt><trkpt lat="38.0670267" lon="15.848225"><ele>1290.0</ele><time>2026-04-25T09:10:29.666Z</time></trkpt><trkpt lat="38.06707" lon="15.8483167"><ele>1290.0</ele><time>2026-04-25T09:10:30.666Z</time></trkpt><trkpt lat="38.067125" lon="15.848385"><ele>1290.0</ele><time>2026-04-25T09:10:31.666Z</time></trkpt><trkpt lat="38.0671933" lon="15.8484317"><ele>1290.0</ele><time>2026-04-25T09:10:32.666Z</time></trkpt><trkpt lat="38.067265" lon="15.84847"><ele>1290.1666666666667</ele><time>2026-04-25T09:10:33.666Z</time></trkpt><trkpt lat="38.0673467" lon="15.8485117"><ele>1290.3333333333333</ele><time>2026-04-25T09:10:34.667Z</time></trkpt><trkpt lat="38.0674383" lon="15.8485417"><ele>1290.5</ele><time>2026-04-25T09:10:35.667Z</time></trkpt><trkpt lat="38.06752" lon="15.8485733"><ele>1290.6666666666665</ele><time>2026-04-25T09:10:36.666Z</time></trkpt><trkpt lat="38.067585" lon="15.848635"><ele>1290.8333333333333</ele><time>2026-04-25T09:10:37.666Z</time></trkpt><trkpt lat="38.06764" lon="15.84871"><ele>1291.0</ele><time>2026-04-25T09:10:38.666Z</time></trkpt><trkpt lat="38.0676967" lon="15.8487917"><ele>1291.0</ele><time>2026-04-25T09:10:39.666Z</time></trkpt><trkpt lat="38.0677567" lon="15.8488733"><ele>1291.0</ele><time>2026-04-25T09:10:40.666Z</time></trkpt><trkpt lat="38.0678117" lon="15.8489583"><ele>1291.0</ele><time>2026-04-25T09:10:41.666Z</time></trkpt><trkpt lat="38.0678617" lon="15.8490483"><ele>1291.0</ele><time>2026-04-25T09:10:42.667Z</time></trkpt><trkpt lat="38.0679083" lon="15.84915"><ele>1291.0</ele><time>2026-04-25T09:10:43.666Z</time></trkpt><trkpt lat="38.0679517" lon="15.8492317"><ele>1291.0</ele><time>2026-04-25T09:10:44.666Z</time></trkpt><trkpt lat="38.0680333" lon="15.8493433"><ele>1291.6</ele><time>2026-04-25T09:10:46.666Z</time></trkpt><trkpt lat="38.0681567" lon="15.8493783"><ele>1292.1999999999998</ele><time>2026-04-25T09:10:48.667Z</time></trkpt><trkpt lat="38.0682467" lon="15.849465"><ele>1292.8000000000002</ele><time>2026-04-25T09:10:50.666Z</time></trkpt><trkpt lat="38.0682767" lon="15.8496133"><ele>1293.4</ele><time>2026-04-25T09:10:52.666Z</time></trkpt><trkpt lat="38.0682783" lon="15.8497117"><ele>1294.0</ele><time>2026-04-25T09:10:53.667Z</time></trkpt><trkpt lat="38.0682917" lon="15.849815"><ele>1294.8000000000002</ele><time>2026-04-25T09:10:54.666Z</time></trkpt><trkpt lat="38.068345" lon="15.84993"><ele>1295.6000000000001</ele><time>2026-04-25T09:10:56.666Z</time></trkpt><trkpt lat="38.0684717" lon="15.84997"><ele>1296.4</ele><time>2026-04-25T09:10:58.666Z</time></trkpt><trkpt lat="38.0685333" lon="15.8500033"><ele>1297.2</ele><time>2026-04-25T09:10:59.666Z</time></trkpt><trkpt lat="38.0685867" lon="15.850055"><ele>1298.0</ele><time>2026-04-25T09:11:00.666Z</time></trkpt><trkpt lat="38.0686583" lon="15.8501483"><ele>1298.0</ele><time>2026-04-25T09:11:02.667Z</time></trkpt><trkpt lat="38.06869" lon="15.8502283"><ele>1298.0</ele><time>2026-04-25T09:11:11.666Z</time></trkpt><trkpt lat="38.0687483" lon="15.850265"><ele>1298.0</ele><time>2026-04-25T09:11:13.666Z</time></trkpt><trkpt lat="38.0688167" lon="15.850295"><ele>1298.0</ele><time>2026-04-25T09:11:15.666Z</time></trkpt><trkpt lat="38.0688983" lon="15.8503517"><ele>1298.0</ele><time>2026-04-25T09:11:17.666Z</time></trkpt><trkpt lat="38.0689933" lon="15.8503833"><ele>1298.0</ele><time>2026-04-25T09:11:19.666Z</time></trkpt><trkpt lat="38.0691067" lon="15.8503533"><ele>1299.2</ele><time>2026-04-25T09:11:21.666Z</time></trkpt><trkpt lat="38.06922" lon="15.85028"><ele>1300.4</ele><time>2026-04-25T09:11:23.666Z</time></trkpt><trkpt lat="38.0692867" lon="15.8502317"><ele>1301.6000000000001</ele><time>2026-04-25T09:11:24.666Z</time></trkpt><trkpt lat="38.0693517" lon="15.8501883"><ele>1302.8000000000002</ele><time>2026-04-25T09:11:25.667Z</time></trkpt><trkpt lat="38.0694633" lon="15.850175"><ele>1304.0</ele><time>2026-04-25T09:11:27.666Z</time></trkpt><trkpt lat="38.069545" lon="15.8502367"><ele>1304.0</ele><time>2026-04-25T09:11:29.667Z</time></trkpt><trkpt lat="38.0695817" lon="15.850365"><ele>1304.0</ele><time>2026-04-25T09:11:31.666Z</time></trkpt><trkpt lat="38.0696233" lon="15.8504783"><ele>1304.0</ele><time>2026-04-25T09:11:33.666Z</time></trkpt><trkpt lat="38.069685" lon="15.8505133"><ele>1304.0</ele><time>2026-04-25T09:11:35.666Z</time></trkpt><trkpt lat="38.0697667" lon="15.85049"><ele>1304.0</ele><time>2026-04-25T09:11:37.666Z</time></trkpt><trkpt lat="38.0698633" lon="15.8504467"><ele>1303.6</ele><time>2026-04-25T09:11:39.666Z</time></trkpt><trkpt lat="38.0699717" lon="15.8504183"><ele>1303.2</ele><time>2026-04-25T09:11:41.666Z</time></trkpt><trkpt lat="38.0700733" lon="15.85034"><ele>1302.8</ele><time>2026-04-25T09:11:43.667Z</time></trkpt><trkpt lat="38.0701483" lon="15.8502283"><ele>1302.3999999999999</ele><time>2026-04-25T09:11:45.666Z</time></trkpt><trkpt lat="38.070225" lon="15.8501467"><ele>1302.0</ele><time>2026-04-25T09:11:47.666Z</time></trkpt><trkpt lat="38.0703017" lon="15.8500983"><ele>1302.0</ele><time>2026-04-25T09:11:49.666Z</time></trkpt><trkpt lat="38.0704" lon="15.850065"><ele>1302.0</ele><time>2026-04-25T09:11:51.666Z</time></trkpt><trkpt lat="38.0704883" lon="15.8500867"><ele>1302.0</ele><time>2026-04-25T09:11:53.666Z</time></trkpt><trkpt lat="38.0705433" lon="15.8501817"><ele>1302.0</ele><time>2026-04-25T09:11:55.666Z</time></trkpt><trkpt lat="38.0705783" lon="15.8502667"><ele>1302.0</ele><time>2026-04-25T09:11:56.666Z</time></trkpt><trkpt lat="38.0706267" lon="15.8503733"><ele>1302.0</ele><time>2026-04-25T09:11:57.667Z</time></trkpt><trkpt lat="38.070685" lon="15.8505133"><ele>1302.0</ele><time>2026-04-25T09:11:58.666Z</time></trkpt><trkpt lat="38.0707433" lon="15.850665"><ele>1302.0</ele><time>2026-04-25T09:11:59.666Z</time></trkpt><trkpt lat="38.0707917" lon="15.8508117"><ele>1302.0</ele><time>2026-04-25T09:12:00.666Z</time></trkpt><trkpt lat="38.0708467" lon="15.8509333"><ele>1302.6</ele><time>2026-04-25T09:12:01.666Z</time></trkpt><trkpt lat="38.070885" lon="15.85105"><ele>1303.1999999999998</ele><time>2026-04-25T09:12:02.666Z</time></trkpt><trkpt lat="38.070925" lon="15.8511967"><ele>1303.8</ele><time>2026-04-25T09:12:03.666Z</time></trkpt><trkpt lat="38.070965" lon="15.8513383"><ele>1304.4</ele><time>2026-04-25T09:12:04.666Z</time></trkpt><trkpt lat="38.0710017" lon="15.8514633"><ele>1305.0</ele><time>2026-04-25T09:12:05.666Z</time></trkpt><trkpt lat="38.071045" lon="15.8515783"><ele>1305.0</ele><time>2026-04-25T09:12:06.666Z</time></trkpt><trkpt lat="38.0710767" lon="15.8516817"><ele>1305.0</ele><time>2026-04-25T09:12:07.667Z</time></trkpt><trkpt lat="38.07111" lon="15.85178"><ele>1305.0</ele><time>2026-04-25T09:12:08.666Z</time></trkpt><trkpt lat="38.0711467" lon="15.85188"><ele>1305.0</ele><time>2026-04-25T09:12:09.666Z</time></trkpt><trkpt lat="38.071195" lon="15.85199"><ele>1305.0</ele><time>2026-04-25T09:12:10.666Z</time></trkpt><trkpt lat="38.0712567" lon="15.8520933"><ele>1304.5</ele><time>2026-04-25T09:12:11.666Z</time></trkpt><trkpt lat="38.071325" lon="15.8521783"><ele>1304.0</ele><time>2026-04-25T09:12:12.666Z</time></trkpt><trkpt lat="38.0713867" lon="15.8522533"><ele>1303.5</ele><time>2026-04-25T09:12:13.667Z</time></trkpt><trkpt lat="38.0714517" lon="15.85232"><ele>1303.0</ele><time>2026-04-25T09:12:14.666Z</time></trkpt><trkpt lat="38.07151" lon="15.85237"><ele>1302.5</ele><time>2026-04-25T09:12:15.666Z</time></trkpt><trkpt lat="38.0716083" lon="15.852435"><ele>1302.0</ele><time>2026-04-25T09:12:17.666Z</time></trkpt><trkpt lat="38.0716867" lon="15.8525417"><ele>1300.8333333333333</ele><time>2026-04-25T09:12:19.666Z</time></trkpt><trkpt lat="38.0717267" lon="15.852615"><ele>1299.6666666666667</ele><time>2026-04-25T09:12:20.666Z</time></trkpt><trkpt lat="38.0717667" lon="15.852705"><ele>1298.5</ele><time>2026-04-25T09:12:21.667Z</time></trkpt><trkpt lat="38.0718117" lon="15.8527867"><ele>1297.3333333333335</ele><time>2026-04-25T09:12:22.666Z</time></trkpt><trkpt lat="38.0718633" lon="15.8528567"><ele>1296.1666666666667</ele><time>2026-04-25T09:12:23.666Z</time></trkpt><trkpt lat="38.0719317" lon="15.8529183"><ele>1295.0</ele><time>2026-04-25T09:12:24.667Z</time></trkpt><trkpt lat="38.0720183" lon="15.8529767"><ele>1295.0</ele><time>2026-04-25T09:12:25.666Z</time></trkpt><trkpt lat="38.0721133" lon="15.8530283"><ele>1295.0</ele><time>2026-04-25T09:12:26.666Z</time></trkpt><trkpt lat="38.072215" lon="15.8530633"><ele>1295.0</ele><time>2026-04-25T09:12:27.666Z</time></trkpt><trkpt lat="38.0723167" lon="15.8531017"><ele>1295.0</ele><time>2026-04-25T09:12:28.667Z</time></trkpt><trkpt lat="38.072415" lon="15.85314"><ele>1295.0</ele><time>2026-04-25T09:12:29.667Z</time></trkpt><trkpt lat="38.0725067" lon="15.8532"><ele>1294.6</ele><time>2026-04-25T09:12:30.667Z</time></trkpt><trkpt lat="38.072615" lon="15.8532617"><ele>1294.2</ele><time>2026-04-25T09:12:31.667Z</time></trkpt><trkpt lat="38.07271" lon="15.8533417"><ele>1293.8000000000002</ele><time>2026-04-25T09:12:32.667Z</time></trkpt><trkpt lat="38.0728" lon="15.8534233"><ele>1293.4</ele><time>2026-04-25T09:12:33.667Z</time></trkpt><trkpt lat="38.0728633" lon="15.8534933"><ele>1293.0</ele><time>2026-04-25T09:12:34.666Z</time></trkpt><trkpt lat="38.0729217" lon="15.8535567"><ele>1293.0</ele><time>2026-04-25T09:12:35.666Z</time></trkpt><trkpt lat="38.072975" lon="15.853625"><ele>1293.0</ele><time>2026-04-25T09:12:36.666Z</time></trkpt><trkpt lat="38.0730083" lon="15.85371"><ele>1293.0</ele><time>2026-04-25T09:12:37.667Z</time></trkpt><trkpt lat="38.0730233" lon="15.8537983"><ele>1293.0</ele><time>2026-04-25T09:12:38.666Z</time></trkpt><trkpt lat="38.07302" lon="15.8539"><ele>1293.0</ele><time>2026-04-25T09:12:39.666Z</time></trkpt><trkpt lat="38.0729933" lon="15.854015"><ele>1293.0</ele><time>2026-04-25T09:12:40.666Z</time></trkpt><trkpt lat="38.0729567" lon="15.854135"><ele>1293.0</ele><time>2026-04-25T09:12:41.666Z</time></trkpt><trkpt lat="38.072905" lon="15.8542467"><ele>1293.0</ele><time>2026-04-25T09:12:42.666Z</time></trkpt><trkpt lat="38.0728417" lon="15.85435"><ele>1293.0</ele><time>2026-04-25T09:12:43.667Z</time></trkpt><trkpt lat="38.0727833" lon="15.8544483"><ele>1293.0</ele><time>2026-04-25T09:12:44.667Z</time></trkpt><trkpt lat="38.07273" lon="15.854545"><ele>1293.0</ele><time>2026-04-25T09:12:45.666Z</time></trkpt><trkpt lat="38.0726833" lon="15.8546067"><ele>1292.6000000000001</ele><time>2026-04-25T09:12:46.666Z</time></trkpt><trkpt lat="38.072575" lon="15.8546883"><ele>1292.2</ele><time>2026-04-25T09:12:48.666Z</time></trkpt><trkpt lat="38.072515" lon="15.8547233"><ele>1291.8</ele><time>2026-04-25T09:12:49.667Z</time></trkpt><trkpt lat="38.07245" lon="15.85482"><ele>1291.4</ele><time>2026-04-25T09:12:51.666Z</time></trkpt><trkpt lat="38.0724667" lon="15.854945"><ele>1291.0</ele><time>2026-04-25T09:12:53.666Z</time></trkpt><trkpt lat="38.072495" lon="15.8550283"><ele>1291.0</ele><time>2026-04-25T09:12:54.667Z</time></trkpt><trkpt lat="38.0725233" lon="15.8551383"><ele>1291.0</ele><time>2026-04-25T09:12:55.667Z</time></trkpt><trkpt lat="38.0725533" lon="15.8552533"><ele>1291.0</ele><time>2026-04-25T09:12:56.666Z</time></trkpt><trkpt lat="38.0725683" lon="15.855385"><ele>1291.0</ele><time>2026-04-25T09:12:57.666Z</time></trkpt><trkpt lat="38.0725783" lon="15.855505"><ele>1291.0</ele><time>2026-04-25T09:12:58.668Z</time></trkpt><trkpt lat="38.0725933" lon="15.85562"><ele>1291.0</ele><time>2026-04-25T09:12:59.667Z</time></trkpt><trkpt lat="38.07263" lon="15.8557533"><ele>1291.0</ele><time>2026-04-25T09:13:01.667Z</time></trkpt><trkpt lat="38.0727117" lon="15.8557933"><ele>1291.0</ele><time>2026-04-25T09:13:03.667Z</time></trkpt><trkpt lat="38.0728217" lon="15.8557433"><ele>1291.0</ele><time>2026-04-25T09:13:05.667Z</time></trkpt><trkpt lat="38.0728867" lon="15.855725"><ele>1291.0</ele><time>2026-04-25T09:13:06.667Z</time></trkpt><trkpt lat="38.0729467" lon="15.8556983"><ele>1291.0</ele><time>2026-04-25T09:13:07.667Z</time></trkpt><trkpt lat="38.073005" lon="15.8556583"><ele>1291.0</ele><time>2026-04-25T09:13:08.668Z</time></trkpt><trkpt lat="38.0730933" lon="15.8555917"><ele>1291.0</ele><time>2026-04-25T09:13:10.667Z</time></trkpt><trkpt lat="38.0731667" lon="15.85556"><ele>1291.0</ele><time>2026-04-25T09:13:12.668Z</time></trkpt><trkpt lat="38.0731667" lon="15.8556717"><ele>1291.0</ele><time>2026-04-25T09:13:16.667Z</time></trkpt><trkpt lat="38.0731283" lon="15.8558067"><ele>1291.0</ele><time>2026-04-25T09:13:18.667Z</time></trkpt><trkpt lat="38.0731167" lon="15.8558917"><ele>1291.0</ele><time>2026-04-25T09:13:19.667Z</time></trkpt><trkpt lat="38.0731067" lon="15.8559833"><ele>1289.3333333333333</ele><time>2026-04-25T09:13:20.667Z</time></trkpt><trkpt lat="38.0731033" lon="15.8560733"><ele>1287.6666666666665</ele><time>2026-04-25T09:13:21.667Z</time></trkpt><trkpt lat="38.0731117" lon="15.856155"><ele>1286.0</ele><time>2026-04-25T09:13:22.668Z</time></trkpt><trkpt lat="38.07317" lon="15.85622"><ele>1284.3333333333333</ele><time>2026-04-25T09:13:24.667Z</time></trkpt><trkpt lat="38.0732517" lon="15.8561817"><ele>1282.6666666666667</ele><time>2026-04-25T09:13:26.667Z</time></trkpt><trkpt lat="38.073325" lon="15.8560783"><ele>1281.0</ele><time>2026-04-25T09:13:28.667Z</time></trkpt><trkpt lat="38.0733583" lon="15.8560067"><ele>1285.1666666666667</ele><time>2026-04-25T09:13:29.667Z</time></trkpt><trkpt lat="38.073375" lon="15.8559217"><ele>1289.3333333333333</ele><time>2026-04-25T09:13:30.668Z</time></trkpt><trkpt lat="38.0734133" lon="15.8558"><ele>1293.5</ele><time>2026-04-25T09:13:32.667Z</time></trkpt><trkpt lat="38.0734767" lon="15.8558117"><ele>1297.6666666666665</ele><time>2026-04-25T09:13:35.667Z</time></trkpt><trkpt lat="38.07349" lon="15.8559067"><ele>1301.8333333333333</ele><time>2026-04-25T09:13:37.668Z</time></trkpt><trkpt lat="38.0735083" lon="15.856045"><ele>1306.0</ele><time>2026-04-25T09:13:39.667Z</time></trkpt><trkpt lat="38.0735217" lon="15.8561267"><ele>1306.0</ele><time>2026-04-25T09:13:40.667Z</time></trkpt><trkpt lat="38.073535" lon="15.85622"><ele>1306.0</ele><time>2026-04-25T09:13:41.667Z</time></trkpt><trkpt lat="38.0735533" lon="15.8563183"><ele>1306.0</ele><time>2026-04-25T09:13:42.668Z</time></trkpt><trkpt lat="38.073595" lon="15.8563983"><ele>1306.0</ele><time>2026-04-25T09:13:43.667Z</time></trkpt><trkpt lat="38.0736467" lon="15.85646"><ele>1306.0</ele><time>2026-04-25T09:13:44.667Z</time></trkpt><trkpt lat="38.07372" lon="15.8565167"><ele>1306.0</ele><time>2026-04-25T09:13:45.667Z</time></trkpt><trkpt lat="38.0737933" lon="15.8565717"><ele>1306.0</ele><time>2026-04-25T09:13:46.667Z</time></trkpt><trkpt lat="38.073855" lon="15.8566167"><ele>1306.0</ele><time>2026-04-25T09:13:47.667Z</time></trkpt><trkpt lat="38.0739167" lon="15.856645"><ele>1306.0</ele><time>2026-04-25T09:13:48.668Z</time></trkpt><trkpt lat="38.0740233" lon="15.856625"><ele>1306.0</ele><time>2026-04-25T09:13:50.667Z</time></trkpt><trkpt lat="38.074085" lon="15.8565817"><ele>1306.0</ele><time>2026-04-25T09:13:51.668Z</time></trkpt><trkpt lat="38.07415" lon="15.85654"><ele>1306.0</ele><time>2026-04-25T09:13:52.667Z</time></trkpt><trkpt lat="38.07423" lon="15.8565233"><ele>1309.6666666666665</ele><time>2026-04-25T09:13:53.667Z</time></trkpt><trkpt lat="38.0743117" lon="15.8565183"><ele>1313.3333333333333</ele><time>2026-04-25T09:13:54.667Z</time></trkpt><trkpt lat="38.07439" lon="15.856525"><ele>1317.0</ele><time>2026-04-25T09:13:55.667Z</time></trkpt><trkpt lat="38.0744617" lon="15.8565567"><ele>1320.6666666666667</ele><time>2026-04-25T09:13:56.667Z</time></trkpt><trkpt lat="38.0745333" lon="15.8566017"><ele>1324.3333333333335</ele><time>2026-04-25T09:13:57.667Z</time></trkpt><trkpt lat="38.0745983" lon="15.85666"><ele>1328.0</ele><time>2026-04-25T09:13:58.667Z</time></trkpt><trkpt lat="38.0746617" lon="15.8567117"><ele>1328.0</ele><time>2026-04-25T09:13:59.667Z</time></trkpt><trkpt lat="38.0747333" lon="15.856745"><ele>1328.0</ele><time>2026-04-25T09:14:00.667Z</time></trkpt><trkpt lat="38.074805" lon="15.8567667"><ele>1328.0</ele><time>2026-04-25T09:14:01.668Z</time></trkpt><trkpt lat="38.074885" lon="15.8567817"><ele>1328.0</ele><time>2026-04-25T09:14:02.667Z</time></trkpt><trkpt lat="38.0749667" lon="15.8568017"><ele>1328.0</ele><time>2026-04-25T09:14:03.667Z</time></trkpt><trkpt lat="38.07505" lon="15.856805"><ele>1328.0</ele><time>2026-04-25T09:14:04.667Z</time></trkpt><trkpt lat="38.075135" lon="15.8567933"><ele>1329.25</ele><time>2026-04-25T09:14:05.667Z</time></trkpt><trkpt lat="38.07524" lon="15.856775"><ele>1330.5</ele><time>2026-04-25T09:14:06.667Z</time></trkpt><trkpt lat="38.0753483" lon="15.856755"><ele>1331.75</ele><time>2026-04-25T09:14:07.667Z</time></trkpt><trkpt lat="38.0754667" lon="15.8567367"><ele>1333.0</ele><time>2026-04-25T09:14:08.667Z</time></trkpt><trkpt lat="38.075585" lon="15.8567217"><ele>1333.0</ele><time>2026-04-25T09:14:09.668Z</time></trkpt><trkpt lat="38.0757033" lon="15.856705"><ele>1333.0</ele><time>2026-04-25T09:14:10.667Z</time></trkpt><trkpt lat="38.07581" lon="15.8566983"><ele>1333.0</ele><time>2026-04-25T09:14:11.667Z</time></trkpt><trkpt lat="38.0759033" lon="15.8566833"><ele>1333.0</ele><time>2026-04-25T09:14:12.667Z</time></trkpt><trkpt lat="38.0759867" lon="15.856625"><ele>1333.0</ele><time>2026-04-25T09:14:13.667Z</time></trkpt><trkpt lat="38.0760633" lon="15.8565433"><ele>1331.5</ele><time>2026-04-25T09:14:14.667Z</time></trkpt><trkpt lat="38.0761383" lon="15.8564633"><ele>1330.0</ele><time>2026-04-25T09:14:15.667Z</time></trkpt><trkpt lat="38.076205" lon="15.8564"><ele>1328.5</ele><time>2026-04-25T09:14:16.668Z</time></trkpt><trkpt lat="38.0762683" lon="15.8563583"><ele>1327.0</ele><time>2026-04-25T09:14:17.667Z</time></trkpt><trkpt lat="38.0763417" lon="15.85633"><ele>1325.5</ele><time>2026-04-25T09:14:18.667Z</time></trkpt><trkpt lat="38.07645" lon="15.85633"><ele>1324.0</ele><time>2026-04-25T09:14:19.667Z</time></trkpt><trkpt lat="38.0765567" lon="15.8563417"><ele>1324.0</ele><time>2026-04-25T09:14:20.668Z</time></trkpt><trkpt lat="38.076655" lon="15.8563483"><ele>1324.0</ele><time>2026-04-25T09:14:21.667Z</time></trkpt><trkpt lat="38.0767367" lon="15.8563567"><ele>1324.0</ele><time>2026-04-25T09:14:22.667Z</time></trkpt><trkpt lat="38.0768017" lon="15.8563617"><ele>1324.0</ele><time>2026-04-25T09:14:23.667Z</time></trkpt><trkpt lat="38.0769" lon="15.8563767"><ele>1324.0</ele><time>2026-04-25T09:14:25.668Z</time></trkpt><trkpt lat="38.0769517" lon="15.85647"><ele>1324.0</ele><time>2026-04-25T09:14:28.667Z</time></trkpt><trkpt lat="38.0769583" lon="15.8565967"><ele>1324.0</ele><time>2026-04-25T09:14:30.667Z</time></trkpt><trkpt lat="38.0770333" lon="15.85673"><ele>1324.0</ele><time>2026-04-25T09:14:32.667Z</time></trkpt><trkpt lat="38.0770833" lon="15.8567867"><ele>1324.0</ele><time>2026-04-25T09:14:33.668Z</time></trkpt><trkpt lat="38.0771683" lon="15.8568783"><ele>1324.0</ele><time>2026-04-25T09:14:35.667Z</time></trkpt><trkpt lat="38.0772367" lon="15.8569517"><ele>1324.0</ele><time>2026-04-25T09:14:37.667Z</time></trkpt><trkpt lat="38.07725" lon="15.8570367"><ele>1325.8000000000002</ele><time>2026-04-25T09:14:40.667Z</time></trkpt><trkpt lat="38.077165" lon="15.85706"><ele>1327.6000000000001</ele><time>2026-04-25T09:14:42.667Z</time></trkpt><trkpt lat="38.0770933" lon="15.8570717"><ele>1329.4</ele><time>2026-04-25T09:14:43.667Z</time></trkpt><trkpt lat="38.0770033" lon="15.85708"><ele>1331.2</ele><time>2026-04-25T09:14:44.668Z</time></trkpt><trkpt lat="38.0769" lon="15.8570967"><ele>1333.0</ele><time>2026-04-25T09:14:45.667Z</time></trkpt><trkpt lat="38.07675" lon="15.8571267"><ele>1333.0</ele><time>2026-04-25T09:14:46.667Z</time></trkpt><trkpt lat="38.0766633" lon="15.8571417"><ele>1333.0</ele><time>2026-04-25T09:14:47.667Z</time></trkpt><trkpt lat="38.0765883" lon="15.8571667"><ele>1333.0</ele><time>2026-04-25T09:14:48.668Z</time></trkpt><trkpt lat="38.0765283" lon="15.8572017"><ele>1333.0</ele><time>2026-04-25T09:14:49.667Z</time></trkpt><trkpt lat="38.07646" lon="15.8573017"><ele>1333.0</ele><time>2026-04-25T09:14:51.667Z</time></trkpt><trkpt lat="38.0764217" lon="15.8573667"><ele>1333.0</ele><time>2026-04-25T09:14:52.667Z</time></trkpt><trkpt lat="38.076385" lon="15.8574533"><ele>1330.6666666666665</ele><time>2026-04-25T09:14:53.667Z</time></trkpt><trkpt lat="38.0763383" lon="15.8575333"><ele>1328.3333333333333</ele><time>2026-04-25T09:14:54.668Z</time></trkpt><trkpt lat="38.0762883" lon="15.857605"><ele>1326.0</ele><time>2026-04-25T09:14:55.667Z</time></trkpt><trkpt lat="38.076245" lon="15.85768"><ele>1323.6666666666667</ele><time>2026-04-25T09:14:56.667Z</time></trkpt><trkpt lat="38.0762167" lon="15.857765"><ele>1321.3333333333335</ele><time>2026-04-25T09:14:57.667Z</time></trkpt><trkpt lat="38.0761817" lon="15.8578717"><ele>1319.0</ele><time>2026-04-25T09:14:58.667Z</time></trkpt><trkpt lat="38.076165" lon="15.8579717"><ele>1319.0</ele><time>2026-04-25T09:14:59.668Z</time></trkpt><trkpt lat="38.0761417" lon="15.8580917"><ele>1319.0</ele><time>2026-04-25T09:15:00.667Z</time></trkpt><trkpt lat="38.0761117" lon="15.8582033"><ele>1319.0</ele><time>2026-04-25T09:15:01.667Z</time></trkpt><trkpt lat="38.0760817" lon="15.8583033"><ele>1319.0</ele><time>2026-04-25T09:15:02.667Z</time></trkpt><trkpt lat="38.0760633" lon="15.8583967"><ele>1319.0</ele><time>2026-04-25T09:15:03.667Z</time></trkpt><trkpt lat="38.07605" lon="15.8584933"><ele>1319.0</ele><time>2026-04-25T09:15:04.667Z</time></trkpt><trkpt lat="38.0760317" lon="15.858605"><ele>1322.0</ele><time>2026-04-25T09:15:05.668Z</time></trkpt><trkpt lat="38.076015" lon="15.8587183"><ele>1325.0</ele><time>2026-04-25T09:15:06.668Z</time></trkpt><trkpt lat="38.0760067" lon="15.858855"><ele>1328.0</ele><time>2026-04-25T09:15:07.668Z</time></trkpt><trkpt lat="38.0759917" lon="15.859015"><ele>1331.0</ele><time>2026-04-25T09:15:08.667Z</time></trkpt><trkpt lat="38.0759783" lon="15.85918"><ele>1334.25</ele><time>2026-04-25T09:15:09.667Z</time></trkpt><trkpt lat="38.075945" lon="15.8593583"><ele>1337.5</ele><time>2026-04-25T09:15:10.667Z</time></trkpt><trkpt lat="38.0759267" lon="15.85952"><ele>1340.75</ele><time>2026-04-25T09:15:11.667Z</time></trkpt><trkpt lat="38.0759133" lon="15.8596633"><ele>1344.0</ele><time>2026-04-25T09:15:12.667Z</time></trkpt><trkpt lat="38.075905" lon="15.8597833"><ele>1344.0</ele><time>2026-04-25T09:15:13.668Z</time></trkpt><trkpt lat="38.0759133" lon="15.8598833"><ele>1344.0</ele><time>2026-04-25T09:15:14.667Z</time></trkpt><trkpt lat="38.07592" lon="15.8599667"><ele>1344.0</ele><time>2026-04-25T09:15:15.668Z</time></trkpt><trkpt lat="38.0759333" lon="15.860055"><ele>1344.0</ele><time>2026-04-25T09:15:16.667Z</time></trkpt><trkpt lat="38.0759583" lon="15.8601467"><ele>1344.0</ele><time>2026-04-25T09:15:17.667Z</time></trkpt><trkpt lat="38.07598" lon="15.8602283"><ele>1344.0</ele><time>2026-04-25T09:15:18.667Z</time></trkpt><trkpt lat="38.07598" lon="15.8603567"><ele>1344.5</ele><time>2026-04-25T09:15:20.667Z</time></trkpt><trkpt lat="38.075915" lon="15.8604"><ele>1345.0</ele><time>2026-04-25T09:15:22.667Z</time></trkpt><trkpt lat="38.0758183" lon="15.8603667"><ele>1345.5</ele><time>2026-04-25T09:15:24.667Z</time></trkpt><trkpt lat="38.0757533" lon="15.8603383"><ele>1346.0</ele><time>2026-04-25T09:15:25.667Z</time></trkpt><trkpt lat="38.0756683" lon="15.86031"><ele>1346.5</ele><time>2026-04-25T09:15:26.667Z</time></trkpt><trkpt lat="38.075575" lon="15.860285"><ele>1347.0</ele><time>2026-04-25T09:15:27.667Z</time></trkpt><trkpt lat="38.0754917" lon="15.8602417"><ele>1347.0</ele><time>2026-04-25T09:15:28.667Z</time></trkpt><trkpt lat="38.0754117" lon="15.8601867"><ele>1347.0</ele><time>2026-04-25T09:15:29.667Z</time></trkpt><trkpt lat="38.0753483" lon="15.8601283"><ele>1347.0</ele><time>2026-04-25T09:15:30.667Z</time></trkpt><trkpt lat="38.07529" lon="15.8600933"><ele>1347.0</ele><time>2026-04-25T09:15:31.667Z</time></trkpt><trkpt lat="38.0751833" lon="15.8601267"><ele>1347.0</ele><time>2026-04-25T09:15:33.667Z</time></trkpt><trkpt lat="38.0751283" lon="15.860195"><ele>1347.0</ele><time>2026-04-25T09:15:34.667Z</time></trkpt><trkpt lat="38.0750683" lon="15.8602917"><ele>1347.0</ele><time>2026-04-25T09:15:35.667Z</time></trkpt><trkpt lat="38.0750083" lon="15.8603933"><ele>1347.0</ele><time>2026-04-25T09:15:36.667Z</time></trkpt><trkpt lat="38.0749717" lon="15.8605083"><ele>1347.0</ele><time>2026-04-25T09:15:37.667Z</time></trkpt><trkpt lat="38.0749583" lon="15.860615"><ele>1347.0</ele><time>2026-04-25T09:15:38.667Z</time></trkpt><trkpt lat="38.0749583" lon="15.8607233"><ele>1347.0</ele><time>2026-04-25T09:15:39.667Z</time></trkpt><trkpt lat="38.0749833" lon="15.86084"><ele>1348.6</ele><time>2026-04-25T09:15:40.667Z</time></trkpt><trkpt lat="38.0750133" lon="15.8609633"><ele>1350.1999999999998</ele><time>2026-04-25T09:15:41.667Z</time></trkpt><trkpt lat="38.075035" lon="15.8610883"><ele>1351.8</ele><time>2026-04-25T09:15:42.667Z</time></trkpt><trkpt lat="38.0750333" lon="15.8612167"><ele>1353.4</ele><time>2026-04-25T09:15:43.667Z</time></trkpt><trkpt lat="38.0750167" lon="15.8613517"><ele>1355.0</ele><time>2026-04-25T09:15:44.667Z</time></trkpt><trkpt lat="38.0749833" lon="15.8614867"><ele>1355.0</ele><time>2026-04-25T09:15:45.667Z</time></trkpt><trkpt lat="38.0749467" lon="15.861625"><ele>1355.0</ele><time>2026-04-25T09:15:46.667Z</time></trkpt><trkpt lat="38.0749133" lon="15.8617417"><ele>1355.0</ele><time>2026-04-25T09:15:47.667Z</time></trkpt><trkpt lat="38.0748667" lon="15.8618333"><ele>1355.0</ele><time>2026-04-25T09:15:48.668Z</time></trkpt><trkpt lat="38.07482" lon="15.861895"><ele>1355.0</ele><time>2026-04-25T09:15:49.667Z</time></trkpt><trkpt lat="38.07472" lon="15.8619"><ele>1353.4</ele><time>2026-04-25T09:15:51.668Z</time></trkpt><trkpt lat="38.0746267" lon="15.8617783"><ele>1351.8</ele><time>2026-04-25T09:15:53.668Z</time></trkpt><trkpt lat="38.0745683" lon="15.8617067"><ele>1350.1999999999998</ele><time>2026-04-25T09:15:54.667Z</time></trkpt><trkpt lat="38.07449" lon="15.8616683"><ele>1348.6</ele><time>2026-04-25T09:15:55.668Z</time></trkpt><trkpt lat="38.074405" lon="15.8616467"><ele>1347.0</ele><time>2026-04-25T09:15:56.668Z</time></trkpt><trkpt lat="38.0743083" lon="15.8616317"><ele>1347.0</ele><time>2026-04-25T09:15:57.667Z</time></trkpt><trkpt lat="38.0742133" lon="15.861605"><ele>1347.0</ele><time>2026-04-25T09:15:58.667Z</time></trkpt><trkpt lat="38.0741383" lon="15.8616083"><ele>1347.0</ele><time>2026-04-25T09:15:59.667Z</time></trkpt><trkpt lat="38.074075" lon="15.8616383"><ele>1347.0</ele><time>2026-04-25T09:16:00.667Z</time></trkpt><trkpt lat="38.0740133" lon="15.8617"><ele>1347.0</ele><time>2026-04-25T09:16:01.667Z</time></trkpt><trkpt lat="38.073965" lon="15.8617833"><ele>1347.0</ele><time>2026-04-25T09:16:02.667Z</time></trkpt><trkpt lat="38.0739333" lon="15.8618767"><ele>1347.8</ele><time>2026-04-25T09:16:03.667Z</time></trkpt><trkpt lat="38.0739133" lon="15.8619983"><ele>1348.6</ele><time>2026-04-25T09:16:04.667Z</time></trkpt><trkpt lat="38.0739" lon="15.86213"><ele>1349.3999999999999</ele><time>2026-04-25T09:16:05.667Z</time></trkpt><trkpt lat="38.0738833" lon="15.8622417"><ele>1350.1999999999998</ele><time>2026-04-25T09:16:06.667Z</time></trkpt><trkpt lat="38.0738517" lon="15.8623317"><ele>1351.0</ele><time>2026-04-25T09:16:07.667Z</time></trkpt><trkpt lat="38.0737883" lon="15.8624083"><ele>1351.0</ele><time>2026-04-25T09:16:08.667Z</time></trkpt><trkpt lat="38.0737133" lon="15.8624567"><ele>1351.0</ele><time>2026-04-25T09:16:09.667Z</time></trkpt><trkpt lat="38.0736217" lon="15.8624867"><ele>1351.0</ele><time>2026-04-25T09:16:10.668Z</time></trkpt><trkpt lat="38.0735483" lon="15.8624933"><ele>1351.0</ele><time>2026-04-25T09:16:11.667Z</time></trkpt><trkpt lat="38.07348" lon="15.86252"><ele>1351.0</ele><time>2026-04-25T09:16:13.667Z</time></trkpt><trkpt lat="38.0735367" lon="15.8626117"><ele>1351.0</ele><time>2026-04-25T09:17:18.667Z</time></trkpt><trkpt lat="38.073525" lon="15.8627467"><ele>1351.5</ele><time>2026-04-25T09:17:20.667Z</time></trkpt><trkpt lat="38.0734917" lon="15.8628233"><ele>1352.0</ele><time>2026-04-25T09:17:21.667Z</time></trkpt><trkpt lat="38.073465" lon="15.8629033"><ele>1352.5</ele><time>2026-04-25T09:17:22.667Z</time></trkpt><trkpt lat="38.0734733" lon="15.862985"><ele>1353.0</ele><time>2026-04-25T09:17:23.667Z</time></trkpt><trkpt lat="38.0735783" lon="15.8630767"><ele>1353.5</ele><time>2026-04-25T09:17:25.667Z</time></trkpt><trkpt lat="38.073665" lon="15.8630633"><ele>1354.0</ele><time>2026-04-25T09:17:26.668Z</time></trkpt><trkpt lat="38.0737633" lon="15.862995"><ele>1354.0</ele><time>2026-04-25T09:17:27.667Z</time></trkpt><trkpt lat="38.0738667" lon="15.8628883"><ele>1354.0</ele><time>2026-04-25T09:17:28.667Z</time></trkpt><trkpt lat="38.073975" lon="15.8627733"><ele>1354.0</ele><time>2026-04-25T09:17:29.668Z</time></trkpt><trkpt lat="38.0740767" lon="15.8626883"><ele>1354.0</ele><time>2026-04-25T09:17:30.668Z</time></trkpt><trkpt lat="38.074165" lon="15.8626317"><ele>1356.5</ele><time>2026-04-25T09:17:31.667Z</time></trkpt><trkpt lat="38.0742417" lon="15.862615"><ele>1359.0</ele><time>2026-04-25T09:17:32.667Z</time></trkpt><trkpt lat="38.0743133" lon="15.86267"><ele>1361.5</ele><time>2026-04-25T09:17:34.667Z</time></trkpt><trkpt lat="38.0742283" lon="15.8627883"><ele>1364.0</ele><time>2026-04-25T09:17:36.668Z</time></trkpt><trkpt lat="38.074195" lon="15.8628617"><ele>1366.5</ele><time>2026-04-25T09:17:37.667Z</time></trkpt><trkpt lat="38.074265" lon="15.862925"><ele>1369.0</ele><time>2026-04-25T09:17:39.667Z</time></trkpt><trkpt lat="38.0743433" lon="15.8629033"><ele>1369.0</ele><time>2026-04-25T09:17:40.667Z</time></trkpt><trkpt lat="38.0744417" lon="15.8628417"><ele>1369.0</ele><time>2026-04-25T09:17:41.668Z</time></trkpt><trkpt lat="38.0745683" lon="15.8627667"><ele>1369.0</ele><time>2026-04-25T09:17:42.667Z</time></trkpt><trkpt lat="38.0747183" lon="15.8627233"><ele>1369.0</ele><time>2026-04-25T09:17:43.668Z</time></trkpt><trkpt lat="38.0748683" lon="15.8627267"><ele>1373.25</ele><time>2026-04-25T09:17:44.667Z</time></trkpt><trkpt lat="38.0750233" lon="15.8627417"><ele>1377.5</ele><time>2026-04-25T09:17:45.668Z</time></trkpt><trkpt lat="38.07516" lon="15.862755"><ele>1381.75</ele><time>2026-04-25T09:17:46.667Z</time></trkpt><trkpt lat="38.07526" lon="15.862735"><ele>1386.0</ele><time>2026-04-25T09:17:47.667Z</time></trkpt><trkpt lat="38.0753367" lon="15.862685"><ele>1382.6</ele><time>2026-04-25T09:17:48.667Z</time></trkpt><trkpt lat="38.0754" lon="15.862585"><ele>1379.1999999999998</ele><time>2026-04-25T09:17:49.668Z</time></trkpt><trkpt lat="38.07544" lon="15.8624583"><ele>1375.8000000000002</ele><time>2026-04-25T09:17:50.667Z</time></trkpt><trkpt lat="38.0754783" lon="15.862315"><ele>1372.4</ele><time>2026-04-25T09:17:51.667Z</time></trkpt><trkpt lat="38.0755433" lon="15.8621933"><ele>1369.0</ele><time>2026-04-25T09:17:52.667Z</time></trkpt><trkpt lat="38.075645" lon="15.86212"><ele>1369.0</ele><time>2026-04-25T09:17:53.667Z</time></trkpt><trkpt lat="38.0757633" lon="15.8620917"><ele>1369.0</ele><time>2026-04-25T09:17:54.667Z</time></trkpt><trkpt lat="38.0758983" lon="15.8621117"><ele>1369.0</ele><time>2026-04-25T09:17:55.667Z</time></trkpt><trkpt lat="38.0760533" lon="15.8621633"><ele>1369.0</ele><time>2026-04-25T09:17:56.667Z</time></trkpt><trkpt lat="38.0762267" lon="15.8622333"><ele>1373.25</ele><time>2026-04-25T09:17:57.667Z</time></trkpt><trkpt lat="38.0763783" lon="15.8623017"><ele>1377.5</ele><time>2026-04-25T09:17:58.667Z</time></trkpt><trkpt lat="38.0765067" lon="15.8623633"><ele>1381.75</ele><time>2026-04-25T09:17:59.667Z</time></trkpt><trkpt lat="38.0766117" lon="15.86242"><ele>1386.0</ele><time>2026-04-25T09:18:00.667Z</time></trkpt><trkpt lat="38.0766983" lon="15.8625017"><ele>1387.1666666666667</ele><time>2026-04-25T09:18:01.667Z</time></trkpt><trkpt lat="38.0767617" lon="15.8625783"><ele>1388.3333333333333</ele><time>2026-04-25T09:18:02.667Z</time></trkpt><trkpt lat="38.0768133" lon="15.8626317"><ele>1389.5</ele><time>2026-04-25T09:18:03.667Z</time></trkpt><trkpt lat="38.0769117" lon="15.8626517"><ele>1390.6666666666665</ele><time>2026-04-25T09:18:05.667Z</time></trkpt><trkpt lat="38.0769717" lon="15.8626033"><ele>1391.8333333333333</ele><time>2026-04-25T09:18:06.667Z</time></trkpt><trkpt lat="38.07704" lon="15.8625317"><ele>1393.0</ele><time>2026-04-25T09:18:07.667Z</time></trkpt><trkpt lat="38.077095" lon="15.8624783"><ele>1393.0</ele><time>2026-04-25T09:18:08.667Z</time></trkpt><trkpt lat="38.0771483" lon="15.86243"><ele>1393.0</ele><time>2026-04-25T09:18:10.667Z</time></trkpt><trkpt lat="38.0772433" lon="15.862395"><ele>1393.0</ele><time>2026-04-25T09:19:29.667Z</time></trkpt><trkpt lat="38.0773083" lon="15.862395"><ele>1393.0</ele><time>2026-04-25T09:19:30.667Z</time></trkpt><trkpt lat="38.0773717" lon="15.8624017"><ele>1393.0</ele><time>2026-04-25T09:19:31.667Z</time></trkpt><trkpt lat="38.0774833" lon="15.86234"><ele>1393.0</ele><time>2026-04-25T09:19:33.667Z</time></trkpt><trkpt lat="38.0775117" lon="15.8621833"><ele>1395.1666666666665</ele><time>2026-04-25T09:19:35.668Z</time></trkpt><trkpt lat="38.077515" lon="15.8620883"><ele>1397.3333333333333</ele><time>2026-04-25T09:19:36.668Z</time></trkpt><trkpt lat="38.0775233" lon="15.8619967"><ele>1399.5</ele><time>2026-04-25T09:19:37.668Z</time></trkpt><trkpt lat="38.0775383" lon="15.8619067"><ele>1401.6666666666667</ele><time>2026-04-25T09:19:38.668Z</time></trkpt><trkpt lat="38.0775583" lon="15.8618267"><ele>1403.8333333333335</ele><time>2026-04-25T09:19:39.667Z</time></trkpt><trkpt lat="38.077625" lon="15.86171"><ele>1406.0</ele><time>2026-04-25T09:19:41.667Z</time></trkpt><trkpt lat="38.0776867" lon="15.8616417"><ele>1406.0</ele><time>2026-04-25T09:19:42.667Z</time></trkpt><trkpt lat="38.07776" lon="15.8615683"><ele>1406.0</ele><time>2026-04-25T09:19:43.667Z</time></trkpt><trkpt lat="38.0778383" lon="15.8614867"><ele>1406.0</ele><time>2026-04-25T09:19:44.667Z</time></trkpt><trkpt lat="38.0779283" lon="15.8614067"><ele>1406.0</ele><time>2026-04-25T09:19:45.667Z</time></trkpt><trkpt lat="38.078025" lon="15.8613333"><ele>1406.0</ele><time>2026-04-25T09:19:46.667Z</time></trkpt><trkpt lat="38.0781117" lon="15.8612867"><ele>1406.0</ele><time>2026-04-25T09:19:47.667Z</time></trkpt><trkpt lat="38.0781867" lon="15.86127"><ele>1406.0</ele><time>2026-04-25T09:19:48.668Z</time></trkpt><trkpt lat="38.0782617" lon="15.8612567"><ele>1406.0</ele><time>2026-04-25T09:19:49.667Z</time></trkpt><trkpt lat="38.0783467" lon="15.861245"><ele>1406.0</ele><time>2026-04-25T09:19:50.667Z</time></trkpt><trkpt lat="38.0784483" lon="15.8612433"><ele>1406.0</ele><time>2026-04-25T09:19:51.667Z</time></trkpt><trkpt lat="38.0785617" lon="15.861245"><ele>1409.25</ele><time>2026-04-25T09:19:52.667Z</time></trkpt><trkpt lat="38.07869" lon="15.861245"><ele>1412.5</ele><time>2026-04-25T09:19:53.667Z</time></trkpt><trkpt lat="38.078815" lon="15.8612383"><ele>1415.75</ele><time>2026-04-25T09:19:54.668Z</time></trkpt><trkpt lat="38.0789267" lon="15.86124"><ele>1419.0</ele><time>2026-04-25T09:19:55.667Z</time></trkpt><trkpt lat="38.0790283" lon="15.8612667"><ele>1418.2</ele><time>2026-04-25T09:19:56.667Z</time></trkpt><trkpt lat="38.0791217" lon="15.8613017"><ele>1417.4</ele><time>2026-04-25T09:19:57.667Z</time></trkpt><trkpt lat="38.0792117" lon="15.8613367"><ele>1416.6</ele><time>2026-04-25T09:19:58.667Z</time></trkpt><trkpt lat="38.079295" lon="15.8613333"><ele>1415.8</ele><time>2026-04-25T09:19:59.667Z</time></trkpt><trkpt lat="38.079385" lon="15.8613217"><ele>1415.0</ele><time>2026-04-25T09:20:00.667Z</time></trkpt><trkpt lat="38.0794817" lon="15.8612683"><ele>1415.0</ele><time>2026-04-25T09:20:01.667Z</time></trkpt><trkpt lat="38.07958" lon="15.861205"><ele>1415.0</ele><time>2026-04-25T09:20:02.667Z</time></trkpt><trkpt lat="38.079665" lon="15.8611517"><ele>1415.0</ele><time>2026-04-25T09:20:03.668Z</time></trkpt><trkpt lat="38.0797467" lon="15.861125"><ele>1415.0</ele><time>2026-04-25T09:20:04.667Z</time></trkpt><trkpt lat="38.079825" lon="15.861135"><ele>1415.0</ele><time>2026-04-25T09:20:05.668Z</time></trkpt><trkpt lat="38.0799067" lon="15.8611567"><ele>1415.0</ele><time>2026-04-25T09:20:06.667Z</time></trkpt><trkpt lat="38.0799867" lon="15.8611683"><ele>1415.0</ele><time>2026-04-25T09:20:07.667Z</time></trkpt><trkpt lat="38.0800683" lon="15.8611433"><ele>1415.0</ele><time>2026-04-25T09:20:08.667Z</time></trkpt><trkpt lat="38.0801533" lon="15.8611"><ele>1415.0</ele><time>2026-04-25T09:20:09.667Z</time></trkpt><trkpt lat="38.0802383" lon="15.8610533"><ele>1415.0</ele><time>2026-04-25T09:20:10.668Z</time></trkpt><trkpt lat="38.0803183" lon="15.8610267"><ele>1415.0</ele><time>2026-04-25T09:20:11.667Z</time></trkpt><trkpt lat="38.0804017" lon="15.8610433"><ele>1415.0</ele><time>2026-04-25T09:20:12.667Z</time></trkpt><trkpt lat="38.0804933" lon="15.8610833"><ele>1415.0</ele><time>2026-04-25T09:20:13.667Z</time></trkpt><trkpt lat="38.0806" lon="15.8611517"><ele>1415.0</ele><time>2026-04-25T09:20:14.667Z</time></trkpt><trkpt lat="38.0807083" lon="15.861215"><ele>1415.0</ele><time>2026-04-25T09:20:15.668Z</time></trkpt><trkpt lat="38.0808217" lon="15.861245"><ele>1412.4</ele><time>2026-04-25T09:20:16.667Z</time></trkpt><trkpt lat="38.0809283" lon="15.8612417"><ele>1409.8</ele><time>2026-04-25T09:20:17.667Z</time></trkpt><trkpt lat="38.0810233" lon="15.8612217"><ele>1407.1999999999998</ele><time>2026-04-25T09:20:18.667Z</time></trkpt><trkpt lat="38.0811333" lon="15.8611933"><ele>1404.6</ele><time>2026-04-25T09:20:19.667Z</time></trkpt><trkpt lat="38.08123" lon="15.8611617"><ele>1402.0</ele><time>2026-04-25T09:20:20.667Z</time></trkpt><trkpt lat="38.0813167" lon="15.8611233"><ele>1402.0</ele><time>2026-04-25T09:20:21.667Z</time></trkpt><trkpt lat="38.081395" lon="15.8610767"><ele>1402.0</ele><time>2026-04-25T09:20:22.667Z</time></trkpt><trkpt lat="38.081465" lon="15.86102"><ele>1402.0</ele><time>2026-04-25T09:20:23.667Z</time></trkpt><trkpt lat="38.081535" lon="15.8609533"><ele>1402.0</ele><time>2026-04-25T09:20:24.667Z</time></trkpt><trkpt lat="38.0816017" lon="15.8608833"><ele>1402.0</ele><time>2026-04-25T09:20:25.668Z</time></trkpt><trkpt lat="38.08167" lon="15.8608217"><ele>1402.0</ele><time>2026-04-25T09:20:26.667Z</time></trkpt><trkpt lat="38.08176" lon="15.8607617"><ele>1402.0</ele><time>2026-04-25T09:20:27.667Z</time></trkpt><trkpt lat="38.0818667" lon="15.8606917"><ele>1402.0</ele><time>2026-04-25T09:20:28.667Z</time></trkpt><trkpt lat="38.08197" lon="15.8606383"><ele>1402.0</ele><time>2026-04-25T09:20:29.667Z</time></trkpt><trkpt lat="38.08207" lon="15.8605833"><ele>1402.0</ele><time>2026-04-25T09:20:30.668Z</time></trkpt><trkpt lat="38.082165" lon="15.8605417"><ele>1402.0</ele><time>2026-04-25T09:20:31.668Z</time></trkpt><trkpt lat="38.08226" lon="15.8604867"><ele>1402.0</ele><time>2026-04-25T09:20:32.667Z</time></trkpt><trkpt lat="38.0823567" lon="15.8604233"><ele>1402.0</ele><time>2026-04-25T09:20:33.668Z</time></trkpt><trkpt lat="38.08246" lon="15.8603633"><ele>1402.0</ele><time>2026-04-25T09:20:34.667Z</time></trkpt><trkpt lat="38.082585" lon="15.8602983"><ele>1402.0</ele><time>2026-04-25T09:20:35.667Z</time></trkpt><trkpt lat="38.0827233" lon="15.8602267"><ele>1401.3333333333333</ele><time>2026-04-25T09:20:36.667Z</time></trkpt><trkpt lat="38.0828717" lon="15.8601533"><ele>1400.6666666666667</ele><time>2026-04-25T09:20:37.667Z</time></trkpt><trkpt lat="38.0830283" lon="15.8600717"><ele>1400.0</ele><time>2026-04-25T09:20:38.667Z</time></trkpt><trkpt lat="38.0831733" lon="15.8599967"><ele>1403.6</ele><time>2026-04-25T09:20:39.667Z</time></trkpt><trkpt lat="38.0832933" lon="15.8599283"><ele>1407.2</ele><time>2026-04-25T09:20:40.667Z</time></trkpt><trkpt lat="38.083385" lon="15.8598917"><ele>1410.8000000000002</ele><time>2026-04-25T09:20:41.667Z</time></trkpt><trkpt lat="38.083465" lon="15.859885"><ele>1414.4</ele><time>2026-04-25T09:20:42.667Z</time></trkpt><trkpt lat="38.0835267" lon="15.8599083"><ele>1418.0</ele><time>2026-04-25T09:20:43.668Z</time></trkpt><trkpt lat="38.083605" lon="15.8599683"><ele>1418.0</ele><time>2026-04-25T09:20:44.667Z</time></trkpt><trkpt lat="38.0836983" lon="15.8600533"><ele>1418.0</ele><time>2026-04-25T09:20:45.667Z</time></trkpt><trkpt lat="38.0837917" lon="15.8601283"><ele>1418.0</ele><time>2026-04-25T09:20:46.667Z</time></trkpt><trkpt lat="38.0838733" lon="15.8601867"><ele>1418.0</ele><time>2026-04-25T09:20:47.668Z</time></trkpt><trkpt lat="38.0839533" lon="15.860215"><ele>1418.0</ele><time>2026-04-25T09:20:48.667Z</time></trkpt><trkpt lat="38.0840433" lon="15.8602167"><ele>1418.0</ele><time>2026-04-25T09:20:49.667Z</time></trkpt><trkpt lat="38.08414" lon="15.8601867"><ele>1418.0</ele><time>2026-04-25T09:20:50.667Z</time></trkpt><trkpt lat="38.0842433" lon="15.86011"><ele>1418.0</ele><time>2026-04-25T09:20:51.667Z</time></trkpt><trkpt lat="38.0843683" lon="15.8599933"><ele>1418.0</ele><time>2026-04-25T09:20:52.667Z</time></trkpt><trkpt lat="38.0844683" lon="15.8598867"><ele>1418.0</ele><time>2026-04-25T09:20:53.667Z</time></trkpt><trkpt lat="38.0845533" lon="15.8598067"><ele>1418.0</ele><time>2026-04-25T09:20:54.667Z</time></trkpt><trkpt lat="38.0846367" lon="15.859765"><ele>1418.0</ele><time>2026-04-25T09:20:55.667Z</time></trkpt><trkpt lat="38.08471" lon="15.8597683"><ele>1418.0</ele><time>2026-04-25T09:20:56.667Z</time></trkpt><trkpt lat="38.08477" lon="15.8598"><ele>1418.0</ele><time>2026-04-25T09:20:57.667Z</time></trkpt><trkpt lat="38.0848233" lon="15.85988"><ele>1418.0</ele><time>2026-04-25T09:20:58.667Z</time></trkpt><trkpt lat="38.0848767" lon="15.8599917"><ele>1417.3333333333335</ele><time>2026-04-25T09:20:59.668Z</time></trkpt><trkpt lat="38.08497" lon="15.8601167"><ele>1416.6666666666667</ele><time>2026-04-25T09:21:00.667Z</time></trkpt><trkpt lat="38.0850933" lon="15.8602567"><ele>1416.0</ele><time>2026-04-25T09:21:01.667Z</time></trkpt><trkpt lat="38.0852233" lon="15.8604017"><ele>1416.0</ele><time>2026-04-25T09:21:02.667Z</time></trkpt><trkpt lat="38.0853267" lon="15.8605333"><ele>1416.0</ele><time>2026-04-25T09:21:03.667Z</time></trkpt><trkpt lat="38.0854067" lon="15.8606617"><ele>1416.0</ele><time>2026-04-25T09:21:04.667Z</time></trkpt><trkpt lat="38.0854717" lon="15.8608083"><ele>1416.0</ele><time>2026-04-25T09:21:05.667Z</time></trkpt><trkpt lat="38.0855167" lon="15.860975"><ele>1414.3333333333333</ele><time>2026-04-25T09:21:06.667Z</time></trkpt><trkpt lat="38.0855533" lon="15.861175"><ele>1412.6666666666665</ele><time>2026-04-25T09:21:07.668Z</time></trkpt><trkpt lat="38.085575" lon="15.8613833"><ele>1411.0</ele><time>2026-04-25T09:21:08.667Z</time></trkpt><trkpt lat="38.0856033" lon="15.8615517"><ele>1411.0</ele><time>2026-04-25T09:21:09.667Z</time></trkpt><trkpt lat="38.0856433" lon="15.86172"><ele>1411.0</ele><time>2026-04-25T09:21:10.668Z</time></trkpt><trkpt lat="38.0857133" lon="15.861885"><ele>1411.0</ele><time>2026-04-25T09:21:11.667Z</time></trkpt><trkpt lat="38.0858083" lon="15.8620533"><ele>1411.0</ele><time>2026-04-25T09:21:12.667Z</time></trkpt><trkpt lat="38.08594" lon="15.8622083"><ele>1411.3333333333333</ele><time>2026-04-25T09:21:13.667Z</time></trkpt><trkpt lat="38.0860733" lon="15.86236"><ele>1411.6666666666667</ele><time>2026-04-25T09:21:14.667Z</time></trkpt><trkpt lat="38.0862383" lon="15.86248"><ele>1412.0</ele><time>2026-04-25T09:21:15.668Z</time></trkpt><trkpt lat="38.0863933" lon="15.8626083"><ele>1411.0</ele><time>2026-04-25T09:21:16.667Z</time></trkpt><trkpt lat="38.0865617" lon="15.8627167"><ele>1410.0</ele><time>2026-04-25T09:21:17.668Z</time></trkpt><trkpt lat="38.08672" lon="15.8628117"><ele>1409.0</ele><time>2026-04-25T09:21:18.668Z</time></trkpt><trkpt lat="38.08688" lon="15.8628833"><ele>1409.0</ele><time>2026-04-25T09:21:19.667Z</time></trkpt><trkpt lat="38.0870233" lon="15.8629733"><ele>1409.0</ele><time>2026-04-25T09:21:20.667Z</time></trkpt><trkpt lat="38.0871583" lon="15.8630533"><ele>1409.0</ele><time>2026-04-25T09:21:21.667Z</time></trkpt><trkpt lat="38.0872783" lon="15.8631583"><ele>1409.0</ele><time>2026-04-25T09:21:22.667Z</time></trkpt><trkpt lat="38.087415" lon="15.863275"><ele>1409.0</ele><time>2026-04-25T09:21:23.667Z</time></trkpt><trkpt lat="38.0875267" lon="15.8634"><ele>1409.0</ele><time>2026-04-25T09:21:24.667Z</time></trkpt><trkpt lat="38.087625" lon="15.863535"><ele>1406.75</ele><time>2026-04-25T09:21:25.667Z</time></trkpt><trkpt lat="38.0877183" lon="15.8636817"><ele>1404.5</ele><time>2026-04-25T09:21:26.667Z</time></trkpt><trkpt lat="38.0877933" lon="15.863835"><ele>1402.25</ele><time>2026-04-25T09:21:27.667Z</time></trkpt><trkpt lat="38.0878633" lon="15.8639817"><ele>1400.0</ele><time>2026-04-25T09:21:28.667Z</time></trkpt><trkpt lat="38.0879183" lon="15.8641217"><ele>1400.0</ele><time>2026-04-25T09:21:29.667Z</time></trkpt><trkpt lat="38.08795" lon="15.86425"><ele>1400.0</ele><time>2026-04-25T09:21:30.667Z</time></trkpt><trkpt lat="38.0879433" lon="15.864375"><ele>1400.0</ele><time>2026-04-25T09:21:31.667Z</time></trkpt><trkpt lat="38.0879067" lon="15.8644867"><ele>1400.0</ele><time>2026-04-25T09:21:32.667Z</time></trkpt><trkpt lat="38.0878517" lon="15.864605"><ele>1400.0</ele><time>2026-04-25T09:21:33.667Z</time></trkpt><trkpt lat="38.0877967" lon="15.8647467"><ele>1398.25</ele><time>2026-04-25T09:21:34.667Z</time></trkpt><trkpt lat="38.08775" lon="15.8649167"><ele>1396.5</ele><time>2026-04-25T09:21:35.668Z</time></trkpt><trkpt lat="38.0877083" lon="15.8651167"><ele>1394.75</ele><time>2026-04-25T09:21:36.667Z</time></trkpt><trkpt lat="38.0876917" lon="15.8652917"><ele>1393.0</ele><time>2026-04-25T09:21:37.667Z</time></trkpt><trkpt lat="38.087695" lon="15.8654533"><ele>1391.75</ele><time>2026-04-25T09:21:38.668Z</time></trkpt><trkpt lat="38.0877067" lon="15.865615"><ele>1390.5</ele><time>2026-04-25T09:21:39.668Z</time></trkpt><trkpt lat="38.0877433" lon="15.86578"><ele>1389.25</ele><time>2026-04-25T09:21:40.668Z</time></trkpt><trkpt lat="38.0878033" lon="15.8659433"><ele>1388.0</ele><time>2026-04-25T09:21:41.667Z</time></trkpt><trkpt lat="38.0878733" lon="15.8660733"><ele>1388.0</ele><time>2026-04-25T09:21:42.667Z</time></trkpt><trkpt lat="38.0879067" lon="15.8662"><ele>1388.0</ele><time>2026-04-25T09:21:43.667Z</time></trkpt><trkpt lat="38.0879083" lon="15.8663267"><ele>1388.0</ele><time>2026-04-25T09:21:44.667Z</time></trkpt><trkpt lat="38.0879067" lon="15.866465"><ele>1388.0</ele><time>2026-04-25T09:21:45.667Z</time></trkpt><trkpt lat="38.0879033" lon="15.8665983"><ele>1388.0</ele><time>2026-04-25T09:21:46.667Z</time></trkpt><trkpt lat="38.08791" lon="15.866705"><ele>1388.0</ele><time>2026-04-25T09:21:47.667Z</time></trkpt><trkpt lat="38.08794" lon="15.8667833"><ele>1388.0</ele><time>2026-04-25T09:21:48.667Z</time></trkpt><trkpt lat="38.0879967" lon="15.8668483"><ele>1388.0</ele><time>2026-04-25T09:21:49.667Z</time></trkpt><trkpt lat="38.0880733" lon="15.8669183"><ele>1388.0</ele><time>2026-04-25T09:21:50.668Z</time></trkpt><trkpt lat="38.0881567" lon="15.8669783"><ele>1388.0</ele><time>2026-04-25T09:21:51.668Z</time></trkpt><trkpt lat="38.0882517" lon="15.8670333"><ele>1388.0</ele><time>2026-04-25T09:21:52.667Z</time></trkpt><trkpt lat="38.0883583" lon="15.8670767"><ele>1388.0</ele><time>2026-04-25T09:21:53.667Z</time></trkpt><trkpt lat="38.0884767" lon="15.8671067"><ele>1388.0</ele><time>2026-04-25T09:21:54.667Z</time></trkpt><trkpt lat="38.0885883" lon="15.867135"><ele>1388.0</ele><time>2026-04-25T09:21:55.667Z</time></trkpt><trkpt lat="38.0887083" lon="15.86718"><ele>1388.0</ele><time>2026-04-25T09:21:56.668Z</time></trkpt><trkpt lat="38.0888183" lon="15.867235"><ele>1388.0</ele><time>2026-04-25T09:21:57.667Z</time></trkpt><trkpt lat="38.088915" lon="15.8673033"><ele>1388.0</ele><time>2026-04-25T09:21:58.668Z</time></trkpt><trkpt lat="38.0890183" lon="15.8673867"><ele>1388.0</ele><time>2026-04-25T09:21:59.667Z</time></trkpt><trkpt lat="38.0891217" lon="15.8674767"><ele>1388.0</ele><time>2026-04-25T09:22:00.667Z</time></trkpt><trkpt lat="38.08923" lon="15.8675617"><ele>1386.5</ele><time>2026-04-25T09:22:01.667Z</time></trkpt><trkpt lat="38.0893267" lon="15.8676517"><ele>1385.0</ele><time>2026-04-25T09:22:02.667Z</time></trkpt><trkpt lat="38.0894267" lon="15.867735"><ele>1383.5</ele><time>2026-04-25T09:22:03.667Z</time></trkpt><trkpt lat="38.0895367" lon="15.867845"><ele>1382.0</ele><time>2026-04-25T09:22:04.667Z</time></trkpt><trkpt lat="38.0896367" lon="15.8679317"><ele>1382.0</ele><time>2026-04-25T09:22:05.667Z</time></trkpt><trkpt lat="38.0897317" lon="15.8680133"><ele>1382.0</ele><time>2026-04-25T09:22:06.667Z</time></trkpt><trkpt lat="38.0898317" lon="15.8681183"><ele>1382.0</ele><time>2026-04-25T09:22:07.667Z</time></trkpt><trkpt lat="38.08993" lon="15.8681883"><ele>1382.0</ele><time>2026-04-25T09:22:08.667Z</time></trkpt><trkpt lat="38.09" lon="15.8682483"><ele>1382.0</ele><time>2026-04-25T09:22:09.667Z</time></trkpt><trkpt lat="38.0900617" lon="15.8682883"><ele>1382.0</ele><time>2026-04-25T09:22:10.668Z</time></trkpt><trkpt lat="38.08999" lon="15.8682217"><ele>1382.0</ele><time>2026-04-25T09:22:29.667Z</time></trkpt><trkpt lat="38.0899067" lon="15.8681267"><ele>1382.0</ele><time>2026-04-25T09:22:31.667Z</time></trkpt><trkpt lat="38.0898467" lon="15.868035"><ele>1382.0</ele><time>2026-04-25T09:22:33.667Z</time></trkpt><trkpt lat="38.0898533" lon="15.8679517"><ele>1382.0</ele><time>2026-04-25T09:22:36.667Z</time></trkpt><trkpt lat="38.08992" lon="15.8679217"><ele>1382.0</ele><time>2026-04-25T09:22:39.667Z</time></trkpt><trkpt lat="38.0899883" lon="15.86792"><ele>1383.8333333333335</ele><time>2026-04-25T09:22:41.668Z</time></trkpt><trkpt lat="38.0900783" lon="15.86794"><ele>1385.6666666666667</ele><time>2026-04-25T09:22:43.667Z</time></trkpt><trkpt lat="38.09019" lon="15.8679483"><ele>1387.5</ele><time>2026-04-25T09:22:45.668Z</time></trkpt><trkpt lat="38.0902517" lon="15.8679317"><ele>1389.3333333333333</ele><time>2026-04-25T09:22:46.667Z</time></trkpt><trkpt lat="38.0903233" lon="15.86791"><ele>1391.1666666666665</ele><time>2026-04-25T09:22:47.667Z</time></trkpt><trkpt lat="38.090395" lon="15.8678983"><ele>1393.0</ele><time>2026-04-25T09:22:48.668Z</time></trkpt><trkpt lat="38.0904617" lon="15.8678917"><ele>1393.0</ele><time>2026-04-25T09:22:49.667Z</time></trkpt><trkpt lat="38.090575" lon="15.86788"><ele>1393.0</ele><time>2026-04-25T09:22:51.668Z</time></trkpt><trkpt lat="38.0906717" lon="15.8678767"><ele>1393.0</ele><time>2026-04-25T09:22:53.668Z</time></trkpt><trkpt lat="38.0907667" lon="15.8678467"><ele>1393.0</ele><time>2026-04-25T09:22:55.668Z</time></trkpt><trkpt lat="38.0908533" lon="15.8677717"><ele>1393.0</ele><time>2026-04-25T09:22:57.667Z</time></trkpt><trkpt lat="38.0909083" lon="15.8676617"><ele>1394.8000000000002</ele><time>2026-04-25T09:22:59.667Z</time></trkpt><trkpt lat="38.0909517" lon="15.8675567"><ele>1396.6</ele><time>2026-04-25T09:23:01.667Z</time></trkpt><trkpt lat="38.0909883" lon="15.8674383"><ele>1398.4</ele><time>2026-04-25T09:23:03.667Z</time></trkpt><trkpt lat="38.0910683" lon="15.8673033"><ele>1400.1999999999998</ele><time>2026-04-25T09:23:05.668Z</time></trkpt><trkpt lat="38.091115" lon="15.867235"><ele>1402.0</ele><time>2026-04-25T09:23:06.667Z</time></trkpt><trkpt lat="38.0911633" lon="15.867175"><ele>1402.0</ele><time>2026-04-25T09:23:07.667Z</time></trkpt><trkpt lat="38.0912383" lon="15.867065"><ele>1402.0</ele><time>2026-04-25T09:23:09.668Z</time></trkpt><trkpt lat="38.091315" lon="15.8669433"><ele>1402.0</ele><time>2026-04-25T09:23:11.667Z</time></trkpt><trkpt lat="38.0913667" lon="15.8668883"><ele>1402.0</ele><time>2026-04-25T09:23:12.667Z</time></trkpt><trkpt lat="38.091435" lon="15.86685"><ele>1402.0</ele><time>2026-04-25T09:23:13.668Z</time></trkpt><trkpt lat="38.0915583" lon="15.86686"><ele>1404.6</ele><time>2026-04-25T09:23:15.667Z</time></trkpt><trkpt lat="38.0916617" lon="15.8668617"><ele>1407.1999999999998</ele><time>2026-04-25T09:23:17.668Z</time></trkpt><trkpt lat="38.0917383" lon="15.8668333"><ele>1409.8</ele><time>2026-04-25T09:23:21.667Z</time></trkpt><trkpt lat="38.0917783" lon="15.86675"><ele>1412.4</ele><time>2026-04-25T09:23:24.667Z</time></trkpt><trkpt lat="38.091775" lon="15.86664"><ele>1415.0</ele><time>2026-04-25T09:23:26.667Z</time></trkpt><trkpt lat="38.091775" lon="15.8664983"><ele>1415.0</ele><time>2026-04-25T09:23:28.668Z</time></trkpt><trkpt lat="38.091815" lon="15.8663783"><ele>1415.0</ele><time>2026-04-25T09:23:30.667Z</time></trkpt><trkpt lat="38.09185" lon="15.8663067"><ele>1415.0</ele><time>2026-04-25T09:23:31.667Z</time></trkpt><trkpt lat="38.091895" lon="15.8662067"><ele>1415.0</ele><time>2026-04-25T09:23:33.667Z</time></trkpt><trkpt lat="38.0919" lon="15.86609"><ele>1415.0</ele><time>2026-04-25T09:23:36.668Z</time></trkpt><trkpt lat="38.0918583" lon="15.865995"><ele>1415.0</ele><time>2026-04-25T09:23:38.667Z</time></trkpt><trkpt lat="38.0917833" lon="15.8658717"><ele>1414.1666666666667</ele><time>2026-04-25T09:23:40.667Z</time></trkpt><trkpt lat="38.0917467" lon="15.8657983"><ele>1413.3333333333335</ele><time>2026-04-25T09:23:41.667Z</time></trkpt><trkpt lat="38.091705" lon="15.8657083"><ele>1412.5</ele><time>2026-04-25T09:23:42.667Z</time></trkpt><trkpt lat="38.091685" lon="15.8655617"><ele>1411.6666666666667</ele><time>2026-04-25T09:23:44.667Z</time></trkpt><trkpt lat="38.0916883" lon="15.8654783"><ele>1410.8333333333333</ele><time>2026-04-25T09:23:45.668Z</time></trkpt><trkpt lat="38.0916833" lon="15.865375"><ele>1410.0</ele><time>2026-04-25T09:23:46.668Z</time></trkpt><trkpt lat="38.09168" lon="15.86528"><ele>1410.0</ele><time>2026-04-25T09:23:47.667Z</time></trkpt><trkpt lat="38.091695" lon="15.8651867"><ele>1410.0</ele><time>2026-04-25T09:23:48.667Z</time></trkpt><trkpt lat="38.0917267" lon="15.8650933"><ele>1410.0</ele><time>2026-04-25T09:23:49.667Z</time></trkpt><trkpt lat="38.091755" lon="15.8650133"><ele>1410.0</ele><time>2026-04-25T09:23:50.667Z</time></trkpt><trkpt lat="38.091805" lon="15.864935"><ele>1410.0</ele><time>2026-04-25T09:23:51.667Z</time></trkpt><trkpt lat="38.0918683" lon="15.8648783"><ele>1410.0</ele><time>2026-04-25T09:23:52.667Z</time></trkpt><trkpt lat="38.091925" lon="15.8648133"><ele>1408.8</ele><time>2026-04-25T09:23:53.668Z</time></trkpt><trkpt lat="38.092005" lon="15.8647183"><ele>1407.6</ele><time>2026-04-25T09:23:55.667Z</time></trkpt><trkpt lat="38.0920083" lon="15.86457"><ele>1406.4</ele><time>2026-04-25T09:23:57.668Z</time></trkpt><trkpt lat="38.09198" lon="15.86449"><ele>1405.2</ele><time>2026-04-25T09:23:58.667Z</time></trkpt><trkpt lat="38.091955" lon="15.8643533"><ele>1404.0</ele><time>2026-04-25T09:24:00.667Z</time></trkpt><trkpt lat="38.091965" lon="15.8642267"><ele>1401.6666666666667</ele><time>2026-04-25T09:24:02.667Z</time></trkpt><trkpt lat="38.0919017" lon="15.86414"><ele>1399.3333333333333</ele><time>2026-04-25T09:24:04.667Z</time></trkpt><trkpt lat="38.0918433" lon="15.8640417"><ele>1397.0</ele><time>2026-04-25T09:24:06.668Z</time></trkpt><trkpt lat="38.0918567" lon="15.8639167"><ele>1394.6666666666665</ele><time>2026-04-25T09:24:08.668Z</time></trkpt><trkpt lat="38.0918917" lon="15.86383"><ele>1392.3333333333333</ele><time>2026-04-25T09:24:09.668Z</time></trkpt><trkpt lat="38.0919367" lon="15.8637433"><ele>1390.0</ele><time>2026-04-25T09:24:10.668Z</time></trkpt><trkpt lat="38.09199" lon="15.8636733"><ele>1390.0</ele><time>2026-04-25T09:24:11.668Z</time></trkpt><trkpt lat="38.0920483" lon="15.8636283"><ele>1390.0</ele><time>2026-04-25T09:24:12.668Z</time></trkpt><trkpt lat="38.0921917" lon="15.86358"><ele>1390.0</ele><time>2026-04-25T09:24:14.667Z</time></trkpt><trkpt lat="38.0922767" lon="15.8635533"><ele>1390.0</ele><time>2026-04-25T09:24:15.668Z</time></trkpt><trkpt lat="38.09235" lon="15.8635417"><ele>1390.0</ele><time>2026-04-25T09:24:16.667Z</time></trkpt><trkpt lat="38.09246" lon="15.8635567"><ele>1389.6</ele><time>2026-04-25T09:24:18.667Z</time></trkpt><trkpt lat="38.0925233" lon="15.8635817"><ele>1389.2</ele><time>2026-04-25T09:24:19.667Z</time></trkpt><trkpt lat="38.0926467" lon="15.863615"><ele>1388.8000000000002</ele><time>2026-04-25T09:24:21.668Z</time></trkpt><trkpt lat="38.0927433" lon="15.8635867"><ele>1388.4</ele><time>2026-04-25T09:24:23.667Z</time></trkpt><trkpt lat="38.0928233" lon="15.8634967"><ele>1388.0</ele><time>2026-04-25T09:24:25.668Z</time></trkpt><trkpt lat="38.092925" lon="15.8634217"><ele>1388.0</ele><time>2026-04-25T09:24:27.667Z</time></trkpt><trkpt lat="38.0930367" lon="15.8633817"><ele>1388.0</ele><time>2026-04-25T09:24:29.667Z</time></trkpt><trkpt lat="38.093145" lon="15.86343"><ele>1388.0</ele><time>2026-04-25T09:24:31.667Z</time></trkpt><trkpt lat="38.0932083" lon="15.86348"><ele>1388.0</ele><time>2026-04-25T09:24:32.667Z</time></trkpt><trkpt lat="38.0932783" lon="15.8635383"><ele>1388.0</ele><time>2026-04-25T09:24:33.667Z</time></trkpt><trkpt lat="38.0933317" lon="15.8635933"><ele>1392.6000000000001</ele><time>2026-04-25T09:24:34.667Z</time></trkpt><trkpt lat="38.0934167" lon="15.8636967"><ele>1397.2</ele><time>2026-04-25T09:24:36.667Z</time></trkpt><trkpt lat="38.09346" lon="15.863765"><ele>1401.8</ele><time>2026-04-25T09:24:37.668Z</time></trkpt><trkpt lat="38.0935083" lon="15.863855"><ele>1406.4</ele><time>2026-04-25T09:24:38.667Z</time></trkpt><trkpt lat="38.0935767" lon="15.8639533"><ele>1411.0</ele><time>2026-04-25T09:24:39.667Z</time></trkpt><trkpt lat="38.0936283" lon="15.8640417"><ele>1411.0</ele><time>2026-04-25T09:24:40.667Z</time></trkpt><trkpt lat="38.0936717" lon="15.8641217"><ele>1411.0</ele><time>2026-04-25T09:24:41.667Z</time></trkpt><trkpt lat="38.0937417" lon="15.864185"><ele>1411.0</ele><time>2026-04-25T09:24:43.667Z</time></trkpt><trkpt lat="38.093805" lon="15.8641467"><ele>1411.0</ele><time>2026-04-25T09:24:46.667Z</time></trkpt><trkpt lat="38.0937667" lon="15.864045"><ele>1411.0</ele><time>2026-04-25T09:24:49.667Z</time></trkpt><trkpt lat="38.09373" lon="15.8639467"><ele>1411.0</ele><time>2026-04-25T09:24:51.667Z</time></trkpt><trkpt lat="38.09375" lon="15.86383"><ele>1411.0</ele><time>2026-04-25T09:24:53.668Z</time></trkpt><trkpt lat="38.0938083" lon="15.8637317"><ele>1411.0</ele><time>2026-04-25T09:24:55.667Z</time></trkpt><trkpt lat="38.0938483" lon="15.8635967"><ele>1411.0</ele><time>2026-04-25T09:24:57.667Z</time></trkpt><trkpt lat="38.0938267" lon="15.8634517"><ele>1411.0</ele><time>2026-04-25T09:24:59.667Z</time></trkpt><trkpt lat="38.0937617" lon="15.863315"><ele>1406.1999999999998</ele><time>2026-04-25T09:25:01.667Z</time></trkpt><trkpt lat="38.0937233" lon="15.8632217"><ele>1401.3999999999999</ele><time>2026-04-25T09:25:02.667Z</time></trkpt><trkpt lat="38.09374" lon="15.8630917"><ele>1396.6</ele><time>2026-04-25T09:25:03.667Z</time></trkpt><trkpt lat="38.0937533" lon="15.86297"><ele>1391.8</ele><time>2026-04-25T09:25:05.668Z</time></trkpt><trkpt lat="38.0938283" lon="15.8628567"><ele>1387.0</ele><time>2026-04-25T09:25:07.667Z</time></trkpt><trkpt lat="38.0939317" lon="15.8628"><ele>1387.0</ele><time>2026-04-25T09:25:09.668Z</time></trkpt><trkpt lat="38.0940067" lon="15.86273"><ele>1387.0</ele><time>2026-04-25T09:25:11.667Z</time></trkpt><trkpt lat="38.0940333" lon="15.8626383"><ele>1387.0</ele><time>2026-04-25T09:25:13.667Z</time></trkpt><trkpt lat="38.0940433" lon="15.8625117"><ele>1387.0</ele><time>2026-04-25T09:25:15.667Z</time></trkpt><trkpt lat="38.09403" lon="15.8624333"><ele>1387.0</ele><time>2026-04-25T09:25:17.668Z</time></trkpt><trkpt lat="38.093975" lon="15.862345"><ele>1387.0</ele><time>2026-04-25T09:25:20.667Z</time></trkpt><trkpt lat="38.09389" lon="15.86227"><ele>1384.3333333333333</ele><time>2026-04-25T09:25:22.668Z</time></trkpt><trkpt lat="38.0938133" lon="15.8622167"><ele>1381.6666666666665</ele><time>2026-04-25T09:25:23.667Z</time></trkpt><trkpt lat="38.093735" lon="15.8621633"><ele>1379.0</ele><time>2026-04-25T09:25:24.667Z</time></trkpt><trkpt lat="38.0936683" lon="15.8620933"><ele>1376.3333333333333</ele><time>2026-04-25T09:25:25.667Z</time></trkpt><trkpt lat="38.0936217" lon="15.8620217"><ele>1373.6666666666667</ele><time>2026-04-25T09:25:26.668Z</time></trkpt><trkpt lat="38.0935883" lon="15.861945"><ele>1371.0</ele><time>2026-04-25T09:25:27.667Z</time></trkpt><trkpt lat="38.0935767" lon="15.8618467"><ele>1370.75</ele><time>2026-04-25T09:25:28.667Z</time></trkpt><trkpt lat="38.0936017" lon="15.8617217"><ele>1370.5</ele><time>2026-04-25T09:25:29.668Z</time></trkpt><trkpt lat="38.0936383" lon="15.861585"><ele>1370.25</ele><time>2026-04-25T09:25:30.667Z</time></trkpt><trkpt lat="38.093665" lon="15.8614383"><ele>1370.0</ele><time>2026-04-25T09:25:31.668Z</time></trkpt><trkpt lat="38.0936767" lon="15.8612817"><ele>1370.0</ele><time>2026-04-25T09:25:32.667Z</time></trkpt><trkpt lat="38.0936783" lon="15.8611533"><ele>1370.0</ele><time>2026-04-25T09:25:33.667Z</time></trkpt><trkpt lat="38.0936783" lon="15.86104"><ele>1370.0</ele><time>2026-04-25T09:25:34.667Z</time></trkpt><trkpt lat="38.09368" lon="15.86091"><ele>1370.0</ele><time>2026-04-25T09:25:36.667Z</time></trkpt><trkpt lat="38.0936333" lon="15.8608517"><ele>1370.0</ele><time>2026-04-25T09:25:39.667Z</time></trkpt><trkpt lat="38.0935617" lon="15.8608217"><ele>1370.0</ele><time>2026-04-25T09:25:41.667Z</time></trkpt><trkpt lat="38.0934633" lon="15.8607867"><ele>1370.0</ele><time>2026-04-25T09:25:43.667Z</time></trkpt><trkpt lat="38.0933717" lon="15.8607333"><ele>1370.0</ele><time>2026-04-25T09:25:45.667Z</time></trkpt><trkpt lat="38.0933133" lon="15.8606433"><ele>1370.0</ele><time>2026-04-25T09:25:47.667Z</time></trkpt><trkpt lat="38.09328" lon="15.8605467"><ele>1370.0</ele><time>2026-04-25T09:25:49.667Z</time></trkpt><trkpt lat="38.09324" lon="15.8604783"><ele>1370.0</ele><time>2026-04-25T09:25:51.667Z</time></trkpt><trkpt lat="38.09319" lon="15.860405"><ele>1370.0</ele><time>2026-04-25T09:25:54.667Z</time></trkpt><trkpt lat="38.0931617" lon="15.8603133"><ele>1366.6</ele><time>2026-04-25T09:25:57.667Z</time></trkpt><trkpt lat="38.0930817" lon="15.8602333"><ele>1363.2</ele><time>2026-04-25T09:26:00.667Z</time></trkpt><trkpt lat="38.0930167" lon="15.8601567"><ele>1359.8000000000002</ele><time>2026-04-25T09:26:02.667Z</time></trkpt><trkpt lat="38.0929783" lon="15.86006"><ele>1356.4</ele><time>2026-04-25T09:26:04.667Z</time></trkpt><trkpt lat="38.0929467" lon="15.85996"><ele>1353.0</ele><time>2026-04-25T09:26:06.667Z</time></trkpt><trkpt lat="38.09293" lon="15.85983"><ele>1353.0</ele><time>2026-04-25T09:26:08.667Z</time></trkpt><trkpt lat="38.0929317" lon="15.8597067"><ele>1353.0</ele><time>2026-04-25T09:26:10.667Z</time></trkpt><trkpt lat="38.0929867" lon="15.859575"><ele>1353.0</ele><time>2026-04-25T09:26:12.667Z</time></trkpt><trkpt lat="38.093015" lon="15.859465"><ele>1353.0</ele><time>2026-04-25T09:26:14.667Z</time></trkpt><trkpt lat="38.0930183" lon="15.8593083"><ele>1353.0</ele><time>2026-04-25T09:26:16.667Z</time></trkpt><trkpt lat="38.09303" lon="15.85919"><ele>1350.8333333333333</ele><time>2026-04-25T09:26:17.668Z</time></trkpt><trkpt lat="38.093055" lon="15.8590867"><ele>1348.6666666666667</ele><time>2026-04-25T09:26:18.667Z</time></trkpt><trkpt lat="38.0930933" lon="15.858995"><ele>1346.5</ele><time>2026-04-25T09:26:19.667Z</time></trkpt><trkpt lat="38.093135" lon="15.8589117"><ele>1344.3333333333335</ele><time>2026-04-25T09:26:20.667Z</time></trkpt><trkpt lat="38.0931783" lon="15.8588183"><ele>1342.1666666666667</ele><time>2026-04-25T09:26:21.668Z</time></trkpt><trkpt lat="38.0932233" lon="15.8587267"><ele>1340.0</ele><time>2026-04-25T09:26:22.667Z</time></trkpt><trkpt lat="38.09327" lon="15.8586333"><ele>1341.5714285714284</ele><time>2026-04-25T09:26:23.667Z</time></trkpt><trkpt lat="38.09331" lon="15.8585467"><ele>1343.142857142857</ele><time>2026-04-25T09:26:24.667Z</time></trkpt><trkpt lat="38.0933583" lon="15.8584683"><ele>1344.7142857142858</ele><time>2026-04-25T09:26:25.667Z</time></trkpt><trkpt lat="38.0934017" lon="15.8584"><ele>1346.2857142857142</ele><time>2026-04-25T09:26:26.667Z</time></trkpt><trkpt lat="38.0934433" lon="15.8583317"><ele>1347.857142857143</ele><time>2026-04-25T09:26:27.667Z</time></trkpt><trkpt lat="38.0934867" lon="15.8582567"><ele>1349.4285714285713</ele><time>2026-04-25T09:26:28.667Z</time></trkpt><trkpt lat="38.093525" lon="15.8581867"><ele>1351.0</ele><time>2026-04-25T09:26:29.668Z</time></trkpt><trkpt lat="38.0936033" lon="15.8580767"><ele>1351.0</ele><time>2026-04-25T09:26:31.668Z</time></trkpt><trkpt lat="38.093685" lon="15.858005"><ele>1351.0</ele><time>2026-04-25T09:26:33.667Z</time></trkpt><trkpt lat="38.0937683" lon="15.8579467"><ele>1351.0</ele><time>2026-04-25T09:26:35.667Z</time></trkpt><trkpt lat="38.093825" lon="15.8578433"><ele>1351.0</ele><time>2026-04-25T09:26:37.667Z</time></trkpt><trkpt lat="38.093835" lon="15.85775"><ele>1351.0</ele><time>2026-04-25T09:26:39.667Z</time></trkpt><trkpt lat="38.09383" lon="15.8576383"><ele>1346.8</ele><time>2026-04-25T09:26:41.667Z</time></trkpt><trkpt lat="38.09381" lon="15.8575117"><ele>1342.6</ele><time>2026-04-25T09:26:43.667Z</time></trkpt><trkpt lat="38.0937817" lon="15.8573583"><ele>1338.4</ele><time>2026-04-25T09:26:45.667Z</time></trkpt><trkpt lat="38.09374" lon="15.8572883"><ele>1334.2</ele><time>2026-04-25T09:26:46.668Z</time></trkpt><trkpt lat="38.09371" lon="15.8572117"><ele>1330.0</ele><time>2026-04-25T09:26:47.667Z</time></trkpt><trkpt lat="38.0936667" lon="15.8570667"><ele>1330.0</ele><time>2026-04-25T09:26:49.667Z</time></trkpt><trkpt lat="38.0936733" lon="15.8569767"><ele>1330.0</ele><time>2026-04-25T09:26:50.667Z</time></trkpt><trkpt lat="38.09368" lon="15.85689"><ele>1330.0</ele><time>2026-04-25T09:26:51.667Z</time></trkpt><trkpt lat="38.09371" lon="15.8568183"><ele>1330.0</ele><time>2026-04-25T09:26:52.667Z</time></trkpt><trkpt lat="38.0937467" lon="15.8567367"><ele>1330.0</ele><time>2026-04-25T09:26:53.667Z</time></trkpt><trkpt lat="38.0937833" lon="15.856655"><ele>1330.0</ele><time>2026-04-25T09:26:54.667Z</time></trkpt><trkpt lat="38.0938217" lon="15.85659"><ele>1330.0</ele><time>2026-04-25T09:26:55.667Z</time></trkpt><trkpt lat="38.0939017" lon="15.8564883"><ele>1332.6666666666665</ele><time>2026-04-25T09:26:57.667Z</time></trkpt><trkpt lat="38.0939933" lon="15.8563767"><ele>1335.3333333333333</ele><time>2026-04-25T09:26:59.667Z</time></trkpt><trkpt lat="38.0940417" lon="15.8563033"><ele>1338.0</ele><time>2026-04-25T09:27:00.667Z</time></trkpt><trkpt lat="38.0940867" lon="15.8562317"><ele>1340.6666666666667</ele><time>2026-04-25T09:27:01.667Z</time></trkpt><trkpt lat="38.0941367" lon="15.85616"><ele>1343.3333333333335</ele><time>2026-04-25T09:27:02.668Z</time></trkpt><trkpt lat="38.0941917" lon="15.8560867"><ele>1346.0</ele><time>2026-04-25T09:27:03.667Z</time></trkpt><trkpt lat="38.0942433" lon="15.856"><ele>1341.6666666666667</ele><time>2026-04-25T09:27:04.667Z</time></trkpt><trkpt lat="38.0942917" lon="15.8559267"><ele>1337.3333333333335</ele><time>2026-04-25T09:27:05.668Z</time></trkpt><trkpt lat="38.0943367" lon="15.85584"><ele>1333.0</ele><time>2026-04-25T09:27:06.668Z</time></trkpt><trkpt lat="38.0943883" lon="15.8557667"><ele>1328.6666666666667</ele><time>2026-04-25T09:27:07.667Z</time></trkpt><trkpt lat="38.0944367" lon="15.8556867"><ele>1324.3333333333333</ele><time>2026-04-25T09:27:08.667Z</time></trkpt><trkpt lat="38.0945233" lon="15.8555717"><ele>1320.0</ele><time>2026-04-25T09:27:10.667Z</time></trkpt><trkpt lat="38.094595" lon="15.85545"><ele>1320.0</ele><time>2026-04-25T09:27:12.667Z</time></trkpt><trkpt lat="38.09462" lon="15.855365"><ele>1320.0</ele><time>2026-04-25T09:27:13.667Z</time></trkpt><trkpt lat="38.0946333" lon="15.8552133"><ele>1320.0</ele><time>2026-04-25T09:27:15.667Z</time></trkpt><trkpt lat="38.09463" lon="15.855095"><ele>1320.0</ele><time>2026-04-25T09:27:17.668Z</time></trkpt><trkpt lat="38.0946533" lon="15.8550117"><ele>1320.0</ele><time>2026-04-25T09:27:20.667Z</time></trkpt><trkpt lat="38.0947083" lon="15.85489"><ele>1315.4</ele><time>2026-04-25T09:27:23.667Z</time></trkpt><trkpt lat="38.0947783" lon="15.8548117"><ele>1310.8</ele><time>2026-04-25T09:27:25.667Z</time></trkpt><trkpt lat="38.0948583" lon="15.8547133"><ele>1306.1999999999998</ele><time>2026-04-25T09:27:27.667Z</time></trkpt><trkpt lat="38.0949033" lon="15.8545667"><ele>1301.6</ele><time>2026-04-25T09:27:29.667Z</time></trkpt><trkpt lat="38.094905" lon="15.8544367"><ele>1297.0</ele><time>2026-04-25T09:27:31.667Z</time></trkpt><trkpt lat="38.0948883" lon="15.85431"><ele>1297.6666666666665</ele><time>2026-04-25T09:27:33.667Z</time></trkpt><trkpt lat="38.0948833" lon="15.854205"><ele>1298.3333333333333</ele><time>2026-04-25T09:27:35.667Z</time></trkpt><trkpt lat="38.094895" lon="15.8541117"><ele>1299.0</ele><time>2026-04-25T09:27:37.667Z</time></trkpt><trkpt lat="38.0949383" lon="15.8540433"><ele>1299.6666666666667</ele><time>2026-04-25T09:27:40.667Z</time></trkpt><trkpt lat="38.095015" lon="15.853955"><ele>1300.3333333333335</ele><time>2026-04-25T09:27:43.667Z</time></trkpt><trkpt lat="38.0951" lon="15.853875"><ele>1301.0</ele><time>2026-04-25T09:27:45.668Z</time></trkpt><trkpt lat="38.09517" lon="15.8538233"><ele>1301.0</ele><time>2026-04-25T09:27:47.668Z</time></trkpt><trkpt lat="38.09524" lon="15.853785"><ele>1301.0</ele><time>2026-04-25T09:27:49.667Z</time></trkpt><trkpt lat="38.0953267" lon="15.853755"><ele>1301.0</ele><time>2026-04-25T09:27:51.667Z</time></trkpt><trkpt lat="38.0954" lon="15.8537883"><ele>1301.0</ele><time>2026-04-25T09:27:53.667Z</time></trkpt><trkpt lat="38.0954833" lon="15.85387"><ele>1301.0</ele><time>2026-04-25T09:27:55.668Z</time></trkpt><trkpt lat="38.0955483" lon="15.8539633"><ele>1301.0</ele><time>2026-04-25T09:27:57.667Z</time></trkpt><trkpt lat="38.0956167" lon="15.854025"><ele>1301.0</ele><time>2026-04-25T09:27:59.667Z</time></trkpt><trkpt lat="38.0956983" lon="15.8540817"><ele>1301.0</ele><time>2026-04-25T09:28:01.667Z</time></trkpt><trkpt lat="38.0957717" lon="15.854145"><ele>1301.0</ele><time>2026-04-25T09:28:03.667Z</time></trkpt><trkpt lat="38.0958433" lon="15.8542183"><ele>1301.0</ele><time>2026-04-25T09:28:05.667Z</time></trkpt><trkpt lat="38.0958683" lon="15.8543333"><ele>1301.0</ele><time>2026-04-25T09:28:08.667Z</time></trkpt><trkpt lat="38.0958667" lon="15.8544233"><ele>1301.0</ele><time>2026-04-25T09:28:10.667Z</time></trkpt><trkpt lat="38.0958717" lon="15.85451"><ele>1303.1999999999998</ele><time>2026-04-25T09:28:12.667Z</time></trkpt><trkpt lat="38.0959" lon="15.8545917"><ele>1305.3999999999999</ele><time>2026-04-25T09:28:14.667Z</time></trkpt><trkpt lat="38.09596" lon="15.854675"><ele>1307.6</ele><time>2026-04-25T09:28:16.668Z</time></trkpt><trkpt lat="38.0960767" lon="15.85478"><ele>1309.8</ele><time>2026-04-25T09:28:33.667Z</time></trkpt><trkpt lat="38.096105" lon="15.85491"><ele>1312.0</ele><time>2026-04-25T09:32:13.667Z</time></trkpt><trkpt lat="38.096095" lon="15.85481"><ele>1312.0</ele><time>2026-04-25T09:35:24.667Z</time></trkpt><trkpt lat="38.0961317" lon="15.8547433"><ele>1312.0</ele><time>2026-04-25T09:35:26.667Z</time></trkpt><trkpt lat="38.096185" lon="15.854685"><ele>1312.0</ele><time>2026-04-25T09:35:28.667Z</time></trkpt><trkpt lat="38.0962767" lon="15.8546167"><ele>1312.0</ele><time>2026-04-25T09:36:43.667Z</time></trkpt><trkpt lat="38.0963583" lon="15.8545983"><ele>1312.0</ele><time>2026-04-25T09:36:46.667Z</time></trkpt><trkpt lat="38.0963867" lon="15.8545183"><ele>1312.0</ele><time>2026-04-25T09:36:48.667Z</time></trkpt><trkpt lat="38.0964" lon="15.8544233"><ele>1312.0</ele><time>2026-04-25T09:36:50.667Z</time></trkpt><trkpt lat="38.0964" lon="15.8543433"><ele>1312.0</ele><time>2026-04-25T09:36:52.668Z</time></trkpt><trkpt lat="38.0963717" lon="15.854245"><ele>1312.0</ele><time>2026-04-25T09:36:54.667Z</time></trkpt><trkpt lat="38.09636" lon="15.85411"><ele>1312.0</ele><time>2026-04-25T09:36:56.668Z</time></trkpt><trkpt lat="38.09636" lon="15.853975"><ele>1312.0</ele><time>2026-04-25T09:36:58.667Z</time></trkpt><trkpt lat="38.09635" lon="15.853815"><ele>1308.5</ele><time>2026-04-25T09:37:00.667Z</time></trkpt><trkpt lat="38.0963417" lon="15.8537317"><ele>1305.0</ele><time>2026-04-25T09:37:01.667Z</time></trkpt><trkpt lat="38.0963517" lon="15.8536517"><ele>1301.5</ele><time>2026-04-25T09:37:02.667Z</time></trkpt><trkpt lat="38.0963717" lon="15.8535733"><ele>1298.0</ele><time>2026-04-25T09:37:03.668Z</time></trkpt><trkpt lat="38.0964" lon="15.85342"><ele>1294.5</ele><time>2026-04-25T09:37:05.667Z</time></trkpt><trkpt lat="38.0964067" lon="15.853335"><ele>1291.0</ele><time>2026-04-25T09:37:06.667Z</time></trkpt><trkpt lat="38.0964083" lon="15.853245"><ele>1290.8333333333333</ele><time>2026-04-25T09:37:07.667Z</time></trkpt><trkpt lat="38.0964017" lon="15.8531533"><ele>1290.6666666666665</ele><time>2026-04-25T09:37:08.667Z</time></trkpt><trkpt lat="38.0963917" lon="15.853065"><ele>1290.5</ele><time>2026-04-25T09:37:09.668Z</time></trkpt><trkpt lat="38.0963867" lon="15.85297"><ele>1290.3333333333333</ele><time>2026-04-25T09:37:10.667Z</time></trkpt><trkpt lat="38.0963633" lon="15.8528233"><ele>1290.1666666666667</ele><time>2026-04-25T09:37:12.667Z</time></trkpt><trkpt lat="38.0963183" lon="15.8526983"><ele>1290.0</ele><time>2026-04-25T09:37:14.667Z</time></trkpt><trkpt lat="38.0962283" lon="15.852615"><ele>1290.0</ele><time>2026-04-25T09:37:16.667Z</time></trkpt><trkpt lat="38.0961683" lon="15.8525867"><ele>1290.0</ele><time>2026-04-25T09:37:17.667Z</time></trkpt><trkpt lat="38.0961033" lon="15.852555"><ele>1290.0</ele><time>2026-04-25T09:37:18.668Z</time></trkpt><trkpt lat="38.0960383" lon="15.8525433"><ele>1290.0</ele><time>2026-04-25T09:37:19.667Z</time></trkpt><trkpt lat="38.0959733" lon="15.8525083"><ele>1290.0</ele><time>2026-04-25T09:37:20.667Z</time></trkpt><trkpt lat="38.0959183" lon="15.8524683"><ele>1290.0</ele><time>2026-04-25T09:37:21.667Z</time></trkpt><trkpt lat="38.09586" lon="15.85242"><ele>1290.0</ele><time>2026-04-25T09:37:22.667Z</time></trkpt><trkpt lat="38.0958033" lon="15.8523733"><ele>1290.0</ele><time>2026-04-25T09:37:23.668Z</time></trkpt><trkpt lat="38.0957417" lon="15.8522983"><ele>1290.0</ele><time>2026-04-25T09:37:25.667Z</time></trkpt><trkpt lat="38.0957467" lon="15.8521667"><ele>1290.0</ele><time>2026-04-25T09:37:28.667Z</time></trkpt><trkpt lat="38.0958" lon="15.8520717"><ele>1290.0</ele><time>2026-04-25T09:37:30.667Z</time></trkpt><trkpt lat="38.0958883" lon="15.8520017"><ele>1290.0</ele><time>2026-04-25T09:37:32.667Z</time></trkpt><trkpt lat="38.0959867" lon="15.8519633"><ele>1290.0</ele><time>2026-04-25T09:37:34.667Z</time></trkpt><trkpt lat="38.096075" lon="15.8518967"><ele>1290.0</ele><time>2026-04-25T09:37:36.667Z</time></trkpt><trkpt lat="38.0961767" lon="15.8517933"><ele>1290.0</ele><time>2026-04-25T09:37:38.667Z</time></trkpt><trkpt lat="38.0962333" lon="15.8517283"><ele>1290.0</ele><time>2026-04-25T09:37:39.667Z</time></trkpt><trkpt lat="38.0962933" lon="15.8516833"><ele>1290.0</ele><time>2026-04-25T09:37:40.667Z</time></trkpt><trkpt lat="38.0963567" lon="15.851655"><ele>1290.0</ele><time>2026-04-25T09:37:41.667Z</time></trkpt><trkpt lat="38.0964267" lon="15.8516417"><ele>1289.8333333333333</ele><time>2026-04-25T09:37:42.667Z</time></trkpt><trkpt lat="38.0964983" lon="15.851635"><ele>1289.6666666666667</ele><time>2026-04-25T09:37:43.667Z</time></trkpt><trkpt lat="38.0965783" lon="15.851645"><ele>1289.5</ele><time>2026-04-25T09:37:44.667Z</time></trkpt><trkpt lat="38.09666" lon="15.85164"><ele>1289.3333333333335</ele><time>2026-04-25T09:37:45.667Z</time></trkpt><trkpt lat="38.09674" lon="15.8516333"><ele>1289.1666666666667</ele><time>2026-04-25T09:37:46.667Z</time></trkpt><trkpt lat="38.0968183" lon="15.851615"><ele>1289.0</ele><time>2026-04-25T09:37:47.667Z</time></trkpt><trkpt lat="38.0968833" lon="15.8515917"><ele>1293.3333333333335</ele><time>2026-04-25T09:37:48.667Z</time></trkpt><trkpt lat="38.0969517" lon="15.8515617"><ele>1297.6666666666667</ele><time>2026-04-25T09:37:49.668Z</time></trkpt><trkpt lat="38.0970167" lon="15.8515283"><ele>1302.0</ele><time>2026-04-25T09:37:50.668Z</time></trkpt><trkpt lat="38.097075" lon="15.85149"><ele>1306.3333333333333</ele><time>2026-04-25T09:37:51.667Z</time></trkpt><trkpt lat="38.0971267" lon="15.8514417"><ele>1310.6666666666665</ele><time>2026-04-25T09:37:52.667Z</time></trkpt><trkpt lat="38.0972067" lon="15.85135"><ele>1315.0</ele><time>2026-04-25T09:37:54.667Z</time></trkpt><trkpt lat="38.0972383" lon="15.85126"><ele>1315.0</ele><time>2026-04-25T09:37:56.667Z</time></trkpt><trkpt lat="38.097135" lon="15.851245"><ele>1315.0</ele><time>2026-04-25T09:37:59.667Z</time></trkpt><trkpt lat="38.097025" lon="15.85125"><ele>1315.0</ele><time>2026-04-25T09:38:01.667Z</time></trkpt><trkpt lat="38.0969467" lon="15.8512383"><ele>1315.0</ele><time>2026-04-25T09:38:02.667Z</time></trkpt><trkpt lat="38.0968733" lon="15.8512233"><ele>1315.0</ele><time>2026-04-25T09:38:03.668Z</time></trkpt><trkpt lat="38.0968167" lon="15.8511867"><ele>1315.0</ele><time>2026-04-25T09:38:04.667Z</time></trkpt><trkpt lat="38.0967467" lon="15.85108"><ele>1314.8</ele><time>2026-04-25T09:38:06.667Z</time></trkpt><trkpt lat="38.0966983" lon="15.850925"><ele>1314.6</ele><time>2026-04-25T09:38:08.667Z</time></trkpt><trkpt lat="38.0966533" lon="15.8508517"><ele>1314.4</ele><time>2026-04-25T09:38:09.667Z</time></trkpt><trkpt lat="38.0966" lon="15.8507717"><ele>1314.2</ele><time>2026-04-25T09:38:10.667Z</time></trkpt><trkpt lat="38.0965383" lon="15.8506883"><ele>1314.0</ele><time>2026-04-25T09:38:11.667Z</time></trkpt><trkpt lat="38.096495" lon="15.8506067"><ele>1314.0</ele><time>2026-04-25T09:38:12.667Z</time></trkpt><trkpt lat="38.096485" lon="15.8505233"><ele>1314.0</ele><time>2026-04-25T09:38:13.667Z</time></trkpt><trkpt lat="38.0965217" lon="15.85039"><ele>1314.0</ele><time>2026-04-25T09:38:15.667Z</time></trkpt><trkpt lat="38.0965583" lon="15.8503017"><ele>1314.0</ele><time>2026-04-25T09:38:16.668Z</time></trkpt><trkpt lat="38.0965917" lon="15.8502067"><ele>1314.0</ele><time>2026-04-25T09:38:17.668Z</time></trkpt><trkpt lat="38.096615" lon="15.8501183"><ele>1314.0</ele><time>2026-04-25T09:38:18.668Z</time></trkpt><trkpt lat="38.0966067" lon="15.8499933"><ele>1308.1666666666667</ele><time>2026-04-25T09:38:20.667Z</time></trkpt><trkpt lat="38.09657" lon="15.8499233"><ele>1302.3333333333333</ele><time>2026-04-25T09:38:21.667Z</time></trkpt><trkpt lat="38.09652" lon="15.849845"><ele>1296.5</ele><time>2026-04-25T09:38:22.667Z</time></trkpt><trkpt lat="38.0964867" lon="15.8497767"><ele>1290.6666666666665</ele><time>2026-04-25T09:38:23.667Z</time></trkpt><trkpt lat="38.0964667" lon="15.8496883"><ele>1284.8333333333333</ele><time>2026-04-25T09:38:24.667Z</time></trkpt><trkpt lat="38.0964683" lon="15.8495667"><ele>1279.0</ele><time>2026-04-25T09:38:25.667Z</time></trkpt><trkpt lat="38.0964983" lon="15.849415"><ele>1281.6</ele><time>2026-04-25T09:38:26.667Z</time></trkpt><trkpt lat="38.096555" lon="15.8492667"><ele>1284.2</ele><time>2026-04-25T09:38:27.667Z</time></trkpt><trkpt lat="38.0966083" lon="15.84914"><ele>1286.8</ele><time>2026-04-25T09:38:28.667Z</time></trkpt><trkpt lat="38.0966533" lon="15.849045"><ele>1289.3999999999999</ele><time>2026-04-25T09:38:29.667Z</time></trkpt><trkpt lat="38.0966783" lon="15.8489033"><ele>1292.0</ele><time>2026-04-25T09:38:31.667Z</time></trkpt><trkpt lat="38.0965817" lon="15.8487967"><ele>1292.0</ele><time>2026-04-25T09:38:33.667Z</time></trkpt><trkpt lat="38.0964967" lon="15.8487517"><ele>1292.0</ele><time>2026-04-25T09:38:34.667Z</time></trkpt><trkpt lat="38.09641" lon="15.8487133"><ele>1292.0</ele><time>2026-04-25T09:38:35.667Z</time></trkpt><trkpt lat="38.0963233" lon="15.8486817"><ele>1292.0</ele><time>2026-04-25T09:38:36.667Z</time></trkpt><trkpt lat="38.0962583" lon="15.8486467"><ele>1292.0</ele><time>2026-04-25T09:38:37.667Z</time></trkpt><trkpt lat="38.09623" lon="15.8485267"><ele>1292.0</ele><time>2026-04-25T09:38:39.667Z</time></trkpt><trkpt lat="38.0962717" lon="15.84838"><ele>1295.0</ele><time>2026-04-25T09:38:41.667Z</time></trkpt><trkpt lat="38.09629" lon="15.84828"><ele>1298.0</ele><time>2026-04-25T09:38:42.667Z</time></trkpt><trkpt lat="38.096315" lon="15.8481667"><ele>1301.0</ele><time>2026-04-25T09:38:43.667Z</time></trkpt><trkpt lat="38.096335" lon="15.8480567"><ele>1304.0</ele><time>2026-04-25T09:38:44.667Z</time></trkpt><trkpt lat="38.0963383" lon="15.8479333"><ele>1307.0</ele><time>2026-04-25T09:38:46.667Z</time></trkpt><trkpt lat="38.09624" lon="15.8478417"><ele>1307.0</ele><time>2026-04-25T09:38:48.667Z</time></trkpt><trkpt lat="38.0961283" lon="15.8478"><ele>1307.0</ele><time>2026-04-25T09:38:49.668Z</time></trkpt><trkpt lat="38.0960033" lon="15.847745"><ele>1307.0</ele><time>2026-04-25T09:38:50.667Z</time></trkpt><trkpt lat="38.0958717" lon="15.8476933"><ele>1307.0</ele><time>2026-04-25T09:38:51.667Z</time></trkpt><trkpt lat="38.095785" lon="15.8476383"><ele>1306.1666666666667</ele><time>2026-04-25T09:38:52.668Z</time></trkpt><trkpt lat="38.09572" lon="15.847565"><ele>1305.3333333333335</ele><time>2026-04-25T09:38:53.667Z</time></trkpt><trkpt lat="38.095685" lon="15.8474867"><ele>1304.5</ele><time>2026-04-25T09:38:54.668Z</time></trkpt><trkpt lat="38.0956833" lon="15.8473167"><ele>1303.6666666666667</ele><time>2026-04-25T09:38:56.667Z</time></trkpt><trkpt lat="38.0956833" lon="15.8472217"><ele>1302.8333333333333</ele><time>2026-04-25T09:38:57.668Z</time></trkpt><trkpt lat="38.095655" lon="15.8471283"><ele>1302.0</ele><time>2026-04-25T09:38:58.667Z</time></trkpt><trkpt lat="38.09561" lon="15.8470433"><ele>1302.0</ele><time>2026-04-25T09:38:59.667Z</time></trkpt><trkpt lat="38.0955733" lon="15.8469583"><ele>1302.0</ele><time>2026-04-25T09:39:00.668Z</time></trkpt><trkpt lat="38.09556" lon="15.84681"><ele>1302.0</ele><time>2026-04-25T09:39:02.667Z</time></trkpt><trkpt lat="38.0956" lon="15.84673"><ele>1302.0</ele><time>2026-04-25T09:39:03.668Z</time></trkpt><trkpt lat="38.0956317" lon="15.8466533"><ele>1302.0</ele><time>2026-04-25T09:39:04.667Z</time></trkpt><trkpt lat="38.09564" lon="15.8465733"><ele>1302.0</ele><time>2026-04-25T09:39:05.667Z</time></trkpt><trkpt lat="38.0956167" lon="15.8464967"><ele>1304.8</ele><time>2026-04-25T09:39:06.668Z</time></trkpt><trkpt lat="38.0955733" lon="15.8464367"><ele>1307.6</ele><time>2026-04-25T09:39:07.668Z</time></trkpt><trkpt lat="38.0955" lon="15.8463833"><ele>1310.3999999999999</ele><time>2026-04-25T09:39:08.667Z</time></trkpt><trkpt lat="38.0954067" lon="15.8463517"><ele>1313.1999999999998</ele><time>2026-04-25T09:39:09.667Z</time></trkpt><trkpt lat="38.0952717" lon="15.8463083"><ele>1316.0</ele><time>2026-04-25T09:39:10.667Z</time></trkpt><trkpt lat="38.0951283" lon="15.8462433"><ele>1316.0</ele><time>2026-04-25T09:39:11.667Z</time></trkpt><trkpt lat="38.095015" lon="15.8461917"><ele>1316.0</ele><time>2026-04-25T09:39:12.667Z</time></trkpt><trkpt lat="38.094955" lon="15.846165"><ele>1316.0</ele><time>2026-04-25T09:39:13.667Z</time></trkpt><trkpt lat="38.0949033" lon="15.8460867"><ele>1316.0</ele><time>2026-04-25T09:39:15.667Z</time></trkpt><trkpt lat="38.0949017" lon="15.8459667"><ele>1316.0</ele><time>2026-04-25T09:39:44.666Z</time></trkpt><trkpt lat="38.0948317" lon="15.8458367"><ele>1315.6</ele><time>2026-04-25T09:39:46.666Z</time></trkpt><trkpt lat="38.0947633" lon="15.8457583"><ele>1315.1999999999998</ele><time>2026-04-25T09:39:47.666Z</time></trkpt><trkpt lat="38.0946733" lon="15.845675"><ele>1314.8000000000002</ele><time>2026-04-25T09:39:48.666Z</time></trkpt><trkpt lat="38.0945833" lon="15.8455917"><ele>1314.4</ele><time>2026-04-25T09:39:49.666Z</time></trkpt><trkpt lat="38.0945183" lon="15.8454917"><ele>1314.0</ele><time>2026-04-25T09:39:50.666Z</time></trkpt><trkpt lat="38.094475" lon="15.8453867"><ele>1314.0</ele><time>2026-04-25T09:39:51.666Z</time></trkpt><trkpt lat="38.09446" lon="15.8452667"><ele>1314.0</ele><time>2026-04-25T09:39:52.666Z</time></trkpt><trkpt lat="38.09446" lon="15.845115"><ele>1314.0</ele><time>2026-04-25T09:39:53.666Z</time></trkpt><trkpt lat="38.09445" lon="15.8449717"><ele>1314.0</ele><time>2026-04-25T09:39:54.666Z</time></trkpt><trkpt lat="38.0944167" lon="15.8448417"><ele>1314.0</ele><time>2026-04-25T09:39:55.667Z</time></trkpt><trkpt lat="38.0943567" lon="15.844735"><ele>1312.75</ele><time>2026-04-25T09:39:56.667Z</time></trkpt><trkpt lat="38.0942717" lon="15.844655"><ele>1311.5</ele><time>2026-04-25T09:39:57.666Z</time></trkpt><trkpt lat="38.0941683" lon="15.8446017"><ele>1310.25</ele><time>2026-04-25T09:39:58.666Z</time></trkpt><trkpt lat="38.094055" lon="15.84457"><ele>1309.0</ele><time>2026-04-25T09:39:59.666Z</time></trkpt><trkpt lat="38.09394" lon="15.84453"><ele>1309.0</ele><time>2026-04-25T09:40:00.666Z</time></trkpt><trkpt lat="38.0938467" lon="15.84447"><ele>1309.0</ele><time>2026-04-25T09:40:01.666Z</time></trkpt><trkpt lat="38.0937717" lon="15.8443933"><ele>1309.0</ele><time>2026-04-25T09:40:02.666Z</time></trkpt><trkpt lat="38.0937067" lon="15.844315"><ele>1309.0</ele><time>2026-04-25T09:40:03.666Z</time></trkpt><trkpt lat="38.0936633" lon="15.8441933"><ele>1309.0</ele><time>2026-04-25T09:40:04.666Z</time></trkpt><trkpt lat="38.093635" lon="15.8440567"><ele>1314.2</ele><time>2026-04-25T09:40:05.666Z</time></trkpt><trkpt lat="38.093595" lon="15.8439283"><ele>1319.4</ele><time>2026-04-25T09:40:06.667Z</time></trkpt><trkpt lat="38.0935317" lon="15.8438033"><ele>1324.6</ele><time>2026-04-25T09:40:07.666Z</time></trkpt><trkpt lat="38.093455" lon="15.8436933"><ele>1329.8</ele><time>2026-04-25T09:40:08.666Z</time></trkpt><trkpt lat="38.09339" lon="15.843595"><ele>1335.0</ele><time>2026-04-25T09:40:09.666Z</time></trkpt><trkpt lat="38.0933467" lon="15.8434833"><ele>1337.75</ele><time>2026-04-25T09:40:10.666Z</time></trkpt><trkpt lat="38.0933467" lon="15.84338"><ele>1340.5</ele><time>2026-04-25T09:40:11.666Z</time></trkpt><trkpt lat="38.0933633" lon="15.8432467"><ele>1343.25</ele><time>2026-04-25T09:40:12.666Z</time></trkpt><trkpt lat="38.0933983" lon="15.843105"><ele>1346.0</ele><time>2026-04-25T09:40:13.666Z</time></trkpt><trkpt lat="38.09345" lon="15.8429317"><ele>1346.0</ele><time>2026-04-25T09:40:14.666Z</time></trkpt><trkpt lat="38.0934983" lon="15.8427417"><ele>1346.0</ele><time>2026-04-25T09:40:15.666Z</time></trkpt><trkpt lat="38.0935133" lon="15.8425567"><ele>1346.0</ele><time>2026-04-25T09:40:16.666Z</time></trkpt><trkpt lat="38.0935233" lon="15.8423633"><ele>1345.6666666666667</ele><time>2026-04-25T09:40:17.667Z</time></trkpt><trkpt lat="38.09352" lon="15.84216"><ele>1345.3333333333333</ele><time>2026-04-25T09:40:18.666Z</time></trkpt><trkpt lat="38.09351" lon="15.841965"><ele>1345.0</ele><time>2026-04-25T09:40:19.666Z</time></trkpt><trkpt lat="38.0935033" lon="15.8417867"><ele>1344.0</ele><time>2026-04-25T09:40:20.666Z</time></trkpt><trkpt lat="38.0935167" lon="15.8416067"><ele>1343.0</ele><time>2026-04-25T09:40:21.667Z</time></trkpt><trkpt lat="38.0935633" lon="15.841455"><ele>1342.0</ele><time>2026-04-25T09:40:22.666Z</time></trkpt><trkpt lat="38.0936217" lon="15.8413367"><ele>1341.0</ele><time>2026-04-25T09:40:23.666Z</time></trkpt><trkpt lat="38.0937" lon="15.8412583"><ele>1341.0</ele><time>2026-04-25T09:40:24.667Z</time></trkpt><trkpt lat="38.093805" lon="15.8412133"><ele>1341.0</ele><time>2026-04-25T09:40:25.666Z</time></trkpt><trkpt lat="38.0939317" lon="15.8412033"><ele>1341.0</ele><time>2026-04-25T09:40:26.666Z</time></trkpt><trkpt lat="38.094075" lon="15.841215"><ele>1341.0</ele><time>2026-04-25T09:40:27.666Z</time></trkpt><trkpt lat="38.094225" lon="15.8412433"><ele>1348.0</ele><time>2026-04-25T09:40:28.666Z</time></trkpt><trkpt lat="38.0943667" lon="15.8412867"><ele>1355.0</ele><time>2026-04-25T09:40:29.666Z</time></trkpt><trkpt lat="38.0944917" lon="15.8413467"><ele>1362.0</ele><time>2026-04-25T09:40:30.666Z</time></trkpt><trkpt lat="38.0946067" lon="15.8414083"><ele>1369.0</ele><time>2026-04-25T09:40:31.666Z</time></trkpt><trkpt lat="38.0947033" lon="15.8414417"><ele>1369.0</ele><time>2026-04-25T09:40:32.666Z</time></trkpt><trkpt lat="38.0947883" lon="15.8414283"><ele>1369.0</ele><time>2026-04-25T09:40:33.666Z</time></trkpt><trkpt lat="38.0948667" lon="15.8413683"><ele>1369.0</ele><time>2026-04-25T09:40:34.666Z</time></trkpt><trkpt lat="38.0949167" lon="15.841285"><ele>1369.0</ele><time>2026-04-25T09:40:35.666Z</time></trkpt><trkpt lat="38.0949283" lon="15.8411667"><ele>1369.0</ele><time>2026-04-25T09:40:36.666Z</time></trkpt><trkpt lat="38.0949183" lon="15.84101"><ele>1364.3333333333333</ele><time>2026-04-25T09:40:37.666Z</time></trkpt><trkpt lat="38.0948417" lon="15.84083"><ele>1359.6666666666667</ele><time>2026-04-25T09:40:38.666Z</time></trkpt><trkpt lat="38.0947717" lon="15.8406583"><ele>1355.0</ele><time>2026-04-25T09:40:39.666Z</time></trkpt><trkpt lat="38.0947183" lon="15.840495"><ele>1355.0</ele><time>2026-04-25T09:40:40.667Z</time></trkpt><trkpt lat="38.0946667" lon="15.8403383"><ele>1355.0</ele><time>2026-04-25T09:40:41.666Z</time></trkpt><trkpt lat="38.0946267" lon="15.8401867"><ele>1355.0</ele><time>2026-04-25T09:40:42.666Z</time></trkpt><trkpt lat="38.0945867" lon="15.8400567"><ele>1355.0</ele><time>2026-04-25T09:40:43.666Z</time></trkpt><trkpt lat="38.0945567" lon="15.83994"><ele>1356.6666666666667</ele><time>2026-04-25T09:40:44.666Z</time></trkpt><trkpt lat="38.0945383" lon="15.8398467"><ele>1358.3333333333335</ele><time>2026-04-25T09:40:45.666Z</time></trkpt><trkpt lat="38.0945317" lon="15.839755"><ele>1360.0</ele><time>2026-04-25T09:40:47.666Z</time></trkpt><trkpt lat="38.0945383" lon="15.83967"><ele>1361.6666666666667</ele><time>2026-04-25T09:40:50.666Z</time></trkpt><trkpt lat="38.0945183" lon="15.83959"><ele>1363.3333333333333</ele><time>2026-04-25T09:40:52.667Z</time></trkpt><trkpt lat="38.09449" lon="15.839515"><ele>1365.0</ele><time>2026-04-25T09:40:54.666Z</time></trkpt><trkpt lat="38.0945133" lon="15.8396483"><ele>1365.0</ele><time>2026-04-25T09:41:10.666Z</time></trkpt><trkpt lat="38.094525" lon="15.8397533"><ele>1365.0</ele><time>2026-04-25T09:41:12.666Z</time></trkpt><trkpt lat="38.0944733" lon="15.8397017"><ele>1365.0</ele><time>2026-04-25T09:41:17.666Z</time></trkpt><trkpt lat="38.0944483" lon="15.8396217"><ele>1365.0</ele><time>2026-04-25T09:41:20.666Z</time></trkpt><trkpt lat="38.0944167" lon="15.8395167"><ele>1365.0</ele><time>2026-04-25T09:41:34.666Z</time></trkpt><trkpt lat="38.0943717" lon="15.839355"><ele>1365.0</ele><time>2026-04-25T09:41:36.666Z</time></trkpt><trkpt lat="38.0943583" lon="15.8392617"><ele>1366.6666666666667</ele><time>2026-04-25T09:41:37.666Z</time></trkpt><trkpt lat="38.09436" lon="15.83917"><ele>1368.3333333333333</ele><time>2026-04-25T09:41:38.667Z</time></trkpt><trkpt lat="38.0943783" lon="15.83909"><ele>1370.0</ele><time>2026-04-25T09:41:39.667Z</time></trkpt><trkpt lat="38.09447" lon="15.8390017"><ele>1371.6666666666665</ele><time>2026-04-25T09:41:41.666Z</time></trkpt><trkpt lat="38.0945467" lon="15.8389817"><ele>1373.3333333333333</ele><time>2026-04-25T09:41:42.666Z</time></trkpt><trkpt lat="38.0946317" lon="15.83897"><ele>1375.0</ele><time>2026-04-25T09:41:43.666Z</time></trkpt><trkpt lat="38.0947367" lon="15.8389717"><ele>1375.0</ele><time>2026-04-25T09:41:44.666Z</time></trkpt><trkpt lat="38.0948667" lon="15.838985"><ele>1375.0</ele><time>2026-04-25T09:41:45.667Z</time></trkpt><trkpt lat="38.09502" lon="15.838985"><ele>1375.0</ele><time>2026-04-25T09:41:46.666Z</time></trkpt><trkpt lat="38.0951767" lon="15.8389683"><ele>1375.0</ele><time>2026-04-25T09:41:47.667Z</time></trkpt><trkpt lat="38.0953233" lon="15.8389467"><ele>1376.4</ele><time>2026-04-25T09:41:48.666Z</time></trkpt><trkpt lat="38.0954433" lon="15.8389217"><ele>1377.8</ele><time>2026-04-25T09:41:49.666Z</time></trkpt><trkpt lat="38.095545" lon="15.8389317"><ele>1379.1999999999998</ele><time>2026-04-25T09:41:50.666Z</time></trkpt><trkpt lat="38.0956383" lon="15.8389617"><ele>1380.6</ele><time>2026-04-25T09:41:51.666Z</time></trkpt><trkpt lat="38.0957167" lon="15.8390033"><ele>1382.0</ele><time>2026-04-25T09:41:52.666Z</time></trkpt><trkpt lat="38.0957967" lon="15.839055"><ele>1382.8</ele><time>2026-04-25T09:41:53.666Z</time></trkpt><trkpt lat="38.09588" lon="15.8391117"><ele>1383.6</ele><time>2026-04-25T09:41:54.667Z</time></trkpt><trkpt lat="38.0959617" lon="15.83915"><ele>1384.3999999999999</ele><time>2026-04-25T09:41:55.667Z</time></trkpt><trkpt lat="38.096045" lon="15.8391733"><ele>1385.1999999999998</ele><time>2026-04-25T09:41:56.666Z</time></trkpt><trkpt lat="38.0961517" lon="15.8391883"><ele>1386.0</ele><time>2026-04-25T09:41:57.666Z</time></trkpt><trkpt lat="38.0962667" lon="15.83917"><ele>1386.0</ele><time>2026-04-25T09:41:58.666Z</time></trkpt><trkpt lat="38.09641" lon="15.8391317"><ele>1386.0</ele><time>2026-04-25T09:41:59.666Z</time></trkpt><trkpt lat="38.0965783" lon="15.83905"><ele>1386.0</ele><time>2026-04-25T09:42:00.667Z</time></trkpt><trkpt lat="38.0967517" lon="15.8389483"><ele>1384.6666666666667</ele><time>2026-04-25T09:42:01.666Z</time></trkpt><trkpt lat="38.0969267" lon="15.8388483"><ele>1383.3333333333335</ele><time>2026-04-25T09:42:02.666Z</time></trkpt><trkpt lat="38.0970783" lon="15.8387467"><ele>1382.0</ele><time>2026-04-25T09:42:03.666Z</time></trkpt><trkpt lat="38.097215" lon="15.83866"><ele>1382.0</ele><time>2026-04-25T09:42:04.666Z</time></trkpt><trkpt lat="38.097345" lon="15.8386317"><ele>1382.0</ele><time>2026-04-25T09:42:05.667Z</time></trkpt><trkpt lat="38.0974667" lon="15.8385917"><ele>1382.0</ele><time>2026-04-25T09:42:06.666Z</time></trkpt><trkpt lat="38.09759" lon="15.8385433"><ele>1382.0</ele><time>2026-04-25T09:42:07.666Z</time></trkpt><trkpt lat="38.09771" lon="15.8384583"><ele>1378.8</ele><time>2026-04-25T09:42:08.666Z</time></trkpt><trkpt lat="38.0978" lon="15.83837"><ele>1375.6</ele><time>2026-04-25T09:42:09.666Z</time></trkpt><trkpt lat="38.0979" lon="15.8383117"><ele>1372.3999999999999</ele><time>2026-04-25T09:42:10.667Z</time></trkpt><trkpt lat="38.0980117" lon="15.8383083"><ele>1369.1999999999998</ele><time>2026-04-25T09:42:11.666Z</time></trkpt><trkpt lat="38.0981083" lon="15.8383433"><ele>1366.0</ele><time>2026-04-25T09:42:12.666Z</time></trkpt><trkpt lat="38.0981883" lon="15.83843"><ele>1374.3333333333333</ele><time>2026-04-25T09:42:13.666Z</time></trkpt><trkpt lat="38.0982617" lon="15.838575"><ele>1382.6666666666667</ele><time>2026-04-25T09:42:14.666Z</time></trkpt><trkpt lat="38.09832" lon="15.8387617"><ele>1391.0</ele><time>2026-04-25T09:42:15.666Z</time></trkpt><trkpt lat="38.0983933" lon="15.8389817"><ele>1391.0</ele><time>2026-04-25T09:42:16.666Z</time></trkpt><trkpt lat="38.09846" lon="15.8391967"><ele>1391.0</ele><time>2026-04-25T09:42:17.666Z</time></trkpt><trkpt lat="38.0985333" lon="15.8393867"><ele>1391.0</ele><time>2026-04-25T09:42:18.666Z</time></trkpt><trkpt lat="38.09858" lon="15.839535"><ele>1394.5</ele><time>2026-04-25T09:42:19.666Z</time></trkpt><trkpt lat="38.098635" lon="15.8396433"><ele>1398.0</ele><time>2026-04-25T09:42:20.666Z</time></trkpt><trkpt lat="38.0986933" lon="15.8397217"><ele>1401.5</ele><time>2026-04-25T09:42:21.666Z</time></trkpt><trkpt lat="38.0987683" lon="15.8397617"><ele>1405.0</ele><time>2026-04-25T09:42:22.667Z</time></trkpt><trkpt lat="38.09885" lon="15.8397767"><ele>1408.5</ele><time>2026-04-25T09:42:23.666Z</time></trkpt><trkpt lat="38.0989367" lon="15.8397433"><ele>1412.0</ele><time>2026-04-25T09:42:24.666Z</time></trkpt><trkpt lat="38.09904" lon="15.8396917"><ele>1408.6</ele><time>2026-04-25T09:42:25.666Z</time></trkpt><trkpt lat="38.0991433" lon="15.8396583"><ele>1405.1999999999998</ele><time>2026-04-25T09:42:26.666Z</time></trkpt><trkpt lat="38.099245" lon="15.8396817"><ele>1401.8</ele><time>2026-04-25T09:42:27.666Z</time></trkpt><trkpt lat="38.099345" lon="15.8397183"><ele>1398.4</ele><time>2026-04-25T09:42:28.666Z</time></trkpt><trkpt lat="38.0994433" lon="15.8397583"><ele>1395.0</ele><time>2026-04-25T09:42:29.667Z</time></trkpt><trkpt lat="38.099545" lon="15.8397633"><ele>1395.0</ele><time>2026-04-25T09:42:30.666Z</time></trkpt><trkpt lat="38.0996617" lon="15.8397117"><ele>1395.0</ele><time>2026-04-25T09:42:31.666Z</time></trkpt><trkpt lat="38.0997733" lon="15.8396017"><ele>1395.0</ele><time>2026-04-25T09:42:32.666Z</time></trkpt><trkpt lat="38.09987" lon="15.8394967"><ele>1395.0</ele><time>2026-04-25T09:42:33.666Z</time></trkpt><trkpt lat="38.0999583" lon="15.839435"><ele>1394.25</ele><time>2026-04-25T09:42:34.666Z</time></trkpt><trkpt lat="38.1000583" lon="15.839425"><ele>1393.5</ele><time>2026-04-25T09:42:35.666Z</time></trkpt><trkpt lat="38.1001783" lon="15.8394683"><ele>1392.75</ele><time>2026-04-25T09:42:36.667Z</time></trkpt><trkpt lat="38.1003083" lon="15.839555"><ele>1392.0</ele><time>2026-04-25T09:42:37.666Z</time></trkpt><trkpt lat="38.10046" lon="15.8396767"><ele>1392.0</ele><time>2026-04-25T09:42:38.666Z</time></trkpt><trkpt lat="38.1006233" lon="15.8398033"><ele>1392.0</ele><time>2026-04-25T09:42:39.667Z</time></trkpt><trkpt lat="38.1008" lon="15.8399367"><ele>1392.0</ele><time>2026-04-25T09:42:40.666Z</time></trkpt><trkpt lat="38.10099" lon="15.8400667"><ele>1398.6666666666667</ele><time>2026-04-25T09:42:41.666Z</time></trkpt><trkpt lat="38.1011567" lon="15.8402017"><ele>1405.3333333333335</ele><time>2026-04-25T09:42:42.666Z</time></trkpt><trkpt lat="38.1013133" lon="15.8403233"><ele>1412.0</ele><time>2026-04-25T09:42:43.666Z</time></trkpt><trkpt lat="38.101475" lon="15.8404433"><ele>1400.3333333333335</ele><time>2026-04-25T09:42:44.666Z</time></trkpt><trkpt lat="38.101645" lon="15.84055"><ele>1388.6666666666667</ele><time>2026-04-25T09:42:45.666Z</time></trkpt><trkpt lat="38.10178" lon="15.8406633"><ele>1377.0</ele><time>2026-04-25T09:42:46.666Z</time></trkpt><trkpt lat="38.1018983" lon="15.8407783"><ele>1377.0</ele><time>2026-04-25T09:42:47.666Z</time></trkpt><trkpt lat="38.1020083" lon="15.8408783"><ele>1377.0</ele><time>2026-04-25T09:42:48.666Z</time></trkpt><trkpt lat="38.1021133" lon="15.8409883"><ele>1377.0</ele><time>2026-04-25T09:42:49.666Z</time></trkpt><trkpt lat="38.1021933" lon="15.84111"><ele>1377.0</ele><time>2026-04-25T09:42:50.666Z</time></trkpt><trkpt lat="38.10224" lon="15.8412383"><ele>1377.0</ele><time>2026-04-25T09:42:51.666Z</time></trkpt><trkpt lat="38.10229" lon="15.8413417"><ele>1377.0</ele><time>2026-04-25T09:42:52.666Z</time></trkpt><trkpt lat="38.10236" lon="15.841415"><ele>1377.0</ele><time>2026-04-25T09:42:53.666Z</time></trkpt><trkpt lat="38.1024633" lon="15.8414633"><ele>1377.0</ele><time>2026-04-25T09:42:54.666Z</time></trkpt><trkpt lat="38.102585" lon="15.841485"><ele>1377.0</ele><time>2026-04-25T09:42:55.666Z</time></trkpt><trkpt lat="38.1027133" lon="15.8415183"><ele>1377.0</ele><time>2026-04-25T09:42:56.666Z</time></trkpt><trkpt lat="38.102845" lon="15.8415633"><ele>1377.0</ele><time>2026-04-25T09:42:57.666Z</time></trkpt><trkpt lat="38.102955" lon="15.8416133"><ele>1377.0</ele><time>2026-04-25T09:42:58.666Z</time></trkpt><trkpt lat="38.1030583" lon="15.84168"><ele>1377.0</ele><time>2026-04-25T09:42:59.667Z</time></trkpt><trkpt lat="38.1031467" lon="15.8417583"><ele>1379.1999999999998</ele><time>2026-04-25T09:43:00.666Z</time></trkpt><trkpt lat="38.1032217" lon="15.8418617"><ele>1381.4</ele><time>2026-04-25T09:43:01.667Z</time></trkpt><trkpt lat="38.10328" lon="15.8419717"><ele>1383.6</ele><time>2026-04-25T09:43:02.666Z</time></trkpt><trkpt lat="38.1033317" lon="15.842075"><ele>1385.8000000000002</ele><time>2026-04-25T09:43:03.667Z</time></trkpt><trkpt lat="38.103415" lon="15.8421483"><ele>1388.0</ele><time>2026-04-25T09:43:04.666Z</time></trkpt><trkpt lat="38.1035417" lon="15.8421833"><ele>1388.0</ele><time>2026-04-25T09:43:05.667Z</time></trkpt><trkpt lat="38.1036767" lon="15.842215"><ele>1388.0</ele><time>2026-04-25T09:43:06.666Z</time></trkpt><trkpt lat="38.1038133" lon="15.8422633"><ele>1388.0</ele><time>2026-04-25T09:43:07.666Z</time></trkpt><trkpt lat="38.1039417" lon="15.842345"><ele>1388.0</ele><time>2026-04-25T09:43:08.666Z</time></trkpt><trkpt lat="38.1040767" lon="15.8424583"><ele>1388.6666666666667</ele><time>2026-04-25T09:43:09.666Z</time></trkpt><trkpt lat="38.104205" lon="15.842605"><ele>1389.3333333333333</ele><time>2026-04-25T09:43:10.666Z</time></trkpt><trkpt lat="38.1043117" lon="15.8427467"><ele>1390.0</ele><time>2026-04-25T09:43:11.666Z</time></trkpt><trkpt lat="38.1044117" lon="15.84288"><ele>1390.0</ele><time>2026-04-25T09:43:12.666Z</time></trkpt><trkpt lat="38.10451" lon="15.8429783"><ele>1390.0</ele><time>2026-04-25T09:43:13.666Z</time></trkpt><trkpt lat="38.10463" lon="15.843055"><ele>1390.0</ele><time>2026-04-25T09:43:14.666Z</time></trkpt><trkpt lat="38.1047533" lon="15.84312"><ele>1390.0</ele><time>2026-04-25T09:43:15.666Z</time></trkpt><trkpt lat="38.1048533" lon="15.843205"><ele>1385.75</ele><time>2026-04-25T09:43:16.666Z</time></trkpt><trkpt lat="38.1049417" lon="15.8433383"><ele>1381.5</ele><time>2026-04-25T09:43:17.666Z</time></trkpt><trkpt lat="38.1050083" lon="15.8435067"><ele>1377.25</ele><time>2026-04-25T09:43:18.666Z</time></trkpt><trkpt lat="38.1050683" lon="15.8436817"><ele>1373.0</ele><time>2026-04-25T09:43:19.666Z</time></trkpt><trkpt lat="38.10513" lon="15.8438417"><ele>1373.0</ele><time>2026-04-25T09:43:20.667Z</time></trkpt><trkpt lat="38.1051783" lon="15.843995"><ele>1373.0</ele><time>2026-04-25T09:43:21.666Z</time></trkpt><trkpt lat="38.1052667" lon="15.844125"><ele>1373.0</ele><time>2026-04-25T09:43:22.666Z</time></trkpt><trkpt lat="38.1053483" lon="15.8442383"><ele>1373.0</ele><time>2026-04-25T09:43:23.667Z</time></trkpt><trkpt lat="38.105415" lon="15.8443617"><ele>1375.2</ele><time>2026-04-25T09:43:24.666Z</time></trkpt><trkpt lat="38.1054433" lon="15.8445083"><ele>1377.4</ele><time>2026-04-25T09:43:25.666Z</time></trkpt><trkpt lat="38.1054517" lon="15.8446433"><ele>1379.6000000000001</ele><time>2026-04-25T09:43:26.666Z</time></trkpt><trkpt lat="38.1054483" lon="15.84477"><ele>1381.8000000000002</ele><time>2026-04-25T09:43:27.666Z</time></trkpt><trkpt lat="38.1054483" lon="15.8448767"><ele>1384.0</ele><time>2026-04-25T09:43:28.666Z</time></trkpt><trkpt lat="38.1054717" lon="15.8450017"><ele>1384.0</ele><time>2026-04-25T09:43:30.666Z</time></trkpt><trkpt lat="38.1055317" lon="15.8450467"><ele>1384.0</ele><time>2026-04-25T09:43:32.666Z</time></trkpt><trkpt lat="38.105615" lon="15.8450317"><ele>1384.0</ele><time>2026-04-25T09:43:35.666Z</time></trkpt><trkpt lat="38.1057083" lon="15.8449967"><ele>1384.0</ele><time>2026-04-25T09:43:37.666Z</time></trkpt><trkpt lat="38.10577" lon="15.8449783"><ele>1384.0</ele><time>2026-04-25T09:43:38.666Z</time></trkpt><trkpt lat="38.10585" lon="15.8449633"><ele>1384.0</ele><time>2026-04-25T09:43:39.666Z</time></trkpt><trkpt lat="38.10594" lon="15.8449517"><ele>1377.6</ele><time>2026-04-25T09:43:40.666Z</time></trkpt><trkpt lat="38.106045" lon="15.84495"><ele>1371.2</ele><time>2026-04-25T09:43:41.666Z</time></trkpt><trkpt lat="38.1061333" lon="15.844945"><ele>1364.8</ele><time>2026-04-25T09:43:42.666Z</time></trkpt><trkpt lat="38.1062433" lon="15.8449217"><ele>1358.3999999999999</ele><time>2026-04-25T09:43:43.666Z</time></trkpt><trkpt lat="38.1063417" lon="15.8448883"><ele>1352.0</ele><time>2026-04-25T09:43:44.667Z</time></trkpt><trkpt lat="38.10645" lon="15.84488"><ele>1352.0</ele><time>2026-04-25T09:43:45.666Z</time></trkpt><trkpt lat="38.10657" lon="15.8449033"><ele>1352.0</ele><time>2026-04-25T09:43:46.666Z</time></trkpt><trkpt lat="38.1067" lon="15.8449683"><ele>1352.0</ele><time>2026-04-25T09:43:47.666Z</time></trkpt><trkpt lat="38.1068267" lon="15.8450683"><ele>1352.0</ele><time>2026-04-25T09:43:48.666Z</time></trkpt><trkpt lat="38.1069417" lon="15.8451867"><ele>1358.25</ele><time>2026-04-25T09:43:49.666Z</time></trkpt><trkpt lat="38.1070367" lon="15.8453233"><ele>1364.5</ele><time>2026-04-25T09:43:50.667Z</time></trkpt><trkpt lat="38.1071133" lon="15.84547"><ele>1370.75</ele><time>2026-04-25T09:43:51.666Z</time></trkpt><trkpt lat="38.1071883" lon="15.8456067"><ele>1377.0</ele><time>2026-04-25T09:43:52.667Z</time></trkpt><trkpt lat="38.1072583" lon="15.845745"><ele>1377.0</ele><time>2026-04-25T09:43:53.666Z</time></trkpt><trkpt lat="38.1073117" lon="15.8458817"><ele>1377.0</ele><time>2026-04-25T09:43:54.666Z</time></trkpt><trkpt lat="38.1073533" lon="15.8460083"><ele>1377.0</ele><time>2026-04-25T09:43:55.666Z</time></trkpt><trkpt lat="38.10738" lon="15.8461483"><ele>1377.0</ele><time>2026-04-25T09:43:56.666Z</time></trkpt><trkpt lat="38.107385" lon="15.8462967"><ele>1377.1999999999998</ele><time>2026-04-25T09:43:57.667Z</time></trkpt><trkpt lat="38.10738" lon="15.8464433"><ele>1377.4</ele><time>2026-04-25T09:43:58.667Z</time></trkpt><trkpt lat="38.107355" lon="15.8465717"><ele>1377.6</ele><time>2026-04-25T09:43:59.666Z</time></trkpt><trkpt lat="38.10729" lon="15.8466783"><ele>1377.8000000000002</ele><time>2026-04-25T09:44:00.666Z</time></trkpt><trkpt lat="38.10721" lon="15.84678"><ele>1378.0</ele><time>2026-04-25T09:44:01.666Z</time></trkpt><trkpt lat="38.1071367" lon="15.846895"><ele>1378.0</ele><time>2026-04-25T09:44:02.666Z</time></trkpt><trkpt lat="38.1070883" lon="15.8470417"><ele>1378.0</ele><time>2026-04-25T09:44:03.666Z</time></trkpt><trkpt lat="38.10704" lon="15.8472217"><ele>1378.0</ele><time>2026-04-25T09:44:04.667Z</time></trkpt><trkpt lat="38.107005" lon="15.8473683"><ele>1378.0</ele><time>2026-04-25T09:44:05.666Z</time></trkpt><trkpt lat="38.1069883" lon="15.8474933"><ele>1378.0</ele><time>2026-04-25T09:44:06.666Z</time></trkpt><trkpt lat="38.1069833" lon="15.8475967"><ele>1378.0</ele><time>2026-04-25T09:44:07.666Z</time></trkpt><trkpt lat="38.1070033" lon="15.847685"><ele>1378.0</ele><time>2026-04-25T09:44:08.666Z</time></trkpt><trkpt lat="38.1070467" lon="15.8477633"><ele>1378.0</ele><time>2026-04-25T09:44:09.666Z</time></trkpt><trkpt lat="38.1071" lon="15.8478333"><ele>1378.0</ele><time>2026-04-25T09:44:10.666Z</time></trkpt><trkpt lat="38.1071667" lon="15.8478717"><ele>1378.0</ele><time>2026-04-25T09:44:11.666Z</time></trkpt><trkpt lat="38.1072483" lon="15.84788"><ele>1377.25</ele><time>2026-04-25T09:44:12.666Z</time></trkpt><trkpt lat="38.1073383" lon="15.84786"><ele>1376.5</ele><time>2026-04-25T09:44:13.666Z</time></trkpt><trkpt lat="38.107425" lon="15.847845"><ele>1375.75</ele><time>2026-04-25T09:44:14.666Z</time></trkpt><trkpt lat="38.107545" lon="15.8477883"><ele>1375.0</ele><time>2026-04-25T09:44:15.666Z</time></trkpt><trkpt lat="38.1076883" lon="15.8477233"><ele>1371.3333333333333</ele><time>2026-04-25T09:44:16.666Z</time></trkpt><trkpt lat="38.1078383" lon="15.8476433"><ele>1367.6666666666667</ele><time>2026-04-25T09:44:17.667Z</time></trkpt><trkpt lat="38.1079867" lon="15.8475567"><ele>1364.0</ele><time>2026-04-25T09:44:18.666Z</time></trkpt><trkpt lat="38.108135" lon="15.8474733"><ele>1360.0</ele><time>2026-04-25T09:44:19.666Z</time></trkpt><trkpt lat="38.1082817" lon="15.8473717"><ele>1356.0</ele><time>2026-04-25T09:44:20.666Z</time></trkpt><trkpt lat="38.1084" lon="15.8472417"><ele>1352.0</ele><time>2026-04-25T09:44:21.666Z</time></trkpt><trkpt lat="38.1085117" lon="15.8471117"><ele>1352.0</ele><time>2026-04-25T09:44:22.666Z</time></trkpt><trkpt lat="38.1086233" lon="15.8469733"><ele>1352.0</ele><time>2026-04-25T09:44:23.666Z</time></trkpt><trkpt lat="38.1087517" lon="15.846865"><ele>1352.0</ele><time>2026-04-25T09:44:24.666Z</time></trkpt><trkpt lat="38.108885" lon="15.8467583"><ele>1352.75</ele><time>2026-04-25T09:44:25.666Z</time></trkpt><trkpt lat="38.1090117" lon="15.8466683"><ele>1353.5</ele><time>2026-04-25T09:44:26.666Z</time></trkpt><trkpt lat="38.1091317" lon="15.846565"><ele>1354.25</ele><time>2026-04-25T09:44:27.666Z</time></trkpt><trkpt lat="38.1092333" lon="15.8464667"><ele>1355.0</ele><time>2026-04-25T09:44:28.666Z</time></trkpt><trkpt lat="38.1093233" lon="15.8463567"><ele>1355.0</ele><time>2026-04-25T09:44:29.666Z</time></trkpt><trkpt lat="38.10939" lon="15.8462233"><ele>1355.0</ele><time>2026-04-25T09:44:30.666Z</time></trkpt><trkpt lat="38.1094317" lon="15.84608"><ele>1355.0</ele><time>2026-04-25T09:44:31.666Z</time></trkpt><trkpt lat="38.1094783" lon="15.8459633"><ele>1355.0</ele><time>2026-04-25T09:44:32.666Z</time></trkpt><trkpt lat="38.10955" lon="15.8458983"><ele>1355.0</ele><time>2026-04-25T09:44:33.667Z</time></trkpt><trkpt lat="38.109645" lon="15.8458633"><ele>1355.6</ele><time>2026-04-25T09:44:34.666Z</time></trkpt><trkpt lat="38.1097517" lon="15.8458767"><ele>1356.2</ele><time>2026-04-25T09:44:35.666Z</time></trkpt><trkpt lat="38.1098683" lon="15.8459283"><ele>1356.8000000000002</ele><time>2026-04-25T09:44:36.666Z</time></trkpt><trkpt lat="38.1099633" lon="15.8459633"><ele>1357.4</ele><time>2026-04-25T09:44:37.666Z</time></trkpt><trkpt lat="38.1100367" lon="15.8459483"><ele>1358.0</ele><time>2026-04-25T09:44:38.667Z</time></trkpt><trkpt lat="38.110115" lon="15.845915"><ele>1358.0</ele><time>2026-04-25T09:44:39.666Z</time></trkpt><trkpt lat="38.11017" lon="15.8458467"><ele>1358.0</ele><time>2026-04-25T09:44:40.666Z</time></trkpt><trkpt lat="38.1101833" lon="15.84572"><ele>1358.0</ele><time>2026-04-25T09:44:41.666Z</time></trkpt><trkpt lat="38.110185" lon="15.8455633"><ele>1358.0</ele><time>2026-04-25T09:44:42.666Z</time></trkpt><trkpt lat="38.1101833" lon="15.8454033"><ele>1358.0</ele><time>2026-04-25T09:44:43.666Z</time></trkpt><trkpt lat="38.11017" lon="15.8452683"><ele>1359.0</ele><time>2026-04-25T09:44:44.666Z</time></trkpt><trkpt lat="38.1101317" lon="15.8451133"><ele>1360.0</ele><time>2026-04-25T09:44:45.666Z</time></trkpt><trkpt lat="38.1100867" lon="15.8449483"><ele>1361.0</ele><time>2026-04-25T09:44:46.666Z</time></trkpt><trkpt lat="38.1100333" lon="15.8447917"><ele>1362.0</ele><time>2026-04-25T09:44:47.666Z</time></trkpt><trkpt lat="38.1099567" lon="15.8446617"><ele>1364.0</ele><time>2026-04-25T09:44:48.666Z</time></trkpt><trkpt lat="38.1098483" lon="15.8445417"><ele>1366.0</ele><time>2026-04-25T09:44:49.666Z</time></trkpt><trkpt lat="38.1097267" lon="15.8444217"><ele>1368.0</ele><time>2026-04-25T09:44:50.666Z</time></trkpt><trkpt lat="38.1096083" lon="15.8443067"><ele>1370.0</ele><time>2026-04-25T09:44:51.666Z</time></trkpt><trkpt lat="38.10949" lon="15.84421"><ele>1370.0</ele><time>2026-04-25T09:44:52.666Z</time></trkpt><trkpt lat="38.1093783" lon="15.8441133"><ele>1370.0</ele><time>2026-04-25T09:44:53.666Z</time></trkpt><trkpt lat="38.1092667" lon="15.8440133"><ele>1370.0</ele><time>2026-04-25T09:44:54.666Z</time></trkpt><trkpt lat="38.1091533" lon="15.8439017"><ele>1370.0</ele><time>2026-04-25T09:44:55.666Z</time></trkpt><trkpt lat="38.109065" lon="15.8438017"><ele>1364.2</ele><time>2026-04-25T09:44:56.667Z</time></trkpt><trkpt lat="38.1090083" lon="15.84372"><ele>1358.4</ele><time>2026-04-25T09:44:57.666Z</time></trkpt><trkpt lat="38.1089617" lon="15.84363"><ele>1352.6</ele><time>2026-04-25T09:44:58.666Z</time></trkpt><trkpt lat="38.1089383" lon="15.843515"><ele>1346.8</ele><time>2026-04-25T09:44:59.666Z</time></trkpt><trkpt lat="38.1089233" lon="15.8433933"><ele>1341.0</ele><time>2026-04-25T09:45:00.666Z</time></trkpt><trkpt lat="38.1089133" lon="15.8432533"><ele>1341.0</ele><time>2026-04-25T09:45:01.666Z</time></trkpt><trkpt lat="38.1088967" lon="15.8431083"><ele>1341.0</ele><time>2026-04-25T09:45:02.666Z</time></trkpt><trkpt lat="38.1088733" lon="15.8429533"><ele>1341.0</ele><time>2026-04-25T09:45:03.666Z</time></trkpt><trkpt lat="38.108805" lon="15.84274"><ele>1341.0</ele><time>2026-04-25T09:45:04.666Z</time></trkpt><trkpt lat="38.1087317" lon="15.84257"><ele>1346.25</ele><time>2026-04-25T09:45:05.666Z</time></trkpt><trkpt lat="38.1086433" lon="15.8424183"><ele>1351.5</ele><time>2026-04-25T09:45:06.667Z</time></trkpt><trkpt lat="38.1085483" lon="15.8422667"><ele>1356.75</ele><time>2026-04-25T09:45:07.666Z</time></trkpt><trkpt lat="38.1084683" lon="15.84215"><ele>1362.0</ele><time>2026-04-25T09:45:08.667Z</time></trkpt><trkpt lat="38.10841" lon="15.8420117"><ele>1362.0</ele><time>2026-04-25T09:45:09.666Z</time></trkpt><trkpt lat="38.1083733" lon="15.84188"><ele>1362.0</ele><time>2026-04-25T09:45:10.666Z</time></trkpt><trkpt lat="38.108395" lon="15.8416917"><ele>1362.0</ele><time>2026-04-25T09:45:11.666Z</time></trkpt><trkpt lat="38.1083783" lon="15.8415567"><ele>1362.0</ele><time>2026-04-25T09:45:12.666Z</time></trkpt><trkpt lat="38.1083783" lon="15.84142"><ele>1365.0</ele><time>2026-04-25T09:45:13.666Z</time></trkpt><trkpt lat="38.1084033" lon="15.8413267"><ele>1368.0</ele><time>2026-04-25T09:45:14.666Z</time></trkpt><trkpt lat="38.108495" lon="15.8412383"><ele>1371.0</ele><time>2026-04-25T09:45:16.666Z</time></trkpt><trkpt lat="38.1085717" lon="15.84123"><ele>1374.0</ele><time>2026-04-25T09:45:17.666Z</time></trkpt><trkpt lat="38.1086633" lon="15.8412367"><ele>1377.0</ele><time>2026-04-25T09:45:18.667Z</time></trkpt><trkpt lat="38.1087667" lon="15.841255"><ele>1377.0</ele><time>2026-04-25T09:45:19.666Z</time></trkpt><trkpt lat="38.1089033" lon="15.8413317"><ele>1377.0</ele><time>2026-04-25T09:45:20.666Z</time></trkpt><trkpt lat="38.10905" lon="15.8413967"><ele>1377.0</ele><time>2026-04-25T09:45:21.666Z</time></trkpt><trkpt lat="38.109215" lon="15.841455"><ele>1380.25</ele><time>2026-04-25T09:45:22.667Z</time></trkpt><trkpt lat="38.1093817" lon="15.8414767"><ele>1383.5</ele><time>2026-04-25T09:45:23.666Z</time></trkpt><trkpt lat="38.1095133" lon="15.84149"><ele>1386.75</ele><time>2026-04-25T09:45:24.666Z</time></trkpt><trkpt lat="38.109645" lon="15.8414567"><ele>1390.0</ele><time>2026-04-25T09:45:25.666Z</time></trkpt><trkpt lat="38.1097517" lon="15.841375"><ele>1390.0</ele><time>2026-04-25T09:45:26.666Z</time></trkpt><trkpt lat="38.1098417" lon="15.8412667"><ele>1390.0</ele><time>2026-04-25T09:45:27.666Z</time></trkpt><trkpt lat="38.1098883" lon="15.8411317"><ele>1390.0</ele><time>2026-04-25T09:45:28.666Z</time></trkpt><trkpt lat="38.1098967" lon="15.8409733"><ele>1390.0</ele><time>2026-04-25T09:45:29.667Z</time></trkpt><trkpt lat="38.1099067" lon="15.8408233"><ele>1390.2</ele><time>2026-04-25T09:45:30.666Z</time></trkpt><trkpt lat="38.10994" lon="15.8407017"><ele>1390.4</ele><time>2026-04-25T09:45:31.666Z</time></trkpt><trkpt lat="38.1100083" lon="15.8405967"><ele>1390.6</ele><time>2026-04-25T09:45:32.666Z</time></trkpt><trkpt lat="38.1100817" lon="15.840525"><ele>1390.8</ele><time>2026-04-25T09:45:33.666Z</time></trkpt><trkpt lat="38.1101567" lon="15.840485"><ele>1391.0</ele><time>2026-04-25T09:45:34.666Z</time></trkpt><trkpt lat="38.1102383" lon="15.8404717"><ele>1391.0</ele><time>2026-04-25T09:45:35.667Z</time></trkpt><trkpt lat="38.1103267" lon="15.840475"><ele>1391.0</ele><time>2026-04-25T09:45:36.666Z</time></trkpt><trkpt lat="38.1104467" lon="15.8405033"><ele>1391.0</ele><time>2026-04-25T09:45:37.666Z</time></trkpt><trkpt lat="38.1105483" lon="15.840535"><ele>1391.0</ele><time>2026-04-25T09:45:38.666Z</time></trkpt><trkpt lat="38.1106867" lon="15.8406317"><ele>1389.6666666666667</ele><time>2026-04-25T09:45:39.666Z</time></trkpt><trkpt lat="38.1108167" lon="15.8407517"><ele>1388.3333333333333</ele><time>2026-04-25T09:45:40.666Z</time></trkpt><trkpt lat="38.1109867" lon="15.8409767"><ele>1387.0</ele><time>2026-04-25T09:45:41.666Z</time></trkpt><trkpt lat="38.11115" lon="15.841195"><ele>1385.6666666666665</ele><time>2026-04-25T09:45:42.667Z</time></trkpt><trkpt lat="38.1113083" lon="15.84141"><ele>1384.3333333333333</ele><time>2026-04-25T09:45:43.666Z</time></trkpt><trkpt lat="38.1114567" lon="15.8415983"><ele>1383.0</ele><time>2026-04-25T09:45:44.666Z</time></trkpt><trkpt lat="38.11158" lon="15.84175"><ele>1390.0</ele><time>2026-04-25T09:45:45.666Z</time></trkpt><trkpt lat="38.111665" lon="15.841905"><ele>1397.0</ele><time>2026-04-25T09:45:46.666Z</time></trkpt><trkpt lat="38.11171" lon="15.8420467"><ele>1404.0</ele><time>2026-04-25T09:45:47.666Z</time></trkpt><trkpt lat="38.1117633" lon="15.8421817"><ele>1411.0</ele><time>2026-04-25T09:45:48.667Z</time></trkpt><trkpt lat="38.11179" lon="15.8423117"><ele>1411.0</ele><time>2026-04-25T09:45:49.666Z</time></trkpt><trkpt lat="38.111835" lon="15.8424267"><ele>1411.0</ele><time>2026-04-25T09:45:50.666Z</time></trkpt><trkpt lat="38.1118983" lon="15.84252"><ele>1411.0</ele><time>2026-04-25T09:45:51.666Z</time></trkpt><trkpt lat="38.1119833" lon="15.8425933"><ele>1411.0</ele><time>2026-04-25T09:45:52.666Z</time></trkpt><trkpt lat="38.1120783" lon="15.8426617"><ele>1411.0</ele><time>2026-04-25T09:45:53.666Z</time></trkpt><trkpt lat="38.11222" lon="15.8427017"><ele>1415.3333333333333</ele><time>2026-04-25T09:45:54.667Z</time></trkpt><trkpt lat="38.1123983" lon="15.842715"><ele>1419.6666666666667</ele><time>2026-04-25T09:45:55.667Z</time></trkpt><trkpt lat="38.1125883" lon="15.842715"><ele>1424.0</ele><time>2026-04-25T09:45:56.666Z</time></trkpt><trkpt lat="38.112765" lon="15.8427083"><ele>1424.0</ele><time>2026-04-25T09:45:57.666Z</time></trkpt><trkpt lat="38.112915" lon="15.84271"><ele>1424.0</ele><time>2026-04-25T09:45:58.666Z</time></trkpt><trkpt lat="38.1130667" lon="15.84269"><ele>1424.0</ele><time>2026-04-25T09:45:59.666Z</time></trkpt><trkpt lat="38.11321" lon="15.84272"><ele>1424.0</ele><time>2026-04-25T09:46:00.667Z</time></trkpt><trkpt lat="38.1133317" lon="15.842755"><ele>1422.0</ele><time>2026-04-25T09:46:01.666Z</time></trkpt><trkpt lat="38.1134467" lon="15.842845"><ele>1420.0</ele><time>2026-04-25T09:46:02.666Z</time></trkpt><trkpt lat="38.113555" lon="15.8429067"><ele>1418.0</ele><time>2026-04-25T09:46:03.666Z</time></trkpt><trkpt lat="38.11366" lon="15.8429317"><ele>1416.0</ele><time>2026-04-25T09:46:04.666Z</time></trkpt><trkpt lat="38.113765" lon="15.8429067"><ele>1416.0</ele><time>2026-04-25T09:46:05.666Z</time></trkpt><trkpt lat="38.1138733" lon="15.842855"><ele>1416.0</ele><time>2026-04-25T09:46:06.666Z</time></trkpt><trkpt lat="38.1139733" lon="15.8428267"><ele>1416.0</ele><time>2026-04-25T09:46:07.666Z</time></trkpt><trkpt lat="38.114075" lon="15.8428417"><ele>1416.0</ele><time>2026-04-25T09:46:08.666Z</time></trkpt><trkpt lat="38.1141583" lon="15.84292"><ele>1416.0</ele><time>2026-04-25T09:46:09.666Z</time></trkpt><trkpt lat="38.1142433" lon="15.84303"><ele>1412.6</ele><time>2026-04-25T09:46:10.666Z</time></trkpt><trkpt lat="38.11432" lon="15.843165"><ele>1409.1999999999998</ele><time>2026-04-25T09:46:11.666Z</time></trkpt><trkpt lat="38.11439" lon="15.84329"><ele>1405.8000000000002</ele><time>2026-04-25T09:46:12.667Z</time></trkpt><trkpt lat="38.1144667" lon="15.8433867"><ele>1402.4</ele><time>2026-04-25T09:46:13.666Z</time></trkpt><trkpt lat="38.1145467" lon="15.8434333"><ele>1399.0</ele><time>2026-04-25T09:46:14.666Z</time></trkpt><trkpt lat="38.1146133" lon="15.84346"><ele>1399.0</ele><time>2026-04-25T09:46:15.667Z</time></trkpt><trkpt lat="38.1146867" lon="15.84346"><ele>1399.0</ele><time>2026-04-25T09:46:16.666Z</time></trkpt><trkpt lat="38.1147733" lon="15.843435"><ele>1399.0</ele><time>2026-04-25T09:46:17.666Z</time></trkpt><trkpt lat="38.1148767" lon="15.8433717"><ele>1399.0</ele><time>2026-04-25T09:46:18.666Z</time></trkpt><trkpt lat="38.1149933" lon="15.8432767"><ele>1399.0</ele><time>2026-04-25T09:46:19.667Z</time></trkpt><trkpt lat="38.1151167" lon="15.8431417"><ele>1395.5</ele><time>2026-04-25T09:46:20.666Z</time></trkpt><trkpt lat="38.115225" lon="15.84301"><ele>1392.0</ele><time>2026-04-25T09:46:21.666Z</time></trkpt><trkpt lat="38.1153283" lon="15.842915"><ele>1388.5</ele><time>2026-04-25T09:46:22.666Z</time></trkpt><trkpt lat="38.11543" lon="15.8428717"><ele>1385.0</ele><time>2026-04-25T09:46:23.666Z</time></trkpt><trkpt lat="38.1155267" lon="15.8428483"><ele>1385.0</ele><time>2026-04-25T09:46:24.666Z</time></trkpt><trkpt lat="38.1156117" lon="15.842855"><ele>1385.0</ele><time>2026-04-25T09:46:25.666Z</time></trkpt><trkpt lat="38.1156983" lon="15.842895"><ele>1385.0</ele><time>2026-04-25T09:46:26.666Z</time></trkpt><trkpt lat="38.1157867" lon="15.8429617"><ele>1385.0</ele><time>2026-04-25T09:46:27.666Z</time></trkpt><trkpt lat="38.11586" lon="15.84304"><ele>1385.0</ele><time>2026-04-25T09:46:28.666Z</time></trkpt><trkpt lat="38.1159433" lon="15.8431133"><ele>1386.8</ele><time>2026-04-25T09:46:29.666Z</time></trkpt><trkpt lat="38.1160367" lon="15.843155"><ele>1388.6</ele><time>2026-04-25T09:46:30.666Z</time></trkpt><trkpt lat="38.1161467" lon="15.84318"><ele>1390.4</ele><time>2026-04-25T09:46:31.667Z</time></trkpt><trkpt lat="38.1162617" lon="15.84319"><ele>1392.2</ele><time>2026-04-25T09:46:32.666Z</time></trkpt><trkpt lat="38.1163783" lon="15.84317"><ele>1394.0</ele><time>2026-04-25T09:46:33.666Z</time></trkpt><trkpt lat="38.116475" lon="15.8431483"><ele>1390.4</ele><time>2026-04-25T09:46:34.666Z</time></trkpt><trkpt lat="38.1165717" lon="15.8431117"><ele>1386.8000000000002</ele><time>2026-04-25T09:46:35.666Z</time></trkpt><trkpt lat="38.11667" lon="15.8430983"><ele>1383.1999999999998</ele><time>2026-04-25T09:46:36.666Z</time></trkpt><trkpt lat="38.116785" lon="15.84312"><ele>1379.6</ele><time>2026-04-25T09:46:37.666Z</time></trkpt><trkpt lat="38.11691" lon="15.8431733"><ele>1376.0</ele><time>2026-04-25T09:46:38.667Z</time></trkpt><trkpt lat="38.117035" lon="15.84324"><ele>1376.0</ele><time>2026-04-25T09:46:39.666Z</time></trkpt><trkpt lat="38.11716" lon="15.8433117"><ele>1376.0</ele><time>2026-04-25T09:46:40.666Z</time></trkpt><trkpt lat="38.117275" lon="15.8433667"><ele>1376.0</ele><time>2026-04-25T09:46:41.666Z</time></trkpt><trkpt lat="38.1173783" lon="15.8434117"><ele>1376.0</ele><time>2026-04-25T09:46:42.667Z</time></trkpt><trkpt lat="38.1174683" lon="15.8434583"><ele>1375.1999999999998</ele><time>2026-04-25T09:46:43.666Z</time></trkpt><trkpt lat="38.1175433" lon="15.8434817"><ele>1374.3999999999999</ele><time>2026-04-25T09:46:44.667Z</time></trkpt><trkpt lat="38.117665" lon="15.8434783"><ele>1373.6</ele><time>2026-04-25T09:46:46.666Z</time></trkpt><trkpt lat="38.1177517" lon="15.8433933"><ele>1372.8</ele><time>2026-04-25T09:46:48.666Z</time></trkpt><trkpt lat="38.1177567" lon="15.843215"><ele>1372.0</ele><time>2026-04-25T09:46:50.666Z</time></trkpt><trkpt lat="38.11775" lon="15.8430983"><ele>1372.0</ele><time>2026-04-25T09:46:51.666Z</time></trkpt><trkpt lat="38.1177267" lon="15.8429717"><ele>1372.0</ele><time>2026-04-25T09:46:52.667Z</time></trkpt><trkpt lat="38.1176683" lon="15.8428417"><ele>1372.0</ele><time>2026-04-25T09:46:53.666Z</time></trkpt><trkpt lat="38.1175883" lon="15.8427283"><ele>1372.0</ele><time>2026-04-25T09:46:54.667Z</time></trkpt><trkpt lat="38.1174817" lon="15.84263"><ele>1369.1999999999998</ele><time>2026-04-25T09:46:55.666Z</time></trkpt><trkpt lat="38.1174" lon="15.8425267"><ele>1366.4</ele><time>2026-04-25T09:46:56.666Z</time></trkpt><trkpt lat="38.11734" lon="15.8424233"><ele>1363.6</ele><time>2026-04-25T09:46:57.666Z</time></trkpt><trkpt lat="38.11729" lon="15.8423233"><ele>1360.8000000000002</ele><time>2026-04-25T09:46:58.667Z</time></trkpt><trkpt lat="38.117245" lon="15.8422067"><ele>1358.0</ele><time>2026-04-25T09:46:59.666Z</time></trkpt><trkpt lat="38.117195" lon="15.8420883"><ele>1358.0</ele><time>2026-04-25T09:47:00.666Z</time></trkpt><trkpt lat="38.117135" lon="15.841965"><ele>1358.0</ele><time>2026-04-25T09:47:01.666Z</time></trkpt><trkpt lat="38.1170617" lon="15.8418583"><ele>1358.0</ele><time>2026-04-25T09:47:02.666Z</time></trkpt><trkpt lat="38.116995" lon="15.8417767"><ele>1358.0</ele><time>2026-04-25T09:47:03.666Z</time></trkpt><trkpt lat="38.1169217" lon="15.8417233"><ele>1358.0</ele><time>2026-04-25T09:47:04.666Z</time></trkpt><trkpt lat="38.1168283" lon="15.8416767"><ele>1357.6000000000001</ele><time>2026-04-25T09:47:05.666Z</time></trkpt><trkpt lat="38.1167383" lon="15.8416317"><ele>1357.2</ele><time>2026-04-25T09:47:06.667Z</time></trkpt><trkpt lat="38.1166367" lon="15.8416"><ele>1356.8</ele><time>2026-04-25T09:47:07.666Z</time></trkpt><trkpt lat="38.1165333" lon="15.8415517"><ele>1356.4</ele><time>2026-04-25T09:47:08.666Z</time></trkpt><trkpt lat="38.1164217" lon="15.8414933"><ele>1356.0</ele><time>2026-04-25T09:47:09.666Z</time></trkpt><trkpt lat="38.1163083" lon="15.8414433"><ele>1356.0</ele><time>2026-04-25T09:47:10.666Z</time></trkpt><trkpt lat="38.1161917" lon="15.8413767"><ele>1356.0</ele><time>2026-04-25T09:47:11.666Z</time></trkpt><trkpt lat="38.1160917" lon="15.84129"><ele>1356.0</ele><time>2026-04-25T09:47:12.666Z</time></trkpt><trkpt lat="38.115995" lon="15.8412017"><ele>1356.0</ele><time>2026-04-25T09:47:13.666Z</time></trkpt><trkpt lat="38.1159067" lon="15.841105"><ele>1356.0</ele><time>2026-04-25T09:47:14.666Z</time></trkpt><trkpt lat="38.1158383" lon="15.84098"><ele>1356.0</ele><time>2026-04-25T09:47:15.666Z</time></trkpt><trkpt lat="38.115785" lon="15.8408367"><ele>1356.0</ele><time>2026-04-25T09:47:16.666Z</time></trkpt><trkpt lat="38.1157283" lon="15.8406933"><ele>1356.0</ele><time>2026-04-25T09:47:17.666Z</time></trkpt><trkpt lat="38.11564" lon="15.8405417"><ele>1351.6666666666667</ele><time>2026-04-25T09:47:18.666Z</time></trkpt><trkpt lat="38.1155417" lon="15.8403917"><ele>1347.3333333333335</ele><time>2026-04-25T09:47:19.666Z</time></trkpt><trkpt lat="38.1154433" lon="15.8402433"><ele>1343.0</ele><time>2026-04-25T09:47:20.667Z</time></trkpt><trkpt lat="38.11534" lon="15.840085"><ele>1349.75</ele><time>2026-04-25T09:47:21.666Z</time></trkpt><trkpt lat="38.1152433" lon="15.8399317"><ele>1356.5</ele><time>2026-04-25T09:47:22.666Z</time></trkpt><trkpt lat="38.11516" lon="15.8397983"><ele>1363.25</ele><time>2026-04-25T09:47:23.667Z</time></trkpt><trkpt lat="38.115085" lon="15.83966"><ele>1370.0</ele><time>2026-04-25T09:47:24.666Z</time></trkpt><trkpt lat="38.1150417" lon="15.8395567"><ele>1370.0</ele><time>2026-04-25T09:47:25.666Z</time></trkpt><trkpt lat="38.1150317" lon="15.8394167"><ele>1370.0</ele><time>2026-04-25T09:47:26.666Z</time></trkpt><trkpt lat="38.1150283" lon="15.839305"><ele>1370.0</ele><time>2026-04-25T09:47:27.667Z</time></trkpt><trkpt lat="38.1150517" lon="15.8391833"><ele>1370.0</ele><time>2026-04-25T09:47:28.666Z</time></trkpt><trkpt lat="38.1150917" lon="15.8390783"><ele>1370.0</ele><time>2026-04-25T09:47:29.667Z</time></trkpt><trkpt lat="38.1151433" lon="15.8389767"><ele>1373.75</ele><time>2026-04-25T09:47:30.666Z</time></trkpt><trkpt lat="38.1152217" lon="15.8388667"><ele>1377.5</ele><time>2026-04-25T09:47:31.666Z</time></trkpt><trkpt lat="38.1153133" lon="15.8387617"><ele>1381.25</ele><time>2026-04-25T09:47:32.666Z</time></trkpt><trkpt lat="38.1154083" lon="15.83862"><ele>1385.0</ele><time>2026-04-25T09:47:33.666Z</time></trkpt><trkpt lat="38.11551" lon="15.83847"><ele>1389.3333333333335</ele><time>2026-04-25T09:47:34.666Z</time></trkpt><trkpt lat="38.115605" lon="15.8383017"><ele>1393.6666666666667</ele><time>2026-04-25T09:47:35.666Z</time></trkpt><trkpt lat="38.11571" lon="15.8381217"><ele>1398.0</ele><time>2026-04-25T09:47:36.666Z</time></trkpt><trkpt lat="38.115805" lon="15.8379617"><ele>1398.0</ele><time>2026-04-25T09:47:37.667Z</time></trkpt><trkpt lat="38.1158883" lon="15.8378283"><ele>1398.0</ele><time>2026-04-25T09:47:38.666Z</time></trkpt><trkpt lat="38.116005" lon="15.837735"><ele>1398.0</ele><time>2026-04-25T09:47:39.666Z</time></trkpt><trkpt lat="38.116125" lon="15.837675"><ele>1398.0</ele><time>2026-04-25T09:47:40.666Z</time></trkpt><trkpt lat="38.1162783" lon="15.837655"><ele>1398.0</ele><time>2026-04-25T09:47:41.666Z</time></trkpt><trkpt lat="38.116435" lon="15.837675"><ele>1398.0</ele><time>2026-04-25T09:47:42.666Z</time></trkpt><trkpt lat="38.1165833" lon="15.8376783"><ele>1398.0</ele><time>2026-04-25T09:47:43.666Z</time></trkpt><trkpt lat="38.1167233" lon="15.8376667"><ele>1398.0</ele><time>2026-04-25T09:47:44.666Z</time></trkpt><trkpt lat="38.1168717" lon="15.837615"><ele>1392.3333333333333</ele><time>2026-04-25T09:47:45.666Z</time></trkpt><trkpt lat="38.1170067" lon="15.837525"><ele>1386.6666666666665</ele><time>2026-04-25T09:47:46.667Z</time></trkpt><trkpt lat="38.1171233" lon="15.8373967"><ele>1381.0</ele><time>2026-04-25T09:47:47.666Z</time></trkpt><trkpt lat="38.1172067" lon="15.8372333"><ele>1381.0</ele><time>2026-04-25T09:47:48.667Z</time></trkpt><trkpt lat="38.1172567" lon="15.8370533"><ele>1381.0</ele><time>2026-04-25T09:47:49.666Z</time></trkpt><trkpt lat="38.1172917" lon="15.8368833"><ele>1381.0</ele><time>2026-04-25T09:47:50.667Z</time></trkpt><trkpt lat="38.1173583" lon="15.8367467"><ele>1381.0</ele><time>2026-04-25T09:47:51.667Z</time></trkpt><trkpt lat="38.11746" lon="15.8366367"><ele>1381.6666666666665</ele><time>2026-04-25T09:47:52.667Z</time></trkpt><trkpt lat="38.1175833" lon="15.8365483"><ele>1382.3333333333333</ele><time>2026-04-25T09:47:53.666Z</time></trkpt><trkpt lat="38.1177217" lon="15.8364683"><ele>1383.0</ele><time>2026-04-25T09:47:54.666Z</time></trkpt><trkpt lat="38.1178683" lon="15.8363767"><ele>1383.0</ele><time>2026-04-25T09:47:55.666Z</time></trkpt><trkpt lat="38.11802" lon="15.836285"><ele>1383.0</ele><time>2026-04-25T09:47:56.666Z</time></trkpt><trkpt lat="38.1181733" lon="15.8361833"><ele>1383.0</ele><time>2026-04-25T09:47:57.666Z</time></trkpt><trkpt lat="38.118325" lon="15.836095"><ele>1381.3333333333333</ele><time>2026-04-25T09:47:58.666Z</time></trkpt><trkpt lat="38.1184767" lon="15.8360133"><ele>1379.6666666666665</ele><time>2026-04-25T09:47:59.666Z</time></trkpt><trkpt lat="38.1186117" lon="15.8359133"><ele>1378.0</ele><time>2026-04-25T09:48:00.666Z</time></trkpt><trkpt lat="38.1187167" lon="15.8357733"><ele>1378.0</ele><time>2026-04-25T09:48:01.667Z</time></trkpt><trkpt lat="38.1187983" lon="15.8356067"><ele>1378.0</ele><time>2026-04-25T09:48:02.666Z</time></trkpt><trkpt lat="38.118865" lon="15.8354167"><ele>1378.0</ele><time>2026-04-25T09:48:03.666Z</time></trkpt><trkpt lat="38.1189283" lon="15.8352517"><ele>1379.0</ele><time>2026-04-25T09:48:04.666Z</time></trkpt><trkpt lat="38.119" lon="15.8351267"><ele>1380.0</ele><time>2026-04-25T09:48:05.666Z</time></trkpt><trkpt lat="38.11909" lon="15.83506"><ele>1381.0</ele><time>2026-04-25T09:48:06.666Z</time></trkpt><trkpt lat="38.1192133" lon="15.8350167"><ele>1382.0</ele><time>2026-04-25T09:48:07.666Z</time></trkpt><trkpt lat="38.1193417" lon="15.8349883"><ele>1382.0</ele><time>2026-04-25T09:48:08.667Z</time></trkpt><trkpt lat="38.119455" lon="15.8349633"><ele>1382.0</ele><time>2026-04-25T09:48:09.667Z</time></trkpt><trkpt lat="38.1195583" lon="15.834965"><ele>1382.0</ele><time>2026-04-25T09:48:10.666Z</time></trkpt><trkpt lat="38.11964" lon="15.8350017"><ele>1382.0</ele><time>2026-04-25T09:48:11.666Z</time></trkpt><trkpt lat="38.1196883" lon="15.8350817"><ele>1382.0</ele><time>2026-04-25T09:48:12.666Z</time></trkpt><trkpt lat="38.1197067" lon="15.835175"><ele>1386.6</ele><time>2026-04-25T09:48:13.667Z</time></trkpt><trkpt lat="38.1197017" lon="15.8352783"><ele>1391.1999999999998</ele><time>2026-04-25T09:48:14.666Z</time></trkpt><trkpt lat="38.1196683" lon="15.8354217"><ele>1395.8</ele><time>2026-04-25T09:48:15.666Z</time></trkpt><trkpt lat="38.119665" lon="15.8355717"><ele>1400.4</ele><time>2026-04-25T09:48:16.666Z</time></trkpt><trkpt lat="38.1196917" lon="15.8357167"><ele>1405.0</ele><time>2026-04-25T09:48:17.666Z</time></trkpt><trkpt lat="38.1197533" lon="15.8358383"><ele>1405.0</ele><time>2026-04-25T09:48:18.666Z</time></trkpt><trkpt lat="38.1198333" lon="15.8359367"><ele>1405.0</ele><time>2026-04-25T09:48:19.666Z</time></trkpt><trkpt lat="38.1199267" lon="15.836005"><ele>1405.0</ele><time>2026-04-25T09:48:20.666Z</time></trkpt><trkpt lat="38.1200333" lon="15.83603"><ele>1405.0</ele><time>2026-04-25T09:48:21.666Z</time></trkpt><trkpt lat="38.1201633" lon="15.8360133"><ele>1416.0</ele><time>2026-04-25T09:48:22.666Z</time></trkpt><trkpt lat="38.12032" lon="15.8359817"><ele>1427.0</ele><time>2026-04-25T09:48:23.666Z</time></trkpt><trkpt lat="38.12048" lon="15.8359983"><ele>1438.0</ele><time>2026-04-25T09:48:24.666Z</time></trkpt><trkpt lat="38.1206367" lon="15.8360233"><ele>1440.0</ele><time>2026-04-25T09:48:25.666Z</time></trkpt><trkpt lat="38.1207767" lon="15.8360283"><ele>1442.0</ele><time>2026-04-25T09:48:26.666Z</time></trkpt><trkpt lat="38.120895" lon="15.8360017"><ele>1444.0</ele><time>2026-04-25T09:48:27.667Z</time></trkpt><trkpt lat="38.1209967" lon="15.8359133"><ele>1446.0</ele><time>2026-04-25T09:48:28.666Z</time></trkpt><trkpt lat="38.1210617" lon="15.8358017"><ele>1436.25</ele><time>2026-04-25T09:48:29.666Z</time></trkpt><trkpt lat="38.1210883" lon="15.8356533"><ele>1426.5</ele><time>2026-04-25T09:48:30.666Z</time></trkpt><trkpt lat="38.1210883" lon="15.835485"><ele>1416.75</ele><time>2026-04-25T09:48:31.666Z</time></trkpt><trkpt lat="38.1210817" lon="15.8353133"><ele>1407.0</ele><time>2026-04-25T09:48:32.666Z</time></trkpt><trkpt lat="38.1210983" lon="15.8351517"><ele>1403.25</ele><time>2026-04-25T09:48:33.666Z</time></trkpt><trkpt lat="38.1211267" lon="15.8350067"><ele>1399.5</ele><time>2026-04-25T09:48:34.666Z</time></trkpt><trkpt lat="38.1211717" lon="15.8348733"><ele>1395.75</ele><time>2026-04-25T09:48:35.666Z</time></trkpt><trkpt lat="38.1212317" lon="15.834745"><ele>1392.0</ele><time>2026-04-25T09:48:36.667Z</time></trkpt><trkpt lat="38.12129" lon="15.83462"><ele>1392.0</ele><time>2026-04-25T09:48:37.667Z</time></trkpt><trkpt lat="38.1213433" lon="15.8344917"><ele>1392.0</ele><time>2026-04-25T09:48:38.666Z</time></trkpt><trkpt lat="38.1213833" lon="15.834355"><ele>1392.0</ele><time>2026-04-25T09:48:39.666Z</time></trkpt><trkpt lat="38.1214133" lon="15.8342267"><ele>1392.0</ele><time>2026-04-25T09:48:40.667Z</time></trkpt><trkpt lat="38.1214383" lon="15.8341133"><ele>1392.0</ele><time>2026-04-25T09:48:41.666Z</time></trkpt><trkpt lat="38.12146" lon="15.8340133"><ele>1393.0</ele><time>2026-04-25T09:48:42.667Z</time></trkpt><trkpt lat="38.1214633" lon="15.8339017"><ele>1394.0</ele><time>2026-04-25T09:48:43.666Z</time></trkpt><trkpt lat="38.1214567" lon="15.8338067"><ele>1395.0</ele><time>2026-04-25T09:48:44.666Z</time></trkpt><trkpt lat="38.121435" lon="15.8337067"><ele>1396.0</ele><time>2026-04-25T09:48:45.667Z</time></trkpt><trkpt lat="38.1214117" lon="15.8336"><ele>1397.0</ele><time>2026-04-25T09:48:46.666Z</time></trkpt><trkpt lat="38.1213733" lon="15.8334917"><ele>1398.0</ele><time>2026-04-25T09:48:47.666Z</time></trkpt><trkpt lat="38.1213517" lon="15.8333817"><ele>1398.0</ele><time>2026-04-25T09:48:48.667Z</time></trkpt><trkpt lat="38.1213483" lon="15.8332883"><ele>1398.0</ele><time>2026-04-25T09:48:49.666Z</time></trkpt><trkpt lat="38.1213533" lon="15.833205"><ele>1398.0</ele><time>2026-04-25T09:48:50.666Z</time></trkpt><trkpt lat="38.1214067" lon="15.833085"><ele>1398.0</ele><time>2026-04-25T09:48:52.667Z</time></trkpt><trkpt lat="38.1215" lon="15.833"><ele>1398.0</ele><time>2026-04-25T09:48:54.666Z</time></trkpt><trkpt lat="38.12157" lon="15.8329733"><ele>1398.0</ele><time>2026-04-25T09:48:55.666Z</time></trkpt><trkpt lat="38.12165" lon="15.8329767"><ele>1402.0</ele><time>2026-04-25T09:48:56.666Z</time></trkpt><trkpt lat="38.1217267" lon="15.832965"><ele>1406.0</ele><time>2026-04-25T09:48:57.666Z</time></trkpt><trkpt lat="38.1218133" lon="15.832965"><ele>1410.0</ele><time>2026-04-25T09:48:58.666Z</time></trkpt><trkpt lat="38.1219183" lon="15.8329783"><ele>1414.0</ele><time>2026-04-25T09:48:59.666Z</time></trkpt><trkpt lat="38.1220367" lon="15.833005"><ele>1418.0</ele><time>2026-04-25T09:49:00.666Z</time></trkpt><trkpt lat="38.122145" lon="15.8330417"><ele>1418.0</ele><time>2026-04-25T09:49:01.666Z</time></trkpt><trkpt lat="38.1222617" lon="15.8330633"><ele>1418.0</ele><time>2026-04-25T09:49:02.666Z</time></trkpt><trkpt lat="38.12237" lon="15.833105"><ele>1418.0</ele><time>2026-04-25T09:49:03.667Z</time></trkpt><trkpt lat="38.1224833" lon="15.8332117"><ele>1418.0</ele><time>2026-04-25T09:49:04.666Z</time></trkpt><trkpt lat="38.1225883" lon="15.8333317"><ele>1417.5</ele><time>2026-04-25T09:49:05.666Z</time></trkpt><trkpt lat="38.1226717" lon="15.83346"><ele>1417.0</ele><time>2026-04-25T09:49:06.667Z</time></trkpt><trkpt lat="38.1227383" lon="15.8336117"><ele>1416.5</ele><time>2026-04-25T09:49:07.666Z</time></trkpt><trkpt lat="38.122815" lon="15.8337717"><ele>1416.0</ele><time>2026-04-25T09:49:08.666Z</time></trkpt><trkpt lat="38.122875" lon="15.8338983"><ele>1415.1999999999998</ele><time>2026-04-25T09:49:09.666Z</time></trkpt><trkpt lat="38.1229433" lon="15.8340067"><ele>1414.3999999999999</ele><time>2026-04-25T09:49:10.666Z</time></trkpt><trkpt lat="38.123015" lon="15.8340817"><ele>1413.6</ele><time>2026-04-25T09:49:11.666Z</time></trkpt><trkpt lat="38.1231083" lon="15.8341067"><ele>1412.8</ele><time>2026-04-25T09:49:12.666Z</time></trkpt><trkpt lat="38.1232" lon="15.834125"><ele>1412.0</ele><time>2026-04-25T09:49:13.666Z</time></trkpt><trkpt lat="38.1233033" lon="15.8341267"><ele>1412.0</ele><time>2026-04-25T09:49:14.666Z</time></trkpt><trkpt lat="38.1233983" lon="15.8341"><ele>1412.0</ele><time>2026-04-25T09:49:15.666Z</time></trkpt><trkpt lat="38.1235" lon="15.8341367"><ele>1412.0</ele><time>2026-04-25T09:49:16.666Z</time></trkpt><trkpt lat="38.1235917" lon="15.834225"><ele>1412.0</ele><time>2026-04-25T09:49:17.666Z</time></trkpt><trkpt lat="38.123675" lon="15.83434"><ele>1412.0</ele><time>2026-04-25T09:49:18.666Z</time></trkpt><trkpt lat="38.1237817" lon="15.8344767"><ele>1411.5</ele><time>2026-04-25T09:49:19.666Z</time></trkpt><trkpt lat="38.123895" lon="15.8346133"><ele>1411.0</ele><time>2026-04-25T09:49:20.666Z</time></trkpt><trkpt lat="38.123995" lon="15.834735"><ele>1410.5</ele><time>2026-04-25T09:49:21.666Z</time></trkpt><trkpt lat="38.124085" lon="15.834845"><ele>1410.0</ele><time>2026-04-25T09:49:22.666Z</time></trkpt><trkpt lat="38.1241733" lon="15.8349117"><ele>1410.0</ele><time>2026-04-25T09:49:23.666Z</time></trkpt><trkpt lat="38.1242417" lon="15.8349333"><ele>1410.0</ele><time>2026-04-25T09:49:24.666Z</time></trkpt><trkpt lat="38.1243133" lon="15.83493"><ele>1410.0</ele><time>2026-04-25T09:49:25.666Z</time></trkpt><trkpt lat="38.1243867" lon="15.8348967"><ele>1410.0</ele><time>2026-04-25T09:49:26.666Z</time></trkpt><trkpt lat="38.124445" lon="15.8348333"><ele>1410.0</ele><time>2026-04-25T09:49:27.666Z</time></trkpt><trkpt lat="38.1245" lon="15.8347333"><ele>1410.0</ele><time>2026-04-25T09:49:28.667Z</time></trkpt><trkpt lat="38.1245567" lon="15.834595"><ele>1410.0</ele><time>2026-04-25T09:49:29.666Z</time></trkpt><trkpt lat="38.1246133" lon="15.8344583"><ele>1410.0</ele><time>2026-04-25T09:49:30.667Z</time></trkpt><trkpt lat="38.1246883" lon="15.8343217"><ele>1410.0</ele><time>2026-04-25T09:49:31.666Z</time></trkpt><trkpt lat="38.1247767" lon="15.834205"><ele>1410.0</ele><time>2026-04-25T09:49:32.666Z</time></trkpt><trkpt lat="38.1248817" lon="15.8341167"><ele>1406.5</ele><time>2026-04-25T09:49:33.666Z</time></trkpt><trkpt lat="38.125" lon="15.8340933"><ele>1403.0</ele><time>2026-04-25T09:49:34.666Z</time></trkpt><trkpt lat="38.1251217" lon="15.8341033"><ele>1399.5</ele><time>2026-04-25T09:49:35.666Z</time></trkpt><trkpt lat="38.1252567" lon="15.8341433"><ele>1396.0</ele><time>2026-04-25T09:49:36.666Z</time></trkpt><trkpt lat="38.1254067" lon="15.8342067"><ele>1396.0</ele><time>2026-04-25T09:49:37.666Z</time></trkpt><trkpt lat="38.1255633" lon="15.8342883"><ele>1396.0</ele><time>2026-04-25T09:49:38.666Z</time></trkpt><trkpt lat="38.1257083" lon="15.834385"><ele>1396.0</ele><time>2026-04-25T09:49:39.666Z</time></trkpt><trkpt lat="38.1258183" lon="15.83448"><ele>1398.5</ele><time>2026-04-25T09:49:40.666Z</time></trkpt><trkpt lat="38.1259" lon="15.8345933"><ele>1401.0</ele><time>2026-04-25T09:49:41.666Z</time></trkpt><trkpt lat="38.1259567" lon="15.83473"><ele>1403.5</ele><time>2026-04-25T09:49:42.667Z</time></trkpt><trkpt lat="38.12599" lon="15.83487"><ele>1406.0</ele><time>2026-04-25T09:49:43.666Z</time></trkpt><trkpt lat="38.1260683" lon="15.8350033"><ele>1406.0</ele><time>2026-04-25T09:49:44.666Z</time></trkpt><trkpt lat="38.1261767" lon="15.8351283"><ele>1406.0</ele><time>2026-04-25T09:49:45.667Z</time></trkpt><trkpt lat="38.126295" lon="15.83525"><ele>1406.0</ele><time>2026-04-25T09:49:46.666Z</time></trkpt><trkpt lat="38.1264433" lon="15.8353717"><ele>1406.0</ele><time>2026-04-25T09:49:47.667Z</time></trkpt><trkpt lat="38.12661" lon="15.8355033"><ele>1406.0</ele><time>2026-04-25T09:49:48.667Z</time></trkpt><trkpt lat="38.1267717" lon="15.8356467"><ele>1406.0</ele><time>2026-04-25T09:49:49.666Z</time></trkpt><trkpt lat="38.1269283" lon="15.83578"><ele>1406.0</ele><time>2026-04-25T09:49:50.667Z</time></trkpt><trkpt lat="38.127095" lon="15.83589"><ele>1406.0</ele><time>2026-04-25T09:49:51.667Z</time></trkpt><trkpt lat="38.12726" lon="15.835975"><ele>1406.0</ele><time>2026-04-25T09:49:52.666Z</time></trkpt><trkpt lat="38.127405" lon="15.8360667"><ele>1406.25</ele><time>2026-04-25T09:49:53.666Z</time></trkpt><trkpt lat="38.1275383" lon="15.8361233"><ele>1406.5</ele><time>2026-04-25T09:49:54.666Z</time></trkpt><trkpt lat="38.1276583" lon="15.836165"><ele>1406.75</ele><time>2026-04-25T09:49:55.667Z</time></trkpt><trkpt lat="38.1277783" lon="15.8361583"><ele>1407.0</ele><time>2026-04-25T09:49:56.666Z</time></trkpt><trkpt lat="38.127895" lon="15.8360833"><ele>1407.0</ele><time>2026-04-25T09:49:57.666Z</time></trkpt><trkpt lat="38.1279933" lon="15.8359833"><ele>1407.0</ele><time>2026-04-25T09:49:58.666Z</time></trkpt><trkpt lat="38.1281033" lon="15.8359417"><ele>1407.0</ele><time>2026-04-25T09:49:59.666Z</time></trkpt><trkpt lat="38.1282117" lon="15.8359483"><ele>1407.0</ele><time>2026-04-25T09:50:00.666Z</time></trkpt><trkpt lat="38.1283133" lon="15.8360017"><ele>1400.6666666666667</ele><time>2026-04-25T09:50:01.666Z</time></trkpt><trkpt lat="38.1284433" lon="15.8361133"><ele>1394.3333333333335</ele><time>2026-04-25T09:50:02.666Z</time></trkpt><trkpt lat="38.1285633" lon="15.8362383"><ele>1388.0</ele><time>2026-04-25T09:50:03.666Z</time></trkpt><trkpt lat="38.1286617" lon="15.8363717"><ele>1388.0</ele><time>2026-04-25T09:50:04.666Z</time></trkpt><trkpt lat="38.1287417" lon="15.8365233"><ele>1388.0</ele><time>2026-04-25T09:50:05.666Z</time></trkpt><trkpt lat="38.1288017" lon="15.8366617"><ele>1388.0</ele><time>2026-04-25T09:50:06.666Z</time></trkpt><trkpt lat="38.1288333" lon="15.8368283"><ele>1388.0</ele><time>2026-04-25T09:50:07.666Z</time></trkpt><trkpt lat="38.1288633" lon="15.8369817"><ele>1385.5</ele><time>2026-04-25T09:50:08.666Z</time></trkpt><trkpt lat="38.1289017" lon="15.8371267"><ele>1383.0</ele><time>2026-04-25T09:50:09.666Z</time></trkpt><trkpt lat="38.1289383" lon="15.83728"><ele>1380.5</ele><time>2026-04-25T09:50:10.667Z</time></trkpt><trkpt lat="38.1290067" lon="15.837405"><ele>1378.0</ele><time>2026-04-25T09:50:11.667Z</time></trkpt><trkpt lat="38.1290817" lon="15.8374833"><ele>1378.0</ele><time>2026-04-25T09:50:12.666Z</time></trkpt><trkpt lat="38.129185" lon="15.8375383"><ele>1378.0</ele><time>2026-04-25T09:50:13.666Z</time></trkpt><trkpt lat="38.1292933" lon="15.8375417"><ele>1378.0</ele><time>2026-04-25T09:50:14.666Z</time></trkpt><trkpt lat="38.1293967" lon="15.8375067"><ele>1378.0</ele><time>2026-04-25T09:50:15.667Z</time></trkpt><trkpt lat="38.1295" lon="15.83739"><ele>1378.0</ele><time>2026-04-25T09:50:16.666Z</time></trkpt><trkpt lat="38.1296017" lon="15.8372483"><ele>1378.0</ele><time>2026-04-25T09:50:17.666Z</time></trkpt><trkpt lat="38.1297117" lon="15.8370767"><ele>1378.0</ele><time>2026-04-25T09:50:18.666Z</time></trkpt><trkpt lat="38.12984" lon="15.836865"><ele>1377.0</ele><time>2026-04-25T09:50:19.666Z</time></trkpt><trkpt lat="38.1299833" lon="15.8366333"><ele>1376.0</ele><time>2026-04-25T09:50:20.666Z</time></trkpt><trkpt lat="38.1301167" lon="15.8363983"><ele>1376.0</ele><time>2026-04-25T09:50:21.667Z</time></trkpt><trkpt lat="38.1302483" lon="15.8361667"><ele>1376.0</ele><time>2026-04-25T09:50:22.666Z</time></trkpt><trkpt lat="38.1304583" lon="15.8357767"><ele>1376.8</ele><time>2026-04-25T09:50:24.666Z</time></trkpt><trkpt lat="38.1305433" lon="15.835645"><ele>1377.6</ele><time>2026-04-25T09:50:25.666Z</time></trkpt><trkpt lat="38.1306167" lon="15.83557"><ele>1378.4</ele><time>2026-04-25T09:50:26.667Z</time></trkpt><trkpt lat="38.1307017" lon="15.835495"><ele>1379.2</ele><time>2026-04-25T09:50:27.666Z</time></trkpt><trkpt lat="38.1307817" lon="15.8354683"><ele>1380.0</ele><time>2026-04-25T09:50:28.666Z</time></trkpt><trkpt lat="38.1308567" lon="15.8355"><ele>1380.0</ele><time>2026-04-25T09:50:29.667Z</time></trkpt><trkpt lat="38.1309433" lon="15.8355767"><ele>1380.0</ele><time>2026-04-25T09:50:30.666Z</time></trkpt><trkpt lat="38.1310333" lon="15.83568"><ele>1380.0</ele><time>2026-04-25T09:50:31.666Z</time></trkpt><trkpt lat="38.13114" lon="15.8358"><ele>1380.0</ele><time>2026-04-25T09:50:32.666Z</time></trkpt><trkpt lat="38.1312367" lon="15.8359017"><ele>1384.4</ele><time>2026-04-25T09:50:33.666Z</time></trkpt><trkpt lat="38.13132" lon="15.8359717"><ele>1388.8</ele><time>2026-04-25T09:50:34.666Z</time></trkpt><trkpt lat="38.131415" lon="15.8360217"><ele>1393.1999999999998</ele><time>2026-04-25T09:50:35.666Z</time></trkpt><trkpt lat="38.1314983" lon="15.8360483"><ele>1397.6</ele><time>2026-04-25T09:50:36.667Z</time></trkpt><trkpt lat="38.1315817" lon="15.8360567"><ele>1402.0</ele><time>2026-04-25T09:50:37.667Z</time></trkpt><trkpt lat="38.1316667" lon="15.836025"><ele>1397.0</ele><time>2026-04-25T09:50:38.666Z</time></trkpt><trkpt lat="38.1317383" lon="15.83595"><ele>1392.0</ele><time>2026-04-25T09:50:39.666Z</time></trkpt><trkpt lat="38.1318217" lon="15.8358183"><ele>1387.0</ele><time>2026-04-25T09:50:40.667Z</time></trkpt><trkpt lat="38.1318933" lon="15.8356817"><ele>1382.0</ele><time>2026-04-25T09:50:41.666Z</time></trkpt><trkpt lat="38.1319733" lon="15.8355683"><ele>1382.0</ele><time>2026-04-25T09:50:42.667Z</time></trkpt><trkpt lat="38.1320633" lon="15.8355033"><ele>1382.0</ele><time>2026-04-25T09:50:43.666Z</time></trkpt><trkpt lat="38.132145" lon="15.83547"><ele>1382.0</ele><time>2026-04-25T09:50:44.667Z</time></trkpt><trkpt lat="38.1322283" lon="15.8354517"><ele>1382.0</ele><time>2026-04-25T09:50:45.666Z</time></trkpt><trkpt lat="38.1323233" lon="15.8354383"><ele>1382.0</ele><time>2026-04-25T09:50:46.666Z</time></trkpt><trkpt lat="38.132435" lon="15.8354317"><ele>1382.75</ele><time>2026-04-25T09:50:47.667Z</time></trkpt><trkpt lat="38.1325683" lon="15.83548"><ele>1383.5</ele><time>2026-04-25T09:50:48.667Z</time></trkpt><trkpt lat="38.1326917" lon="15.8355783"><ele>1384.25</ele><time>2026-04-25T09:50:49.666Z</time></trkpt><trkpt lat="38.1328" lon="15.8356983"><ele>1385.0</ele><time>2026-04-25T09:50:50.666Z</time></trkpt><trkpt lat="38.132885" lon="15.835835"><ele>1391.0</ele><time>2026-04-25T09:50:51.667Z</time></trkpt><trkpt lat="38.132935" lon="15.835995"><ele>1397.0</ele><time>2026-04-25T09:50:52.667Z</time></trkpt><trkpt lat="38.13299" lon="15.8361833"><ele>1403.0</ele><time>2026-04-25T09:50:53.666Z</time></trkpt><trkpt lat="38.133055" lon="15.8363883"><ele>1403.0</ele><time>2026-04-25T09:50:54.666Z</time></trkpt><trkpt lat="38.1331267" lon="15.8365917"><ele>1403.0</ele><time>2026-04-25T09:50:55.666Z</time></trkpt><trkpt lat="38.1331783" lon="15.836785"><ele>1403.0</ele><time>2026-04-25T09:50:56.667Z</time></trkpt><trkpt lat="38.13321" lon="15.8369633"><ele>1398.0</ele><time>2026-04-25T09:50:57.666Z</time></trkpt><trkpt lat="38.13323" lon="15.83714"><ele>1393.0</ele><time>2026-04-25T09:50:58.667Z</time></trkpt><trkpt lat="38.1332467" lon="15.8373083"><ele>1388.0</ele><time>2026-04-25T09:50:59.666Z</time></trkpt><trkpt lat="38.1332917" lon="15.8374333"><ele>1383.0</ele><time>2026-04-25T09:51:00.667Z</time></trkpt><trkpt lat="38.1333367" lon="15.8375283"><ele>1383.0</ele><time>2026-04-25T09:51:01.666Z</time></trkpt><trkpt lat="38.13339" lon="15.8376133"><ele>1383.0</ele><time>2026-04-25T09:51:02.666Z</time></trkpt><trkpt lat="38.1334517" lon="15.8376667"><ele>1383.0</ele><time>2026-04-25T09:51:03.667Z</time></trkpt><trkpt lat="38.133525" lon="15.8376533"><ele>1383.0</ele><time>2026-04-25T09:51:04.667Z</time></trkpt><trkpt lat="38.1336017" lon="15.83759"><ele>1383.0</ele><time>2026-04-25T09:51:05.666Z</time></trkpt><trkpt lat="38.1336683" lon="15.83751"><ele>1383.0</ele><time>2026-04-25T09:51:06.666Z</time></trkpt><trkpt lat="38.1337317" lon="15.8374033"><ele>1383.0</ele><time>2026-04-25T09:51:07.666Z</time></trkpt><trkpt lat="38.1338017" lon="15.8372433"><ele>1383.0</ele><time>2026-04-25T09:51:08.666Z</time></trkpt><trkpt lat="38.1338617" lon="15.8371133"><ele>1383.0</ele><time>2026-04-25T09:51:09.666Z</time></trkpt><trkpt lat="38.133935" lon="15.8369067"><ele>1383.0</ele><time>2026-04-25T09:51:10.667Z</time></trkpt><trkpt lat="38.1340233" lon="15.83674"><ele>1382.3333333333333</ele><time>2026-04-25T09:51:11.666Z</time></trkpt><trkpt lat="38.1341383" lon="15.836505"><ele>1381.6666666666665</ele><time>2026-04-25T09:51:12.666Z</time></trkpt><trkpt lat="38.134275" lon="15.8363017"><ele>1381.0</ele><time>2026-04-25T09:51:13.666Z</time></trkpt><trkpt lat="38.1344183" lon="15.83612"><ele>1381.0</ele><time>2026-04-25T09:51:14.667Z</time></trkpt><trkpt lat="38.1345783" lon="15.8359767"><ele>1381.0</ele><time>2026-04-25T09:51:15.666Z</time></trkpt><trkpt lat="38.1347417" lon="15.8358817"><ele>1381.0</ele><time>2026-04-25T09:51:16.666Z</time></trkpt><trkpt lat="38.1349067" lon="15.83584"><ele>1377.3333333333333</ele><time>2026-04-25T09:51:17.666Z</time></trkpt><trkpt lat="38.135085" lon="15.83585"><ele>1373.6666666666667</ele><time>2026-04-25T09:51:18.666Z</time></trkpt><trkpt lat="38.13525" lon="15.835875"><ele>1370.0</ele><time>2026-04-25T09:51:19.666Z</time></trkpt><trkpt lat="38.1354033" lon="15.8359567"><ele>1374.3333333333335</ele><time>2026-04-25T09:51:20.666Z</time></trkpt><trkpt lat="38.1355517" lon="15.8360467"><ele>1378.6666666666667</ele><time>2026-04-25T09:51:21.666Z</time></trkpt><trkpt lat="38.1356883" lon="15.8362017"><ele>1383.0</ele><time>2026-04-25T09:51:22.666Z</time></trkpt><trkpt lat="38.1358267" lon="15.83636"><ele>1383.0</ele><time>2026-04-25T09:51:23.666Z</time></trkpt><trkpt lat="38.135945" lon="15.8365133"><ele>1383.0</ele><time>2026-04-25T09:51:24.666Z</time></trkpt><trkpt lat="38.136055" lon="15.836645"><ele>1383.0</ele><time>2026-04-25T09:51:25.667Z</time></trkpt><trkpt lat="38.1361667" lon="15.8367517"><ele>1383.0</ele><time>2026-04-25T09:51:26.666Z</time></trkpt><trkpt lat="38.1362767" lon="15.836785"><ele>1383.0</ele><time>2026-04-25T09:51:27.666Z</time></trkpt><trkpt lat="38.1363867" lon="15.836785"><ele>1383.0</ele><time>2026-04-25T09:51:28.667Z</time></trkpt><trkpt lat="38.136485" lon="15.836745"><ele>1383.0</ele><time>2026-04-25T09:51:29.666Z</time></trkpt><trkpt lat="38.1365633" lon="15.8366733"><ele>1383.0</ele><time>2026-04-25T09:51:30.666Z</time></trkpt><trkpt lat="38.1366167" lon="15.8365917"><ele>1383.75</ele><time>2026-04-25T09:51:31.666Z</time></trkpt><trkpt lat="38.136645" lon="15.8365"><ele>1384.5</ele><time>2026-04-25T09:51:32.667Z</time></trkpt><trkpt lat="38.1366283" lon="15.836385"><ele>1385.25</ele><time>2026-04-25T09:51:33.666Z</time></trkpt><trkpt lat="38.1366217" lon="15.8362367"><ele>1386.0</ele><time>2026-04-25T09:51:34.666Z</time></trkpt><trkpt lat="38.13657" lon="15.8360117"><ele>1383.6666666666667</ele><time>2026-04-25T09:51:35.666Z</time></trkpt><trkpt lat="38.1365433" lon="15.8357867"><ele>1381.3333333333335</ele><time>2026-04-25T09:51:36.666Z</time></trkpt><trkpt lat="38.136545" lon="15.83556"><ele>1379.0</ele><time>2026-04-25T09:51:37.666Z</time></trkpt><trkpt lat="38.136565" lon="15.83538"><ele>1379.0</ele><time>2026-04-25T09:51:38.666Z</time></trkpt><trkpt lat="38.1366167" lon="15.8352267"><ele>1379.0</ele><time>2026-04-25T09:51:39.667Z</time></trkpt><trkpt lat="38.1367033" lon="15.83512"><ele>1379.0</ele><time>2026-04-25T09:51:40.666Z</time></trkpt><trkpt lat="38.1368017" lon="15.8350733"><ele>1379.0</ele><time>2026-04-25T09:51:41.666Z</time></trkpt><trkpt lat="38.13692" lon="15.8350717"><ele>1379.0</ele><time>2026-04-25T09:51:42.666Z</time></trkpt><trkpt lat="38.1370233" lon="15.8350983"><ele>1379.0</ele><time>2026-04-25T09:51:43.666Z</time></trkpt><trkpt lat="38.1371117" lon="15.8351133"><ele>1379.0</ele><time>2026-04-25T09:51:44.666Z</time></trkpt><trkpt lat="38.137235" lon="15.8352167"><ele>1379.0</ele><time>2026-04-25T09:51:45.667Z</time></trkpt><trkpt lat="38.1373583" lon="15.83529"><ele>1383.3333333333335</ele><time>2026-04-25T09:51:46.667Z</time></trkpt><trkpt lat="38.1375067" lon="15.8354117"><ele>1387.6666666666667</ele><time>2026-04-25T09:51:47.666Z</time></trkpt><trkpt lat="38.1376767" lon="15.8355033"><ele>1392.0</ele><time>2026-04-25T09:51:48.666Z</time></trkpt><trkpt lat="38.13782" lon="15.83556"><ele>1392.0</ele><time>2026-04-25T09:51:49.666Z</time></trkpt><trkpt lat="38.1379633" lon="15.8355983"><ele>1392.0</ele><time>2026-04-25T09:51:50.666Z</time></trkpt><trkpt lat="38.138105" lon="15.83562"><ele>1392.0</ele><time>2026-04-25T09:51:51.666Z</time></trkpt><trkpt lat="38.13824" lon="15.8356067"><ele>1392.0</ele><time>2026-04-25T09:51:52.666Z</time></trkpt><trkpt lat="38.1383433" lon="15.8355683"><ele>1391.6666666666667</ele><time>2026-04-25T09:51:53.666Z</time></trkpt><trkpt lat="38.1384267" lon="15.835535"><ele>1391.3333333333333</ele><time>2026-04-25T09:51:54.666Z</time></trkpt><trkpt lat="38.1384717" lon="15.835465"><ele>1391.0</ele><time>2026-04-25T09:51:55.667Z</time></trkpt><trkpt lat="38.1384833" lon="15.8353833"><ele>1390.6666666666665</ele><time>2026-04-25T09:51:56.666Z</time></trkpt><trkpt lat="38.1384683" lon="15.8352683"><ele>1390.3333333333333</ele><time>2026-04-25T09:51:57.666Z</time></trkpt><trkpt lat="38.13845" lon="15.83515"><ele>1390.0</ele><time>2026-04-25T09:51:58.666Z</time></trkpt><trkpt lat="38.1384267" lon="15.8350267"><ele>1386.6666666666665</ele><time>2026-04-25T09:51:59.667Z</time></trkpt><trkpt lat="38.13841" lon="15.8348683"><ele>1383.3333333333333</ele><time>2026-04-25T09:52:00.666Z</time></trkpt><trkpt lat="38.1384133" lon="15.8346717"><ele>1380.0</ele><time>2026-04-25T09:52:01.666Z</time></trkpt><trkpt lat="38.1383833" lon="15.83446"><ele>1378.2</ele><time>2026-04-25T09:52:02.666Z</time></trkpt><trkpt lat="38.1383883" lon="15.8342917"><ele>1376.4</ele><time>2026-04-25T09:52:03.666Z</time></trkpt><trkpt lat="38.13843" lon="15.8341617"><ele>1374.6</ele><time>2026-04-25T09:52:04.666Z</time></trkpt><trkpt lat="38.1385067" lon="15.8340733"><ele>1372.8</ele><time>2026-04-25T09:52:05.667Z</time></trkpt><trkpt lat="38.1386" lon="15.8340433"><ele>1371.0</ele><time>2026-04-25T09:52:06.667Z</time></trkpt><trkpt lat="38.1387017" lon="15.8340483"><ele>1371.0</ele><time>2026-04-25T09:52:07.666Z</time></trkpt><trkpt lat="38.1388133" lon="15.8340917"><ele>1371.0</ele><time>2026-04-25T09:52:08.666Z</time></trkpt><trkpt lat="38.1389467" lon="15.8341283"><ele>1371.0</ele><time>2026-04-25T09:52:09.666Z</time></trkpt><trkpt lat="38.13906" lon="15.8341367"><ele>1371.0</ele><time>2026-04-25T09:52:10.667Z</time></trkpt><trkpt lat="38.1391883" lon="15.8341133"><ele>1372.0</ele><time>2026-04-25T09:52:11.666Z</time></trkpt><trkpt lat="38.139315" lon="15.8340433"><ele>1373.0</ele><time>2026-04-25T09:52:12.666Z</time></trkpt><trkpt lat="38.139435" lon="15.8339333"><ele>1374.0</ele><time>2026-04-25T09:52:13.667Z</time></trkpt><trkpt lat="38.1395383" lon="15.83384"><ele>1375.0</ele><time>2026-04-25T09:52:14.666Z</time></trkpt><trkpt lat="38.13965" lon="15.8338033"><ele>1375.0</ele><time>2026-04-25T09:52:15.666Z</time></trkpt><trkpt lat="38.1397633" lon="15.8338"><ele>1375.0</ele><time>2026-04-25T09:52:16.666Z</time></trkpt><trkpt lat="38.1398817" lon="15.833835"><ele>1375.0</ele><time>2026-04-25T09:52:17.666Z</time></trkpt><trkpt lat="38.1399967" lon="15.8338883"><ele>1375.0</ele><time>2026-04-25T09:52:18.666Z</time></trkpt><trkpt lat="38.1401133" lon="15.83399"><ele>1374.5</ele><time>2026-04-25T09:52:19.666Z</time></trkpt><trkpt lat="38.140225" lon="15.8341133"><ele>1374.0</ele><time>2026-04-25T09:52:20.666Z</time></trkpt><trkpt lat="38.1403133" lon="15.8342517"><ele>1373.5</ele><time>2026-04-25T09:52:21.666Z</time></trkpt><trkpt lat="38.1403883" lon="15.8343867"><ele>1373.0</ele><time>2026-04-25T09:52:22.666Z</time></trkpt><trkpt lat="38.1404533" lon="15.8345083"><ele>1373.3333333333335</ele><time>2026-04-25T09:52:23.666Z</time></trkpt><trkpt lat="38.14052" lon="15.8346"><ele>1373.6666666666667</ele><time>2026-04-25T09:52:24.666Z</time></trkpt><trkpt lat="38.1405933" lon="15.8346667"><ele>1374.0</ele><time>2026-04-25T09:52:25.666Z</time></trkpt><trkpt lat="38.1406667" lon="15.83466"><ele>1374.3333333333333</ele><time>2026-04-25T09:52:26.667Z</time></trkpt><trkpt lat="38.1407417" lon="15.83464"><ele>1374.6666666666665</ele><time>2026-04-25T09:52:27.666Z</time></trkpt><trkpt lat="38.1408233" lon="15.8346017"><ele>1375.0</ele><time>2026-04-25T09:52:28.666Z</time></trkpt><trkpt lat="38.1409333" lon="15.8345183"><ele>1375.0</ele><time>2026-04-25T09:52:29.666Z</time></trkpt><trkpt lat="38.141045" lon="15.8344333"><ele>1375.0</ele><time>2026-04-25T09:52:30.667Z</time></trkpt><trkpt lat="38.1411617" lon="15.8343567"><ele>1375.0</ele><time>2026-04-25T09:52:31.666Z</time></trkpt><trkpt lat="38.1412767" lon="15.8343"><ele>1375.0</ele><time>2026-04-25T09:52:32.666Z</time></trkpt><trkpt lat="38.1413867" lon="15.8342667"><ele>1390.0</ele><time>2026-04-25T09:52:33.666Z</time></trkpt><trkpt lat="38.1384833" lon="15.8353833"><ele>1390.0</ele><time>2026-04-25T09:51:56.666Z</time></trkpt><trkpt lat="38.1384683" lon="15.8352683"><ele>1390.0</ele><time>2026-04-25T09:51:57.666Z</time></trkpt><trkpt lat="38.13845" lon="15.83515"><ele>1390.0</ele><time>2026-04-25T09:51:58.666Z</time></trkpt><trkpt lat="38.1384267" lon="15.8350267"><ele>1390.0</ele><time>2026-04-25T09:51:59.667Z</time></trkpt><trkpt lat="38.13841" lon="15.8348683"><ele>1390.0</ele><time>2026-04-25T09:52:00.666Z</time></trkpt><trkpt lat="38.1384133" lon="15.8346717"><ele>1387.5</ele><time>2026-04-25T09:52:01.666Z</time></trkpt><trkpt lat="38.1383833" lon="15.83446"><ele>1385.0</ele><time>2026-04-25T09:52:02.666Z</time></trkpt><trkpt lat="38.1383883" lon="15.8342917"><ele>1382.5</ele><time>2026-04-25T09:52:03.666Z</time></trkpt><trkpt lat="38.13843" lon="15.8341617"><ele>1380.0</ele><time>2026-04-25T09:52:04.666Z</time></trkpt><trkpt lat="38.1385067" lon="15.8340733"><ele>1377.75</ele><time>2026-04-25T09:52:05.667Z</time></trkpt><trkpt lat="38.1386" lon="15.8340433"><ele>1375.5</ele><time>2026-04-25T09:52:06.667Z</time></trkpt><trkpt lat="38.1387017" lon="15.8340483"><ele>1373.25</ele><time>2026-04-25T09:52:07.666Z</time></trkpt><trkpt lat="38.1388133" lon="15.8340917"><ele>1371.0</ele><time>2026-04-25T09:52:08.666Z</time></trkpt><trkpt lat="38.1389467" lon="15.8341283"><ele>1372.0</ele><time>2026-04-25T09:52:09.666Z</time></trkpt><trkpt lat="38.13906" lon="15.8341367"><ele>1373.0</ele><time>2026-04-25T09:52:10.667Z</time></trkpt><trkpt lat="38.1391883" lon="15.8341133"><ele>1374.0</ele><time>2026-04-25T09:52:11.666Z</time></trkpt><trkpt lat="38.139315" lon="15.8340433"><ele>1375.0</ele><time>2026-04-25T09:52:12.666Z</time></trkpt><trkpt lat="38.139435" lon="15.8339333"><ele>1375.0</ele><time>2026-04-25T09:52:13.667Z</time></trkpt><trkpt lat="38.1395383" lon="15.83384"><ele>1375.0</ele><time>2026-04-25T09:52:14.666Z</time></trkpt><trkpt lat="38.13965" lon="15.8338033"><ele>1375.0</ele><time>2026-04-25T09:52:15.666Z</time></trkpt><trkpt lat="38.1397633" lon="15.8338"><ele>1375.0</ele><time>2026-04-25T09:52:16.666Z</time></trkpt><trkpt lat="38.1398817" lon="15.833835"><ele>1374.5</ele><time>2026-04-25T09:52:17.666Z</time></trkpt><trkpt lat="38.1399967" lon="15.8338883"><ele>1374.0</ele><time>2026-04-25T09:52:18.666Z</time></trkpt><trkpt lat="38.1401133" lon="15.83399"><ele>1373.5</ele><time>2026-04-25T09:52:19.666Z</time></trkpt><trkpt lat="38.140225" lon="15.8341133"><ele>1373.0</ele><time>2026-04-25T09:52:20.666Z</time></trkpt><trkpt lat="38.1403133" lon="15.8342517"><ele>1375.8000000000002</ele><time>2026-04-25T09:52:21.666Z</time></trkpt><trkpt lat="38.1403883" lon="15.8343867"><ele>1378.6</ele><time>2026-04-25T09:52:22.666Z</time></trkpt><trkpt lat="38.1404533" lon="15.8345083"><ele>1381.4</ele><time>2026-04-25T09:52:23.666Z</time></trkpt><trkpt lat="38.14052" lon="15.8346"><ele>1384.1999999999998</ele><time>2026-04-25T09:52:24.666Z</time></trkpt><trkpt lat="38.1405933" lon="15.8346667"><ele>1387.0</ele><time>2026-04-25T09:52:25.666Z</time></trkpt><trkpt lat="38.1406667" lon="15.83466"><ele>1384.6</ele><time>2026-04-25T09:52:26.667Z</time></trkpt><trkpt lat="38.1407417" lon="15.83464"><ele>1382.1999999999998</ele><time>2026-04-25T09:52:27.666Z</time></trkpt><trkpt lat="38.1408233" lon="15.8346017"><ele>1379.8</ele><time>2026-04-25T09:52:28.666Z</time></trkpt><trkpt lat="38.1409333" lon="15.8345183"><ele>1377.4</ele><time>2026-04-25T09:52:29.666Z</time></trkpt><trkpt lat="38.141045" lon="15.8344333"><ele>1375.0</ele><time>2026-04-25T09:52:30.667Z</time></trkpt><trkpt lat="38.1411617" lon="15.8343567"><ele>1372.4</ele><time>2026-04-25T09:52:31.666Z</time></trkpt><trkpt lat="38.1412767" lon="15.8343"><ele>1369.8</ele><time>2026-04-25T09:52:32.666Z</time></trkpt><trkpt lat="38.1413867" lon="15.8342667"><ele>1367.1999999999998</ele><time>2026-04-25T09:52:33.666Z</time></trkpt><trkpt lat="38.1414833" lon="15.8342483"><ele>1364.6</ele><time>2026-04-25T09:52:34.667Z</time></trkpt><trkpt lat="38.1415667" lon="15.8342433"><ele>1362.0</ele><time>2026-04-25T09:52:35.666Z</time></trkpt><trkpt lat="38.1416467" lon="15.834235"><ele>1361.6666666666667</ele><time>2026-04-25T09:52:36.666Z</time></trkpt><trkpt lat="38.1417283" lon="15.83424"><ele>1361.3333333333333</ele><time>2026-04-25T09:52:37.666Z</time></trkpt><trkpt lat="38.1418083" lon="15.8342533"><ele>1361.0</ele><time>2026-04-25T09:52:38.666Z</time></trkpt><trkpt lat="38.1418717" lon="15.8342583"><ele>1360.6666666666665</ele><time>2026-04-25T09:52:39.667Z</time></trkpt><trkpt lat="38.1419417" lon="15.83427"><ele>1360.3333333333333</ele><time>2026-04-25T09:52:40.667Z</time></trkpt><trkpt lat="38.142035" lon="15.83427"><ele>1360.0</ele><time>2026-04-25T09:52:42.666Z</time></trkpt><trkpt lat="38.142105" lon="15.83428"><ele>1360.0</ele><time>2026-04-25T09:52:43.666Z</time></trkpt><trkpt lat="38.14217" lon="15.8343033"><ele>1360.0</ele><time>2026-04-25T09:52:44.666Z</time></trkpt><trkpt lat="38.142235" lon="15.834345"><ele>1360.0</ele><time>2026-04-25T09:52:45.667Z</time></trkpt><trkpt lat="38.1423" lon="15.8344"><ele>1360.0</ele><time>2026-04-25T09:52:46.666Z</time></trkpt><trkpt lat="38.14235" lon="15.8344683"><ele>1360.0</ele><time>2026-04-25T09:52:47.666Z</time></trkpt><trkpt lat="38.1423917" lon="15.8345467"><ele>1360.0</ele><time>2026-04-25T09:52:48.667Z</time></trkpt><trkpt lat="38.1424267" lon="15.834625"><ele>1360.0</ele><time>2026-04-25T09:52:49.666Z</time></trkpt><trkpt lat="38.1424683" lon="15.8346933"><ele>1360.2</ele><time>2026-04-25T09:52:50.666Z</time></trkpt><trkpt lat="38.1425583" lon="15.8347883"><ele>1360.4</ele><time>2026-04-25T09:52:52.666Z</time></trkpt><trkpt lat="38.142625" lon="15.83482"><ele>1360.6</ele><time>2026-04-25T09:52:53.666Z</time></trkpt><trkpt lat="38.1427133" lon="15.834835"><ele>1360.8</ele><time>2026-04-25T09:52:54.666Z</time></trkpt><trkpt lat="38.1428217" lon="15.834845"><ele>1361.0</ele><time>2026-04-25T09:52:55.666Z</time></trkpt><trkpt lat="38.1429583" lon="15.8348317"><ele>1361.0</ele><time>2026-04-25T09:52:56.667Z</time></trkpt><trkpt lat="38.1430983" lon="15.8348183"><ele>1361.0</ele><time>2026-04-25T09:52:57.667Z</time></trkpt><trkpt lat="38.1432567" lon="15.83482"><ele>1361.0</ele><time>2026-04-25T09:52:58.667Z</time></trkpt><trkpt lat="38.14343" lon="15.8348483"><ele>1361.6666666666667</ele><time>2026-04-25T09:52:59.667Z</time></trkpt><trkpt lat="38.1435983" lon="15.8349033"><ele>1362.3333333333333</ele><time>2026-04-25T09:53:00.667Z</time></trkpt><trkpt lat="38.143775" lon="15.83498"><ele>1363.0</ele><time>2026-04-25T09:53:01.667Z</time></trkpt><trkpt lat="38.1439533" lon="15.8350567"><ele>1360.6666666666665</ele><time>2026-04-25T09:53:02.667Z</time></trkpt><trkpt lat="38.14413" lon="15.835125"><ele>1358.3333333333333</ele><time>2026-04-25T09:53:03.667Z</time></trkpt><trkpt lat="38.1442917" lon="15.835185"><ele>1356.0</ele><time>2026-04-25T09:53:04.668Z</time></trkpt><trkpt lat="38.1444017" lon="15.8352417"><ele>1361.0</ele><time>2026-04-25T09:53:05.667Z</time></trkpt><trkpt lat="38.1445517" lon="15.8353267"><ele>1366.0</ele><time>2026-04-25T09:53:06.668Z</time></trkpt><trkpt lat="38.1446883" lon="15.835455"><ele>1371.0</ele><time>2026-04-25T09:53:07.667Z</time></trkpt><trkpt lat="38.1448167" lon="15.83557"><ele>1365.75</ele><time>2026-04-25T09:53:08.667Z</time></trkpt><trkpt lat="38.1449283" lon="15.8356917"><ele>1360.5</ele><time>2026-04-25T09:53:09.667Z</time></trkpt><trkpt lat="38.1450317" lon="15.8357517"><ele>1355.25</ele><time>2026-04-25T09:53:10.667Z</time></trkpt><trkpt lat="38.1451383" lon="15.835785"><ele>1350.0</ele><time>2026-04-25T09:53:11.668Z</time></trkpt><trkpt lat="38.14523" lon="15.835765"><ele>1350.0</ele><time>2026-04-25T09:53:12.667Z</time></trkpt><trkpt lat="38.1453183" lon="15.8357133"><ele>1350.0</ele><time>2026-04-25T09:53:13.667Z</time></trkpt><trkpt lat="38.145385" lon="15.835615"><ele>1350.0</ele><time>2026-04-25T09:53:14.667Z</time></trkpt><trkpt lat="38.1454183" lon="15.835495"><ele>1350.0</ele><time>2026-04-25T09:53:15.667Z</time></trkpt><trkpt lat="38.1454517" lon="15.8353683"><ele>1350.0</ele><time>2026-04-25T09:53:16.667Z</time></trkpt><trkpt lat="38.14548" lon="15.8352267"><ele>1346.8</ele><time>2026-04-25T09:53:17.667Z</time></trkpt><trkpt lat="38.14551" lon="15.8350917"><ele>1343.6</ele><time>2026-04-25T09:53:18.667Z</time></trkpt><trkpt lat="38.1455517" lon="15.8349467"><ele>1340.4</ele><time>2026-04-25T09:53:19.667Z</time></trkpt><trkpt lat="38.1455817" lon="15.8348383"><ele>1337.2</ele><time>2026-04-25T09:53:20.667Z</time></trkpt><trkpt lat="38.1456333" lon="15.8347533"><ele>1334.0</ele><time>2026-04-25T09:53:21.667Z</time></trkpt><trkpt lat="38.1456983" lon="15.8346817"><ele>1337.8000000000002</ele><time>2026-04-25T09:53:22.668Z</time></trkpt><trkpt lat="38.145765" lon="15.834635"><ele>1341.6000000000001</ele><time>2026-04-25T09:53:23.667Z</time></trkpt><trkpt lat="38.1458483" lon="15.8345833"><ele>1345.4</ele><time>2026-04-25T09:53:24.668Z</time></trkpt><trkpt lat="38.14595" lon="15.8345117"><ele>1349.2</ele><time>2026-04-25T09:53:25.667Z</time></trkpt><trkpt lat="38.1460517" lon="15.8344133"><ele>1353.0</ele><time>2026-04-25T09:53:26.667Z</time></trkpt><trkpt lat="38.1461517" lon="15.8343217"><ele>1354.0</ele><time>2026-04-25T09:53:27.667Z</time></trkpt><trkpt lat="38.1462317" lon="15.83423"><ele>1355.0</ele><time>2026-04-25T09:53:28.667Z</time></trkpt><trkpt lat="38.146325" lon="15.8341433"><ele>1356.0</ele><time>2026-04-25T09:53:29.667Z</time></trkpt><trkpt lat="38.1464217" lon="15.8340733"><ele>1357.0</ele><time>2026-04-25T09:53:30.667Z</time></trkpt><trkpt lat="38.146505" lon="15.8339933"><ele>1358.0</ele><time>2026-04-25T09:53:31.667Z</time></trkpt><trkpt lat="38.146605" lon="15.8338983"><ele>1358.0</ele><time>2026-04-25T09:53:32.667Z</time></trkpt><trkpt lat="38.1467083" lon="15.8337867"><ele>1358.0</ele><time>2026-04-25T09:53:33.667Z</time></trkpt><trkpt lat="38.1467983" lon="15.8336633"><ele>1358.0</ele><time>2026-04-25T09:53:34.667Z</time></trkpt><trkpt lat="38.1468767" lon="15.8335383"><ele>1358.0</ele><time>2026-04-25T09:53:35.667Z</time></trkpt><trkpt lat="38.1469233" lon="15.83341"><ele>1354.3333333333335</ele><time>2026-04-25T09:53:36.667Z</time></trkpt><trkpt lat="38.146945" lon="15.8332933"><ele>1350.6666666666667</ele><time>2026-04-25T09:53:37.667Z</time></trkpt><trkpt lat="38.1469567" lon="15.833185"><ele>1347.0</ele><time>2026-04-25T09:53:38.667Z</time></trkpt><trkpt lat="38.14696" lon="15.8330833"><ele>1343.3333333333333</ele><time>2026-04-25T09:53:39.667Z</time></trkpt><trkpt lat="38.1469617" lon="15.8329883"><ele>1339.6666666666665</ele><time>2026-04-25T09:53:40.667Z</time></trkpt><trkpt lat="38.1469667" lon="15.8328983"><ele>1336.0</ele><time>2026-04-25T09:53:41.667Z</time></trkpt><trkpt lat="38.14696" lon="15.8328183"><ele>1336.0</ele><time>2026-04-25T09:53:42.667Z</time></trkpt><trkpt lat="38.14698" lon="15.8327333"><ele>1336.0</ele><time>2026-04-25T09:53:43.668Z</time></trkpt><trkpt lat="38.1470417" lon="15.832615"><ele>1336.0</ele><time>2026-04-25T09:53:45.667Z</time></trkpt><trkpt lat="38.147135" lon="15.8324983"><ele>1336.0</ele><time>2026-04-25T09:53:47.667Z</time></trkpt><trkpt lat="38.1471883" lon="15.83244"><ele>1336.0</ele><time>2026-04-25T09:53:48.667Z</time></trkpt><trkpt lat="38.147245" lon="15.8323833"><ele>1334.2857142857142</ele><time>2026-04-25T09:53:49.667Z</time></trkpt><trkpt lat="38.1473" lon="15.83233"><ele>1332.5714285714287</ele><time>2026-04-25T09:53:50.667Z</time></trkpt><trkpt lat="38.1473533" lon="15.8322817"><ele>1330.857142857143</ele><time>2026-04-25T09:53:51.667Z</time></trkpt><trkpt lat="38.1474067" lon="15.8322383"><ele>1329.142857142857</ele><time>2026-04-25T09:53:52.667Z</time></trkpt><trkpt lat="38.147465" lon="15.8321867"><ele>1327.4285714285713</ele><time>2026-04-25T09:53:53.667Z</time></trkpt><trkpt lat="38.14753" lon="15.8321467"><ele>1325.7142857142858</ele><time>2026-04-25T09:53:54.667Z</time></trkpt><trkpt lat="38.1476017" lon="15.8321283"><ele>1324.0</ele><time>2026-04-25T09:53:55.667Z</time></trkpt><trkpt lat="38.1476733" lon="15.83211"><ele>1329.1666666666665</ele><time>2026-04-25T09:53:56.667Z</time></trkpt><trkpt lat="38.147755" lon="15.8320983"><ele>1334.3333333333333</ele><time>2026-04-25T09:53:57.668Z</time></trkpt><trkpt lat="38.147845" lon="15.8320933"><ele>1339.5</ele><time>2026-04-25T09:53:58.667Z</time></trkpt><trkpt lat="38.1479267" lon="15.832085"><ele>1344.6666666666667</ele><time>2026-04-25T09:53:59.667Z</time></trkpt><trkpt lat="38.1480117" lon="15.8320667"><ele>1349.8333333333335</ele><time>2026-04-25T09:54:00.667Z</time></trkpt><trkpt lat="38.148105" lon="15.83203"><ele>1355.0</ele><time>2026-04-25T09:54:01.667Z</time></trkpt><trkpt lat="38.148185" lon="15.831985"><ele>1356.0</ele><time>2026-04-25T09:54:02.667Z</time></trkpt><trkpt lat="38.1482583" lon="15.83191"><ele>1357.0</ele><time>2026-04-25T09:54:03.667Z</time></trkpt><trkpt lat="38.1483233" lon="15.83182"><ele>1358.0</ele><time>2026-04-25T09:54:04.668Z</time></trkpt><trkpt lat="38.1483967" lon="15.8317233"><ele>1359.0</ele><time>2026-04-25T09:54:05.667Z</time></trkpt><trkpt lat="38.1484767" lon="15.8316267"><ele>1360.0</ele><time>2026-04-25T09:54:06.668Z</time></trkpt><trkpt lat="38.148555" lon="15.831555"><ele>1357.8</ele><time>2026-04-25T09:54:07.667Z</time></trkpt><trkpt lat="38.148635" lon="15.8315083"><ele>1355.6</ele><time>2026-04-25T09:54:08.667Z</time></trkpt><trkpt lat="38.1487267" lon="15.8314717"><ele>1353.4</ele><time>2026-04-25T09:54:09.668Z</time></trkpt><trkpt lat="38.148815" lon="15.8314433"><ele>1351.2</ele><time>2026-04-25T09:54:10.667Z</time></trkpt><trkpt lat="38.1489067" lon="15.8314233"><ele>1349.0</ele><time>2026-04-25T09:54:11.667Z</time></trkpt><trkpt lat="38.1490017" lon="15.8314233"><ele>1349.8000000000002</ele><time>2026-04-25T09:54:12.667Z</time></trkpt><trkpt lat="38.1490917" lon="15.8314517"><ele>1350.6000000000001</ele><time>2026-04-25T09:54:13.667Z</time></trkpt><trkpt lat="38.1491783" lon="15.8315117"><ele>1351.4</ele><time>2026-04-25T09:54:14.667Z</time></trkpt><trkpt lat="38.1492567" lon="15.8316117"><ele>1352.2</ele><time>2026-04-25T09:54:15.668Z</time></trkpt><trkpt lat="38.14934" lon="15.831715"><ele>1353.0</ele><time>2026-04-25T09:54:16.667Z</time></trkpt><trkpt lat="38.1494217" lon="15.8318167"><ele>1353.0</ele><time>2026-04-25T09:54:17.668Z</time></trkpt><trkpt lat="38.149525" lon="15.8318983"><ele>1353.0</ele><time>2026-04-25T09:54:18.667Z</time></trkpt><trkpt lat="38.1496383" lon="15.831945"><ele>1353.0</ele><time>2026-04-25T09:54:19.667Z</time></trkpt><trkpt lat="38.14976" lon="15.8319733"><ele>1353.0</ele><time>2026-04-25T09:54:20.667Z</time></trkpt><trkpt lat="38.1498833" lon="15.831975"><ele>1353.25</ele><time>2026-04-25T09:54:21.667Z</time></trkpt><trkpt lat="38.1500117" lon="15.8319617"><ele>1353.5</ele><time>2026-04-25T09:54:22.667Z</time></trkpt><trkpt lat="38.150135" lon="15.8319367"><ele>1353.75</ele><time>2026-04-25T09:54:23.667Z</time></trkpt><trkpt lat="38.1502517" lon="15.831885"><ele>1354.0</ele><time>2026-04-25T09:54:24.668Z</time></trkpt><trkpt lat="38.1503517" lon="15.8318183"><ele>1352.8333333333333</ele><time>2026-04-25T09:54:25.667Z</time></trkpt><trkpt lat="38.1504383" lon="15.8317483"><ele>1351.6666666666665</ele><time>2026-04-25T09:54:26.667Z</time></trkpt><trkpt lat="38.150525" lon="15.8316933"><ele>1350.5</ele><time>2026-04-25T09:54:27.667Z</time></trkpt><trkpt lat="38.1505967" lon="15.831665"><ele>1349.3333333333333</ele><time>2026-04-25T09:54:28.667Z</time></trkpt><trkpt lat="38.1506733" lon="15.8316583"><ele>1348.1666666666667</ele><time>2026-04-25T09:54:29.667Z</time></trkpt><trkpt lat="38.150765" lon="15.831665"><ele>1347.0</ele><time>2026-04-25T09:54:30.667Z</time></trkpt><trkpt lat="38.1508567" lon="15.831695"><ele>1347.0</ele><time>2026-04-25T09:54:31.667Z</time></trkpt><trkpt lat="38.1509383" lon="15.8317533"><ele>1347.0</ele><time>2026-04-25T09:54:32.668Z</time></trkpt><trkpt lat="38.151025" lon="15.831795"><ele>1347.0</ele><time>2026-04-25T09:54:33.667Z</time></trkpt><trkpt lat="38.1511133" lon="15.831815"><ele>1347.0</ele><time>2026-04-25T09:54:34.667Z</time></trkpt><trkpt lat="38.1511983" lon="15.8318283"><ele>1347.0</ele><time>2026-04-25T09:54:35.667Z</time></trkpt><trkpt lat="38.151285" lon="15.8318317"><ele>1347.0</ele><time>2026-04-25T09:54:36.667Z</time></trkpt><trkpt lat="38.1513683" lon="15.8318183"><ele>1347.0</ele><time>2026-04-25T09:54:37.667Z</time></trkpt><trkpt lat="38.151445" lon="15.8317917"><ele>1347.0</ele><time>2026-04-25T09:54:38.667Z</time></trkpt><trkpt lat="38.1515083" lon="15.83177"><ele>1347.0</ele><time>2026-04-25T09:54:39.668Z</time></trkpt><trkpt lat="38.151575" lon="15.8317433"><ele>1347.0</ele><time>2026-04-25T09:54:40.667Z</time></trkpt><trkpt lat="38.15164" lon="15.831725"><ele>1347.0</ele><time>2026-04-25T09:54:41.667Z</time></trkpt><trkpt lat="38.15176" lon="15.8317"><ele>1347.0</ele><time>2026-04-25T09:54:43.667Z</time></trkpt><trkpt lat="38.1518233" lon="15.8316967"><ele>1347.4285714285713</ele><time>2026-04-25T09:54:44.667Z</time></trkpt><trkpt lat="38.1518883" lon="15.8317"><ele>1347.857142857143</ele><time>2026-04-25T09:54:45.667Z</time></trkpt><trkpt lat="38.151955" lon="15.8317083"><ele>1348.2857142857142</ele><time>2026-04-25T09:54:46.667Z</time></trkpt><trkpt lat="38.1520217" lon="15.831725"><ele>1348.7142857142858</ele><time>2026-04-25T09:54:47.667Z</time></trkpt><trkpt lat="38.1520917" lon="15.8317267"><ele>1349.142857142857</ele><time>2026-04-25T09:54:48.667Z</time></trkpt><trkpt lat="38.15217" lon="15.8317317"><ele>1349.5714285714284</ele><time>2026-04-25T09:54:49.667Z</time></trkpt><trkpt lat="38.1522533" lon="15.8317667"><ele>1350.0</ele><time>2026-04-25T09:54:50.668Z</time></trkpt><trkpt lat="38.1523317" lon="15.83179"><ele>1349.8</ele><time>2026-04-25T09:54:51.667Z</time></trkpt><trkpt lat="38.152415" lon="15.8318067"><ele>1349.6</ele><time>2026-04-25T09:54:52.667Z</time></trkpt><trkpt lat="38.1525067" lon="15.831815"><ele>1349.4</ele><time>2026-04-25T09:54:53.668Z</time></trkpt><trkpt lat="38.1526" lon="15.831825"><ele>1349.2</ele><time>2026-04-25T09:54:54.667Z</time></trkpt><trkpt lat="38.15269" lon="15.831835"><ele>1349.0</ele><time>2026-04-25T09:54:55.667Z</time></trkpt><trkpt lat="38.1527933" lon="15.83185"><ele>1349.5</ele><time>2026-04-25T09:54:56.667Z</time></trkpt><trkpt lat="38.1529033" lon="15.8318583"><ele>1350.0</ele><time>2026-04-25T09:54:57.667Z</time></trkpt><trkpt lat="38.1530383" lon="15.8318733"><ele>1350.5</ele><time>2026-04-25T09:54:58.667Z</time></trkpt><trkpt lat="38.1531567" lon="15.8318733"><ele>1351.0</ele><time>2026-04-25T09:54:59.667Z</time></trkpt><trkpt lat="38.1532833" lon="15.831885"><ele>1351.0</ele><time>2026-04-25T09:55:00.667Z</time></trkpt><trkpt lat="38.1534233" lon="15.831905"><ele>1351.0</ele><time>2026-04-25T09:55:01.667Z</time></trkpt><trkpt lat="38.1535633" lon="15.8319433"><ele>1351.0</ele><time>2026-04-25T09:55:02.667Z</time></trkpt><trkpt lat="38.1536983" lon="15.8319733"><ele>1351.0</ele><time>2026-04-25T09:55:03.667Z</time></trkpt><trkpt lat="38.153825" lon="15.8320033"><ele>1351.0</ele><time>2026-04-25T09:55:04.667Z</time></trkpt><trkpt lat="38.1539533" lon="15.83203"><ele>1351.0</ele><time>2026-04-25T09:55:05.667Z</time></trkpt><trkpt lat="38.1540967" lon="15.8320783"><ele>1351.0</ele><time>2026-04-25T09:55:06.668Z</time></trkpt><trkpt lat="38.1542483" lon="15.832125"><ele>1351.0</ele><time>2026-04-25T09:55:07.668Z</time></trkpt><trkpt lat="38.1543867" lon="15.8321767"><ele>1351.6666666666665</ele><time>2026-04-25T09:55:08.667Z</time></trkpt><trkpt lat="38.1545317" lon="15.8322383"><ele>1352.3333333333333</ele><time>2026-04-25T09:55:09.667Z</time></trkpt><trkpt lat="38.1546867" lon="15.8323217"><ele>1353.0</ele><time>2026-04-25T09:55:10.667Z</time></trkpt><trkpt lat="38.1548317" lon="15.8323783"><ele>1352.6666666666667</ele><time>2026-04-25T09:55:11.667Z</time></trkpt><trkpt lat="38.1549733" lon="15.8324433"><ele>1352.3333333333335</ele><time>2026-04-25T09:55:12.668Z</time></trkpt><trkpt lat="38.1551283" lon="15.8325217"><ele>1352.0</ele><time>2026-04-25T09:55:13.667Z</time></trkpt><trkpt lat="38.155305" lon="15.8326267"><ele>1353.6666666666667</ele><time>2026-04-25T09:55:14.667Z</time></trkpt><trkpt lat="38.155475" lon="15.8327183"><ele>1355.3333333333333</ele><time>2026-04-25T09:55:15.667Z</time></trkpt><trkpt lat="38.1556283" lon="15.83279"><ele>1357.0</ele><time>2026-04-25T09:55:16.668Z</time></trkpt><trkpt lat="38.1557717" lon="15.8328467"><ele>1357.0</ele><time>2026-04-25T09:55:17.668Z</time></trkpt><trkpt lat="38.1559217" lon="15.8328967"><ele>1357.0</ele><time>2026-04-25T09:55:18.668Z</time></trkpt><trkpt lat="38.1561083" lon="15.8329667"><ele>1357.0</ele><time>2026-04-25T09:55:19.667Z</time></trkpt><trkpt lat="38.156285" lon="15.8330133"><ele>1357.0</ele><time>2026-04-25T09:55:20.667Z</time></trkpt><trkpt lat="38.15647" lon="15.8330467"><ele>1357.0</ele><time>2026-04-25T09:55:21.667Z</time></trkpt><trkpt lat="38.1566617" lon="15.83307"><ele>1357.0</ele><time>2026-04-25T09:55:22.667Z</time></trkpt><trkpt lat="38.1568483" lon="15.8330983"><ele>1356.6666666666665</ele><time>2026-04-25T09:55:23.667Z</time></trkpt><trkpt lat="38.15703" lon="15.833125"><ele>1356.3333333333333</ele><time>2026-04-25T09:55:24.667Z</time></trkpt><trkpt lat="38.1572333" lon="15.8331567"><ele>1356.0</ele><time>2026-04-25T09:55:25.667Z</time></trkpt><trkpt lat="38.1574283" lon="15.8332083"><ele>1355.3333333333333</ele><time>2026-04-25T09:55:26.667Z</time></trkpt><trkpt lat="38.1576033" lon="15.8332583"><ele>1354.6666666666665</ele><time>2026-04-25T09:55:27.668Z</time></trkpt><trkpt lat="38.1577867" lon="15.833295"><ele>1354.0</ele><time>2026-04-25T09:55:28.667Z</time></trkpt><trkpt lat="38.1579583" lon="15.833325"><ele>1354.0</ele><time>2026-04-25T09:55:29.667Z</time></trkpt><trkpt lat="38.1581267" lon="15.8333433"><ele>1354.0</ele><time>2026-04-25T09:55:30.668Z</time></trkpt><trkpt lat="38.158295" lon="15.83335"><ele>1354.0</ele><time>2026-04-25T09:55:31.668Z</time></trkpt><trkpt lat="38.15846" lon="15.833365"><ele>1353.0</ele><time>2026-04-25T09:55:32.667Z</time></trkpt><trkpt lat="38.1586233" lon="15.8333767"><ele>1352.0</ele><time>2026-04-25T09:55:33.667Z</time></trkpt><trkpt lat="38.1587833" lon="15.8333833"><ele>1351.0</ele><time>2026-04-25T09:55:34.667Z</time></trkpt><trkpt lat="38.1589317" lon="15.83339"><ele>1350.5</ele><time>2026-04-25T09:55:35.667Z</time></trkpt><trkpt lat="38.1590767" lon="15.83339"><ele>1350.0</ele><time>2026-04-25T09:55:36.667Z</time></trkpt><trkpt lat="38.159215" lon="15.8334"><ele>1349.5</ele><time>2026-04-25T09:55:37.668Z</time></trkpt><trkpt lat="38.1593583" lon="15.83341"><ele>1349.0</ele><time>2026-04-25T09:55:38.667Z</time></trkpt><trkpt lat="38.15951" lon="15.8334133"><ele>1349.0</ele><time>2026-04-25T09:55:39.667Z</time></trkpt><trkpt lat="38.159655" lon="15.83342"><ele>1349.0</ele><time>2026-04-25T09:55:40.667Z</time></trkpt><trkpt lat="38.1597817" lon="15.83342"><ele>1349.0</ele><time>2026-04-25T09:55:41.667Z</time></trkpt><trkpt lat="38.1599217" lon="15.8334267"><ele>1349.0</ele><time>2026-04-25T09:55:42.667Z</time></trkpt><trkpt lat="38.1600667" lon="15.83343"><ele>1347.75</ele><time>2026-04-25T09:55:43.667Z</time></trkpt><trkpt lat="38.160205" lon="15.8334367"><ele>1346.5</ele><time>2026-04-25T09:55:44.668Z</time></trkpt><trkpt lat="38.1603267" lon="15.8334467"><ele>1345.25</ele><time>2026-04-25T09:55:45.667Z</time></trkpt><trkpt lat="38.1604467" lon="15.8334517"><ele>1344.0</ele><time>2026-04-25T09:55:46.667Z</time></trkpt><trkpt lat="38.1605633" lon="15.8334633"><ele>1344.0</ele><time>2026-04-25T09:55:47.667Z</time></trkpt><trkpt lat="38.1606783" lon="15.8334717"><ele>1344.0</ele><time>2026-04-25T09:55:48.668Z</time></trkpt><trkpt lat="38.16079" lon="15.833495"><ele>1344.0</ele><time>2026-04-25T09:55:49.668Z</time></trkpt><trkpt lat="38.16089" lon="15.8335383"><ele>1344.0</ele><time>2026-04-25T09:55:50.667Z</time></trkpt><trkpt lat="38.160975" lon="15.8336083"><ele>1344.0</ele><time>2026-04-25T09:55:51.667Z</time></trkpt><trkpt lat="38.1610467" lon="15.8336883"><ele>1345.0</ele><time>2026-04-25T09:55:52.667Z</time></trkpt><trkpt lat="38.161105" lon="15.8337833"><ele>1346.0</ele><time>2026-04-25T09:55:53.667Z</time></trkpt><trkpt lat="38.1611167" lon="15.833915"><ele>1347.0</ele><time>2026-04-25T09:55:54.667Z</time></trkpt><trkpt lat="38.1611667" lon="15.8340467"><ele>1348.0</ele><time>2026-04-25T09:55:55.668Z</time></trkpt><trkpt lat="38.1611833" lon="15.83419"><ele>1349.0</ele><time>2026-04-25T09:55:56.668Z</time></trkpt><trkpt lat="38.1612433" lon="15.83434"><ele>1347.75</ele><time>2026-04-25T09:55:57.667Z</time></trkpt><trkpt lat="38.1613117" lon="15.8344767"><ele>1346.5</ele><time>2026-04-25T09:55:58.667Z</time></trkpt><trkpt lat="38.1613967" lon="15.8346133"><ele>1345.25</ele><time>2026-04-25T09:55:59.667Z</time></trkpt><trkpt lat="38.1614767" lon="15.8347383"><ele>1344.0</ele><time>2026-04-25T09:56:00.667Z</time></trkpt><trkpt lat="38.161545" lon="15.8348517"><ele>1344.0</ele><time>2026-04-25T09:56:01.667Z</time></trkpt><trkpt lat="38.1616133" lon="15.8349583"><ele>1344.0</ele><time>2026-04-25T09:56:02.668Z</time></trkpt><trkpt lat="38.1616733" lon="15.8350717"><ele>1344.0</ele><time>2026-04-25T09:56:03.667Z</time></trkpt><trkpt lat="38.1617233" lon="15.83519"><ele>1344.0</ele><time>2026-04-25T09:56:04.667Z</time></trkpt><trkpt lat="38.16176" lon="15.8353083"><ele>1344.0</ele><time>2026-04-25T09:56:05.667Z</time></trkpt><trkpt lat="38.1617733" lon="15.8354367"><ele>1343.6</ele><time>2026-04-25T09:56:06.668Z</time></trkpt><trkpt lat="38.1617717" lon="15.8355733"><ele>1343.2</ele><time>2026-04-25T09:56:07.667Z</time></trkpt><trkpt lat="38.16177" lon="15.8357033"><ele>1342.8</ele><time>2026-04-25T09:56:08.667Z</time></trkpt><trkpt lat="38.1617583" lon="15.8358317"><ele>1342.3999999999999</ele><time>2026-04-25T09:56:09.667Z</time></trkpt><trkpt lat="38.1617367" lon="15.8359633"><ele>1342.0</ele><time>2026-04-25T09:56:10.668Z</time></trkpt><trkpt lat="38.1617167" lon="15.83609"><ele>1341.6</ele><time>2026-04-25T09:56:11.667Z</time></trkpt><trkpt lat="38.1616833" lon="15.8362083"><ele>1341.1999999999998</ele><time>2026-04-25T09:56:12.667Z</time></trkpt><trkpt lat="38.1616417" lon="15.8363333"><ele>1340.8</ele><time>2026-04-25T09:56:13.667Z</time></trkpt><trkpt lat="38.1616217" lon="15.8364483"><ele>1340.4</ele><time>2026-04-25T09:56:14.667Z</time></trkpt><trkpt lat="38.1615983" lon="15.8365733"><ele>1340.0</ele><time>2026-04-25T09:56:15.667Z</time></trkpt><trkpt lat="38.1615817" lon="15.836665"><ele>1340.0</ele><time>2026-04-25T09:56:16.667Z</time></trkpt><trkpt lat="38.1616" lon="15.8367617"><ele>1340.0</ele><time>2026-04-25T09:56:18.667Z</time></trkpt><trkpt lat="38.1617433" lon="15.8367533"><ele>1340.0</ele><time>2026-04-25T09:56:20.667Z</time></trkpt><trkpt lat="38.161825" lon="15.8367183"><ele>1340.0</ele><time>2026-04-25T09:56:21.667Z</time></trkpt><trkpt lat="38.1619533" lon="15.836615"><ele>1340.0</ele><time>2026-04-25T09:56:22.667Z</time></trkpt><trkpt lat="38.16206" lon="15.836515"><ele>1340.0</ele><time>2026-04-25T09:56:23.667Z</time></trkpt><trkpt lat="38.1621483" lon="15.8363867"><ele>1340.0</ele><time>2026-04-25T09:56:24.667Z</time></trkpt><trkpt lat="38.1622317" lon="15.836245"><ele>1340.0</ele><time>2026-04-25T09:56:25.667Z</time></trkpt><trkpt lat="38.1623183" lon="15.8361117"><ele>1338.5</ele><time>2026-04-25T09:56:26.668Z</time></trkpt><trkpt lat="38.162415" lon="15.835995"><ele>1337.0</ele><time>2026-04-25T09:56:27.667Z</time></trkpt><trkpt lat="38.1625217" lon="15.8358867"><ele>1335.5</ele><time>2026-04-25T09:56:28.667Z</time></trkpt><trkpt lat="38.1626233" lon="15.83578"><ele>1334.0</ele><time>2026-04-25T09:56:29.667Z</time></trkpt><trkpt lat="38.16272" lon="15.8356683"><ele>1332.5</ele><time>2026-04-25T09:56:30.668Z</time></trkpt><trkpt lat="38.1628033" lon="15.8355633"><ele>1331.0</ele><time>2026-04-25T09:56:31.667Z</time></trkpt><trkpt lat="38.162885" lon="15.8354383"><ele>1329.5</ele><time>2026-04-25T09:56:32.667Z</time></trkpt><trkpt lat="38.1629683" lon="15.8353133"><ele>1328.0</ele><time>2026-04-25T09:56:33.667Z</time></trkpt><trkpt lat="38.16305" lon="15.8351783"><ele>1328.75</ele><time>2026-04-25T09:56:34.667Z</time></trkpt><trkpt lat="38.16312" lon="15.8350483"><ele>1329.5</ele><time>2026-04-25T09:56:35.668Z</time></trkpt><trkpt lat="38.1631933" lon="15.8349217"><ele>1330.25</ele><time>2026-04-25T09:56:36.667Z</time></trkpt><trkpt lat="38.1632667" lon="15.83481"><ele>1331.0</ele><time>2026-04-25T09:56:37.668Z</time></trkpt><trkpt lat="38.1633533" lon="15.8347183"><ele>1331.0</ele><time>2026-04-25T09:56:38.667Z</time></trkpt><trkpt lat="38.1634533" lon="15.8346283"><ele>1331.0</ele><time>2026-04-25T09:56:39.667Z</time></trkpt><trkpt lat="38.1635633" lon="15.83455"><ele>1331.0</ele><time>2026-04-25T09:56:40.667Z</time></trkpt><trkpt lat="38.1636817" lon="15.8344833"><ele>1331.0</ele><time>2026-04-25T09:56:41.667Z</time></trkpt><trkpt lat="38.1638083" lon="15.8344267"><ele>1331.0</ele><time>2026-04-25T09:56:42.667Z</time></trkpt><trkpt lat="38.16395" lon="15.8343717"><ele>1331.0</ele><time>2026-04-25T09:56:43.668Z</time></trkpt><trkpt lat="38.164095" lon="15.83433"><ele>1331.0</ele><time>2026-04-25T09:56:44.668Z</time></trkpt><trkpt lat="38.1642417" lon="15.8342917"><ele>1331.0</ele><time>2026-04-25T09:56:45.667Z</time></trkpt><trkpt lat="38.1643767" lon="15.8342633"><ele>1329.8</ele><time>2026-04-25T09:56:46.667Z</time></trkpt><trkpt lat="38.1644867" lon="15.8342483"><ele>1328.6</ele><time>2026-04-25T09:56:47.667Z</time></trkpt><trkpt lat="38.1645967" lon="15.83424"><ele>1327.4</ele><time>2026-04-25T09:56:48.668Z</time></trkpt><trkpt lat="38.1646983" lon="15.83426"><ele>1326.2</ele><time>2026-04-25T09:56:49.667Z</time></trkpt><trkpt lat="38.164785" lon="15.8343033"><ele>1325.0</ele><time>2026-04-25T09:56:50.667Z</time></trkpt><trkpt lat="38.1648483" lon="15.8343617"><ele>1326.3333333333335</ele><time>2026-04-25T09:56:51.667Z</time></trkpt><trkpt lat="38.1649067" lon="15.8344267"><ele>1327.6666666666667</ele><time>2026-04-25T09:56:52.667Z</time></trkpt><trkpt lat="38.164945" lon="15.8345133"><ele>1329.0</ele><time>2026-04-25T09:56:53.667Z</time></trkpt><trkpt lat="38.1649483" lon="15.83462"><ele>1330.3333333333333</ele><time>2026-04-25T09:56:54.667Z</time></trkpt><trkpt lat="38.16494" lon="15.8347267"><ele>1331.6666666666665</ele><time>2026-04-25T09:56:55.668Z</time></trkpt><trkpt lat="38.1649383" lon="15.834845"><ele>1333.0</ele><time>2026-04-25T09:56:56.667Z</time></trkpt><trkpt lat="38.1649583" lon="15.834925"><ele>1333.0</ele><time>2026-04-25T09:56:57.668Z</time></trkpt><trkpt lat="38.165" lon="15.8349917"><ele>1333.0</ele><time>2026-04-25T09:56:58.667Z</time></trkpt><trkpt lat="38.16511" lon="15.83502"><ele>1333.0</ele><time>2026-04-25T09:57:00.667Z</time></trkpt><trkpt lat="38.165175" lon="15.8349833"><ele>1333.0</ele><time>2026-04-25T09:57:01.667Z</time></trkpt><trkpt lat="38.1652533" lon="15.8349117"><ele>1333.0</ele><time>2026-04-25T09:57:02.667Z</time></trkpt><trkpt lat="38.16533" lon="15.8348217"><ele>1333.0</ele><time>2026-04-25T09:57:03.668Z</time></trkpt><trkpt lat="38.1654167" lon="15.8347067"><ele>1333.0</ele><time>2026-04-25T09:57:04.668Z</time></trkpt><trkpt lat="38.1655067" lon="15.8346033"><ele>1333.0</ele><time>2026-04-25T09:57:05.667Z</time></trkpt><trkpt lat="38.1656033" lon="15.8344933"><ele>1333.0</ele><time>2026-04-25T09:57:06.667Z</time></trkpt><trkpt lat="38.1657033" lon="15.83442"><ele>1331.8000000000002</ele><time>2026-04-25T09:57:07.667Z</time></trkpt><trkpt lat="38.165795" lon="15.83437"><ele>1330.6</ele><time>2026-04-25T09:57:08.667Z</time></trkpt><trkpt lat="38.1658867" lon="15.8343367"><ele>1329.4</ele><time>2026-04-25T09:57:09.667Z</time></trkpt><trkpt lat="38.165975" lon="15.8343333"><ele>1328.1999999999998</ele><time>2026-04-25T09:57:10.667Z</time></trkpt><trkpt lat="38.1660817" lon="15.8343633"><ele>1327.0</ele><time>2026-04-25T09:57:11.667Z</time></trkpt><trkpt lat="38.1661617" lon="15.8344417"><ele>1327.0</ele><time>2026-04-25T09:57:12.667Z</time></trkpt><trkpt lat="38.1662583" lon="15.83452"><ele>1327.0</ele><time>2026-04-25T09:57:13.667Z</time></trkpt><trkpt lat="38.16634" lon="15.8345917"><ele>1327.0</ele><time>2026-04-25T09:57:14.668Z</time></trkpt><trkpt lat="38.1664233" lon="15.83466"><ele>1327.0</ele><time>2026-04-25T09:57:15.668Z</time></trkpt><trkpt lat="38.1665033" lon="15.8347267"><ele>1327.0</ele><time>2026-04-25T09:57:16.667Z</time></trkpt><trkpt lat="38.1665783" lon="15.834805"><ele>1325.6</ele><time>2026-04-25T09:57:17.667Z</time></trkpt><trkpt lat="38.166665" lon="15.8348767"><ele>1324.1999999999998</ele><time>2026-04-25T09:57:18.667Z</time></trkpt><trkpt lat="38.1667383" lon="15.83496"><ele>1322.8</ele><time>2026-04-25T09:57:19.667Z</time></trkpt><trkpt lat="38.16681" lon="15.835045"><ele>1321.4</ele><time>2026-04-25T09:57:20.668Z</time></trkpt><trkpt lat="38.1668717" lon="15.83514"><ele>1320.0</ele><time>2026-04-25T09:57:21.667Z</time></trkpt><trkpt lat="38.1669317" lon="15.8352317"><ele>1320.0</ele><time>2026-04-25T09:57:22.668Z</time></trkpt><trkpt lat="38.16698" lon="15.835325"><ele>1320.0</ele><time>2026-04-25T09:57:23.667Z</time></trkpt><trkpt lat="38.1670183" lon="15.8354267"><ele>1320.0</ele><time>2026-04-25T09:57:24.668Z</time></trkpt><trkpt lat="38.16706" lon="15.835515"><ele>1320.0</ele><time>2026-04-25T09:57:25.667Z</time></trkpt><trkpt lat="38.1671" lon="15.8356083"><ele>1320.0</ele><time>2026-04-25T09:57:26.667Z</time></trkpt><trkpt lat="38.1671317" lon="15.8357"><ele>1320.0</ele><time>2026-04-25T09:57:27.667Z</time></trkpt><trkpt lat="38.1671583" lon="15.8357783"><ele>1320.0</ele><time>2026-04-25T09:57:28.667Z</time></trkpt><trkpt lat="38.16719" lon="15.8358483"><ele>1320.0</ele><time>2026-04-25T09:57:29.667Z</time></trkpt><trkpt lat="38.167225" lon="15.8359717"><ele>1320.0</ele><time>2026-04-25T09:57:31.667Z</time></trkpt><trkpt lat="38.16724" lon="15.83607"><ele>1320.0</ele><time>2026-04-25T09:57:34.667Z</time></trkpt><trkpt lat="38.16719" lon="15.836145"><ele>1320.0</ele><time>2026-04-25T09:57:41.667Z</time></trkpt><trkpt lat="38.1671467" lon="15.8362033"><ele>1320.0</ele><time>2026-04-25T09:57:44.667Z</time></trkpt><trkpt lat="38.1670817" lon="15.8362533"><ele>1320.1666666666667</ele><time>2026-04-25T09:57:47.667Z</time></trkpt><trkpt lat="38.1670117" lon="15.8363167"><ele>1320.3333333333333</ele><time>2026-04-25T09:57:50.667Z</time></trkpt><trkpt lat="38.1669517" lon="15.8363883"><ele>1320.5</ele><time>2026-04-25T09:57:54.667Z</time></trkpt><trkpt lat="38.1668933" lon="15.83644"><ele>1320.6666666666665</ele><time>2026-04-25T09:57:56.667Z</time></trkpt><trkpt lat="38.1668267" lon="15.8364983"><ele>1320.8333333333333</ele><time>2026-04-25T09:57:58.667Z</time></trkpt><trkpt lat="38.166765" lon="15.8365433"><ele>1321.0</ele><time>2026-04-25T09:58:01.667Z</time></trkpt><trkpt lat="38.1666967" lon="15.8366067"><ele>1321.0</ele><time>2026-04-25T09:58:04.667Z</time></trkpt><trkpt lat="38.1666467" lon="15.8366767"><ele>1321.0</ele><time>2026-04-25T09:58:07.667Z</time></trkpt><trkpt lat="38.1666883" lon="15.8367767"><ele>1321.0</ele><time>2026-04-25T09:58:10.667Z</time></trkpt><trkpt lat="38.1666717" lon="15.8368767"><ele>1321.0</ele><time>2026-04-25T09:58:25.667Z</time></trkpt><trkpt lat="38.166635" lon="15.836955"><ele>1321.0</ele><time>2026-04-25T09:58:28.667Z</time></trkpt><trkpt lat="38.166585" lon="15.837055"><ele>1321.0</ele><time>2026-04-25T09:58:31.667Z</time></trkpt><trkpt lat="38.1665333" lon="15.83712"><ele>1322.8</ele><time>2026-04-25T09:58:33.667Z</time></trkpt><trkpt lat="38.166485" lon="15.8372017"><ele>1324.6</ele><time>2026-04-25T09:58:35.668Z</time></trkpt><trkpt lat="38.1664167" lon="15.8373267"><ele>1326.4</ele><time>2026-04-25T09:58:37.667Z</time></trkpt><trkpt lat="38.1663783" lon="15.837425"><ele>1328.2</ele><time>2026-04-25T09:58:38.667Z</time></trkpt><trkpt lat="38.1663233" lon="15.837545"><ele>1330.0</ele><time>2026-04-25T09:58:39.667Z</time></trkpt><trkpt lat="38.1662717" lon="15.8376717"><ele>1331.6</ele><time>2026-04-25T09:58:40.667Z</time></trkpt><trkpt lat="38.1662183" lon="15.8377833"><ele>1333.2</ele><time>2026-04-25T09:58:41.667Z</time></trkpt><trkpt lat="38.1661717" lon="15.837885"><ele>1334.8000000000002</ele><time>2026-04-25T09:58:42.668Z</time></trkpt><trkpt lat="38.16612" lon="15.8379983"><ele>1336.4</ele><time>2026-04-25T09:58:43.668Z</time></trkpt><trkpt lat="38.1660667" lon="15.8381117"><ele>1338.0</ele><time>2026-04-25T09:58:44.668Z</time></trkpt><trkpt lat="38.1660167" lon="15.8382217"><ele>1338.0</ele><time>2026-04-25T09:58:45.667Z</time></trkpt><trkpt lat="38.1659617" lon="15.83833"><ele>1338.0</ele><time>2026-04-25T09:58:46.667Z</time></trkpt><trkpt lat="38.1659067" lon="15.8384383"><ele>1338.0</ele><time>2026-04-25T09:58:47.667Z</time></trkpt><trkpt lat="38.1658533" lon="15.8385383"><ele>1338.0</ele><time>2026-04-25T09:58:48.668Z</time></trkpt><trkpt lat="38.1658067" lon="15.8386267"><ele>1338.0</ele><time>2026-04-25T09:58:49.668Z</time></trkpt><trkpt lat="38.1657567" lon="15.83871"><ele>1339.5</ele><time>2026-04-25T09:58:50.668Z</time></trkpt><trkpt lat="38.1657117" lon="15.8388017"><ele>1341.0</ele><time>2026-04-25T09:58:51.667Z</time></trkpt><trkpt lat="38.1656667" lon="15.8388917"><ele>1342.5</ele><time>2026-04-25T09:58:52.667Z</time></trkpt><trkpt lat="38.165615" lon="15.8389667"><ele>1344.0</ele><time>2026-04-25T09:58:53.667Z</time></trkpt><trkpt lat="38.16557" lon="15.8390567"><ele>1345.5</ele><time>2026-04-25T09:58:54.667Z</time></trkpt><trkpt lat="38.1655267" lon="15.8391417"><ele>1347.0</ele><time>2026-04-25T09:58:55.667Z</time></trkpt><trkpt lat="38.16547" lon="15.8392167"><ele>1347.6666666666667</ele><time>2026-04-25T09:58:56.667Z</time></trkpt><trkpt lat="38.1654133" lon="15.8392917"><ele>1348.3333333333333</ele><time>2026-04-25T09:58:57.667Z</time></trkpt><trkpt lat="38.1653567" lon="15.83936"><ele>1349.0</ele><time>2026-04-25T09:58:58.667Z</time></trkpt><trkpt lat="38.1652967" lon="15.839435"><ele>1349.6666666666665</ele><time>2026-04-25T09:58:59.667Z</time></trkpt><trkpt lat="38.1652367" lon="15.8395233"><ele>1350.3333333333333</ele><time>2026-04-25T09:59:00.667Z</time></trkpt><trkpt lat="38.1651833" lon="15.8396133"><ele>1351.0</ele><time>2026-04-25T09:59:01.667Z</time></trkpt><trkpt lat="38.1651367" lon="15.839715"><ele>1353.0</ele><time>2026-04-25T09:59:02.667Z</time></trkpt><trkpt lat="38.1651" lon="15.8398333"><ele>1355.0</ele><time>2026-04-25T09:59:03.667Z</time></trkpt><trkpt lat="38.1650817" lon="15.8399867"><ele>1357.0</ele><time>2026-04-25T09:59:04.667Z</time></trkpt><trkpt lat="38.1650767" lon="15.8401467"><ele>1359.0</ele><time>2026-04-25T09:59:05.668Z</time></trkpt><trkpt lat="38.1650617" lon="15.8402967"><ele>1360.5</ele><time>2026-04-25T09:59:06.667Z</time></trkpt><trkpt lat="38.1650517" lon="15.8404383"><ele>1362.0</ele><time>2026-04-25T09:59:07.667Z</time></trkpt><trkpt lat="38.1650483" lon="15.8405633"><ele>1363.5</ele><time>2026-04-25T09:59:08.667Z</time></trkpt><trkpt lat="38.1650483" lon="15.8406633"><ele>1365.0</ele><time>2026-04-25T09:59:09.668Z</time></trkpt><trkpt lat="38.165" lon="15.84076"><ele>1366.5</ele><time>2026-04-25T09:59:11.668Z</time></trkpt><trkpt lat="38.16494" lon="15.840725"><ele>1368.0</ele><time>2026-04-25T09:59:13.667Z</time></trkpt><trkpt lat="38.1648683" lon="15.8405983"><ele>1368.0</ele><time>2026-04-25T09:59:15.667Z</time></trkpt><trkpt lat="38.1648233" lon="15.8405233"><ele>1368.0</ele><time>2026-04-25T09:59:16.667Z</time></trkpt><trkpt lat="38.1647817" lon="15.8404583"><ele>1368.0</ele><time>2026-04-25T09:59:17.667Z</time></trkpt><trkpt lat="38.1647" lon="15.840375"><ele>1368.0</ele><time>2026-04-25T09:59:19.667Z</time></trkpt><trkpt lat="38.1646133" lon="15.8403983"><ele>1368.0</ele><time>2026-04-25T09:59:21.667Z</time></trkpt><trkpt lat="38.16454" lon="15.8404117"><ele>1368.0</ele><time>2026-04-25T09:59:24.667Z</time></trkpt><trkpt lat="38.164485" lon="15.8403667"><ele>1368.0</ele><time>2026-04-25T09:59:28.667Z</time></trkpt><trkpt lat="38.1644117" lon="15.8403167"><ele>1368.0</ele><time>2026-04-25T09:59:31.667Z</time></trkpt></trkseg><trkseg><trkpt lat="38.1645067" lon="15.8403183"><ele>1368.0</ele><time>2026-04-25T11:34:26.166Z</time></trkpt><trkpt lat="38.16457" lon="15.84036"><ele>1368.0</ele><time>2026-04-25T11:34:55.665Z</time></trkpt><trkpt lat="38.16464" lon="15.8403883"><ele>1368.0</ele><time>2026-04-25T11:38:04.664Z</time></trkpt><trkpt lat="38.1647317" lon="15.8403733"><ele>1368.0</ele><time>2026-04-25T11:38:25.664Z</time></trkpt><trkpt lat="38.1647833" lon="15.8402917"><ele>1368.0</ele><time>2026-04-25T11:38:30.664Z</time></trkpt><trkpt lat="38.1647817" lon="15.8401967"><ele>1368.0</ele><time>2026-04-25T11:38:32.664Z</time></trkpt><trkpt lat="38.16477" lon="15.8400983"><ele>1366.6666666666667</ele><time>2026-04-25T11:38:34.664Z</time></trkpt><trkpt lat="38.1647617" lon="15.8399983"><ele>1365.3333333333333</ele><time>2026-04-25T11:38:36.664Z</time></trkpt><trkpt lat="38.16474" lon="15.8399183"><ele>1364.0</ele><time>2026-04-25T11:38:38.664Z</time></trkpt><trkpt lat="38.1647267" lon="15.8398033"><ele>1362.6666666666665</ele><time>2026-04-25T11:38:56.664Z</time></trkpt><trkpt lat="38.1647783" lon="15.8397383"><ele>1361.3333333333333</ele><time>2026-04-25T11:38:58.665Z</time></trkpt><trkpt lat="38.1648583" lon="15.83965"><ele>1360.0</ele><time>2026-04-25T11:39:00.664Z</time></trkpt><trkpt lat="38.164935" lon="15.839555"><ele>1359.8</ele><time>2026-04-25T11:39:02.664Z</time></trkpt><trkpt lat="38.1650117" lon="15.8394433"><ele>1359.6</ele><time>2026-04-25T11:39:04.664Z</time></trkpt><trkpt lat="38.1650883" lon="15.8393283"><ele>1359.4</ele><time>2026-04-25T11:39:06.664Z</time></trkpt><trkpt lat="38.1651617" lon="15.8392433"><ele>1359.2</ele><time>2026-04-25T11:39:08.664Z</time></trkpt><trkpt lat="38.1652133" lon="15.83918"><ele>1359.0</ele><time>2026-04-25T11:39:10.664Z</time></trkpt><trkpt lat="38.1652683" lon="15.839105"><ele>1357.857142857143</ele><time>2026-04-25T11:39:13.664Z</time></trkpt><trkpt lat="38.165325" lon="15.8390633"><ele>1356.7142857142858</ele><time>2026-04-25T11:39:15.664Z</time></trkpt><trkpt lat="38.165395" lon="15.8390283"><ele>1355.5714285714284</ele><time>2026-04-25T11:39:17.664Z</time></trkpt><trkpt lat="38.16546" lon="15.8389917"><ele>1354.4285714285716</ele><time>2026-04-25T11:39:19.664Z</time></trkpt><trkpt lat="38.1655283" lon="15.8389633"><ele>1353.2857142857142</ele><time>2026-04-25T11:39:21.665Z</time></trkpt><trkpt lat="38.165615" lon="15.8389417"><ele>1352.142857142857</ele><time>2026-04-25T11:39:24.664Z</time></trkpt><trkpt lat="38.165665" lon="15.8388783"><ele>1351.0</ele><time>2026-04-25T11:39:26.664Z</time></trkpt><trkpt lat="38.1657283" lon="15.8387817"><ele>1350.0</ele><time>2026-04-25T11:39:28.664Z</time></trkpt><trkpt lat="38.1658033" lon="15.8386683"><ele>1349.0</ele><time>2026-04-25T11:39:30.664Z</time></trkpt><trkpt lat="38.1658767" lon="15.8385367"><ele>1348.0</ele><time>2026-04-25T11:39:32.664Z</time></trkpt><trkpt lat="38.1659483" lon="15.83841"><ele>1347.0</ele><time>2026-04-25T11:39:34.664Z</time></trkpt><trkpt lat="38.1660167" lon="15.8382767"><ele>1345.5</ele><time>2026-04-25T11:39:36.665Z</time></trkpt><trkpt lat="38.1660533" lon="15.8382067"><ele>1344.0</ele><time>2026-04-25T11:39:37.664Z</time></trkpt><trkpt lat="38.1660933" lon="15.8381433"><ele>1342.5</ele><time>2026-04-25T11:39:38.664Z</time></trkpt><trkpt lat="38.1661683" lon="15.8380067"><ele>1341.0</ele><time>2026-04-25T11:39:40.664Z</time></trkpt><trkpt lat="38.1662067" lon="15.8379233"><ele>1339.5</ele><time>2026-04-25T11:39:41.664Z</time></trkpt><trkpt lat="38.1662483" lon="15.8378417"><ele>1338.0</ele><time>2026-04-25T11:39:42.664Z</time></trkpt><trkpt lat="38.16628" lon="15.8377583"><ele>1338.0</ele><time>2026-04-25T11:39:43.664Z</time></trkpt><trkpt lat="38.166315" lon="15.8376767"><ele>1338.0</ele><time>2026-04-25T11:39:44.664Z</time></trkpt><trkpt lat="38.16636" lon="15.8375917"><ele>1338.0</ele><time>2026-04-25T11:39:45.665Z</time></trkpt><trkpt lat="38.166405" lon="15.8375083"><ele>1338.0</ele><time>2026-04-25T11:39:46.664Z</time></trkpt><trkpt lat="38.1664467" lon="15.8374333"><ele>1338.0</ele><time>2026-04-25T11:39:47.664Z</time></trkpt><trkpt lat="38.1664817" lon="15.8373633"><ele>1338.0</ele><time>2026-04-25T11:39:48.665Z</time></trkpt><trkpt lat="38.16652" lon="15.8372933"><ele>1338.0</ele><time>2026-04-25T11:39:49.664Z</time></trkpt><trkpt lat="38.166555" lon="15.83722"><ele>1336.1666666666667</ele><time>2026-04-25T11:39:50.665Z</time></trkpt><trkpt lat="38.1665833" lon="15.8371483"><ele>1334.3333333333333</ele><time>2026-04-25T11:39:51.664Z</time></trkpt><trkpt lat="38.166635" lon="15.83704"><ele>1332.5</ele><time>2026-04-25T11:39:53.664Z</time></trkpt><trkpt lat="38.1666667" lon="15.83697"><ele>1330.6666666666665</ele><time>2026-04-25T11:39:55.665Z</time></trkpt><trkpt lat="38.166725" lon="15.83693"><ele>1328.8333333333333</ele><time>2026-04-25T11:39:57.664Z</time></trkpt><trkpt lat="38.166815" lon="15.8368967"><ele>1327.0</ele><time>2026-04-25T11:39:59.664Z</time></trkpt><trkpt lat="38.1668933" lon="15.8368733"><ele>1327.0</ele><time>2026-04-25T11:40:01.664Z</time></trkpt><trkpt lat="38.166955" lon="15.8368467"><ele>1327.0</ele><time>2026-04-25T11:40:03.664Z</time></trkpt><trkpt lat="38.1670467" lon="15.8368083"><ele>1327.0</ele><time>2026-04-25T11:40:05.665Z</time></trkpt><trkpt lat="38.1671483" lon="15.8367767"><ele>1327.0</ele><time>2026-04-25T11:40:07.664Z</time></trkpt><trkpt lat="38.1672367" lon="15.83674"><ele>1327.0</ele><time>2026-04-25T11:40:09.664Z</time></trkpt><trkpt lat="38.16733" lon="15.8367183"><ele>1325.5</ele><time>2026-04-25T11:40:11.664Z</time></trkpt><trkpt lat="38.1673917" lon="15.8366867"><ele>1324.0</ele><time>2026-04-25T11:40:13.664Z</time></trkpt><trkpt lat="38.1674433" lon="15.8366367"><ele>1322.5</ele><time>2026-04-25T11:40:17.663Z</time></trkpt><trkpt lat="38.1674433" lon="15.8365467"><ele>1321.0</ele><time>2026-04-25T11:40:20.664Z</time></trkpt><trkpt lat="38.1674117" lon="15.83645"><ele>1319.5</ele><time>2026-04-25T11:40:22.663Z</time></trkpt><trkpt lat="38.167375" lon="15.8363333"><ele>1318.0</ele><time>2026-04-25T11:40:24.663Z</time></trkpt><trkpt lat="38.1673633" lon="15.8361933"><ele>1318.3333333333333</ele><time>2026-04-25T11:40:26.663Z</time></trkpt><trkpt lat="38.1673417" lon="15.836075"><ele>1318.6666666666665</ele><time>2026-04-25T11:40:28.663Z</time></trkpt><trkpt lat="38.167305" lon="15.8359783"><ele>1319.0</ele><time>2026-04-25T11:40:32.663Z</time></trkpt><trkpt lat="38.16726" lon="15.8359017"><ele>1319.3333333333333</ele><time>2026-04-25T11:40:34.663Z</time></trkpt><trkpt lat="38.1672117" lon="15.8358217"><ele>1319.6666666666667</ele><time>2026-04-25T11:40:36.664Z</time></trkpt><trkpt lat="38.1671617" lon="15.835725"><ele>1320.0</ele><time>2026-04-25T11:40:38.664Z</time></trkpt><trkpt lat="38.1671033" lon="15.835615"><ele>1320.0</ele><time>2026-04-25T11:40:40.663Z</time></trkpt><trkpt lat="38.1670367" lon="15.8354717"><ele>1320.0</ele><time>2026-04-25T11:40:42.663Z</time></trkpt><trkpt lat="38.1669917" lon="15.8353783"><ele>1320.0</ele><time>2026-04-25T11:40:43.663Z</time></trkpt><trkpt lat="38.166945" lon="15.8352667"><ele>1320.0</ele><time>2026-04-25T11:40:44.663Z</time></trkpt><trkpt lat="38.1668933" lon="15.8351667"><ele>1320.0</ele><time>2026-04-25T11:40:45.663Z</time></trkpt><trkpt lat="38.1668317" lon="15.83507"><ele>1320.0</ele><time>2026-04-25T11:40:46.663Z</time></trkpt><trkpt lat="38.1667733" lon="15.8349733"><ele>1320.0</ele><time>2026-04-25T11:40:47.663Z</time></trkpt><trkpt lat="38.1667067" lon="15.8348867"><ele>1320.0</ele><time>2026-04-25T11:40:48.663Z</time></trkpt><trkpt lat="38.16663" lon="15.8348017"><ele>1320.0</ele><time>2026-04-25T11:40:49.663Z</time></trkpt><trkpt lat="38.1665417" lon="15.8347183"><ele>1320.0</ele><time>2026-04-25T11:40:50.664Z</time></trkpt><trkpt lat="38.16645" lon="15.8346433"><ele>1321.4</ele><time>2026-04-25T11:40:51.663Z</time></trkpt><trkpt lat="38.166355" lon="15.8345767"><ele>1322.8</ele><time>2026-04-25T11:40:52.663Z</time></trkpt><trkpt lat="38.1662617" lon="15.8345233"><ele>1324.1999999999998</ele><time>2026-04-25T11:40:53.663Z</time></trkpt><trkpt lat="38.1661683" lon="15.8344633"><ele>1325.6</ele><time>2026-04-25T11:40:54.663Z</time></trkpt><trkpt lat="38.166075" lon="15.8344133"><ele>1327.0</ele><time>2026-04-25T11:40:55.663Z</time></trkpt><trkpt lat="38.1659867" lon="15.83438"><ele>1327.0</ele><time>2026-04-25T11:40:56.663Z</time></trkpt><trkpt lat="38.165895" lon="15.8343767"><ele>1327.0</ele><time>2026-04-25T11:40:57.663Z</time></trkpt><trkpt lat="38.1657917" lon="15.8343967"><ele>1327.0</ele><time>2026-04-25T11:40:58.664Z</time></trkpt><trkpt lat="38.1656717" lon="15.8344583"><ele>1327.0</ele><time>2026-04-25T11:40:59.664Z</time></trkpt><trkpt lat="38.16557" lon="15.8345467"><ele>1327.0</ele><time>2026-04-25T11:41:00.664Z</time></trkpt><trkpt lat="38.1654633" lon="15.8346517"><ele>1328.5</ele><time>2026-04-25T11:41:01.663Z</time></trkpt><trkpt lat="38.1653633" lon="15.834775"><ele>1330.0</ele><time>2026-04-25T11:41:02.663Z</time></trkpt><trkpt lat="38.1652633" lon="15.83489"><ele>1331.5</ele><time>2026-04-25T11:41:03.663Z</time></trkpt><trkpt lat="38.165175" lon="15.83498"><ele>1333.0</ele><time>2026-04-25T11:41:04.663Z</time></trkpt><trkpt lat="38.1651017" lon="15.8350383"><ele>1333.0</ele><time>2026-04-25T11:41:05.664Z</time></trkpt><trkpt lat="38.1649917" lon="15.8350467"><ele>1333.0</ele><time>2026-04-25T11:41:07.663Z</time></trkpt><trkpt lat="38.1649283" lon="15.8350067"><ele>1333.0</ele><time>2026-04-25T11:41:08.664Z</time></trkpt><trkpt lat="38.1648783" lon="15.8348633"><ele>1333.0</ele><time>2026-04-25T11:41:10.663Z</time></trkpt><trkpt lat="38.1648633" lon="15.8347833"><ele>1333.0</ele><time>2026-04-25T11:41:11.663Z</time></trkpt><trkpt lat="38.1648683" lon="15.8346833"><ele>1333.0</ele><time>2026-04-25T11:41:12.663Z</time></trkpt><trkpt lat="38.1648583" lon="15.8345917"><ele>1334.2</ele><time>2026-04-25T11:41:13.664Z</time></trkpt><trkpt lat="38.1648367" lon="15.834475"><ele>1335.4</ele><time>2026-04-25T11:41:14.663Z</time></trkpt><trkpt lat="38.16479" lon="15.83437"><ele>1336.6000000000001</ele><time>2026-04-25T11:41:15.663Z</time></trkpt><trkpt lat="38.1646917" lon="15.8342967"><ele>1337.8000000000002</ele><time>2026-04-25T11:41:16.663Z</time></trkpt><trkpt lat="38.1646283" lon="15.8342567"><ele>1339.0</ele><time>2026-04-25T11:41:17.663Z</time></trkpt><trkpt lat="38.1645133" lon="15.8342683"><ele>1339.0</ele><time>2026-04-25T11:41:18.663Z</time></trkpt><trkpt lat="38.1643633" lon="15.8343067"><ele>1339.0</ele><time>2026-04-25T11:41:19.664Z</time></trkpt><trkpt lat="38.1641883" lon="15.8343567"><ele>1339.0</ele><time>2026-04-25T11:41:20.664Z</time></trkpt><trkpt lat="38.1640167" lon="15.834385"><ele>1337.0</ele><time>2026-04-25T11:41:21.663Z</time></trkpt><trkpt lat="38.1638683" lon="15.8344167"><ele>1335.0</ele><time>2026-04-25T11:41:22.663Z</time></trkpt><trkpt lat="38.1637283" lon="15.8344617"><ele>1333.0</ele><time>2026-04-25T11:41:23.663Z</time></trkpt><trkpt lat="38.1635933" lon="15.83451"><ele>1331.0</ele><time>2026-04-25T11:41:24.663Z</time></trkpt><trkpt lat="38.1634583" lon="15.8345717"><ele>1331.0</ele><time>2026-04-25T11:41:25.663Z</time></trkpt><trkpt lat="38.163345" lon="15.83465"><ele>1331.0</ele><time>2026-04-25T11:41:26.664Z</time></trkpt><trkpt lat="38.1632417" lon="15.8347467"><ele>1331.0</ele><time>2026-04-25T11:41:27.664Z</time></trkpt><trkpt lat="38.163155" lon="15.8348767"><ele>1331.0</ele><time>2026-04-25T11:41:28.664Z</time></trkpt><trkpt lat="38.1630767" lon="15.835025"><ele>1330.0</ele><time>2026-04-25T11:41:29.663Z</time></trkpt><trkpt lat="38.163" lon="15.8351867"><ele>1329.0</ele><time>2026-04-25T11:41:30.663Z</time></trkpt><trkpt lat="38.16292" lon="15.8353517"><ele>1328.0</ele><time>2026-04-25T11:41:31.663Z</time></trkpt><trkpt lat="38.16283" lon="15.83551"><ele>1328.0</ele><time>2026-04-25T11:41:32.663Z</time></trkpt><trkpt lat="38.1627433" lon="15.835645"><ele>1328.0</ele><time>2026-04-25T11:41:33.663Z</time></trkpt><trkpt lat="38.1626583" lon="15.83577"><ele>1328.0</ele><time>2026-04-25T11:41:34.663Z</time></trkpt><trkpt lat="38.16255" lon="15.8359033"><ele>1328.0</ele><time>2026-04-25T11:41:35.663Z</time></trkpt><trkpt lat="38.16244" lon="15.836025"><ele>1331.0</ele><time>2026-04-25T11:41:36.663Z</time></trkpt><trkpt lat="38.16234" lon="15.836135"><ele>1334.0</ele><time>2026-04-25T11:41:37.663Z</time></trkpt><trkpt lat="38.1622533" lon="15.836265"><ele>1337.0</ele><time>2026-04-25T11:41:38.663Z</time></trkpt><trkpt lat="38.1621783" lon="15.836385"><ele>1340.0</ele><time>2026-04-25T11:41:39.663Z</time></trkpt><trkpt lat="38.1621183" lon="15.8365033"><ele>1340.0</ele><time>2026-04-25T11:41:40.663Z</time></trkpt><trkpt lat="38.1620533" lon="15.8366017"><ele>1340.0</ele><time>2026-04-25T11:41:41.663Z</time></trkpt><trkpt lat="38.16197" lon="15.8366933"><ele>1340.0</ele><time>2026-04-25T11:41:42.664Z</time></trkpt><trkpt lat="38.1618883" lon="15.8367217"><ele>1340.0</ele><time>2026-04-25T11:41:43.663Z</time></trkpt><trkpt lat="38.161795" lon="15.836745"><ele>1340.0</ele><time>2026-04-25T11:41:44.663Z</time></trkpt><trkpt lat="38.1616983" lon="15.8367667"><ele>1340.0</ele><time>2026-04-25T11:41:45.663Z</time></trkpt><trkpt lat="38.1616183" lon="15.8367733"><ele>1340.0</ele><time>2026-04-25T11:41:46.663Z</time></trkpt><trkpt lat="38.1615517" lon="15.8367567"><ele>1340.0</ele><time>2026-04-25T11:41:47.663Z</time></trkpt><trkpt lat="38.1614917" lon="15.8366567"><ele>1340.0</ele><time>2026-04-25T11:41:49.664Z</time></trkpt><trkpt lat="38.1614833" lon="15.8365267"><ele>1340.0</ele><time>2026-04-25T11:41:51.664Z</time></trkpt><trkpt lat="38.1614983" lon="15.8364317"><ele>1340.0</ele><time>2026-04-25T11:41:52.663Z</time></trkpt><trkpt lat="38.1615167" lon="15.8363317"><ele>1340.0</ele><time>2026-04-25T11:41:53.664Z</time></trkpt><trkpt lat="38.1615417" lon="15.8362117"><ele>1340.0</ele><time>2026-04-25T11:41:54.663Z</time></trkpt><trkpt lat="38.16158" lon="15.8360583"><ele>1340.0</ele><time>2026-04-25T11:41:55.664Z</time></trkpt><trkpt lat="38.1616" lon="15.8359083"><ele>1340.0</ele><time>2026-04-25T11:41:56.663Z</time></trkpt><trkpt lat="38.16161" lon="15.83572"><ele>1340.6666666666667</ele><time>2026-04-25T11:41:57.663Z</time></trkpt><trkpt lat="38.161615" lon="15.8354933"><ele>1341.3333333333333</ele><time>2026-04-25T11:41:58.663Z</time></trkpt><trkpt lat="38.1615933" lon="15.8353"><ele>1342.0</ele><time>2026-04-25T11:41:59.663Z</time></trkpt><trkpt lat="38.161605" lon="15.8349233"><ele>1342.5</ele><time>2026-04-25T11:42:00.664Z</time></trkpt><trkpt lat="38.1615367" lon="15.8347733"><ele>1343.0</ele><time>2026-04-25T11:42:01.663Z</time></trkpt><trkpt lat="38.1614667" lon="15.834635"><ele>1343.5</ele><time>2026-04-25T11:42:02.663Z</time></trkpt><trkpt lat="38.1614083" lon="15.8344967"><ele>1344.0</ele><time>2026-04-25T11:42:03.663Z</time></trkpt><trkpt lat="38.1613617" lon="15.8343517"><ele>1345.25</ele><time>2026-04-25T11:42:04.663Z</time></trkpt><trkpt lat="38.1613183" lon="15.8341867"><ele>1346.5</ele><time>2026-04-25T11:42:05.664Z</time></trkpt><trkpt lat="38.1612883" lon="15.8340333"><ele>1347.75</ele><time>2026-04-25T11:42:06.663Z</time></trkpt><trkpt lat="38.1612517" lon="15.833885"><ele>1349.0</ele><time>2026-04-25T11:42:07.664Z</time></trkpt><trkpt lat="38.161205" lon="15.8337617"><ele>1349.0</ele><time>2026-04-25T11:42:08.664Z</time></trkpt><trkpt lat="38.1611367" lon="15.833655"><ele>1349.0</ele><time>2026-04-25T11:42:09.663Z</time></trkpt><trkpt lat="38.1610483" lon="15.8335717"><ele>1349.0</ele><time>2026-04-25T11:42:10.663Z</time></trkpt><trkpt lat="38.16096" lon="15.833525"><ele>1349.0</ele><time>2026-04-25T11:42:11.663Z</time></trkpt><trkpt lat="38.160855" lon="15.8334917"><ele>1349.0</ele><time>2026-04-25T11:42:12.663Z</time></trkpt><trkpt lat="38.1607383" lon="15.8334833"><ele>1349.25</ele><time>2026-04-25T11:42:13.663Z</time></trkpt><trkpt lat="38.1606" lon="15.8334767"><ele>1349.5</ele><time>2026-04-25T11:42:14.663Z</time></trkpt><trkpt lat="38.1604633" lon="15.83347"><ele>1349.75</ele><time>2026-04-25T11:42:15.663Z</time></trkpt><trkpt lat="38.1602983" lon="15.8334583"><ele>1350.0</ele><time>2026-04-25T11:42:16.663Z</time></trkpt><trkpt lat="38.1601483" lon="15.8334567"><ele>1349.75</ele><time>2026-04-25T11:42:17.663Z</time></trkpt><trkpt lat="38.1599983" lon="15.833445"><ele>1349.5</ele><time>2026-04-25T11:42:18.663Z</time></trkpt><trkpt lat="38.15986" lon="15.8334483"><ele>1349.25</ele><time>2026-04-25T11:42:19.663Z</time></trkpt><trkpt lat="38.1597117" lon="15.83344"><ele>1349.0</ele><time>2026-04-25T11:42:20.664Z</time></trkpt><trkpt lat="38.1595533" lon="15.8334283"><ele>1349.0</ele><time>2026-04-25T11:42:21.664Z</time></trkpt><trkpt lat="38.1593933" lon="15.833425"><ele>1349.0</ele><time>2026-04-25T11:42:22.663Z</time></trkpt><trkpt lat="38.1592383" lon="15.83341"><ele>1349.0</ele><time>2026-04-25T11:42:23.663Z</time></trkpt><trkpt lat="38.1590817" lon="15.8333983"><ele>1349.6666666666667</ele><time>2026-04-25T11:42:24.663Z</time></trkpt><trkpt lat="38.1589267" lon="15.8333867"><ele>1350.3333333333333</ele><time>2026-04-25T11:42:25.664Z</time></trkpt><trkpt lat="38.1587567" lon="15.8333717"><ele>1351.0</ele><time>2026-04-25T11:42:26.664Z</time></trkpt><trkpt lat="38.1585683" lon="15.8333517"><ele>1351.0</ele><time>2026-04-25T11:42:27.664Z</time></trkpt><trkpt lat="38.1584" lon="15.8333417"><ele>1351.0</ele><time>2026-04-25T11:42:28.663Z</time></trkpt><trkpt lat="38.1582283" lon="15.8333383"><ele>1351.0</ele><time>2026-04-25T11:42:29.663Z</time></trkpt><trkpt lat="38.15806" lon="15.8333317"><ele>1352.0</ele><time>2026-04-25T11:42:30.663Z</time></trkpt><trkpt lat="38.1578933" lon="15.8333183"><ele>1353.0</ele><time>2026-04-25T11:42:31.663Z</time></trkpt><trkpt lat="38.1577283" lon="15.8333067"><ele>1354.0</ele><time>2026-04-25T11:42:32.664Z</time></trkpt><trkpt lat="38.157565" lon="15.8332883"><ele>1354.0</ele><time>2026-04-25T11:42:33.663Z</time></trkpt><trkpt lat="38.1574" lon="15.83328"><ele>1354.0</ele><time>2026-04-25T11:42:34.663Z</time></trkpt><trkpt lat="38.15725" lon="15.8332683"><ele>1354.0</ele><time>2026-04-25T11:42:35.663Z</time></trkpt><trkpt lat="38.1571" lon="15.83325"><ele>1354.5</ele><time>2026-04-25T11:42:36.663Z</time></trkpt><trkpt lat="38.15697" lon="15.8332417"><ele>1355.0</ele><time>2026-04-25T11:42:37.663Z</time></trkpt><trkpt lat="38.1568317" lon="15.8332117"><ele>1355.5</ele><time>2026-04-25T11:42:38.664Z</time></trkpt><trkpt lat="38.156695" lon="15.833195"><ele>1356.0</ele><time>2026-04-25T11:42:39.664Z</time></trkpt><trkpt lat="38.1565683" lon="15.833185"><ele>1356.1999999999998</ele><time>2026-04-25T11:42:40.663Z</time></trkpt><trkpt lat="38.1564633" lon="15.8331767"><ele>1356.3999999999999</ele><time>2026-04-25T11:42:41.663Z</time></trkpt><trkpt lat="38.1563567" lon="15.8331683"><ele>1356.6</ele><time>2026-04-25T11:42:42.663Z</time></trkpt><trkpt lat="38.1562417" lon="15.8331583"><ele>1356.8</ele><time>2026-04-25T11:42:43.663Z</time></trkpt><trkpt lat="38.1561317" lon="15.8331417"><ele>1357.0</ele><time>2026-04-25T11:42:44.663Z</time></trkpt><trkpt lat="38.1560117" lon="15.833125"><ele>1357.0</ele><time>2026-04-25T11:42:45.663Z</time></trkpt><trkpt lat="38.1558817" lon="15.8330883"><ele>1357.0</ele><time>2026-04-25T11:42:46.663Z</time></trkpt><trkpt lat="38.1557567" lon="15.83303"><ele>1357.0</ele><time>2026-04-25T11:42:47.663Z</time></trkpt><trkpt lat="38.155635" lon="15.8329633"><ele>1357.0</ele><time>2026-04-25T11:42:48.663Z</time></trkpt><trkpt lat="38.155505" lon="15.8328967"><ele>1357.75</ele><time>2026-04-25T11:42:49.663Z</time></trkpt><trkpt lat="38.1553683" lon="15.8328233"><ele>1358.5</ele><time>2026-04-25T11:42:50.664Z</time></trkpt><trkpt lat="38.15524" lon="15.8327617"><ele>1359.25</ele><time>2026-04-25T11:42:51.663Z</time></trkpt><trkpt lat="38.1551083" lon="15.83271"><ele>1360.0</ele><time>2026-04-25T11:42:52.663Z</time></trkpt><trkpt lat="38.1549667" lon="15.8326633"><ele>1357.6666666666665</ele><time>2026-04-25T11:42:53.663Z</time></trkpt><trkpt lat="38.1548067" lon="15.8326317"><ele>1355.3333333333333</ele><time>2026-04-25T11:42:54.664Z</time></trkpt><trkpt lat="38.15464" lon="15.832585"><ele>1353.0</ele><time>2026-04-25T11:42:55.663Z</time></trkpt><trkpt lat="38.1544667" lon="15.832545"><ele>1353.0</ele><time>2026-04-25T11:42:56.663Z</time></trkpt><trkpt lat="38.154265" lon="15.8325"><ele>1353.0</ele><time>2026-04-25T11:42:57.663Z</time></trkpt><trkpt lat="38.1540817" lon="15.8324467"><ele>1353.0</ele><time>2026-04-25T11:42:58.663Z</time></trkpt><trkpt lat="38.1539" lon="15.8323933"><ele>1352.3333333333333</ele><time>2026-04-25T11:42:59.663Z</time></trkpt><trkpt lat="38.153735" lon="15.832335"><ele>1351.6666666666665</ele><time>2026-04-25T11:43:00.663Z</time></trkpt><trkpt lat="38.1535817" lon="15.8322833"><ele>1351.0</ele><time>2026-04-25T11:43:01.663Z</time></trkpt><trkpt lat="38.1534283" lon="15.832235"><ele>1351.0</ele><time>2026-04-25T11:43:02.664Z</time></trkpt><trkpt lat="38.1532717" lon="15.8321917"><ele>1351.0</ele><time>2026-04-25T11:43:03.663Z</time></trkpt><trkpt lat="38.1531117" lon="15.832145"><ele>1351.0</ele><time>2026-04-25T11:43:04.663Z</time></trkpt><trkpt lat="38.1529367" lon="15.83208"><ele>1353.6666666666665</ele><time>2026-04-25T11:43:05.663Z</time></trkpt><trkpt lat="38.15277" lon="15.83201"><ele>1356.3333333333333</ele><time>2026-04-25T11:43:06.663Z</time></trkpt><trkpt lat="38.1525983" lon="15.8319383"><ele>1359.0</ele><time>2026-04-25T11:43:07.663Z</time></trkpt><trkpt lat="38.152435" lon="15.831895"><ele>1361.3333333333333</ele><time>2026-04-25T11:43:08.663Z</time></trkpt><trkpt lat="38.1522867" lon="15.8318483"><ele>1363.6666666666665</ele><time>2026-04-25T11:43:09.664Z</time></trkpt><trkpt lat="38.152135" lon="15.8317933"><ele>1366.0</ele><time>2026-04-25T11:43:10.663Z</time></trkpt><trkpt lat="38.1519833" lon="15.8317517"><ele>1365.6</ele><time>2026-04-25T11:43:11.663Z</time></trkpt><trkpt lat="38.1518483" lon="15.8317233"><ele>1365.1999999999998</ele><time>2026-04-25T11:43:12.663Z</time></trkpt><trkpt lat="38.1517367" lon="15.8317133"><ele>1364.8000000000002</ele><time>2026-04-25T11:43:13.663Z</time></trkpt><trkpt lat="38.15164" lon="15.8317283"><ele>1364.4</ele><time>2026-04-25T11:43:14.663Z</time></trkpt><trkpt lat="38.1515433" lon="15.8317667"><ele>1364.0</ele><time>2026-04-25T11:43:15.663Z</time></trkpt><trkpt lat="38.1514433" lon="15.8318133"><ele>1364.0</ele><time>2026-04-25T11:43:16.663Z</time></trkpt><trkpt lat="38.151345" lon="15.83185"><ele>1364.0</ele><time>2026-04-25T11:43:17.663Z</time></trkpt><trkpt lat="38.15124" lon="15.8318667"><ele>1364.0</ele><time>2026-04-25T11:43:18.663Z</time></trkpt><trkpt lat="38.1511433" lon="15.8318567"><ele>1364.0</ele><time>2026-04-25T11:43:19.663Z</time></trkpt><trkpt lat="38.1510583" lon="15.8318333"><ele>1364.0</ele><time>2026-04-25T11:43:20.663Z</time></trkpt><trkpt lat="38.15097" lon="15.8317833"><ele>1360.6</ele><time>2026-04-25T11:43:21.663Z</time></trkpt><trkpt lat="38.1508767" lon="15.8317217"><ele>1357.2</ele><time>2026-04-25T11:43:22.664Z</time></trkpt><trkpt lat="38.15078" lon="15.8316633"><ele>1353.8</ele><time>2026-04-25T11:43:23.664Z</time></trkpt><trkpt lat="38.1506783" lon="15.8316117"><ele>1350.3999999999999</ele><time>2026-04-25T11:43:24.663Z</time></trkpt><trkpt lat="38.1505633" lon="15.8316067"><ele>1347.0</ele><time>2026-04-25T11:43:25.664Z</time></trkpt><trkpt lat="38.1504583" lon="15.8316433"><ele>1345.75</ele><time>2026-04-25T11:43:26.663Z</time></trkpt><trkpt lat="38.1503483" lon="15.83172"><ele>1344.5</ele><time>2026-04-25T11:43:27.663Z</time></trkpt><trkpt lat="38.1502333" lon="15.83179"><ele>1343.25</ele><time>2026-04-25T11:43:28.663Z</time></trkpt><trkpt lat="38.150125" lon="15.8318533"><ele>1342.0</ele><time>2026-04-25T11:43:29.664Z</time></trkpt><trkpt lat="38.1500067" lon="15.8318967"><ele>1341.8</ele><time>2026-04-25T11:43:30.663Z</time></trkpt><trkpt lat="38.14989" lon="15.8319183"><ele>1341.6</ele><time>2026-04-25T11:43:31.663Z</time></trkpt><trkpt lat="38.14978" lon="15.8319133"><ele>1341.3999999999999</ele><time>2026-04-25T11:43:32.663Z</time></trkpt><trkpt lat="38.1496817" lon="15.8318817"><ele>1341.1999999999998</ele><time>2026-04-25T11:43:33.663Z</time></trkpt><trkpt lat="38.1495867" lon="15.8318317"><ele>1341.0</ele><time>2026-04-25T11:43:34.663Z</time></trkpt><trkpt lat="38.149495" lon="15.8317583"><ele>1341.0</ele><time>2026-04-25T11:43:35.663Z</time></trkpt><trkpt lat="38.149405" lon="15.83167"><ele>1341.0</ele><time>2026-04-25T11:43:36.663Z</time></trkpt><trkpt lat="38.1493167" lon="15.8315733"><ele>1341.0</ele><time>2026-04-25T11:43:37.663Z</time></trkpt><trkpt lat="38.1492217" lon="15.8314867"><ele>1341.0</ele><time>2026-04-25T11:43:38.663Z</time></trkpt><trkpt lat="38.1491283" lon="15.8314183"><ele>1342.6</ele><time>2026-04-25T11:43:39.663Z</time></trkpt><trkpt lat="38.149035" lon="15.8313833"><ele>1344.1999999999998</ele><time>2026-04-25T11:43:40.663Z</time></trkpt><trkpt lat="38.1489383" lon="15.831375"><ele>1345.8000000000002</ele><time>2026-04-25T11:43:41.663Z</time></trkpt><trkpt lat="38.148835" lon="15.8313733"><ele>1347.4</ele><time>2026-04-25T11:43:42.663Z</time></trkpt><trkpt lat="38.1487267" lon="15.8313917"><ele>1349.0</ele><time>2026-04-25T11:43:43.663Z</time></trkpt><trkpt lat="38.1486233" lon="15.8314267"><ele>1349.0</ele><time>2026-04-25T11:43:44.663Z</time></trkpt><trkpt lat="38.1485433" lon="15.83149"><ele>1349.0</ele><time>2026-04-25T11:43:45.663Z</time></trkpt><trkpt lat="38.1484683" lon="15.8315733"><ele>1349.0</ele><time>2026-04-25T11:43:46.663Z</time></trkpt><trkpt lat="38.1484033" lon="15.8316783"><ele>1349.0</ele><time>2026-04-25T11:43:47.664Z</time></trkpt><trkpt lat="38.1483433" lon="15.8317833"><ele>1349.0</ele><time>2026-04-25T11:43:48.664Z</time></trkpt><trkpt lat="38.1482867" lon="15.83188"><ele>1350.0</ele><time>2026-04-25T11:43:49.664Z</time></trkpt><trkpt lat="38.148225" lon="15.8319467"><ele>1351.0</ele><time>2026-04-25T11:43:50.663Z</time></trkpt><trkpt lat="38.1481633" lon="15.83199"><ele>1352.0</ele><time>2026-04-25T11:43:51.663Z</time></trkpt><trkpt lat="38.1480783" lon="15.83201"><ele>1353.0</ele><time>2026-04-25T11:43:52.663Z</time></trkpt><trkpt lat="38.147985" lon="15.8320217"><ele>1354.0</ele><time>2026-04-25T11:43:53.663Z</time></trkpt><trkpt lat="38.1478867" lon="15.8320367"><ele>1355.0</ele><time>2026-04-25T11:43:54.663Z</time></trkpt><trkpt lat="38.1477817" lon="15.832085"><ele>1355.0</ele><time>2026-04-25T11:43:55.663Z</time></trkpt><trkpt lat="38.1476633" lon="15.8321483"><ele>1355.0</ele><time>2026-04-25T11:43:56.663Z</time></trkpt><trkpt lat="38.1475567" lon="15.8322183"><ele>1355.0</ele><time>2026-04-25T11:43:57.663Z</time></trkpt><trkpt lat="38.1474517" lon="15.8322967"><ele>1355.0</ele><time>2026-04-25T11:43:58.663Z</time></trkpt><trkpt lat="38.14735" lon="15.8323817"><ele>1351.2</ele><time>2026-04-25T11:43:59.663Z</time></trkpt><trkpt lat="38.1472517" lon="15.8324733"><ele>1347.4</ele><time>2026-04-25T11:44:00.664Z</time></trkpt><trkpt lat="38.147175" lon="15.8325733"><ele>1343.6</ele><time>2026-04-25T11:44:01.663Z</time></trkpt><trkpt lat="38.1471083" lon="15.83268"><ele>1339.8</ele><time>2026-04-25T11:44:02.664Z</time></trkpt><trkpt lat="38.1470667" lon="15.8328083"><ele>1336.0</ele><time>2026-04-25T11:44:03.663Z</time></trkpt><trkpt lat="38.14704" lon="15.8329483"><ele>1336.0</ele><time>2026-04-25T11:44:04.663Z</time></trkpt><trkpt lat="38.147035" lon="15.83309"><ele>1336.0</ele><time>2026-04-25T11:44:05.663Z</time></trkpt><trkpt lat="38.1470283" lon="15.83323"><ele>1336.0</ele><time>2026-04-25T11:44:06.663Z</time></trkpt><trkpt lat="38.1470167" lon="15.8333517"><ele>1336.0</ele><time>2026-04-25T11:44:07.663Z</time></trkpt><trkpt lat="38.1469933" lon="15.8334633"><ele>1336.0</ele><time>2026-04-25T11:44:08.664Z</time></trkpt><trkpt lat="38.1469417" lon="15.8335817"><ele>1335.0</ele><time>2026-04-25T11:44:09.663Z</time></trkpt><trkpt lat="38.1468517" lon="15.8337133"><ele>1334.0</ele><time>2026-04-25T11:44:10.664Z</time></trkpt><trkpt lat="38.1467583" lon="15.8338117"><ele>1333.0</ele><time>2026-04-25T11:44:11.664Z</time></trkpt><trkpt lat="38.1466483" lon="15.8339033"><ele>1332.0</ele><time>2026-04-25T11:44:12.664Z</time></trkpt><trkpt lat="38.1465433" lon="15.834"><ele>1332.0</ele><time>2026-04-25T11:44:13.663Z</time></trkpt><trkpt lat="38.14646" lon="15.834105"><ele>1332.0</ele><time>2026-04-25T11:44:14.664Z</time></trkpt><trkpt lat="38.1463733" lon="15.8342083"><ele>1332.0</ele><time>2026-04-25T11:44:15.663Z</time></trkpt><trkpt lat="38.14627" lon="15.83431"><ele>1332.0</ele><time>2026-04-25T11:44:16.663Z</time></trkpt><trkpt lat="38.1461683" lon="15.8344017"><ele>1332.3999999999999</ele><time>2026-04-25T11:44:17.663Z</time></trkpt><trkpt lat="38.146065" lon="15.8344733"><ele>1332.8</ele><time>2026-04-25T11:44:18.663Z</time></trkpt><trkpt lat="38.1459617" lon="15.834525"><ele>1333.2</ele><time>2026-04-25T11:44:19.663Z</time></trkpt><trkpt lat="38.1458533" lon="15.83456"><ele>1333.6</ele><time>2026-04-25T11:44:20.663Z</time></trkpt><trkpt lat="38.14576" lon="15.8346017"><ele>1334.0</ele><time>2026-04-25T11:44:21.663Z</time></trkpt><trkpt lat="38.14568" lon="15.83465"><ele>1334.0</ele><time>2026-04-25T11:44:22.663Z</time></trkpt><trkpt lat="38.1456067" lon="15.83472"><ele>1334.0</ele><time>2026-04-25T11:44:23.663Z</time></trkpt><trkpt lat="38.1455483" lon="15.834805"><ele>1334.0</ele><time>2026-04-25T11:44:24.664Z</time></trkpt><trkpt lat="38.1455033" lon="15.834925"><ele>1334.0</ele><time>2026-04-25T11:44:25.664Z</time></trkpt><trkpt lat="38.145465" lon="15.83505"><ele>1334.0</ele><time>2026-04-25T11:44:26.664Z</time></trkpt><trkpt lat="38.1454283" lon="15.8351767"><ele>1337.2</ele><time>2026-04-25T11:44:27.663Z</time></trkpt><trkpt lat="38.1453817" lon="15.83531"><ele>1340.4</ele><time>2026-04-25T11:44:28.663Z</time></trkpt><trkpt lat="38.1453483" lon="15.8354333"><ele>1343.6</ele><time>2026-04-25T11:44:29.663Z</time></trkpt><trkpt lat="38.1453067" lon="15.8355433"><ele>1346.8</ele><time>2026-04-25T11:44:30.663Z</time></trkpt><trkpt lat="38.1452533" lon="15.835635"><ele>1350.0</ele><time>2026-04-25T11:44:31.663Z</time></trkpt><trkpt lat="38.1451917" lon="15.835715"><ele>1350.0</ele><time>2026-04-25T11:44:32.663Z</time></trkpt><trkpt lat="38.1450783" lon="15.8357783"><ele>1350.0</ele><time>2026-04-25T11:44:34.663Z</time></trkpt><trkpt lat="38.1450017" lon="15.8357483"><ele>1350.0</ele><time>2026-04-25T11:44:35.664Z</time></trkpt><trkpt lat="38.1449133" lon="15.835665"><ele>1350.0</ele><time>2026-04-25T11:44:36.663Z</time></trkpt><trkpt lat="38.1448183" lon="15.8355583"><ele>1350.0</ele><time>2026-04-25T11:44:37.663Z</time></trkpt><trkpt lat="38.1447117" lon="15.8354567"><ele>1355.25</ele><time>2026-04-25T11:44:38.663Z</time></trkpt><trkpt lat="38.1445933" lon="15.83538"><ele>1360.5</ele><time>2026-04-25T11:44:39.663Z</time></trkpt><trkpt lat="38.1444683" lon="15.8353133"><ele>1365.75</ele><time>2026-04-25T11:44:40.664Z</time></trkpt><trkpt lat="38.1443417" lon="15.8352717"><ele>1371.0</ele><time>2026-04-25T11:44:41.663Z</time></trkpt><trkpt lat="38.1442117" lon="15.8352317"><ele>1371.0</ele><time>2026-04-25T11:44:42.664Z</time></trkpt><trkpt lat="38.1440767" lon="15.8351717"><ele>1371.0</ele><time>2026-04-25T11:44:43.663Z</time></trkpt><trkpt lat="38.143945" lon="15.8351067"><ele>1371.0</ele><time>2026-04-25T11:44:44.664Z</time></trkpt><trkpt lat="38.1438167" lon="15.8350367"><ele>1371.0</ele><time>2026-04-25T11:44:45.663Z</time></trkpt><trkpt lat="38.1436883" lon="15.8349817"><ele>1369.0</ele><time>2026-04-25T11:44:46.664Z</time></trkpt><trkpt lat="38.1435567" lon="15.8349317"><ele>1367.0</ele><time>2026-04-25T11:44:47.663Z</time></trkpt><trkpt lat="38.1434217" lon="15.8348967"><ele>1365.0</ele><time>2026-04-25T11:44:48.664Z</time></trkpt><trkpt lat="38.14328" lon="15.8348767"><ele>1363.0</ele><time>2026-04-25T11:44:49.663Z</time></trkpt><trkpt lat="38.143135" lon="15.8348783"><ele>1362.5</ele><time>2026-04-25T11:44:50.663Z</time></trkpt><trkpt lat="38.1429967" lon="15.834905"><ele>1362.0</ele><time>2026-04-25T11:44:51.663Z</time></trkpt><trkpt lat="38.1428683" lon="15.8349267"><ele>1361.5</ele><time>2026-04-25T11:44:52.663Z</time></trkpt><trkpt lat="38.1427483" lon="15.8349183"><ele>1361.0</ele><time>2026-04-25T11:44:53.663Z</time></trkpt><trkpt lat="38.14265" lon="15.8349033"><ele>1361.0</ele><time>2026-04-25T11:44:54.664Z</time></trkpt><trkpt lat="38.142565" lon="15.8348433"><ele>1361.0</ele><time>2026-04-25T11:44:55.663Z</time></trkpt><trkpt lat="38.1425" lon="15.8347283"><ele>1361.0</ele><time>2026-04-25T11:44:56.664Z</time></trkpt><trkpt lat="38.142435" lon="15.8346067"><ele>1361.0</ele><time>2026-04-25T11:44:57.663Z</time></trkpt><trkpt lat="38.1423817" lon="15.834465"><ele>1361.0</ele><time>2026-04-25T11:44:58.663Z</time></trkpt><trkpt lat="38.1423483" lon="15.8343183"><ele>1360.75</ele><time>2026-04-25T11:44:59.663Z</time></trkpt><trkpt lat="38.1423317" lon="15.8341617"><ele>1360.5</ele><time>2026-04-25T11:45:00.664Z</time></trkpt><trkpt lat="38.14232" lon="15.8339833"><ele>1360.25</ele><time>2026-04-25T11:45:01.663Z</time></trkpt><trkpt lat="38.142335" lon="15.83378"><ele>1360.0</ele><time>2026-04-25T11:45:02.663Z</time></trkpt><trkpt lat="38.1423483" lon="15.8335767"><ele>1356.0</ele><time>2026-04-25T11:45:03.663Z</time></trkpt><trkpt lat="38.1423567" lon="15.83338"><ele>1352.0</ele><time>2026-04-25T11:45:04.663Z</time></trkpt><trkpt lat="38.1423683" lon="15.833185"><ele>1348.0</ele><time>2026-04-25T11:45:05.663Z</time></trkpt><trkpt lat="38.14238" lon="15.832995"><ele>1350.3333333333333</ele><time>2026-04-25T11:45:06.664Z</time></trkpt><trkpt lat="38.1423967" lon="15.8327933"><ele>1352.6666666666667</ele><time>2026-04-25T11:45:07.663Z</time></trkpt><trkpt lat="38.1424183" lon="15.83259"><ele>1355.0</ele><time>2026-04-25T11:45:08.664Z</time></trkpt><trkpt lat="38.1424283" lon="15.83238"><ele>1355.0</ele><time>2026-04-25T11:45:09.663Z</time></trkpt><trkpt lat="38.142435" lon="15.83216"><ele>1355.0</ele><time>2026-04-25T11:45:10.664Z</time></trkpt><trkpt lat="38.1424317" lon="15.8319233"><ele>1355.0</ele><time>2026-04-25T11:45:11.664Z</time></trkpt><trkpt lat="38.1424283" lon="15.831685"><ele>1354.0</ele><time>2026-04-25T11:45:12.663Z</time></trkpt><trkpt lat="38.1424233" lon="15.831435"><ele>1353.0</ele><time>2026-04-25T11:45:13.663Z</time></trkpt><trkpt lat="38.1424183" lon="15.8311733"><ele>1352.0</ele><time>2026-04-25T11:45:14.663Z</time></trkpt><trkpt lat="38.142415" lon="15.8309033"><ele>1350.6666666666667</ele><time>2026-04-25T11:45:15.663Z</time></trkpt><trkpt lat="38.1424083" lon="15.83063"><ele>1349.3333333333333</ele><time>2026-04-25T11:45:16.663Z</time></trkpt><trkpt lat="38.142405" lon="15.8303533"><ele>1348.0</ele><time>2026-04-25T11:45:17.663Z</time></trkpt><trkpt lat="38.14241" lon="15.83008"><ele>1346.0</ele><time>2026-04-25T11:45:18.663Z</time></trkpt><trkpt lat="38.14241" lon="15.8297967"><ele>1344.0</ele><time>2026-04-25T11:45:19.663Z</time></trkpt><trkpt lat="38.1424083" lon="15.8295067"><ele>1341.0</ele><time>2026-04-25T11:45:20.663Z</time></trkpt><trkpt lat="38.142405" lon="15.8292017"><ele>1338.0</ele><time>2026-04-25T11:45:21.663Z</time></trkpt><trkpt lat="38.1423983" lon="15.82891"><ele>1338.0</ele><time>2026-04-25T11:45:22.663Z</time></trkpt><trkpt lat="38.1423983" lon="15.8286367"><ele>1338.0</ele><time>2026-04-25T11:45:23.663Z</time></trkpt><trkpt lat="38.1424033" lon="15.8283717"><ele>1338.0</ele><time>2026-04-25T11:45:24.663Z</time></trkpt><trkpt lat="38.142405" lon="15.8281033"><ele>1336.3333333333333</ele><time>2026-04-25T11:45:25.663Z</time></trkpt><trkpt lat="38.1424017" lon="15.8278283"><ele>1334.6666666666665</ele><time>2026-04-25T11:45:26.663Z</time></trkpt><trkpt lat="38.1424033" lon="15.8275517"><ele>1333.0</ele><time>2026-04-25T11:45:27.663Z</time></trkpt><trkpt lat="38.1424017" lon="15.827275"><ele>1332.0</ele><time>2026-04-25T11:45:28.663Z</time></trkpt><trkpt lat="38.1424033" lon="15.8270033"><ele>1331.0</ele><time>2026-04-25T11:45:29.663Z</time></trkpt><trkpt lat="38.1424167" lon="15.8267433"><ele>1330.0</ele><time>2026-04-25T11:45:30.663Z</time></trkpt><trkpt lat="38.1424367" lon="15.8264933"><ele>1329.6666666666665</ele><time>2026-04-25T11:45:31.664Z</time></trkpt><trkpt lat="38.1424767" lon="15.826255"><ele>1329.3333333333333</ele><time>2026-04-25T11:45:32.664Z</time></trkpt><trkpt lat="38.1425367" lon="15.8260333"><ele>1329.0</ele><time>2026-04-25T11:45:33.663Z</time></trkpt><trkpt lat="38.1426117" lon="15.8258167"><ele>1327.0</ele><time>2026-04-25T11:45:34.663Z</time></trkpt><trkpt lat="38.1427033" lon="15.8256017"><ele>1325.0</ele><time>2026-04-25T11:45:35.663Z</time></trkpt><trkpt lat="38.1427833" lon="15.8253917"><ele>1323.0</ele><time>2026-04-25T11:45:36.664Z</time></trkpt><trkpt lat="38.1428667" lon="15.82517"><ele>1320.6666666666667</ele><time>2026-04-25T11:45:37.663Z</time></trkpt><trkpt lat="38.142945" lon="15.8249417"><ele>1318.3333333333335</ele><time>2026-04-25T11:45:38.663Z</time></trkpt><trkpt lat="38.1430183" lon="15.824715"><ele>1316.0</ele><time>2026-04-25T11:45:39.663Z</time></trkpt><trkpt lat="38.14309" lon="15.824495"><ele>1316.3333333333335</ele><time>2026-04-25T11:45:40.663Z</time></trkpt><trkpt lat="38.1431617" lon="15.8242833"><ele>1316.6666666666667</ele><time>2026-04-25T11:45:41.663Z</time></trkpt><trkpt lat="38.1432333" lon="15.8240767"><ele>1317.0</ele><time>2026-04-25T11:45:42.663Z</time></trkpt><trkpt lat="38.1433033" lon="15.8238683"><ele>1317.0</ele><time>2026-04-25T11:45:43.663Z</time></trkpt><trkpt lat="38.1433817" lon="15.8236567"><ele>1317.0</ele><time>2026-04-25T11:45:44.663Z</time></trkpt><trkpt lat="38.1434567" lon="15.8234417"><ele>1317.0</ele><time>2026-04-25T11:45:45.663Z</time></trkpt><trkpt lat="38.14354" lon="15.82324"><ele>1314.6666666666667</ele><time>2026-04-25T11:45:46.663Z</time></trkpt><trkpt lat="38.1436167" lon="15.8230367"><ele>1312.3333333333335</ele><time>2026-04-25T11:45:47.663Z</time></trkpt><trkpt lat="38.1436833" lon="15.8228233"><ele>1310.0</ele><time>2026-04-25T11:45:48.664Z</time></trkpt><trkpt lat="38.14375" lon="15.822615"><ele>1308.6666666666667</ele><time>2026-04-25T11:45:49.664Z</time></trkpt><trkpt lat="38.143795" lon="15.8223733"><ele>1307.3333333333333</ele><time>2026-04-25T11:45:50.663Z</time></trkpt><trkpt lat="38.14385" lon="15.8221383"><ele>1306.0</ele><time>2026-04-25T11:45:51.664Z</time></trkpt><trkpt lat="38.1439" lon="15.8219117"><ele>1305.0</ele><time>2026-04-25T11:45:52.663Z</time></trkpt><trkpt lat="38.1439467" lon="15.82169"><ele>1304.0</ele><time>2026-04-25T11:45:53.663Z</time></trkpt><trkpt lat="38.1439933" lon="15.8214717"><ele>1303.0</ele><time>2026-04-25T11:45:54.663Z</time></trkpt><trkpt lat="38.144045" lon="15.8212533"><ele>1303.0</ele><time>2026-04-25T11:45:55.664Z</time></trkpt><trkpt lat="38.144095" lon="15.82104"><ele>1303.0</ele><time>2026-04-25T11:45:56.663Z</time></trkpt><trkpt lat="38.1441367" lon="15.82083"><ele>1303.0</ele><time>2026-04-25T11:45:57.663Z</time></trkpt><trkpt lat="38.14418" lon="15.820635"><ele>1302.5</ele><time>2026-04-25T11:45:58.663Z</time></trkpt><trkpt lat="38.144215" lon="15.8204533"><ele>1302.0</ele><time>2026-04-25T11:45:59.663Z</time></trkpt><trkpt lat="38.1442583" lon="15.8202817"><ele>1301.5</ele><time>2026-04-25T11:46:00.663Z</time></trkpt><trkpt lat="38.1443" lon="15.8201183"><ele>1301.0</ele><time>2026-04-25T11:46:01.663Z</time></trkpt><trkpt lat="38.1443367" lon="15.81996"><ele>1300.5</ele><time>2026-04-25T11:46:02.663Z</time></trkpt><trkpt lat="38.14437" lon="15.81983"><ele>1300.0</ele><time>2026-04-25T11:46:03.663Z</time></trkpt><trkpt lat="38.1444017" lon="15.8197133"><ele>1299.5</ele><time>2026-04-25T11:46:04.663Z</time></trkpt><trkpt lat="38.1444283" lon="15.8196117"><ele>1299.0</ele><time>2026-04-25T11:46:05.663Z</time></trkpt><trkpt lat="38.1444517" lon="15.8195283"><ele>1298.5</ele><time>2026-04-25T11:46:06.664Z</time></trkpt><trkpt lat="38.14445" lon="15.819435"><ele>1298.0</ele><time>2026-04-25T11:46:08.664Z</time></trkpt><trkpt lat="38.1443767" lon="15.819445"><ele>1298.0</ele><time>2026-04-25T11:46:10.663Z</time></trkpt><trkpt lat="38.144285" lon="15.81955"><ele>1298.0</ele><time>2026-04-25T11:46:12.663Z</time></trkpt><trkpt lat="38.14422" lon="15.8196367"><ele>1298.0</ele><time>2026-04-25T11:46:13.663Z</time></trkpt><trkpt lat="38.144145" lon="15.8197367"><ele>1298.0</ele><time>2026-04-25T11:46:14.663Z</time></trkpt><trkpt lat="38.144065" lon="15.8198483"><ele>1298.0</ele><time>2026-04-25T11:46:15.663Z</time></trkpt><trkpt lat="38.1439783" lon="15.81996"><ele>1297.5</ele><time>2026-04-25T11:46:16.663Z</time></trkpt><trkpt lat="38.1438933" lon="15.8200717"><ele>1297.0</ele><time>2026-04-25T11:46:17.663Z</time></trkpt><trkpt lat="38.143805" lon="15.8201817"><ele>1296.5</ele><time>2026-04-25T11:46:18.663Z</time></trkpt><trkpt lat="38.14371" lon="15.8203017"><ele>1296.0</ele><time>2026-04-25T11:46:19.663Z</time></trkpt><trkpt lat="38.1436217" lon="15.8204267"><ele>1297.0</ele><time>2026-04-25T11:46:20.664Z</time></trkpt><trkpt lat="38.1435383" lon="15.82055"><ele>1298.0</ele><time>2026-04-25T11:46:21.663Z</time></trkpt><trkpt lat="38.1434567" lon="15.8206633"><ele>1299.0</ele><time>2026-04-25T11:46:22.664Z</time></trkpt><trkpt lat="38.143365" lon="15.82075"><ele>1300.0</ele><time>2026-04-25T11:46:23.663Z</time></trkpt><trkpt lat="38.1432583" lon="15.820825"><ele>1300.25</ele><time>2026-04-25T11:46:24.663Z</time></trkpt><trkpt lat="38.14314" lon="15.8209033"><ele>1300.5</ele><time>2026-04-25T11:46:25.663Z</time></trkpt><trkpt lat="38.1430167" lon="15.8209983"><ele>1300.75</ele><time>2026-04-25T11:46:26.663Z</time></trkpt><trkpt lat="38.1429033" lon="15.8211017"><ele>1301.0</ele><time>2026-04-25T11:46:27.663Z</time></trkpt><trkpt lat="38.14279" lon="15.8212267"><ele>1301.0</ele><time>2026-04-25T11:46:28.664Z</time></trkpt><trkpt lat="38.142685" lon="15.8213533"><ele>1301.0</ele><time>2026-04-25T11:46:29.664Z</time></trkpt><trkpt lat="38.14259" lon="15.8214833"><ele>1301.0</ele><time>2026-04-25T11:46:30.663Z</time></trkpt><trkpt lat="38.14249" lon="15.8216033"><ele>1301.0</ele><time>2026-04-25T11:46:31.664Z</time></trkpt><trkpt lat="38.1423833" lon="15.8217233"><ele>1302.25</ele><time>2026-04-25T11:46:32.663Z</time></trkpt><trkpt lat="38.1422817" lon="15.8218283"><ele>1303.5</ele><time>2026-04-25T11:46:33.663Z</time></trkpt><trkpt lat="38.1421767" lon="15.8219483"><ele>1304.75</ele><time>2026-04-25T11:46:34.663Z</time></trkpt><trkpt lat="38.1420833" lon="15.822105"><ele>1306.0</ele><time>2026-04-25T11:46:35.663Z</time></trkpt><trkpt lat="38.1420017" lon="15.8222367"><ele>1306.0</ele><time>2026-04-25T11:46:36.663Z</time></trkpt><trkpt lat="38.14193" lon="15.822325"><ele>1306.0</ele><time>2026-04-25T11:46:37.664Z</time></trkpt><trkpt lat="38.1418683" lon="15.8223617"><ele>1306.0</ele><time>2026-04-25T11:46:38.663Z</time></trkpt><trkpt lat="38.141805" lon="15.8223617"><ele>1306.0</ele><time>2026-04-25T11:46:39.663Z</time></trkpt><trkpt lat="38.141725" lon="15.8222267"><ele>1306.0</ele><time>2026-04-25T11:46:41.663Z</time></trkpt><trkpt lat="38.141705" lon="15.8220733"><ele>1306.0</ele><time>2026-04-25T11:46:42.663Z</time></trkpt><trkpt lat="38.1416733" lon="15.8219283"><ele>1306.0</ele><time>2026-04-25T11:46:43.663Z</time></trkpt><trkpt lat="38.1416117" lon="15.8217967"><ele>1306.0</ele><time>2026-04-25T11:46:44.663Z</time></trkpt><trkpt lat="38.1415133" lon="15.8216967"><ele>1306.0</ele><time>2026-04-25T11:46:45.664Z</time></trkpt><trkpt lat="38.1413967" lon="15.821625"><ele>1306.0</ele><time>2026-04-25T11:46:46.663Z</time></trkpt><trkpt lat="38.1412583" lon="15.821575"><ele>1306.0</ele><time>2026-04-25T11:46:47.663Z</time></trkpt><trkpt lat="38.1411217" lon="15.82152"><ele>1306.0</ele><time>2026-04-25T11:46:48.663Z</time></trkpt><trkpt lat="38.140995" lon="15.8214567"><ele>1306.0</ele><time>2026-04-25T11:46:49.663Z</time></trkpt><trkpt lat="38.140885" lon="15.82139"><ele>1306.0</ele><time>2026-04-25T11:46:50.663Z</time></trkpt><trkpt lat="38.1407867" lon="15.821335"><ele>1306.0</ele><time>2026-04-25T11:46:51.663Z</time></trkpt><trkpt lat="38.1406917" lon="15.8212867"><ele>1306.0</ele><time>2026-04-25T11:46:52.663Z</time></trkpt><trkpt lat="38.1406067" lon="15.82124"><ele>1306.0</ele><time>2026-04-25T11:46:53.663Z</time></trkpt><trkpt lat="38.14054" lon="15.8211633"><ele>1306.0</ele><time>2026-04-25T11:46:54.663Z</time></trkpt><trkpt lat="38.140505" lon="15.8210683"><ele>1305.1999999999998</ele><time>2026-04-25T11:46:55.664Z</time></trkpt><trkpt lat="38.1404983" lon="15.8209583"><ele>1304.3999999999999</ele><time>2026-04-25T11:46:56.663Z</time></trkpt><trkpt lat="38.1405283" lon="15.820835"><ele>1303.6</ele><time>2026-04-25T11:46:57.664Z</time></trkpt><trkpt lat="38.1405833" lon="15.82071"><ele>1302.8</ele><time>2026-04-25T11:46:58.663Z</time></trkpt><trkpt lat="38.140655" lon="15.8205917"><ele>1302.0</ele><time>2026-04-25T11:46:59.663Z</time></trkpt><trkpt lat="38.140735" lon="15.820475"><ele>1302.0</ele><time>2026-04-25T11:47:00.663Z</time></trkpt><trkpt lat="38.1408017" lon="15.820345"><ele>1302.0</ele><time>2026-04-25T11:47:01.664Z</time></trkpt><trkpt lat="38.1408417" lon="15.8202233"><ele>1302.0</ele><time>2026-04-25T11:47:02.663Z</time></trkpt><trkpt lat="38.1408617" lon="15.8200867"><ele>1302.0</ele><time>2026-04-25T11:47:03.663Z</time></trkpt><trkpt lat="38.14085" lon="15.819955"><ele>1302.0</ele><time>2026-04-25T11:47:04.663Z</time></trkpt><trkpt lat="38.1408" lon="15.819845"><ele>1300.0</ele><time>2026-04-25T11:47:05.663Z</time></trkpt><trkpt lat="38.1407117" lon="15.81973"><ele>1298.0</ele><time>2026-04-25T11:47:06.663Z</time></trkpt><trkpt lat="38.14062" lon="15.81962"><ele>1296.0</ele><time>2026-04-25T11:47:07.663Z</time></trkpt><trkpt lat="38.1405333" lon="15.8195133"><ele>1294.0</ele><time>2026-04-25T11:47:08.663Z</time></trkpt><trkpt lat="38.1404483" lon="15.8193983"><ele>1293.25</ele><time>2026-04-25T11:47:09.663Z</time></trkpt><trkpt lat="38.140395" lon="15.8192633"><ele>1292.5</ele><time>2026-04-25T11:47:10.663Z</time></trkpt><trkpt lat="38.1403583" lon="15.8191033"><ele>1291.75</ele><time>2026-04-25T11:47:11.663Z</time></trkpt><trkpt lat="38.1403317" lon="15.818925"><ele>1291.0</ele><time>2026-04-25T11:47:12.663Z</time></trkpt><trkpt lat="38.140305" lon="15.8187283"><ele>1291.0</ele><time>2026-04-25T11:47:13.663Z</time></trkpt><trkpt lat="38.1402817" lon="15.818535"><ele>1291.0</ele><time>2026-04-25T11:47:14.664Z</time></trkpt><trkpt lat="38.140265" lon="15.8183467"><ele>1291.0</ele><time>2026-04-25T11:47:15.663Z</time></trkpt><trkpt lat="38.140265" lon="15.8181483"><ele>1290.25</ele><time>2026-04-25T11:47:16.663Z</time></trkpt><trkpt lat="38.140275" lon="15.8179533"><ele>1289.5</ele><time>2026-04-25T11:47:17.663Z</time></trkpt><trkpt lat="38.1402833" lon="15.817765"><ele>1288.75</ele><time>2026-04-25T11:47:18.663Z</time></trkpt><trkpt lat="38.14027" lon="15.8175783"><ele>1288.0</ele><time>2026-04-25T11:47:19.663Z</time></trkpt><trkpt lat="38.1402383" lon="15.817385"><ele>1286.3333333333333</ele><time>2026-04-25T11:47:20.664Z</time></trkpt><trkpt lat="38.140185" lon="15.817185"><ele>1284.6666666666667</ele><time>2026-04-25T11:47:21.663Z</time></trkpt><trkpt lat="38.1401233" lon="15.8169717"><ele>1283.0</ele><time>2026-04-25T11:47:22.663Z</time></trkpt><trkpt lat="38.1400533" lon="15.816755"><ele>1282.0</ele><time>2026-04-25T11:47:23.663Z</time></trkpt><trkpt lat="38.1399767" lon="15.816545"><ele>1281.0</ele><time>2026-04-25T11:47:24.663Z</time></trkpt><trkpt lat="38.1398983" lon="15.8163517"><ele>1280.0</ele><time>2026-04-25T11:47:25.663Z</time></trkpt><trkpt lat="38.13981" lon="15.8161633"><ele>1279.6666666666667</ele><time>2026-04-25T11:47:26.663Z</time></trkpt><trkpt lat="38.139705" lon="15.8160017"><ele>1279.3333333333333</ele><time>2026-04-25T11:47:27.663Z</time></trkpt><trkpt lat="38.1395867" lon="15.8158583"><ele>1279.0</ele><time>2026-04-25T11:47:28.663Z</time></trkpt><trkpt lat="38.1394817" lon="15.8157383"><ele>1278.8</ele><time>2026-04-25T11:47:29.664Z</time></trkpt><trkpt lat="38.1393933" lon="15.8156267"><ele>1278.6000000000001</ele><time>2026-04-25T11:47:30.663Z</time></trkpt><trkpt lat="38.1393317" lon="15.815525"><ele>1278.4</ele><time>2026-04-25T11:47:31.663Z</time></trkpt><trkpt lat="38.1392933" lon="15.8154183"><ele>1278.2</ele><time>2026-04-25T11:47:32.663Z</time></trkpt><trkpt lat="38.1392783" lon="15.8152983"><ele>1278.0</ele><time>2026-04-25T11:47:33.663Z</time></trkpt><trkpt lat="38.139295" lon="15.8151633"><ele>1277.5</ele><time>2026-04-25T11:47:34.663Z</time></trkpt><trkpt lat="38.1393117" lon="15.8150233"><ele>1277.0</ele><time>2026-04-25T11:47:35.664Z</time></trkpt><trkpt lat="38.139295" lon="15.8148883"><ele>1276.5</ele><time>2026-04-25T11:47:36.664Z</time></trkpt><trkpt lat="38.1392383" lon="15.8147367"><ele>1276.0</ele><time>2026-04-25T11:47:37.663Z</time></trkpt><trkpt lat="38.139165" lon="15.8145833"><ele>1276.0</ele><time>2026-04-25T11:47:38.663Z</time></trkpt><trkpt lat="38.13909" lon="15.8144233"><ele>1276.0</ele><time>2026-04-25T11:47:39.663Z</time></trkpt><trkpt lat="38.1390183" lon="15.8142617"><ele>1276.0</ele><time>2026-04-25T11:47:40.663Z</time></trkpt><trkpt lat="38.138955" lon="15.814095"><ele>1276.0</ele><time>2026-04-25T11:47:41.664Z</time></trkpt><trkpt lat="38.1388833" lon="15.8139233"><ele>1276.3333333333333</ele><time>2026-04-25T11:47:42.664Z</time></trkpt><trkpt lat="38.1388" lon="15.813765"><ele>1276.6666666666667</ele><time>2026-04-25T11:47:43.664Z</time></trkpt><trkpt lat="38.1387117" lon="15.8136"><ele>1277.0</ele><time>2026-04-25T11:47:44.664Z</time></trkpt><trkpt lat="38.138635" lon="15.813445"><ele>1276.25</ele><time>2026-04-25T11:47:45.664Z</time></trkpt><trkpt lat="38.1385567" lon="15.8132967"><ele>1275.5</ele><time>2026-04-25T11:47:46.663Z</time></trkpt><trkpt lat="38.1384833" lon="15.813165"><ele>1274.75</ele><time>2026-04-25T11:47:47.664Z</time></trkpt><trkpt lat="38.1384217" lon="15.8130417"><ele>1274.0</ele><time>2026-04-25T11:47:48.663Z</time></trkpt><trkpt lat="38.1383767" lon="15.812935"><ele>1274.0</ele><time>2026-04-25T11:47:49.663Z</time></trkpt><trkpt lat="38.1383367" lon="15.8128567"><ele>1274.0</ele><time>2026-04-25T11:47:50.664Z</time></trkpt><trkpt lat="38.1383067" lon="15.812785"><ele>1274.0</ele><time>2026-04-25T11:47:51.663Z</time></trkpt><trkpt lat="38.1382417" lon="15.8126617"><ele>1274.0</ele><time>2026-04-25T11:47:53.663Z</time></trkpt><trkpt lat="38.1381733" lon="15.812545"><ele>1274.0</ele><time>2026-04-25T11:47:55.663Z</time></trkpt><trkpt lat="38.1381067" lon="15.812435"><ele>1273.6000000000001</ele><time>2026-04-25T11:47:57.663Z</time></trkpt><trkpt lat="38.138045" lon="15.8123283"><ele>1273.2</ele><time>2026-04-25T11:47:59.663Z</time></trkpt><trkpt lat="38.13799" lon="15.8122283"><ele>1272.8000000000002</ele><time>2026-04-25T11:48:01.663Z</time></trkpt><trkpt lat="38.13793" lon="15.812125"><ele>1272.4</ele><time>2026-04-25T11:48:03.663Z</time></trkpt><trkpt lat="38.1378783" lon="15.8120367"><ele>1272.0</ele><time>2026-04-25T11:48:05.664Z</time></trkpt><trkpt lat="38.137815" lon="15.8119383"><ele>1272.0</ele><time>2026-04-25T11:48:07.663Z</time></trkpt><trkpt lat="38.1377533" lon="15.8118233"><ele>1272.0</ele><time>2026-04-25T11:48:09.663Z</time></trkpt><trkpt lat="38.137705" lon="15.8116967"><ele>1272.0</ele><time>2026-04-25T11:48:11.664Z</time></trkpt><trkpt lat="38.1376733" lon="15.8116233"><ele>1272.0</ele><time>2026-04-25T11:48:12.663Z</time></trkpt><trkpt lat="38.13764" lon="15.8115383"><ele>1272.0</ele><time>2026-04-25T11:48:13.663Z</time></trkpt><trkpt lat="38.1376067" lon="15.8114483"><ele>1272.0</ele><time>2026-04-25T11:48:14.663Z</time></trkpt><trkpt lat="38.1375667" lon="15.81135"><ele>1272.0</ele><time>2026-04-25T11:48:15.663Z</time></trkpt><trkpt lat="38.13753" lon="15.811255"><ele>1272.0</ele><time>2026-04-25T11:48:16.663Z</time></trkpt><trkpt lat="38.1374883" lon="15.8111567"><ele>1272.0</ele><time>2026-04-25T11:48:17.663Z</time></trkpt><trkpt lat="38.13745" lon="15.8110567"><ele>1272.0</ele><time>2026-04-25T11:48:18.663Z</time></trkpt><trkpt lat="38.1374117" lon="15.8109533"><ele>1272.0</ele><time>2026-04-25T11:48:19.663Z</time></trkpt><trkpt lat="38.1373667" lon="15.8108517"><ele>1272.0</ele><time>2026-04-25T11:48:20.664Z</time></trkpt><trkpt lat="38.1373283" lon="15.810755"><ele>1272.1666666666667</ele><time>2026-04-25T11:48:21.663Z</time></trkpt><trkpt lat="38.13729" lon="15.8106583"><ele>1272.3333333333333</ele><time>2026-04-25T11:48:22.664Z</time></trkpt><trkpt lat="38.1372483" lon="15.81056"><ele>1272.5</ele><time>2026-04-25T11:48:23.663Z</time></trkpt><trkpt lat="38.1372133" lon="15.8104633"><ele>1272.6666666666665</ele><time>2026-04-25T11:48:24.664Z</time></trkpt><trkpt lat="38.1371767" lon="15.8103667"><ele>1272.8333333333333</ele><time>2026-04-25T11:48:25.663Z</time></trkpt><trkpt lat="38.1371333" lon="15.810265"><ele>1273.0</ele><time>2026-04-25T11:48:26.663Z</time></trkpt><trkpt lat="38.1371" lon="15.8101617"><ele>1273.4</ele><time>2026-04-25T11:48:27.664Z</time></trkpt><trkpt lat="38.13707" lon="15.81007"><ele>1273.8</ele><time>2026-04-25T11:48:28.664Z</time></trkpt><trkpt lat="38.137045" lon="15.8099883"><ele>1274.2</ele><time>2026-04-25T11:48:29.663Z</time></trkpt><trkpt lat="38.1370233" lon="15.8098617"><ele>1274.6</ele><time>2026-04-25T11:48:31.663Z</time></trkpt><trkpt lat="38.13709" lon="15.8097767"><ele>1275.0</ele><time>2026-04-25T11:48:34.663Z</time></trkpt><trkpt lat="38.1372317" lon="15.809755"><ele>1275.0</ele><time>2026-04-25T11:48:36.663Z</time></trkpt><trkpt lat="38.1373383" lon="15.8097483"><ele>1275.0</ele><time>2026-04-25T11:48:37.663Z</time></trkpt><trkpt lat="38.1374567" lon="15.8097383"><ele>1275.0</ele><time>2026-04-25T11:48:38.663Z</time></trkpt><trkpt lat="38.13758" lon="15.80973"><ele>1275.0</ele><time>2026-04-25T11:48:39.663Z</time></trkpt><trkpt lat="38.1377033" lon="15.8097017"><ele>1274.5</ele><time>2026-04-25T11:48:40.664Z</time></trkpt><trkpt lat="38.13783" lon="15.8096867"><ele>1274.0</ele><time>2026-04-25T11:48:41.663Z</time></trkpt><trkpt lat="38.137965" lon="15.8096667"><ele>1273.5</ele><time>2026-04-25T11:48:42.663Z</time></trkpt><trkpt lat="38.1381167" lon="15.80964"><ele>1273.0</ele><time>2026-04-25T11:48:43.664Z</time></trkpt><trkpt lat="38.1382667" lon="15.8096083"><ele>1272.5</ele><time>2026-04-25T11:48:44.663Z</time></trkpt><trkpt lat="38.138405" lon="15.8095867"><ele>1272.0</ele><time>2026-04-25T11:48:45.663Z</time></trkpt><trkpt lat="38.1385383" lon="15.809565"><ele>1271.5</ele><time>2026-04-25T11:48:46.664Z</time></trkpt><trkpt lat="38.13866" lon="15.8095417"><ele>1271.0</ele><time>2026-04-25T11:48:47.663Z</time></trkpt><trkpt lat="38.1387717" lon="15.8095183"><ele>1271.0</ele><time>2026-04-25T11:48:48.663Z</time></trkpt><trkpt lat="38.138885" lon="15.8094733"><ele>1271.0</ele><time>2026-04-25T11:48:49.663Z</time></trkpt><trkpt lat="38.138995" lon="15.8094183"><ele>1271.0</ele><time>2026-04-25T11:48:50.663Z</time></trkpt><trkpt lat="38.1391033" lon="15.8093483"><ele>1271.0</ele><time>2026-04-25T11:48:51.663Z</time></trkpt><trkpt lat="38.1392183" lon="15.80925"><ele>1271.0</ele><time>2026-04-25T11:48:52.663Z</time></trkpt><trkpt lat="38.13933" lon="15.8091367"><ele>1271.0</ele><time>2026-04-25T11:48:53.663Z</time></trkpt><trkpt lat="38.13946" lon="15.8090167"><ele>1271.0</ele><time>2026-04-25T11:48:54.663Z</time></trkpt><trkpt lat="38.13958" lon="15.8088967"><ele>1271.0</ele><time>2026-04-25T11:48:55.663Z</time></trkpt><trkpt lat="38.1396917" lon="15.8087767"><ele>1271.0</ele><time>2026-04-25T11:48:56.663Z</time></trkpt><trkpt lat="38.1397967" lon="15.8086633"><ele>1271.0</ele><time>2026-04-25T11:48:57.663Z</time></trkpt><trkpt lat="38.139905" lon="15.808545"><ele>1271.0</ele><time>2026-04-25T11:48:58.663Z</time></trkpt><trkpt lat="38.14" lon="15.8084383"><ele>1268.75</ele><time>2026-04-25T11:48:59.663Z</time></trkpt><trkpt lat="38.1401" lon="15.8083333"><ele>1266.5</ele><time>2026-04-25T11:49:00.663Z</time></trkpt><trkpt lat="38.1402" lon="15.8082267"><ele>1264.25</ele><time>2026-04-25T11:49:01.663Z</time></trkpt><trkpt lat="38.1402967" lon="15.80811"><ele>1262.0</ele><time>2026-04-25T11:49:02.663Z</time></trkpt><trkpt lat="38.1403983" lon="15.8079983"><ele>1262.0</ele><time>2026-04-25T11:49:03.663Z</time></trkpt><trkpt lat="38.1404917" lon="15.8078917"><ele>1262.0</ele><time>2026-04-25T11:49:04.663Z</time></trkpt><trkpt lat="38.1405733" lon="15.8077783"><ele>1262.0</ele><time>2026-04-25T11:49:05.663Z</time></trkpt><trkpt lat="38.1406567" lon="15.8076783"><ele>1262.0</ele><time>2026-04-25T11:49:06.664Z</time></trkpt><trkpt lat="38.140735" lon="15.80757"><ele>1259.8</ele><time>2026-04-25T11:49:07.664Z</time></trkpt><trkpt lat="38.1408033" lon="15.8074583"><ele>1257.6</ele><time>2026-04-25T11:49:08.663Z</time></trkpt><trkpt lat="38.1408517" lon="15.8073317"><ele>1255.3999999999999</ele><time>2026-04-25T11:49:09.663Z</time></trkpt><trkpt lat="38.1408767" lon="15.807195"><ele>1253.2</ele><time>2026-04-25T11:49:10.664Z</time></trkpt><trkpt lat="38.140895" lon="15.8070933"><ele>1251.0</ele><time>2026-04-25T11:49:11.664Z</time></trkpt><trkpt lat="38.14091" lon="15.8069867"><ele>1251.0</ele><time>2026-04-25T11:49:12.663Z</time></trkpt><trkpt lat="38.1409167" lon="15.80688"><ele>1251.0</ele><time>2026-04-25T11:49:13.663Z</time></trkpt><trkpt lat="38.1409267" lon="15.8067933"><ele>1251.0</ele><time>2026-04-25T11:49:14.663Z</time></trkpt><trkpt lat="38.1409633" lon="15.80668"><ele>1251.0</ele><time>2026-04-25T11:49:16.663Z</time></trkpt><trkpt lat="38.1410417" lon="15.806615"><ele>1251.0</ele><time>2026-04-25T11:49:18.663Z</time></trkpt><trkpt lat="38.1410967" lon="15.8065683"><ele>1251.0</ele><time>2026-04-25T11:49:19.663Z</time></trkpt><trkpt lat="38.1411583" lon="15.8065133"><ele>1250.2</ele><time>2026-04-25T11:49:20.664Z</time></trkpt><trkpt lat="38.14123" lon="15.806445"><ele>1249.3999999999999</ele><time>2026-04-25T11:49:21.663Z</time></trkpt><trkpt lat="38.1412983" lon="15.8063767"><ele>1248.6</ele><time>2026-04-25T11:49:22.663Z</time></trkpt><trkpt lat="38.1413733" lon="15.8062967"><ele>1247.8</ele><time>2026-04-25T11:49:23.664Z</time></trkpt><trkpt lat="38.1414517" lon="15.806215"><ele>1247.0</ele><time>2026-04-25T11:49:24.663Z</time></trkpt><trkpt lat="38.1415217" lon="15.80613"><ele>1245.8</ele><time>2026-04-25T11:49:25.663Z</time></trkpt><trkpt lat="38.1416017" lon="15.8060467"><ele>1244.6</ele><time>2026-04-25T11:49:26.663Z</time></trkpt><trkpt lat="38.1416833" lon="15.8059483"><ele>1243.3999999999999</ele><time>2026-04-25T11:49:27.663Z</time></trkpt><trkpt lat="38.1417633" lon="15.80586"><ele>1242.2</ele><time>2026-04-25T11:49:28.663Z</time></trkpt><trkpt lat="38.1418383" lon="15.8057767"><ele>1241.0</ele><time>2026-04-25T11:49:29.663Z</time></trkpt><trkpt lat="38.14191" lon="15.8056917"><ele>1240.2</ele><time>2026-04-25T11:49:30.663Z</time></trkpt><trkpt lat="38.1419833" lon="15.8055983"><ele>1239.3999999999999</ele><time>2026-04-25T11:49:31.663Z</time></trkpt><trkpt lat="38.1420417" lon="15.8055133"><ele>1238.6</ele><time>2026-04-25T11:49:32.663Z</time></trkpt><trkpt lat="38.1420933" lon="15.8054233"><ele>1237.8</ele><time>2026-04-25T11:49:33.664Z</time></trkpt><trkpt lat="38.142145" lon="15.8053283"><ele>1237.0</ele><time>2026-04-25T11:49:34.664Z</time></trkpt><trkpt lat="38.142195" lon="15.8052383"><ele>1237.0</ele><time>2026-04-25T11:49:35.663Z</time></trkpt><trkpt lat="38.1422333" lon="15.8051667"><ele>1237.0</ele><time>2026-04-25T11:49:36.663Z</time></trkpt><trkpt lat="38.1422867" lon="15.8050583"><ele>1237.0</ele><time>2026-04-25T11:49:38.663Z</time></trkpt><trkpt lat="38.14232" lon="15.8049567"><ele>1237.0</ele><time>2026-04-25T11:49:40.664Z</time></trkpt><trkpt lat="38.1423333" lon="15.8048567"><ele>1237.0</ele><time>2026-04-25T11:49:42.664Z</time></trkpt><trkpt lat="38.1423367" lon="15.8047683"><ele>1237.0</ele><time>2026-04-25T11:49:44.663Z</time></trkpt><trkpt lat="38.1423283" lon="15.8046717"><ele>1236.1666666666665</ele><time>2026-04-25T11:49:46.663Z</time></trkpt><trkpt lat="38.1423067" lon="15.804575"><ele>1235.3333333333333</ele><time>2026-04-25T11:49:48.663Z</time></trkpt><trkpt lat="38.14228" lon="15.80446"><ele>1234.5</ele><time>2026-04-25T11:49:50.663Z</time></trkpt><trkpt lat="38.142265" lon="15.80436"><ele>1233.6666666666667</ele><time>2026-04-25T11:49:52.664Z</time></trkpt><trkpt lat="38.1422967" lon="15.80425"><ele>1232.8333333333335</ele><time>2026-04-25T11:49:55.663Z</time></trkpt><trkpt lat="38.1423683" lon="15.8041767"><ele>1232.0</ele><time>2026-04-25T11:49:58.663Z</time></trkpt><trkpt lat="38.14244" lon="15.8041667"><ele>1231.1666666666667</ele><time>2026-04-25T11:50:00.663Z</time></trkpt><trkpt lat="38.1425133" lon="15.804175"><ele>1230.3333333333335</ele><time>2026-04-25T11:50:03.663Z</time></trkpt><trkpt lat="38.1425967" lon="15.8041583"><ele>1229.5</ele><time>2026-04-25T11:50:07.663Z</time></trkpt><trkpt lat="38.1426383" lon="15.8040883"><ele>1228.6666666666667</ele><time>2026-04-25T11:50:11.663Z</time></trkpt><trkpt lat="38.14262" lon="15.803965"><ele>1227.8333333333333</ele><time>2026-04-25T11:50:14.664Z</time></trkpt><trkpt lat="38.1425817" lon="15.8038383"><ele>1227.0</ele><time>2026-04-25T11:50:16.664Z</time></trkpt><trkpt lat="38.1425783" lon="15.8037517"><ele>1227.0</ele><time>2026-04-25T11:50:18.663Z</time></trkpt><trkpt lat="38.1426317" lon="15.8036683"><ele>1227.0</ele><time>2026-04-25T11:50:21.664Z</time></trkpt><trkpt lat="38.1427283" lon="15.8036717"><ele>1227.0</ele><time>2026-04-25T11:50:24.663Z</time></trkpt><trkpt lat="38.1428317" lon="15.803695"><ele>1227.0</ele><time>2026-04-25T11:50:26.663Z</time></trkpt><trkpt lat="38.142925" lon="15.8037217"><ele>1227.0</ele><time>2026-04-25T11:50:28.663Z</time></trkpt><trkpt lat="38.1430317" lon="15.8037567"><ele>1227.0</ele><time>2026-04-25T11:50:30.663Z</time></trkpt><trkpt lat="38.1431167" lon="15.8037367"><ele>1227.0</ele><time>2026-04-25T11:50:32.663Z</time></trkpt><trkpt lat="38.1432033" lon="15.803695"><ele>1227.0</ele><time>2026-04-25T11:50:34.663Z</time></trkpt><trkpt lat="38.1433033" lon="15.803615"><ele>1227.0</ele><time>2026-04-25T11:50:36.664Z</time></trkpt><trkpt lat="38.14339" lon="15.803515"><ele>1227.0</ele><time>2026-04-25T11:50:38.663Z</time></trkpt><trkpt lat="38.143445" lon="15.803435"><ele>1224.3333333333333</ele><time>2026-04-25T11:50:39.663Z</time></trkpt><trkpt lat="38.1434933" lon="15.8033"><ele>1221.6666666666667</ele><time>2026-04-25T11:50:41.663Z</time></trkpt><trkpt lat="38.143515" lon="15.8032233"><ele>1219.0</ele><time>2026-04-25T11:50:42.663Z</time></trkpt><trkpt lat="38.143525" lon="15.8031383"><ele>1216.3333333333335</ele><time>2026-04-25T11:50:43.664Z</time></trkpt><trkpt lat="38.1435317" lon="15.8030467"><ele>1213.6666666666667</ele><time>2026-04-25T11:50:44.664Z</time></trkpt><trkpt lat="38.1435283" lon="15.8029467"><ele>1211.0</ele><time>2026-04-25T11:50:45.663Z</time></trkpt><trkpt lat="38.1435233" lon="15.8028383"><ele>1211.0</ele><time>2026-04-25T11:50:46.663Z</time></trkpt><trkpt lat="38.1435117" lon="15.8027133"><ele>1211.0</ele><time>2026-04-25T11:50:47.663Z</time></trkpt><trkpt lat="38.143505" lon="15.8025633"><ele>1211.0</ele><time>2026-04-25T11:50:48.663Z</time></trkpt><trkpt lat="38.1435" lon="15.8024167"><ele>1211.0</ele><time>2026-04-25T11:50:49.663Z</time></trkpt><trkpt lat="38.1435" lon="15.8022767"><ele>1211.0</ele><time>2026-04-25T11:50:50.663Z</time></trkpt><trkpt lat="38.1435033" lon="15.802135"><ele>1207.5</ele><time>2026-04-25T11:50:51.663Z</time></trkpt><trkpt lat="38.1435117" lon="15.8019917"><ele>1204.0</ele><time>2026-04-25T11:50:52.664Z</time></trkpt><trkpt lat="38.1435317" lon="15.801845"><ele>1200.5</ele><time>2026-04-25T11:50:53.663Z</time></trkpt><trkpt lat="38.1435667" lon="15.8016917"><ele>1197.0</ele><time>2026-04-25T11:50:54.663Z</time></trkpt><trkpt lat="38.1436067" lon="15.80153"><ele>1191.3333333333333</ele><time>2026-04-25T11:50:55.664Z</time></trkpt><trkpt lat="38.143655" lon="15.8013533"><ele>1185.6666666666665</ele><time>2026-04-25T11:50:56.663Z</time></trkpt><trkpt lat="38.1437083" lon="15.8011683"><ele>1180.0</ele><time>2026-04-25T11:50:57.663Z</time></trkpt><trkpt lat="38.1437733" lon="15.801"><ele>1178.0</ele><time>2026-04-25T11:50:58.663Z</time></trkpt><trkpt lat="38.1438433" lon="15.8008367"><ele>1176.0</ele><time>2026-04-25T11:50:59.663Z</time></trkpt><trkpt lat="38.1439033" lon="15.8006917"><ele>1174.0</ele><time>2026-04-25T11:51:00.664Z</time></trkpt><trkpt lat="38.1439667" lon="15.80055"><ele>1172.0</ele><time>2026-04-25T11:51:01.663Z</time></trkpt><trkpt lat="38.144035" lon="15.800435"><ele>1172.6</ele><time>2026-04-25T11:51:02.663Z</time></trkpt><trkpt lat="38.1440883" lon="15.800315"><ele>1173.2</ele><time>2026-04-25T11:51:03.664Z</time></trkpt><trkpt lat="38.144135" lon="15.8001983"><ele>1173.8</ele><time>2026-04-25T11:51:04.663Z</time></trkpt><trkpt lat="38.1441783" lon="15.8000683"><ele>1174.4</ele><time>2026-04-25T11:51:05.663Z</time></trkpt><trkpt lat="38.14421" lon="15.7999367"><ele>1175.0</ele><time>2026-04-25T11:51:06.663Z</time></trkpt><trkpt lat="38.1442367" lon="15.7998033"><ele>1173.0</ele><time>2026-04-25T11:51:07.663Z</time></trkpt><trkpt lat="38.144265" lon="15.7996933"><ele>1171.0</ele><time>2026-04-25T11:51:08.663Z</time></trkpt><trkpt lat="38.1442917" lon="15.7995917"><ele>1169.0</ele><time>2026-04-25T11:51:09.664Z</time></trkpt><trkpt lat="38.1443267" lon="15.7995033"><ele>1167.0</ele><time>2026-04-25T11:51:10.663Z</time></trkpt><trkpt lat="38.1443467" lon="15.799425"><ele>1165.0</ele><time>2026-04-25T11:51:11.663Z</time></trkpt><trkpt lat="38.14435" lon="15.799295"><ele>1163.0</ele><time>2026-04-25T11:51:13.663Z</time></trkpt><trkpt lat="38.1442867" lon="15.799135"><ele>1162.0</ele><time>2026-04-25T11:51:15.663Z</time></trkpt><trkpt lat="38.14424" lon="15.79903"><ele>1161.0</ele><time>2026-04-25T11:51:16.663Z</time></trkpt><trkpt lat="38.1442017" lon="15.79892"><ele>1160.0</ele><time>2026-04-25T11:51:17.663Z</time></trkpt><trkpt lat="38.1441867" lon="15.7987983"><ele>1159.0</ele><time>2026-04-25T11:51:18.664Z</time></trkpt><trkpt lat="38.1442017" lon="15.798675"><ele>1158.0</ele><time>2026-04-25T11:51:19.663Z</time></trkpt><trkpt lat="38.14423" lon="15.7985483"><ele>1157.4</ele><time>2026-04-25T11:51:20.663Z</time></trkpt><trkpt lat="38.1442567" lon="15.7984133"><ele>1156.8</ele><time>2026-04-25T11:51:21.664Z</time></trkpt><trkpt lat="38.1442767" lon="15.7982717"><ele>1156.2</ele><time>2026-04-25T11:51:22.663Z</time></trkpt><trkpt lat="38.1443017" lon="15.7981433"><ele>1155.6</ele><time>2026-04-25T11:51:23.663Z</time></trkpt><trkpt lat="38.1443183" lon="15.79802"><ele>1155.0</ele><time>2026-04-25T11:51:24.663Z</time></trkpt><trkpt lat="38.14433" lon="15.797895"><ele>1155.0</ele><time>2026-04-25T11:51:25.664Z</time></trkpt><trkpt lat="38.1443533" lon="15.7977733"><ele>1155.0</ele><time>2026-04-25T11:51:26.663Z</time></trkpt><trkpt lat="38.14437" lon="15.7976433"><ele>1155.0</ele><time>2026-04-25T11:51:27.663Z</time></trkpt><trkpt lat="38.1443867" lon="15.7975033"><ele>1155.0</ele><time>2026-04-25T11:51:28.663Z</time></trkpt><trkpt lat="38.1444117" lon="15.7973733"><ele>1155.0</ele><time>2026-04-25T11:51:29.663Z</time></trkpt><trkpt lat="38.144445" lon="15.797235"><ele>1154.4</ele><time>2026-04-25T11:51:30.664Z</time></trkpt><trkpt lat="38.144475" lon="15.7971"><ele>1153.8</ele><time>2026-04-25T11:51:31.663Z</time></trkpt><trkpt lat="38.1445083" lon="15.7969683"><ele>1153.2</ele><time>2026-04-25T11:51:32.663Z</time></trkpt><trkpt lat="38.1445417" lon="15.79684"><ele>1152.6</ele><time>2026-04-25T11:51:33.663Z</time></trkpt><trkpt lat="38.144585" lon="15.7967267"><ele>1152.0</ele><time>2026-04-25T11:51:34.664Z</time></trkpt><trkpt lat="38.1446417" lon="15.7966283"><ele>1151.8</ele><time>2026-04-25T11:51:35.663Z</time></trkpt><trkpt lat="38.1447" lon="15.79652"><ele>1151.6</ele><time>2026-04-25T11:51:36.663Z</time></trkpt><trkpt lat="38.144735" lon="15.7964133"><ele>1151.3999999999999</ele><time>2026-04-25T11:51:37.663Z</time></trkpt><trkpt lat="38.1447583" lon="15.7963083"><ele>1151.2</ele><time>2026-04-25T11:51:38.663Z</time></trkpt><trkpt lat="38.1447717" lon="15.7961983"><ele>1151.0</ele><time>2026-04-25T11:51:39.664Z</time></trkpt><trkpt lat="38.144775" lon="15.7960867"><ele>1151.3999999999999</ele><time>2026-04-25T11:51:40.663Z</time></trkpt><trkpt lat="38.14477" lon="15.795955"><ele>1151.8</ele><time>2026-04-25T11:51:41.663Z</time></trkpt><trkpt lat="38.1447683" lon="15.79582"><ele>1152.1999999999998</ele><time>2026-04-25T11:51:42.663Z</time></trkpt><trkpt lat="38.1447617" lon="15.7957033"><ele>1152.6</ele><time>2026-04-25T11:51:43.663Z</time></trkpt><trkpt lat="38.1447633" lon="15.7955817"><ele>1153.0</ele><time>2026-04-25T11:51:44.663Z</time></trkpt><trkpt lat="38.1447683" lon="15.79548"><ele>1153.0</ele><time>2026-04-25T11:51:45.663Z</time></trkpt><trkpt lat="38.1447667" lon="15.7953633"><ele>1153.0</ele><time>2026-04-25T11:51:46.663Z</time></trkpt><trkpt lat="38.14476" lon="15.79525"><ele>1153.0</ele><time>2026-04-25T11:51:47.663Z</time></trkpt><trkpt lat="38.144755" lon="15.7951117"><ele>1153.0</ele><time>2026-04-25T11:51:48.663Z</time></trkpt><trkpt lat="38.144745" lon="15.7950033"><ele>1153.0</ele><time>2026-04-25T11:51:49.664Z</time></trkpt><trkpt lat="38.144725" lon="15.7948783"><ele>1153.0</ele><time>2026-04-25T11:51:50.663Z</time></trkpt><trkpt lat="38.1447033" lon="15.7947733"><ele>1153.0</ele><time>2026-04-25T11:51:51.663Z</time></trkpt><trkpt lat="38.1446767" lon="15.7946733"><ele>1153.0</ele><time>2026-04-25T11:51:52.663Z</time></trkpt><trkpt lat="38.144645" lon="15.7945717"><ele>1153.0</ele><time>2026-04-25T11:51:53.663Z</time></trkpt><trkpt lat="38.144595" lon="15.79446"><ele>1153.0</ele><time>2026-04-25T11:51:54.664Z</time></trkpt><trkpt lat="38.1445417" lon="15.7943533"><ele>1151.857142857143</ele><time>2026-04-25T11:51:55.664Z</time></trkpt><trkpt lat="38.1445033" lon="15.79427"><ele>1150.7142857142858</ele><time>2026-04-25T11:51:56.663Z</time></trkpt><trkpt lat="38.1444567" lon="15.7941833"><ele>1149.5714285714287</ele><time>2026-04-25T11:51:57.663Z</time></trkpt><trkpt lat="38.1444217" lon="15.7941117"><ele>1148.4285714285716</ele><time>2026-04-25T11:51:58.663Z</time></trkpt><trkpt lat="38.1443983" lon="15.79402"><ele>1147.2857142857142</ele><time>2026-04-25T11:52:00.663Z</time></trkpt><trkpt lat="38.1444217" lon="15.7939267"><ele>1146.1428571428573</ele><time>2026-04-25T11:52:03.663Z</time></trkpt><trkpt lat="38.14448" lon="15.793885"><ele>1145.0</ele><time>2026-04-25T11:52:06.662Z</time></trkpt><trkpt lat="38.1445867" lon="15.793885"><ele>1145.0</ele><time>2026-04-25T11:52:15.662Z</time></trkpt><trkpt lat="38.1446817" lon="15.7938967"><ele>1145.0</ele><time>2026-04-25T11:52:17.662Z</time></trkpt><trkpt lat="38.1445983" lon="15.7938833"><ele>1145.0</ele><time>2026-04-25T11:52:31.663Z</time></trkpt><trkpt lat="38.1444917" lon="15.793865"><ele>1145.0</ele><time>2026-04-25T11:52:33.663Z</time></trkpt><trkpt lat="38.1444117" lon="15.7938383"><ele>1145.0</ele><time>2026-04-25T11:52:35.662Z</time></trkpt><trkpt lat="38.1443483" lon="15.7938033"><ele>1145.0</ele><time>2026-04-25T11:52:37.662Z</time></trkpt><trkpt lat="38.1443033" lon="15.7937383"><ele>1145.0</ele><time>2026-04-25T11:52:39.662Z</time></trkpt><trkpt lat="38.144305" lon="15.79363"><ele>1145.0</ele><time>2026-04-25T11:52:41.662Z</time></trkpt><trkpt lat="38.1443183" lon="15.7935367"><ele>1145.0</ele><time>2026-04-25T11:52:42.662Z</time></trkpt><trkpt lat="38.1443367" lon="15.7934317"><ele>1145.0</ele><time>2026-04-25T11:52:43.662Z</time></trkpt><trkpt lat="38.14436" lon="15.793315"><ele>1145.0</ele><time>2026-04-25T11:52:44.663Z</time></trkpt><trkpt lat="38.1443817" lon="15.7931833"><ele>1145.0</ele><time>2026-04-25T11:52:45.662Z</time></trkpt><trkpt lat="38.1444083" lon="15.7930583"><ele>1144.0</ele><time>2026-04-25T11:52:46.662Z</time></trkpt><trkpt lat="38.1444217" lon="15.7929483"><ele>1143.0</ele><time>2026-04-25T11:52:47.662Z</time></trkpt><trkpt lat="38.144435" lon="15.7928367"><ele>1142.0</ele><time>2026-04-25T11:52:48.662Z</time></trkpt><trkpt lat="38.1444517" lon="15.79274"><ele>1141.0</ele><time>2026-04-25T11:52:49.662Z</time></trkpt><trkpt lat="38.1444683" lon="15.79265"><ele>1140.0</ele><time>2026-04-25T11:52:50.662Z</time></trkpt><trkpt lat="38.1444933" lon="15.7925133"><ele>1139.0</ele><time>2026-04-25T11:52:52.662Z</time></trkpt><trkpt lat="38.14451" lon="15.7923833"><ele>1138.25</ele><time>2026-04-25T11:52:54.662Z</time></trkpt><trkpt lat="38.1445167" lon="15.792255"><ele>1137.5</ele><time>2026-04-25T11:52:56.662Z</time></trkpt><trkpt lat="38.1445067" lon="15.7920933"><ele>1136.75</ele><time>2026-04-25T11:52:58.662Z</time></trkpt><trkpt lat="38.14449" lon="15.79194"><ele>1136.0</ele><time>2026-04-25T11:53:00.662Z</time></trkpt><trkpt lat="38.1444717" lon="15.7917983"><ele>1134.8</ele><time>2026-04-25T11:53:02.662Z</time></trkpt><trkpt lat="38.1444517" lon="15.79165"><ele>1133.6</ele><time>2026-04-25T11:53:04.662Z</time></trkpt><trkpt lat="38.1444417" lon="15.7915667"><ele>1132.4</ele><time>2026-04-25T11:53:05.662Z</time></trkpt><trkpt lat="38.1444267" lon="15.7914033"><ele>1131.2</ele><time>2026-04-25T11:53:07.662Z</time></trkpt><trkpt lat="38.1444183" lon="15.7913117"><ele>1130.0</ele><time>2026-04-25T11:53:08.662Z</time></trkpt><trkpt lat="38.1444133" lon="15.7912117"><ele>1130.0</ele><time>2026-04-25T11:53:09.662Z</time></trkpt><trkpt lat="38.1444083" lon="15.7910967"><ele>1130.0</ele><time>2026-04-25T11:53:10.662Z</time></trkpt><trkpt lat="38.1444017" lon="15.7909733"><ele>1130.0</ele><time>2026-04-25T11:53:11.662Z</time></trkpt><trkpt lat="38.1443967" lon="15.7908467"><ele>1130.0</ele><time>2026-04-25T11:53:12.662Z</time></trkpt><trkpt lat="38.1443933" lon="15.7907133"><ele>1130.0</ele><time>2026-04-25T11:53:13.662Z</time></trkpt><trkpt lat="38.1443783" lon="15.790565"><ele>1128.75</ele><time>2026-04-25T11:53:14.663Z</time></trkpt><trkpt lat="38.1443717" lon="15.7904"><ele>1127.5</ele><time>2026-04-25T11:53:15.662Z</time></trkpt><trkpt lat="38.144385" lon="15.7902333"><ele>1126.25</ele><time>2026-04-25T11:53:16.662Z</time></trkpt><trkpt lat="38.1444017" lon="15.7900717"><ele>1125.0</ele><time>2026-04-25T11:53:17.663Z</time></trkpt><trkpt lat="38.1444183" lon="15.7899117"><ele>1123.0</ele><time>2026-04-25T11:53:18.662Z</time></trkpt><trkpt lat="38.1444333" lon="15.789755"><ele>1121.0</ele><time>2026-04-25T11:53:19.662Z</time></trkpt><trkpt lat="38.1444483" lon="15.7896317"><ele>1119.0</ele><time>2026-04-25T11:53:20.662Z</time></trkpt><trkpt lat="38.1444467" lon="15.789535"><ele>1117.0</ele><time>2026-04-25T11:53:21.662Z</time></trkpt><trkpt lat="38.1444383" lon="15.7894517"><ele>1115.0</ele><time>2026-04-25T11:53:22.662Z</time></trkpt><trkpt lat="38.1443817" lon="15.789355"><ele>1115.0</ele><time>2026-04-25T11:53:24.662Z</time></trkpt><trkpt lat="38.14424" lon="15.789405"><ele>1115.0</ele><time>2026-04-25T11:53:26.662Z</time></trkpt><trkpt lat="38.1441433" lon="15.7894683"><ele>1115.0</ele><time>2026-04-25T11:53:27.663Z</time></trkpt><trkpt lat="38.1440467" lon="15.78955"><ele>1115.0</ele><time>2026-04-25T11:53:28.662Z</time></trkpt><trkpt lat="38.1439583" lon="15.7896483"><ele>1113.0</ele><time>2026-04-25T11:53:29.662Z</time></trkpt><trkpt lat="38.14388" lon="15.7897783"><ele>1111.0</ele><time>2026-04-25T11:53:30.663Z</time></trkpt><trkpt lat="38.143805" lon="15.7898867"><ele>1109.0</ele><time>2026-04-25T11:53:31.662Z</time></trkpt><trkpt lat="38.1437333" lon="15.789985"><ele>1107.0</ele><time>2026-04-25T11:53:32.662Z</time></trkpt><trkpt lat="38.143655" lon="15.7900567"><ele>1105.0</ele><time>2026-04-25T11:53:33.662Z</time></trkpt><trkpt lat="38.14357" lon="15.79012"><ele>1105.0</ele><time>2026-04-25T11:53:34.663Z</time></trkpt><trkpt lat="38.1434883" lon="15.790165"><ele>1105.0</ele><time>2026-04-25T11:53:35.662Z</time></trkpt><trkpt lat="38.1434083" lon="15.790175"><ele>1105.0</ele><time>2026-04-25T11:53:36.663Z</time></trkpt><trkpt lat="38.1433183" lon="15.7901867"><ele>1105.0</ele><time>2026-04-25T11:53:37.662Z</time></trkpt><trkpt lat="38.14322" lon="15.790185"><ele>1105.0</ele><time>2026-04-25T11:53:38.662Z</time></trkpt><trkpt lat="38.14312" lon="15.7902"><ele>1106.4285714285713</ele><time>2026-04-25T11:53:39.662Z</time></trkpt><trkpt lat="38.1430383" lon="15.7902117"><ele>1107.857142857143</ele><time>2026-04-25T11:53:40.662Z</time></trkpt><trkpt lat="38.142945" lon="15.79023"><ele>1109.2857142857142</ele><time>2026-04-25T11:53:42.662Z</time></trkpt><trkpt lat="38.1428783" lon="15.7902733"><ele>1110.7142857142858</ele><time>2026-04-25T11:53:52.663Z</time></trkpt><trkpt lat="38.1428233" lon="15.7903167"><ele>1112.142857142857</ele><time>2026-04-25T11:53:53.662Z</time></trkpt><trkpt lat="38.1427683" lon="15.7903683"><ele>1113.5714285714284</ele><time>2026-04-25T11:53:54.662Z</time></trkpt><trkpt lat="38.1427133" lon="15.7904083"><ele>1115.0</ele><time>2026-04-25T11:53:55.662Z</time></trkpt><trkpt lat="38.14264" lon="15.79043"><ele>1115.0</ele><time>2026-04-25T11:53:57.662Z</time></trkpt><trkpt lat="38.1427167" lon="15.79038"><ele>1115.0</ele><time>2026-04-25T11:54:07.663Z</time></trkpt><trkpt lat="38.1427933" lon="15.7903317"><ele>1115.0</ele><time>2026-04-25T11:54:08.663Z</time></trkpt><trkpt lat="38.142875" lon="15.79027"><ele>1115.0</ele><time>2026-04-25T11:54:09.663Z</time></trkpt><trkpt lat="38.1429633" lon="15.7902233"><ele>1115.0</ele><time>2026-04-25T11:54:10.662Z</time></trkpt><trkpt lat="38.143055" lon="15.79019"><ele>1114.0</ele><time>2026-04-25T11:54:11.662Z</time></trkpt><trkpt lat="38.143145" lon="15.7901733"><ele>1113.0</ele><time>2026-04-25T11:54:12.662Z</time></trkpt><trkpt lat="38.143245" lon="15.7901733"><ele>1112.0</ele><time>2026-04-25T11:54:13.662Z</time></trkpt><trkpt lat="38.1433417" lon="15.7901733"><ele>1111.0</ele><time>2026-04-25T11:54:14.662Z</time></trkpt><trkpt lat="38.143435" lon="15.7901717"><ele>1110.0</ele><time>2026-04-25T11:54:15.662Z</time></trkpt><trkpt lat="38.1435117" lon="15.79016"><ele>1109.2857142857144</ele><time>2026-04-25T11:54:16.662Z</time></trkpt><trkpt lat="38.1435733" lon="15.7901367"><ele>1108.5714285714287</ele><time>2026-04-25T11:54:17.662Z</time></trkpt><trkpt lat="38.1436333" lon="15.790095"><ele>1107.857142857143</ele><time>2026-04-25T11:54:18.663Z</time></trkpt><trkpt lat="38.143695" lon="15.7900367"><ele>1107.1428571428573</ele><time>2026-04-25T11:54:19.663Z</time></trkpt><trkpt lat="38.1437583" lon="15.7899767"><ele>1106.4285714285716</ele><time>2026-04-25T11:54:20.662Z</time></trkpt><trkpt lat="38.1438183" lon="15.78992"><ele>1105.7142857142858</ele><time>2026-04-25T11:54:21.662Z</time></trkpt><trkpt lat="38.14387" lon="15.7898567"><ele>1105.0</ele><time>2026-04-25T11:54:22.662Z</time></trkpt><trkpt lat="38.1439267" lon="15.78978"><ele>1105.0</ele><time>2026-04-25T11:54:23.662Z</time></trkpt><trkpt lat="38.1439833" lon="15.7897067"><ele>1105.0</ele><time>2026-04-25T11:54:24.662Z</time></trkpt><trkpt lat="38.1440383" lon="15.7896233"><ele>1105.0</ele><time>2026-04-25T11:54:25.662Z</time></trkpt><trkpt lat="38.144095" lon="15.789545"><ele>1105.0</ele><time>2026-04-25T11:54:26.662Z</time></trkpt><trkpt lat="38.144155" lon="15.789485"><ele>1105.0</ele><time>2026-04-25T11:54:27.662Z</time></trkpt><trkpt lat="38.1442167" lon="15.78944"><ele>1105.0</ele><time>2026-04-25T11:54:28.662Z</time></trkpt><trkpt lat="38.1443167" lon="15.7893917"><ele>1107.0</ele><time>2026-04-25T11:54:30.662Z</time></trkpt><trkpt lat="38.1444117" lon="15.78944"><ele>1109.0</ele><time>2026-04-25T11:54:32.662Z</time></trkpt><trkpt lat="38.14447" lon="15.7895667"><ele>1111.0</ele><time>2026-04-25T11:54:34.662Z</time></trkpt><trkpt lat="38.144535" lon="15.789615"><ele>1113.0</ele><time>2026-04-25T11:54:36.663Z</time></trkpt><trkpt lat="38.1446783" lon="15.7896183"><ele>1115.0</ele><time>2026-04-25T11:54:38.663Z</time></trkpt><trkpt lat="38.144775" lon="15.78961"><ele>1115.0</ele><time>2026-04-25T11:54:39.662Z</time></trkpt><trkpt lat="38.1448433" lon="15.7896033"><ele>1115.0</ele><time>2026-04-25T11:54:40.662Z</time></trkpt><trkpt lat="38.1449183" lon="15.7896183"><ele>1115.0</ele><time>2026-04-25T11:54:42.663Z</time></trkpt><trkpt lat="38.144985" lon="15.78969"><ele>1115.0</ele><time>2026-04-25T11:54:57.662Z</time></trkpt><trkpt lat="38.1450333" lon="15.7897617"><ele>1115.0</ele><time>2026-04-25T11:54:59.662Z</time></trkpt><trkpt lat="38.1450883" lon="15.7898717"><ele>1115.0</ele><time>2026-04-25T11:55:01.662Z</time></trkpt><trkpt lat="38.14515" lon="15.7899683"><ele>1114.1666666666667</ele><time>2026-04-25T11:55:03.662Z</time></trkpt><trkpt lat="38.145195" lon="15.7900467"><ele>1113.3333333333335</ele><time>2026-04-25T11:55:05.662Z</time></trkpt><trkpt lat="38.1452533" lon="15.7900883"><ele>1112.5</ele><time>2026-04-25T11:55:07.662Z</time></trkpt><trkpt lat="38.1453067" lon="15.7901417"><ele>1111.6666666666667</ele><time>2026-04-25T11:55:09.663Z</time></trkpt><trkpt lat="38.1452567" lon="15.7900433"><ele>1110.8333333333333</ele><time>2026-04-25T11:55:27.662Z</time></trkpt><trkpt lat="38.1451817" lon="15.7899317"><ele>1110.0</ele><time>2026-04-25T11:55:29.662Z</time></trkpt><trkpt lat="38.1451317" lon="15.7898467"><ele>1110.0</ele><time>2026-04-25T11:55:31.662Z</time></trkpt><trkpt lat="38.1450717" lon="15.7897717"><ele>1110.0</ele><time>2026-04-25T11:55:48.662Z</time></trkpt><trkpt lat="38.145005" lon="15.78971"><ele>1110.0</ele><time>2026-04-25T11:55:50.663Z</time></trkpt><trkpt lat="38.1449067" lon="15.7896567"><ele>1110.0</ele><time>2026-04-25T11:55:52.662Z</time></trkpt><trkpt lat="38.14484" lon="15.7896367"><ele>1110.0</ele><time>2026-04-25T11:55:53.662Z</time></trkpt><trkpt lat="38.1447233" lon="15.789635"><ele>1110.8333333333333</ele><time>2026-04-25T11:55:55.662Z</time></trkpt><trkpt lat="38.1446417" lon="15.7896367"><ele>1111.6666666666667</ele><time>2026-04-25T11:55:57.662Z</time></trkpt><trkpt lat="38.1445667" lon="15.7896083"><ele>1112.5</ele><time>2026-04-25T11:56:00.662Z</time></trkpt><trkpt lat="38.1445017" lon="15.7895733"><ele>1113.3333333333335</ele><time>2026-04-25T11:58:02.662Z</time></trkpt><trkpt lat="38.1444533" lon="15.7894983"><ele>1114.1666666666667</ele><time>2026-04-25T11:58:05.662Z</time></trkpt><trkpt lat="38.144425" lon="15.7893983"><ele>1115.0</ele><time>2026-04-25T11:59:09.662Z</time></trkpt><trkpt lat="38.1444283" lon="15.7894933"><ele>1115.0</ele><time>2026-04-25T11:59:18.662Z</time></trkpt><trkpt lat="38.14443" lon="15.7895833"><ele>1115.0</ele><time>2026-04-25T11:59:21.662Z</time></trkpt><trkpt lat="38.14449" lon="15.789425"><ele>1115.0</ele><time>2026-04-25T12:00:01.662Z</time></trkpt><trkpt lat="38.1445033" lon="15.7892983"><ele>1115.0</ele><time>2026-04-25T12:00:14.662Z</time></trkpt><trkpt lat="38.1445333" lon="15.7892083"><ele>1115.0</ele><time>2026-04-25T12:00:19.662Z</time></trkpt><trkpt lat="38.1445567" lon="15.7891333"><ele>1113.6666666666667</ele><time>2026-04-25T12:00:21.662Z</time></trkpt><trkpt lat="38.1445883" lon="15.7890333"><ele>1112.3333333333335</ele><time>2026-04-25T12:00:24.662Z</time></trkpt><trkpt lat="38.1446233" lon="15.7889367"><ele>1111.0</ele><time>2026-04-25T12:00:27.662Z</time></trkpt><trkpt lat="38.1446417" lon="15.7888067"><ele>1109.6666666666667</ele><time>2026-04-25T12:01:38.662Z</time></trkpt><trkpt lat="38.1446533" lon="15.78869"><ele>1108.3333333333333</ele><time>2026-04-25T12:01:41.662Z</time></trkpt><trkpt lat="38.1446567" lon="15.7885917"><ele>1107.0</ele><time>2026-04-25T12:01:43.663Z</time></trkpt><trkpt lat="38.1446617" lon="15.7884783"><ele>1105.8</ele><time>2026-04-25T12:01:45.662Z</time></trkpt><trkpt lat="38.14466" lon="15.7883433"><ele>1104.6</ele><time>2026-04-25T12:01:47.663Z</time></trkpt><trkpt lat="38.1446683" lon="15.78821"><ele>1103.3999999999999</ele><time>2026-04-25T12:01:49.662Z</time></trkpt><trkpt lat="38.1446733" lon="15.788125"><ele>1102.2</ele><time>2026-04-25T12:01:50.662Z</time></trkpt><trkpt lat="38.144675" lon="15.78797"><ele>1101.0</ele><time>2026-04-25T12:01:52.662Z</time></trkpt><trkpt lat="38.1446883" lon="15.787855"><ele>1101.0</ele><time>2026-04-25T12:01:53.663Z</time></trkpt><trkpt lat="38.14469" lon="15.7877417"><ele>1101.0</ele><time>2026-04-25T12:01:55.662Z</time></trkpt><trkpt lat="38.1447" lon="15.78764"><ele>1101.0</ele><time>2026-04-25T12:04:43.662Z</time></trkpt><trkpt lat="38.14472" lon="15.7875283"><ele>1101.0</ele><time>2026-04-25T12:04:44.662Z</time></trkpt><trkpt lat="38.1446867" lon="15.7874333"><ele>1101.0</ele><time>2026-04-25T12:10:00.661Z</time></trkpt><trkpt lat="38.1447083" lon="15.7875417"><ele>1101.0</ele><time>2026-04-25T12:10:07.661Z</time></trkpt><trkpt lat="38.1447217" lon="15.7876317"><ele>1101.0</ele><time>2026-04-25T12:10:08.661Z</time></trkpt><trkpt lat="38.144725" lon="15.7877183"><ele>1101.0</ele><time>2026-04-25T12:10:09.661Z</time></trkpt><trkpt lat="38.1447317" lon="15.7878"><ele>1101.0</ele><time>2026-04-25T12:10:10.662Z</time></trkpt><trkpt lat="38.1447367" lon="15.78788"><ele>1101.0</ele><time>2026-04-25T12:10:11.661Z</time></trkpt><trkpt lat="38.1447417" lon="15.7879667"><ele>1101.0</ele><time>2026-04-25T12:10:12.661Z</time></trkpt><trkpt lat="38.14474" lon="15.78805"><ele>1101.0</ele><time>2026-04-25T12:10:13.661Z</time></trkpt><trkpt lat="38.14474" lon="15.7882"><ele>1101.0</ele><time>2026-04-25T12:10:15.661Z</time></trkpt><trkpt lat="38.1447383" lon="15.788335"><ele>1101.0</ele><time>2026-04-25T12:10:17.661Z</time></trkpt><trkpt lat="38.1447283" lon="15.7884467"><ele>1101.0</ele><time>2026-04-25T12:10:19.661Z</time></trkpt><trkpt lat="38.1447167" lon="15.788535"><ele>1101.0</ele><time>2026-04-25T12:10:21.661Z</time></trkpt><trkpt lat="38.144655" lon="15.7886517"><ele>1101.0</ele><time>2026-04-25T12:11:04.661Z</time></trkpt><trkpt lat="38.1446783" lon="15.78856"><ele>1101.0</ele><time>2026-04-25T12:11:07.661Z</time></trkpt><trkpt lat="38.1446983" lon="15.7884583"><ele>1101.0</ele><time>2026-04-25T12:11:09.661Z</time></trkpt><trkpt lat="38.1447083" lon="15.78837"><ele>1101.0</ele><time>2026-04-25T12:11:10.661Z</time></trkpt><trkpt lat="38.1447117" lon="15.7882317"><ele>1101.0</ele><time>2026-04-25T12:11:12.661Z</time></trkpt><trkpt lat="38.1447117" lon="15.7881417"><ele>1101.0</ele><time>2026-04-25T12:11:13.662Z</time></trkpt><trkpt lat="38.14472" lon="15.787995"><ele>1101.0</ele><time>2026-04-25T12:11:15.661Z</time></trkpt><trkpt lat="38.144725" lon="15.7878417"><ele>1101.0</ele><time>2026-04-25T12:11:17.661Z</time></trkpt><trkpt lat="38.1447233" lon="15.7877383"><ele>1097.8</ele><time>2026-04-25T12:11:19.661Z</time></trkpt><trkpt lat="38.1446933" lon="15.7876033"><ele>1094.6</ele><time>2026-04-25T12:11:51.661Z</time></trkpt><trkpt lat="38.144675" lon="15.78749"><ele>1091.4</ele><time>2026-04-25T12:11:53.661Z</time></trkpt><trkpt lat="38.14465" lon="15.7873433"><ele>1088.2</ele><time>2026-04-25T12:11:55.662Z</time></trkpt><trkpt lat="38.14464" lon="15.7872633"><ele>1085.0</ele><time>2026-04-25T12:11:56.661Z</time></trkpt><trkpt lat="38.1446217" lon="15.7871283"><ele>1085.0</ele><time>2026-04-25T12:11:58.661Z</time></trkpt><trkpt lat="38.144595" lon="15.7869933"><ele>1085.0</ele><time>2026-04-25T12:12:00.661Z</time></trkpt><trkpt lat="38.1445433" lon="15.78687"><ele>1085.0</ele><time>2026-04-25T12:12:02.661Z</time></trkpt><trkpt lat="38.1444783" lon="15.786755"><ele>1085.0</ele><time>2026-04-25T12:12:04.661Z</time></trkpt><trkpt lat="38.1443967" lon="15.786655"><ele>1085.0</ele><time>2026-04-25T12:12:06.661Z</time></trkpt><trkpt lat="38.1443467" lon="15.7866017"><ele>1085.4</ele><time>2026-04-25T12:12:07.662Z</time></trkpt><trkpt lat="38.1442633" lon="15.786505"><ele>1085.8</ele><time>2026-04-25T12:12:09.661Z</time></trkpt><trkpt lat="38.144185" lon="15.78638"><ele>1086.2</ele><time>2026-04-25T12:12:11.661Z</time></trkpt><trkpt lat="38.1441467" lon="15.786285"><ele>1086.6</ele><time>2026-04-25T12:12:12.661Z</time></trkpt><trkpt lat="38.144115" lon="15.7861717"><ele>1087.0</ele><time>2026-04-25T12:12:13.661Z</time></trkpt><trkpt lat="38.1440683" lon="15.7860333"><ele>1082.5</ele><time>2026-04-25T12:12:14.661Z</time></trkpt><trkpt lat="38.1440217" lon="15.7858783"><ele>1078.0</ele><time>2026-04-25T12:12:15.661Z</time></trkpt><trkpt lat="38.14397" lon="15.7857183"><ele>1073.5</ele><time>2026-04-25T12:12:16.661Z</time></trkpt><trkpt lat="38.1439383" lon="15.7855767"><ele>1069.0</ele><time>2026-04-25T12:12:17.661Z</time></trkpt><trkpt lat="38.14391" lon="15.7854483"><ele>1069.0</ele><time>2026-04-25T12:12:18.662Z</time></trkpt><trkpt lat="38.14387" lon="15.7853033"><ele>1069.0</ele><time>2026-04-25T12:12:19.661Z</time></trkpt><trkpt lat="38.143845" lon="15.7851717"><ele>1069.0</ele><time>2026-04-25T12:12:20.661Z</time></trkpt><trkpt lat="38.1438067" lon="15.7850267"><ele>1069.0</ele><time>2026-04-25T12:12:21.661Z</time></trkpt><trkpt lat="38.1437633" lon="15.7848783"><ele>1071.0</ele><time>2026-04-25T12:12:22.661Z</time></trkpt><trkpt lat="38.1437133" lon="15.7847383"><ele>1073.0</ele><time>2026-04-25T12:12:23.661Z</time></trkpt><trkpt lat="38.1436683" lon="15.78459"><ele>1075.0</ele><time>2026-04-25T12:12:24.661Z</time></trkpt><trkpt lat="38.1436283" lon="15.784445"><ele>1077.0</ele><time>2026-04-25T12:12:25.661Z</time></trkpt><trkpt lat="38.1435883" lon="15.7842883"><ele>1077.25</ele><time>2026-04-25T12:12:26.661Z</time></trkpt><trkpt lat="38.143545" lon="15.7841217"><ele>1077.5</ele><time>2026-04-25T12:12:27.661Z</time></trkpt><trkpt lat="38.1435017" lon="15.783945"><ele>1077.75</ele><time>2026-04-25T12:12:28.661Z</time></trkpt><trkpt lat="38.1434483" lon="15.7837633"><ele>1078.0</ele><time>2026-04-25T12:12:29.661Z</time></trkpt><trkpt lat="38.1433917" lon="15.7835933"><ele>1077.5</ele><time>2026-04-25T12:12:30.661Z</time></trkpt><trkpt lat="38.1433483" lon="15.7834317"><ele>1077.0</ele><time>2026-04-25T12:12:31.661Z</time></trkpt><trkpt lat="38.1433167" lon="15.78327"><ele>1076.5</ele><time>2026-04-25T12:12:32.661Z</time></trkpt><trkpt lat="38.143285" lon="15.7831333"><ele>1076.0</ele><time>2026-04-25T12:12:33.661Z</time></trkpt><trkpt lat="38.14325" lon="15.7830033"><ele>1076.0</ele><time>2026-04-25T12:12:34.661Z</time></trkpt><trkpt lat="38.143215" lon="15.7828783"><ele>1076.0</ele><time>2026-04-25T12:12:35.662Z</time></trkpt><trkpt lat="38.1431883" lon="15.7827633"><ele>1076.0</ele><time>2026-04-25T12:12:36.662Z</time></trkpt><trkpt lat="38.143155" lon="15.7826583"><ele>1076.0</ele><time>2026-04-25T12:12:37.661Z</time></trkpt><trkpt lat="38.1431267" lon="15.7825567"><ele>1076.0</ele><time>2026-04-25T12:12:38.661Z</time></trkpt><trkpt lat="38.1431033" lon="15.78245"><ele>1075.0</ele><time>2026-04-25T12:12:39.661Z</time></trkpt><trkpt lat="38.1430933" lon="15.7823583"><ele>1074.0</ele><time>2026-04-25T12:12:40.661Z</time></trkpt><trkpt lat="38.143085" lon="15.7822683"><ele>1073.0</ele><time>2026-04-25T12:12:41.661Z</time></trkpt><trkpt lat="38.1430733" lon="15.7821833"><ele>1072.0</ele><time>2026-04-25T12:12:42.662Z</time></trkpt><trkpt lat="38.1430733" lon="15.7820667"><ele>1071.0</ele><time>2026-04-25T12:12:44.661Z</time></trkpt><trkpt lat="38.1431067" lon="15.7819733"><ele>1070.0</ele><time>2026-04-25T12:12:47.662Z</time></trkpt><trkpt lat="38.1431783" lon="15.782025"><ele>1070.0</ele><time>2026-04-25T12:12:51.661Z</time></trkpt><trkpt lat="38.143135" lon="15.782105"><ele>1070.0</ele><time>2026-04-25T12:12:54.662Z</time></trkpt><trkpt lat="38.1430633" lon="15.7821467"><ele>1070.0</ele><time>2026-04-25T12:12:58.661Z</time></trkpt><trkpt lat="38.14305" lon="15.7822617"><ele>1070.0</ele><time>2026-04-25T12:13:01.661Z</time></trkpt><trkpt lat="38.1430633" lon="15.78238"><ele>1070.0</ele><time>2026-04-25T12:13:03.662Z</time></trkpt><trkpt lat="38.1430733" lon="15.7824633"><ele>1070.0</ele><time>2026-04-25T12:13:04.661Z</time></trkpt><trkpt lat="38.143095" lon="15.782585"><ele>1070.0</ele><time>2026-04-25T12:13:06.661Z</time></trkpt><trkpt lat="38.1430317" lon="15.7826567"><ele>1070.0</ele><time>2026-04-25T12:13:11.662Z</time></trkpt><trkpt lat="38.1429117" lon="15.7826733"><ele>1070.0</ele><time>2026-04-25T12:13:13.661Z</time></trkpt><trkpt lat="38.1428467" lon="15.78268"><ele>1070.0</ele><time>2026-04-25T12:13:14.661Z</time></trkpt><trkpt lat="38.1427817" lon="15.78268"><ele>1070.0</ele><time>2026-04-25T12:13:15.661Z</time></trkpt><trkpt lat="38.1426683" lon="15.782685"><ele>1070.0</ele><time>2026-04-25T12:13:17.661Z</time></trkpt><trkpt lat="38.1425867" lon="15.7826883"><ele>1070.3333333333335</ele><time>2026-04-25T12:13:19.661Z</time></trkpt><trkpt lat="38.14252" lon="15.7827017"><ele>1070.6666666666667</ele><time>2026-04-25T12:13:30.66Z</time></trkpt><trkpt lat="38.1424217" lon="15.78271"><ele>1071.0</ele><time>2026-04-25T12:13:31.66Z</time></trkpt><trkpt lat="38.1423517" lon="15.78269"><ele>1071.3333333333333</ele><time>2026-04-25T12:13:34.66Z</time></trkpt><trkpt lat="38.1422717" lon="15.782645"><ele>1071.6666666666665</ele><time>2026-04-25T12:13:38.66Z</time></trkpt><trkpt lat="38.1422083" lon="15.7826167"><ele>1072.0</ele><time>2026-04-25T12:13:40.66Z</time></trkpt><trkpt lat="38.1421167" lon="15.782585"><ele>1069.5</ele><time>2026-04-25T12:13:43.66Z</time></trkpt><trkpt lat="38.14202" lon="15.7825483"><ele>1067.0</ele><time>2026-04-25T12:13:45.66Z</time></trkpt><trkpt lat="38.1419383" lon="15.7825217"><ele>1064.5</ele><time>2026-04-25T12:13:47.66Z</time></trkpt><trkpt lat="38.14186" lon="15.7824433"><ele>1062.0</ele><time>2026-04-25T12:13:57.66Z</time></trkpt><trkpt lat="38.1418517" lon="15.7823367"><ele>1059.5</ele><time>2026-04-25T12:14:00.66Z</time></trkpt><trkpt lat="38.141875" lon="15.782255"><ele>1057.0</ele><time>2026-04-25T12:14:02.66Z</time></trkpt><trkpt lat="38.141905" lon="15.7821717"><ele>1057.0</ele><time>2026-04-25T12:14:04.66Z</time></trkpt><trkpt lat="38.1418933" lon="15.782065"><ele>1057.0</ele><time>2026-04-25T12:14:07.66Z</time></trkpt><trkpt lat="38.1418333" lon="15.7820183"><ele>1057.0</ele><time>2026-04-25T12:14:09.66Z</time></trkpt><trkpt lat="38.1417317" lon="15.7819967"><ele>1057.0</ele><time>2026-04-25T12:14:11.66Z</time></trkpt><trkpt lat="38.1416233" lon="15.78198"><ele>1057.0</ele><time>2026-04-25T12:14:13.66Z</time></trkpt><trkpt lat="38.141525" lon="15.7819817"><ele>1051.6666666666665</ele><time>2026-04-25T12:14:15.661Z</time></trkpt><trkpt lat="38.1414417" lon="15.78201"><ele>1046.3333333333333</ele><time>2026-04-25T12:14:17.66Z</time></trkpt><trkpt lat="38.1413767" lon="15.7820117"><ele>1041.0</ele><time>2026-04-25T12:14:19.66Z</time></trkpt><trkpt lat="38.1413217" lon="15.78194"><ele>1035.6666666666667</ele><time>2026-04-25T12:14:22.66Z</time></trkpt><trkpt lat="38.14128" lon="15.7818267"><ele>1030.3333333333335</ele><time>2026-04-25T12:14:24.66Z</time></trkpt><trkpt lat="38.14124" lon="15.7817333"><ele>1025.0</ele><time>2026-04-25T12:14:26.66Z</time></trkpt><trkpt lat="38.1412433" lon="15.7816233"><ele>1025.0</ele><time>2026-04-25T12:14:29.66Z</time></trkpt><trkpt lat="38.1413017" lon="15.7815283"><ele>1025.0</ele><time>2026-04-25T12:14:32.66Z</time></trkpt><trkpt lat="38.141295" lon="15.7814017"><ele>1025.0</ele><time>2026-04-25T12:14:35.66Z</time></trkpt><trkpt lat="38.1412383" lon="15.781295"><ele>1025.0</ele><time>2026-04-25T12:14:37.66Z</time></trkpt><trkpt lat="38.1411717" lon="15.781185"><ele>1025.0</ele><time>2026-04-25T12:14:39.66Z</time></trkpt><trkpt lat="38.1411433" lon="15.7810717"><ele>1025.4</ele><time>2026-04-25T12:14:41.66Z</time></trkpt><trkpt lat="38.141105" lon="15.7809483"><ele>1025.8</ele><time>2026-04-25T12:14:43.66Z</time></trkpt><trkpt lat="38.1410683" lon="15.7808317"><ele>1026.2</ele><time>2026-04-25T12:14:45.66Z</time></trkpt><trkpt lat="38.1410217" lon="15.7807183"><ele>1026.6</ele><time>2026-04-25T12:14:47.66Z</time></trkpt><trkpt lat="38.140995" lon="15.7805983"><ele>1027.0</ele><time>2026-04-25T12:14:49.661Z</time></trkpt><trkpt lat="38.1409817" lon="15.7804733"><ele>1027.0</ele><time>2026-04-25T12:14:51.66Z</time></trkpt><trkpt lat="38.1409917" lon="15.7803433"><ele>1027.0</ele><time>2026-04-25T12:14:53.66Z</time></trkpt><trkpt lat="38.1410083" lon="15.7802283"><ele>1027.0</ele><time>2026-04-25T12:14:55.66Z</time></trkpt><trkpt lat="38.1410333" lon="15.78013"><ele>1027.0</ele><time>2026-04-25T12:14:57.66Z</time></trkpt><trkpt lat="38.1410467" lon="15.780035"><ele>1027.0</ele><time>2026-04-25T12:14:59.66Z</time></trkpt><trkpt lat="38.1410283" lon="15.7799417"><ele>1027.0</ele><time>2026-04-25T12:15:01.66Z</time></trkpt><trkpt lat="38.1409833" lon="15.7798533"><ele>1027.0</ele><time>2026-04-25T12:15:03.661Z</time></trkpt><trkpt lat="38.1409083" lon="15.7797583"><ele>1027.0</ele><time>2026-04-25T12:15:05.66Z</time></trkpt><trkpt lat="38.1408517" lon="15.7796533"><ele>1027.0</ele><time>2026-04-25T12:15:07.66Z</time></trkpt><trkpt lat="38.1408433" lon="15.77953"><ele>1027.0</ele><time>2026-04-25T12:15:09.66Z</time></trkpt><trkpt lat="38.14086" lon="15.779375"><ele>1027.0</ele><time>2026-04-25T12:15:11.661Z</time></trkpt><trkpt lat="38.1408883" lon="15.77926"><ele>1026.6666666666665</ele><time>2026-04-25T12:15:13.661Z</time></trkpt><trkpt lat="38.140955" lon="15.7791767"><ele>1026.3333333333333</ele><time>2026-04-25T12:15:15.66Z</time></trkpt><trkpt lat="38.141015" lon="15.7791117"><ele>1026.0</ele><time>2026-04-25T12:15:17.66Z</time></trkpt><trkpt lat="38.1410033" lon="15.7790183"><ele>1025.6666666666667</ele><time>2026-04-25T12:15:20.66Z</time></trkpt><trkpt lat="38.140955" lon="15.7789483"><ele>1025.3333333333335</ele><time>2026-04-25T12:15:22.661Z</time></trkpt><trkpt lat="38.1408983" lon="15.778865"><ele>1025.0</ele><time>2026-04-25T12:15:24.66Z</time></trkpt><trkpt lat="38.14085" lon="15.7787533"><ele>1025.0</ele><time>2026-04-25T12:15:26.66Z</time></trkpt><trkpt lat="38.14082" lon="15.7786267"><ele>1025.0</ele><time>2026-04-25T12:15:28.66Z</time></trkpt><trkpt lat="38.140815" lon="15.77851"><ele>1025.0</ele><time>2026-04-25T12:15:30.66Z</time></trkpt><trkpt lat="38.14083" lon="15.7784217"><ele>1025.0</ele><time>2026-04-25T12:15:31.66Z</time></trkpt><trkpt lat="38.1408333" lon="15.7782733"><ele>1025.0</ele><time>2026-04-25T12:15:33.66Z</time></trkpt><trkpt lat="38.140835" lon="15.77819"><ele>1025.0</ele><time>2026-04-25T12:15:34.66Z</time></trkpt><trkpt lat="38.1408467" lon="15.778065"><ele>1024.2</ele><time>2026-04-25T12:15:36.66Z</time></trkpt><trkpt lat="38.1409017" lon="15.7779783"><ele>1023.4</ele><time>2026-04-25T12:15:38.66Z</time></trkpt><trkpt lat="38.1409667" lon="15.7779067"><ele>1022.5999999999999</ele><time>2026-04-25T12:15:40.66Z</time></trkpt><trkpt lat="38.1410383" lon="15.7778167"><ele>1021.8</ele><time>2026-04-25T12:15:42.661Z</time></trkpt><trkpt lat="38.14108" lon="15.777755"><ele>1021.0</ele><time>2026-04-25T12:15:43.66Z</time></trkpt><trkpt lat="38.1411767" lon="15.77767"><ele>1016.0</ele><time>2026-04-25T12:15:45.66Z</time></trkpt><trkpt lat="38.14128" lon="15.7775983"><ele>1010.9999999999999</ele><time>2026-04-25T12:15:47.66Z</time></trkpt><trkpt lat="38.1413367" lon="15.7775583"><ele>1005.9999999999999</ele><time>2026-04-25T12:15:48.66Z</time></trkpt><trkpt lat="38.14143" lon="15.7774733"><ele>1001.0</ele><time>2026-04-25T12:15:50.66Z</time></trkpt><trkpt lat="38.1415017" lon="15.777405"><ele>996.0</ele><time>2026-04-25T12:15:52.66Z</time></trkpt><trkpt lat="38.1415317" lon="15.77733"><ele>996.0</ele><time>2026-04-25T12:15:54.66Z</time></trkpt><trkpt lat="38.141515" lon="15.7772"><ele>996.0</ele><time>2026-04-25T12:15:56.66Z</time></trkpt><trkpt lat="38.1414983" lon="15.77711"><ele>996.0</ele><time>2026-04-25T12:15:57.66Z</time></trkpt><trkpt lat="38.1414733" lon="15.7770067"><ele>996.0</ele><time>2026-04-25T12:15:58.66Z</time></trkpt><trkpt lat="38.141455" lon="15.7768983"><ele>996.0</ele><time>2026-04-25T12:15:59.66Z</time></trkpt><trkpt lat="38.1414467" lon="15.7767933"><ele>996.0</ele><time>2026-04-25T12:16:00.661Z</time></trkpt><trkpt lat="38.1414467" lon="15.776685"><ele>997.1666666666666</ele><time>2026-04-25T12:16:01.66Z</time></trkpt><trkpt lat="38.1414417" lon="15.7765983"><ele>998.3333333333333</ele><time>2026-04-25T12:16:02.66Z</time></trkpt><trkpt lat="38.1414433" lon="15.7765167"><ele>999.5</ele><time>2026-04-25T12:16:03.66Z</time></trkpt><trkpt lat="38.1414633" lon="15.776405"><ele>1000.6666666666666</ele><time>2026-04-25T12:16:05.66Z</time></trkpt><trkpt lat="38.14149" lon="15.7762933"><ele>1001.8333333333333</ele><time>2026-04-25T12:16:07.66Z</time></trkpt><trkpt lat="38.1415633" lon="15.7761933"><ele>1003.0</ele><time>2026-04-25T12:16:09.66Z</time></trkpt><trkpt lat="38.14164" lon="15.7761333"><ele>1003.0</ele><time>2026-04-25T12:16:11.66Z</time></trkpt><trkpt lat="38.1417217" lon="15.7761333"><ele>1003.0</ele><time>2026-04-25T12:16:13.66Z</time></trkpt><trkpt lat="38.1418" lon="15.7761283"><ele>1003.0</ele><time>2026-04-25T12:16:15.661Z</time></trkpt><trkpt lat="38.1418817" lon="15.7760817"><ele>1003.0</ele><time>2026-04-25T12:16:17.66Z</time></trkpt><trkpt lat="38.1419717" lon="15.776"><ele>1003.0</ele><time>2026-04-25T12:16:19.661Z</time></trkpt><trkpt lat="38.142065" lon="15.7759183"><ele>1001.3333333333333</ele><time>2026-04-25T12:16:21.66Z</time></trkpt><trkpt lat="38.142155" lon="15.7758667"><ele>999.6666666666666</ele><time>2026-04-25T12:16:23.661Z</time></trkpt><trkpt lat="38.1422083" lon="15.7758017"><ele>998.0</ele><time>2026-04-25T12:16:25.66Z</time></trkpt><trkpt lat="38.14226" lon="15.7757133"><ele>996.3333333333333</ele><time>2026-04-25T12:16:27.66Z</time></trkpt><trkpt lat="38.1423317" lon="15.7756633"><ele>994.6666666666666</ele><time>2026-04-25T12:16:29.66Z</time></trkpt><trkpt lat="38.142405" lon="15.775665"><ele>993.0</ele><time>2026-04-25T12:16:31.66Z</time></trkpt><trkpt lat="38.1424783" lon="15.7756767"><ele>993.0</ele><time>2026-04-25T12:16:33.66Z</time></trkpt><trkpt lat="38.1425667" lon="15.77569"><ele>993.0</ele><time>2026-04-25T12:16:36.661Z</time></trkpt><trkpt lat="38.1425933" lon="15.7755217"><ele>993.0</ele><time>2026-04-25T12:17:47.66Z</time></trkpt><trkpt lat="38.14261" lon="15.7754233"><ele>993.0</ele><time>2026-04-25T12:17:49.661Z</time></trkpt><trkpt lat="38.1426133" lon="15.7753183"><ele>993.0</ele><time>2026-04-25T12:17:51.66Z</time></trkpt><trkpt lat="38.1426017" lon="15.7751867"><ele>986.0</ele><time>2026-04-25T12:17:53.66Z</time></trkpt><trkpt lat="38.1426217" lon="15.7750683"><ele>979.0</ele><time>2026-04-25T12:17:55.66Z</time></trkpt><trkpt lat="38.1426633" lon="15.77494"><ele>972.0</ele><time>2026-04-25T12:17:57.66Z</time></trkpt><trkpt lat="38.1426967" lon="15.7748717"><ele>965.0</ele><time>2026-04-25T12:17:58.661Z</time></trkpt><trkpt lat="38.14276" lon="15.77474"><ele>958.0</ele><time>2026-04-25T12:18:00.66Z</time></trkpt><trkpt lat="38.142815" lon="15.774635"><ele>957.9999999999999</ele><time>2026-04-25T12:18:02.661Z</time></trkpt><trkpt lat="38.142865" lon="15.7745633"><ele>958.0</ele><time>2026-04-25T12:18:04.66Z</time></trkpt><trkpt lat="38.1429217" lon="15.7745083"><ele>958.0</ele><time>2026-04-25T12:18:06.66Z</time></trkpt><trkpt lat="38.142995" lon="15.774455"><ele>958.0</ele><time>2026-04-25T12:18:08.66Z</time></trkpt><trkpt lat="38.14309" lon="15.7744317"><ele>957.9999999999999</ele><time>2026-04-25T12:18:10.66Z</time></trkpt><trkpt lat="38.1431733" lon="15.7744183"><ele>958.0</ele><time>2026-04-25T12:18:12.661Z</time></trkpt><trkpt lat="38.1432733" lon="15.7743733"><ele>955.4</ele><time>2026-04-25T12:18:14.66Z</time></trkpt><trkpt lat="38.1433817" lon="15.7743267"><ele>952.8</ele><time>2026-04-25T12:18:16.66Z</time></trkpt><trkpt lat="38.14348" lon="15.77428"><ele>950.2</ele><time>2026-04-25T12:18:18.66Z</time></trkpt><trkpt lat="38.1435417" lon="15.7742367"><ele>947.6</ele><time>2026-04-25T12:18:20.66Z</time></trkpt><trkpt lat="38.1436117" lon="15.7741717"><ele>945.0</ele><time>2026-04-25T12:18:22.66Z</time></trkpt><trkpt lat="38.1436833" lon="15.7741183"><ele>945.0</ele><time>2026-04-25T12:18:24.66Z</time></trkpt><trkpt lat="38.1437617" lon="15.774075"><ele>945.0</ele><time>2026-04-25T12:18:26.66Z</time></trkpt><trkpt lat="38.14383" lon="15.7740583"><ele>945.0</ele><time>2026-04-25T12:18:28.66Z</time></trkpt><trkpt lat="38.14392" lon="15.774015"><ele>945.0</ele><time>2026-04-25T12:18:37.661Z</time></trkpt><trkpt lat="38.1440167" lon="15.7740467"><ele>945.0</ele><time>2026-04-25T12:18:39.661Z</time></trkpt><trkpt lat="38.1441283" lon="15.7741217"><ele>944.1666666666666</ele><time>2026-04-25T12:18:41.66Z</time></trkpt><trkpt lat="38.1441917" lon="15.7741733"><ele>943.3333333333333</ele><time>2026-04-25T12:18:42.66Z</time></trkpt><trkpt lat="38.1442517" lon="15.774225"><ele>942.5</ele><time>2026-04-25T12:18:43.66Z</time></trkpt><trkpt lat="38.1443167" lon="15.7742833"><ele>941.6666666666666</ele><time>2026-04-25T12:18:44.66Z</time></trkpt><trkpt lat="38.1443983" lon="15.7743567"><ele>940.8333333333333</ele><time>2026-04-25T12:18:45.66Z</time></trkpt><trkpt lat="38.14448" lon="15.7744267"><ele>940.0</ele><time>2026-04-25T12:18:46.66Z</time></trkpt><trkpt lat="38.14455" lon="15.7745"><ele>938.8333333333333</ele><time>2026-04-25T12:18:47.66Z</time></trkpt><trkpt lat="38.1446083" lon="15.7745683"><ele>937.6666666666666</ele><time>2026-04-25T12:18:48.66Z</time></trkpt><trkpt lat="38.1446467" lon="15.7746333"><ele>936.5</ele><time>2026-04-25T12:18:49.661Z</time></trkpt><trkpt lat="38.1446967" lon="15.774705"><ele>935.3333333333333</ele><time>2026-04-25T12:18:50.66Z</time></trkpt><trkpt lat="38.1447417" lon="15.7747767"><ele>934.1666666666666</ele><time>2026-04-25T12:18:51.66Z</time></trkpt><trkpt lat="38.14482" lon="15.7748983"><ele>933.0</ele><time>2026-04-25T12:18:53.66Z</time></trkpt><trkpt lat="38.1448867" lon="15.7750167"><ele>933.0</ele><time>2026-04-25T12:18:55.66Z</time></trkpt><trkpt lat="38.1449317" lon="15.7751367"><ele>933.0</ele><time>2026-04-25T12:18:57.66Z</time></trkpt><trkpt lat="38.1449233" lon="15.775295"><ele>933.0</ele><time>2026-04-25T12:18:59.66Z</time></trkpt><trkpt lat="38.144915" lon="15.77543"><ele>933.0</ele><time>2026-04-25T12:19:01.661Z</time></trkpt><trkpt lat="38.144935" lon="15.77552"><ele>933.0</ele><time>2026-04-25T12:19:03.66Z</time></trkpt><trkpt lat="38.144995" lon="15.7756033"><ele>935.6666666666666</ele><time>2026-04-25T12:19:06.66Z</time></trkpt><trkpt lat="38.14504" lon="15.7756767"><ele>938.3333333333333</ele><time>2026-04-25T12:19:08.66Z</time></trkpt><trkpt lat="38.14509" lon="15.7757267"><ele>941.0</ele><time>2026-04-25T12:19:09.66Z</time></trkpt><trkpt lat="38.1451883" lon="15.77581"><ele>943.6666666666666</ele><time>2026-04-25T12:19:11.661Z</time></trkpt><trkpt lat="38.1452567" lon="15.7758467"><ele>946.3333333333333</ele><time>2026-04-25T12:19:12.66Z</time></trkpt><trkpt lat="38.1453383" lon="15.775885"><ele>949.0</ele><time>2026-04-25T12:19:13.66Z</time></trkpt><trkpt lat="38.1454117" lon="15.775905"><ele>948.9999999999999</ele><time>2026-04-25T12:19:14.66Z</time></trkpt><trkpt lat="38.145485" lon="15.775915"><ele>949.0</ele><time>2026-04-25T12:19:15.66Z</time></trkpt><trkpt lat="38.1455683" lon="15.7759217"><ele>949.0</ele><time>2026-04-25T12:19:16.66Z</time></trkpt><trkpt lat="38.1456717" lon="15.7759183"><ele>949.0</ele><time>2026-04-25T12:19:17.66Z</time></trkpt><trkpt lat="38.14576" lon="15.7759217"><ele>948.9999999999999</ele><time>2026-04-25T12:19:18.66Z</time></trkpt><trkpt lat="38.1458533" lon="15.77593"><ele>949.0</ele><time>2026-04-25T12:19:19.66Z</time></trkpt><trkpt lat="38.1459417" lon="15.775965"><ele>951.0</ele><time>2026-04-25T12:19:20.66Z</time></trkpt><trkpt lat="38.1460183" lon="15.7760133"><ele>953.0000000000001</ele><time>2026-04-25T12:19:21.66Z</time></trkpt><trkpt lat="38.1460833" lon="15.776135"><ele>955.0000000000001</ele><time>2026-04-25T12:19:23.661Z</time></trkpt><trkpt lat="38.1460667" lon="15.776285"><ele>957.0</ele><time>2026-04-25T12:19:25.661Z</time></trkpt><trkpt lat="38.1460433" lon="15.776395"><ele>959.0</ele><time>2026-04-25T12:19:26.661Z</time></trkpt><trkpt lat="38.1460183" lon="15.776505"><ele>959.0</ele><time>2026-04-25T12:19:27.66Z</time></trkpt><trkpt lat="38.1459983" lon="15.776615"><ele>959.0000000000001</ele><time>2026-04-25T12:19:28.66Z</time></trkpt><trkpt lat="38.1459967" lon="15.7767133"><ele>959.0000000000001</ele><time>2026-04-25T12:19:29.66Z</time></trkpt><trkpt lat="38.1460017" lon="15.7768017"><ele>959.0</ele><time>2026-04-25T12:19:30.66Z</time></trkpt><trkpt lat="38.1460383" lon="15.776925"><ele>959.0</ele><time>2026-04-25T12:19:32.66Z</time></trkpt><trkpt lat="38.1461417" lon="15.77702"><ele>963.0</ele><time>2026-04-25T12:19:34.66Z</time></trkpt><trkpt lat="38.1462033" lon="15.77706"><ele>967.0000000000001</ele><time>2026-04-25T12:19:35.66Z</time></trkpt><trkpt lat="38.1462883" lon="15.7771217"><ele>971.0000000000001</ele><time>2026-04-25T12:19:37.66Z</time></trkpt><trkpt lat="38.14635" lon="15.7772033"><ele>975.0</ele><time>2026-04-25T12:19:39.66Z</time></trkpt><trkpt lat="38.14638" lon="15.777335"><ele>979.0</ele><time>2026-04-25T12:19:41.66Z</time></trkpt><trkpt lat="38.1463683" lon="15.7774667"><ele>978.9999999999999</ele><time>2026-04-25T12:19:43.66Z</time></trkpt><trkpt lat="38.1463833" lon="15.7775683"><ele>979.0</ele><time>2026-04-25T12:19:45.66Z</time></trkpt><trkpt lat="38.1464283" lon="15.7776583"><ele>979.0</ele><time>2026-04-25T12:19:47.66Z</time></trkpt><trkpt lat="38.1464967" lon="15.777725"><ele>979.0</ele><time>2026-04-25T12:19:49.66Z</time></trkpt><trkpt lat="38.1465517" lon="15.7777783"><ele>978.9999999999999</ele><time>2026-04-25T12:19:51.661Z</time></trkpt><trkpt lat="38.1466083" lon="15.777825"><ele>979.0</ele><time>2026-04-25T12:19:53.661Z</time></trkpt><trkpt lat="38.1466833" lon="15.7778817"><ele>975.3333333333333</ele><time>2026-04-25T12:19:56.661Z</time></trkpt><trkpt lat="38.1467517" lon="15.777935"><ele>971.6666666666666</ele><time>2026-04-25T12:19:58.66Z</time></trkpt><trkpt lat="38.1468183" lon="15.777985"><ele>968.0</ele><time>2026-04-25T12:20:00.66Z</time></trkpt><trkpt lat="38.1469133" lon="15.7780217"><ele>964.3333333333333</ele><time>2026-04-25T12:20:12.66Z</time></trkpt><trkpt lat="38.1468733" lon="15.7779533"><ele>960.6666666666666</ele><time>2026-04-25T12:20:15.66Z</time></trkpt><trkpt lat="38.14683" lon="15.77788"><ele>957.0</ele><time>2026-04-25T12:20:18.66Z</time></trkpt><trkpt lat="38.14684" lon="15.7777867"><ele>957.0</ele><time>2026-04-25T12:20:21.66Z</time></trkpt><trkpt lat="38.1468583" lon="15.7777067"><ele>957.0</ele><time>2026-04-25T12:20:25.66Z</time></trkpt><trkpt lat="38.1469083" lon="15.7776383"><ele>957.0</ele><time>2026-04-25T12:20:30.66Z</time></trkpt><trkpt lat="38.1469517" lon="15.777565"><ele>957.0</ele><time>2026-04-25T12:20:33.66Z</time></trkpt><trkpt lat="38.146975" lon="15.77746"><ele>957.0</ele><time>2026-04-25T12:20:35.661Z</time></trkpt><trkpt lat="38.1469733" lon="15.777325"><ele>957.0</ele><time>2026-04-25T12:20:37.661Z</time></trkpt><trkpt lat="38.1469367" lon="15.77716"><ele>954.6</ele><time>2026-04-25T12:20:39.66Z</time></trkpt><trkpt lat="38.1469017" lon="15.77708"><ele>952.2</ele><time>2026-04-25T12:20:40.66Z</time></trkpt><trkpt lat="38.1468683" lon="15.77699"><ele>949.8</ele><time>2026-04-25T12:20:41.66Z</time></trkpt><trkpt lat="38.1468117" lon="15.7768517"><ele>947.4</ele><time>2026-04-25T12:20:43.661Z</time></trkpt><trkpt lat="38.1468167" lon="15.7766883"><ele>945.0</ele><time>2026-04-25T12:20:45.661Z</time></trkpt><trkpt lat="38.146915" lon="15.7765417"><ele>943.8</ele><time>2026-04-25T12:20:47.66Z</time></trkpt><trkpt lat="38.1469917" lon="15.77646"><ele>942.6</ele><time>2026-04-25T12:20:48.66Z</time></trkpt><trkpt lat="38.14708" lon="15.7763783"><ele>941.4000000000001</ele><time>2026-04-25T12:20:49.66Z</time></trkpt><trkpt lat="38.1471683" lon="15.7762983"><ele>940.2</ele><time>2026-04-25T12:20:50.66Z</time></trkpt><trkpt lat="38.14726" lon="15.7762117"><ele>939.0</ele><time>2026-04-25T12:20:51.66Z</time></trkpt><trkpt lat="38.14735" lon="15.77612"><ele>940.0</ele><time>2026-04-25T12:20:52.66Z</time></trkpt><trkpt lat="38.14742" lon="15.7760383"><ele>941.0</ele><time>2026-04-25T12:20:53.66Z</time></trkpt><trkpt lat="38.1474817" lon="15.775975"><ele>942.0</ele><time>2026-04-25T12:20:54.661Z</time></trkpt><trkpt lat="38.14753" lon="15.7759083"><ele>943.0</ele><time>2026-04-25T12:20:55.66Z</time></trkpt><trkpt lat="38.147555" lon="15.7758017"><ele>944.0</ele><time>2026-04-25T12:20:56.66Z</time></trkpt><trkpt lat="38.1475717" lon="15.77571"><ele>945.0</ele><time>2026-04-25T12:20:57.66Z</time></trkpt><trkpt lat="38.1475633" lon="15.7756083"><ele>945.0</ele><time>2026-04-25T12:20:58.66Z</time></trkpt><trkpt lat="38.14754" lon="15.7754883"><ele>945.0</ele><time>2026-04-25T12:20:59.66Z</time></trkpt><trkpt lat="38.1475083" lon="15.7753883"><ele>945.0</ele><time>2026-04-25T12:21:00.661Z</time></trkpt><trkpt lat="38.1474833" lon="15.7753"><ele>945.0</ele><time>2026-04-25T12:21:01.66Z</time></trkpt><trkpt lat="38.1474767" lon="15.775215"><ele>945.0</ele><time>2026-04-25T12:21:02.66Z</time></trkpt><trkpt lat="38.147515" lon="15.7750833"><ele>945.0</ele><time>2026-04-25T12:21:04.66Z</time></trkpt><trkpt lat="38.1475167" lon="15.7749583"><ele>944.8333333333334</ele><time>2026-04-25T12:21:06.661Z</time></trkpt><trkpt lat="38.1474433" lon="15.774855"><ele>944.6666666666667</ele><time>2026-04-25T12:21:08.66Z</time></trkpt><trkpt lat="38.1473967" lon="15.7747883"><ele>944.5</ele><time>2026-04-25T12:21:09.66Z</time></trkpt><trkpt lat="38.147345" lon="15.7747167"><ele>944.3333333333334</ele><time>2026-04-25T12:21:10.66Z</time></trkpt><trkpt lat="38.14729" lon="15.7746433"><ele>944.1666666666667</ele><time>2026-04-25T12:21:11.66Z</time></trkpt><trkpt lat="38.147245" lon="15.7745733"><ele>944.0</ele><time>2026-04-25T12:21:12.66Z</time></trkpt><trkpt lat="38.1472033" lon="15.7745083"><ele>942.6</ele><time>2026-04-25T12:21:13.66Z</time></trkpt><trkpt lat="38.147145" lon="15.7744067"><ele>941.2</ele><time>2026-04-25T12:21:15.66Z</time></trkpt><trkpt lat="38.1470717" lon="15.7742567"><ele>939.8000000000001</ele><time>2026-04-25T12:21:24.66Z</time></trkpt><trkpt lat="38.1470167" lon="15.7741417"><ele>938.4000000000001</ele><time>2026-04-25T12:21:26.661Z</time></trkpt><trkpt lat="38.1469767" lon="15.7740783"><ele>937.0</ele><time>2026-04-25T12:21:27.66Z</time></trkpt><trkpt lat="38.146895" lon="15.7739533"><ele>938.4000000000001</ele><time>2026-04-25T12:21:29.66Z</time></trkpt><trkpt lat="38.1468417" lon="15.773865"><ele>939.8000000000001</ele><time>2026-04-25T12:21:30.66Z</time></trkpt><trkpt lat="38.1467767" lon="15.7737483"><ele>941.2</ele><time>2026-04-25T12:21:31.66Z</time></trkpt><trkpt lat="38.1467067" lon="15.7736333"><ele>942.6</ele><time>2026-04-25T12:21:32.66Z</time></trkpt><trkpt lat="38.1466317" lon="15.7735133"><ele>944.0</ele><time>2026-04-25T12:21:33.66Z</time></trkpt><trkpt lat="38.1465483" lon="15.7733917"><ele>944.0</ele><time>2026-04-25T12:21:34.66Z</time></trkpt><trkpt lat="38.1464533" lon="15.773275"><ele>944.0</ele><time>2026-04-25T12:21:35.66Z</time></trkpt><trkpt lat="38.1463417" lon="15.7731533"><ele>944.0</ele><time>2026-04-25T12:21:36.661Z</time></trkpt><trkpt lat="38.146235" lon="15.77303"><ele>944.0</ele><time>2026-04-25T12:21:37.661Z</time></trkpt><trkpt lat="38.1461367" lon="15.772905"><ele>944.0</ele><time>2026-04-25T12:21:38.66Z</time></trkpt><trkpt lat="38.14604" lon="15.7727883"><ele>944.0</ele><time>2026-04-25T12:21:39.66Z</time></trkpt><trkpt lat="38.1459333" lon="15.7726817"><ele>944.0</ele><time>2026-04-25T12:21:40.66Z</time></trkpt><trkpt lat="38.1458217" lon="15.7725833"><ele>944.0</ele><time>2026-04-25T12:21:41.661Z</time></trkpt><trkpt lat="38.1457033" lon="15.7724917"><ele>941.25</ele><time>2026-04-25T12:21:42.66Z</time></trkpt><trkpt lat="38.1455833" lon="15.772405"><ele>938.5</ele><time>2026-04-25T12:21:43.66Z</time></trkpt><trkpt lat="38.1454583" lon="15.7723133"><ele>935.75</ele><time>2026-04-25T12:21:44.66Z</time></trkpt><trkpt lat="38.14534" lon="15.7722117"><ele>933.0</ele><time>2026-04-25T12:21:45.66Z</time></trkpt><trkpt lat="38.1452417" lon="15.7720983"><ele>933.0</ele><time>2026-04-25T12:21:46.66Z</time></trkpt><trkpt lat="38.1451567" lon="15.77197"><ele>933.0</ele><time>2026-04-25T12:21:47.66Z</time></trkpt><trkpt lat="38.1450867" lon="15.7718217"><ele>933.0</ele><time>2026-04-25T12:21:48.66Z</time></trkpt><trkpt lat="38.14504" lon="15.7716433"><ele>933.0</ele><time>2026-04-25T12:21:49.66Z</time></trkpt><trkpt lat="38.1450067" lon="15.771475"><ele>935.0</ele><time>2026-04-25T12:21:50.661Z</time></trkpt><trkpt lat="38.14496" lon="15.7713133"><ele>937.0</ele><time>2026-04-25T12:21:51.66Z</time></trkpt><trkpt lat="38.1449183" lon="15.77116"><ele>939.0</ele><time>2026-04-25T12:21:52.66Z</time></trkpt><trkpt lat="38.144855" lon="15.7710133"><ele>941.0</ele><time>2026-04-25T12:21:53.66Z</time></trkpt><trkpt lat="38.1447633" lon="15.770865"><ele>941.0</ele><time>2026-04-25T12:21:54.66Z</time></trkpt><trkpt lat="38.144665" lon="15.770715"><ele>941.0</ele><time>2026-04-25T12:21:55.661Z</time></trkpt><trkpt lat="38.1445683" lon="15.7705517"><ele>941.0</ele><time>2026-04-25T12:21:56.661Z</time></trkpt><trkpt lat="38.144475" lon="15.7703817"><ele>941.0</ele><time>2026-04-25T12:21:57.66Z</time></trkpt><trkpt lat="38.1443883" lon="15.770215"><ele>941.0</ele><time>2026-04-25T12:21:58.661Z</time></trkpt><trkpt lat="38.1443033" lon="15.7700483"><ele>941.0</ele><time>2026-04-25T12:21:59.66Z</time></trkpt><trkpt lat="38.1442083" lon="15.76989"><ele>943.3333333333334</ele><time>2026-04-25T12:22:00.661Z</time></trkpt><trkpt lat="38.144115" lon="15.7697167"><ele>945.6666666666667</ele><time>2026-04-25T12:22:01.66Z</time></trkpt><trkpt lat="38.1440317" lon="15.7695667"><ele>948.0</ele><time>2026-04-25T12:22:02.66Z</time></trkpt><trkpt lat="38.1439283" lon="15.7694333"><ele>943.75</ele><time>2026-04-25T12:22:03.66Z</time></trkpt><trkpt lat="38.1438267" lon="15.769315"><ele>939.5</ele><time>2026-04-25T12:22:04.66Z</time></trkpt><trkpt lat="38.1437333" lon="15.7691983"><ele>935.25</ele><time>2026-04-25T12:22:05.661Z</time></trkpt><trkpt lat="38.1436483" lon="15.7690617"><ele>931.0</ele><time>2026-04-25T12:22:06.66Z</time></trkpt><trkpt lat="38.1435733" lon="15.76892"><ele>931.0</ele><time>2026-04-25T12:22:07.66Z</time></trkpt><trkpt lat="38.14353" lon="15.7687733"><ele>931.0</ele><time>2026-04-25T12:22:08.66Z</time></trkpt><trkpt lat="38.143495" lon="15.7686033"><ele>931.0</ele><time>2026-04-25T12:22:09.66Z</time></trkpt><trkpt lat="38.143465" lon="15.7684283"><ele>931.0</ele><time>2026-04-25T12:22:10.66Z</time></trkpt><trkpt lat="38.14342" lon="15.7682583"><ele>932.6666666666666</ele><time>2026-04-25T12:22:11.66Z</time></trkpt><trkpt lat="38.1433867" lon="15.7680767"><ele>934.3333333333333</ele><time>2026-04-25T12:22:12.66Z</time></trkpt><trkpt lat="38.143355" lon="15.76788"><ele>936.0</ele><time>2026-04-25T12:22:13.661Z</time></trkpt><trkpt lat="38.14332" lon="15.7676917"><ele>936.0</ele><time>2026-04-25T12:22:14.66Z</time></trkpt><trkpt lat="38.143305" lon="15.767505"><ele>936.0</ele><time>2026-04-25T12:22:15.661Z</time></trkpt><trkpt lat="38.1432967" lon="15.7673167"><ele>936.0</ele><time>2026-04-25T12:22:16.66Z</time></trkpt><trkpt lat="38.1432933" lon="15.7671417"><ele>936.0</ele><time>2026-04-25T12:22:17.66Z</time></trkpt><trkpt lat="38.1432767" lon="15.76697"><ele>935.1999999999999</ele><time>2026-04-25T12:22:18.66Z</time></trkpt><trkpt lat="38.14326" lon="15.7668183"><ele>934.3999999999999</ele><time>2026-04-25T12:22:19.66Z</time></trkpt><trkpt lat="38.14324" lon="15.7666767"><ele>933.6</ele><time>2026-04-25T12:22:20.66Z</time></trkpt><trkpt lat="38.1432317" lon="15.7665417"><ele>932.8</ele><time>2026-04-25T12:22:21.661Z</time></trkpt><trkpt lat="38.14322" lon="15.766425"><ele>932.0</ele><time>2026-04-25T12:22:22.66Z</time></trkpt><trkpt lat="38.1432167" lon="15.76632"><ele>932.0</ele><time>2026-04-25T12:22:23.66Z</time></trkpt><trkpt lat="38.143225" lon="15.7662267"><ele>932.0</ele><time>2026-04-25T12:22:24.66Z</time></trkpt><trkpt lat="38.1432383" lon="15.7661483"><ele>932.0</ele><time>2026-04-25T12:22:25.66Z</time></trkpt><trkpt lat="38.1432883" lon="15.7660183"><ele>932.0</ele><time>2026-04-25T12:22:27.66Z</time></trkpt><trkpt lat="38.1433333" lon="15.7658917"><ele>932.0</ele><time>2026-04-25T12:22:29.66Z</time></trkpt><trkpt lat="38.143375" lon="15.765755"><ele>932.0</ele><time>2026-04-25T12:22:31.661Z</time></trkpt><trkpt lat="38.143395" lon="15.765655"><ele>932.0</ele><time>2026-04-25T12:22:33.66Z</time></trkpt><trkpt lat="38.14342" lon="15.765775"><ele>932.0</ele><time>2026-04-25T12:22:45.66Z</time></trkpt><trkpt lat="38.1434083" lon="15.76592"><ele>932.0</ele><time>2026-04-25T12:22:47.66Z</time></trkpt><trkpt lat="38.1434117" lon="15.766"><ele>932.0</ele><time>2026-04-25T12:22:48.66Z</time></trkpt><trkpt lat="38.143455" lon="15.7661083"><ele>932.0</ele><time>2026-04-25T12:22:50.66Z</time></trkpt><trkpt lat="38.1435283" lon="15.766235"><ele>932.0</ele><time>2026-04-25T12:22:52.66Z</time></trkpt><trkpt lat="38.1436" lon="15.7663733"><ele>932.0</ele><time>2026-04-25T12:22:54.661Z</time></trkpt><trkpt lat="38.1436383" lon="15.7664567"><ele>932.0</ele><time>2026-04-25T12:22:55.66Z</time></trkpt><trkpt lat="38.143675" lon="15.766535"><ele>932.0</ele><time>2026-04-25T12:22:56.66Z</time></trkpt><trkpt lat="38.14371" lon="15.7666133"><ele>932.0000000000001</ele><time>2026-04-25T12:22:57.66Z</time></trkpt><trkpt lat="38.1437533" lon="15.7666883"><ele>932.0</ele><time>2026-04-25T12:22:58.661Z</time></trkpt><trkpt lat="38.14381" lon="15.76675"><ele>932.0</ele><time>2026-04-25T12:22:59.66Z</time></trkpt><trkpt lat="38.14386" lon="15.76681"><ele>932.0</ele><time>2026-04-25T12:23:00.66Z</time></trkpt><trkpt lat="38.1439533" lon="15.7669133"><ele>932.0000000000001</ele><time>2026-04-25T12:23:02.66Z</time></trkpt><trkpt lat="38.144015" lon="15.76696"><ele>932.0</ele><time>2026-04-25T12:23:03.66Z</time></trkpt><trkpt lat="38.1441267" lon="15.7669967"><ele>931.6</ele><time>2026-04-25T12:23:05.66Z</time></trkpt><trkpt lat="38.1442267" lon="15.766995"><ele>931.2</ele><time>2026-04-25T12:23:07.66Z</time></trkpt><trkpt lat="38.144345" lon="15.7670017"><ele>930.8</ele><time>2026-04-25T12:23:09.66Z</time></trkpt><trkpt lat="38.1444233" lon="15.7670233"><ele>930.4</ele><time>2026-04-25T12:23:10.66Z</time></trkpt><trkpt lat="38.1444983" lon="15.7670583"><ele>930.0</ele><time>2026-04-25T12:23:11.66Z</time></trkpt><trkpt lat="38.1445717" lon="15.7671067"><ele>930.0</ele><time>2026-04-25T12:23:12.661Z</time></trkpt><trkpt lat="38.1446433" lon="15.7671533"><ele>930.0</ele><time>2026-04-25T12:23:13.66Z</time></trkpt><trkpt lat="38.1447117" lon="15.767205"><ele>930.0</ele><time>2026-04-25T12:23:14.661Z</time></trkpt><trkpt lat="38.14478" lon="15.7672517"><ele>930.0</ele><time>2026-04-25T12:23:15.66Z</time></trkpt><trkpt lat="38.1448517" lon="15.7673"><ele>930.0</ele><time>2026-04-25T12:23:16.66Z</time></trkpt><trkpt lat="38.14493" lon="15.7673467"><ele>930.0</ele><time>2026-04-25T12:23:17.66Z</time></trkpt><trkpt lat="38.1450167" lon="15.7673933"><ele>927.5</ele><time>2026-04-25T12:23:18.66Z</time></trkpt><trkpt lat="38.14509" lon="15.76743"><ele>925.0</ele><time>2026-04-25T12:23:19.66Z</time></trkpt><trkpt lat="38.1451633" lon="15.7674667"><ele>922.5</ele><time>2026-04-25T12:23:20.66Z</time></trkpt><trkpt lat="38.145235" lon="15.7674933"><ele>920.0</ele><time>2026-04-25T12:23:21.66Z</time></trkpt><trkpt lat="38.1453" lon="15.7675133"><ele>917.5</ele><time>2026-04-25T12:23:22.66Z</time></trkpt><trkpt lat="38.1453983" lon="15.7675467"><ele>915.0</ele><time>2026-04-25T12:23:24.66Z</time></trkpt><trkpt lat="38.1454867" lon="15.7675983"><ele>915.0</ele><time>2026-04-25T12:23:26.66Z</time></trkpt><trkpt lat="38.1455867" lon="15.7676767"><ele>915.0</ele><time>2026-04-25T12:23:28.66Z</time></trkpt><trkpt lat="38.14566" lon="15.7677183"><ele>915.0</ele><time>2026-04-25T12:23:29.66Z</time></trkpt><trkpt lat="38.14573" lon="15.7677717"><ele>915.0</ele><time>2026-04-25T12:23:30.66Z</time></trkpt><trkpt lat="38.145795" lon="15.7678433"><ele>915.0</ele><time>2026-04-25T12:23:31.66Z</time></trkpt><trkpt lat="38.1458617" lon="15.767905"><ele>915.0</ele><time>2026-04-25T12:23:32.66Z</time></trkpt><trkpt lat="38.1459283" lon="15.767975"><ele>915.0</ele><time>2026-04-25T12:23:33.66Z</time></trkpt><trkpt lat="38.1459833" lon="15.7680383"><ele>915.0</ele><time>2026-04-25T12:23:34.66Z</time></trkpt><trkpt lat="38.1460333" lon="15.7681167"><ele>915.0</ele><time>2026-04-25T12:23:35.66Z</time></trkpt><trkpt lat="38.1460717" lon="15.768195"><ele>915.0</ele><time>2026-04-25T12:23:36.661Z</time></trkpt><trkpt lat="38.14611" lon="15.7682867"><ele>915.0</ele><time>2026-04-25T12:23:37.66Z</time></trkpt><trkpt lat="38.1461467" lon="15.7683883"><ele>915.0</ele><time>2026-04-25T12:23:38.661Z</time></trkpt><trkpt lat="38.1461767" lon="15.76849"><ele>915.0</ele><time>2026-04-25T12:23:39.661Z</time></trkpt><trkpt lat="38.1461967" lon="15.7686"><ele>915.0</ele><time>2026-04-25T12:23:40.66Z</time></trkpt><trkpt lat="38.1462167" lon="15.7687083"><ele>915.0</ele><time>2026-04-25T12:23:41.66Z</time></trkpt><trkpt lat="38.1462367" lon="15.76881"><ele>915.0</ele><time>2026-04-25T12:23:42.66Z</time></trkpt><trkpt lat="38.1462567" lon="15.7688917"><ele>915.0</ele><time>2026-04-25T12:23:43.66Z</time></trkpt><trkpt lat="38.1462967" lon="15.76904"><ele>915.0</ele><time>2026-04-25T12:23:45.66Z</time></trkpt><trkpt lat="38.1463317" lon="15.7691083"><ele>915.0</ele><time>2026-04-25T12:23:46.66Z</time></trkpt><trkpt lat="38.1464533" lon="15.76918"><ele>915.0</ele><time>2026-04-25T12:23:48.66Z</time></trkpt><trkpt lat="38.146535" lon="15.7691967"><ele>915.0</ele><time>2026-04-25T12:23:49.66Z</time></trkpt><trkpt lat="38.1466267" lon="15.7692167"><ele>915.0</ele><time>2026-04-25T12:23:50.66Z</time></trkpt><trkpt lat="38.1467183" lon="15.7692467"><ele>915.0</ele><time>2026-04-25T12:23:51.66Z</time></trkpt><trkpt lat="38.1467983" lon="15.7692917"><ele>911.8</ele><time>2026-04-25T12:23:52.661Z</time></trkpt><trkpt lat="38.146845" lon="15.7693467"><ele>908.6</ele><time>2026-04-25T12:23:53.661Z</time></trkpt><trkpt lat="38.146895" lon="15.76943"><ele>905.4000000000001</ele><time>2026-04-25T12:23:54.66Z</time></trkpt><trkpt lat="38.14695" lon="15.7695483"><ele>902.2</ele><time>2026-04-25T12:23:55.66Z</time></trkpt><trkpt lat="38.1470017" lon="15.76971"><ele>899.0</ele><time>2026-04-25T12:23:56.66Z</time></trkpt><trkpt lat="38.147065" lon="15.7698617"><ele>899.0</ele><time>2026-04-25T12:23:57.66Z</time></trkpt><trkpt lat="38.1471433" lon="15.769985"><ele>899.0000000000001</ele><time>2026-04-25T12:23:58.661Z</time></trkpt><trkpt lat="38.1472283" lon="15.770075"><ele>899.0000000000001</ele><time>2026-04-25T12:23:59.66Z</time></trkpt><trkpt lat="38.147315" lon="15.77013"><ele>899.0</ele><time>2026-04-25T12:24:00.66Z</time></trkpt><trkpt lat="38.1474033" lon="15.7701883"><ele>899.0</ele><time>2026-04-25T12:24:01.66Z</time></trkpt><trkpt lat="38.147485" lon="15.770265"><ele>896.2</ele><time>2026-04-25T12:24:02.66Z</time></trkpt><trkpt lat="38.147545" lon="15.7703417"><ele>893.4000000000001</ele><time>2026-04-25T12:24:03.66Z</time></trkpt><trkpt lat="38.1476017" lon="15.770445"><ele>890.6</ele><time>2026-04-25T12:24:04.66Z</time></trkpt><trkpt lat="38.1476667" lon="15.7705667"><ele>887.8</ele><time>2026-04-25T12:24:05.66Z</time></trkpt><trkpt lat="38.1477383" lon="15.770715"><ele>885.0</ele><time>2026-04-25T12:24:06.66Z</time></trkpt><trkpt lat="38.1478133" lon="15.77084"><ele>885.0</ele><time>2026-04-25T12:24:07.66Z</time></trkpt><trkpt lat="38.1478817" lon="15.7709417"><ele>885.0</ele><time>2026-04-25T12:24:08.66Z</time></trkpt><trkpt lat="38.1479367" lon="15.7710167"><ele>885.0</ele><time>2026-04-25T12:24:09.66Z</time></trkpt><trkpt lat="38.1479817" lon="15.7710767"><ele>885.0</ele><time>2026-04-25T12:24:10.66Z</time></trkpt><trkpt lat="38.14804" lon="15.771165"><ele>885.0</ele><time>2026-04-25T12:24:12.66Z</time></trkpt><trkpt lat="38.14813" lon="15.771235"><ele>885.0</ele><time>2026-04-25T12:24:14.66Z</time></trkpt><trkpt lat="38.1482483" lon="15.77127"><ele>884.6666666666666</ele><time>2026-04-25T12:24:16.661Z</time></trkpt><trkpt lat="38.1483267" lon="15.7712783"><ele>884.3333333333333</ele><time>2026-04-25T12:24:17.66Z</time></trkpt><trkpt lat="38.1484117" lon="15.7712783"><ele>884.0</ele><time>2026-04-25T12:24:18.66Z</time></trkpt><trkpt lat="38.148495" lon="15.7712717"><ele>883.6666666666666</ele><time>2026-04-25T12:24:19.66Z</time></trkpt><trkpt lat="38.1485767" lon="15.7712583"><ele>883.3333333333333</ele><time>2026-04-25T12:24:20.66Z</time></trkpt><trkpt lat="38.1486517" lon="15.7712383"><ele>883.0</ele><time>2026-04-25T12:24:21.66Z</time></trkpt><trkpt lat="38.1487217" lon="15.77119"><ele>882.9999999999999</ele><time>2026-04-25T12:24:22.66Z</time></trkpt><trkpt lat="38.1487983" lon="15.771125"><ele>883.0</ele><time>2026-04-25T12:24:23.66Z</time></trkpt><trkpt lat="38.1488667" lon="15.7710633"><ele>883.0</ele><time>2026-04-25T12:24:24.661Z</time></trkpt><trkpt lat="38.1489283" lon="15.771005"><ele>883.0</ele><time>2026-04-25T12:24:25.661Z</time></trkpt><trkpt lat="38.1489933" lon="15.770955"><ele>882.9999999999999</ele><time>2026-04-25T12:24:26.66Z</time></trkpt><trkpt lat="38.1490617" lon="15.770915"><ele>883.0</ele><time>2026-04-25T12:24:27.66Z</time></trkpt><trkpt lat="38.14913" lon="15.7708983"><ele>879.8333333333333</ele><time>2026-04-25T12:24:28.66Z</time></trkpt><trkpt lat="38.1492317" lon="15.7709167"><ele>876.6666666666666</ele><time>2026-04-25T12:24:30.66Z</time></trkpt><trkpt lat="38.1493083" lon="15.7709333"><ele>873.5</ele><time>2026-04-25T12:24:32.66Z</time></trkpt><trkpt lat="38.14937" lon="15.770915"><ele>870.3333333333333</ele><time>2026-04-25T12:24:35.66Z</time></trkpt><trkpt lat="38.149455" lon="15.770895"><ele>867.1666666666666</ele><time>2026-04-25T12:24:38.66Z</time></trkpt><trkpt lat="38.1495117" lon="15.7708567"><ele>864.0</ele><time>2026-04-25T12:24:53.66Z</time></trkpt><trkpt lat="38.1495633" lon="15.770755"><ele>864.0</ele><time>2026-04-25T12:24:56.66Z</time></trkpt><trkpt lat="38.149605" lon="15.7706883"><ele>864.0</ele><time>2026-04-25T12:24:58.661Z</time></trkpt><trkpt lat="38.14965" lon="15.7706067"><ele>864.0</ele><time>2026-04-25T12:25:00.66Z</time></trkpt><trkpt lat="38.1497233" lon="15.7704733"><ele>864.0</ele><time>2026-04-25T12:25:14.66Z</time></trkpt><trkpt lat="38.1497767" lon="15.7704217"><ele>864.0</ele><time>2026-04-25T12:25:16.66Z</time></trkpt><trkpt lat="38.1498383" lon="15.7703583"><ele>864.0</ele><time>2026-04-25T12:25:18.66Z</time></trkpt><trkpt lat="38.1499067" lon="15.770285"><ele>861.8000000000001</ele><time>2026-04-25T12:25:20.661Z</time></trkpt><trkpt lat="38.1499733" lon="15.7701883"><ele>859.6000000000001</ele><time>2026-04-25T12:25:22.66Z</time></trkpt><trkpt lat="38.150035" lon="15.77009"><ele>857.4</ele><time>2026-04-25T12:25:24.66Z</time></trkpt><trkpt lat="38.1501133" lon="15.7699667"><ele>855.2</ele><time>2026-04-25T12:25:26.66Z</time></trkpt><trkpt lat="38.1501517" lon="15.7698917"><ele>853.0</ele><time>2026-04-25T12:25:27.66Z</time></trkpt><trkpt lat="38.1501883" lon="15.7698167"><ele>852.9999999999999</ele><time>2026-04-25T12:25:28.661Z</time></trkpt><trkpt lat="38.1502233" lon="15.7697433"><ele>853.0</ele><time>2026-04-25T12:25:29.66Z</time></trkpt><trkpt lat="38.1502617" lon="15.76967"><ele>853.0</ele><time>2026-04-25T12:25:30.66Z</time></trkpt><trkpt lat="38.1503" lon="15.7695983"><ele>853.0</ele><time>2026-04-25T12:25:31.66Z</time></trkpt><trkpt lat="38.1503483" lon="15.7695117"><ele>852.9999999999999</ele><time>2026-04-25T12:25:32.66Z</time></trkpt><trkpt lat="38.1503983" lon="15.76942"><ele>853.0</ele><time>2026-04-25T12:25:33.66Z</time></trkpt><trkpt lat="38.1504467" lon="15.7693183"><ele>847.75</ele><time>2026-04-25T12:25:34.66Z</time></trkpt><trkpt lat="38.1504967" lon="15.7692117"><ele>842.5</ele><time>2026-04-25T12:25:35.66Z</time></trkpt><trkpt lat="38.150555" lon="15.7690867"><ele>837.25</ele><time>2026-04-25T12:25:36.66Z</time></trkpt><trkpt lat="38.1506233" lon="15.7689367"><ele>832.0</ele><time>2026-04-25T12:25:37.66Z</time></trkpt><trkpt lat="38.1506867" lon="15.768775"><ele>832.6</ele><time>2026-04-25T12:25:38.66Z</time></trkpt><trkpt lat="38.15074" lon="15.7686417"><ele>833.2</ele><time>2026-04-25T12:25:39.66Z</time></trkpt><trkpt lat="38.1507817" lon="15.76853"><ele>833.8</ele><time>2026-04-25T12:25:40.661Z</time></trkpt><trkpt lat="38.1508067" lon="15.7684333"><ele>834.4</ele><time>2026-04-25T12:25:41.66Z</time></trkpt><trkpt lat="38.1507617" lon="15.7683767"><ele>835.0</ele><time>2026-04-25T12:25:44.66Z</time></trkpt><trkpt lat="38.150695" lon="15.7684867"><ele>834.4999999999999</ele><time>2026-04-25T12:25:46.66Z</time></trkpt><trkpt lat="38.1506567" lon="15.7685683"><ele>834.0</ele><time>2026-04-25T12:25:47.66Z</time></trkpt><trkpt lat="38.150605" lon="15.7686583"><ele>833.5</ele><time>2026-04-25T12:25:48.66Z</time></trkpt><trkpt lat="38.15055" lon="15.7687117"><ele>833.0</ele><time>2026-04-25T12:25:50.66Z</time></trkpt><trkpt lat="38.150515" lon="15.768635"><ele>832.4999999999999</ele><time>2026-04-25T12:25:54.66Z</time></trkpt><trkpt lat="38.1505783" lon="15.768495"><ele>832.0</ele><time>2026-04-25T12:25:56.661Z</time></trkpt><trkpt lat="38.1506167" lon="15.7684033"><ele>829.4000000000001</ele><time>2026-04-25T12:25:57.66Z</time></trkpt><trkpt lat="38.1506617" lon="15.7682883"><ele>826.8000000000001</ele><time>2026-04-25T12:25:58.66Z</time></trkpt><trkpt lat="38.1507183" lon="15.76816"><ele>824.2</ele><time>2026-04-25T12:25:59.66Z</time></trkpt><trkpt lat="38.1507717" lon="15.768025"><ele>821.6</ele><time>2026-04-25T12:26:00.66Z</time></trkpt><trkpt lat="38.150825" lon="15.7679267"><ele>819.0</ele><time>2026-04-25T12:26:01.66Z</time></trkpt><trkpt lat="38.1508867" lon="15.7678533"><ele>819.0</ele><time>2026-04-25T12:26:02.661Z</time></trkpt><trkpt lat="38.15096" lon="15.76779"><ele>819.0</ele><time>2026-04-25T12:26:03.66Z</time></trkpt><trkpt lat="38.1510283" lon="15.767755"><ele>819.0</ele><time>2026-04-25T12:26:04.66Z</time></trkpt><trkpt lat="38.151095" lon="15.7677067"><ele>819.0</ele><time>2026-04-25T12:26:05.66Z</time></trkpt><trkpt lat="38.1511967" lon="15.7677083"><ele>819.0</ele><time>2026-04-25T12:26:07.66Z</time></trkpt><trkpt lat="38.15126" lon="15.7677867"><ele>819.0</ele><time>2026-04-25T12:26:09.66Z</time></trkpt><trkpt lat="38.1512967" lon="15.767945"><ele>819.0</ele><time>2026-04-25T12:26:11.66Z</time></trkpt><trkpt lat="38.1513083" lon="15.7680633"><ele>819.0</ele><time>2026-04-25T12:26:12.661Z</time></trkpt><trkpt lat="38.1513183" lon="15.76817"><ele>819.0</ele><time>2026-04-25T12:26:13.661Z</time></trkpt><trkpt lat="38.1513233" lon="15.768265"><ele>819.0</ele><time>2026-04-25T12:26:14.661Z</time></trkpt><trkpt lat="38.15138" lon="15.7683567"><ele>819.0</ele><time>2026-04-25T12:26:16.661Z</time></trkpt><trkpt lat="38.151435" lon="15.7682983"><ele>819.0</ele><time>2026-04-25T12:26:19.66Z</time></trkpt><trkpt lat="38.1514183" lon="15.76819"><ele>819.0</ele><time>2026-04-25T12:26:21.66Z</time></trkpt><trkpt lat="38.1514" lon="15.7680433"><ele>819.0</ele><time>2026-04-25T12:26:23.66Z</time></trkpt><trkpt lat="38.1514167" lon="15.7679583"><ele>819.0</ele><time>2026-04-25T12:26:24.66Z</time></trkpt><trkpt lat="38.1514583" lon="15.7678467"><ele>819.0</ele><time>2026-04-25T12:26:25.66Z</time></trkpt><trkpt lat="38.151515" lon="15.7677117"><ele>819.0</ele><time>2026-04-25T12:26:26.66Z</time></trkpt><trkpt lat="38.1515717" lon="15.7675767"><ele>814.8000000000001</ele><time>2026-04-25T12:26:27.66Z</time></trkpt><trkpt lat="38.1516317" lon="15.7674517"><ele>810.6</ele><time>2026-04-25T12:26:28.661Z</time></trkpt><trkpt lat="38.151695" lon="15.7673267"><ele>806.4</ele><time>2026-04-25T12:26:29.66Z</time></trkpt><trkpt lat="38.1517467" lon="15.7672283"><ele>802.2</ele><time>2026-04-25T12:26:30.66Z</time></trkpt><trkpt lat="38.1517883" lon="15.7671617"><ele>798.0</ele><time>2026-04-25T12:26:31.661Z</time></trkpt><trkpt lat="38.1518133" lon="15.767035"><ele>798.0</ele><time>2026-04-25T12:26:33.66Z</time></trkpt><trkpt lat="38.1517833" lon="15.7669317"><ele>798.0</ele><time>2026-04-25T12:26:35.66Z</time></trkpt><trkpt lat="38.15174" lon="15.76682"><ele>798.0</ele><time>2026-04-25T12:26:37.66Z</time></trkpt><trkpt lat="38.15177" lon="15.7667417"><ele>798.0</ele><time>2026-04-25T12:26:40.661Z</time></trkpt><trkpt lat="38.15185" lon="15.76678"><ele>798.0</ele><time>2026-04-25T12:26:42.66Z</time></trkpt><trkpt lat="38.15191" lon="15.7668633"><ele>798.0</ele><time>2026-04-25T12:26:44.66Z</time></trkpt><trkpt lat="38.151935" lon="15.7669767"><ele>798.0</ele><time>2026-04-25T12:26:46.661Z</time></trkpt><trkpt lat="38.15198" lon="15.7670367"><ele>798.0</ele><time>2026-04-25T12:26:48.66Z</time></trkpt><trkpt lat="38.1520167" lon="15.7669333"><ele>798.0</ele><time>2026-04-25T12:26:52.66Z</time></trkpt><trkpt lat="38.15201" lon="15.7668467"><ele>798.0</ele><time>2026-04-25T12:26:53.66Z</time></trkpt><trkpt lat="38.1519933" lon="15.7667333"><ele>798.0</ele><time>2026-04-25T12:26:54.66Z</time></trkpt><trkpt lat="38.1519817" lon="15.76663"><ele>798.0</ele><time>2026-04-25T12:26:55.66Z</time></trkpt><trkpt lat="38.1519533" lon="15.76651"><ele>795.0</ele><time>2026-04-25T12:26:57.66Z</time></trkpt><trkpt lat="38.1519" lon="15.7664667"><ele>792.0</ele><time>2026-04-25T12:27:01.66Z</time></trkpt><trkpt lat="38.151825" lon="15.7665133"><ele>789.0</ele><time>2026-04-25T12:27:04.66Z</time></trkpt><trkpt lat="38.1517517" lon="15.7665567"><ele>786.0</ele><time>2026-04-25T12:27:06.66Z</time></trkpt><trkpt lat="38.1516933" lon="15.7666117"><ele>783.0</ele><time>2026-04-25T12:27:08.66Z</time></trkpt><trkpt lat="38.1516267" lon="15.7666583"><ele>780.0</ele><time>2026-04-25T12:27:10.661Z</time></trkpt><trkpt lat="38.1515367" lon="15.7667233"><ele>777.8</ele><time>2026-04-25T12:27:12.661Z</time></trkpt><trkpt lat="38.1514517" lon="15.7668"><ele>775.6</ele><time>2026-04-25T12:27:14.66Z</time></trkpt><trkpt lat="38.1513933" lon="15.7668567"><ele>773.4000000000001</ele><time>2026-04-25T12:27:16.661Z</time></trkpt><trkpt lat="38.151315" lon="15.7669667"><ele>771.2</ele><time>2026-04-25T12:28:09.66Z</time></trkpt><trkpt lat="38.151245" lon="15.7670267"><ele>769.0</ele><time>2026-04-25T12:28:11.66Z</time></trkpt><trkpt lat="38.1511333" lon="15.7671"><ele>772.9999999999999</ele><time>2026-04-25T12:28:13.66Z</time></trkpt><trkpt lat="38.1510583" lon="15.76712"><ele>777.0</ele><time>2026-04-25T12:28:14.66Z</time></trkpt><trkpt lat="38.1509767" lon="15.7671417"><ele>781.0</ele><time>2026-04-25T12:28:15.66Z</time></trkpt><trkpt lat="38.1509" lon="15.76717"><ele>785.0</ele><time>2026-04-25T12:28:16.66Z</time></trkpt><trkpt lat="38.1508367" lon="15.7672267"><ele>788.9999999999999</ele><time>2026-04-25T12:28:17.66Z</time></trkpt><trkpt lat="38.1507733" lon="15.7672817"><ele>793.0</ele><time>2026-04-25T12:28:18.66Z</time></trkpt><trkpt lat="38.1507167" lon="15.76733"><ele>789.2</ele><time>2026-04-25T12:28:19.66Z</time></trkpt><trkpt lat="38.1506283" lon="15.767425"><ele>785.4</ele><time>2026-04-25T12:28:21.66Z</time></trkpt><trkpt lat="38.15052" lon="15.767505"><ele>781.6</ele><time>2026-04-25T12:28:23.66Z</time></trkpt><trkpt lat="38.1504433" lon="15.7675467"><ele>777.8000000000001</ele><time>2026-04-25T12:28:24.66Z</time></trkpt><trkpt lat="38.150365" lon="15.767585"><ele>774.0</ele><time>2026-04-25T12:28:25.661Z</time></trkpt><trkpt lat="38.1502817" lon="15.767625"><ele>774.0</ele><time>2026-04-25T12:28:26.66Z</time></trkpt><trkpt lat="38.1502033" lon="15.7676533"><ele>774.0</ele><time>2026-04-25T12:28:27.66Z</time></trkpt><trkpt lat="38.15011" lon="15.767685"><ele>774.0</ele><time>2026-04-25T12:28:29.66Z</time></trkpt><trkpt lat="38.15008" lon="15.7677883"><ele>774.0</ele><time>2026-04-25T12:28:33.66Z</time></trkpt><trkpt lat="38.150065" lon="15.7678933"><ele>774.0</ele><time>2026-04-25T12:28:36.66Z</time></trkpt><trkpt lat="38.1500033" lon="15.767855"><ele>774.0</ele><time>2026-04-25T12:28:41.66Z</time></trkpt><trkpt lat="38.1499583" lon="15.7677767"><ele>774.0</ele><time>2026-04-25T12:28:43.661Z</time></trkpt><trkpt lat="38.1499217" lon="15.7677017"><ele>774.0</ele><time>2026-04-25T12:28:45.66Z</time></trkpt><trkpt lat="38.14989" lon="15.7676233"><ele>774.0</ele><time>2026-04-25T12:28:47.661Z</time></trkpt><trkpt lat="38.1498583" lon="15.7675217"><ele>774.0</ele><time>2026-04-25T12:28:49.661Z</time></trkpt><trkpt lat="38.1498467" lon="15.7674217"><ele>774.0</ele><time>2026-04-25T12:28:51.66Z</time></trkpt><trkpt lat="38.1498717" lon="15.767345"><ele>774.0</ele><time>2026-04-25T12:28:53.66Z</time></trkpt><trkpt lat="38.1499217" lon="15.7672783"><ele>774.0</ele><time>2026-04-25T12:28:55.661Z</time></trkpt><trkpt lat="38.1499383" lon="15.7671933"><ele>777.0</ele><time>2026-04-25T12:28:59.66Z</time></trkpt><trkpt lat="38.14985" lon="15.7672217"><ele>780.0</ele><time>2026-04-25T12:29:04.66Z</time></trkpt><trkpt lat="38.149775" lon="15.767265"><ele>783.0</ele><time>2026-04-25T12:29:06.661Z</time></trkpt><trkpt lat="38.1497467" lon="15.7673367"><ele>786.0</ele><time>2026-04-25T12:29:09.66Z</time></trkpt><trkpt lat="38.1496967" lon="15.7672367"><ele>789.0</ele><time>2026-04-25T12:29:19.66Z</time></trkpt><trkpt lat="38.1496517" lon="15.7671783"><ele>792.0</ele><time>2026-04-25T12:29:20.66Z</time></trkpt><trkpt lat="38.149605" lon="15.7671233"><ele>792.0</ele><time>2026-04-25T12:29:21.66Z</time></trkpt><trkpt lat="38.149555" lon="15.7670533"><ele>792.0</ele><time>2026-04-25T12:29:22.66Z</time></trkpt><trkpt lat="38.14951" lon="15.7669867"><ele>792.0</ele><time>2026-04-25T12:29:23.66Z</time></trkpt><trkpt lat="38.1494633" lon="15.7669133"><ele>792.0</ele><time>2026-04-25T12:29:24.66Z</time></trkpt><trkpt lat="38.1494217" lon="15.7668383"><ele>792.0</ele><time>2026-04-25T12:29:25.661Z</time></trkpt><trkpt lat="38.14938" lon="15.76675"><ele>792.0</ele><time>2026-04-25T12:29:26.66Z</time></trkpt><trkpt lat="38.1493333" lon="15.7666617"><ele>787.3333333333334</ele><time>2026-04-25T12:29:27.66Z</time></trkpt><trkpt lat="38.1492867" lon="15.7665633"><ele>782.6666666666666</ele><time>2026-04-25T12:29:28.66Z</time></trkpt><trkpt lat="38.14924" lon="15.7664667"><ele>778.0</ele><time>2026-04-25T12:29:29.66Z</time></trkpt><trkpt lat="38.1492017" lon="15.7663733"><ele>773.3333333333333</ele><time>2026-04-25T12:29:30.66Z</time></trkpt><trkpt lat="38.1491667" lon="15.7662917"><ele>768.6666666666666</ele><time>2026-04-25T12:29:31.66Z</time></trkpt><trkpt lat="38.1491317" lon="15.7662183"><ele>764.0</ele><time>2026-04-25T12:29:32.66Z</time></trkpt><trkpt lat="38.1490583" lon="15.7661033"><ele>766.8333333333333</ele><time>2026-04-25T12:29:34.66Z</time></trkpt><trkpt lat="38.1490033" lon="15.7659767"><ele>769.6666666666666</ele><time>2026-04-25T12:29:36.66Z</time></trkpt><trkpt lat="38.1489717" lon="15.7659067"><ele>772.5</ele><time>2026-04-25T12:29:37.66Z</time></trkpt><trkpt lat="38.148935" lon="15.76582"><ele>775.3333333333333</ele><time>2026-04-25T12:29:38.66Z</time></trkpt><trkpt lat="38.148905" lon="15.7657383"><ele>778.1666666666666</ele><time>2026-04-25T12:29:39.66Z</time></trkpt><trkpt lat="38.14888" lon="15.765655"><ele>781.0</ele><time>2026-04-25T12:29:40.66Z</time></trkpt><trkpt lat="38.1488667" lon="15.7655633"><ele>781.0</ele><time>2026-04-25T12:29:41.66Z</time></trkpt><trkpt lat="38.1488567" lon="15.7654717"><ele>781.0</ele><time>2026-04-25T12:29:42.661Z</time></trkpt><trkpt lat="38.1488733" lon="15.7653233"><ele>781.0</ele><time>2026-04-25T12:29:44.66Z</time></trkpt><trkpt lat="38.148935" lon="15.765175"><ele>781.0</ele><time>2026-04-25T12:29:46.66Z</time></trkpt><trkpt lat="38.14897" lon="15.765085"><ele>781.0</ele><time>2026-04-25T12:29:47.661Z</time></trkpt><trkpt lat="38.149005" lon="15.7649933"><ele>776.1666666666666</ele><time>2026-04-25T12:29:48.66Z</time></trkpt><trkpt lat="38.1490283" lon="15.7649017"><ele>771.3333333333333</ele><time>2026-04-25T12:29:49.661Z</time></trkpt><trkpt lat="38.14905" lon="15.7648067"><ele>766.5</ele><time>2026-04-25T12:29:50.66Z</time></trkpt><trkpt lat="38.1490717" lon="15.76472"><ele>761.6666666666666</ele><time>2026-04-25T12:29:51.661Z</time></trkpt><trkpt lat="38.149095" lon="15.764635"><ele>756.8333333333333</ele><time>2026-04-25T12:29:52.66Z</time></trkpt><trkpt lat="38.14912" lon="15.7645567"><ele>752.0</ele><time>2026-04-25T12:29:53.661Z</time></trkpt><trkpt lat="38.149205" lon="15.7644333"><ele>744.8</ele><time>2026-04-25T12:29:55.66Z</time></trkpt><trkpt lat="38.149305" lon="15.76436"><ele>737.6</ele><time>2026-04-25T12:29:57.66Z</time></trkpt><trkpt lat="38.1494083" lon="15.7643217"><ele>730.4</ele><time>2026-04-25T12:29:59.66Z</time></trkpt><trkpt lat="38.1495183" lon="15.7643083"><ele>723.1999999999999</ele><time>2026-04-25T12:30:01.66Z</time></trkpt><trkpt lat="38.1495967" lon="15.7642917"><ele>716.0</ele><time>2026-04-25T12:30:03.66Z</time></trkpt><trkpt lat="38.1496433" lon="15.7641933"><ele>716.0</ele><time>2026-04-25T12:30:06.66Z</time></trkpt><trkpt lat="38.1496517" lon="15.7640383"><ele>716.0</ele><time>2026-04-25T12:30:08.66Z</time></trkpt><trkpt lat="38.1496533" lon="15.7639517"><ele>716.0</ele><time>2026-04-25T12:30:09.66Z</time></trkpt><trkpt lat="38.149655" lon="15.7638017"><ele>716.0</ele><time>2026-04-25T12:30:11.66Z</time></trkpt><trkpt lat="38.1496533" lon="15.7636883"><ele>716.0</ele><time>2026-04-25T12:30:13.66Z</time></trkpt><trkpt lat="38.1496167" lon="15.7636167"><ele>716.0</ele><time>2026-04-25T12:30:16.66Z</time></trkpt><trkpt lat="38.149555" lon="15.76364"><ele>716.0</ele><time>2026-04-25T12:30:18.66Z</time></trkpt><trkpt lat="38.1494917" lon="15.763695"><ele>716.0</ele><time>2026-04-25T12:30:20.66Z</time></trkpt><trkpt lat="38.14939" lon="15.7637567"><ele>716.0</ele><time>2026-04-25T12:30:22.66Z</time></trkpt><trkpt lat="38.149325" lon="15.7637833"><ele>716.0</ele><time>2026-04-25T12:30:23.66Z</time></trkpt><trkpt lat="38.1492183" lon="15.7638433"><ele>716.0</ele><time>2026-04-25T12:30:25.66Z</time></trkpt><trkpt lat="38.1491267" lon="15.76394"><ele>716.0</ele><time>2026-04-25T12:30:27.66Z</time></trkpt><trkpt lat="38.1490767" lon="15.7640067"><ele>716.0</ele><time>2026-04-25T12:30:28.66Z</time></trkpt><trkpt lat="38.1490317" lon="15.7640683"><ele>716.0</ele><time>2026-04-25T12:30:29.66Z</time></trkpt><trkpt lat="38.14896" lon="15.7641667"><ele>716.0</ele><time>2026-04-25T12:30:31.66Z</time></trkpt><trkpt lat="38.14887" lon="15.7642433"><ele>716.0</ele><time>2026-04-25T12:30:33.66Z</time></trkpt><trkpt lat="38.1487517" lon="15.7643117"><ele>719.2857142857143</ele><time>2026-04-25T12:30:35.66Z</time></trkpt><trkpt lat="38.1486867" lon="15.7643567"><ele>722.5714285714286</ele><time>2026-04-25T12:30:36.661Z</time></trkpt><trkpt lat="38.148625" lon="15.7643833"><ele>725.8571428571429</ele><time>2026-04-25T12:30:37.66Z</time></trkpt><trkpt lat="38.148555" lon="15.764405"><ele>729.1428571428571</ele><time>2026-04-25T12:30:39.66Z</time></trkpt><trkpt lat="38.1485583" lon="15.76431"><ele>732.4285714285714</ele><time>2026-04-25T12:30:43.66Z</time></trkpt><trkpt lat="38.14858" lon="15.76419"><ele>735.7142857142858</ele><time>2026-04-25T12:30:45.66Z</time></trkpt><trkpt lat="38.1485967" lon="15.76411"><ele>739.0</ele><time>2026-04-25T12:30:46.66Z</time></trkpt><trkpt lat="38.148595" lon="15.7640283"><ele>739.0</ele><time>2026-04-25T12:30:47.66Z</time></trkpt><trkpt lat="38.1485717" lon="15.763905"><ele>739.0</ele><time>2026-04-25T12:30:49.66Z</time></trkpt><trkpt lat="38.1485" lon="15.763835"><ele>739.0</ele><time>2026-04-25T12:30:51.66Z</time></trkpt><trkpt lat="38.1484083" lon="15.7637817"><ele>739.0</ele><time>2026-04-25T12:30:53.661Z</time></trkpt><trkpt lat="38.14832" lon="15.7637167"><ele>739.0</ele><time>2026-04-25T12:30:55.66Z</time></trkpt><trkpt lat="38.1482933" lon="15.7636433"><ele>739.0</ele><time>2026-04-25T12:30:57.66Z</time></trkpt><trkpt lat="38.148365" lon="15.7635817"><ele>739.0</ele><time>2026-04-25T12:30:59.66Z</time></trkpt><trkpt lat="38.14843" lon="15.76354"><ele>739.0</ele><time>2026-04-25T12:31:00.66Z</time></trkpt><trkpt lat="38.1485" lon="15.7634867"><ele>739.0</ele><time>2026-04-25T12:31:01.661Z</time></trkpt><trkpt lat="38.14857" lon="15.7634167"><ele>739.0</ele><time>2026-04-25T12:31:02.66Z</time></trkpt><trkpt lat="38.148625" lon="15.7633317"><ele>739.0</ele><time>2026-04-25T12:31:03.66Z</time></trkpt><trkpt lat="38.148675" lon="15.7632633"><ele>740.6</ele><time>2026-04-25T12:31:04.661Z</time></trkpt><trkpt lat="38.1487133" lon="15.7631933"><ele>742.2</ele><time>2026-04-25T12:31:05.66Z</time></trkpt><trkpt lat="38.1487517" lon="15.7630517"><ele>743.8000000000001</ele><time>2026-04-25T12:31:07.66Z</time></trkpt><trkpt lat="38.14876" lon="15.762905"><ele>745.4000000000001</ele><time>2026-04-25T12:31:09.66Z</time></trkpt><trkpt lat="38.1487433" lon="15.7628233"><ele>747.0</ele><time>2026-04-25T12:31:10.66Z</time></trkpt><trkpt lat="38.1486967" lon="15.76268"><ele>750.6</ele><time>2026-04-25T12:31:12.66Z</time></trkpt><trkpt lat="38.14869" lon="15.7625683"><ele>754.2</ele><time>2026-04-25T12:31:14.66Z</time></trkpt><trkpt lat="38.1487083" lon="15.76243"><ele>757.8</ele><time>2026-04-25T12:31:16.66Z</time></trkpt><trkpt lat="38.1487217" lon="15.7623433"><ele>761.4</ele><time>2026-04-25T12:31:17.66Z</time></trkpt><trkpt lat="38.1487367" lon="15.7622617"><ele>765.0</ele><time>2026-04-25T12:31:18.66Z</time></trkpt><trkpt lat="38.1487817" lon="15.7621217"><ele>765.0</ele><time>2026-04-25T12:31:20.66Z</time></trkpt><trkpt lat="38.1488217" lon="15.7620567"><ele>765.0</ele><time>2026-04-25T12:31:21.66Z</time></trkpt><trkpt lat="38.148885" lon="15.76199"><ele>765.0</ele><time>2026-04-25T12:31:22.66Z</time></trkpt><trkpt lat="38.14896" lon="15.7619133"><ele>765.0</ele><time>2026-04-25T12:31:23.66Z</time></trkpt><trkpt lat="38.14904" lon="15.7618317"><ele>765.0</ele><time>2026-04-25T12:31:24.66Z</time></trkpt><trkpt lat="38.1491167" lon="15.7617633"><ele>765.0</ele><time>2026-04-25T12:31:25.661Z</time></trkpt><trkpt lat="38.1491933" lon="15.7617117"><ele>760.6</ele><time>2026-04-25T12:31:26.661Z</time></trkpt><trkpt lat="38.149265" lon="15.7616933"><ele>756.2</ele><time>2026-04-25T12:31:27.66Z</time></trkpt><trkpt lat="38.1493583" lon="15.76163"><ele>751.8</ele><time>2026-04-25T12:31:29.66Z</time></trkpt><trkpt lat="38.14938" lon="15.761525"><ele>747.4</ele><time>2026-04-25T12:31:31.66Z</time></trkpt><trkpt lat="38.149345" lon="15.7613917"><ele>743.0</ele><time>2026-04-25T12:31:33.66Z</time></trkpt><trkpt lat="38.1492983" lon="15.76131"><ele>743.0</ele><time>2026-04-25T12:31:34.66Z</time></trkpt><trkpt lat="38.1492567" lon="15.76117"><ele>743.0</ele><time>2026-04-25T12:31:36.66Z</time></trkpt><trkpt lat="38.1492733" lon="15.7610833"><ele>743.0</ele><time>2026-04-25T12:31:37.66Z</time></trkpt><trkpt lat="38.1492817" lon="15.7610017"><ele>743.0</ele><time>2026-04-25T12:31:38.661Z</time></trkpt><trkpt lat="38.14928" lon="15.7608767"><ele>743.0</ele><time>2026-04-25T12:31:40.66Z</time></trkpt><trkpt lat="38.1492167" lon="15.7608233"><ele>743.0</ele><time>2026-04-25T12:31:42.66Z</time></trkpt><trkpt lat="38.149105" lon="15.7608"><ele>745.75</ele><time>2026-04-25T12:31:44.66Z</time></trkpt><trkpt lat="38.1490017" lon="15.760745"><ele>748.5</ele><time>2026-04-25T12:31:46.66Z</time></trkpt><trkpt lat="38.14891" lon="15.7606233"><ele>751.25</ele><time>2026-04-25T12:31:48.66Z</time></trkpt><trkpt lat="38.1488317" lon="15.760535"><ele>754.0</ele><time>2026-04-25T12:31:50.66Z</time></trkpt><trkpt lat="38.1487117" lon="15.760485"><ele>754.0</ele><time>2026-04-25T12:31:52.66Z</time></trkpt><trkpt lat="38.1486283" lon="15.7604667"><ele>754.0</ele><time>2026-04-25T12:31:53.661Z</time></trkpt><trkpt lat="38.148535" lon="15.7604583"><ele>754.0</ele><time>2026-04-25T12:31:54.66Z</time></trkpt><trkpt lat="38.148455" lon="15.7604517"><ele>754.0</ele><time>2026-04-25T12:31:55.66Z</time></trkpt><trkpt lat="38.14839" lon="15.7604383"><ele>754.0</ele><time>2026-04-25T12:31:56.66Z</time></trkpt><trkpt lat="38.148285" lon="15.7603967"><ele>754.0</ele><time>2026-04-25T12:31:58.66Z</time></trkpt><trkpt lat="38.14821" lon="15.7603083"><ele>749.5</ele><time>2026-04-25T12:32:00.66Z</time></trkpt><trkpt lat="38.1481383" lon="15.760185"><ele>745.0</ele><time>2026-04-25T12:32:02.66Z</time></trkpt><trkpt lat="38.1480683" lon="15.7600917"><ele>740.5</ele><time>2026-04-25T12:32:04.66Z</time></trkpt><trkpt lat="38.1480283" lon="15.760025"><ele>736.0</ele><time>2026-04-25T12:32:05.66Z</time></trkpt><trkpt lat="38.1479917" lon="15.7599517"><ele>731.5</ele><time>2026-04-25T12:32:06.66Z</time></trkpt><trkpt lat="38.1479617" lon="15.7598733"><ele>727.0</ele><time>2026-04-25T12:32:07.66Z</time></trkpt><trkpt lat="38.14793" lon="15.7597767"><ele>727.0</ele><time>2026-04-25T12:32:09.66Z</time></trkpt><trkpt lat="38.1478583" lon="15.7597533"><ele>727.0</ele><time>2026-04-25T12:32:11.66Z</time></trkpt><trkpt lat="38.1477917" lon="15.7597633"><ele>727.0</ele><time>2026-04-25T12:32:12.66Z</time></trkpt><trkpt lat="38.1477117" lon="15.7597817"><ele>727.0</ele><time>2026-04-25T12:32:13.66Z</time></trkpt><trkpt lat="38.1476317" lon="15.7598083"><ele>727.0</ele><time>2026-04-25T12:32:14.66Z</time></trkpt><trkpt lat="38.147565" lon="15.7598333"><ele>727.0</ele><time>2026-04-25T12:32:15.66Z</time></trkpt><trkpt lat="38.1474583" lon="15.759845"><ele>727.4000000000001</ele><time>2026-04-25T12:32:17.66Z</time></trkpt><trkpt lat="38.1473683" lon="15.7597983"><ele>727.8000000000001</ele><time>2026-04-25T12:32:19.66Z</time></trkpt><trkpt lat="38.1472783" lon="15.7597417"><ele>728.2</ele><time>2026-04-25T12:32:21.66Z</time></trkpt><trkpt lat="38.14718" lon="15.7597467"><ele>728.6</ele><time>2026-04-25T12:32:23.661Z</time></trkpt><trkpt lat="38.1471167" lon="15.7597667"><ele>729.0</ele><time>2026-04-25T12:32:24.661Z</time></trkpt><trkpt lat="38.1470067" lon="15.7598133"><ele>729.0</ele><time>2026-04-25T12:32:26.66Z</time></trkpt><trkpt lat="38.1469" lon="15.75985"><ele>729.0</ele><time>2026-04-25T12:32:28.66Z</time></trkpt><trkpt lat="38.1468233" lon="15.7599267"><ele>729.0</ele><time>2026-04-25T12:32:30.66Z</time></trkpt><trkpt lat="38.1467567" lon="15.7600283"><ele>729.0</ele><time>2026-04-25T12:32:32.661Z</time></trkpt><trkpt lat="38.1466817" lon="15.7601167"><ele>729.0</ele><time>2026-04-25T12:32:34.66Z</time></trkpt><trkpt lat="38.1466367" lon="15.7601817"><ele>729.0</ele><time>2026-04-25T12:32:36.66Z</time></trkpt><trkpt lat="38.1465717" lon="15.7601467"><ele>729.0</ele><time>2026-04-25T12:32:40.66Z</time></trkpt><trkpt lat="38.146555" lon="15.7600683"><ele>729.0</ele><time>2026-04-25T12:32:42.66Z</time></trkpt><trkpt lat="38.1465417" lon="15.759955"><ele>729.0</ele><time>2026-04-25T12:32:44.66Z</time></trkpt><trkpt lat="38.1465333" lon="15.7598683"><ele>729.0</ele><time>2026-04-25T12:32:46.66Z</time></trkpt><trkpt lat="38.14653" lon="15.759745"><ele>729.0</ele><time>2026-04-25T12:32:49.66Z</time></trkpt><trkpt lat="38.1465117" lon="15.7595967"><ele>728.0</ele><time>2026-04-25T12:32:51.66Z</time></trkpt><trkpt lat="38.1464567" lon="15.7594883"><ele>727.0</ele><time>2026-04-25T12:32:53.66Z</time></trkpt><trkpt lat="38.1463667" lon="15.7594167"><ele>726.0</ele><time>2026-04-25T12:32:55.66Z</time></trkpt><trkpt lat="38.146285" lon="15.7593117"><ele>725.0</ele><time>2026-04-25T12:32:57.66Z</time></trkpt><trkpt lat="38.1462483" lon="15.7592433"><ele>724.0</ele><time>2026-04-25T12:32:58.66Z</time></trkpt><trkpt lat="38.1462067" lon="15.759165"><ele>724.0</ele><time>2026-04-25T12:32:59.66Z</time></trkpt><trkpt lat="38.146175" lon="15.7590933"><ele>724.0</ele><time>2026-04-25T12:33:00.66Z</time></trkpt><trkpt lat="38.14613" lon="15.7589883"><ele>724.0</ele><time>2026-04-25T12:33:02.66Z</time></trkpt><trkpt lat="38.1460733" lon="15.7589433"><ele>724.0</ele><time>2026-04-25T12:33:04.66Z</time></trkpt><trkpt lat="38.146" lon="15.7589567"><ele>724.0</ele><time>2026-04-25T12:33:06.66Z</time></trkpt><trkpt lat="38.1459317" lon="15.75894"><ele>724.0</ele><time>2026-04-25T12:33:09.66Z</time></trkpt><trkpt lat="38.145885" lon="15.7588433"><ele>724.0</ele><time>2026-04-25T12:33:11.66Z</time></trkpt><trkpt lat="38.145805" lon="15.7587783"><ele>724.0</ele><time>2026-04-25T12:33:13.66Z</time></trkpt><trkpt lat="38.1457167" lon="15.7587183"><ele>724.0</ele><time>2026-04-25T12:33:15.66Z</time></trkpt><trkpt lat="38.145675" lon="15.7586383"><ele>724.0</ele><time>2026-04-25T12:33:17.66Z</time></trkpt><trkpt lat="38.1457483" lon="15.7585583"><ele>724.0</ele><time>2026-04-25T12:33:20.66Z</time></trkpt><trkpt lat="38.1458267" lon="15.7585433"><ele>724.0</ele><time>2026-04-25T12:33:21.661Z</time></trkpt><trkpt lat="38.1458933" lon="15.7585183"><ele>724.8333333333334</ele><time>2026-04-25T12:33:22.66Z</time></trkpt><trkpt lat="38.145965" lon="15.75844"><ele>725.6666666666667</ele><time>2026-04-25T12:33:24.66Z</time></trkpt><trkpt lat="38.146055" lon="15.7583917"><ele>726.5</ele><time>2026-04-25T12:33:27.66Z</time></trkpt><trkpt lat="38.1461217" lon="15.7583967"><ele>727.3333333333334</ele><time>2026-04-25T12:33:28.661Z</time></trkpt><trkpt lat="38.1462" lon="15.758415"><ele>728.1666666666666</ele><time>2026-04-25T12:33:29.66Z</time></trkpt><trkpt lat="38.1462667" lon="15.75845"><ele>729.0</ele><time>2026-04-25T12:33:30.66Z</time></trkpt><trkpt lat="38.146325" lon="15.758485"><ele>728.1666666666666</ele><time>2026-04-25T12:33:31.66Z</time></trkpt><trkpt lat="38.14644" lon="15.7585417"><ele>727.3333333333334</ele><time>2026-04-25T12:33:33.66Z</time></trkpt><trkpt lat="38.1465067" lon="15.7585567"><ele>726.5</ele><time>2026-04-25T12:33:34.661Z</time></trkpt><trkpt lat="38.1465717" lon="15.7585867"><ele>725.6666666666667</ele><time>2026-04-25T12:33:35.66Z</time></trkpt><trkpt lat="38.146635" lon="15.7586183"><ele>724.8333333333334</ele><time>2026-04-25T12:33:36.66Z</time></trkpt><trkpt lat="38.1467033" lon="15.75864"><ele>724.0</ele><time>2026-04-25T12:33:37.66Z</time></trkpt><trkpt lat="38.1467683" lon="15.7586483"><ele>724.2</ele><time>2026-04-25T12:33:38.66Z</time></trkpt><trkpt lat="38.146875" lon="15.758625"><ele>724.4000000000001</ele><time>2026-04-25T12:33:40.66Z</time></trkpt><trkpt lat="38.1469667" lon="15.75857"><ele>724.6</ele><time>2026-04-25T12:33:42.66Z</time></trkpt><trkpt lat="38.1470967" lon="15.758515"><ele>724.8</ele><time>2026-04-25T12:33:44.661Z</time></trkpt><trkpt lat="38.147195" lon="15.7584933"><ele>725.0</ele><time>2026-04-25T12:33:45.661Z</time></trkpt><trkpt lat="38.1473033" lon="15.75848"><ele>721.4</ele><time>2026-04-25T12:33:46.661Z</time></trkpt><trkpt lat="38.1473867" lon="15.7584567"><ele>717.8</ele><time>2026-04-25T12:33:47.66Z</time></trkpt><trkpt lat="38.1474833" lon="15.7583617"><ele>714.2</ele><time>2026-04-25T12:33:49.661Z</time></trkpt><trkpt lat="38.1474883" lon="15.7582217"><ele>710.6</ele><time>2026-04-25T12:33:51.661Z</time></trkpt><trkpt lat="38.147455" lon="15.7581533"><ele>707.0</ele><time>2026-04-25T12:33:52.66Z</time></trkpt><trkpt lat="38.147405" lon="15.7580867"><ele>707.0</ele><time>2026-04-25T12:33:53.661Z</time></trkpt><trkpt lat="38.147355" lon="15.7580233"><ele>707.0</ele><time>2026-04-25T12:33:54.66Z</time></trkpt><trkpt lat="38.1473133" lon="15.75796"><ele>707.0</ele><time>2026-04-25T12:33:55.66Z</time></trkpt><trkpt lat="38.1473083" lon="15.7578417"><ele>707.0</ele><time>2026-04-25T12:33:57.66Z</time></trkpt><trkpt lat="38.1473883" lon="15.7577167"><ele>707.0</ele><time>2026-04-25T12:33:59.66Z</time></trkpt><trkpt lat="38.1474283" lon="15.75763"><ele>707.0</ele><time>2026-04-25T12:34:00.66Z</time></trkpt><trkpt lat="38.1474633" lon="15.7575467"><ele>710.2</ele><time>2026-04-25T12:34:01.66Z</time></trkpt><trkpt lat="38.1474883" lon="15.7574667"><ele>713.4000000000001</ele><time>2026-04-25T12:34:02.66Z</time></trkpt><trkpt lat="38.1474767" lon="15.7573717"><ele>716.5999999999999</ele><time>2026-04-25T12:34:03.66Z</time></trkpt><trkpt lat="38.1474617" lon="15.7572883"><ele>719.8</ele><time>2026-04-25T12:34:04.66Z</time></trkpt><trkpt lat="38.147455" lon="15.7571733"><ele>723.0</ele><time>2026-04-25T12:34:06.66Z</time></trkpt><trkpt lat="38.147615" lon="15.7571633"><ele>723.0000000000001</ele><time>2026-04-25T12:34:12.661Z</time></trkpt><trkpt lat="38.1476967" lon="15.75721"><ele>723.0</ele><time>2026-04-25T12:34:13.66Z</time></trkpt><trkpt lat="38.14776" lon="15.7572667"><ele>723.0</ele><time>2026-04-25T12:34:14.66Z</time></trkpt><trkpt lat="38.1478083" lon="15.757325"><ele>723.0</ele><time>2026-04-25T12:34:15.66Z</time></trkpt><trkpt lat="38.14785" lon="15.7573917"><ele>723.0</ele><time>2026-04-25T12:34:16.661Z</time></trkpt><trkpt lat="38.1478883" lon="15.7574583"><ele>723.0000000000001</ele><time>2026-04-25T12:34:17.66Z</time></trkpt><trkpt lat="38.14793" lon="15.7575317"><ele>723.0</ele><time>2026-04-25T12:34:18.66Z</time></trkpt><trkpt lat="38.147975" lon="15.7576"><ele>723.0</ele><time>2026-04-25T12:34:19.66Z</time></trkpt><trkpt lat="38.148025" lon="15.7576683"><ele>723.0</ele><time>2026-04-25T12:34:20.66Z</time></trkpt><trkpt lat="38.1480833" lon="15.7577333"><ele>723.0</ele><time>2026-04-25T12:34:21.661Z</time></trkpt><trkpt lat="38.1481517" lon="15.7577983"><ele>723.0</ele><time>2026-04-25T12:34:22.66Z</time></trkpt><trkpt lat="38.1482233" lon="15.75784"><ele>723.0</ele><time>2026-04-25T12:34:23.661Z</time></trkpt><trkpt lat="38.1483" lon="15.7578667"><ele>723.0</ele><time>2026-04-25T12:34:24.66Z</time></trkpt><trkpt lat="38.1483817" lon="15.75787"><ele>721.8</ele><time>2026-04-25T12:34:25.66Z</time></trkpt><trkpt lat="38.148475" lon="15.757855"><ele>720.5999999999999</ele><time>2026-04-25T12:34:26.66Z</time></trkpt><trkpt lat="38.14858" lon="15.7578283"><ele>719.4000000000001</ele><time>2026-04-25T12:34:27.66Z</time></trkpt><trkpt lat="38.1486917" lon="15.7577967"><ele>718.2</ele><time>2026-04-25T12:34:28.66Z</time></trkpt><trkpt lat="38.1487717" lon="15.7577733"><ele>717.0</ele><time>2026-04-25T12:34:29.66Z</time></trkpt><trkpt lat="38.1488583" lon="15.7577"><ele>717.0</ele><time>2026-04-25T12:34:31.66Z</time></trkpt><trkpt lat="38.1488817" lon="15.7575667"><ele>717.0</ele><time>2026-04-25T12:34:33.66Z</time></trkpt><trkpt lat="38.1488783" lon="15.7574867"><ele>717.0</ele><time>2026-04-25T12:34:34.66Z</time></trkpt><trkpt lat="38.148865" lon="15.7573167"><ele>717.0</ele><time>2026-04-25T12:34:36.661Z</time></trkpt><trkpt lat="38.1488567" lon="15.7572183"><ele>717.0</ele><time>2026-04-25T12:34:37.66Z</time></trkpt><trkpt lat="38.148855" lon="15.75711"><ele>717.0</ele><time>2026-04-25T12:34:38.66Z</time></trkpt><trkpt lat="38.1488517" lon="15.7570217"><ele>717.0</ele><time>2026-04-25T12:34:39.66Z</time></trkpt><trkpt lat="38.14884" lon="15.7568983"><ele>717.0</ele><time>2026-04-25T12:34:41.66Z</time></trkpt><trkpt lat="38.148845" lon="15.7568183"><ele>717.0</ele><time>2026-04-25T12:34:44.661Z</time></trkpt><trkpt lat="38.148875" lon="15.7567083"><ele>717.0</ele><time>2026-04-25T12:34:46.66Z</time></trkpt><trkpt lat="38.148885" lon="15.7566183"><ele>717.0</ele><time>2026-04-25T12:34:47.661Z</time></trkpt><trkpt lat="38.1488967" lon="15.7565083"><ele>717.1666666666666</ele><time>2026-04-25T12:34:48.66Z</time></trkpt><trkpt lat="38.1489067" lon="15.7564067"><ele>717.3333333333334</ele><time>2026-04-25T12:34:49.66Z</time></trkpt><trkpt lat="38.1489217" lon="15.7562983"><ele>717.5</ele><time>2026-04-25T12:34:50.661Z</time></trkpt><trkpt lat="38.14894" lon="15.7562217"><ele>717.6666666666667</ele><time>2026-04-25T12:34:51.66Z</time></trkpt><trkpt lat="38.1489933" lon="15.7561333"><ele>717.8333333333334</ele><time>2026-04-25T12:34:53.66Z</time></trkpt><trkpt lat="38.149085" lon="15.7561383"><ele>718.0</ele><time>2026-04-25T12:34:55.661Z</time></trkpt><trkpt lat="38.1491483" lon="15.7561633"><ele>718.0</ele><time>2026-04-25T12:34:56.66Z</time></trkpt><trkpt lat="38.14923" lon="15.756205"><ele>718.0</ele><time>2026-04-25T12:34:57.661Z</time></trkpt><trkpt lat="38.1493233" lon="15.756245"><ele>718.0</ele><time>2026-04-25T12:34:58.66Z</time></trkpt><trkpt lat="38.1494" lon="15.7562817"><ele>718.0</ele><time>2026-04-25T12:34:59.661Z</time></trkpt><trkpt lat="38.1494667" lon="15.7563183"><ele>718.0</ele><time>2026-04-25T12:35:00.66Z</time></trkpt><trkpt lat="38.14954" lon="15.7563683"><ele>718.0</ele><time>2026-04-25T12:35:01.66Z</time></trkpt><trkpt lat="38.1496233" lon="15.75644"><ele>718.0</ele><time>2026-04-25T12:35:02.66Z</time></trkpt><trkpt lat="38.1497033" lon="15.7565117"><ele>718.0</ele><time>2026-04-25T12:35:03.66Z</time></trkpt><trkpt lat="38.1497767" lon="15.75658"><ele>718.0</ele><time>2026-04-25T12:35:04.66Z</time></trkpt><trkpt lat="38.149845" lon="15.75664"><ele>718.0</ele><time>2026-04-25T12:35:05.66Z</time></trkpt><trkpt lat="38.1499017" lon="15.756695"><ele>718.0</ele><time>2026-04-25T12:35:06.66Z</time></trkpt><trkpt lat="38.1499617" lon="15.7567367"><ele>718.0</ele><time>2026-04-25T12:35:07.66Z</time></trkpt><trkpt lat="38.1500683" lon="15.7567317"><ele>717.8</ele><time>2026-04-25T12:35:09.66Z</time></trkpt><trkpt lat="38.150155" lon="15.7566117"><ele>717.5999999999999</ele><time>2026-04-25T12:35:11.66Z</time></trkpt><trkpt lat="38.1502" lon="15.7565283"><ele>717.4000000000001</ele><time>2026-04-25T12:35:12.66Z</time></trkpt><trkpt lat="38.1502383" lon="15.7564483"><ele>717.2</ele><time>2026-04-25T12:35:13.66Z</time></trkpt><trkpt lat="38.1502767" lon="15.7563717"><ele>717.0</ele><time>2026-04-25T12:35:14.66Z</time></trkpt><trkpt lat="38.1503417" lon="15.75625"><ele>717.0</ele><time>2026-04-25T12:35:16.66Z</time></trkpt><trkpt lat="38.1504417" lon="15.7561367"><ele>717.0</ele><time>2026-04-25T12:35:18.66Z</time></trkpt><trkpt lat="38.1505133" lon="15.756095"><ele>717.0</ele><time>2026-04-25T12:35:19.661Z</time></trkpt><trkpt lat="38.1506" lon="15.7560567"><ele>717.0</ele><time>2026-04-25T12:35:20.66Z</time></trkpt><trkpt lat="38.1507033" lon="15.7560267"><ele>717.0</ele><time>2026-04-25T12:35:21.661Z</time></trkpt><trkpt lat="38.1508033" lon="15.7559917"><ele>719.1666666666666</ele><time>2026-04-25T12:35:22.66Z</time></trkpt><trkpt lat="38.1508867" lon="15.755945"><ele>721.3333333333334</ele><time>2026-04-25T12:35:23.66Z</time></trkpt><trkpt lat="38.1509583" lon="15.755915"><ele>723.5</ele><time>2026-04-25T12:35:24.66Z</time></trkpt><trkpt lat="38.1510067" lon="15.755855"><ele>725.6666666666667</ele><time>2026-04-25T12:35:25.66Z</time></trkpt><trkpt lat="38.1510383" lon="15.7557817"><ele>727.8333333333334</ele><time>2026-04-25T12:35:26.66Z</time></trkpt><trkpt lat="38.1510517" lon="15.755695"><ele>730.0</ele><time>2026-04-25T12:35:27.66Z</time></trkpt><trkpt lat="38.151075" lon="15.7555917"><ele>730.0</ele><time>2026-04-25T12:35:28.66Z</time></trkpt><trkpt lat="38.1511167" lon="15.755475"><ele>730.0</ele><time>2026-04-25T12:35:29.66Z</time></trkpt><trkpt lat="38.1511783" lon="15.7553267"><ele>730.0</ele><time>2026-04-25T12:35:30.66Z</time></trkpt><trkpt lat="38.1512567" lon="15.7552167"><ele>730.0</ele><time>2026-04-25T12:35:31.66Z</time></trkpt><trkpt lat="38.1513383" lon="15.755115"><ele>733.0</ele><time>2026-04-25T12:35:32.66Z</time></trkpt><trkpt lat="38.1513933" lon="15.7550283"><ele>736.0</ele><time>2026-04-25T12:35:33.66Z</time></trkpt><trkpt lat="38.1514283" lon="15.754935"><ele>739.0</ele><time>2026-04-25T12:35:34.66Z</time></trkpt><trkpt lat="38.1514433" lon="15.7548233"><ele>742.0</ele><time>2026-04-25T12:35:35.66Z</time></trkpt><trkpt lat="38.1514383" lon="15.7547017"><ele>745.0</ele><time>2026-04-25T12:35:36.66Z</time></trkpt><trkpt lat="38.1514367" lon="15.75459"><ele>748.0</ele><time>2026-04-25T12:35:37.66Z</time></trkpt><trkpt lat="38.1514317" lon="15.7544967"><ele>747.8</ele><time>2026-04-25T12:35:38.66Z</time></trkpt><trkpt lat="38.1514217" lon="15.754355"><ele>747.5999999999999</ele><time>2026-04-25T12:35:40.661Z</time></trkpt><trkpt lat="38.1513983" lon="15.754235"><ele>747.4000000000001</ele><time>2026-04-25T12:35:42.661Z</time></trkpt><trkpt lat="38.1513517" lon="15.7541617"><ele>747.2</ele><time>2026-04-25T12:35:44.66Z</time></trkpt><trkpt lat="38.1512983" lon="15.754085"><ele>747.0</ele><time>2026-04-25T12:35:46.661Z</time></trkpt><trkpt lat="38.151215" lon="15.7540217"><ele>747.0</ele><time>2026-04-25T12:35:49.66Z</time></trkpt><trkpt lat="38.1511367" lon="15.7539933"><ele>747.0</ele><time>2026-04-25T12:35:51.66Z</time></trkpt><trkpt lat="38.1510683" lon="15.7539767"><ele>747.0</ele><time>2026-04-25T12:35:53.66Z</time></trkpt><trkpt lat="38.1510033" lon="15.7539533"><ele>747.0</ele><time>2026-04-25T12:36:30.659Z</time></trkpt><trkpt lat="38.1509217" lon="15.753875"><ele>747.0</ele><time>2026-04-25T12:36:32.659Z</time></trkpt><trkpt lat="38.1508583" lon="15.7537983"><ele>747.0</ele><time>2026-04-25T12:36:33.66Z</time></trkpt><trkpt lat="38.1507767" lon="15.7536983"><ele>749.6</ele><time>2026-04-25T12:36:34.659Z</time></trkpt><trkpt lat="38.1506967" lon="15.7535833"><ele>752.2</ele><time>2026-04-25T12:36:35.659Z</time></trkpt><trkpt lat="38.1506167" lon="15.7534833"><ele>754.8</ele><time>2026-04-25T12:36:36.659Z</time></trkpt><trkpt lat="38.1505383" lon="15.75342"><ele>757.4</ele><time>2026-04-25T12:36:37.66Z</time></trkpt><trkpt lat="38.1504417" lon="15.753395"><ele>760.0</ele><time>2026-04-25T12:36:38.659Z</time></trkpt><trkpt lat="38.1503333" lon="15.753405"><ele>760.0</ele><time>2026-04-25T12:36:39.659Z</time></trkpt><trkpt lat="38.15022" lon="15.7534467"><ele>760.0</ele><time>2026-04-25T12:36:40.659Z</time></trkpt><trkpt lat="38.1500967" lon="15.753535"><ele>760.0</ele><time>2026-04-25T12:36:41.659Z</time></trkpt><trkpt lat="38.149975" lon="15.75361"><ele>760.0</ele><time>2026-04-25T12:36:42.659Z</time></trkpt><trkpt lat="38.1498567" lon="15.7536683"><ele>760.0</ele><time>2026-04-25T12:36:43.659Z</time></trkpt><trkpt lat="38.1497367" lon="15.7536983"><ele>760.0</ele><time>2026-04-25T12:36:44.66Z</time></trkpt><trkpt lat="38.149605" lon="15.753695"><ele>760.0</ele><time>2026-04-25T12:36:45.66Z</time></trkpt><trkpt lat="38.14947" lon="15.7536617"><ele>760.0</ele><time>2026-04-25T12:36:46.659Z</time></trkpt><trkpt lat="38.1493383" lon="15.75361"><ele>760.0</ele><time>2026-04-25T12:36:47.66Z</time></trkpt><trkpt lat="38.1492067" lon="15.7535617"><ele>760.0</ele><time>2026-04-25T12:36:48.659Z</time></trkpt><trkpt lat="38.1490633" lon="15.7535317"><ele>760.0</ele><time>2026-04-25T12:36:49.659Z</time></trkpt><trkpt lat="38.148925" lon="15.7535433"><ele>760.0</ele><time>2026-04-25T12:36:50.659Z</time></trkpt><trkpt lat="38.1487783" lon="15.7535867"><ele>760.5</ele><time>2026-04-25T12:36:51.66Z</time></trkpt><trkpt lat="38.148635" lon="15.7536367"><ele>761.0</ele><time>2026-04-25T12:36:52.659Z</time></trkpt><trkpt lat="38.1484983" lon="15.75368"><ele>761.5</ele><time>2026-04-25T12:36:53.659Z</time></trkpt><trkpt lat="38.1483767" lon="15.753695"><ele>762.0</ele><time>2026-04-25T12:36:54.659Z</time></trkpt><trkpt lat="38.14825" lon="15.75369"><ele>763.0</ele><time>2026-04-25T12:36:55.659Z</time></trkpt><trkpt lat="38.1481383" lon="15.7536567"><ele>764.0</ele><time>2026-04-25T12:36:56.659Z</time></trkpt><trkpt lat="38.148045" lon="15.753595"><ele>765.0</ele><time>2026-04-25T12:36:57.659Z</time></trkpt><trkpt lat="38.1479633" lon="15.7535017"><ele>766.0</ele><time>2026-04-25T12:36:58.659Z</time></trkpt><trkpt lat="38.1478917" lon="15.75339"><ele>767.0</ele><time>2026-04-25T12:36:59.659Z</time></trkpt><trkpt lat="38.1478467" lon="15.7532783"><ele>767.0</ele><time>2026-04-25T12:37:00.659Z</time></trkpt><trkpt lat="38.1478117" lon="15.7531583"><ele>767.0</ele><time>2026-04-25T12:37:01.659Z</time></trkpt><trkpt lat="38.147795" lon="15.75303"><ele>767.0</ele><time>2026-04-25T12:37:02.659Z</time></trkpt><trkpt lat="38.1478017" lon="15.752885"><ele>767.0</ele><time>2026-04-25T12:37:03.659Z</time></trkpt><trkpt lat="38.147875" lon="15.7527133"><ele>763.6</ele><time>2026-04-25T12:37:04.66Z</time></trkpt><trkpt lat="38.1479367" lon="15.7525533"><ele>760.2</ele><time>2026-04-25T12:37:05.659Z</time></trkpt><trkpt lat="38.1479633" lon="15.7524083"><ele>756.8</ele><time>2026-04-25T12:37:06.66Z</time></trkpt><trkpt lat="38.1479417" lon="15.7522933"><ele>753.4</ele><time>2026-04-25T12:37:07.66Z</time></trkpt><trkpt lat="38.1478833" lon="15.7522183"><ele>750.0</ele><time>2026-04-25T12:37:08.659Z</time></trkpt><trkpt lat="38.147805" lon="15.752185"><ele>750.0</ele><time>2026-04-25T12:37:09.659Z</time></trkpt><trkpt lat="38.1477117" lon="15.7521933"><ele>750.0</ele><time>2026-04-25T12:37:10.659Z</time></trkpt><trkpt lat="38.1475883" lon="15.752255"><ele>750.0</ele><time>2026-04-25T12:37:11.659Z</time></trkpt><trkpt lat="38.1474517" lon="15.7523383"><ele>750.0</ele><time>2026-04-25T12:37:12.659Z</time></trkpt><trkpt lat="38.1473017" lon="15.7524267"><ele>753.3333333333334</ele><time>2026-04-25T12:37:13.659Z</time></trkpt><trkpt lat="38.1471533" lon="15.752495"><ele>756.6666666666667</ele><time>2026-04-25T12:37:14.659Z</time></trkpt><trkpt lat="38.1469933" lon="15.752555"><ele>760.0</ele><time>2026-04-25T12:37:15.659Z</time></trkpt><trkpt lat="38.1468417" lon="15.7526217"><ele>760.0</ele><time>2026-04-25T12:37:16.66Z</time></trkpt><trkpt lat="38.146695" lon="15.752685"><ele>760.0</ele><time>2026-04-25T12:37:17.659Z</time></trkpt><trkpt lat="38.146575" lon="15.7527283"><ele>760.0</ele><time>2026-04-25T12:37:18.659Z</time></trkpt><trkpt lat="38.1464917" lon="15.7527383"><ele>760.0</ele><time>2026-04-25T12:37:19.659Z</time></trkpt><trkpt lat="38.14643" lon="15.75272"><ele>760.0</ele><time>2026-04-25T12:37:20.66Z</time></trkpt><trkpt lat="38.1463867" lon="15.7526567"><ele>764.3333333333334</ele><time>2026-04-25T12:37:21.659Z</time></trkpt><trkpt lat="38.1463683" lon="15.7525767"><ele>768.6666666666667</ele><time>2026-04-25T12:37:22.659Z</time></trkpt><trkpt lat="38.1463633" lon="15.75248"><ele>773.0</ele><time>2026-04-25T12:37:23.66Z</time></trkpt><trkpt lat="38.1463283" lon="15.7523733"><ele>777.3333333333334</ele><time>2026-04-25T12:37:24.659Z</time></trkpt><trkpt lat="38.1462767" lon="15.7522783"><ele>781.6666666666666</ele><time>2026-04-25T12:37:25.659Z</time></trkpt><trkpt lat="38.146195" lon="15.7521817"><ele>786.0</ele><time>2026-04-25T12:37:26.659Z</time></trkpt><trkpt lat="38.14611" lon="15.75209"><ele>786.0</ele><time>2026-04-25T12:37:27.659Z</time></trkpt><trkpt lat="38.146065" lon="15.7519933"><ele>786.0</ele><time>2026-04-25T12:37:28.659Z</time></trkpt><trkpt lat="38.14603" lon="15.7519017"><ele>786.0</ele><time>2026-04-25T12:37:29.659Z</time></trkpt><trkpt lat="38.146025" lon="15.7518167"><ele>786.0</ele><time>2026-04-25T12:37:30.659Z</time></trkpt><trkpt lat="38.1460533" lon="15.75174"><ele>786.0</ele><time>2026-04-25T12:37:31.659Z</time></trkpt><trkpt lat="38.1460917" lon="15.7516683"><ele>786.0</ele><time>2026-04-25T12:37:32.659Z</time></trkpt><trkpt lat="38.1461583" lon="15.75157"><ele>787.25</ele><time>2026-04-25T12:37:33.659Z</time></trkpt><trkpt lat="38.146225" lon="15.7514517"><ele>788.5</ele><time>2026-04-25T12:37:34.659Z</time></trkpt><trkpt lat="38.146305" lon="15.7513083"><ele>789.75</ele><time>2026-04-25T12:37:35.659Z</time></trkpt><trkpt lat="38.1463567" lon="15.7511467"><ele>791.0</ele><time>2026-04-25T12:37:36.66Z</time></trkpt><trkpt lat="38.1463867" lon="15.7509717"><ele>791.0</ele><time>2026-04-25T12:37:37.659Z</time></trkpt><trkpt lat="38.1464083" lon="15.7507933"><ele>791.0</ele><time>2026-04-25T12:37:38.659Z</time></trkpt><trkpt lat="38.1464233" lon="15.750615"><ele>791.0</ele><time>2026-04-25T12:37:39.659Z</time></trkpt><trkpt lat="38.1464433" lon="15.7504433"><ele>791.0</ele><time>2026-04-25T12:37:40.66Z</time></trkpt><trkpt lat="38.1464833" lon="15.750285"><ele>783.75</ele><time>2026-04-25T12:37:41.659Z</time></trkpt><trkpt lat="38.14655" lon="15.75015"><ele>776.5</ele><time>2026-04-25T12:37:42.659Z</time></trkpt><trkpt lat="38.1466417" lon="15.7500333"><ele>769.25</ele><time>2026-04-25T12:37:43.659Z</time></trkpt><trkpt lat="38.1467383" lon="15.7499267"><ele>762.0</ele><time>2026-04-25T12:37:44.66Z</time></trkpt><trkpt lat="38.1468433" lon="15.74982"><ele>762.0</ele><time>2026-04-25T12:37:45.659Z</time></trkpt><trkpt lat="38.1469417" lon="15.7497033"><ele>762.0</ele><time>2026-04-25T12:37:46.659Z</time></trkpt><trkpt lat="38.147025" lon="15.74958"><ele>762.0</ele><time>2026-04-25T12:37:47.659Z</time></trkpt><trkpt lat="38.14709" lon="15.749465"><ele>762.0</ele><time>2026-04-25T12:37:48.659Z</time></trkpt><trkpt lat="38.14714" lon="15.74933"><ele>762.2</ele><time>2026-04-25T12:37:49.66Z</time></trkpt><trkpt lat="38.1471517" lon="15.749205"><ele>762.4000000000001</ele><time>2026-04-25T12:37:50.659Z</time></trkpt><trkpt lat="38.1471283" lon="15.7490967"><ele>762.5999999999999</ele><time>2026-04-25T12:37:51.66Z</time></trkpt><trkpt lat="38.147085" lon="15.749025"><ele>762.8</ele><time>2026-04-25T12:37:52.659Z</time></trkpt><trkpt lat="38.1470083" lon="15.74896"><ele>763.0</ele><time>2026-04-25T12:37:53.659Z</time></trkpt><trkpt lat="38.1469133" lon="15.7489117"><ele>763.0</ele><time>2026-04-25T12:37:54.66Z</time></trkpt><trkpt lat="38.1467933" lon="15.7488883"><ele>763.0</ele><time>2026-04-25T12:37:55.659Z</time></trkpt><trkpt lat="38.146635" lon="15.74886"><ele>763.0</ele><time>2026-04-25T12:37:56.66Z</time></trkpt><trkpt lat="38.1464933" lon="15.7488033"><ele>763.0</ele><time>2026-04-25T12:37:57.659Z</time></trkpt><trkpt lat="38.1463783" lon="15.748725"><ele>762.5</ele><time>2026-04-25T12:37:58.659Z</time></trkpt><trkpt lat="38.1462667" lon="15.748665"><ele>762.0</ele><time>2026-04-25T12:37:59.659Z</time></trkpt><trkpt lat="38.146155" lon="15.7486367"><ele>761.5</ele><time>2026-04-25T12:38:00.659Z</time></trkpt><trkpt lat="38.1460283" lon="15.748665"><ele>761.0</ele><time>2026-04-25T12:38:01.66Z</time></trkpt><trkpt lat="38.1459017" lon="15.74872"><ele>761.0</ele><time>2026-04-25T12:38:02.66Z</time></trkpt><trkpt lat="38.145775" lon="15.7488133"><ele>761.0</ele><time>2026-04-25T12:38:03.659Z</time></trkpt><trkpt lat="38.1456483" lon="15.7489183"><ele>761.0</ele><time>2026-04-25T12:38:04.659Z</time></trkpt><trkpt lat="38.1455133" lon="15.74902"><ele>759.75</ele><time>2026-04-25T12:38:05.659Z</time></trkpt><trkpt lat="38.1453767" lon="15.7491"><ele>758.5</ele><time>2026-04-25T12:38:06.659Z</time></trkpt><trkpt lat="38.14525" lon="15.74918"><ele>757.25</ele><time>2026-04-25T12:38:07.659Z</time></trkpt><trkpt lat="38.1451517" lon="15.74922"><ele>756.0</ele><time>2026-04-25T12:38:08.66Z</time></trkpt><trkpt lat="38.145055" lon="15.7492117"><ele>756.0</ele><time>2026-04-25T12:38:09.66Z</time></trkpt><trkpt lat="38.14497" lon="15.7491617"><ele>756.0</ele><time>2026-04-25T12:38:10.659Z</time></trkpt><trkpt lat="38.1449" lon="15.749085"><ele>756.0</ele><time>2026-04-25T12:38:11.659Z</time></trkpt><trkpt lat="38.1448383" lon="15.74896"><ele>756.0</ele><time>2026-04-25T12:38:12.659Z</time></trkpt><trkpt lat="38.144755" lon="15.7488467"><ele>756.0</ele><time>2026-04-25T12:38:13.659Z</time></trkpt><trkpt lat="38.14465" lon="15.748785"><ele>757.1999999999999</ele><time>2026-04-25T12:38:14.66Z</time></trkpt><trkpt lat="38.1445283" lon="15.748745"><ele>758.4</ele><time>2026-04-25T12:38:15.66Z</time></trkpt><trkpt lat="38.1444283" lon="15.7487067"><ele>759.6</ele><time>2026-04-25T12:38:16.659Z</time></trkpt><trkpt lat="38.144365" lon="15.74864"><ele>760.8</ele><time>2026-04-25T12:38:17.66Z</time></trkpt><trkpt lat="38.144315" lon="15.7485317"><ele>762.0</ele><time>2026-04-25T12:38:18.659Z</time></trkpt><trkpt lat="38.14428" lon="15.7483833"><ele>762.0</ele><time>2026-04-25T12:38:19.66Z</time></trkpt><trkpt lat="38.1442683" lon="15.7482"><ele>762.0</ele><time>2026-04-25T12:38:20.66Z</time></trkpt><trkpt lat="38.1442783" lon="15.7480033"><ele>762.0</ele><time>2026-04-25T12:38:21.659Z</time></trkpt><trkpt lat="38.144285" lon="15.7478067"><ele>759.5</ele><time>2026-04-25T12:38:22.659Z</time></trkpt><trkpt lat="38.144275" lon="15.7476033"><ele>757.0</ele><time>2026-04-25T12:38:23.66Z</time></trkpt><trkpt lat="38.1442517" lon="15.747435"><ele>754.5</ele><time>2026-04-25T12:38:24.659Z</time></trkpt><trkpt lat="38.14422" lon="15.7472783"><ele>752.0</ele><time>2026-04-25T12:38:25.659Z</time></trkpt><trkpt lat="38.1441817" lon="15.7471383"><ele>752.0</ele><time>2026-04-25T12:38:26.66Z</time></trkpt><trkpt lat="38.1441417" lon="15.7470183"><ele>752.0</ele><time>2026-04-25T12:38:27.66Z</time></trkpt><trkpt lat="38.144105" lon="15.7469217"><ele>752.0</ele><time>2026-04-25T12:38:28.659Z</time></trkpt><trkpt lat="38.1440783" lon="15.7468383"><ele>752.0</ele><time>2026-04-25T12:38:29.659Z</time></trkpt><trkpt lat="38.14406" lon="15.7467583"><ele>752.0</ele><time>2026-04-25T12:38:30.659Z</time></trkpt><trkpt lat="38.14404" lon="15.7466717"><ele>752.0</ele><time>2026-04-25T12:38:31.659Z</time></trkpt><trkpt lat="38.1440233" lon="15.74659"><ele>752.1666666666666</ele><time>2026-04-25T12:38:32.659Z</time></trkpt><trkpt lat="38.144" lon="15.7465017"><ele>752.3333333333333</ele><time>2026-04-25T12:38:33.659Z</time></trkpt><trkpt lat="38.1439767" lon="15.746405"><ele>752.5</ele><time>2026-04-25T12:38:34.659Z</time></trkpt><trkpt lat="38.1439567" lon="15.7463067"><ele>752.6666666666666</ele><time>2026-04-25T12:38:35.659Z</time></trkpt><trkpt lat="38.1439383" lon="15.7462133"><ele>752.8333333333334</ele><time>2026-04-25T12:38:36.659Z</time></trkpt><trkpt lat="38.1439167" lon="15.7460967"><ele>753.0</ele><time>2026-04-25T12:38:38.66Z</time></trkpt><trkpt lat="38.1439917" lon="15.7461"><ele>753.0</ele><time>2026-04-25T12:38:43.66Z</time></trkpt><trkpt lat="38.1440233" lon="15.7461717"><ele>753.0</ele><time>2026-04-25T12:38:46.66Z</time></trkpt><trkpt lat="38.1440483" lon="15.7462533"><ele>753.0</ele><time>2026-04-25T12:38:48.659Z</time></trkpt><trkpt lat="38.1440817" lon="15.74637"><ele>753.0</ele><time>2026-04-25T12:38:50.659Z</time></trkpt><trkpt lat="38.1441433" lon="15.7465067"><ele>753.0</ele><time>2026-04-25T12:38:52.659Z</time></trkpt><trkpt lat="38.144185" lon="15.7465867"><ele>753.0</ele><time>2026-04-25T12:38:53.659Z</time></trkpt><trkpt lat="38.1442283" lon="15.7466667"><ele>752.8333333333334</ele><time>2026-04-25T12:38:54.66Z</time></trkpt><trkpt lat="38.144285" lon="15.7467533"><ele>752.6666666666666</ele><time>2026-04-25T12:38:55.66Z</time></trkpt><trkpt lat="38.1443317" lon="15.7468183"><ele>752.5</ele><time>2026-04-25T12:38:56.659Z</time></trkpt><trkpt lat="38.1443667" lon="15.7468967"><ele>752.3333333333333</ele><time>2026-04-25T12:38:57.659Z</time></trkpt><trkpt lat="38.1444067" lon="15.746985"><ele>752.1666666666666</ele><time>2026-04-25T12:38:58.66Z</time></trkpt><trkpt lat="38.1444433" lon="15.7470667"><ele>752.0</ele><time>2026-04-25T12:38:59.659Z</time></trkpt><trkpt lat="38.1444733" lon="15.7471583"><ele>752.0</ele><time>2026-04-25T12:39:00.659Z</time></trkpt><trkpt lat="38.1445" lon="15.7472517"><ele>752.0</ele><time>2026-04-25T12:39:01.659Z</time></trkpt><trkpt lat="38.1445333" lon="15.7473417"><ele>752.0</ele><time>2026-04-25T12:39:02.66Z</time></trkpt><trkpt lat="38.144575" lon="15.7474283"><ele>752.0</ele><time>2026-04-25T12:39:03.659Z</time></trkpt><trkpt lat="38.1446" lon="15.7475117"><ele>752.0</ele><time>2026-04-25T12:39:04.66Z</time></trkpt><trkpt lat="38.144615" lon="15.7475967"><ele>752.0</ele><time>2026-04-25T12:39:05.659Z</time></trkpt><trkpt lat="38.1446233" lon="15.7476817"><ele>752.0</ele><time>2026-04-25T12:39:06.659Z</time></trkpt><trkpt lat="38.1446233" lon="15.7477667"><ele>753.6666666666666</ele><time>2026-04-25T12:39:07.659Z</time></trkpt><trkpt lat="38.14461" lon="15.747855"><ele>755.3333333333333</ele><time>2026-04-25T12:39:08.659Z</time></trkpt><trkpt lat="38.1445917" lon="15.7479367"><ele>757.0</ele><time>2026-04-25T12:39:09.659Z</time></trkpt><trkpt lat="38.1445633" lon="15.7480717"><ele>758.6666666666666</ele><time>2026-04-25T12:39:11.659Z</time></trkpt><trkpt lat="38.14457" lon="15.7481617"><ele>760.3333333333334</ele><time>2026-04-25T12:39:13.659Z</time></trkpt><trkpt lat="38.144655" lon="15.7482367"><ele>762.0</ele><time>2026-04-25T12:39:15.659Z</time></trkpt><trkpt lat="38.144775" lon="15.748255"><ele>757.2</ele><time>2026-04-25T12:39:17.659Z</time></trkpt><trkpt lat="38.1448917" lon="15.7482983"><ele>752.4000000000001</ele><time>2026-04-25T12:39:19.659Z</time></trkpt><trkpt lat="38.1449917" lon="15.74836"><ele>747.5999999999999</ele><time>2026-04-25T12:39:21.659Z</time></trkpt><trkpt lat="38.14507" lon="15.7483583"><ele>742.8</ele><time>2026-04-25T12:39:23.659Z</time></trkpt><trkpt lat="38.1451333" lon="15.74829"><ele>738.0</ele><time>2026-04-25T12:39:25.659Z</time></trkpt><trkpt lat="38.1451967" lon="15.7481833"><ele>738.0</ele><time>2026-04-25T12:39:27.66Z</time></trkpt><trkpt lat="38.145295" lon="15.74809"><ele>738.0</ele><time>2026-04-25T12:39:29.659Z</time></trkpt><trkpt lat="38.1453633" lon="15.7480667"><ele>738.0</ele><time>2026-04-25T12:39:30.659Z</time></trkpt><trkpt lat="38.1454317" lon="15.7480483"><ele>738.0</ele><time>2026-04-25T12:39:31.659Z</time></trkpt><trkpt lat="38.1455367" lon="15.7479833"><ele>738.0</ele><time>2026-04-25T12:39:33.66Z</time></trkpt><trkpt lat="38.1455967" lon="15.74792"><ele>738.0</ele><time>2026-04-25T12:39:34.659Z</time></trkpt><trkpt lat="38.1456567" lon="15.7478617"><ele>738.0</ele><time>2026-04-25T12:39:35.659Z</time></trkpt><trkpt lat="38.1457317" lon="15.7477783"><ele>738.0</ele><time>2026-04-25T12:39:37.659Z</time></trkpt><trkpt lat="38.145785" lon="15.7476567"><ele>738.0</ele><time>2026-04-25T12:39:39.659Z</time></trkpt><trkpt lat="38.145855" lon="15.7475267"><ele>738.0</ele><time>2026-04-25T12:39:41.66Z</time></trkpt><trkpt lat="38.145895" lon="15.7474533"><ele>734.8333333333334</ele><time>2026-04-25T12:39:42.659Z</time></trkpt><trkpt lat="38.14594" lon="15.74737"><ele>731.6666666666666</ele><time>2026-04-25T12:39:43.659Z</time></trkpt><trkpt lat="38.1459933" lon="15.7472933"><ele>728.5</ele><time>2026-04-25T12:39:44.659Z</time></trkpt><trkpt lat="38.1460617" lon="15.7472333"><ele>725.3333333333333</ele><time>2026-04-25T12:39:45.659Z</time></trkpt><trkpt lat="38.1461333" lon="15.7471783"><ele>722.1666666666666</ele><time>2026-04-25T12:39:46.659Z</time></trkpt><trkpt lat="38.1461933" lon="15.7471367"><ele>719.0</ele><time>2026-04-25T12:39:47.659Z</time></trkpt><trkpt lat="38.14625" lon="15.747085"><ele>719.0</ele><time>2026-04-25T12:39:48.659Z</time></trkpt><trkpt lat="38.1463233" lon="15.7470433"><ele>719.0</ele><time>2026-04-25T12:39:50.659Z</time></trkpt><trkpt lat="38.1463867" lon="15.747095"><ele>719.0</ele><time>2026-04-25T12:39:52.659Z</time></trkpt><trkpt lat="38.1464717" lon="15.7472017"><ele>719.0</ele><time>2026-04-25T12:39:54.659Z</time></trkpt><trkpt lat="38.146535" lon="15.7472667"><ele>719.0</ele><time>2026-04-25T12:39:55.66Z</time></trkpt><trkpt lat="38.1466033" lon="15.747325"><ele>719.0</ele><time>2026-04-25T12:39:56.659Z</time></trkpt><trkpt lat="38.1466733" lon="15.7473717"><ele>720.0</ele><time>2026-04-25T12:39:57.66Z</time></trkpt><trkpt lat="38.1467383" lon="15.7474033"><ele>721.0</ele><time>2026-04-25T12:39:58.659Z</time></trkpt><trkpt lat="38.1468383" lon="15.7473983"><ele>722.0</ele><time>2026-04-25T12:40:00.659Z</time></trkpt><trkpt lat="38.1468983" lon="15.74733"><ele>723.0</ele><time>2026-04-25T12:40:15.659Z</time></trkpt><trkpt lat="38.146955" lon="15.7472367"><ele>724.0</ele><time>2026-04-25T12:40:17.659Z</time></trkpt><trkpt lat="38.1470017" lon="15.7470783"><ele>724.0</ele><time>2026-04-25T12:40:19.659Z</time></trkpt><trkpt lat="38.1470133" lon="15.7469883"><ele>724.0</ele><time>2026-04-25T12:40:20.66Z</time></trkpt><trkpt lat="38.1470283" lon="15.7468917"><ele>724.0</ele><time>2026-04-25T12:40:21.659Z</time></trkpt><trkpt lat="38.1470517" lon="15.7467783"><ele>724.0</ele><time>2026-04-25T12:40:22.659Z</time></trkpt><trkpt lat="38.1470767" lon="15.74666"><ele>724.0</ele><time>2026-04-25T12:40:23.659Z</time></trkpt><trkpt lat="38.1470967" lon="15.74655"><ele>724.0</ele><time>2026-04-25T12:40:24.66Z</time></trkpt><trkpt lat="38.1471117" lon="15.74645"><ele>721.5</ele><time>2026-04-25T12:40:25.659Z</time></trkpt><trkpt lat="38.1471267" lon="15.7463617"><ele>719.0</ele><time>2026-04-25T12:40:26.659Z</time></trkpt><trkpt lat="38.1471467" lon="15.7462717"><ele>716.5</ele><time>2026-04-25T12:40:27.659Z</time></trkpt><trkpt lat="38.1471917" lon="15.7461533"><ele>714.0</ele><time>2026-04-25T12:40:29.659Z</time></trkpt><trkpt lat="38.1471967" lon="15.7460517"><ele>711.5</ele><time>2026-04-25T12:40:31.66Z</time></trkpt><trkpt lat="38.1471783" lon="15.745975"><ele>709.0</ele><time>2026-04-25T12:40:32.66Z</time></trkpt><trkpt lat="38.1471617" lon="15.7458783"><ele>705.0</ele><time>2026-04-25T12:40:33.659Z</time></trkpt><trkpt lat="38.1471417" lon="15.7457567"><ele>701.0</ele><time>2026-04-25T12:40:34.659Z</time></trkpt><trkpt lat="38.1471317" lon="15.745625"><ele>697.0</ele><time>2026-04-25T12:40:35.659Z</time></trkpt><trkpt lat="38.1471283" lon="15.7455017"><ele>693.0</ele><time>2026-04-25T12:40:36.659Z</time></trkpt><trkpt lat="38.1471367" lon="15.7453817"><ele>689.0</ele><time>2026-04-25T12:40:37.66Z</time></trkpt><trkpt lat="38.1471417" lon="15.745275"><ele>686.2857142857142</ele><time>2026-04-25T12:40:38.66Z</time></trkpt><trkpt lat="38.14715" lon="15.74518"><ele>683.5714285714286</ele><time>2026-04-25T12:40:39.66Z</time></trkpt><trkpt lat="38.1471583" lon="15.7450883"><ele>680.8571428571429</ele><time>2026-04-25T12:40:40.659Z</time></trkpt><trkpt lat="38.147155" lon="15.745"><ele>678.1428571428571</ele><time>2026-04-25T12:40:41.659Z</time></trkpt><trkpt lat="38.1471467" lon="15.744905"><ele>675.4285714285714</ele><time>2026-04-25T12:40:42.659Z</time></trkpt><trkpt lat="38.1471333" lon="15.74481"><ele>672.7142857142857</ele><time>2026-04-25T12:40:43.659Z</time></trkpt><trkpt lat="38.14712" lon="15.74471"><ele>670.0</ele><time>2026-04-25T12:40:44.66Z</time></trkpt><trkpt lat="38.1471133" lon="15.7446117"><ele>670.0</ele><time>2026-04-25T12:40:45.659Z</time></trkpt><trkpt lat="38.14711" lon="15.7445117"><ele>670.0</ele><time>2026-04-25T12:40:46.659Z</time></trkpt><trkpt lat="38.1471067" lon="15.74442"><ele>670.0</ele><time>2026-04-25T12:40:47.659Z</time></trkpt><trkpt lat="38.1471017" lon="15.74434"><ele>670.0</ele><time>2026-04-25T12:40:48.659Z</time></trkpt><trkpt lat="38.1470967" lon="15.74426"><ele>670.0</ele><time>2026-04-25T12:40:49.659Z</time></trkpt><trkpt lat="38.147075" lon="15.7441233"><ele>670.0</ele><time>2026-04-25T12:40:51.66Z</time></trkpt><trkpt lat="38.14705" lon="15.7440067"><ele>668.5</ele><time>2026-04-25T12:40:53.66Z</time></trkpt><trkpt lat="38.1470683" lon="15.7439133"><ele>667.0</ele><time>2026-04-25T12:40:55.659Z</time></trkpt><trkpt lat="38.1470917" lon="15.743795"><ele>665.5</ele><time>2026-04-25T12:40:57.659Z</time></trkpt><trkpt lat="38.1471383" lon="15.743675"><ele>664.0</ele><time>2026-04-25T12:40:59.659Z</time></trkpt><trkpt lat="38.1471667" lon="15.7435883"><ele>662.5</ele><time>2026-04-25T12:41:00.659Z</time></trkpt><trkpt lat="38.1471967" lon="15.7434967"><ele>661.0</ele><time>2026-04-25T12:41:01.66Z</time></trkpt><trkpt lat="38.1472417" lon="15.74342"><ele>658.5999999999999</ele><time>2026-04-25T12:41:02.659Z</time></trkpt><trkpt lat="38.147285" lon="15.7433433"><ele>656.2</ele><time>2026-04-25T12:41:03.66Z</time></trkpt><trkpt lat="38.14733" lon="15.7432733"><ele>653.8</ele><time>2026-04-25T12:41:04.66Z</time></trkpt><trkpt lat="38.1473717" lon="15.7432117"><ele>651.4000000000001</ele><time>2026-04-25T12:41:05.659Z</time></trkpt><trkpt lat="38.1474383" lon="15.7430983"><ele>649.0</ele><time>2026-04-25T12:41:07.659Z</time></trkpt><trkpt lat="38.1475017" lon="15.742955"><ele>648.8000000000001</ele><time>2026-04-25T12:41:09.659Z</time></trkpt><trkpt lat="38.14753" lon="15.74287"><ele>648.6</ele><time>2026-04-25T12:41:10.66Z</time></trkpt><trkpt lat="38.1475833" lon="15.7427433"><ele>648.4</ele><time>2026-04-25T12:41:12.659Z</time></trkpt><trkpt lat="38.1476367" lon="15.742635"><ele>648.2</ele><time>2026-04-25T12:41:14.659Z</time></trkpt><trkpt lat="38.1476867" lon="15.742505"><ele>648.0</ele><time>2026-04-25T12:41:16.659Z</time></trkpt><trkpt lat="38.1477283" lon="15.742355"><ele>648.0</ele><time>2026-04-25T12:41:18.659Z</time></trkpt><trkpt lat="38.1477683" lon="15.7422017"><ele>648.0</ele><time>2026-04-25T12:41:20.659Z</time></trkpt><trkpt lat="38.147795" lon="15.7421233"><ele>648.0</ele><time>2026-04-25T12:41:21.659Z</time></trkpt><trkpt lat="38.147835" lon="15.7420367"><ele>648.0</ele><time>2026-04-25T12:41:22.659Z</time></trkpt><trkpt lat="38.14788" lon="15.7419517"><ele>648.0</ele><time>2026-04-25T12:41:23.659Z</time></trkpt><trkpt lat="38.1479267" lon="15.7418633"><ele>648.0</ele><time>2026-04-25T12:41:24.659Z</time></trkpt><trkpt lat="38.1479733" lon="15.7417883"><ele>643.1999999999999</ele><time>2026-04-25T12:41:25.659Z</time></trkpt><trkpt lat="38.1480033" lon="15.741715"><ele>638.4</ele><time>2026-04-25T12:41:26.659Z</time></trkpt><trkpt lat="38.1480667" lon="15.7416033"><ele>633.5999999999999</ele><time>2026-04-25T12:41:28.659Z</time></trkpt><trkpt lat="38.1479817" lon="15.741595"><ele>628.8</ele><time>2026-04-25T12:41:38.659Z</time></trkpt><trkpt lat="38.1479167" lon="15.7416617"><ele>624.0</ele><time>2026-04-25T12:41:40.659Z</time></trkpt><trkpt lat="38.14782" lon="15.741765"><ele>624.0</ele><time>2026-04-25T12:41:42.66Z</time></trkpt><trkpt lat="38.1477483" lon="15.741845"><ele>624.0</ele><time>2026-04-25T12:41:43.659Z</time></trkpt><trkpt lat="38.1476767" lon="15.7419333"><ele>624.0</ele><time>2026-04-25T12:41:44.659Z</time></trkpt><trkpt lat="38.1476283" lon="15.7420083"><ele>624.0</ele><time>2026-04-25T12:41:45.66Z</time></trkpt><trkpt lat="38.147585" lon="15.7420933"><ele>624.0</ele><time>2026-04-25T12:41:46.659Z</time></trkpt><trkpt lat="38.14754" lon="15.7422"><ele>624.0</ele><time>2026-04-25T12:41:47.659Z</time></trkpt><trkpt lat="38.1475067" lon="15.7423"><ele>628.0</ele><time>2026-04-25T12:41:48.659Z</time></trkpt><trkpt lat="38.147465" lon="15.7423683"><ele>632.0</ele><time>2026-04-25T12:41:49.659Z</time></trkpt><trkpt lat="38.1474183" lon="15.7424317"><ele>636.0</ele><time>2026-04-25T12:41:50.659Z</time></trkpt><trkpt lat="38.1473633" lon="15.7425067"><ele>640.0</ele><time>2026-04-25T12:41:51.659Z</time></trkpt><trkpt lat="38.1473" lon="15.7425933"><ele>644.0</ele><time>2026-04-25T12:41:52.659Z</time></trkpt><trkpt lat="38.1472383" lon="15.7426717"><ele>648.0</ele><time>2026-04-25T12:41:53.659Z</time></trkpt><trkpt lat="38.1471817" lon="15.7427533"><ele>648.1666666666666</ele><time>2026-04-25T12:41:54.66Z</time></trkpt><trkpt lat="38.1471283" lon="15.742825"><ele>648.3333333333334</ele><time>2026-04-25T12:41:55.659Z</time></trkpt><trkpt lat="38.14708" lon="15.742895"><ele>648.5</ele><time>2026-04-25T12:41:56.659Z</time></trkpt><trkpt lat="38.1470233" lon="15.742965"><ele>648.6666666666667</ele><time>2026-04-25T12:41:57.659Z</time></trkpt><trkpt lat="38.1469683" lon="15.7430417"><ele>648.8333333333334</ele><time>2026-04-25T12:41:58.659Z</time></trkpt><trkpt lat="38.1469117" lon="15.7431317"><ele>649.0</ele><time>2026-04-25T12:41:59.659Z</time></trkpt><trkpt lat="38.1468483" lon="15.7432267"><ele>649.0</ele><time>2026-04-25T12:42:00.659Z</time></trkpt><trkpt lat="38.1467917" lon="15.7433217"><ele>649.0</ele><time>2026-04-25T12:42:01.659Z</time></trkpt><trkpt lat="38.146735" lon="15.7433983"><ele>649.0</ele><time>2026-04-25T12:42:02.659Z</time></trkpt><trkpt lat="38.1466817" lon="15.7434467"><ele>649.0</ele><time>2026-04-25T12:42:03.659Z</time></trkpt><trkpt lat="38.1466" lon="15.7435633"><ele>649.0</ele><time>2026-04-25T12:42:05.659Z</time></trkpt><trkpt lat="38.1465217" lon="15.7436567"><ele>649.0</ele><time>2026-04-25T12:42:07.659Z</time></trkpt><trkpt lat="38.1464567" lon="15.7437133"><ele>649.0</ele><time>2026-04-25T12:42:09.659Z</time></trkpt><trkpt lat="38.14643" lon="15.7436367"><ele>649.0</ele><time>2026-04-25T12:42:13.659Z</time></trkpt><trkpt lat="38.1464883" lon="15.7435133"><ele>649.0</ele><time>2026-04-25T12:42:15.659Z</time></trkpt><trkpt lat="38.1465133" lon="15.7434333"><ele>649.0</ele><time>2026-04-25T12:42:16.659Z</time></trkpt><trkpt lat="38.146565" lon="15.7433167"><ele>649.0</ele><time>2026-04-25T12:42:18.66Z</time></trkpt><trkpt lat="38.14665" lon="15.743215"><ele>649.0</ele><time>2026-04-25T12:42:20.66Z</time></trkpt><trkpt lat="38.1467017" lon="15.7431417"><ele>649.0</ele><time>2026-04-25T12:42:21.659Z</time></trkpt><trkpt lat="38.1467483" lon="15.7430617"><ele>649.0</ele><time>2026-04-25T12:42:22.659Z</time></trkpt><trkpt lat="38.1467917" lon="15.74299"><ele>649.0</ele><time>2026-04-25T12:42:23.659Z</time></trkpt><trkpt lat="38.1468233" lon="15.7429133"><ele>649.0</ele><time>2026-04-25T12:42:24.66Z</time></trkpt><trkpt lat="38.146865" lon="15.7427967"><ele>649.0</ele><time>2026-04-25T12:42:26.659Z</time></trkpt><trkpt lat="38.14688" lon="15.7426867"><ele>649.2</ele><time>2026-04-25T12:42:30.66Z</time></trkpt><trkpt lat="38.1468683" lon="15.7425617"><ele>649.4000000000001</ele><time>2026-04-25T12:42:32.659Z</time></trkpt><trkpt lat="38.146865" lon="15.742475"><ele>649.6</ele><time>2026-04-25T12:42:33.66Z</time></trkpt><trkpt lat="38.1468733" lon="15.7423533"><ele>649.8</ele><time>2026-04-25T12:42:34.659Z</time></trkpt><trkpt lat="38.1468783" lon="15.7422217"><ele>650.0</ele><time>2026-04-25T12:42:35.659Z</time></trkpt><trkpt lat="38.1468933" lon="15.7420733"><ele>650.0</ele><time>2026-04-25T12:42:36.659Z</time></trkpt><trkpt lat="38.1468917" lon="15.7419483"><ele>650.0</ele><time>2026-04-25T12:42:37.659Z</time></trkpt><trkpt lat="38.146895" lon="15.741825"><ele>650.0</ele><time>2026-04-25T12:42:38.659Z</time></trkpt><trkpt lat="38.1468883" lon="15.741715"><ele>650.0</ele><time>2026-04-25T12:42:39.659Z</time></trkpt><trkpt lat="38.14688" lon="15.74162"><ele>650.0</ele><time>2026-04-25T12:42:40.66Z</time></trkpt><trkpt lat="38.1468583" lon="15.741525"><ele>650.0</ele><time>2026-04-25T12:42:41.659Z</time></trkpt><trkpt lat="38.146825" lon="15.7414333"><ele>649.8</ele><time>2026-04-25T12:42:42.659Z</time></trkpt><trkpt lat="38.1467717" lon="15.741345"><ele>649.6</ele><time>2026-04-25T12:42:43.659Z</time></trkpt><trkpt lat="38.1467117" lon="15.74125"><ele>649.4000000000001</ele><time>2026-04-25T12:42:44.66Z</time></trkpt><trkpt lat="38.1466483" lon="15.741155"><ele>649.2</ele><time>2026-04-25T12:42:45.66Z</time></trkpt><trkpt lat="38.1465733" lon="15.74107"><ele>649.0</ele><time>2026-04-25T12:42:46.659Z</time></trkpt><trkpt lat="38.1464767" lon="15.7409833"><ele>650.4000000000001</ele><time>2026-04-25T12:42:47.66Z</time></trkpt><trkpt lat="38.1463767" lon="15.74091"><ele>651.8</ele><time>2026-04-25T12:42:48.659Z</time></trkpt><trkpt lat="38.14628" lon="15.7408567"><ele>653.2</ele><time>2026-04-25T12:42:49.659Z</time></trkpt><trkpt lat="38.14619" lon="15.74081"><ele>654.5999999999999</ele><time>2026-04-25T12:42:50.659Z</time></trkpt><trkpt lat="38.1461033" lon="15.7407867"><ele>656.0</ele><time>2026-04-25T12:42:51.659Z</time></trkpt><trkpt lat="38.14602" lon="15.7407667"><ele>656.0</ele><time>2026-04-25T12:42:52.659Z</time></trkpt><trkpt lat="38.1459467" lon="15.7407483"><ele>656.0</ele><time>2026-04-25T12:42:53.66Z</time></trkpt><trkpt lat="38.145885" lon="15.740715"><ele>656.0</ele><time>2026-04-25T12:42:54.659Z</time></trkpt><trkpt lat="38.1458167" lon="15.7406833"><ele>656.0</ele><time>2026-04-25T12:42:55.66Z</time></trkpt><trkpt lat="38.1457417" lon="15.7406517"><ele>656.0</ele><time>2026-04-25T12:42:56.659Z</time></trkpt><trkpt lat="38.1456617" lon="15.7406217"><ele>656.0</ele><time>2026-04-25T12:42:57.659Z</time></trkpt><trkpt lat="38.1455667" lon="15.7405833"><ele>658.5999999999999</ele><time>2026-04-25T12:42:58.659Z</time></trkpt><trkpt lat="38.1454683" lon="15.7405583"><ele>661.2</ele><time>2026-04-25T12:42:59.659Z</time></trkpt><trkpt lat="38.1453483" lon="15.740545"><ele>663.8</ele><time>2026-04-25T12:43:00.659Z</time></trkpt><trkpt lat="38.1452367" lon="15.7405467"><ele>666.4000000000001</ele><time>2026-04-25T12:43:01.659Z</time></trkpt><trkpt lat="38.1451267" lon="15.7405617"><ele>669.0</ele><time>2026-04-25T12:43:02.659Z</time></trkpt><trkpt lat="38.1450217" lon="15.7405817"><ele>669.0</ele><time>2026-04-25T12:43:03.659Z</time></trkpt><trkpt lat="38.1449183" lon="15.7406"><ele>669.0</ele><time>2026-04-25T12:43:04.659Z</time></trkpt><trkpt lat="38.14483" lon="15.7406367"><ele>669.0</ele><time>2026-04-25T12:43:05.659Z</time></trkpt><trkpt lat="38.1447617" lon="15.7406733"><ele>669.0</ele><time>2026-04-25T12:43:06.659Z</time></trkpt><trkpt lat="38.144665" lon="15.7407133"><ele>669.0</ele><time>2026-04-25T12:43:08.66Z</time></trkpt><trkpt lat="38.144595" lon="15.740765"><ele>672.3333333333334</ele><time>2026-04-25T12:43:47.66Z</time></trkpt><trkpt lat="38.144535" lon="15.7407983"><ele>675.6666666666666</ele><time>2026-04-25T12:43:49.659Z</time></trkpt><trkpt lat="38.1444717" lon="15.7408183"><ele>679.0</ele><time>2026-04-25T12:43:51.659Z</time></trkpt><trkpt lat="38.1443883" lon="15.7407883"><ele>682.3333333333333</ele><time>2026-04-25T12:43:54.659Z</time></trkpt><trkpt lat="38.1443083" lon="15.7406667"><ele>685.6666666666666</ele><time>2026-04-25T12:43:56.66Z</time></trkpt><trkpt lat="38.1442483" lon="15.7405817"><ele>689.0</ele><time>2026-04-25T12:43:57.659Z</time></trkpt><trkpt lat="38.1441867" lon="15.7404933"><ele>689.0</ele><time>2026-04-25T12:43:58.66Z</time></trkpt><trkpt lat="38.144115" lon="15.74042"><ele>689.0</ele><time>2026-04-25T12:43:59.659Z</time></trkpt><trkpt lat="38.1440333" lon="15.7403583"><ele>689.0</ele><time>2026-04-25T12:44:00.659Z</time></trkpt><trkpt lat="38.1439467" lon="15.7403183"><ele>689.0</ele><time>2026-04-25T12:44:01.659Z</time></trkpt><trkpt lat="38.143855" lon="15.740295"><ele>689.0</ele><time>2026-04-25T12:44:02.66Z</time></trkpt><trkpt lat="38.1437767" lon="15.7402783"><ele>691.5</ele><time>2026-04-25T12:44:03.659Z</time></trkpt><trkpt lat="38.1437133" lon="15.7402633"><ele>694.0</ele><time>2026-04-25T12:44:04.659Z</time></trkpt><trkpt lat="38.1436183" lon="15.7401983"><ele>696.5</ele><time>2026-04-25T12:44:06.659Z</time></trkpt><trkpt lat="38.1436033" lon="15.7400767"><ele>699.0</ele><time>2026-04-25T12:44:08.659Z</time></trkpt><trkpt lat="38.14362" lon="15.7399933"><ele>701.5</ele><time>2026-04-25T12:44:09.659Z</time></trkpt><trkpt lat="38.143655" lon="15.7399083"><ele>704.0</ele><time>2026-04-25T12:44:10.659Z</time></trkpt><trkpt lat="38.14369" lon="15.7398217"><ele>704.0</ele><time>2026-04-25T12:44:11.659Z</time></trkpt><trkpt lat="38.143695" lon="15.739735"><ele>704.0</ele><time>2026-04-25T12:44:12.659Z</time></trkpt><trkpt lat="38.1436917" lon="15.7396433"><ele>704.0</ele><time>2026-04-25T12:44:13.66Z</time></trkpt><trkpt lat="38.1436867" lon="15.7395383"><ele>704.0</ele><time>2026-04-25T12:44:14.659Z</time></trkpt><trkpt lat="38.14368" lon="15.73943"><ele>704.0</ele><time>2026-04-25T12:44:15.659Z</time></trkpt><trkpt lat="38.1436683" lon="15.7393267"><ele>704.0</ele><time>2026-04-25T12:44:16.659Z</time></trkpt><trkpt lat="38.1436467" lon="15.7392267"><ele>703.6</ele><time>2026-04-25T12:44:17.66Z</time></trkpt><trkpt lat="38.1436267" lon="15.739145"><ele>703.2</ele><time>2026-04-25T12:44:18.659Z</time></trkpt><trkpt lat="38.1436117" lon="15.7390067"><ele>702.8000000000001</ele><time>2026-04-25T12:44:20.66Z</time></trkpt><trkpt lat="38.1436367" lon="15.7388417"><ele>702.4000000000001</ele><time>2026-04-25T12:44:22.659Z</time></trkpt><trkpt lat="38.14367" lon="15.738725"><ele>702.0</ele><time>2026-04-25T12:44:23.66Z</time></trkpt><trkpt lat="38.1437117" lon="15.73861"><ele>701.7142857142858</ele><time>2026-04-25T12:44:24.659Z</time></trkpt><trkpt lat="38.143765" lon="15.7385183"><ele>701.4285714285714</ele><time>2026-04-25T12:44:25.659Z</time></trkpt><trkpt lat="38.1438183" lon="15.738435"><ele>701.1428571428571</ele><time>2026-04-25T12:44:26.659Z</time></trkpt><trkpt lat="38.1438683" lon="15.738385"><ele>700.8571428571429</ele><time>2026-04-25T12:44:27.659Z</time></trkpt><trkpt lat="38.143935" lon="15.7383583"><ele>700.5714285714286</ele><time>2026-04-25T12:44:28.659Z</time></trkpt><trkpt lat="38.143995" lon="15.7383233"><ele>700.2857142857143</ele><time>2026-04-25T12:44:29.659Z</time></trkpt><trkpt lat="38.1440517" lon="15.7382867"><ele>700.0</ele><time>2026-04-25T12:44:30.66Z</time></trkpt><trkpt lat="38.1440867" lon="15.7382183"><ele>700.0</ele><time>2026-04-25T12:44:33.66Z</time></trkpt><trkpt lat="38.1440217" lon="15.7382067"><ele>700.0</ele><time>2026-04-25T12:44:36.659Z</time></trkpt><trkpt lat="38.14394" lon="15.738185"><ele>700.0</ele><time>2026-04-25T12:44:38.66Z</time></trkpt><trkpt lat="38.14387" lon="15.738145"><ele>700.0</ele><time>2026-04-25T12:44:41.66Z</time></trkpt><trkpt lat="38.1439317" lon="15.73812"><ele>700.0</ele><time>2026-04-25T12:45:47.66Z</time></trkpt><trkpt lat="38.1440117" lon="15.7381033"><ele>700.0</ele><time>2026-04-25T12:45:49.659Z</time></trkpt><trkpt lat="38.144115" lon="15.7380683"><ele>701.5</ele><time>2026-04-25T12:45:51.659Z</time></trkpt><trkpt lat="38.14418" lon="15.7380433"><ele>703.0</ele><time>2026-04-25T12:45:52.66Z</time></trkpt><trkpt lat="38.1442417" lon="15.7380183"><ele>704.5</ele><time>2026-04-25T12:45:53.659Z</time></trkpt><trkpt lat="38.1443017" lon="15.7379883"><ele>706.0</ele><time>2026-04-25T12:45:54.659Z</time></trkpt><trkpt lat="38.1444117" lon="15.7379133"><ele>707.5</ele><time>2026-04-25T12:45:56.659Z</time></trkpt><trkpt lat="38.1444683" lon="15.737865"><ele>709.0</ele><time>2026-04-25T12:45:57.659Z</time></trkpt><trkpt lat="38.1445217" lon="15.7378017"><ele>709.0000000000001</ele><time>2026-04-25T12:45:58.659Z</time></trkpt><trkpt lat="38.1445717" lon="15.73774"><ele>709.0</ele><time>2026-04-25T12:45:59.659Z</time></trkpt><trkpt lat="38.1446167" lon="15.7376517"><ele>709.0</ele><time>2026-04-25T12:46:00.659Z</time></trkpt><trkpt lat="38.1446417" lon="15.7375583"><ele>709.0</ele><time>2026-04-25T12:46:01.659Z</time></trkpt><trkpt lat="38.1446517" lon="15.7374683"><ele>709.0</ele><time>2026-04-25T12:46:02.659Z</time></trkpt><trkpt lat="38.1446567" lon="15.7373733"><ele>709.0000000000001</ele><time>2026-04-25T12:46:03.659Z</time></trkpt><trkpt lat="38.1446517" lon="15.73729"><ele>709.0</ele><time>2026-04-25T12:46:04.659Z</time></trkpt><trkpt lat="38.1446283" lon="15.7371467"><ele>707.75</ele><time>2026-04-25T12:46:06.659Z</time></trkpt><trkpt lat="38.144605" lon="15.7370267"><ele>706.5</ele><time>2026-04-25T12:46:08.659Z</time></trkpt><trkpt lat="38.1445817" lon="15.736885"><ele>705.25</ele><time>2026-04-25T12:46:10.659Z</time></trkpt><trkpt lat="38.1445767" lon="15.7367283"><ele>704.0</ele><time>2026-04-25T12:46:12.659Z</time></trkpt><trkpt lat="38.14458" lon="15.7365583"><ele>704.0</ele><time>2026-04-25T12:46:14.659Z</time></trkpt><trkpt lat="38.1445717" lon="15.7364683"><ele>704.0</ele><time>2026-04-25T12:46:15.659Z</time></trkpt><trkpt lat="38.144575" lon="15.7363683"><ele>704.0</ele><time>2026-04-25T12:46:16.659Z</time></trkpt><trkpt lat="38.144575" lon="15.73626"><ele>704.0</ele><time>2026-04-25T12:46:17.659Z</time></trkpt><trkpt lat="38.144585" lon="15.736165"><ele>704.0</ele><time>2026-04-25T12:46:18.659Z</time></trkpt><trkpt lat="38.1446" lon="15.7360733"><ele>704.0</ele><time>2026-04-25T12:46:19.659Z</time></trkpt><trkpt lat="38.144605" lon="15.7359883"><ele>703.1428571428571</ele><time>2026-04-25T12:46:20.659Z</time></trkpt><trkpt lat="38.144615" lon="15.7359033"><ele>702.2857142857142</ele><time>2026-04-25T12:46:21.66Z</time></trkpt><trkpt lat="38.1446317" lon="15.7358217"><ele>701.4285714285713</ele><time>2026-04-25T12:46:22.659Z</time></trkpt><trkpt lat="38.1446467" lon="15.735725"><ele>700.5714285714286</ele><time>2026-04-25T12:46:23.659Z</time></trkpt><trkpt lat="38.14466" lon="15.7356233"><ele>699.7142857142857</ele><time>2026-04-25T12:46:24.659Z</time></trkpt><trkpt lat="38.1446733" lon="15.7355183"><ele>698.8571428571428</ele><time>2026-04-25T12:46:25.659Z</time></trkpt><trkpt lat="38.1446667" lon="15.7354317"><ele>698.0</ele><time>2026-04-25T12:46:26.659Z</time></trkpt><trkpt lat="38.1446433" lon="15.7353483"><ele>698.0</ele><time>2026-04-25T12:46:27.66Z</time></trkpt><trkpt lat="38.1446017" lon="15.7352767"><ele>698.0</ele><time>2026-04-25T12:46:28.659Z</time></trkpt><trkpt lat="38.144555" lon="15.73521"><ele>698.0</ele><time>2026-04-25T12:46:29.659Z</time></trkpt><trkpt lat="38.1445" lon="15.735135"><ele>698.0</ele><time>2026-04-25T12:46:30.659Z</time></trkpt><trkpt lat="38.1444467" lon="15.7350517"><ele>698.0</ele><time>2026-04-25T12:46:31.66Z</time></trkpt><trkpt lat="38.144395" lon="15.7349583"><ele>698.0</ele><time>2026-04-25T12:46:32.659Z</time></trkpt><trkpt lat="38.1443383" lon="15.734855"><ele>699.0</ele><time>2026-04-25T12:46:33.659Z</time></trkpt><trkpt lat="38.1442767" lon="15.7347683"><ele>700.0</ele><time>2026-04-25T12:46:34.659Z</time></trkpt><trkpt lat="38.144235" lon="15.7346967"><ele>701.0</ele><time>2026-04-25T12:46:35.659Z</time></trkpt><trkpt lat="38.14418" lon="15.7346"><ele>702.0</ele><time>2026-04-25T12:46:37.659Z</time></trkpt><trkpt lat="38.144175" lon="15.7344817"><ele>703.0</ele><time>2026-04-25T12:46:40.66Z</time></trkpt><trkpt lat="38.1441717" lon="15.7343517"><ele>704.0</ele><time>2026-04-25T12:46:42.66Z</time></trkpt><trkpt lat="38.1441483" lon="15.7341933"><ele>705.0</ele><time>2026-04-25T12:46:44.66Z</time></trkpt><trkpt lat="38.1441367" lon="15.7341067"><ele>706.0</ele><time>2026-04-25T12:46:45.659Z</time></trkpt><trkpt lat="38.14413" lon="15.734025"><ele>707.0</ele><time>2026-04-25T12:46:46.659Z</time></trkpt><trkpt lat="38.1441167" lon="15.733945"><ele>708.0</ele><time>2026-04-25T12:46:47.659Z</time></trkpt><trkpt lat="38.1441133" lon="15.73381"><ele>709.0</ele><time>2026-04-25T12:46:49.659Z</time></trkpt><trkpt lat="38.1440983" lon="15.733715"><ele>709.0</ele><time>2026-04-25T12:46:51.66Z</time></trkpt><trkpt lat="38.1440717" lon="15.733635"><ele>709.0</ele><time>2026-04-25T12:46:53.659Z</time></trkpt><trkpt lat="38.1440283" lon="15.733505"><ele>709.0</ele><time>2026-04-25T12:46:55.659Z</time></trkpt><trkpt lat="38.1440017" lon="15.7334017"><ele>709.0</ele><time>2026-04-25T12:46:56.659Z</time></trkpt><trkpt lat="38.143975" lon="15.733295"><ele>709.0</ele><time>2026-04-25T12:46:57.659Z</time></trkpt><trkpt lat="38.1439417" lon="15.7331817"><ele>709.0</ele><time>2026-04-25T12:46:58.66Z</time></trkpt><trkpt lat="38.143905" lon="15.733075"><ele>704.4000000000001</ele><time>2026-04-25T12:46:59.659Z</time></trkpt><trkpt lat="38.1438683" lon="15.73297"><ele>699.8</ele><time>2026-04-25T12:47:00.659Z</time></trkpt><trkpt lat="38.1438383" lon="15.7328517"><ele>695.2</ele><time>2026-04-25T12:47:01.659Z</time></trkpt><trkpt lat="38.1438133" lon="15.732725"><ele>690.5999999999999</ele><time>2026-04-25T12:47:02.659Z</time></trkpt><trkpt lat="38.1437917" lon="15.7326067"><ele>686.0</ele><time>2026-04-25T12:47:03.659Z</time></trkpt><trkpt lat="38.143785" lon="15.7324733"><ele>686.0</ele><time>2026-04-25T12:47:04.659Z</time></trkpt><trkpt lat="38.14378" lon="15.7323467"><ele>686.0</ele><time>2026-04-25T12:47:05.659Z</time></trkpt><trkpt lat="38.14378" lon="15.7322267"><ele>686.0</ele><time>2026-04-25T12:47:06.659Z</time></trkpt><trkpt lat="38.1437817" lon="15.7321333"><ele>686.0</ele><time>2026-04-25T12:47:07.659Z</time></trkpt><trkpt lat="38.1437867" lon="15.7320333"><ele>686.0</ele><time>2026-04-25T12:47:08.659Z</time></trkpt><trkpt lat="38.1438" lon="15.73193"><ele>686.0</ele><time>2026-04-25T12:47:09.66Z</time></trkpt><trkpt lat="38.1438067" lon="15.731845"><ele>686.8</ele><time>2026-04-25T12:47:10.659Z</time></trkpt><trkpt lat="38.1437883" lon="15.73172"><ele>687.5999999999999</ele><time>2026-04-25T12:47:12.66Z</time></trkpt><trkpt lat="38.1437467" lon="15.7316167"><ele>688.4</ele><time>2026-04-25T12:47:14.659Z</time></trkpt><trkpt lat="38.1436767" lon="15.731485"><ele>689.2</ele><time>2026-04-25T12:47:16.659Z</time></trkpt><trkpt lat="38.1436417" lon="15.7314067"><ele>690.0</ele><time>2026-04-25T12:47:17.659Z</time></trkpt><trkpt lat="38.14357" lon="15.7312767"><ele>690.0</ele><time>2026-04-25T12:47:19.659Z</time></trkpt><trkpt lat="38.1435133" lon="15.7311317"><ele>690.0</ele><time>2026-04-25T12:47:21.659Z</time></trkpt><trkpt lat="38.1434433" lon="15.7310117"><ele>690.0</ele><time>2026-04-25T12:47:23.659Z</time></trkpt><trkpt lat="38.143425" lon="15.7309083"><ele>690.0</ele><time>2026-04-25T12:47:25.659Z</time></trkpt><trkpt lat="38.1434467" lon="15.730785"><ele>690.0</ele><time>2026-04-25T12:47:27.659Z</time></trkpt><trkpt lat="38.1434883" lon="15.7306883"><ele>688.6666666666666</ele><time>2026-04-25T12:47:29.659Z</time></trkpt><trkpt lat="38.1434933" lon="15.7305733"><ele>687.3333333333334</ele><time>2026-04-25T12:47:32.659Z</time></trkpt><trkpt lat="38.1434233" lon="15.730545"><ele>686.0</ele><time>2026-04-25T12:47:39.659Z</time></trkpt><trkpt lat="38.143345" lon="15.7305767"><ele>684.6666666666667</ele><time>2026-04-25T12:47:46.659Z</time></trkpt><trkpt lat="38.14327" lon="15.7306467"><ele>683.3333333333334</ele><time>2026-04-25T12:47:49.66Z</time></trkpt><trkpt lat="38.1432267" lon="15.7307233"><ele>682.0</ele><time>2026-04-25T12:47:51.66Z</time></trkpt><trkpt lat="38.1432" lon="15.7307967"><ele>682.0</ele><time>2026-04-25T12:47:53.659Z</time></trkpt><trkpt lat="38.1432583" lon="15.7306833"><ele>682.0</ele><time>2026-04-25T12:48:14.659Z</time></trkpt><trkpt lat="38.14332" lon="15.730585"><ele>682.0</ele><time>2026-04-25T12:48:16.659Z</time></trkpt><trkpt lat="38.1433917" lon="15.7305333"><ele>682.0</ele><time>2026-04-25T12:48:18.659Z</time></trkpt><trkpt lat="38.1434633" lon="15.73051"><ele>682.0</ele><time>2026-04-25T12:48:20.659Z</time></trkpt><trkpt lat="38.143535" lon="15.730445"><ele>682.0</ele><time>2026-04-25T12:48:27.659Z</time></trkpt><trkpt lat="38.1435933" lon="15.7303833"><ele>682.0</ele><time>2026-04-25T12:48:29.659Z</time></trkpt><trkpt lat="38.143635" lon="15.7303217"><ele>682.0</ele><time>2026-04-25T12:48:31.659Z</time></trkpt><trkpt lat="38.143685" lon="15.730255"><ele>682.0</ele><time>2026-04-25T12:48:34.659Z</time></trkpt><trkpt lat="38.143695" lon="15.7301733"><ele>682.0</ele><time>2026-04-25T12:48:37.66Z</time></trkpt><trkpt lat="38.1437333" lon="15.730075"><ele>682.0</ele><time>2026-04-25T12:48:40.66Z</time></trkpt><trkpt lat="38.143795" lon="15.7299817"><ele>679.3333333333334</ele><time>2026-04-25T12:48:43.659Z</time></trkpt><trkpt lat="38.1438467" lon="15.7299033"><ele>676.6666666666667</ele><time>2026-04-25T12:48:45.66Z</time></trkpt><trkpt lat="38.143895" lon="15.7298167"><ele>674.0</ele><time>2026-04-25T12:48:47.659Z</time></trkpt><trkpt lat="38.1439417" lon="15.729735"><ele>671.3333333333334</ele><time>2026-04-25T12:48:49.659Z</time></trkpt><trkpt lat="38.1440117" lon="15.7296583"><ele>668.6666666666666</ele><time>2026-04-25T12:48:52.659Z</time></trkpt><trkpt lat="38.1440467" lon="15.72959"><ele>666.0</ele><time>2026-04-25T12:48:54.659Z</time></trkpt><trkpt lat="38.1440933" lon="15.729525"><ele>666.8571428571429</ele><time>2026-04-25T12:48:56.659Z</time></trkpt><trkpt lat="38.144145" lon="15.7294717"><ele>667.7142857142857</ele><time>2026-04-25T12:48:58.66Z</time></trkpt><trkpt lat="38.14418" lon="15.72939"><ele>668.5714285714286</ele><time>2026-04-25T12:49:00.659Z</time></trkpt><trkpt lat="38.1442067" lon="15.7293133"><ele>669.4285714285714</ele><time>2026-04-25T12:49:02.66Z</time></trkpt><trkpt lat="38.1442517" lon="15.7292517"><ele>670.2857142857142</ele><time>2026-04-25T12:49:05.659Z</time></trkpt><trkpt lat="38.144305" lon="15.7291717"><ele>671.1428571428571</ele><time>2026-04-25T12:49:09.659Z</time></trkpt><trkpt lat="38.1443533" lon="15.7290733"><ele>672.0</ele><time>2026-04-25T12:49:12.659Z</time></trkpt><trkpt lat="38.1443967" lon="15.72901"><ele>672.0</ele><time>2026-04-25T12:49:14.659Z</time></trkpt><trkpt lat="38.1444567" lon="15.7289183"><ele>672.0</ele><time>2026-04-25T12:49:17.659Z</time></trkpt><trkpt lat="38.14453" lon="15.728865"><ele>672.0</ele><time>2026-04-25T12:49:19.659Z</time></trkpt><trkpt lat="38.1446133" lon="15.7288167"><ele>672.0</ele><time>2026-04-25T12:49:21.66Z</time></trkpt><trkpt lat="38.1446883" lon="15.7287533"><ele>672.0</ele><time>2026-04-25T12:49:23.659Z</time></trkpt><trkpt lat="38.1447667" lon="15.7286617"><ele>672.0</ele><time>2026-04-25T12:49:25.659Z</time></trkpt><trkpt lat="38.1448217" lon="15.72861"><ele>672.0</ele><time>2026-04-25T12:49:26.66Z</time></trkpt><trkpt lat="38.1448683" lon="15.728555"><ele>672.0</ele><time>2026-04-25T12:49:27.659Z</time></trkpt><trkpt lat="38.144925" lon="15.7284217"><ele>672.0</ele><time>2026-04-25T12:49:29.66Z</time></trkpt><trkpt lat="38.144975" lon="15.7282633"><ele>672.0</ele><time>2026-04-25T12:49:31.659Z</time></trkpt><trkpt lat="38.1450217" lon="15.7281717"><ele>671.6666666666666</ele><time>2026-04-25T12:49:32.659Z</time></trkpt><trkpt lat="38.1450833" lon="15.7280667"><ele>671.3333333333334</ele><time>2026-04-25T12:49:33.66Z</time></trkpt><trkpt lat="38.1451433" lon="15.7279617"><ele>671.0</ele><time>2026-04-25T12:49:34.66Z</time></trkpt><trkpt lat="38.145195" lon="15.727865"><ele>670.6666666666667</ele><time>2026-04-25T12:49:35.659Z</time></trkpt><trkpt lat="38.1452333" lon="15.7277833"><ele>670.3333333333334</ele><time>2026-04-25T12:49:36.66Z</time></trkpt><trkpt lat="38.1452767" lon="15.7277117"><ele>670.0</ele><time>2026-04-25T12:49:37.66Z</time></trkpt><trkpt lat="38.1453317" lon="15.7276417"><ele>670.0</ele><time>2026-04-25T12:49:38.659Z</time></trkpt><trkpt lat="38.1453883" lon="15.7275783"><ele>670.0</ele><time>2026-04-25T12:49:39.659Z</time></trkpt><trkpt lat="38.145475" lon="15.72752"><ele>670.0</ele><time>2026-04-25T12:49:41.659Z</time></trkpt><trkpt lat="38.1455367" lon="15.7274767"><ele>670.0</ele><time>2026-04-25T12:50:02.659Z</time></trkpt><trkpt lat="38.14558" lon="15.727365"><ele>670.0</ele><time>2026-04-25T12:50:04.659Z</time></trkpt><trkpt lat="38.14562" lon="15.727235"><ele>670.0</ele><time>2026-04-25T12:50:06.659Z</time></trkpt><trkpt lat="38.14566" lon="15.7271083"><ele>670.0</ele><time>2026-04-25T12:50:08.659Z</time></trkpt><trkpt lat="38.145695" lon="15.72697"><ele>670.0</ele><time>2026-04-25T12:50:10.659Z</time></trkpt><trkpt lat="38.1457133" lon="15.7268833"><ele>670.0</ele><time>2026-04-25T12:50:11.66Z</time></trkpt><trkpt lat="38.145745" lon="15.7267817"><ele>670.0</ele><time>2026-04-25T12:50:12.659Z</time></trkpt><trkpt lat="38.1457717" lon="15.726705"><ele>670.0</ele><time>2026-04-25T12:50:13.659Z</time></trkpt><trkpt lat="38.1458183" lon="15.7265633"><ele>669.8</ele><time>2026-04-25T12:50:15.66Z</time></trkpt><trkpt lat="38.145855" lon="15.72642"><ele>669.6</ele><time>2026-04-25T12:50:17.659Z</time></trkpt><trkpt lat="38.1458783" lon="15.7263317"><ele>669.4000000000001</ele><time>2026-04-25T12:50:18.66Z</time></trkpt><trkpt lat="38.1459033" lon="15.7262483"><ele>669.2</ele><time>2026-04-25T12:50:19.66Z</time></trkpt><trkpt lat="38.1459483" lon="15.7261167"><ele>669.0</ele><time>2026-04-25T12:50:21.659Z</time></trkpt><trkpt lat="38.1459917" lon="15.72602"><ele>669.0</ele><time>2026-04-25T12:50:23.659Z</time></trkpt><trkpt lat="38.1460683" lon="15.7260333"><ele>669.0</ele><time>2026-04-25T12:50:27.659Z</time></trkpt><trkpt lat="38.1461117" lon="15.7261217"><ele>669.0</ele><time>2026-04-25T12:50:29.659Z</time></trkpt><trkpt lat="38.1461967" lon="15.726235"><ele>669.0</ele><time>2026-04-25T12:50:31.659Z</time></trkpt><trkpt lat="38.14625" lon="15.72629"><ele>669.0</ele><time>2026-04-25T12:50:32.66Z</time></trkpt><trkpt lat="38.14632" lon="15.7263333"><ele>669.0</ele><time>2026-04-25T12:50:33.659Z</time></trkpt><trkpt lat="38.1464" lon="15.7263567"><ele>669.25</ele><time>2026-04-25T12:50:34.659Z</time></trkpt><trkpt lat="38.1465233" lon="15.7263883"><ele>669.5</ele><time>2026-04-25T12:50:35.659Z</time></trkpt><trkpt lat="38.1466483" lon="15.7264417"><ele>669.75</ele><time>2026-04-25T12:50:36.66Z</time></trkpt><trkpt lat="38.1467883" lon="15.726515"><ele>670.0</ele><time>2026-04-25T12:50:37.659Z</time></trkpt><trkpt lat="38.1469117" lon="15.72659"><ele>670.0</ele><time>2026-04-25T12:50:38.659Z</time></trkpt><trkpt lat="38.1470383" lon="15.7266733"><ele>670.0</ele><time>2026-04-25T12:50:39.659Z</time></trkpt><trkpt lat="38.1471683" lon="15.7267433"><ele>670.0</ele><time>2026-04-25T12:50:40.659Z</time></trkpt><trkpt lat="38.1473033" lon="15.7267967"><ele>670.0</ele><time>2026-04-25T12:50:41.66Z</time></trkpt><trkpt lat="38.1474333" lon="15.7268433"><ele>671.5</ele><time>2026-04-25T12:50:42.66Z</time></trkpt><trkpt lat="38.14757" lon="15.7268983"><ele>673.0</ele><time>2026-04-25T12:50:43.659Z</time></trkpt><trkpt lat="38.1477083" lon="15.72698"><ele>674.5</ele><time>2026-04-25T12:50:44.659Z</time></trkpt><trkpt lat="38.1478383" lon="15.7270817"><ele>676.0</ele><time>2026-04-25T12:50:45.659Z</time></trkpt><trkpt lat="38.1479617" lon="15.7271917"><ele>676.0</ele><time>2026-04-25T12:50:46.659Z</time></trkpt><trkpt lat="38.1481" lon="15.7273"><ele>676.0</ele><time>2026-04-25T12:50:47.659Z</time></trkpt><trkpt lat="38.1482567" lon="15.72739"><ele>676.0</ele><time>2026-04-25T12:50:48.659Z</time></trkpt><trkpt lat="38.1484167" lon="15.7274633"><ele>672.5</ele><time>2026-04-25T12:50:49.659Z</time></trkpt><trkpt lat="38.1485617" lon="15.7275217"><ele>669.0</ele><time>2026-04-25T12:50:50.659Z</time></trkpt><trkpt lat="38.1487117" lon="15.7275617"><ele>665.5</ele><time>2026-04-25T12:50:51.66Z</time></trkpt><trkpt lat="38.14885" lon="15.72761"><ele>662.0</ele><time>2026-04-25T12:50:52.659Z</time></trkpt><trkpt lat="38.14898" lon="15.7276933"><ele>664.0</ele><time>2026-04-25T12:50:53.659Z</time></trkpt><trkpt lat="38.149115" lon="15.7278067"><ele>666.0</ele><time>2026-04-25T12:50:54.659Z</time></trkpt><trkpt lat="38.14924" lon="15.7279417"><ele>668.0</ele><time>2026-04-25T12:50:55.659Z</time></trkpt><trkpt lat="38.1493417" lon="15.728085"><ele>668.0</ele><time>2026-04-25T12:50:56.659Z</time></trkpt><trkpt lat="38.1494267" lon="15.72825"><ele>668.0</ele><time>2026-04-25T12:50:57.659Z</time></trkpt><trkpt lat="38.1494983" lon="15.72842"><ele>668.0</ele><time>2026-04-25T12:50:58.659Z</time></trkpt><trkpt lat="38.1495817" lon="15.7286033"><ele>667.3333333333333</ele><time>2026-04-25T12:50:59.659Z</time></trkpt><trkpt lat="38.1496767" lon="15.7287683"><ele>666.6666666666666</ele><time>2026-04-25T12:51:00.659Z</time></trkpt><trkpt lat="38.149795" lon="15.72892"><ele>666.0</ele><time>2026-04-25T12:51:01.659Z</time></trkpt><trkpt lat="38.149925" lon="15.7290483"><ele>666.0</ele><time>2026-04-25T12:51:02.659Z</time></trkpt><trkpt lat="38.1500667" lon="15.7291633"><ele>666.0</ele><time>2026-04-25T12:51:03.66Z</time></trkpt><trkpt lat="38.1502317" lon="15.7292717"><ele>666.0</ele><time>2026-04-25T12:51:04.659Z</time></trkpt><trkpt lat="38.150385" lon="15.72935"><ele>667.5</ele><time>2026-04-25T12:51:05.659Z</time></trkpt><trkpt lat="38.1505417" lon="15.7294183"><ele>669.0</ele><time>2026-04-25T12:51:06.659Z</time></trkpt><trkpt lat="38.1506583" lon="15.729455"><ele>670.5</ele><time>2026-04-25T12:51:07.66Z</time></trkpt><trkpt lat="38.15074" lon="15.7294683"><ele>672.0</ele><time>2026-04-25T12:51:08.659Z</time></trkpt><trkpt lat="38.1508317" lon="15.7294133"><ele>671.8</ele><time>2026-04-25T12:51:10.659Z</time></trkpt><trkpt lat="38.1508633" lon="15.7293333"><ele>671.6</ele><time>2026-04-25T12:51:13.659Z</time></trkpt><trkpt lat="38.1508867" lon="15.7292133"><ele>671.4</ele><time>2026-04-25T12:51:16.659Z</time></trkpt><trkpt lat="38.1508933" lon="15.7290417"><ele>671.1999999999999</ele><time>2026-04-25T12:51:18.659Z</time></trkpt><trkpt lat="38.1508967" lon="15.7289233"><ele>671.0</ele><time>2026-04-25T12:51:19.66Z</time></trkpt><trkpt lat="38.1509083" lon="15.72878"><ele>671.0</ele><time>2026-04-25T12:51:20.659Z</time></trkpt><trkpt lat="38.15092" lon="15.72862"><ele>671.0</ele><time>2026-04-25T12:51:21.66Z</time></trkpt><trkpt lat="38.1509217" lon="15.72846"><ele>671.0</ele><time>2026-04-25T12:51:22.659Z</time></trkpt><trkpt lat="38.1509017" lon="15.728295"><ele>671.0</ele><time>2026-04-25T12:51:23.66Z</time></trkpt><trkpt lat="38.15087" lon="15.7281317"><ele>670.0</ele><time>2026-04-25T12:51:24.66Z</time></trkpt><trkpt lat="38.1508167" lon="15.7279783"><ele>669.0</ele><time>2026-04-25T12:51:25.659Z</time></trkpt><trkpt lat="38.1507517" lon="15.7278167"><ele>668.0</ele><time>2026-04-25T12:51:26.66Z</time></trkpt><trkpt lat="38.1507" lon="15.7276583"><ele>667.0</ele><time>2026-04-25T12:51:27.659Z</time></trkpt><trkpt lat="38.1506667" lon="15.72749"><ele>663.75</ele><time>2026-04-25T12:51:28.659Z</time></trkpt><trkpt lat="38.1506517" lon="15.7273"><ele>660.5</ele><time>2026-04-25T12:51:29.66Z</time></trkpt><trkpt lat="38.1506433" lon="15.72712"><ele>657.25</ele><time>2026-04-25T12:51:30.659Z</time></trkpt><trkpt lat="38.150615" lon="15.7269433"><ele>654.0</ele><time>2026-04-25T12:51:31.659Z</time></trkpt><trkpt lat="38.150575" lon="15.726765"><ele>654.0</ele><time>2026-04-25T12:51:32.66Z</time></trkpt><trkpt lat="38.1505367" lon="15.726595"><ele>654.0</ele><time>2026-04-25T12:51:33.659Z</time></trkpt><trkpt lat="38.1505183" lon="15.7264417"><ele>654.0</ele><time>2026-04-25T12:51:34.659Z</time></trkpt><trkpt lat="38.150505" lon="15.7262783"><ele>654.0</ele><time>2026-04-25T12:51:35.659Z</time></trkpt><trkpt lat="38.15051" lon="15.7261117"><ele>655.25</ele><time>2026-04-25T12:51:36.659Z</time></trkpt><trkpt lat="38.150495" lon="15.7259517"><ele>656.5</ele><time>2026-04-25T12:51:37.659Z</time></trkpt><trkpt lat="38.1504567" lon="15.7257917"><ele>657.75</ele><time>2026-04-25T12:51:38.659Z</time></trkpt><trkpt lat="38.1504217" lon="15.7256283"><ele>659.0</ele><time>2026-04-25T12:51:39.66Z</time></trkpt><trkpt lat="38.1504017" lon="15.7254967"><ele>659.0</ele><time>2026-04-25T12:51:40.659Z</time></trkpt><trkpt lat="38.150405" lon="15.7253617"><ele>659.0</ele><time>2026-04-25T12:51:41.66Z</time></trkpt><trkpt lat="38.1504317" lon="15.72524"><ele>659.0</ele><time>2026-04-25T12:51:42.659Z</time></trkpt><trkpt lat="38.150475" lon="15.72514"><ele>659.0</ele><time>2026-04-25T12:51:43.659Z</time></trkpt><trkpt lat="38.1505083" lon="15.725015"><ele>659.0</ele><time>2026-04-25T12:51:44.659Z</time></trkpt><trkpt lat="38.1505167" lon="15.724895"><ele>661.0</ele><time>2026-04-25T12:51:45.659Z</time></trkpt><trkpt lat="38.1504883" lon="15.7247883"><ele>663.0</ele><time>2026-04-25T12:51:46.66Z</time></trkpt><trkpt lat="38.15044" lon="15.7246867"><ele>665.0</ele><time>2026-04-25T12:51:47.659Z</time></trkpt><trkpt lat="38.1503567" lon="15.7245883"><ele>667.0</ele><time>2026-04-25T12:51:48.659Z</time></trkpt><trkpt lat="38.1502967" lon="15.7244883"><ele>669.0</ele><time>2026-04-25T12:51:49.659Z</time></trkpt><trkpt lat="38.1502517" lon="15.7243633"><ele>672.4000000000001</ele><time>2026-04-25T12:51:50.66Z</time></trkpt><trkpt lat="38.1502217" lon="15.7242433"><ele>675.8</ele><time>2026-04-25T12:51:51.659Z</time></trkpt><trkpt lat="38.150215" lon="15.7241283"><ele>679.2</ele><time>2026-04-25T12:51:52.659Z</time></trkpt><trkpt lat="38.1502117" lon="15.7240333"><ele>682.5999999999999</ele><time>2026-04-25T12:51:53.659Z</time></trkpt><trkpt lat="38.1502333" lon="15.7239067"><ele>686.0</ele><time>2026-04-25T12:51:55.659Z</time></trkpt><trkpt lat="38.15034" lon="15.723875"><ele>686.0</ele><time>2026-04-25T12:51:57.659Z</time></trkpt><trkpt lat="38.15041" lon="15.7238867"><ele>686.0</ele><time>2026-04-25T12:51:58.66Z</time></trkpt><trkpt lat="38.15048" lon="15.723895"><ele>686.0</ele><time>2026-04-25T12:51:59.659Z</time></trkpt><trkpt lat="38.1505483" lon="15.7238917"><ele>686.0</ele><time>2026-04-25T12:52:00.659Z</time></trkpt><trkpt lat="38.150625" lon="15.72389"><ele>686.0</ele><time>2026-04-25T12:52:01.659Z</time></trkpt><trkpt lat="38.1507033" lon="15.7238817"><ele>686.0</ele><time>2026-04-25T12:52:02.659Z</time></trkpt><trkpt lat="38.1507767" lon="15.723875"><ele>686.0</ele><time>2026-04-25T12:52:03.659Z</time></trkpt><trkpt lat="38.150855" lon="15.7238717"><ele>688.5999999999999</ele><time>2026-04-25T12:52:04.659Z</time></trkpt><trkpt lat="38.1509467" lon="15.723855"><ele>691.2</ele><time>2026-04-25T12:52:05.659Z</time></trkpt><trkpt lat="38.1510617" lon="15.72384"><ele>693.8</ele><time>2026-04-25T12:52:06.66Z</time></trkpt><trkpt lat="38.1511833" lon="15.7238183"><ele>696.4000000000001</ele><time>2026-04-25T12:52:07.659Z</time></trkpt><trkpt lat="38.1512967" lon="15.7238033"><ele>699.0</ele><time>2026-04-25T12:52:08.659Z</time></trkpt><trkpt lat="38.15141" lon="15.7237917"><ele>699.0</ele><time>2026-04-25T12:52:09.659Z</time></trkpt><trkpt lat="38.1515267" lon="15.723765"><ele>699.0</ele><time>2026-04-25T12:52:10.659Z</time></trkpt><trkpt lat="38.1516383" lon="15.723735"><ele>699.0</ele><time>2026-04-25T12:52:11.66Z</time></trkpt><trkpt lat="38.1517383" lon="15.7237117"><ele>699.0</ele><time>2026-04-25T12:52:12.659Z</time></trkpt><trkpt lat="38.1518317" lon="15.7236767"><ele>699.0</ele><time>2026-04-25T12:52:13.659Z</time></trkpt><trkpt lat="38.15191" lon="15.7236483"><ele>699.6666666666666</ele><time>2026-04-25T12:52:14.659Z</time></trkpt><trkpt lat="38.151985" lon="15.7236117"><ele>700.3333333333334</ele><time>2026-04-25T12:52:15.659Z</time></trkpt><trkpt lat="38.152055" lon="15.7235667"><ele>701.0</ele><time>2026-04-25T12:52:16.659Z</time></trkpt><trkpt lat="38.15213" lon="15.7235233"><ele>701.6666666666667</ele><time>2026-04-25T12:52:17.659Z</time></trkpt><trkpt lat="38.1522067" lon="15.7234783"><ele>702.3333333333334</ele><time>2026-04-25T12:52:18.659Z</time></trkpt><trkpt lat="38.1522767" lon="15.7234267"><ele>703.0</ele><time>2026-04-25T12:52:19.659Z</time></trkpt><trkpt lat="38.152375" lon="15.7233567"><ele>703.0</ele><time>2026-04-25T12:52:21.659Z</time></trkpt><trkpt lat="38.1524283" lon="15.72329"><ele>703.0</ele><time>2026-04-25T12:52:23.659Z</time></trkpt><trkpt lat="38.152435" lon="15.7231833"><ele>703.0</ele><time>2026-04-25T12:52:27.659Z</time></trkpt><trkpt lat="38.1524433" lon="15.7230267"><ele>703.0</ele><time>2026-04-25T12:52:29.659Z</time></trkpt><trkpt lat="38.15245" lon="15.7229167"><ele>703.0</ele><time>2026-04-25T12:52:30.659Z</time></trkpt><trkpt lat="38.1524567" lon="15.7227867"><ele>703.75</ele><time>2026-04-25T12:52:31.659Z</time></trkpt><trkpt lat="38.152465" lon="15.7226367"><ele>704.5</ele><time>2026-04-25T12:52:32.659Z</time></trkpt><trkpt lat="38.152455" lon="15.7224683"><ele>705.25</ele><time>2026-04-25T12:52:33.659Z</time></trkpt><trkpt lat="38.1524183" lon="15.722325"><ele>706.0</ele><time>2026-04-25T12:52:34.659Z</time></trkpt><trkpt lat="38.15239" lon="15.7222033"><ele>706.0</ele><time>2026-04-25T12:52:35.659Z</time></trkpt><trkpt lat="38.1523717" lon="15.72208"><ele>706.0</ele><time>2026-04-25T12:52:36.659Z</time></trkpt><trkpt lat="38.1523883" lon="15.7219467"><ele>706.0</ele><time>2026-04-25T12:52:37.66Z</time></trkpt><trkpt lat="38.1524167" lon="15.7217967"><ele>706.0</ele><time>2026-04-25T12:52:38.659Z</time></trkpt><trkpt lat="38.1524467" lon="15.72164"><ele>706.1999999999999</ele><time>2026-04-25T12:52:39.66Z</time></trkpt><trkpt lat="38.152475" lon="15.7215067"><ele>706.4</ele><time>2026-04-25T12:52:40.66Z</time></trkpt><trkpt lat="38.1524883" lon="15.7214067"><ele>706.6</ele><time>2026-04-25T12:52:41.659Z</time></trkpt><trkpt lat="38.1524967" lon="15.7213"><ele>706.8</ele><time>2026-04-25T12:52:42.659Z</time></trkpt><trkpt lat="38.152475" lon="15.7211833"><ele>707.0</ele><time>2026-04-25T12:52:43.659Z</time></trkpt><trkpt lat="38.1524333" lon="15.7210667"><ele>703.5</ele><time>2026-04-25T12:52:44.659Z</time></trkpt><trkpt lat="38.1523733" lon="15.720935"><ele>700.0</ele><time>2026-04-25T12:52:45.66Z</time></trkpt><trkpt lat="38.1522817" lon="15.720785"><ele>696.5</ele><time>2026-04-25T12:52:46.659Z</time></trkpt><trkpt lat="38.1521983" lon="15.7206683"><ele>693.0</ele><time>2026-04-25T12:52:47.659Z</time></trkpt><trkpt lat="38.15214" lon="15.7205867"><ele>701.0</ele><time>2026-04-25T12:52:48.659Z</time></trkpt><trkpt lat="38.1520767" lon="15.7205267"><ele>709.0</ele><time>2026-04-25T12:52:49.659Z</time></trkpt><trkpt lat="38.1520117" lon="15.7204733"><ele>717.0</ele><time>2026-04-25T12:52:50.659Z</time></trkpt><trkpt lat="38.151935" lon="15.7203817"><ele>725.0</ele><time>2026-04-25T12:52:52.66Z</time></trkpt><trkpt lat="38.1519233" lon="15.7202233"><ele>733.0</ele><time>2026-04-25T12:52:54.659Z</time></trkpt><trkpt lat="38.1519433" lon="15.7201417"><ele>733.0</ele><time>2026-04-25T12:52:55.66Z</time></trkpt><trkpt lat="38.1519633" lon="15.7200617"><ele>733.0</ele><time>2026-04-25T12:52:56.659Z</time></trkpt><trkpt lat="38.1520033" lon="15.7199683"><ele>733.0</ele><time>2026-04-25T12:52:57.66Z</time></trkpt><trkpt lat="38.1520467" lon="15.7198633"><ele>733.0</ele><time>2026-04-25T12:52:58.659Z</time></trkpt><trkpt lat="38.1521" lon="15.7197517"><ele>733.0</ele><time>2026-04-25T12:52:59.659Z</time></trkpt><trkpt lat="38.1521567" lon="15.7196433"><ele>733.0</ele><time>2026-04-25T12:53:00.659Z</time></trkpt><trkpt lat="38.1522317" lon="15.7195317"><ele>733.0</ele><time>2026-04-25T12:53:01.659Z</time></trkpt><trkpt lat="38.1522967" lon="15.7194217"><ele>733.0</ele><time>2026-04-25T12:53:02.66Z</time></trkpt><trkpt lat="38.1523483" lon="15.7193317"><ele>733.0</ele><time>2026-04-25T12:53:03.66Z</time></trkpt><trkpt lat="38.1523917" lon="15.7192483"><ele>733.0</ele><time>2026-04-25T12:53:04.66Z</time></trkpt><trkpt lat="38.1524317" lon="15.7191633"><ele>733.0</ele><time>2026-04-25T12:53:05.659Z</time></trkpt><trkpt lat="38.1524467" lon="15.719085"><ele>733.0</ele><time>2026-04-25T12:53:06.659Z</time></trkpt><trkpt lat="38.1524117" lon="15.7189267"><ele>732.6666666666667</ele><time>2026-04-25T12:53:08.659Z</time></trkpt><trkpt lat="38.1523783" lon="15.7188483"><ele>732.3333333333334</ele><time>2026-04-25T12:53:09.659Z</time></trkpt><trkpt lat="38.1523267" lon="15.7187667"><ele>732.0</ele><time>2026-04-25T12:53:10.66Z</time></trkpt><trkpt lat="38.1522733" lon="15.7186967"><ele>731.6666666666666</ele><time>2026-04-25T12:53:11.659Z</time></trkpt><trkpt lat="38.152225" lon="15.7186233"><ele>731.3333333333333</ele><time>2026-04-25T12:53:12.66Z</time></trkpt><trkpt lat="38.15218" lon="15.7185483"><ele>731.0</ele><time>2026-04-25T12:53:13.659Z</time></trkpt><trkpt lat="38.152135" lon="15.7184717"><ele>726.6666666666666</ele><time>2026-04-25T12:53:14.659Z</time></trkpt><trkpt lat="38.15209" lon="15.718405"><ele>722.3333333333333</ele><time>2026-04-25T12:53:15.659Z</time></trkpt><trkpt lat="38.1519883" lon="15.71831"><ele>718.0</ele><time>2026-04-25T12:53:17.659Z</time></trkpt><trkpt lat="38.1519217" lon="15.7182783"><ele>713.6666666666666</ele><time>2026-04-25T12:53:18.659Z</time></trkpt><trkpt lat="38.1518633" lon="15.7182483"><ele>709.3333333333334</ele><time>2026-04-25T12:53:19.659Z</time></trkpt><trkpt lat="38.1517867" lon="15.71818"><ele>705.0</ele><time>2026-04-25T12:53:21.66Z</time></trkpt><trkpt lat="38.15172" lon="15.7180567"><ele>705.0</ele><time>2026-04-25T12:53:23.659Z</time></trkpt><trkpt lat="38.15168" lon="15.7179833"><ele>705.0</ele><time>2026-04-25T12:53:24.659Z</time></trkpt><trkpt lat="38.1516067" lon="15.717875"><ele>705.0</ele><time>2026-04-25T12:53:26.659Z</time></trkpt><trkpt lat="38.1515083" lon="15.71781"><ele>705.0</ele><time>2026-04-25T12:53:28.66Z</time></trkpt><trkpt lat="38.151415" lon="15.7177633"><ele>705.0</ele><time>2026-04-25T12:53:30.66Z</time></trkpt><trkpt lat="38.1513967" lon="15.71767"><ele>707.6</ele><time>2026-04-25T12:53:32.66Z</time></trkpt><trkpt lat="38.1513617" lon="15.7175433"><ele>710.2</ele><time>2026-04-25T12:53:34.66Z</time></trkpt><trkpt lat="38.15131" lon="15.7174017"><ele>712.8</ele><time>2026-04-25T12:53:36.659Z</time></trkpt><trkpt lat="38.1512683" lon="15.7172967"><ele>715.4</ele><time>2026-04-25T12:53:38.659Z</time></trkpt><trkpt lat="38.1512383" lon="15.717175"><ele>718.0</ele><time>2026-04-25T12:53:41.659Z</time></trkpt><trkpt lat="38.1512167" lon="15.717085"><ele>718.0</ele><time>2026-04-25T12:53:44.66Z</time></trkpt><trkpt lat="38.1511717" lon="15.7169767"><ele>718.0</ele><time>2026-04-25T12:53:46.659Z</time></trkpt><trkpt lat="38.1511367" lon="15.716895"><ele>718.0</ele><time>2026-04-25T12:53:47.659Z</time></trkpt><trkpt lat="38.1511" lon="15.716795"><ele>718.0</ele><time>2026-04-25T12:53:48.659Z</time></trkpt><trkpt lat="38.1510567" lon="15.7166967"><ele>718.0</ele><time>2026-04-25T12:53:49.659Z</time></trkpt><trkpt lat="38.15101" lon="15.7166067"><ele>718.0</ele><time>2026-04-25T12:53:50.66Z</time></trkpt><trkpt lat="38.150975" lon="15.716535"><ele>713.2857142857143</ele><time>2026-04-25T12:53:51.659Z</time></trkpt><trkpt lat="38.1509533" lon="15.7164517"><ele>708.5714285714287</ele><time>2026-04-25T12:53:52.659Z</time></trkpt><trkpt lat="38.150935" lon="15.7163667"><ele>703.8571428571429</ele><time>2026-04-25T12:53:53.659Z</time></trkpt><trkpt lat="38.1509183" lon="15.7162867"><ele>699.1428571428571</ele><time>2026-04-25T12:53:54.66Z</time></trkpt><trkpt lat="38.1508967" lon="15.7161983"><ele>694.4285714285714</ele><time>2026-04-25T12:53:55.659Z</time></trkpt><trkpt lat="38.15087" lon="15.7161017"><ele>689.7142857142857</ele><time>2026-04-25T12:53:56.66Z</time></trkpt><trkpt lat="38.1508367" lon="15.7160217"><ele>685.0</ele><time>2026-04-25T12:53:57.66Z</time></trkpt><trkpt lat="38.150805" lon="15.7159383"><ele>686.5</ele><time>2026-04-25T12:53:58.66Z</time></trkpt><trkpt lat="38.150775" lon="15.7158467"><ele>688.0</ele><time>2026-04-25T12:53:59.659Z</time></trkpt><trkpt lat="38.1507367" lon="15.7157317"><ele>689.5</ele><time>2026-04-25T12:54:00.66Z</time></trkpt><trkpt lat="38.1507017" lon="15.71562"><ele>691.0</ele><time>2026-04-25T12:54:01.659Z</time></trkpt><trkpt lat="38.15068" lon="15.7155183"><ele>692.5</ele><time>2026-04-25T12:54:02.659Z</time></trkpt><trkpt lat="38.15067" lon="15.7154283"><ele>694.0</ele><time>2026-04-25T12:54:03.66Z</time></trkpt><trkpt lat="38.1506667" lon="15.7153283"><ele>692.1666666666667</ele><time>2026-04-25T12:54:04.659Z</time></trkpt><trkpt lat="38.150665" lon="15.7152117"><ele>690.3333333333334</ele><time>2026-04-25T12:54:05.659Z</time></trkpt><trkpt lat="38.15067" lon="15.7151067"><ele>688.5</ele><time>2026-04-25T12:54:06.659Z</time></trkpt><trkpt lat="38.1506733" lon="15.7150183"><ele>686.6666666666666</ele><time>2026-04-25T12:54:07.659Z</time></trkpt><trkpt lat="38.1506867" lon="15.714905"><ele>684.8333333333333</ele><time>2026-04-25T12:54:09.659Z</time></trkpt><trkpt lat="38.1507067" lon="15.7148217"><ele>683.0</ele><time>2026-04-25T12:54:13.659Z</time></trkpt><trkpt lat="38.1506983" lon="15.71474"><ele>683.0</ele><time>2026-04-25T12:54:16.66Z</time></trkpt><trkpt lat="38.1506433" lon="15.7146733"><ele>683.0</ele><time>2026-04-25T12:54:33.659Z</time></trkpt><trkpt lat="38.1505733" lon="15.7146133"><ele>683.0</ele><time>2026-04-25T12:54:35.659Z</time></trkpt><trkpt lat="38.1505133" lon="15.7145233"><ele>683.0</ele><time>2026-04-25T12:54:37.659Z</time></trkpt><trkpt lat="38.1504817" lon="15.714365"><ele>683.0</ele><time>2026-04-25T12:54:47.659Z</time></trkpt><trkpt lat="38.1505017" lon="15.7142467"><ele>682.0</ele><time>2026-04-25T12:54:50.659Z</time></trkpt><trkpt lat="38.1505367" lon="15.7141567"><ele>681.0</ele><time>2026-04-25T12:54:52.66Z</time></trkpt><trkpt lat="38.1506017" lon="15.71404"><ele>680.0</ele><time>2026-04-25T12:54:54.659Z</time></trkpt><trkpt lat="38.1506433" lon="15.713975"><ele>679.0</ele><time>2026-04-25T12:54:55.659Z</time></trkpt><trkpt lat="38.1506833" lon="15.713895"><ele>678.0</ele><time>2026-04-25T12:54:56.66Z</time></trkpt><trkpt lat="38.1507133" lon="15.7138167"><ele>677.0</ele><time>2026-04-25T12:54:57.659Z</time></trkpt><trkpt lat="38.1507433" lon="15.7137367"><ele>675.1666666666666</ele><time>2026-04-25T12:54:58.659Z</time></trkpt><trkpt lat="38.1508183" lon="15.713605"><ele>673.3333333333333</ele><time>2026-04-25T12:55:00.659Z</time></trkpt><trkpt lat="38.150865" lon="15.7135267"><ele>671.5</ele><time>2026-04-25T12:55:01.66Z</time></trkpt><trkpt lat="38.1509033" lon="15.71344"><ele>669.6666666666666</ele><time>2026-04-25T12:55:02.659Z</time></trkpt><trkpt lat="38.1509217" lon="15.7133517"><ele>667.8333333333334</ele><time>2026-04-25T12:55:03.659Z</time></trkpt><trkpt lat="38.150945" lon="15.7132583"><ele>666.0</ele><time>2026-04-25T12:55:04.659Z</time></trkpt><trkpt lat="38.150965" lon="15.71317"><ele>666.0</ele><time>2026-04-25T12:55:05.659Z</time></trkpt><trkpt lat="38.150985" lon="15.71308"><ele>666.0</ele><time>2026-04-25T12:55:06.659Z</time></trkpt><trkpt lat="38.1510083" lon="15.712985"><ele>666.0</ele><time>2026-04-25T12:55:07.659Z</time></trkpt><trkpt lat="38.1510283" lon="15.71288"><ele>666.0</ele><time>2026-04-25T12:55:08.66Z</time></trkpt><trkpt lat="38.1510267" lon="15.7127767"><ele>666.0</ele><time>2026-04-25T12:55:09.659Z</time></trkpt><trkpt lat="38.1510267" lon="15.7126617"><ele>666.0</ele><time>2026-04-25T12:55:10.66Z</time></trkpt><trkpt lat="38.1510267" lon="15.7125367"><ele>666.6666666666666</ele><time>2026-04-25T12:55:11.659Z</time></trkpt><trkpt lat="38.15103" lon="15.7124167"><ele>667.3333333333334</ele><time>2026-04-25T12:55:12.659Z</time></trkpt><trkpt lat="38.15104" lon="15.712325"><ele>668.0</ele><time>2026-04-25T12:55:13.66Z</time></trkpt><trkpt lat="38.1510583" lon="15.7122467"><ele>668.6666666666667</ele><time>2026-04-25T12:55:14.659Z</time></trkpt><trkpt lat="38.15113" lon="15.7121233"><ele>669.3333333333334</ele><time>2026-04-25T12:55:16.66Z</time></trkpt><trkpt lat="38.1511883" lon="15.7120583"><ele>670.0</ele><time>2026-04-25T12:55:17.659Z</time></trkpt><trkpt lat="38.15125" lon="15.7119917"><ele>670.6</ele><time>2026-04-25T12:55:18.659Z</time></trkpt><trkpt lat="38.1513017" lon="15.7118783"><ele>671.2</ele><time>2026-04-25T12:55:20.659Z</time></trkpt><trkpt lat="38.1513033" lon="15.7117667"><ele>671.8</ele><time>2026-04-25T12:55:22.659Z</time></trkpt><trkpt lat="38.15135" lon="15.7116017"><ele>672.4</ele><time>2026-04-25T12:55:24.659Z</time></trkpt><trkpt lat="38.151395" lon="15.7115033"><ele>673.0</ele><time>2026-04-25T12:55:25.659Z</time></trkpt><trkpt lat="38.151445" lon="15.7114083"><ele>673.0</ele><time>2026-04-25T12:55:26.659Z</time></trkpt><trkpt lat="38.1515017" lon="15.711305"><ele>673.0</ele><time>2026-04-25T12:55:27.66Z</time></trkpt><trkpt lat="38.151555" lon="15.7111883"><ele>673.0</ele><time>2026-04-25T12:55:28.66Z</time></trkpt><trkpt lat="38.1516017" lon="15.711085"><ele>673.0</ele><time>2026-04-25T12:55:29.659Z</time></trkpt><trkpt lat="38.151645" lon="15.7110033"><ele>673.0</ele><time>2026-04-25T12:55:30.659Z</time></trkpt><trkpt lat="38.1517167" lon="15.71091"><ele>672.1666666666667</ele><time>2026-04-25T12:55:32.66Z</time></trkpt><trkpt lat="38.151805" lon="15.7108817"><ele>671.3333333333334</ele><time>2026-04-25T12:55:34.659Z</time></trkpt><trkpt lat="38.15192" lon="15.7108683"><ele>670.5</ele><time>2026-04-25T12:55:50.659Z</time></trkpt><trkpt lat="38.1519933" lon="15.7108483"><ele>669.6666666666666</ele><time>2026-04-25T12:55:52.659Z</time></trkpt><trkpt lat="38.1520567" lon="15.7108083"><ele>668.8333333333333</ele><time>2026-04-25T12:55:54.66Z</time></trkpt><trkpt lat="38.15211" lon="15.710745"><ele>668.0</ele><time>2026-04-25T12:55:56.659Z</time></trkpt><trkpt lat="38.1521633" lon="15.7106817"><ele>668.0</ele><time>2026-04-25T12:55:58.659Z</time></trkpt><trkpt lat="38.152225" lon="15.71062"><ele>668.0</ele><time>2026-04-25T12:56:00.66Z</time></trkpt><trkpt lat="38.1522667" lon="15.7105517"><ele>668.0</ele><time>2026-04-25T12:56:02.659Z</time></trkpt><trkpt lat="38.1522633" lon="15.7104717"><ele>668.0</ele><time>2026-04-25T12:56:04.659Z</time></trkpt><trkpt lat="38.15221" lon="15.7103817"><ele>668.0</ele><time>2026-04-25T12:56:59.658Z</time></trkpt><trkpt lat="38.1521433" lon="15.7103033"><ele>668.0</ele><time>2026-04-25T12:57:01.659Z</time></trkpt><trkpt lat="38.1520683" lon="15.71022"><ele>665.2</ele><time>2026-04-25T12:57:03.658Z</time></trkpt><trkpt lat="38.1519867" lon="15.7101367"><ele>662.4</ele><time>2026-04-25T12:57:05.658Z</time></trkpt><trkpt lat="38.1518883" lon="15.7100933"><ele>659.6</ele><time>2026-04-25T12:57:07.658Z</time></trkpt><trkpt lat="38.1518217" lon="15.71008"><ele>656.8000000000001</ele><time>2026-04-25T12:57:08.659Z</time></trkpt><trkpt lat="38.15175" lon="15.7100767"><ele>654.0</ele><time>2026-04-25T12:57:09.658Z</time></trkpt><trkpt lat="38.1516367" lon="15.7100467"><ele>654.0</ele><time>2026-04-25T12:57:11.658Z</time></trkpt><trkpt lat="38.151575" lon="15.7100083"><ele>654.0</ele><time>2026-04-25T12:57:12.658Z</time></trkpt><trkpt lat="38.1515167" lon="15.7099533"><ele>654.0</ele><time>2026-04-25T12:57:13.658Z</time></trkpt><trkpt lat="38.1514517" lon="15.7098767"><ele>654.0</ele><time>2026-04-25T12:57:14.658Z</time></trkpt><trkpt lat="38.1513817" lon="15.7097833"><ele>654.0</ele><time>2026-04-25T12:57:15.658Z</time></trkpt><trkpt lat="38.151315" lon="15.70969"><ele>654.0</ele><time>2026-04-25T12:57:16.658Z</time></trkpt><trkpt lat="38.151255" lon="15.7096067"><ele>655.2</ele><time>2026-04-25T12:57:17.659Z</time></trkpt><trkpt lat="38.1512" lon="15.7095383"><ele>656.4000000000001</ele><time>2026-04-25T12:57:18.658Z</time></trkpt><trkpt lat="38.1511217" lon="15.709465"><ele>657.6</ele><time>2026-04-25T12:57:20.659Z</time></trkpt><trkpt lat="38.15103" lon="15.709425"><ele>658.8</ele><time>2026-04-25T12:57:22.658Z</time></trkpt><trkpt lat="38.1509217" lon="15.7093733"><ele>660.0</ele><time>2026-04-25T12:57:24.658Z</time></trkpt><trkpt lat="38.1508567" lon="15.709335"><ele>658.3333333333334</ele><time>2026-04-25T12:57:25.659Z</time></trkpt><trkpt lat="38.1507783" lon="15.7092883"><ele>656.6666666666666</ele><time>2026-04-25T12:57:26.658Z</time></trkpt><trkpt lat="38.1507" lon="15.7092467"><ele>655.0</ele><time>2026-04-25T12:57:27.658Z</time></trkpt><trkpt lat="38.1506283" lon="15.709205"><ele>653.3333333333333</ele><time>2026-04-25T12:57:28.658Z</time></trkpt><trkpt lat="38.15057" lon="15.70917"><ele>651.6666666666666</ele><time>2026-04-25T12:57:29.658Z</time></trkpt><trkpt lat="38.1504917" lon="15.7091067"><ele>650.0</ele><time>2026-04-25T12:57:31.658Z</time></trkpt><trkpt lat="38.1504733" lon="15.7089833"><ele>650.0</ele><time>2026-04-25T12:57:33.659Z</time></trkpt><trkpt lat="38.1505167" lon="15.7088217"><ele>650.0</ele><time>2026-04-25T12:57:35.659Z</time></trkpt><trkpt lat="38.15054" lon="15.7087383"><ele>650.0</ele><time>2026-04-25T12:57:36.658Z</time></trkpt><trkpt lat="38.15056" lon="15.7086117"><ele>650.0</ele><time>2026-04-25T12:57:38.659Z</time></trkpt><trkpt lat="38.1505233" lon="15.7085067"><ele>650.0</ele><time>2026-04-25T12:57:40.659Z</time></trkpt><trkpt lat="38.1505" lon="15.708425"><ele>648.0</ele><time>2026-04-25T12:57:41.659Z</time></trkpt><trkpt lat="38.1504767" lon="15.7083383"><ele>646.0</ele><time>2026-04-25T12:57:42.659Z</time></trkpt><trkpt lat="38.150465" lon="15.7082533"><ele>644.0</ele><time>2026-04-25T12:57:43.659Z</time></trkpt><trkpt lat="38.150445" lon="15.708145"><ele>642.0</ele><time>2026-04-25T12:57:45.658Z</time></trkpt><trkpt lat="38.1503683" lon="15.7080617"><ele>640.0</ele><time>2026-04-25T12:57:47.658Z</time></trkpt><trkpt lat="38.1503117" lon="15.7080183"><ele>638.0</ele><time>2026-04-25T12:57:48.658Z</time></trkpt><trkpt lat="38.1502083" lon="15.707955"><ele>638.0</ele><time>2026-04-25T12:57:50.658Z</time></trkpt><trkpt lat="38.1501133" lon="15.707905"><ele>638.0</ele><time>2026-04-25T12:57:52.658Z</time></trkpt><trkpt lat="38.150015" lon="15.7078417"><ele>638.0</ele><time>2026-04-25T12:57:54.658Z</time></trkpt><trkpt lat="38.1499433" lon="15.707755"><ele>638.0</ele><time>2026-04-25T12:57:56.659Z</time></trkpt><trkpt lat="38.1499267" lon="15.7076283"><ele>638.0</ele><time>2026-04-25T12:57:58.659Z</time></trkpt><trkpt lat="38.1499383" lon="15.70749"><ele>634.8</ele><time>2026-04-25T12:58:00.658Z</time></trkpt><trkpt lat="38.1499317" lon="15.707335"><ele>631.5999999999999</ele><time>2026-04-25T12:58:02.658Z</time></trkpt><trkpt lat="38.1499583" lon="15.7072017"><ele>628.4000000000001</ele><time>2026-04-25T12:58:04.659Z</time></trkpt><trkpt lat="38.1499967" lon="15.707135"><ele>625.2</ele><time>2026-04-25T12:58:05.659Z</time></trkpt><trkpt lat="38.1500333" lon="15.7070633"><ele>622.0</ele><time>2026-04-25T12:58:06.658Z</time></trkpt><trkpt lat="38.1500583" lon="15.706955"><ele>618.5</ele><time>2026-04-25T12:58:08.658Z</time></trkpt><trkpt lat="38.149995" lon="15.70687"><ele>615.0</ele><time>2026-04-25T12:58:10.658Z</time></trkpt><trkpt lat="38.1499367" lon="15.7067333"><ele>611.5</ele><time>2026-04-25T12:58:12.659Z</time></trkpt><trkpt lat="38.1499217" lon="15.706655"><ele>608.0</ele><time>2026-04-25T12:58:13.658Z</time></trkpt><trkpt lat="38.1499183" lon="15.7065683"><ele>604.5</ele><time>2026-04-25T12:58:14.658Z</time></trkpt><trkpt lat="38.149915" lon="15.7064783"><ele>601.0</ele><time>2026-04-25T12:58:15.658Z</time></trkpt><trkpt lat="38.1498883" lon="15.706375"><ele>601.1666666666667</ele><time>2026-04-25T12:58:17.658Z</time></trkpt><trkpt lat="38.149825" lon="15.70633"><ele>601.3333333333334</ele><time>2026-04-25T12:58:19.658Z</time></trkpt><trkpt lat="38.149815" lon="15.70622"><ele>601.5</ele><time>2026-04-25T12:58:22.658Z</time></trkpt><trkpt lat="38.1498467" lon="15.7061467"><ele>601.6666666666666</ele><time>2026-04-25T12:58:24.659Z</time></trkpt><trkpt lat="38.149895" lon="15.7060767"><ele>601.8333333333333</ele><time>2026-04-25T12:58:26.658Z</time></trkpt><trkpt lat="38.1499433" lon="15.7060067"><ele>602.0</ele><time>2026-04-25T12:58:28.658Z</time></trkpt><trkpt lat="38.1500033" lon="15.7059367"><ele>602.0</ele><time>2026-04-25T12:58:31.658Z</time></trkpt><trkpt lat="38.1499533" lon="15.7058783"><ele>602.0</ele><time>2026-04-25T12:58:36.658Z</time></trkpt><trkpt lat="38.1498733" lon="15.7058733"><ele>602.0</ele><time>2026-04-25T12:58:39.658Z</time></trkpt><trkpt lat="38.1497867" lon="15.7059183"><ele>602.0</ele><time>2026-04-25T12:58:42.658Z</time></trkpt><trkpt lat="38.14971" lon="15.7059833"><ele>602.0</ele><time>2026-04-25T12:58:44.658Z</time></trkpt><trkpt lat="38.1496283" lon="15.70606"><ele>602.0</ele><time>2026-04-25T12:58:46.658Z</time></trkpt><trkpt lat="38.14954" lon="15.70614"><ele>602.0</ele><time>2026-04-25T12:58:48.658Z</time></trkpt><trkpt lat="38.149435" lon="15.7062267"><ele>602.0</ele><time>2026-04-25T12:58:50.658Z</time></trkpt><trkpt lat="38.1493733" lon="15.7062817"><ele>602.0</ele><time>2026-04-25T12:58:51.658Z</time></trkpt><trkpt lat="38.1493083" lon="15.70632"><ele>602.0</ele><time>2026-04-25T12:58:52.658Z</time></trkpt><trkpt lat="38.149235" lon="15.7063567"><ele>602.0</ele><time>2026-04-25T12:58:53.658Z</time></trkpt><trkpt lat="38.1491617" lon="15.7063917"><ele>602.0</ele><time>2026-04-25T12:58:54.658Z</time></trkpt><trkpt lat="38.1490933" lon="15.7064317"><ele>600.5</ele><time>2026-04-25T12:58:55.658Z</time></trkpt><trkpt lat="38.1490383" lon="15.7064817"><ele>599.0</ele><time>2026-04-25T12:58:56.658Z</time></trkpt><trkpt lat="38.1489383" lon="15.7065667"><ele>597.5</ele><time>2026-04-25T12:58:58.658Z</time></trkpt><trkpt lat="38.1488483" lon="15.7066"><ele>596.0</ele><time>2026-04-25T12:59:00.658Z</time></trkpt><trkpt lat="38.1488133" lon="15.7065317"><ele>594.5</ele><time>2026-04-25T12:59:03.658Z</time></trkpt><trkpt lat="38.1487583" lon="15.7066117"><ele>593.0</ele><time>2026-04-25T12:59:28.658Z</time></trkpt><trkpt lat="38.1486517" lon="15.70673"><ele>593.0</ele><time>2026-04-25T12:59:30.658Z</time></trkpt><trkpt lat="38.1485717" lon="15.7068117"><ele>593.0</ele><time>2026-04-25T12:59:31.658Z</time></trkpt><trkpt lat="38.1484917" lon="15.7068967"><ele>593.0</ele><time>2026-04-25T12:59:32.658Z</time></trkpt><trkpt lat="38.1484183" lon="15.706965"><ele>593.0</ele><time>2026-04-25T12:59:33.658Z</time></trkpt><trkpt lat="38.1483633" lon="15.7070217"><ele>593.0</ele><time>2026-04-25T12:59:34.659Z</time></trkpt><trkpt lat="38.1482983" lon="15.707065"><ele>593.0</ele><time>2026-04-25T12:59:36.658Z</time></trkpt><trkpt lat="38.14821" lon="15.70702"><ele>593.5</ele><time>2026-04-25T12:59:39.658Z</time></trkpt><trkpt lat="38.1481083" lon="15.7069717"><ele>594.0</ele><time>2026-04-25T12:59:41.659Z</time></trkpt><trkpt lat="38.1480417" lon="15.7069517"><ele>594.5</ele><time>2026-04-25T12:59:42.658Z</time></trkpt><trkpt lat="38.1479617" lon="15.70694"><ele>595.0</ele><time>2026-04-25T12:59:43.658Z</time></trkpt><trkpt lat="38.1478833" lon="15.7069267"><ele>595.5</ele><time>2026-04-25T12:59:44.658Z</time></trkpt><trkpt lat="38.1478283" lon="15.7068867"><ele>596.0</ele><time>2026-04-25T12:59:45.658Z</time></trkpt><trkpt lat="38.1477867" lon="15.7067483"><ele>593.0</ele><time>2026-04-25T12:59:47.659Z</time></trkpt><trkpt lat="38.1478117" lon="15.7066667"><ele>590.0</ele><time>2026-04-25T12:59:48.658Z</time></trkpt><trkpt lat="38.1478567" lon="15.7065833"><ele>587.0</ele><time>2026-04-25T12:59:49.658Z</time></trkpt><trkpt lat="38.1479183" lon="15.70651"><ele>584.0</ele><time>2026-04-25T12:59:50.659Z</time></trkpt><trkpt lat="38.1479833" lon="15.7064317"><ele>581.0</ele><time>2026-04-25T12:59:51.658Z</time></trkpt><trkpt lat="38.1480433" lon="15.7063633"><ele>578.0</ele><time>2026-04-25T12:59:52.658Z</time></trkpt><trkpt lat="38.148105" lon="15.7062967"><ele>578.0</ele><time>2026-04-25T12:59:53.659Z</time></trkpt><trkpt lat="38.1481533" lon="15.7062283"><ele>578.0</ele><time>2026-04-25T12:59:54.659Z</time></trkpt><trkpt lat="38.148205" lon="15.70615"><ele>578.0</ele><time>2026-04-25T12:59:55.659Z</time></trkpt><trkpt lat="38.1482567" lon="15.7060833"><ele>578.0</ele><time>2026-04-25T12:59:56.658Z</time></trkpt><trkpt lat="38.1483133" lon="15.7060133"><ele>578.0</ele><time>2026-04-25T12:59:57.658Z</time></trkpt><trkpt lat="38.1483683" lon="15.7059383"><ele>578.0</ele><time>2026-04-25T12:59:58.658Z</time></trkpt><trkpt lat="38.1484117" lon="15.7058583"><ele>577.4</ele><time>2026-04-25T12:59:59.658Z</time></trkpt><trkpt lat="38.1484467" lon="15.7057917"><ele>576.8</ele><time>2026-04-25T13:00:00.658Z</time></trkpt><trkpt lat="38.1485083" lon="15.7056817"><ele>576.2</ele><time>2026-04-25T13:00:02.658Z</time></trkpt><trkpt lat="38.14852" lon="15.70558"><ele>575.6</ele><time>2026-04-25T13:00:04.658Z</time></trkpt><trkpt lat="38.1485167" lon="15.7054467"><ele>575.0</ele><time>2026-04-25T13:00:06.658Z</time></trkpt><trkpt lat="38.1485667" lon="15.7053233"><ele>571.0</ele><time>2026-04-25T13:00:08.658Z</time></trkpt><trkpt lat="38.1486617" lon="15.7052283"><ele>567.0</ele><time>2026-04-25T13:00:10.658Z</time></trkpt><trkpt lat="38.1487217" lon="15.70518"><ele>563.0</ele><time>2026-04-25T13:00:11.658Z</time></trkpt><trkpt lat="38.1488133" lon="15.7050767"><ele>559.0</ele><time>2026-04-25T13:00:13.658Z</time></trkpt><trkpt lat="38.1488433" lon="15.70499"><ele>555.0</ele><time>2026-04-25T13:00:14.658Z</time></trkpt><trkpt lat="38.1488767" lon="15.7048667"><ele>555.0</ele><time>2026-04-25T13:00:15.658Z</time></trkpt><trkpt lat="38.1489067" lon="15.7047183"><ele>555.0</ele><time>2026-04-25T13:00:16.658Z</time></trkpt><trkpt lat="38.1489267" lon="15.7045867"><ele>555.0</ele><time>2026-04-25T13:00:17.658Z</time></trkpt><trkpt lat="38.1489683" lon="15.7045"><ele>555.0</ele><time>2026-04-25T13:00:18.658Z</time></trkpt><trkpt lat="38.1490217" lon="15.7044433"><ele>555.0</ele><time>2026-04-25T13:00:19.658Z</time></trkpt><trkpt lat="38.1490767" lon="15.7044"><ele>555.0</ele><time>2026-04-25T13:00:20.658Z</time></trkpt><trkpt lat="38.1491317" lon="15.7043567"><ele>553.4</ele><time>2026-04-25T13:00:21.659Z</time></trkpt><trkpt lat="38.149195" lon="15.70431"><ele>551.8</ele><time>2026-04-25T13:00:22.658Z</time></trkpt><trkpt lat="38.1492683" lon="15.704245"><ele>550.2</ele><time>2026-04-25T13:00:23.658Z</time></trkpt><trkpt lat="38.1493567" lon="15.70417"><ele>548.6</ele><time>2026-04-25T13:00:24.658Z</time></trkpt><trkpt lat="38.1494583" lon="15.7040883"><ele>547.0</ele><time>2026-04-25T13:00:25.658Z</time></trkpt><trkpt lat="38.1495467" lon="15.7040083"><ele>547.0</ele><time>2026-04-25T13:00:26.659Z</time></trkpt><trkpt lat="38.1496233" lon="15.703975"><ele>547.0</ele><time>2026-04-25T13:00:27.658Z</time></trkpt><trkpt lat="38.149735" lon="15.7039733"><ele>547.0</ele><time>2026-04-25T13:00:29.659Z</time></trkpt><trkpt lat="38.1498033" lon="15.7040183"><ele>547.0</ele><time>2026-04-25T13:00:32.658Z</time></trkpt><trkpt lat="38.1498017" lon="15.70392"><ele>547.0</ele><time>2026-04-25T13:00:36.658Z</time></trkpt><trkpt lat="38.1497433" lon="15.7038617"><ele>547.0</ele><time>2026-04-25T13:00:38.658Z</time></trkpt><trkpt lat="38.1496483" lon="15.7038267"><ele>547.0</ele><time>2026-04-25T13:00:40.658Z</time></trkpt><trkpt lat="38.1495333" lon="15.7038317"><ele>547.0</ele><time>2026-04-25T13:00:42.658Z</time></trkpt><trkpt lat="38.1494583" lon="15.7038283"><ele>547.0</ele><time>2026-04-25T13:00:43.658Z</time></trkpt><trkpt lat="38.1493733" lon="15.7038417"><ele>547.0</ele><time>2026-04-25T13:00:44.658Z</time></trkpt><trkpt lat="38.1492767" lon="15.7038683"><ele>547.0</ele><time>2026-04-25T13:00:45.658Z</time></trkpt><trkpt lat="38.1491717" lon="15.703885"><ele>547.0</ele><time>2026-04-25T13:00:46.658Z</time></trkpt><trkpt lat="38.14907" lon="15.7038883"><ele>547.0</ele><time>2026-04-25T13:00:47.658Z</time></trkpt><trkpt lat="38.1489933" lon="15.7038483"><ele>547.0</ele><time>2026-04-25T13:00:48.658Z</time></trkpt><trkpt lat="38.1489383" lon="15.7037867"><ele>547.0</ele><time>2026-04-25T13:00:49.659Z</time></trkpt><trkpt lat="38.1489267" lon="15.7036533"><ele>547.0</ele><time>2026-04-25T13:00:51.658Z</time></trkpt><trkpt lat="38.149" lon="15.7035883"><ele>541.8000000000001</ele><time>2026-04-25T13:00:52.658Z</time></trkpt><trkpt lat="38.149095" lon="15.703525"><ele>536.6</ele><time>2026-04-25T13:00:53.658Z</time></trkpt><trkpt lat="38.149195" lon="15.7034717"><ele>531.4000000000001</ele><time>2026-04-25T13:00:54.658Z</time></trkpt><trkpt lat="38.14929" lon="15.7034317"><ele>526.2</ele><time>2026-04-25T13:00:55.658Z</time></trkpt><trkpt lat="38.1493833" lon="15.7034033"><ele>521.0</ele><time>2026-04-25T13:00:56.658Z</time></trkpt><trkpt lat="38.1494717" lon="15.7033933"><ele>521.0</ele><time>2026-04-25T13:00:57.658Z</time></trkpt><trkpt lat="38.14957" lon="15.7033817"><ele>521.0</ele><time>2026-04-25T13:00:58.658Z</time></trkpt><trkpt lat="38.1496683" lon="15.7033583"><ele>521.0</ele><time>2026-04-25T13:00:59.658Z</time></trkpt><trkpt lat="38.1497583" lon="15.7033117"><ele>521.0</ele><time>2026-04-25T13:01:00.659Z</time></trkpt><trkpt lat="38.1498467" lon="15.7032517"><ele>521.0</ele><time>2026-04-25T13:01:01.658Z</time></trkpt><trkpt lat="38.1499217" lon="15.7031883"><ele>521.0</ele><time>2026-04-25T13:01:02.658Z</time></trkpt><trkpt lat="38.149995" lon="15.7031233"><ele>521.0</ele><time>2026-04-25T13:01:03.658Z</time></trkpt><trkpt lat="38.1500567" lon="15.70306"><ele>521.0</ele><time>2026-04-25T13:01:04.659Z</time></trkpt><trkpt lat="38.1501183" lon="15.7030167"><ele>521.0</ele><time>2026-04-25T13:01:05.659Z</time></trkpt><trkpt lat="38.1502117" lon="15.7029667"><ele>521.0</ele><time>2026-04-25T13:01:07.658Z</time></trkpt><trkpt lat="38.150185" lon="15.7028917"><ele>521.0</ele><time>2026-04-25T13:01:11.659Z</time></trkpt><trkpt lat="38.1501067" lon="15.7029233"><ele>521.0</ele><time>2026-04-25T13:01:13.658Z</time></trkpt><trkpt lat="38.15004" lon="15.702945"><ele>521.0</ele><time>2026-04-25T13:01:14.658Z</time></trkpt><trkpt lat="38.1499483" lon="15.7029817"><ele>521.0</ele><time>2026-04-25T13:01:15.658Z</time></trkpt><trkpt lat="38.1498317" lon="15.7030133"><ele>521.0</ele><time>2026-04-25T13:01:16.658Z</time></trkpt><trkpt lat="38.1497117" lon="15.70304"><ele>521.0</ele><time>2026-04-25T13:01:17.658Z</time></trkpt><trkpt lat="38.1495883" lon="15.703055"><ele>521.0</ele><time>2026-04-25T13:01:18.658Z</time></trkpt><trkpt lat="38.1494617" lon="15.7030583"><ele>521.0</ele><time>2026-04-25T13:01:19.658Z</time></trkpt><trkpt lat="38.1493383" lon="15.7030583"><ele>521.0</ele><time>2026-04-25T13:01:20.658Z</time></trkpt><trkpt lat="38.1492033" lon="15.7030633"><ele>521.0</ele><time>2026-04-25T13:01:21.658Z</time></trkpt><trkpt lat="38.149085" lon="15.70309"><ele>517.25</ele><time>2026-04-25T13:01:22.658Z</time></trkpt><trkpt lat="38.1489667" lon="15.703105"><ele>513.5</ele><time>2026-04-25T13:01:23.658Z</time></trkpt><trkpt lat="38.14885" lon="15.70312"><ele>509.75</ele><time>2026-04-25T13:01:24.658Z</time></trkpt><trkpt lat="38.148735" lon="15.7031317"><ele>506.0</ele><time>2026-04-25T13:01:25.658Z</time></trkpt><trkpt lat="38.1486267" lon="15.7031383"><ele>506.0</ele><time>2026-04-25T13:01:26.659Z</time></trkpt><trkpt lat="38.1485233" lon="15.7031483"><ele>506.0</ele><time>2026-04-25T13:01:27.658Z</time></trkpt><trkpt lat="38.1484133" lon="15.7031617"><ele>506.0</ele><time>2026-04-25T13:01:28.658Z</time></trkpt><trkpt lat="38.148315" lon="15.7031867"><ele>506.0</ele><time>2026-04-25T13:01:29.658Z</time></trkpt><trkpt lat="38.1482217" lon="15.7032267"><ele>506.0</ele><time>2026-04-25T13:01:30.658Z</time></trkpt><trkpt lat="38.1481333" lon="15.7032633"><ele>506.8</ele><time>2026-04-25T13:01:31.658Z</time></trkpt><trkpt lat="38.1480433" lon="15.7033"><ele>507.6</ele><time>2026-04-25T13:01:32.658Z</time></trkpt><trkpt lat="38.1479683" lon="15.7033433"><ele>508.4</ele><time>2026-04-25T13:01:33.658Z</time></trkpt><trkpt lat="38.1479083" lon="15.70339"><ele>509.2</ele><time>2026-04-25T13:01:34.659Z</time></trkpt><trkpt lat="38.1478283" lon="15.7034883"><ele>510.0</ele><time>2026-04-25T13:01:36.658Z</time></trkpt><trkpt lat="38.147805" lon="15.703625"><ele>510.0</ele><time>2026-04-25T13:01:38.658Z</time></trkpt><trkpt lat="38.1478017" lon="15.703705"><ele>510.0</ele><time>2026-04-25T13:01:39.658Z</time></trkpt><trkpt lat="38.147775" lon="15.7037817"><ele>510.0</ele><time>2026-04-25T13:01:40.659Z</time></trkpt><trkpt lat="38.1477233" lon="15.703845"><ele>510.0</ele><time>2026-04-25T13:01:41.659Z</time></trkpt><trkpt lat="38.1476533" lon="15.703885"><ele>510.0</ele><time>2026-04-25T13:01:42.658Z</time></trkpt><trkpt lat="38.147575" lon="15.7039"><ele>510.0</ele><time>2026-04-25T13:01:43.658Z</time></trkpt><trkpt lat="38.1474817" lon="15.7038933"><ele>510.0</ele><time>2026-04-25T13:01:44.658Z</time></trkpt><trkpt lat="38.1473917" lon="15.7038917"><ele>510.0</ele><time>2026-04-25T13:01:45.658Z</time></trkpt><trkpt lat="38.1472967" lon="15.7039167"><ele>510.0</ele><time>2026-04-25T13:01:46.659Z</time></trkpt><trkpt lat="38.1472067" lon="15.7039533"><ele>510.0</ele><time>2026-04-25T13:01:47.658Z</time></trkpt><trkpt lat="38.1471333" lon="15.7039767"><ele>510.0</ele><time>2026-04-25T13:01:48.658Z</time></trkpt><trkpt lat="38.1470683" lon="15.7039833"><ele>510.0</ele><time>2026-04-25T13:01:49.658Z</time></trkpt><trkpt lat="38.147" lon="15.7039567"><ele>506.8</ele><time>2026-04-25T13:01:50.658Z</time></trkpt><trkpt lat="38.1469333" lon="15.7039167"><ele>503.6</ele><time>2026-04-25T13:01:51.659Z</time></trkpt><trkpt lat="38.1468483" lon="15.70389"><ele>500.4</ele><time>2026-04-25T13:01:52.658Z</time></trkpt><trkpt lat="38.1467617" lon="15.7039017"><ele>497.2</ele><time>2026-04-25T13:01:53.658Z</time></trkpt><trkpt lat="38.146665" lon="15.703935"><ele>494.0</ele><time>2026-04-25T13:01:54.658Z</time></trkpt><trkpt lat="38.1465683" lon="15.7039867"><ele>491.66666666666663</ele><time>2026-04-25T13:01:55.658Z</time></trkpt><trkpt lat="38.1464683" lon="15.7040683"><ele>489.3333333333333</ele><time>2026-04-25T13:01:56.658Z</time></trkpt><trkpt lat="38.1463883" lon="15.7041367"><ele>487.0</ele><time>2026-04-25T13:01:57.658Z</time></trkpt><trkpt lat="38.146315" lon="15.7041917"><ele>484.66666666666663</ele><time>2026-04-25T13:01:58.658Z</time></trkpt><trkpt lat="38.1462433" lon="15.704215"><ele>482.3333333333333</ele><time>2026-04-25T13:01:59.659Z</time></trkpt><trkpt lat="38.1461767" lon="15.704195"><ele>480.0</ele><time>2026-04-25T13:02:00.658Z</time></trkpt><trkpt lat="38.1460933" lon="15.704155"><ele>480.0</ele><time>2026-04-25T13:02:01.658Z</time></trkpt><trkpt lat="38.14602" lon="15.7041183"><ele>480.0</ele><time>2026-04-25T13:02:02.658Z</time></trkpt><trkpt lat="38.1459467" lon="15.7041183"><ele>480.0</ele><time>2026-04-25T13:02:03.658Z</time></trkpt><trkpt lat="38.1458533" lon="15.70413"><ele>480.0</ele><time>2026-04-25T13:02:04.658Z</time></trkpt><trkpt lat="38.14575" lon="15.7041483"><ele>480.0</ele><time>2026-04-25T13:02:05.658Z</time></trkpt><trkpt lat="38.145625" lon="15.704175"><ele>474.75</ele><time>2026-04-25T13:02:06.659Z</time></trkpt><trkpt lat="38.1455" lon="15.70421"><ele>469.5</ele><time>2026-04-25T13:02:07.658Z</time></trkpt><trkpt lat="38.1453817" lon="15.7042533"><ele>464.25</ele><time>2026-04-25T13:02:08.659Z</time></trkpt><trkpt lat="38.1452783" lon="15.7042983"><ele>459.0</ele><time>2026-04-25T13:02:09.658Z</time></trkpt><trkpt lat="38.1451817" lon="15.7043383"><ele>459.0</ele><time>2026-04-25T13:02:10.658Z</time></trkpt><trkpt lat="38.145095" lon="15.70438"><ele>459.0</ele><time>2026-04-25T13:02:11.658Z</time></trkpt><trkpt lat="38.1450217" lon="15.7044433"><ele>459.0</ele><time>2026-04-25T13:02:12.659Z</time></trkpt><trkpt lat="38.1449517" lon="15.7045267"><ele>459.0</ele><time>2026-04-25T13:02:13.658Z</time></trkpt><trkpt lat="38.1448767" lon="15.7046233"><ele>459.0</ele><time>2026-04-25T13:02:14.658Z</time></trkpt><trkpt lat="38.1448183" lon="15.7047067"><ele>456.6</ele><time>2026-04-25T13:02:15.658Z</time></trkpt><trkpt lat="38.144775" lon="15.7047933"><ele>454.2</ele><time>2026-04-25T13:02:16.658Z</time></trkpt><trkpt lat="38.144735" lon="15.7049083"><ele>451.80000000000007</ele><time>2026-04-25T13:02:17.658Z</time></trkpt><trkpt lat="38.1446967" lon="15.7050383"><ele>449.40000000000003</ele><time>2026-04-25T13:02:18.658Z</time></trkpt><trkpt lat="38.144645" lon="15.7051717"><ele>447.0</ele><time>2026-04-25T13:02:19.658Z</time></trkpt><trkpt lat="38.1446" lon="15.7052983"><ele>447.0</ele><time>2026-04-25T13:02:20.659Z</time></trkpt><trkpt lat="38.1445483" lon="15.7053867"><ele>447.0</ele><time>2026-04-25T13:02:21.658Z</time></trkpt><trkpt lat="38.1444933" lon="15.70547"><ele>447.0</ele><time>2026-04-25T13:02:22.658Z</time></trkpt><trkpt lat="38.1444283" lon="15.70555"><ele>447.0</ele><time>2026-04-25T13:02:23.658Z</time></trkpt><trkpt lat="38.1443767" lon="15.7056167"><ele>447.0</ele><time>2026-04-25T13:02:24.659Z</time></trkpt><trkpt lat="38.1443467" lon="15.7057083"><ele>447.0</ele><time>2026-04-25T13:02:25.659Z</time></trkpt><trkpt lat="38.1443233" lon="15.70582"><ele>447.0</ele><time>2026-04-25T13:02:26.658Z</time></trkpt><trkpt lat="38.1442883" lon="15.7059433"><ele>447.00000000000006</ele><time>2026-04-25T13:02:27.658Z</time></trkpt><trkpt lat="38.1442417" lon="15.7060567"><ele>447.00000000000006</ele><time>2026-04-25T13:02:28.658Z</time></trkpt><trkpt lat="38.1441867" lon="15.7061533"><ele>447.0</ele><time>2026-04-25T13:02:29.659Z</time></trkpt><trkpt lat="38.1441317" lon="15.7062267"><ele>447.0</ele><time>2026-04-25T13:02:30.658Z</time></trkpt><trkpt lat="38.1440567" lon="15.7062767"><ele>444.8333333333333</ele><time>2026-04-25T13:02:31.658Z</time></trkpt><trkpt lat="38.1439633" lon="15.70631"><ele>442.66666666666663</ele><time>2026-04-25T13:02:32.659Z</time></trkpt><trkpt lat="38.1438717" lon="15.70634"><ele>440.5</ele><time>2026-04-25T13:02:33.658Z</time></trkpt><trkpt lat="38.14381" lon="15.70638"><ele>438.3333333333333</ele><time>2026-04-25T13:02:34.659Z</time></trkpt><trkpt lat="38.1437617" lon="15.7064383"><ele>436.16666666666663</ele><time>2026-04-25T13:02:35.658Z</time></trkpt><trkpt lat="38.14374" lon="15.706515"><ele>434.0</ele><time>2026-04-25T13:02:36.658Z</time></trkpt><trkpt lat="38.14375" lon="15.706595"><ele>433.99999999999994</ele><time>2026-04-25T13:02:37.658Z</time></trkpt><trkpt lat="38.143775" lon="15.706675"><ele>434.0</ele><time>2026-04-25T13:02:38.659Z</time></trkpt><trkpt lat="38.1437917" lon="15.7067533"><ele>434.0</ele><time>2026-04-25T13:02:39.658Z</time></trkpt><trkpt lat="38.14378" lon="15.7068883"><ele>434.0</ele><time>2026-04-25T13:02:41.658Z</time></trkpt><trkpt lat="38.1437183" lon="15.7069367"><ele>433.99999999999994</ele><time>2026-04-25T13:02:42.658Z</time></trkpt><trkpt lat="38.14364" lon="15.70698"><ele>434.0</ele><time>2026-04-25T13:02:43.659Z</time></trkpt><trkpt lat="38.1435667" lon="15.70703"><ele>435.49999999999994</ele><time>2026-04-25T13:02:44.658Z</time></trkpt><trkpt lat="38.1435033" lon="15.7071067"><ele>437.0</ele><time>2026-04-25T13:02:45.658Z</time></trkpt><trkpt lat="38.1434633" lon="15.707205"><ele>438.5</ele><time>2026-04-25T13:02:46.659Z</time></trkpt><trkpt lat="38.143445" lon="15.7073083"><ele>440.0</ele><time>2026-04-25T13:02:47.658Z</time></trkpt><trkpt lat="38.1434667" lon="15.7074083"><ele>441.49999999999994</ele><time>2026-04-25T13:02:48.658Z</time></trkpt><trkpt lat="38.1434483" lon="15.7075417"><ele>443.0</ele><time>2026-04-25T13:02:50.658Z</time></trkpt><trkpt lat="38.143385" lon="15.7075933"><ele>442.99999999999994</ele><time>2026-04-25T13:02:52.658Z</time></trkpt><trkpt lat="38.1433083" lon="15.70756"><ele>443.0</ele><time>2026-04-25T13:02:54.659Z</time></trkpt><trkpt lat="38.143235" lon="15.7074817"><ele>443.0</ele><time>2026-04-25T13:02:56.659Z</time></trkpt><trkpt lat="38.1431767" lon="15.7074233"><ele>443.0</ele><time>2026-04-25T13:02:57.658Z</time></trkpt><trkpt lat="38.14312" lon="15.7073433"><ele>442.99999999999994</ele><time>2026-04-25T13:02:58.658Z</time></trkpt><trkpt lat="38.143075" lon="15.7072417"><ele>443.0</ele><time>2026-04-25T13:02:59.658Z</time></trkpt><trkpt lat="38.1430483" lon="15.707125"><ele>447.2</ele><time>2026-04-25T13:03:00.659Z</time></trkpt><trkpt lat="38.143055" lon="15.7069933"><ele>451.4</ele><time>2026-04-25T13:03:01.658Z</time></trkpt><trkpt lat="38.1430833" lon="15.7068467"><ele>455.59999999999997</ele><time>2026-04-25T13:03:02.658Z</time></trkpt><trkpt lat="38.14309" lon="15.70673"><ele>459.79999999999995</ele><time>2026-04-25T13:03:03.658Z</time></trkpt><trkpt lat="38.143075" lon="15.706645"><ele>464.0</ele><time>2026-04-25T13:03:04.658Z</time></trkpt><trkpt lat="38.1430233" lon="15.7065883"><ele>464.0</ele><time>2026-04-25T13:03:05.658Z</time></trkpt><trkpt lat="38.1429483" lon="15.7065333"><ele>464.0</ele><time>2026-04-25T13:03:06.658Z</time></trkpt><trkpt lat="38.1428833" lon="15.7064583"><ele>464.0</ele><time>2026-04-25T13:03:07.658Z</time></trkpt><trkpt lat="38.1428117" lon="15.7063517"><ele>464.0</ele><time>2026-04-25T13:03:08.658Z</time></trkpt><trkpt lat="38.142755" lon="15.7062567"><ele>464.0</ele><time>2026-04-25T13:03:09.658Z</time></trkpt><trkpt lat="38.1427167" lon="15.7061467"><ele>461.6</ele><time>2026-04-25T13:03:10.658Z</time></trkpt><trkpt lat="38.1426883" lon="15.7060433"><ele>459.2</ele><time>2026-04-25T13:03:11.658Z</time></trkpt><trkpt lat="38.1426417" lon="15.70596"><ele>456.80000000000007</ele><time>2026-04-25T13:03:12.658Z</time></trkpt><trkpt lat="38.142575" lon="15.705875"><ele>454.40000000000003</ele><time>2026-04-25T13:03:13.658Z</time></trkpt><trkpt lat="38.1424833" lon="15.70579"><ele>452.0</ele><time>2026-04-25T13:03:14.659Z</time></trkpt><trkpt lat="38.1424033" lon="15.7057017"><ele>455.25</ele><time>2026-04-25T13:03:15.658Z</time></trkpt><trkpt lat="38.1423383" lon="15.7056033"><ele>458.5</ele><time>2026-04-25T13:03:16.658Z</time></trkpt><trkpt lat="38.1422867" lon="15.705445"><ele>461.75</ele><time>2026-04-25T13:03:17.658Z</time></trkpt><trkpt lat="38.142235" lon="15.7052583"><ele>465.0</ele><time>2026-04-25T13:03:18.658Z</time></trkpt><trkpt lat="38.14219" lon="15.7050967"><ele>465.0</ele><time>2026-04-25T13:03:19.659Z</time></trkpt><trkpt lat="38.1421633" lon="15.7049917"><ele>465.0</ele><time>2026-04-25T13:03:20.659Z</time></trkpt><trkpt lat="38.1421133" lon="15.7049367"><ele>465.0</ele><time>2026-04-25T13:03:21.659Z</time></trkpt><trkpt lat="38.1420483" lon="15.704885"><ele>465.0</ele><time>2026-04-25T13:03:22.659Z</time></trkpt><trkpt lat="38.1419817" lon="15.7048617"><ele>465.0</ele><time>2026-04-25T13:03:23.658Z</time></trkpt><trkpt lat="38.1419183" lon="15.7048433"><ele>465.0</ele><time>2026-04-25T13:03:24.658Z</time></trkpt><trkpt lat="38.1418533" lon="15.704855"><ele>465.0</ele><time>2026-04-25T13:03:25.658Z</time></trkpt><trkpt lat="38.1417883" lon="15.7048883"><ele>465.0</ele><time>2026-04-25T13:03:26.658Z</time></trkpt><trkpt lat="38.1417217" lon="15.70491"><ele>465.0</ele><time>2026-04-25T13:03:27.658Z</time></trkpt><trkpt lat="38.141605" lon="15.704885"><ele>465.0</ele><time>2026-04-25T13:03:29.658Z</time></trkpt><trkpt lat="38.1415483" lon="15.7048017"><ele>465.0</ele><time>2026-04-25T13:03:31.658Z</time></trkpt><trkpt lat="38.1415817" lon="15.7046267"><ele>465.0</ele><time>2026-04-25T13:03:33.658Z</time></trkpt><trkpt lat="38.1415967" lon="15.7044883"><ele>463.4</ele><time>2026-04-25T13:03:34.658Z</time></trkpt><trkpt lat="38.1416017" lon="15.7043367"><ele>461.8</ele><time>2026-04-25T13:03:35.658Z</time></trkpt><trkpt lat="38.1416217" lon="15.7042033"><ele>460.20000000000005</ele><time>2026-04-25T13:03:36.658Z</time></trkpt><trkpt lat="38.1416383" lon="15.7040933"><ele>458.6</ele><time>2026-04-25T13:03:37.658Z</time></trkpt><trkpt lat="38.1416233" lon="15.7039583"><ele>457.0</ele><time>2026-04-25T13:03:39.658Z</time></trkpt><trkpt lat="38.1415717" lon="15.703885"><ele>462.6</ele><time>2026-04-25T13:03:40.658Z</time></trkpt><trkpt lat="38.141525" lon="15.7037967"><ele>468.20000000000005</ele><time>2026-04-25T13:03:41.658Z</time></trkpt><trkpt lat="38.1414983" lon="15.7036733"><ele>473.8</ele><time>2026-04-25T13:03:42.659Z</time></trkpt><trkpt lat="38.1414933" lon="15.7035133"><ele>479.4</ele><time>2026-04-25T13:03:43.658Z</time></trkpt><trkpt lat="38.1414867" lon="15.7033417"><ele>485.0</ele><time>2026-04-25T13:03:44.658Z</time></trkpt><trkpt lat="38.14149" lon="15.7031733"><ele>484.99999999999994</ele><time>2026-04-25T13:03:45.658Z</time></trkpt><trkpt lat="38.1414983" lon="15.70302"><ele>485.0</ele><time>2026-04-25T13:03:46.658Z</time></trkpt><trkpt lat="38.1415033" lon="15.7028967"><ele>485.0</ele><time>2026-04-25T13:03:47.658Z</time></trkpt><trkpt lat="38.1415117" lon="15.7027917"><ele>485.0</ele><time>2026-04-25T13:03:48.658Z</time></trkpt><trkpt lat="38.1415267" lon="15.7026967"><ele>484.99999999999994</ele><time>2026-04-25T13:03:49.658Z</time></trkpt><trkpt lat="38.14154" lon="15.7026167"><ele>485.0</ele><time>2026-04-25T13:03:50.658Z</time></trkpt><trkpt lat="38.14151" lon="15.70252"><ele>476.5</ele><time>2026-04-25T13:03:52.658Z</time></trkpt><trkpt lat="38.1413783" lon="15.7024917"><ele>468.0</ele><time>2026-04-25T13:03:54.658Z</time></trkpt><trkpt lat="38.1412533" lon="15.7025017"><ele>459.5</ele><time>2026-04-25T13:03:55.658Z</time></trkpt><trkpt lat="38.14113" lon="15.70251"><ele>451.0</ele><time>2026-04-25T13:03:56.659Z</time></trkpt><trkpt lat="38.1410317" lon="15.7024967"><ele>451.0</ele><time>2026-04-25T13:03:57.658Z</time></trkpt><trkpt lat="38.1409267" lon="15.7024633"><ele>451.0</ele><time>2026-04-25T13:03:58.658Z</time></trkpt><trkpt lat="38.1408233" lon="15.7024117"><ele>451.0</ele><time>2026-04-25T13:03:59.658Z</time></trkpt><trkpt lat="38.1407283" lon="15.7023617"><ele>451.0</ele><time>2026-04-25T13:04:00.658Z</time></trkpt><trkpt lat="38.1406217" lon="15.7023283"><ele>451.0</ele><time>2026-04-25T13:04:01.658Z</time></trkpt><trkpt lat="38.1405067" lon="15.702285"><ele>453.6</ele><time>2026-04-25T13:04:02.659Z</time></trkpt><trkpt lat="38.1403983" lon="15.7022433"><ele>456.20000000000005</ele><time>2026-04-25T13:04:03.659Z</time></trkpt><trkpt lat="38.1403217" lon="15.7022217"><ele>458.79999999999995</ele><time>2026-04-25T13:04:04.659Z</time></trkpt><trkpt lat="38.1402583" lon="15.7022117"><ele>461.4</ele><time>2026-04-25T13:04:05.658Z</time></trkpt><trkpt lat="38.140165" lon="15.7021567"><ele>464.0</ele><time>2026-04-25T13:04:07.658Z</time></trkpt><trkpt lat="38.1400883" lon="15.7020317"><ele>463.99999999999994</ele><time>2026-04-25T13:04:09.659Z</time></trkpt><trkpt lat="38.14" lon="15.7020017"><ele>464.0</ele><time>2026-04-25T13:04:11.658Z</time></trkpt><trkpt lat="38.1399267" lon="15.7020267"><ele>464.0</ele><time>2026-04-25T13:04:12.659Z</time></trkpt><trkpt lat="38.1398467" lon="15.702065"><ele>464.0</ele><time>2026-04-25T13:04:13.658Z</time></trkpt><trkpt lat="38.1397683" lon="15.7020917"><ele>463.99999999999994</ele><time>2026-04-25T13:04:14.658Z</time></trkpt><trkpt lat="38.1396883" lon="15.7021017"><ele>464.0</ele><time>2026-04-25T13:04:15.658Z</time></trkpt><trkpt lat="38.13961" lon="15.7020917"><ele>467.0</ele><time>2026-04-25T13:04:16.659Z</time></trkpt><trkpt lat="38.1395267" lon="15.7020567"><ele>470.0</ele><time>2026-04-25T13:04:17.658Z</time></trkpt><trkpt lat="38.1394617" lon="15.70203"><ele>473.0</ele><time>2026-04-25T13:04:18.658Z</time></trkpt><trkpt lat="38.139335" lon="15.7020583"><ele>476.0</ele><time>2026-04-25T13:04:20.658Z</time></trkpt><trkpt lat="38.1392433" lon="15.702165"><ele>479.0</ele><time>2026-04-25T13:04:22.658Z</time></trkpt><trkpt lat="38.1391917" lon="15.70224"><ele>478.99999999999994</ele><time>2026-04-25T13:04:23.658Z</time></trkpt><trkpt lat="38.1391317" lon="15.702305"><ele>479.0</ele><time>2026-04-25T13:04:24.658Z</time></trkpt><trkpt lat="38.1390717" lon="15.70234"><ele>479.0</ele><time>2026-04-25T13:04:25.658Z</time></trkpt><trkpt lat="38.1390033" lon="15.7023567"><ele>479.0</ele><time>2026-04-25T13:04:26.658Z</time></trkpt><trkpt lat="38.1389333" lon="15.7023617"><ele>478.99999999999994</ele><time>2026-04-25T13:04:27.658Z</time></trkpt><trkpt lat="38.1388483" lon="15.70228"><ele>479.0</ele><time>2026-04-25T13:04:29.658Z</time></trkpt><trkpt lat="38.1387883" lon="15.7023117"><ele>479.0</ele><time>2026-04-25T13:04:33.658Z</time></trkpt><trkpt lat="38.1388083" lon="15.7024467"><ele>479.0</ele><time>2026-04-25T13:04:35.659Z</time></trkpt><trkpt lat="38.1389017" lon="15.7025383"><ele>479.0</ele><time>2026-04-25T13:04:37.658Z</time></trkpt><trkpt lat="38.138975" lon="15.702565"><ele>479.0</ele><time>2026-04-25T13:04:38.658Z</time></trkpt><trkpt lat="38.13906" lon="15.7025817"><ele>479.0</ele><time>2026-04-25T13:04:39.658Z</time></trkpt><trkpt lat="38.1391533" lon="15.7026"><ele>478.99999999999994</ele><time>2026-04-25T13:04:40.658Z</time></trkpt><trkpt lat="38.1392467" lon="15.7026067"><ele>479.0</ele><time>2026-04-25T13:04:41.659Z</time></trkpt><trkpt lat="38.1393167" lon="15.7026317"><ele>479.0</ele><time>2026-04-25T13:04:42.658Z</time></trkpt><trkpt lat="38.1392333" lon="15.7027133"><ele>479.0</ele><time>2026-04-25T13:04:47.658Z</time></trkpt><trkpt lat="38.139135" lon="15.70272"><ele>478.99999999999994</ele><time>2026-04-25T13:04:48.658Z</time></trkpt><trkpt lat="38.1390617" lon="15.7027383"><ele>479.0</ele><time>2026-04-25T13:04:49.659Z</time></trkpt><trkpt lat="38.1391583" lon="15.7027967"><ele>484.3333333333333</ele><time>2026-04-25T13:04:55.658Z</time></trkpt><trkpt lat="38.139235" lon="15.7028117"><ele>489.66666666666663</ele><time>2026-04-25T13:04:56.658Z</time></trkpt><trkpt lat="38.1393033" lon="15.7028433"><ele>495.0</ele><time>2026-04-25T13:04:57.658Z</time></trkpt><trkpt lat="38.139365" lon="15.7029"><ele>500.33333333333337</ele><time>2026-04-25T13:04:58.658Z</time></trkpt><trkpt lat="38.13943" lon="15.7029817"><ele>505.6666666666667</ele><time>2026-04-25T13:04:59.658Z</time></trkpt><trkpt lat="38.139475" lon="15.7030683"><ele>511.0</ele><time>2026-04-25T13:05:00.658Z</time></trkpt><trkpt lat="38.1395017" lon="15.703175"><ele>511.0</ele><time>2026-04-25T13:05:01.658Z</time></trkpt><trkpt lat="38.139535" lon="15.70329"><ele>511.0</ele><time>2026-04-25T13:05:02.658Z</time></trkpt><trkpt lat="38.1395683" lon="15.7033883"><ele>511.0</ele><time>2026-04-25T13:05:03.658Z</time></trkpt><trkpt lat="38.1395867" lon="15.7034867"><ele>511.0</ele><time>2026-04-25T13:05:04.658Z</time></trkpt><trkpt lat="38.1396533" lon="15.7035983"><ele>511.0</ele><time>2026-04-25T13:05:06.659Z</time></trkpt><trkpt lat="38.1397683" lon="15.7036217"><ele>515.6</ele><time>2026-04-25T13:05:08.658Z</time></trkpt><trkpt lat="38.1398533" lon="15.7036217"><ele>520.2</ele><time>2026-04-25T13:05:09.658Z</time></trkpt><trkpt lat="38.1399617" lon="15.7036267"><ele>524.8</ele><time>2026-04-25T13:05:10.658Z</time></trkpt><trkpt lat="38.1400817" lon="15.7036467"><ele>529.4</ele><time>2026-04-25T13:05:11.658Z</time></trkpt><trkpt lat="38.1401983" lon="15.7036867"><ele>534.0</ele><time>2026-04-25T13:05:12.659Z</time></trkpt><trkpt lat="38.1403067" lon="15.703735"><ele>534.0</ele><time>2026-04-25T13:05:13.658Z</time></trkpt><trkpt lat="38.1404133" lon="15.703775"><ele>534.0</ele><time>2026-04-25T13:05:14.658Z</time></trkpt><trkpt lat="38.140495" lon="15.7038067"><ele>534.0</ele><time>2026-04-25T13:05:15.658Z</time></trkpt><trkpt lat="38.140555" lon="15.7038367"><ele>534.0</ele><time>2026-04-25T13:05:16.658Z</time></trkpt><trkpt lat="38.1406133" lon="15.7039383"><ele>534.0</ele><time>2026-04-25T13:05:18.658Z</time></trkpt><trkpt lat="38.1406267" lon="15.7040183"><ele>534.0</ele><time>2026-04-25T13:05:19.659Z</time></trkpt><trkpt lat="38.1406317" lon="15.704115"><ele>534.0</ele><time>2026-04-25T13:05:20.658Z</time></trkpt><trkpt lat="38.14061" lon="15.7042183"><ele>534.0</ele><time>2026-04-25T13:05:21.658Z</time></trkpt><trkpt lat="38.14058" lon="15.7043283"><ele>534.0</ele><time>2026-04-25T13:05:22.659Z</time></trkpt><trkpt lat="38.14056" lon="15.704405"><ele>534.0</ele><time>2026-04-25T13:05:23.658Z</time></trkpt><trkpt lat="38.140515" lon="15.7042533"><ele>534.0</ele><time>2026-04-25T13:05:29.658Z</time></trkpt><trkpt lat="38.1404883" lon="15.7041717"><ele>534.0</ele><time>2026-04-25T13:05:30.658Z</time></trkpt><trkpt lat="38.1403967" lon="15.7040667"><ele>534.0</ele><time>2026-04-25T13:05:32.658Z</time></trkpt><trkpt lat="38.1402733" lon="15.7040617"><ele>534.0</ele><time>2026-04-25T13:05:34.658Z</time></trkpt><trkpt lat="38.1401817" lon="15.70409"><ele>534.0</ele><time>2026-04-25T13:05:35.658Z</time></trkpt><trkpt lat="38.1400783" lon="15.7041133"><ele>534.0</ele><time>2026-04-25T13:05:36.658Z</time></trkpt><trkpt lat="38.1399767" lon="15.7041233"><ele>534.0</ele><time>2026-04-25T13:05:37.658Z</time></trkpt><trkpt lat="38.13987" lon="15.704135"><ele>535.3333333333334</ele><time>2026-04-25T13:05:38.658Z</time></trkpt><trkpt lat="38.1397683" lon="15.70415"><ele>536.6666666666666</ele><time>2026-04-25T13:05:39.658Z</time></trkpt><trkpt lat="38.139685" lon="15.7041733"><ele>538.0</ele><time>2026-04-25T13:05:40.658Z</time></trkpt><trkpt lat="38.13962" lon="15.7041917"><ele>539.3333333333333</ele><time>2026-04-25T13:05:41.659Z</time></trkpt><trkpt lat="38.139555" lon="15.7042267"><ele>540.6666666666666</ele><time>2026-04-25T13:05:42.658Z</time></trkpt><trkpt lat="38.1394767" lon="15.70426"><ele>542.0</ele><time>2026-04-25T13:05:43.658Z</time></trkpt><trkpt lat="38.1393967" lon="15.7042667"><ele>542.0</ele><time>2026-04-25T13:05:44.658Z</time></trkpt><trkpt lat="38.1393167" lon="15.7042567"><ele>542.0</ele><time>2026-04-25T13:05:45.658Z</time></trkpt><trkpt lat="38.1392383" lon="15.7042217"><ele>542.0</ele><time>2026-04-25T13:05:46.658Z</time></trkpt><trkpt lat="38.1391717" lon="15.7041633"><ele>542.0</ele><time>2026-04-25T13:05:47.659Z</time></trkpt><trkpt lat="38.1391017" lon="15.7040817"><ele>542.0</ele><time>2026-04-25T13:05:48.658Z</time></trkpt><trkpt lat="38.139035" lon="15.7040017"><ele>542.0</ele><time>2026-04-25T13:05:49.659Z</time></trkpt><trkpt lat="38.13896" lon="15.703945"><ele>544.0</ele><time>2026-04-25T13:05:50.658Z</time></trkpt><trkpt lat="38.138895" lon="15.703925"><ele>546.0</ele><time>2026-04-25T13:05:51.658Z</time></trkpt><trkpt lat="38.13877" lon="15.7039667"><ele>548.0</ele><time>2026-04-25T13:05:53.658Z</time></trkpt><trkpt lat="38.1386983" lon="15.70399"><ele>550.0</ele><time>2026-04-25T13:05:54.658Z</time></trkpt><trkpt lat="38.13858" lon="15.70395"><ele>552.0</ele><time>2026-04-25T13:05:56.658Z</time></trkpt><trkpt lat="38.138505" lon="15.7039033"><ele>552.0</ele><time>2026-04-25T13:05:57.659Z</time></trkpt><trkpt lat="38.1384367" lon="15.7038533"><ele>552.0</ele><time>2026-04-25T13:05:58.658Z</time></trkpt><trkpt lat="38.1383917" lon="15.7037867"><ele>552.0</ele><time>2026-04-25T13:05:59.658Z</time></trkpt><trkpt lat="38.138345" lon="15.7036433"><ele>552.0</ele><time>2026-04-25T13:06:01.658Z</time></trkpt><trkpt lat="38.1382483" lon="15.70357"><ele>552.0</ele><time>2026-04-25T13:06:03.658Z</time></trkpt><trkpt lat="38.1381217" lon="15.703535"><ele>551.3333333333334</ele><time>2026-04-25T13:06:05.658Z</time></trkpt><trkpt lat="38.138055" lon="15.7034983"><ele>550.6666666666666</ele><time>2026-04-25T13:06:06.658Z</time></trkpt><trkpt lat="38.137995" lon="15.703445"><ele>550.0</ele><time>2026-04-25T13:06:07.658Z</time></trkpt><trkpt lat="38.1379533" lon="15.7033683"><ele>549.3333333333333</ele><time>2026-04-25T13:06:08.658Z</time></trkpt><trkpt lat="38.1379233" lon="15.7032817"><ele>548.6666666666666</ele><time>2026-04-25T13:06:09.658Z</time></trkpt><trkpt lat="38.1378533" lon="15.7031583"><ele>548.0</ele><time>2026-04-25T13:06:11.658Z</time></trkpt><trkpt lat="38.13781" lon="15.7030967"><ele>548.0</ele><time>2026-04-25T13:06:12.659Z</time></trkpt><trkpt lat="38.137755" lon="15.7030283"><ele>548.0</ele><time>2026-04-25T13:06:13.658Z</time></trkpt><trkpt lat="38.1377117" lon="15.7029517"><ele>548.0</ele><time>2026-04-25T13:06:14.658Z</time></trkpt><trkpt lat="38.1376933" lon="15.7028533"><ele>548.0</ele><time>2026-04-25T13:06:15.658Z</time></trkpt><trkpt lat="38.1376683" lon="15.7027433"><ele>548.0</ele><time>2026-04-25T13:06:16.658Z</time></trkpt><trkpt lat="38.1376367" lon="15.7026567"><ele>548.0</ele><time>2026-04-25T13:06:17.658Z</time></trkpt><trkpt lat="38.1376" lon="15.7025733"><ele>548.8333333333333</ele><time>2026-04-25T13:06:18.659Z</time></trkpt><trkpt lat="38.1375533" lon="15.70249"><ele>549.6666666666666</ele><time>2026-04-25T13:06:19.659Z</time></trkpt><trkpt lat="38.1374883" lon="15.7024117"><ele>550.5</ele><time>2026-04-25T13:06:20.658Z</time></trkpt><trkpt lat="38.137415" lon="15.7023483"><ele>551.3333333333334</ele><time>2026-04-25T13:06:21.658Z</time></trkpt><trkpt lat="38.1373417" lon="15.7023"><ele>552.1666666666667</ele><time>2026-04-25T13:06:22.658Z</time></trkpt><trkpt lat="38.1372717" lon="15.7022483"><ele>553.0</ele><time>2026-04-25T13:06:23.658Z</time></trkpt><trkpt lat="38.137215" lon="15.7021967"><ele>553.0</ele><time>2026-04-25T13:06:24.658Z</time></trkpt><trkpt lat="38.1371767" lon="15.7021217"><ele>553.0</ele><time>2026-04-25T13:06:25.658Z</time></trkpt><trkpt lat="38.137135" lon="15.7020333"><ele>553.0</ele><time>2026-04-25T13:06:26.659Z</time></trkpt><trkpt lat="38.13709" lon="15.7019617"><ele>553.0</ele><time>2026-04-25T13:06:27.658Z</time></trkpt><trkpt lat="38.137025" lon="15.7019083"><ele>553.0</ele><time>2026-04-25T13:06:28.658Z</time></trkpt><trkpt lat="38.1369383" lon="15.7018667"><ele>553.0</ele><time>2026-04-25T13:06:29.658Z</time></trkpt><trkpt lat="38.1368617" lon="15.70183"><ele>554.5</ele><time>2026-04-25T13:06:30.659Z</time></trkpt><trkpt lat="38.1368017" lon="15.701805"><ele>556.0</ele><time>2026-04-25T13:06:31.658Z</time></trkpt><trkpt lat="38.13674" lon="15.7017867"><ele>557.5</ele><time>2026-04-25T13:06:33.658Z</time></trkpt><trkpt lat="38.13665" lon="15.7017717"><ele>559.0</ele><time>2026-04-25T13:16:57.657Z</time></trkpt><trkpt lat="38.136555" lon="15.7017767"><ele>560.5</ele><time>2026-04-25T13:16:59.657Z</time></trkpt><trkpt lat="38.13645" lon="15.70182"><ele>562.0</ele><time>2026-04-25T13:17:01.657Z</time></trkpt><trkpt lat="38.1363483" lon="15.7018533"><ele>562.0</ele><time>2026-04-25T13:17:03.657Z</time></trkpt><trkpt lat="38.1362433" lon="15.70183"><ele>562.0</ele><time>2026-04-25T13:17:05.657Z</time></trkpt><trkpt lat="38.13616" lon="15.70174"><ele>562.0</ele><time>2026-04-25T13:17:07.658Z</time></trkpt><trkpt lat="38.136095" lon="15.7016033"><ele>562.0</ele><time>2026-04-25T13:17:09.657Z</time></trkpt><trkpt lat="38.1360733" lon="15.7015217"><ele>562.0</ele><time>2026-04-25T13:17:10.658Z</time></trkpt><trkpt lat="38.1360483" lon="15.7013717"><ele>562.0</ele><time>2026-04-25T13:17:12.658Z</time></trkpt><trkpt lat="38.1360267" lon="15.7012433"><ele>562.0</ele><time>2026-04-25T13:17:14.657Z</time></trkpt><trkpt lat="38.13599" lon="15.7011167"><ele>562.0</ele><time>2026-04-25T13:17:16.657Z</time></trkpt><trkpt lat="38.1359167" lon="15.7010133"><ele>562.0</ele><time>2026-04-25T13:17:18.657Z</time></trkpt><trkpt lat="38.13582" lon="15.7009367"><ele>562.0</ele><time>2026-04-25T13:17:20.658Z</time></trkpt><trkpt lat="38.1357633" lon="15.7008183"><ele>556.8000000000001</ele><time>2026-04-25T13:17:22.657Z</time></trkpt><trkpt lat="38.1357133" lon="15.70068"><ele>551.6</ele><time>2026-04-25T13:17:24.657Z</time></trkpt><trkpt lat="38.1356717" lon="15.7005567"><ele>546.4000000000001</ele><time>2026-04-25T13:17:26.657Z</time></trkpt><trkpt lat="38.1356583" lon="15.7004533"><ele>541.2</ele><time>2026-04-25T13:17:28.657Z</time></trkpt><trkpt lat="38.135645" lon="15.7003367"><ele>536.0</ele><time>2026-04-25T13:17:42.657Z</time></trkpt><trkpt lat="38.1356033" lon="15.7002417"><ele>533.4</ele><time>2026-04-25T13:17:44.658Z</time></trkpt><trkpt lat="38.135565" lon="15.7001517"><ele>530.8</ele><time>2026-04-25T13:17:46.657Z</time></trkpt><trkpt lat="38.1355333" lon="15.700045"><ele>528.1999999999999</ele><time>2026-04-25T13:17:48.657Z</time></trkpt><trkpt lat="38.1355117" lon="15.6999217"><ele>525.6</ele><time>2026-04-25T13:17:50.658Z</time></trkpt><trkpt lat="38.1354767" lon="15.699775"><ele>523.0</ele><time>2026-04-25T13:17:52.658Z</time></trkpt><trkpt lat="38.13546" lon="15.6996533"><ele>523.0</ele><time>2026-04-25T13:17:54.657Z</time></trkpt><trkpt lat="38.1354217" lon="15.6995183"><ele>523.0</ele><time>2026-04-25T13:17:56.658Z</time></trkpt><trkpt lat="38.135365" lon="15.699385"><ele>523.0</ele><time>2026-04-25T13:17:58.657Z</time></trkpt><trkpt lat="38.1353417" lon="15.699305"><ele>523.0</ele><time>2026-04-25T13:17:59.657Z</time></trkpt><trkpt lat="38.1352933" lon="15.6991883"><ele>523.0</ele><time>2026-04-25T13:18:01.657Z</time></trkpt><trkpt lat="38.1352283" lon="15.6990833"><ele>526.6</ele><time>2026-04-25T13:18:03.657Z</time></trkpt><trkpt lat="38.13514" lon="15.699005"><ele>530.1999999999999</ele><time>2026-04-25T13:18:05.657Z</time></trkpt><trkpt lat="38.1350383" lon="15.6989967"><ele>533.8</ele><time>2026-04-25T13:18:07.657Z</time></trkpt><trkpt lat="38.1349317" lon="15.6989867"><ele>537.4</ele><time>2026-04-25T13:18:09.657Z</time></trkpt><trkpt lat="38.134835" lon="15.6989483"><ele>541.0</ele><time>2026-04-25T13:18:11.657Z</time></trkpt><trkpt lat="38.1347717" lon="15.6988583"><ele>535.8333333333334</ele><time>2026-04-25T13:18:13.657Z</time></trkpt><trkpt lat="38.1347367" lon="15.698765"><ele>530.6666666666667</ele><time>2026-04-25T13:18:15.657Z</time></trkpt><trkpt lat="38.134715" lon="15.6986483"><ele>525.5</ele><time>2026-04-25T13:18:18.657Z</time></trkpt><trkpt lat="38.1347233" lon="15.69856"><ele>520.3333333333334</ele><time>2026-04-25T13:18:20.657Z</time></trkpt><trkpt lat="38.1346867" lon="15.6984517"><ele>515.1666666666666</ele><time>2026-04-25T13:18:23.657Z</time></trkpt><trkpt lat="38.134615" lon="15.6984067"><ele>510.0</ele><time>2026-04-25T13:18:25.657Z</time></trkpt><trkpt lat="38.1345333" lon="15.6983733"><ele>510.0</ele><time>2026-04-25T13:18:27.657Z</time></trkpt><trkpt lat="38.134475" lon="15.6983333"><ele>510.0</ele><time>2026-04-25T13:18:29.657Z</time></trkpt><trkpt lat="38.1344417" lon="15.6982567"><ele>510.0</ele><time>2026-04-25T13:18:31.657Z</time></trkpt><trkpt lat="38.1344283" lon="15.6981633"><ele>510.0</ele><time>2026-04-25T13:18:33.657Z</time></trkpt><trkpt lat="38.13438" lon="15.6980517"><ele>510.0</ele><time>2026-04-25T13:18:36.658Z</time></trkpt><trkpt lat="38.1343083" lon="15.6979867"><ele>510.0</ele><time>2026-04-25T13:18:38.657Z</time></trkpt><trkpt lat="38.1342383" lon="15.6979317"><ele>510.0</ele><time>2026-04-25T13:18:40.657Z</time></trkpt><trkpt lat="38.1341867" lon="15.6978433"><ele>510.0</ele><time>2026-04-25T13:18:43.658Z</time></trkpt><trkpt lat="38.1341317" lon="15.6977517"><ele>510.0</ele><time>2026-04-25T13:18:46.657Z</time></trkpt><trkpt lat="38.134095" lon="15.6976717"><ele>510.0</ele><time>2026-04-25T13:18:48.658Z</time></trkpt><trkpt lat="38.1340783" lon="15.69759"><ele>510.0</ele><time>2026-04-25T13:18:50.658Z</time></trkpt><trkpt lat="38.1340633" lon="15.697505"><ele>510.0</ele><time>2026-04-25T13:18:52.658Z</time></trkpt><trkpt lat="38.1340433" lon="15.6973917"><ele>510.0</ele><time>2026-04-25T13:18:55.658Z</time></trkpt><trkpt lat="38.1340817" lon="15.6972867"><ele>510.0</ele><time>2026-04-25T13:18:58.657Z</time></trkpt><trkpt lat="38.13411" lon="15.6972067"><ele>510.0</ele><time>2026-04-25T13:19:01.657Z</time></trkpt><trkpt lat="38.1340767" lon="15.6971383"><ele>510.0</ele><time>2026-04-25T13:19:04.657Z</time></trkpt><trkpt lat="38.134025" lon="15.697035"><ele>510.0</ele><time>2026-04-25T13:19:07.657Z</time></trkpt><trkpt lat="38.1340033" lon="15.6969417"><ele>510.0</ele><time>2026-04-25T13:19:09.658Z</time></trkpt><trkpt lat="38.1340083" lon="15.6968583"><ele>506.5</ele><time>2026-04-25T13:19:11.657Z</time></trkpt><trkpt lat="38.1340583" lon="15.6967983"><ele>503.0</ele><time>2026-04-25T13:19:13.657Z</time></trkpt><trkpt lat="38.1341183" lon="15.6967683"><ele>499.5</ele><time>2026-04-25T13:19:15.657Z</time></trkpt><trkpt lat="38.1341717" lon="15.6966917"><ele>496.0</ele><time>2026-04-25T13:19:18.657Z</time></trkpt><trkpt lat="38.1341417" lon="15.6966117"><ele>492.5</ele><time>2026-04-25T13:19:21.657Z</time></trkpt><trkpt lat="38.1340633" lon="15.6965683"><ele>489.0</ele><time>2026-04-25T13:19:24.657Z</time></trkpt><trkpt lat="38.1339783" lon="15.6965767"><ele>484.6666666666667</ele><time>2026-04-25T13:19:27.657Z</time></trkpt><trkpt lat="38.13391" lon="15.6966233"><ele>480.33333333333337</ele><time>2026-04-25T13:19:30.657Z</time></trkpt><trkpt lat="38.1338583" lon="15.6966717"><ele>476.0</ele><time>2026-04-25T13:19:32.657Z</time></trkpt><trkpt lat="38.1338017" lon="15.696735"><ele>471.6666666666667</ele><time>2026-04-25T13:19:34.658Z</time></trkpt><trkpt lat="38.1337933" lon="15.696645"><ele>467.33333333333337</ele><time>2026-04-25T13:19:45.657Z</time></trkpt><trkpt lat="38.1338483" lon="15.6965117"><ele>463.0</ele><time>2026-04-25T13:19:52.657Z</time></trkpt><trkpt lat="38.1338433" lon="15.6964117"><ele>463.0</ele><time>2026-04-25T13:19:55.658Z</time></trkpt><trkpt lat="38.1338917" lon="15.69632"><ele>462.99999999999994</ele><time>2026-04-25T13:19:58.657Z</time></trkpt><trkpt lat="38.133935" lon="15.69624"><ele>463.0</ele><time>2026-04-25T13:20:01.657Z</time></trkpt><trkpt lat="38.1339733" lon="15.6961717"><ele>463.0</ele><time>2026-04-25T13:20:05.657Z</time></trkpt><trkpt lat="38.134005" lon="15.6960983"><ele>462.99999999999994</ele><time>2026-04-25T13:20:11.657Z</time></trkpt><trkpt lat="38.134045" lon="15.6960217"><ele>463.0</ele><time>2026-04-25T13:20:15.657Z</time></trkpt><trkpt lat="38.1340717" lon="15.69594"><ele>463.0</ele><time>2026-04-25T13:20:18.657Z</time></trkpt><trkpt lat="38.1341133" lon="15.695875"><ele>463.83333333333337</ele><time>2026-04-25T13:20:20.657Z</time></trkpt><trkpt lat="38.1341533" lon="15.6957783"><ele>464.6666666666667</ele><time>2026-04-25T13:20:23.657Z</time></trkpt><trkpt lat="38.1341283" lon="15.69568"><ele>465.5</ele><time>2026-04-25T13:20:27.657Z</time></trkpt><trkpt lat="38.1340867" lon="15.695595"><ele>466.33333333333337</ele><time>2026-04-25T13:20:30.657Z</time></trkpt><trkpt lat="38.134025" lon="15.6955267"><ele>467.1666666666667</ele><time>2026-04-25T13:20:33.658Z</time></trkpt><trkpt lat="38.1339767" lon="15.6954533"><ele>468.0</ele><time>2026-04-25T13:20:35.657Z</time></trkpt><trkpt lat="38.1339333" lon="15.69538"><ele>464.3333333333333</ele><time>2026-04-25T13:20:37.657Z</time></trkpt><trkpt lat="38.1338567" lon="15.695365"><ele>460.66666666666663</ele><time>2026-04-25T13:20:41.657Z</time></trkpt><trkpt lat="38.1337767" lon="15.6953767"><ele>457.0</ele><time>2026-04-25T13:20:46.656Z</time></trkpt><trkpt lat="38.1337083" lon="15.6953433"><ele>453.3333333333333</ele><time>2026-04-25T13:20:49.656Z</time></trkpt><trkpt lat="38.1336383" lon="15.6952867"><ele>449.66666666666663</ele><time>2026-04-25T13:20:55.656Z</time></trkpt><trkpt lat="38.1336067" lon="15.6952133"><ele>446.0</ele><time>2026-04-25T13:20:59.656Z</time></trkpt><trkpt lat="38.133575" lon="15.6951283"><ele>445.16666666666663</ele><time>2026-04-25T13:21:02.656Z</time></trkpt><trkpt lat="38.133525" lon="15.6950633"><ele>444.3333333333333</ele><time>2026-04-25T13:21:05.657Z</time></trkpt><trkpt lat="38.1334917" lon="15.6949717"><ele>443.5</ele><time>2026-04-25T13:21:08.656Z</time></trkpt><trkpt lat="38.1334967" lon="15.6948783"><ele>442.66666666666663</ele><time>2026-04-25T13:21:11.656Z</time></trkpt><trkpt lat="38.1335317" lon="15.6947867"><ele>441.8333333333333</ele><time>2026-04-25T13:21:14.657Z</time></trkpt><trkpt lat="38.13356" lon="15.6946733"><ele>441.0</ele><time>2026-04-25T13:21:17.656Z</time></trkpt><trkpt lat="38.1335417" lon="15.6945933"><ele>441.0</ele><time>2026-04-25T13:21:19.656Z</time></trkpt><trkpt lat="38.1335133" lon="15.6945117"><ele>441.0</ele><time>2026-04-25T13:21:21.656Z</time></trkpt><trkpt lat="38.1334767" lon="15.6944383"><ele>441.0</ele><time>2026-04-25T13:21:24.656Z</time></trkpt><trkpt lat="38.1334633" lon="15.6943333"><ele>441.0</ele><time>2026-04-25T13:21:29.656Z</time></trkpt><trkpt lat="38.1334433" lon="15.694255"><ele>441.0</ele><time>2026-04-25T13:21:32.656Z</time></trkpt><trkpt lat="38.1334433" lon="15.6941617"><ele>441.0</ele><time>2026-04-25T13:21:35.656Z</time></trkpt><trkpt lat="38.1334783" lon="15.6940517"><ele>439.0</ele><time>2026-04-25T13:21:38.656Z</time></trkpt><trkpt lat="38.1335067" lon="15.6939517"><ele>437.0</ele><time>2026-04-25T13:21:41.656Z</time></trkpt><trkpt lat="38.1334883" lon="15.693835"><ele>435.0</ele><time>2026-04-25T13:21:44.656Z</time></trkpt><trkpt lat="38.1334567" lon="15.693755"><ele>433.0</ele><time>2026-04-25T13:21:46.657Z</time></trkpt><trkpt lat="38.1334217" lon="15.6936767"><ele>431.0</ele><time>2026-04-25T13:21:48.657Z</time></trkpt><trkpt lat="38.1333767" lon="15.693595"><ele>429.0</ele><time>2026-04-25T13:21:52.656Z</time></trkpt><trkpt lat="38.13337" lon="15.6935117"><ele>426.8571428571429</ele><time>2026-04-25T13:22:05.656Z</time></trkpt><trkpt lat="38.1333717" lon="15.6934033"><ele>424.7142857142857</ele><time>2026-04-25T13:22:08.657Z</time></trkpt><trkpt lat="38.1333767" lon="15.6933083"><ele>422.57142857142856</ele><time>2026-04-25T13:22:10.656Z</time></trkpt><trkpt lat="38.1333683" lon="15.693225"><ele>420.42857142857144</ele><time>2026-04-25T13:22:15.656Z</time></trkpt><trkpt lat="38.1333617" lon="15.6931417"><ele>418.2857142857143</ele><time>2026-04-25T13:22:20.656Z</time></trkpt><trkpt lat="38.13336" lon="15.693045"><ele>416.14285714285717</ele><time>2026-04-25T13:22:33.656Z</time></trkpt><trkpt lat="38.13336" lon="15.69296"><ele>414.0</ele><time>2026-04-25T13:22:35.656Z</time></trkpt><trkpt lat="38.1333583" lon="15.6928717"><ele>414.00000000000006</ele><time>2026-04-25T13:22:37.656Z</time></trkpt><trkpt lat="38.1333533" lon="15.6927917"><ele>414.0</ele><time>2026-04-25T13:22:39.657Z</time></trkpt><trkpt lat="38.1333483" lon="15.6927117"><ele>414.0</ele><time>2026-04-25T13:22:41.657Z</time></trkpt><trkpt lat="38.1333333" lon="15.6926317"><ele>414.0</ele><time>2026-04-25T13:22:43.656Z</time></trkpt><trkpt lat="38.13331" lon="15.692555"><ele>414.0</ele><time>2026-04-25T13:22:46.656Z</time></trkpt><trkpt lat="38.1332917" lon="15.6924583"><ele>414.00000000000006</ele><time>2026-04-25T13:22:50.657Z</time></trkpt><trkpt lat="38.1332867" lon="15.6923533"><ele>414.0</ele><time>2026-04-25T13:22:53.656Z</time></trkpt><trkpt lat="38.1332833" lon="15.692255"><ele>412.28571428571433</ele><time>2026-04-25T13:22:57.656Z</time></trkpt><trkpt lat="38.1332833" lon="15.69216"><ele>410.57142857142856</ele><time>2026-04-25T13:23:00.656Z</time></trkpt><trkpt lat="38.1332917" lon="15.692075"><ele>408.8571428571429</ele><time>2026-04-25T13:23:05.657Z</time></trkpt><trkpt lat="38.13331" lon="15.69199"><ele>407.14285714285717</ele><time>2026-04-25T13:23:10.656Z</time></trkpt><trkpt lat="38.1333067" lon="15.6918983"><ele>405.42857142857144</ele><time>2026-04-25T13:23:15.656Z</time></trkpt><trkpt lat="38.1332867" lon="15.6918067"><ele>403.7142857142857</ele><time>2026-04-25T13:23:18.656Z</time></trkpt><trkpt lat="38.13327" lon="15.6917217"><ele>402.0</ele><time>2026-04-25T13:23:22.656Z</time></trkpt><trkpt lat="38.1332533" lon="15.6916417"><ele>398.20000000000005</ele><time>2026-04-25T13:23:26.656Z</time></trkpt><trkpt lat="38.13319" lon="15.69149"><ele>394.4</ele><time>2026-04-25T13:23:35.657Z</time></trkpt><trkpt lat="38.1331483" lon="15.691405"><ele>390.6</ele><time>2026-04-25T13:23:37.656Z</time></trkpt><trkpt lat="38.1331467" lon="15.691295"><ele>386.79999999999995</ele><time>2026-04-25T13:23:39.656Z</time></trkpt><trkpt lat="38.133165" lon="15.6911933"><ele>383.0</ele><time>2026-04-25T13:23:41.656Z</time></trkpt><trkpt lat="38.1332333" lon="15.6911117"><ele>381.0</ele><time>2026-04-25T13:23:44.656Z</time></trkpt><trkpt lat="38.13329" lon="15.691065"><ele>379.0</ele><time>2026-04-25T13:23:46.656Z</time></trkpt><trkpt lat="38.133375" lon="15.6909933"><ele>377.0</ele><time>2026-04-25T13:23:48.656Z</time></trkpt><trkpt lat="38.1334567" lon="15.69094"><ele>375.0</ele><time>2026-04-25T13:23:50.656Z</time></trkpt><trkpt lat="38.1335" lon="15.6908533"><ele>373.0</ele><time>2026-04-25T13:23:53.656Z</time></trkpt><trkpt lat="38.1335217" lon="15.6907083"><ele>373.0</ele><time>2026-04-25T13:24:01.656Z</time></trkpt><trkpt lat="38.1335267" lon="15.6905917"><ele>373.0</ele><time>2026-04-25T13:24:03.657Z</time></trkpt><trkpt lat="38.1335283" lon="15.6904333"><ele>373.0</ele><time>2026-04-25T13:24:05.656Z</time></trkpt><trkpt lat="38.1335183" lon="15.6903433"><ele>373.0</ele><time>2026-04-25T13:24:06.656Z</time></trkpt><trkpt lat="38.1335083" lon="15.6902567"><ele>373.0</ele><time>2026-04-25T13:24:07.657Z</time></trkpt><trkpt lat="38.1334967" lon="15.6901667"><ele>373.0</ele><time>2026-04-25T13:24:08.657Z</time></trkpt><trkpt lat="38.13349" lon="15.6900117"><ele>371.3333333333333</ele><time>2026-04-25T13:24:10.656Z</time></trkpt><trkpt lat="38.13349" lon="15.68986"><ele>369.66666666666663</ele><time>2026-04-25T13:24:12.656Z</time></trkpt><trkpt lat="38.1334917" lon="15.6897717"><ele>368.0</ele><time>2026-04-25T13:24:13.656Z</time></trkpt><trkpt lat="38.1334967" lon="15.68968"><ele>366.3333333333333</ele><time>2026-04-25T13:24:14.657Z</time></trkpt><trkpt lat="38.1335083" lon="15.689595"><ele>364.6666666666667</ele><time>2026-04-25T13:24:15.656Z</time></trkpt><trkpt lat="38.13352" lon="15.6895117"><ele>363.0</ele><time>2026-04-25T13:24:16.657Z</time></trkpt><trkpt lat="38.1335317" lon="15.68943"><ele>362.79999999999995</ele><time>2026-04-25T13:24:17.656Z</time></trkpt><trkpt lat="38.1335333" lon="15.6892733"><ele>362.6</ele><time>2026-04-25T13:24:19.656Z</time></trkpt><trkpt lat="38.133525" lon="15.6891933"><ele>362.4</ele><time>2026-04-25T13:24:20.657Z</time></trkpt><trkpt lat="38.1334683" lon="15.6890483"><ele>362.20000000000005</ele><time>2026-04-25T13:24:22.656Z</time></trkpt><trkpt lat="38.133395" lon="15.6889217"><ele>362.0</ele><time>2026-04-25T13:24:24.656Z</time></trkpt><trkpt lat="38.13335" lon="15.6887783"><ele>362.0</ele><time>2026-04-25T13:24:26.656Z</time></trkpt><trkpt lat="38.1333083" lon="15.6886467"><ele>362.0</ele><time>2026-04-25T13:24:28.656Z</time></trkpt><trkpt lat="38.133225" lon="15.688535"><ele>362.0</ele><time>2026-04-25T13:24:30.656Z</time></trkpt><trkpt lat="38.1331717" lon="15.6884867"><ele>362.0</ele><time>2026-04-25T13:24:31.656Z</time></trkpt><trkpt lat="38.1331283" lon="15.6884233"><ele>362.0</ele><time>2026-04-25T13:24:32.656Z</time></trkpt><trkpt lat="38.13309" lon="15.6883533"><ele>362.0</ele><time>2026-04-25T13:24:33.656Z</time></trkpt><trkpt lat="38.1330667" lon="15.6882783"><ele>363.83333333333337</ele><time>2026-04-25T13:24:34.656Z</time></trkpt><trkpt lat="38.1330283" lon="15.6881633"><ele>365.6666666666667</ele><time>2026-04-25T13:24:36.656Z</time></trkpt><trkpt lat="38.133025" lon="15.6880533"><ele>367.5</ele><time>2026-04-25T13:25:32.656Z</time></trkpt><trkpt lat="38.1330217" lon="15.6879633"><ele>369.3333333333333</ele><time>2026-04-25T13:25:34.656Z</time></trkpt><trkpt lat="38.1329933" lon="15.68788"><ele>371.16666666666663</ele><time>2026-04-25T13:25:36.656Z</time></trkpt><trkpt lat="38.1329517" lon="15.6877467"><ele>373.0</ele><time>2026-04-25T13:25:38.656Z</time></trkpt><trkpt lat="38.1329167" lon="15.6876217"><ele>373.0</ele><time>2026-04-25T13:25:40.656Z</time></trkpt><trkpt lat="38.1329117" lon="15.6875083"><ele>373.0</ele><time>2026-04-25T13:25:42.656Z</time></trkpt><trkpt lat="38.132905" lon="15.6873667"><ele>373.0</ele><time>2026-04-25T13:25:44.656Z</time></trkpt><trkpt lat="38.1329117" lon="15.6872167"><ele>373.0</ele><time>2026-04-25T13:25:46.656Z</time></trkpt><trkpt lat="38.1329" lon="15.6870633"><ele>373.0</ele><time>2026-04-25T13:25:48.656Z</time></trkpt><trkpt lat="38.13289" lon="15.6869717"><ele>374.5</ele><time>2026-04-25T13:25:49.656Z</time></trkpt><trkpt lat="38.132885" lon="15.68688"><ele>376.0</ele><time>2026-04-25T13:25:50.656Z</time></trkpt><trkpt lat="38.1328767" lon="15.6867967"><ele>377.5</ele><time>2026-04-25T13:25:51.656Z</time></trkpt><trkpt lat="38.13286" lon="15.68671"><ele>379.0</ele><time>2026-04-25T13:25:52.657Z</time></trkpt><trkpt lat="38.1328533" lon="15.6866217"><ele>380.5</ele><time>2026-04-25T13:25:53.657Z</time></trkpt><trkpt lat="38.13284" lon="15.68654"><ele>382.0</ele><time>2026-04-25T13:25:54.656Z</time></trkpt><trkpt lat="38.13281" lon="15.6863933"><ele>382.0</ele><time>2026-04-25T13:25:56.657Z</time></trkpt><trkpt lat="38.1328" lon="15.6863067"><ele>382.0</ele><time>2026-04-25T13:25:57.656Z</time></trkpt><trkpt lat="38.13278" lon="15.68623"><ele>382.0</ele><time>2026-04-25T13:25:58.656Z</time></trkpt><trkpt lat="38.1327633" lon="15.6860867"><ele>382.0</ele><time>2026-04-25T13:26:00.656Z</time></trkpt><trkpt lat="38.1327467" lon="15.6859517"><ele>382.0</ele><time>2026-04-25T13:26:02.656Z</time></trkpt><trkpt lat="38.1327483" lon="15.6858233"><ele>381.20000000000005</ele><time>2026-04-25T13:26:04.656Z</time></trkpt><trkpt lat="38.1327417" lon="15.68569"><ele>380.4</ele><time>2026-04-25T13:26:06.656Z</time></trkpt><trkpt lat="38.1327317" lon="15.6855467"><ele>379.6</ele><time>2026-04-25T13:26:08.657Z</time></trkpt><trkpt lat="38.132745" lon="15.6854167"><ele>378.79999999999995</ele><time>2026-04-25T13:26:10.656Z</time></trkpt><trkpt lat="38.1327817" lon="15.6853033"><ele>378.0</ele><time>2026-04-25T13:26:12.656Z</time></trkpt><trkpt lat="38.13283" lon="15.6851667"><ele>375.79999999999995</ele><time>2026-04-25T13:26:14.656Z</time></trkpt><trkpt lat="38.1328633" lon="15.6850533"><ele>373.6</ele><time>2026-04-25T13:26:16.656Z</time></trkpt><trkpt lat="38.13288" lon="15.6849333"><ele>371.4</ele><time>2026-04-25T13:26:18.657Z</time></trkpt><trkpt lat="38.132885" lon="15.684805"><ele>369.20000000000005</ele><time>2026-04-25T13:26:20.656Z</time></trkpt><trkpt lat="38.1328783" lon="15.684685"><ele>367.0</ele><time>2026-04-25T13:26:22.656Z</time></trkpt><trkpt lat="38.1328667" lon="15.6846"><ele>367.0</ele><time>2026-04-25T13:26:39.656Z</time></trkpt><trkpt lat="38.13284" lon="15.6844617"><ele>367.0</ele><time>2026-04-25T13:26:42.656Z</time></trkpt><trkpt lat="38.1327917" lon="15.6843167"><ele>367.0</ele><time>2026-04-25T13:26:44.656Z</time></trkpt><trkpt lat="38.1327417" lon="15.6841867"><ele>367.0</ele><time>2026-04-25T13:26:46.656Z</time></trkpt><trkpt lat="38.1326783" lon="15.6840867"><ele>364.20000000000005</ele><time>2026-04-25T13:26:48.656Z</time></trkpt><trkpt lat="38.1325867" lon="15.684"><ele>361.4</ele><time>2026-04-25T13:26:50.657Z</time></trkpt><trkpt lat="38.1325083" lon="15.6838817"><ele>358.6</ele><time>2026-04-25T13:26:52.656Z</time></trkpt><trkpt lat="38.1324767" lon="15.6838083"><ele>355.79999999999995</ele><time>2026-04-25T13:26:53.656Z</time></trkpt><trkpt lat="38.1324417" lon="15.6837317"><ele>353.0</ele><time>2026-04-25T13:26:54.656Z</time></trkpt><trkpt lat="38.1324017" lon="15.6836317"><ele>348.83333333333337</ele><time>2026-04-25T13:26:55.656Z</time></trkpt><trkpt lat="38.1323567" lon="15.6835333"><ele>344.6666666666667</ele><time>2026-04-25T13:26:56.656Z</time></trkpt><trkpt lat="38.1323233" lon="15.6834333"><ele>340.5</ele><time>2026-04-25T13:26:57.657Z</time></trkpt><trkpt lat="38.13228" lon="15.683345"><ele>336.3333333333333</ele><time>2026-04-25T13:26:58.656Z</time></trkpt><trkpt lat="38.1322433" lon="15.6832617"><ele>332.16666666666663</ele><time>2026-04-25T13:26:59.656Z</time></trkpt><trkpt lat="38.1322083" lon="15.68318"><ele>328.0</ele><time>2026-04-25T13:27:00.656Z</time></trkpt><trkpt lat="38.132185" lon="15.6830967"><ele>327.99999999999994</ele><time>2026-04-25T13:27:01.657Z</time></trkpt><trkpt lat="38.132175" lon="15.6830017"><ele>328.0</ele><time>2026-04-25T13:27:02.656Z</time></trkpt><trkpt lat="38.1321617" lon="15.6829033"><ele>328.0</ele><time>2026-04-25T13:27:03.656Z</time></trkpt><trkpt lat="38.13214" lon="15.6828133"><ele>328.0</ele><time>2026-04-25T13:27:04.656Z</time></trkpt><trkpt lat="38.132105" lon="15.682735"><ele>328.0</ele><time>2026-04-25T13:27:05.656Z</time></trkpt><trkpt lat="38.1320633" lon="15.682665"><ele>327.99999999999994</ele><time>2026-04-25T13:27:06.656Z</time></trkpt><trkpt lat="38.1320183" lon="15.6826033"><ele>328.0</ele><time>2026-04-25T13:27:07.656Z</time></trkpt><trkpt lat="38.13197" lon="15.6825317"><ele>327.16666666666663</ele><time>2026-04-25T13:27:08.656Z</time></trkpt><trkpt lat="38.1319183" lon="15.682455"><ele>326.3333333333333</ele><time>2026-04-25T13:27:09.656Z</time></trkpt><trkpt lat="38.1318683" lon="15.6823867"><ele>325.5</ele><time>2026-04-25T13:27:10.656Z</time></trkpt><trkpt lat="38.1318183" lon="15.6823233"><ele>324.6666666666667</ele><time>2026-04-25T13:27:11.656Z</time></trkpt><trkpt lat="38.131765" lon="15.6822567"><ele>323.83333333333337</ele><time>2026-04-25T13:27:12.656Z</time></trkpt><trkpt lat="38.1317333" lon="15.68218"><ele>323.0</ele><time>2026-04-25T13:27:13.657Z</time></trkpt><trkpt lat="38.1317267" lon="15.6820367"><ele>323.0</ele><time>2026-04-25T13:27:15.656Z</time></trkpt><trkpt lat="38.1317867" lon="15.6819117"><ele>323.0</ele><time>2026-04-25T13:27:17.656Z</time></trkpt><trkpt lat="38.1318467" lon="15.6818817"><ele>323.0</ele><time>2026-04-25T13:27:18.656Z</time></trkpt><trkpt lat="38.1319117" lon="15.6818783"><ele>323.0</ele><time>2026-04-25T13:27:19.657Z</time></trkpt><trkpt lat="38.1320367" lon="15.6819267"><ele>323.0</ele><time>2026-04-25T13:27:21.656Z</time></trkpt><trkpt lat="38.1321017" lon="15.6819533"><ele>323.0</ele><time>2026-04-25T13:27:22.657Z</time></trkpt><trkpt lat="38.1322117" lon="15.6819483"><ele>324.2</ele><time>2026-04-25T13:27:24.657Z</time></trkpt><trkpt lat="38.13226" lon="15.6818933"><ele>325.4</ele><time>2026-04-25T13:27:25.656Z</time></trkpt><trkpt lat="38.132295" lon="15.6818233"><ele>326.59999999999997</ele><time>2026-04-25T13:27:26.657Z</time></trkpt><trkpt lat="38.132315" lon="15.6816767"><ele>327.79999999999995</ele><time>2026-04-25T13:27:28.656Z</time></trkpt><trkpt lat="38.1323567" lon="15.68156"><ele>329.0</ele><time>2026-04-25T13:27:30.656Z</time></trkpt><trkpt lat="38.1324317" lon="15.6814667"><ele>329.0</ele><time>2026-04-25T13:27:32.656Z</time></trkpt><trkpt lat="38.1324717" lon="15.68136"><ele>329.0</ele><time>2026-04-25T13:27:34.656Z</time></trkpt><trkpt lat="38.1324617" lon="15.6812233"><ele>329.0</ele><time>2026-04-25T13:27:36.656Z</time></trkpt><trkpt lat="38.1323917" lon="15.6811083"><ele>329.0</ele><time>2026-04-25T13:27:38.657Z</time></trkpt><trkpt lat="38.1323283" lon="15.6810483"><ele>329.0</ele><time>2026-04-25T13:27:39.656Z</time></trkpt><trkpt lat="38.1322733" lon="15.68098"><ele>327.0</ele><time>2026-04-25T13:27:40.656Z</time></trkpt><trkpt lat="38.1322183" lon="15.6808483"><ele>325.0</ele><time>2026-04-25T13:27:42.656Z</time></trkpt><trkpt lat="38.13224" lon="15.680715"><ele>323.0</ele><time>2026-04-25T13:27:44.656Z</time></trkpt><trkpt lat="38.1323283" lon="15.680645"><ele>321.0</ele><time>2026-04-25T13:27:46.656Z</time></trkpt><trkpt lat="38.1324383" lon="15.680605"><ele>319.0</ele><time>2026-04-25T13:27:48.656Z</time></trkpt><trkpt lat="38.1324983" lon="15.6805667"><ele>319.0</ele><time>2026-04-25T13:27:49.656Z</time></trkpt><trkpt lat="38.1325983" lon="15.6804917"><ele>319.0</ele><time>2026-04-25T13:27:51.656Z</time></trkpt><trkpt lat="38.132675" lon="15.6804383"><ele>319.0</ele><time>2026-04-25T13:27:53.657Z</time></trkpt><trkpt lat="38.132745" lon="15.680375"><ele>319.0</ele><time>2026-04-25T13:27:55.656Z</time></trkpt><trkpt lat="38.1328033" lon="15.6802767"><ele>319.0</ele><time>2026-04-25T13:27:57.656Z</time></trkpt><trkpt lat="38.1328433" lon="15.6801533"><ele>315.3333333333333</ele><time>2026-04-25T13:27:59.656Z</time></trkpt><trkpt lat="38.132845" lon="15.68006"><ele>311.66666666666663</ele><time>2026-04-25T13:28:01.657Z</time></trkpt><trkpt lat="38.13279" lon="15.68"><ele>308.0</ele><time>2026-04-25T13:28:04.656Z</time></trkpt><trkpt lat="38.13271" lon="15.6800183"><ele>304.3333333333333</ele><time>2026-04-25T13:28:06.656Z</time></trkpt><trkpt lat="38.1326133" lon="15.680075"><ele>300.6666666666667</ele><time>2026-04-25T13:28:08.657Z</time></trkpt><trkpt lat="38.1325083" lon="15.680105"><ele>297.0</ele><time>2026-04-25T13:28:10.656Z</time></trkpt><trkpt lat="38.1324433" lon="15.6801133"><ele>295.0</ele><time>2026-04-25T13:28:11.656Z</time></trkpt><trkpt lat="38.132375" lon="15.6801167"><ele>293.0</ele><time>2026-04-25T13:28:12.656Z</time></trkpt><trkpt lat="38.1322583" lon="15.68009"><ele>291.0</ele><time>2026-04-25T13:28:14.656Z</time></trkpt><trkpt lat="38.1321517" lon="15.6800233"><ele>289.0</ele><time>2026-04-25T13:28:16.656Z</time></trkpt><trkpt lat="38.1320483" lon="15.6800133"><ele>287.0</ele><time>2026-04-25T13:28:18.656Z</time></trkpt><trkpt lat="38.1319867" lon="15.6800767"><ele>287.0</ele><time>2026-04-25T13:28:20.657Z</time></trkpt><trkpt lat="38.131955" lon="15.6802133"><ele>287.0</ele><time>2026-04-25T13:28:22.656Z</time></trkpt><trkpt lat="38.13191" lon="15.6803383"><ele>287.0</ele><time>2026-04-25T13:28:24.657Z</time></trkpt><trkpt lat="38.131845" lon="15.68051"><ele>287.0</ele><time>2026-04-25T13:28:50.656Z</time></trkpt><trkpt lat="38.1317983" lon="15.680605"><ele>286.8</ele><time>2026-04-25T13:28:52.657Z</time></trkpt><trkpt lat="38.131735" lon="15.6807183"><ele>286.6</ele><time>2026-04-25T13:28:54.656Z</time></trkpt><trkpt lat="38.1316667" lon="15.6808"><ele>286.40000000000003</ele><time>2026-04-25T13:28:56.656Z</time></trkpt><trkpt lat="38.1315817" lon="15.6808167"><ele>286.2</ele><time>2026-04-25T13:28:58.656Z</time></trkpt><trkpt lat="38.131475" lon="15.6808117"><ele>286.0</ele><time>2026-04-25T13:29:00.656Z</time></trkpt><trkpt lat="38.13141" lon="15.6808083"><ele>286.0</ele><time>2026-04-25T13:29:01.656Z</time></trkpt><trkpt lat="38.131345" lon="15.6808117"><ele>286.0</ele><time>2026-04-25T13:29:02.656Z</time></trkpt><trkpt lat="38.13124" lon="15.68081"><ele>286.0</ele><time>2026-04-25T13:29:04.656Z</time></trkpt><trkpt lat="38.1311733" lon="15.6807667"><ele>286.0</ele><time>2026-04-25T13:29:06.656Z</time></trkpt><trkpt lat="38.1311317" lon="15.6806733"><ele>286.0</ele><time>2026-04-25T13:29:08.656Z</time></trkpt><trkpt lat="38.1311133" lon="15.6805917"><ele>286.0</ele><time>2026-04-25T13:29:10.656Z</time></trkpt><trkpt lat="38.1310883" lon="15.6805117"><ele>286.0</ele><time>2026-04-25T13:29:12.657Z</time></trkpt><trkpt lat="38.1310717" lon="15.6804267"><ele>286.0</ele><time>2026-04-25T13:29:14.657Z</time></trkpt><trkpt lat="38.13103" lon="15.6802733"><ele>286.0</ele><time>2026-04-25T13:29:17.656Z</time></trkpt><trkpt lat="38.131" lon="15.6802017"><ele>286.0</ele><time>2026-04-25T13:29:19.656Z</time></trkpt><trkpt lat="38.130955" lon="15.6801333"><ele>286.0</ele><time>2026-04-25T13:29:21.657Z</time></trkpt><trkpt lat="38.1309067" lon="15.6800267"><ele>286.0</ele><time>2026-04-25T13:29:23.657Z</time></trkpt><trkpt lat="38.13084" lon="15.6799283"><ele>284.2</ele><time>2026-04-25T13:29:25.656Z</time></trkpt><trkpt lat="38.1307817" lon="15.6798167"><ele>282.40000000000003</ele><time>2026-04-25T13:29:27.656Z</time></trkpt><trkpt lat="38.1307417" lon="15.6797433"><ele>280.6</ele><time>2026-04-25T13:29:28.656Z</time></trkpt><trkpt lat="38.130715" lon="15.6796683"><ele>278.8</ele><time>2026-04-25T13:29:29.656Z</time></trkpt><trkpt lat="38.1307067" lon="15.6795267"><ele>277.0</ele><time>2026-04-25T13:29:31.656Z</time></trkpt><trkpt lat="38.1307383" lon="15.679375"><ele>274.8333333333333</ele><time>2026-04-25T13:29:33.656Z</time></trkpt><trkpt lat="38.1307683" lon="15.6792917"><ele>272.66666666666663</ele><time>2026-04-25T13:29:34.656Z</time></trkpt><trkpt lat="38.1308217" lon="15.67916"><ele>270.5</ele><time>2026-04-25T13:29:36.657Z</time></trkpt><trkpt lat="38.1308717" lon="15.6790817"><ele>268.3333333333333</ele><time>2026-04-25T13:29:38.656Z</time></trkpt><trkpt lat="38.1309167" lon="15.67901"><ele>266.1666666666667</ele><time>2026-04-25T13:29:41.656Z</time></trkpt><trkpt lat="38.1309383" lon="15.678885"><ele>264.0</ele><time>2026-04-25T13:29:46.655Z</time></trkpt><trkpt lat="38.1309283" lon="15.6788"><ele>264.0</ele><time>2026-04-25T13:29:48.655Z</time></trkpt><trkpt lat="38.1309233" lon="15.67869"><ele>264.0</ele><time>2026-04-25T13:29:50.655Z</time></trkpt><trkpt lat="38.130945" lon="15.6786117"><ele>264.0</ele><time>2026-04-25T13:29:52.655Z</time></trkpt><trkpt lat="38.131015" lon="15.678575"><ele>264.0</ele><time>2026-04-25T13:29:54.655Z</time></trkpt><trkpt lat="38.1310783" lon="15.6785483"><ele>264.0</ele><time>2026-04-25T13:29:55.655Z</time></trkpt><trkpt lat="38.13114" lon="15.6785267"><ele>264.0</ele><time>2026-04-25T13:29:56.656Z</time></trkpt><trkpt lat="38.1312367" lon="15.67855"><ele>264.0</ele><time>2026-04-25T13:29:58.655Z</time></trkpt><trkpt lat="38.1312967" lon="15.67862"><ele>264.0</ele><time>2026-04-25T13:30:00.655Z</time></trkpt><trkpt lat="38.131375" lon="15.6786883"><ele>264.0</ele><time>2026-04-25T13:30:02.655Z</time></trkpt><trkpt lat="38.1314517" lon="15.6787317"><ele>264.0</ele><time>2026-04-25T13:30:04.655Z</time></trkpt><trkpt lat="38.1315317" lon="15.6787467"><ele>264.0</ele><time>2026-04-25T13:30:06.655Z</time></trkpt><trkpt lat="38.1316217" lon="15.6787583"><ele>264.0</ele><time>2026-04-25T13:30:08.655Z</time></trkpt><trkpt lat="38.1317033" lon="15.6787783"><ele>264.6666666666667</ele><time>2026-04-25T13:30:10.655Z</time></trkpt><trkpt lat="38.1317917" lon="15.6787867"><ele>265.3333333333333</ele><time>2026-04-25T13:30:12.655Z</time></trkpt><trkpt lat="38.1318633" lon="15.6788267"><ele>266.0</ele><time>2026-04-25T13:30:14.655Z</time></trkpt><trkpt lat="38.13195" lon="15.678825"><ele>266.66666666666663</ele><time>2026-04-25T13:30:17.655Z</time></trkpt><trkpt lat="38.132005" lon="15.67878"><ele>267.3333333333333</ele><time>2026-04-25T13:30:19.655Z</time></trkpt><trkpt lat="38.13205" lon="15.6787183"><ele>268.0</ele><time>2026-04-25T13:30:21.655Z</time></trkpt><trkpt lat="38.1321067" lon="15.6786283"><ele>267.0</ele><time>2026-04-25T13:30:24.655Z</time></trkpt><trkpt lat="38.13214" lon="15.6785583"><ele>266.0</ele><time>2026-04-25T13:30:26.655Z</time></trkpt><trkpt lat="38.132185" lon="15.678485"><ele>265.0</ele><time>2026-04-25T13:30:28.655Z</time></trkpt><trkpt lat="38.1322433" lon="15.6783867"><ele>264.0</ele><time>2026-04-25T13:30:30.656Z</time></trkpt><trkpt lat="38.1323133" lon="15.6782767"><ele>263.0</ele><time>2026-04-25T13:30:32.655Z</time></trkpt><trkpt lat="38.13239" lon="15.6781617"><ele>263.0</ele><time>2026-04-25T13:30:34.655Z</time></trkpt><trkpt lat="38.1324667" lon="15.6780717"><ele>263.0</ele><time>2026-04-25T13:30:36.655Z</time></trkpt><trkpt lat="38.13255" lon="15.6779933"><ele>263.0</ele><time>2026-04-25T13:30:38.655Z</time></trkpt><trkpt lat="38.1326283" lon="15.6779367"><ele>263.0</ele><time>2026-04-25T13:30:40.656Z</time></trkpt><trkpt lat="38.13269" lon="15.6778717"><ele>263.0</ele><time>2026-04-25T13:30:42.655Z</time></trkpt><trkpt lat="38.1327183" lon="15.6777717"><ele>259.6</ele><time>2026-04-25T13:30:44.655Z</time></trkpt><trkpt lat="38.1327533" lon="15.6776467"><ele>256.20000000000005</ele><time>2026-04-25T13:30:46.656Z</time></trkpt><trkpt lat="38.1327917" lon="15.677525"><ele>252.8</ele><time>2026-04-25T13:30:48.656Z</time></trkpt><trkpt lat="38.1328333" lon="15.6773933"><ele>249.4</ele><time>2026-04-25T13:30:50.655Z</time></trkpt><trkpt lat="38.1328833" lon="15.6772633"><ele>246.0</ele><time>2026-04-25T13:30:52.655Z</time></trkpt><trkpt lat="38.1329383" lon="15.6771483"><ele>246.0</ele><time>2026-04-25T13:30:54.655Z</time></trkpt><trkpt lat="38.1329933" lon="15.6770833"><ele>246.0</ele><time>2026-04-25T13:30:56.655Z</time></trkpt><trkpt lat="38.1330717" lon="15.6770783"><ele>246.0</ele><time>2026-04-25T13:30:58.655Z</time></trkpt><trkpt lat="38.1331733" lon="15.677055"><ele>246.0</ele><time>2026-04-25T13:31:00.655Z</time></trkpt><trkpt lat="38.1332617" lon="15.6770067"><ele>246.0</ele><time>2026-04-25T13:31:02.656Z</time></trkpt><trkpt lat="38.13333" lon="15.67699"><ele>246.0</ele><time>2026-04-25T13:31:04.655Z</time></trkpt><trkpt lat="38.1334083" lon="15.6770317"><ele>248.60000000000002</ele><time>2026-04-25T13:31:06.655Z</time></trkpt><trkpt lat="38.13348" lon="15.6771433"><ele>251.20000000000002</ele><time>2026-04-25T13:31:08.656Z</time></trkpt><trkpt lat="38.13353" lon="15.6772567"><ele>253.79999999999998</ele><time>2026-04-25T13:31:10.655Z</time></trkpt><trkpt lat="38.1335783" lon="15.677375"><ele>256.4</ele><time>2026-04-25T13:31:12.655Z</time></trkpt><trkpt lat="38.1336517" lon="15.677335"><ele>259.0</ele><time>2026-04-25T13:31:15.656Z</time></trkpt><trkpt lat="38.1336467" lon="15.6771567"><ele>259.0</ele><time>2026-04-25T13:31:17.655Z</time></trkpt><trkpt lat="38.1336317" lon="15.67705"><ele>259.0</ele><time>2026-04-25T13:31:18.656Z</time></trkpt><trkpt lat="38.1336283" lon="15.6769483"><ele>259.0</ele><time>2026-04-25T13:31:19.655Z</time></trkpt><trkpt lat="38.1336217" lon="15.67685"><ele>259.0</ele><time>2026-04-25T13:31:20.655Z</time></trkpt><trkpt lat="38.1336233" lon="15.6767433"><ele>259.0</ele><time>2026-04-25T13:31:21.655Z</time></trkpt><trkpt lat="38.133615" lon="15.676645"><ele>259.0</ele><time>2026-04-25T13:31:22.656Z</time></trkpt><trkpt lat="38.133615" lon="15.6765533"><ele>257.8333333333333</ele><time>2026-04-25T13:31:23.656Z</time></trkpt><trkpt lat="38.1336217" lon="15.676465"><ele>256.66666666666663</ele><time>2026-04-25T13:31:24.656Z</time></trkpt><trkpt lat="38.133645" lon="15.6763733"><ele>255.5</ele><time>2026-04-25T13:31:25.655Z</time></trkpt><trkpt lat="38.133685" lon="15.6762917"><ele>254.33333333333331</ele><time>2026-04-25T13:31:26.655Z</time></trkpt><trkpt lat="38.1337333" lon="15.676215"><ele>253.16666666666666</ele><time>2026-04-25T13:31:27.655Z</time></trkpt><trkpt lat="38.1337767" lon="15.6761283"><ele>252.0</ele><time>2026-04-25T13:31:28.655Z</time></trkpt><trkpt lat="38.1338233" lon="15.6760467"><ele>252.0</ele><time>2026-04-25T13:31:29.655Z</time></trkpt><trkpt lat="38.1338717" lon="15.67597"><ele>252.0</ele><time>2026-04-25T13:31:30.655Z</time></trkpt><trkpt lat="38.133915" lon="15.6759033"><ele>252.0</ele><time>2026-04-25T13:31:31.655Z</time></trkpt><trkpt lat="38.13396" lon="15.675835"><ele>252.0</ele><time>2026-04-25T13:31:32.655Z</time></trkpt><trkpt lat="38.1340033" lon="15.6757667"><ele>252.0</ele><time>2026-04-25T13:31:33.655Z</time></trkpt><trkpt lat="38.1340517" lon="15.6757033"><ele>252.0</ele><time>2026-04-25T13:31:34.655Z</time></trkpt><trkpt lat="38.1341" lon="15.6756417"><ele>252.0</ele><time>2026-04-25T13:31:35.656Z</time></trkpt><trkpt lat="38.13414" lon="15.6755717"><ele>256.6</ele><time>2026-04-25T13:31:36.655Z</time></trkpt><trkpt lat="38.13421" lon="15.6754983"><ele>261.2</ele><time>2026-04-25T13:31:38.655Z</time></trkpt><trkpt lat="38.1342817" lon="15.675525"><ele>265.8</ele><time>2026-04-25T13:31:40.655Z</time></trkpt><trkpt lat="38.1343367" lon="15.6755717"><ele>270.4</ele><time>2026-04-25T13:31:41.655Z</time></trkpt><trkpt lat="38.1344433" lon="15.675585"><ele>275.0</ele><time>2026-04-25T13:31:43.655Z</time></trkpt><trkpt lat="38.1345217" lon="15.6754567"><ele>275.0</ele><time>2026-04-25T13:31:45.655Z</time></trkpt><trkpt lat="38.13456" lon="15.675365"><ele>275.0</ele><time>2026-04-25T13:31:46.656Z</time></trkpt><trkpt lat="38.1346017" lon="15.6752717"><ele>275.0</ele><time>2026-04-25T13:31:47.655Z</time></trkpt><trkpt lat="38.1346567" lon="15.675175"><ele>275.0</ele><time>2026-04-25T13:31:48.655Z</time></trkpt><trkpt lat="38.1347283" lon="15.67509"><ele>275.0</ele><time>2026-04-25T13:31:49.655Z</time></trkpt><trkpt lat="38.1347967" lon="15.6750167"><ele>275.0</ele><time>2026-04-25T13:31:50.655Z</time></trkpt><trkpt lat="38.13487" lon="15.6749583"><ele>278.33333333333337</ele><time>2026-04-25T13:31:51.655Z</time></trkpt><trkpt lat="38.1349367" lon="15.6749167"><ele>281.6666666666667</ele><time>2026-04-25T13:31:52.655Z</time></trkpt><trkpt lat="38.1350117" lon="15.6748917"><ele>285.0</ele><time>2026-04-25T13:31:53.655Z</time></trkpt><trkpt lat="38.13509" lon="15.67491"><ele>288.3333333333333</ele><time>2026-04-25T13:31:54.655Z</time></trkpt><trkpt lat="38.1351667" lon="15.6749667"><ele>291.66666666666663</ele><time>2026-04-25T13:31:55.655Z</time></trkpt><trkpt lat="38.135245" lon="15.6750133"><ele>295.0</ele><time>2026-04-25T13:31:56.655Z</time></trkpt><trkpt lat="38.13531" lon="15.6750433"><ele>295.0</ele><time>2026-04-25T13:31:57.655Z</time></trkpt><trkpt lat="38.1353983" lon="15.6750067"><ele>295.0</ele><time>2026-04-25T13:31:59.655Z</time></trkpt><trkpt lat="38.135405" lon="15.6749117"><ele>295.0</ele><time>2026-04-25T13:32:01.656Z</time></trkpt><trkpt lat="38.1353267" lon="15.6748033"><ele>295.0</ele><time>2026-04-25T13:32:03.655Z</time></trkpt><trkpt lat="38.135265" lon="15.674735"><ele>295.0</ele><time>2026-04-25T13:32:04.655Z</time></trkpt><trkpt lat="38.135215" lon="15.6746733"><ele>295.0</ele><time>2026-04-25T13:32:05.656Z</time></trkpt><trkpt lat="38.1351717" lon="15.674575"><ele>295.0</ele><time>2026-04-25T13:32:07.655Z</time></trkpt><trkpt lat="38.1351517" lon="15.67448"><ele>295.0</ele><time>2026-04-25T13:32:12.655Z</time></trkpt><trkpt lat="38.1351417" lon="15.6743967"><ele>295.0</ele><time>2026-04-25T13:32:14.656Z</time></trkpt><trkpt lat="38.135145" lon="15.674295"><ele>295.0</ele><time>2026-04-25T13:32:16.656Z</time></trkpt><trkpt lat="38.1351383" lon="15.674205"><ele>295.0</ele><time>2026-04-25T13:32:18.655Z</time></trkpt><trkpt lat="38.13512" lon="15.6741283"><ele>295.0</ele><time>2026-04-25T13:32:59.655Z</time></trkpt><trkpt lat="38.1350733" lon="15.6740017"><ele>295.8</ele><time>2026-04-25T13:33:01.655Z</time></trkpt><trkpt lat="38.1350433" lon="15.6739083"><ele>296.6</ele><time>2026-04-25T13:33:02.655Z</time></trkpt><trkpt lat="38.1350217" lon="15.67379"><ele>297.4</ele><time>2026-04-25T13:33:03.656Z</time></trkpt><trkpt lat="38.1350167" lon="15.6736483"><ele>298.2</ele><time>2026-04-25T13:33:04.656Z</time></trkpt><trkpt lat="38.135025" lon="15.6734883"><ele>299.0</ele><time>2026-04-25T13:33:05.655Z</time></trkpt><trkpt lat="38.1350367" lon="15.6733483"><ele>299.5</ele><time>2026-04-25T13:33:06.655Z</time></trkpt><trkpt lat="38.135035" lon="15.67325"><ele>300.0</ele><time>2026-04-25T13:33:07.656Z</time></trkpt><trkpt lat="38.1349967" lon="15.67315"><ele>300.5</ele><time>2026-04-25T13:33:09.655Z</time></trkpt><trkpt lat="38.134935" lon="15.67312"><ele>301.0</ele><time>2026-04-25T13:33:10.656Z</time></trkpt><trkpt lat="38.1348717" lon="15.6730933"><ele>301.5</ele><time>2026-04-25T13:33:11.656Z</time></trkpt><trkpt lat="38.1347817" lon="15.6729867"><ele>302.0</ele><time>2026-04-25T13:33:13.655Z</time></trkpt><trkpt lat="38.134765" lon="15.6728983"><ele>300.83333333333337</ele><time>2026-04-25T13:33:14.655Z</time></trkpt><trkpt lat="38.134755" lon="15.6728017"><ele>299.6666666666667</ele><time>2026-04-25T13:33:15.656Z</time></trkpt><trkpt lat="38.1347533" lon="15.6727167"><ele>298.5</ele><time>2026-04-25T13:33:16.655Z</time></trkpt><trkpt lat="38.1347133" lon="15.6726017"><ele>297.3333333333333</ele><time>2026-04-25T13:33:18.655Z</time></trkpt><trkpt lat="38.1346567" lon="15.6725367"><ele>296.16666666666663</ele><time>2026-04-25T13:33:19.655Z</time></trkpt><trkpt lat="38.1345767" lon="15.672475"><ele>295.0</ele><time>2026-04-25T13:33:20.655Z</time></trkpt><trkpt lat="38.1345167" lon="15.672415"><ele>295.0</ele><time>2026-04-25T13:33:21.655Z</time></trkpt><trkpt lat="38.134485" lon="15.672345"><ele>295.0</ele><time>2026-04-25T13:33:22.655Z</time></trkpt><trkpt lat="38.1344683" lon="15.6722633"><ele>295.0</ele><time>2026-04-25T13:33:23.655Z</time></trkpt><trkpt lat="38.1344667" lon="15.6721717"><ele>295.0</ele><time>2026-04-25T13:33:24.655Z</time></trkpt><trkpt lat="38.1344767" lon="15.672025"><ele>295.0</ele><time>2026-04-25T13:33:26.655Z</time></trkpt><trkpt lat="38.13449" lon="15.6718817"><ele>295.0</ele><time>2026-04-25T13:33:28.655Z</time></trkpt><trkpt lat="38.1345" lon="15.6717717"><ele>295.0</ele><time>2026-04-25T13:33:30.655Z</time></trkpt><trkpt lat="38.1344367" lon="15.67184"><ele>295.0</ele><time>2026-04-25T13:33:36.655Z</time></trkpt><trkpt lat="38.1343917" lon="15.6719167"><ele>295.0</ele><time>2026-04-25T13:33:38.655Z</time></trkpt><trkpt lat="38.1343183" lon="15.671955"><ele>295.0</ele><time>2026-04-25T13:33:40.656Z</time></trkpt><trkpt lat="38.1342067" lon="15.6719317"><ele>295.0</ele><time>2026-04-25T13:33:42.655Z</time></trkpt><trkpt lat="38.1341467" lon="15.6719017"><ele>295.0</ele><time>2026-04-25T13:33:43.655Z</time></trkpt><trkpt lat="38.13409" lon="15.671865"><ele>293.3333333333333</ele><time>2026-04-25T13:33:44.655Z</time></trkpt><trkpt lat="38.13402" lon="15.671765"><ele>291.66666666666663</ele><time>2026-04-25T13:33:46.655Z</time></trkpt><trkpt lat="38.13404" lon="15.671655"><ele>290.0</ele><time>2026-04-25T13:33:48.656Z</time></trkpt><trkpt lat="38.134065" lon="15.67158"><ele>288.3333333333333</ele><time>2026-04-25T13:33:49.656Z</time></trkpt><trkpt lat="38.1340867" lon="15.6714967"><ele>286.6666666666667</ele><time>2026-04-25T13:33:50.655Z</time></trkpt><trkpt lat="38.1341017" lon="15.6714033"><ele>285.0</ele><time>2026-04-25T13:33:51.655Z</time></trkpt><trkpt lat="38.1340967" lon="15.6713083"><ele>285.0</ele><time>2026-04-25T13:33:52.656Z</time></trkpt><trkpt lat="38.134035" lon="15.6711683"><ele>285.0</ele><time>2026-04-25T13:33:54.655Z</time></trkpt><trkpt lat="38.1339783" lon="15.6711167"><ele>285.0</ele><time>2026-04-25T13:33:55.656Z</time></trkpt><trkpt lat="38.1339267" lon="15.67107"><ele>285.0</ele><time>2026-04-25T13:33:56.655Z</time></trkpt><trkpt lat="38.1338683" lon="15.671015"><ele>285.0</ele><time>2026-04-25T13:33:57.655Z</time></trkpt><trkpt lat="38.1338183" lon="15.670885"><ele>285.0</ele><time>2026-04-25T13:33:59.655Z</time></trkpt><trkpt lat="38.1337967" lon="15.6707983"><ele>287.5</ele><time>2026-04-25T13:34:00.656Z</time></trkpt><trkpt lat="38.1337467" lon="15.6706767"><ele>290.0</ele><time>2026-04-25T13:34:02.656Z</time></trkpt><trkpt lat="38.13368" lon="15.67061"><ele>292.5</ele><time>2026-04-25T13:34:05.655Z</time></trkpt><trkpt lat="38.133615" lon="15.67061"><ele>295.0</ele><time>2026-04-25T13:34:08.656Z</time></trkpt><trkpt lat="38.1335483" lon="15.670615"><ele>297.5</ele><time>2026-04-25T13:34:11.655Z</time></trkpt><trkpt lat="38.1334717" lon="15.670635"><ele>300.0</ele><time>2026-04-25T13:34:13.655Z</time></trkpt><trkpt lat="38.1333783" lon="15.6706617"><ele>300.0</ele><time>2026-04-25T13:34:15.655Z</time></trkpt><trkpt lat="38.1332633" lon="15.6706933"><ele>300.0</ele><time>2026-04-25T13:34:17.655Z</time></trkpt><trkpt lat="38.1332" lon="15.67072"><ele>300.0</ele><time>2026-04-25T13:34:18.655Z</time></trkpt><trkpt lat="38.1331267" lon="15.67073"><ele>300.0</ele><time>2026-04-25T13:34:19.655Z</time></trkpt><trkpt lat="38.1330567" lon="15.6707217"><ele>300.0</ele><time>2026-04-25T13:34:20.655Z</time></trkpt><trkpt lat="38.1329683" lon="15.670705"><ele>300.0</ele><time>2026-04-25T13:34:22.655Z</time></trkpt><trkpt lat="38.13289" lon="15.670685"><ele>297.0</ele><time>2026-04-25T13:34:25.655Z</time></trkpt><trkpt lat="38.132815" lon="15.670655"><ele>294.0</ele><time>2026-04-25T13:34:27.655Z</time></trkpt><trkpt lat="38.1327217" lon="15.6706233"><ele>291.0</ele><time>2026-04-25T13:34:29.656Z</time></trkpt><trkpt lat="38.1326167" lon="15.67059"><ele>288.0</ele><time>2026-04-25T13:34:31.655Z</time></trkpt><trkpt lat="38.132515" lon="15.6705283"><ele>285.0</ele><time>2026-04-25T13:34:33.655Z</time></trkpt><trkpt lat="38.13247" lon="15.67043"><ele>285.0</ele><time>2026-04-25T13:34:35.655Z</time></trkpt><trkpt lat="38.1324917" lon="15.6702767"><ele>285.0</ele><time>2026-04-25T13:34:37.655Z</time></trkpt><trkpt lat="38.13253" lon="15.6701817"><ele>285.0</ele><time>2026-04-25T13:34:38.656Z</time></trkpt><trkpt lat="38.1325683" lon="15.6700833"><ele>285.0</ele><time>2026-04-25T13:34:39.655Z</time></trkpt><trkpt lat="38.1326167" lon="15.67"><ele>285.0</ele><time>2026-04-25T13:34:40.655Z</time></trkpt><trkpt lat="38.132655" lon="15.66992"><ele>285.0</ele><time>2026-04-25T13:34:41.655Z</time></trkpt><trkpt lat="38.13272" lon="15.66979"><ele>285.8333333333333</ele><time>2026-04-25T13:34:43.655Z</time></trkpt><trkpt lat="38.1327517" lon="15.6696633"><ele>286.6666666666667</ele><time>2026-04-25T13:34:45.656Z</time></trkpt><trkpt lat="38.132725" lon="15.66952"><ele>287.5</ele><time>2026-04-25T13:34:47.656Z</time></trkpt><trkpt lat="38.1327133" lon="15.6694367"><ele>288.33333333333337</ele><time>2026-04-25T13:34:48.655Z</time></trkpt><trkpt lat="38.1327033" lon="15.6693417"><ele>289.1666666666667</ele><time>2026-04-25T13:34:49.655Z</time></trkpt><trkpt lat="38.1326967" lon="15.6692433"><ele>290.0</ele><time>2026-04-25T13:34:50.655Z</time></trkpt><trkpt lat="38.1326933" lon="15.669145"><ele>290.5</ele><time>2026-04-25T13:34:51.655Z</time></trkpt><trkpt lat="38.1327" lon="15.66905"><ele>291.0</ele><time>2026-04-25T13:34:52.655Z</time></trkpt><trkpt lat="38.1327017" lon="15.66895"><ele>291.5</ele><time>2026-04-25T13:34:53.655Z</time></trkpt><trkpt lat="38.1326967" lon="15.6688583"><ele>292.0</ele><time>2026-04-25T13:34:54.655Z</time></trkpt><trkpt lat="38.13268" lon="15.6687717"><ele>292.5</ele><time>2026-04-25T13:34:55.655Z</time></trkpt><trkpt lat="38.13266" lon="15.66865"><ele>293.0</ele><time>2026-04-25T13:34:57.655Z</time></trkpt><trkpt lat="38.1326183" lon="15.6685733"><ele>293.0</ele><time>2026-04-25T13:35:10.655Z</time></trkpt><trkpt lat="38.1325467" lon="15.6684867"><ele>293.0</ele><time>2026-04-25T13:35:13.655Z</time></trkpt><trkpt lat="38.13251" lon="15.6683533"><ele>293.0</ele><time>2026-04-25T13:35:15.655Z</time></trkpt><trkpt lat="38.1324933" lon="15.6682633"><ele>293.0</ele><time>2026-04-25T13:35:16.656Z</time></trkpt><trkpt lat="38.1324733" lon="15.6681767"><ele>293.0</ele><time>2026-04-25T13:35:17.655Z</time></trkpt><trkpt lat="38.1324067" lon="15.6680567"><ele>289.8</ele><time>2026-04-25T13:35:19.655Z</time></trkpt><trkpt lat="38.1323" lon="15.668025"><ele>286.6</ele><time>2026-04-25T13:35:21.655Z</time></trkpt><trkpt lat="38.132195" lon="15.6680633"><ele>283.4</ele><time>2026-04-25T13:35:23.656Z</time></trkpt><trkpt lat="38.132115" lon="15.66812"><ele>280.2</ele><time>2026-04-25T13:35:25.655Z</time></trkpt><trkpt lat="38.1321983" lon="15.66816"><ele>277.0</ele><time>2026-04-25T13:37:52.656Z</time></trkpt><trkpt lat="38.1322617" lon="15.6681817"><ele>277.0</ele><time>2026-04-25T13:37:53.655Z</time></trkpt><trkpt lat="38.1323817" lon="15.668215"><ele>277.0</ele><time>2026-04-25T13:37:55.655Z</time></trkpt><trkpt lat="38.132475" lon="15.6682883"><ele>277.0</ele><time>2026-04-25T13:37:57.655Z</time></trkpt><trkpt lat="38.1325417" lon="15.6684017"><ele>277.0</ele><time>2026-04-25T13:37:59.655Z</time></trkpt><trkpt lat="38.1325783" lon="15.66852"><ele>277.0</ele><time>2026-04-25T13:38:01.655Z</time></trkpt><trkpt lat="38.132635" lon="15.6684833"><ele>280.2</ele><time>2026-04-25T13:38:06.655Z</time></trkpt><trkpt lat="38.1326033" lon="15.6683817"><ele>283.4</ele><time>2026-04-25T13:38:08.656Z</time></trkpt><trkpt lat="38.1325733" lon="15.6682517"><ele>286.6</ele><time>2026-04-25T13:38:10.655Z</time></trkpt><trkpt lat="38.1325833" lon="15.6680883"><ele>289.8</ele><time>2026-04-25T13:38:12.655Z</time></trkpt><trkpt lat="38.132635" lon="15.66797"><ele>293.0</ele><time>2026-04-25T13:38:14.656Z</time></trkpt><trkpt lat="38.1327367" lon="15.6679317"><ele>293.0</ele><time>2026-04-25T13:38:16.655Z</time></trkpt><trkpt lat="38.1328033" lon="15.667925"><ele>293.0</ele><time>2026-04-25T13:38:17.655Z</time></trkpt><trkpt lat="38.1329083" lon="15.6678567"><ele>293.0</ele><time>2026-04-25T13:38:19.655Z</time></trkpt><trkpt lat="38.1329383" lon="15.6677267"><ele>293.0</ele><time>2026-04-25T13:38:21.655Z</time></trkpt><trkpt lat="38.1329283" lon="15.6676333"><ele>293.0</ele><time>2026-04-25T13:38:22.655Z</time></trkpt><trkpt lat="38.132915" lon="15.6675083"><ele>290.8</ele><time>2026-04-25T13:38:23.655Z</time></trkpt><trkpt lat="38.1329" lon="15.6673833"><ele>288.6</ele><time>2026-04-25T13:38:24.655Z</time></trkpt><trkpt lat="38.13288" lon="15.6672767"><ele>286.4</ele><time>2026-04-25T13:38:25.655Z</time></trkpt><trkpt lat="38.1328567" lon="15.6672"><ele>284.2</ele><time>2026-04-25T13:38:26.655Z</time></trkpt><trkpt lat="38.132765" lon="15.6670617"><ele>282.0</ele><time>2026-04-25T13:38:28.655Z</time></trkpt><trkpt lat="38.1326917" lon="15.6669633"><ele>280.6666666666667</ele><time>2026-04-25T13:38:29.655Z</time></trkpt><trkpt lat="38.1326383" lon="15.6668567"><ele>279.3333333333333</ele><time>2026-04-25T13:38:30.656Z</time></trkpt><trkpt lat="38.1326017" lon="15.6667533"><ele>278.0</ele><time>2026-04-25T13:38:31.655Z</time></trkpt><trkpt lat="38.1325783" lon="15.6666517"><ele>276.66666666666663</ele><time>2026-04-25T13:38:32.655Z</time></trkpt><trkpt lat="38.132565" lon="15.6665517"><ele>275.3333333333333</ele><time>2026-04-25T13:38:33.655Z</time></trkpt><trkpt lat="38.1325433" lon="15.6664617"><ele>274.0</ele><time>2026-04-25T13:38:34.655Z</time></trkpt><trkpt lat="38.132535" lon="15.6663767"><ele>274.0</ele><time>2026-04-25T13:38:35.655Z</time></trkpt><trkpt lat="38.1325467" lon="15.6662367"><ele>274.0</ele><time>2026-04-25T13:38:37.655Z</time></trkpt><trkpt lat="38.1325667" lon="15.66614"><ele>274.0</ele><time>2026-04-25T13:38:38.655Z</time></trkpt><trkpt lat="38.1325933" lon="15.6660483"><ele>274.0</ele><time>2026-04-25T13:38:39.655Z</time></trkpt><trkpt lat="38.1326167" lon="15.6659617"><ele>274.0</ele><time>2026-04-25T13:38:40.656Z</time></trkpt><trkpt lat="38.1326417" lon="15.6658517"><ele>274.0</ele><time>2026-04-25T13:38:42.655Z</time></trkpt><trkpt lat="38.1325767" lon="15.6658817"><ele>271.66666666666663</ele><time>2026-04-25T13:38:56.655Z</time></trkpt><trkpt lat="38.1325217" lon="15.66598"><ele>269.3333333333333</ele><time>2026-04-25T13:38:58.656Z</time></trkpt><trkpt lat="38.1324683" lon="15.6660383"><ele>267.0</ele><time>2026-04-25T13:39:00.656Z</time></trkpt><trkpt lat="38.132395" lon="15.6660617"><ele>264.6666666666667</ele><time>2026-04-25T13:39:02.655Z</time></trkpt><trkpt lat="38.1323233" lon="15.66609"><ele>262.33333333333337</ele><time>2026-04-25T13:39:04.656Z</time></trkpt><trkpt lat="38.1322367" lon="15.6661183"><ele>260.0</ele><time>2026-04-25T13:39:06.655Z</time></trkpt><trkpt lat="38.1321417" lon="15.66618"><ele>259.0</ele><time>2026-04-25T13:39:08.655Z</time></trkpt><trkpt lat="38.1320433" lon="15.6662133"><ele>258.0</ele><time>2026-04-25T13:39:10.656Z</time></trkpt><trkpt lat="38.1319417" lon="15.666245"><ele>257.0</ele><time>2026-04-25T13:39:12.655Z</time></trkpt><trkpt lat="38.1318367" lon="15.6662983"><ele>256.0</ele><time>2026-04-25T13:39:14.655Z</time></trkpt><trkpt lat="38.13178" lon="15.66634"><ele>255.0</ele><time>2026-04-25T13:39:15.655Z</time></trkpt><trkpt lat="38.13171" lon="15.6663867"><ele>255.0</ele><time>2026-04-25T13:39:16.655Z</time></trkpt><trkpt lat="38.1316333" lon="15.6664267"><ele>255.00000000000003</ele><time>2026-04-25T13:39:17.655Z</time></trkpt><trkpt lat="38.1315633" lon="15.6664633"><ele>255.0</ele><time>2026-04-25T13:39:18.655Z</time></trkpt><trkpt lat="38.1315" lon="15.6665"><ele>255.0</ele><time>2026-04-25T13:39:19.655Z</time></trkpt><trkpt lat="38.131435" lon="15.6665483"><ele>255.00000000000003</ele><time>2026-04-25T13:39:20.655Z</time></trkpt><trkpt lat="38.131375" lon="15.6665833"><ele>255.0</ele><time>2026-04-25T13:39:21.655Z</time></trkpt><trkpt lat="38.1313067" lon="15.6666167"><ele>255.0</ele><time>2026-04-25T13:39:22.655Z</time></trkpt><trkpt lat="38.1311733" lon="15.666665"><ele>250.5</ele><time>2026-04-25T13:39:24.656Z</time></trkpt><trkpt lat="38.1310867" lon="15.6667017"><ele>246.0</ele><time>2026-04-25T13:39:25.655Z</time></trkpt><trkpt lat="38.1309983" lon="15.666735"><ele>241.5</ele><time>2026-04-25T13:39:26.655Z</time></trkpt><trkpt lat="38.1309317" lon="15.666755"><ele>237.0</ele><time>2026-04-25T13:39:27.655Z</time></trkpt><trkpt lat="38.1308367" lon="15.6667917"><ele>232.5</ele><time>2026-04-25T13:39:29.655Z</time></trkpt><trkpt lat="38.130765" lon="15.6668467"><ele>228.0</ele><time>2026-04-25T13:39:31.655Z</time></trkpt><trkpt lat="38.1306917" lon="15.6669067"><ele>225.57142857142856</ele><time>2026-04-25T13:39:33.655Z</time></trkpt><trkpt lat="38.1306417" lon="15.666985"><ele>223.1428571428571</ele><time>2026-04-25T13:39:35.655Z</time></trkpt><trkpt lat="38.1306233" lon="15.6670633"><ele>220.71428571428572</ele><time>2026-04-25T13:39:37.655Z</time></trkpt><trkpt lat="38.1306317" lon="15.6671483"><ele>218.28571428571428</ele><time>2026-04-25T13:39:39.655Z</time></trkpt><trkpt lat="38.130645" lon="15.66725"><ele>215.85714285714286</ele><time>2026-04-25T13:39:42.656Z</time></trkpt><trkpt lat="38.1306417" lon="15.66733"><ele>213.42857142857144</ele><time>2026-04-25T13:39:47.655Z</time></trkpt><trkpt lat="38.1305883" lon="15.6673983"><ele>211.0</ele><time>2026-04-25T13:39:50.656Z</time></trkpt><trkpt lat="38.1305133" lon="15.6674383"><ele>211.0</ele><time>2026-04-25T13:39:53.655Z</time></trkpt><trkpt lat="38.1304283" lon="15.6674217"><ele>211.0</ele><time>2026-04-25T13:39:56.655Z</time></trkpt><trkpt lat="38.13035" lon="15.66743"><ele>211.0</ele><time>2026-04-25T13:39:59.655Z</time></trkpt><trkpt lat="38.130285" lon="15.6674483"><ele>211.0</ele><time>2026-04-25T13:40:01.656Z</time></trkpt><trkpt lat="38.130225" lon="15.6674233"><ele>211.0</ele><time>2026-04-25T13:40:15.655Z</time></trkpt><trkpt lat="38.1301717" lon="15.66737"><ele>211.0</ele><time>2026-04-25T13:40:17.655Z</time></trkpt><trkpt lat="38.1301033" lon="15.66731"><ele>211.0</ele><time>2026-04-25T13:40:43.656Z</time></trkpt><trkpt lat="38.1300483" lon="15.66727"><ele>210.99999999999997</ele><time>2026-04-25T13:40:45.655Z</time></trkpt><trkpt lat="38.1299383" lon="15.6671967"><ele>211.0</ele><time>2026-04-25T13:40:47.655Z</time></trkpt><trkpt lat="38.1298717" lon="15.667155"><ele>211.0</ele><time>2026-04-25T13:40:48.656Z</time></trkpt><trkpt lat="38.1297983" lon="15.6671167"><ele>211.0</ele><time>2026-04-25T13:40:49.655Z</time></trkpt><trkpt lat="38.1297167" lon="15.6670783"><ele>210.99999999999997</ele><time>2026-04-25T13:40:50.655Z</time></trkpt><trkpt lat="38.12964" lon="15.6670417"><ele>211.0</ele><time>2026-04-25T13:40:51.655Z</time></trkpt><trkpt lat="38.1295617" lon="15.6670017"><ele>207.83333333333331</ele><time>2026-04-25T13:40:52.655Z</time></trkpt><trkpt lat="38.1294783" lon="15.6669633"><ele>204.66666666666666</ele><time>2026-04-25T13:40:53.655Z</time></trkpt><trkpt lat="38.1293917" lon="15.6669283"><ele>201.5</ele><time>2026-04-25T13:40:54.655Z</time></trkpt><trkpt lat="38.129305" lon="15.6668983"><ele>198.33333333333331</ele><time>2026-04-25T13:40:55.655Z</time></trkpt><trkpt lat="38.12923" lon="15.66687"><ele>195.16666666666666</ele><time>2026-04-25T13:40:56.655Z</time></trkpt><trkpt lat="38.1291533" lon="15.6668433"><ele>192.0</ele><time>2026-04-25T13:40:57.655Z</time></trkpt><trkpt lat="38.12908" lon="15.6668183"><ele>187.42857142857142</ele><time>2026-04-25T13:40:58.655Z</time></trkpt><trkpt lat="38.1290067" lon="15.6667967"><ele>182.85714285714286</ele><time>2026-04-25T13:40:59.655Z</time></trkpt><trkpt lat="38.1289333" lon="15.6667767"><ele>178.28571428571428</ele><time>2026-04-25T13:41:00.655Z</time></trkpt><trkpt lat="38.128855" lon="15.66675"><ele>173.71428571428572</ele><time>2026-04-25T13:41:01.655Z</time></trkpt><trkpt lat="38.1287817" lon="15.6667333"><ele>169.14285714285714</ele><time>2026-04-25T13:41:02.656Z</time></trkpt><trkpt lat="38.1287167" lon="15.666715"><ele>164.57142857142856</ele><time>2026-04-25T13:41:03.655Z</time></trkpt><trkpt lat="38.128645" lon="15.6666867"><ele>160.0</ele><time>2026-04-25T13:41:04.655Z</time></trkpt><trkpt lat="38.12857" lon="15.6666633"><ele>160.0</ele><time>2026-04-25T13:41:05.655Z</time></trkpt><trkpt lat="38.1285017" lon="15.666635"><ele>160.0</ele><time>2026-04-25T13:41:06.655Z</time></trkpt><trkpt lat="38.1284333" lon="15.6666"><ele>160.0</ele><time>2026-04-25T13:41:07.655Z</time></trkpt><trkpt lat="38.1283667" lon="15.6665717"><ele>160.0</ele><time>2026-04-25T13:41:08.655Z</time></trkpt><trkpt lat="38.1283083" lon="15.66654"><ele>160.0</ele><time>2026-04-25T13:41:09.656Z</time></trkpt><trkpt lat="38.1282167" lon="15.6665"><ele>160.0</ele><time>2026-04-25T13:41:11.655Z</time></trkpt><trkpt lat="38.1281483" lon="15.6664767"><ele>160.0</ele><time>2026-04-25T13:41:13.655Z</time></trkpt><trkpt lat="38.1280983" lon="15.6663983"><ele>157.0</ele><time>2026-04-25T13:41:23.655Z</time></trkpt><trkpt lat="38.1280833" lon="15.6662667"><ele>154.0</ele><time>2026-04-25T13:41:25.655Z</time></trkpt><trkpt lat="38.1280833" lon="15.6661783"><ele>151.0</ele><time>2026-04-25T13:41:26.655Z</time></trkpt><trkpt lat="38.128085" lon="15.666095"><ele>148.0</ele><time>2026-04-25T13:41:27.655Z</time></trkpt><trkpt lat="38.128085" lon="15.666005"><ele>145.0</ele><time>2026-04-25T13:41:28.655Z</time></trkpt><trkpt lat="38.1280783" lon="15.6659233"><ele>142.0</ele><time>2026-04-25T13:41:29.655Z</time></trkpt><trkpt lat="38.1280533" lon="15.665765"><ele>142.0</ele><time>2026-04-25T13:41:31.655Z</time></trkpt><trkpt lat="38.128045" lon="15.6656767"><ele>142.0</ele><time>2026-04-25T13:41:32.655Z</time></trkpt><trkpt lat="38.1280317" lon="15.665585"><ele>142.0</ele><time>2026-04-25T13:41:33.655Z</time></trkpt><trkpt lat="38.1280117" lon="15.6654983"><ele>142.0</ele><time>2026-04-25T13:41:34.655Z</time></trkpt><trkpt lat="38.1279833" lon="15.6654083"><ele>142.0</ele><time>2026-04-25T13:41:35.655Z</time></trkpt><trkpt lat="38.12794" lon="15.6653167"><ele>142.0</ele><time>2026-04-25T13:41:36.655Z</time></trkpt><trkpt lat="38.12789" lon="15.6652167"><ele>141.4</ele><time>2026-04-25T13:41:37.655Z</time></trkpt><trkpt lat="38.1278317" lon="15.6651217"><ele>140.79999999999998</ele><time>2026-04-25T13:41:38.655Z</time></trkpt><trkpt lat="38.1277583" lon="15.6650317"><ele>140.2</ele><time>2026-04-25T13:41:39.655Z</time></trkpt><trkpt lat="38.127705" lon="15.6649333"><ele>139.6</ele><time>2026-04-25T13:41:40.655Z</time></trkpt><trkpt lat="38.1276333" lon="15.664835"><ele>139.0</ele><time>2026-04-25T13:41:41.655Z</time></trkpt><trkpt lat="38.1275633" lon="15.664735"><ele>139.0</ele><time>2026-04-25T13:41:42.655Z</time></trkpt><trkpt lat="38.1275" lon="15.6646217"><ele>139.0</ele><time>2026-04-25T13:41:43.655Z</time></trkpt><trkpt lat="38.1274317" lon="15.6645"><ele>139.0</ele><time>2026-04-25T13:41:44.655Z</time></trkpt><trkpt lat="38.1273633" lon="15.6643717"><ele>139.0</ele><time>2026-04-25T13:41:45.656Z</time></trkpt><trkpt lat="38.1272933" lon="15.6642367"><ele>134.75</ele><time>2026-04-25T13:41:46.655Z</time></trkpt><trkpt lat="38.12723" lon="15.664095"><ele>130.5</ele><time>2026-04-25T13:41:47.655Z</time></trkpt><trkpt lat="38.1271617" lon="15.66395"><ele>126.25</ele><time>2026-04-25T13:41:48.655Z</time></trkpt><trkpt lat="38.12711" lon="15.663795"><ele>122.0</ele><time>2026-04-25T13:41:49.656Z</time></trkpt><trkpt lat="38.1270683" lon="15.6636317"><ele>119.25</ele><time>2026-04-25T13:41:50.655Z</time></trkpt><trkpt lat="38.1270433" lon="15.663475"><ele>116.5</ele><time>2026-04-25T13:41:51.656Z</time></trkpt><trkpt lat="38.1270383" lon="15.6633133"><ele>113.75</ele><time>2026-04-25T13:41:52.656Z</time></trkpt><trkpt lat="38.1270483" lon="15.6631683"><ele>111.0</ele><time>2026-04-25T13:41:53.655Z</time></trkpt><trkpt lat="38.1270633" lon="15.66303"><ele>111.0</ele><time>2026-04-25T13:41:54.656Z</time></trkpt><trkpt lat="38.1270867" lon="15.6628817"><ele>111.0</ele><time>2026-04-25T13:41:55.655Z</time></trkpt><trkpt lat="38.1271067" lon="15.66274"><ele>111.0</ele><time>2026-04-25T13:41:56.655Z</time></trkpt><trkpt lat="38.1271233" lon="15.6625917"><ele>111.0</ele><time>2026-04-25T13:41:57.655Z</time></trkpt><trkpt lat="38.1271267" lon="15.6624383"><ele>109.0</ele><time>2026-04-25T13:41:58.655Z</time></trkpt><trkpt lat="38.1271117" lon="15.6622933"><ele>107.0</ele><time>2026-04-25T13:41:59.655Z</time></trkpt><trkpt lat="38.1270833" lon="15.66216"><ele>105.0</ele><time>2026-04-25T13:42:00.655Z</time></trkpt><trkpt lat="38.12705" lon="15.66204"><ele>103.0</ele><time>2026-04-25T13:42:01.655Z</time></trkpt><trkpt lat="38.1270217" lon="15.6619133"><ele>101.0</ele><time>2026-04-25T13:42:02.655Z</time></trkpt><trkpt lat="38.1269933" lon="15.661815"><ele>98.4</ele><time>2026-04-25T13:42:03.655Z</time></trkpt><trkpt lat="38.126955" lon="15.6617083"><ele>95.8</ele><time>2026-04-25T13:42:04.655Z</time></trkpt><trkpt lat="38.1269067" lon="15.6616067"><ele>93.2</ele><time>2026-04-25T13:42:05.655Z</time></trkpt><trkpt lat="38.12684" lon="15.66152"><ele>90.60000000000001</ele><time>2026-04-25T13:42:06.655Z</time></trkpt><trkpt lat="38.1267617" lon="15.6614333"><ele>88.0</ele><time>2026-04-25T13:42:07.655Z</time></trkpt><trkpt lat="38.1266783" lon="15.6613633"><ele>88.0</ele><time>2026-04-25T13:42:08.655Z</time></trkpt><trkpt lat="38.12659" lon="15.661295"><ele>88.0</ele><time>2026-04-25T13:42:09.655Z</time></trkpt><trkpt lat="38.126515" lon="15.661245"><ele>88.0</ele><time>2026-04-25T13:42:10.655Z</time></trkpt><trkpt lat="38.12643" lon="15.6611833"><ele>88.0</ele><time>2026-04-25T13:42:11.655Z</time></trkpt><trkpt lat="38.1263333" lon="15.6611067"><ele>88.0</ele><time>2026-04-25T13:42:12.655Z</time></trkpt><trkpt lat="38.1262417" lon="15.6610333"><ele>84.80000000000001</ele><time>2026-04-25T13:42:13.655Z</time></trkpt><trkpt lat="38.12615" lon="15.6609417"><ele>81.60000000000001</ele><time>2026-04-25T13:42:14.655Z</time></trkpt><trkpt lat="38.1260483" lon="15.6608483"><ele>78.4</ele><time>2026-04-25T13:42:15.655Z</time></trkpt><trkpt lat="38.1259617" lon="15.6607583"><ele>75.2</ele><time>2026-04-25T13:42:16.655Z</time></trkpt><trkpt lat="38.1258867" lon="15.6606883"><ele>72.0</ele><time>2026-04-25T13:42:17.655Z</time></trkpt><trkpt lat="38.1258083" lon="15.6605883"><ele>72.0</ele><time>2026-04-25T13:42:18.655Z</time></trkpt><trkpt lat="38.1257317" lon="15.6604783"><ele>72.0</ele><time>2026-04-25T13:42:19.655Z</time></trkpt><trkpt lat="38.1256483" lon="15.66037"><ele>72.0</ele><time>2026-04-25T13:42:20.656Z</time></trkpt><trkpt lat="38.1255667" lon="15.6602683"><ele>72.0</ele><time>2026-04-25T13:42:21.655Z</time></trkpt><trkpt lat="38.1254783" lon="15.66018"><ele>69.6</ele><time>2026-04-25T13:42:22.655Z</time></trkpt><trkpt lat="38.12538" lon="15.6601117"><ele>67.2</ele><time>2026-04-25T13:42:23.656Z</time></trkpt><trkpt lat="38.1252783" lon="15.6600533"><ele>64.8</ele><time>2026-04-25T13:42:24.656Z</time></trkpt><trkpt lat="38.1251783" lon="15.66001"><ele>62.4</ele><time>2026-04-25T13:42:25.656Z</time></trkpt><trkpt lat="38.125085" lon="15.6599667"><ele>60.0</ele><time>2026-04-25T13:42:26.655Z</time></trkpt><trkpt lat="38.1249967" lon="15.659915"><ele>60.0</ele><time>2026-04-25T13:42:27.656Z</time></trkpt><trkpt lat="38.12491" lon="15.6598683"><ele>60.0</ele><time>2026-04-25T13:42:28.655Z</time></trkpt><trkpt lat="38.124835" lon="15.6598317"><ele>60.0</ele><time>2026-04-25T13:42:29.655Z</time></trkpt><trkpt lat="38.124765" lon="15.6598083"><ele>60.0</ele><time>2026-04-25T13:42:30.655Z</time></trkpt><trkpt lat="38.1246983" lon="15.65981"><ele>60.0</ele><time>2026-04-25T13:42:31.655Z</time></trkpt><trkpt lat="38.1245717" lon="15.6598067"><ele>60.0</ele><time>2026-04-25T13:42:33.655Z</time></trkpt><trkpt lat="38.1245067" lon="15.6598"><ele>59.0</ele><time>2026-04-25T13:42:34.655Z</time></trkpt><trkpt lat="38.1244383" lon="15.6597983"><ele>58.0</ele><time>2026-04-25T13:42:35.655Z</time></trkpt><trkpt lat="38.1243183" lon="15.6597783"><ele>57.0</ele><time>2026-04-25T13:42:37.656Z</time></trkpt><trkpt lat="38.124255" lon="15.6597667"><ele>56.0</ele><time>2026-04-25T13:42:38.656Z</time></trkpt><trkpt lat="38.12414" lon="15.659755"><ele>55.0</ele><time>2026-04-25T13:42:40.655Z</time></trkpt><trkpt lat="38.1240367" lon="15.659765"><ele>54.2</ele><time>2026-04-25T13:42:42.655Z</time></trkpt><trkpt lat="38.12394" lon="15.6597817"><ele>53.4</ele><time>2026-04-25T13:42:44.655Z</time></trkpt><trkpt lat="38.1238233" lon="15.659795"><ele>52.599999999999994</ele><time>2026-04-25T13:42:46.655Z</time></trkpt><trkpt lat="38.12371" lon="15.6597833"><ele>51.8</ele><time>2026-04-25T13:42:48.656Z</time></trkpt><trkpt lat="38.1236467" lon="15.659775"><ele>51.0</ele><time>2026-04-25T13:42:49.655Z</time></trkpt><trkpt lat="38.1235817" lon="15.6597667"><ele>51.0</ele><time>2026-04-25T13:42:50.655Z</time></trkpt><trkpt lat="38.1235083" lon="15.6597583"><ele>51.0</ele><time>2026-04-25T13:42:51.655Z</time></trkpt><trkpt lat="38.12344" lon="15.6597517"><ele>51.0</ele><time>2026-04-25T13:42:52.656Z</time></trkpt><trkpt lat="38.1233367" lon="15.6597567"><ele>51.0</ele><time>2026-04-25T13:42:54.655Z</time></trkpt><trkpt lat="38.1232317" lon="15.659795"><ele>51.0</ele><time>2026-04-25T13:42:56.655Z</time></trkpt><trkpt lat="38.1231667" lon="15.6598083"><ele>51.0</ele><time>2026-04-25T13:42:57.655Z</time></trkpt><trkpt lat="38.1230983" lon="15.659815"><ele>51.0</ele><time>2026-04-25T13:42:58.655Z</time></trkpt><trkpt lat="38.1230217" lon="15.65982"><ele>51.0</ele><time>2026-04-25T13:42:59.655Z</time></trkpt><trkpt lat="38.12295" lon="15.6598467"><ele>51.0</ele><time>2026-04-25T13:43:00.655Z</time></trkpt><trkpt lat="38.1228817" lon="15.6598767"><ele>51.0</ele><time>2026-04-25T13:43:01.655Z</time></trkpt><trkpt lat="38.1228167" lon="15.6598833"><ele>51.0</ele><time>2026-04-25T13:43:02.656Z</time></trkpt><trkpt lat="38.1227067" lon="15.6598583"><ele>51.0</ele><time>2026-04-25T13:43:04.655Z</time></trkpt><trkpt lat="38.1226267" lon="15.6597567"><ele>51.0</ele><time>2026-04-25T13:43:06.656Z</time></trkpt><trkpt lat="38.1225967" lon="15.65967"><ele>51.0</ele><time>2026-04-25T13:43:07.655Z</time></trkpt><trkpt lat="38.1225633" lon="15.6595667"><ele>51.0</ele><time>2026-04-25T13:43:08.655Z</time></trkpt><trkpt lat="38.12253" lon="15.6594583"><ele>51.0</ele><time>2026-04-25T13:43:09.655Z</time></trkpt><trkpt lat="38.1224917" lon="15.6593517"><ele>51.0</ele><time>2026-04-25T13:43:10.655Z</time></trkpt><trkpt lat="38.12245" lon="15.6592533"><ele>51.0</ele><time>2026-04-25T13:43:11.656Z</time></trkpt><trkpt lat="38.1224117" lon="15.659155"><ele>51.5</ele><time>2026-04-25T13:43:12.655Z</time></trkpt><trkpt lat="38.1223833" lon="15.6590717"><ele>52.0</ele><time>2026-04-25T13:43:13.655Z</time></trkpt><trkpt lat="38.1223567" lon="15.6589783"><ele>52.5</ele><time>2026-04-25T13:43:14.656Z</time></trkpt><trkpt lat="38.1223283" lon="15.65887"><ele>53.0</ele><time>2026-04-25T13:43:15.655Z</time></trkpt><trkpt lat="38.1223017" lon="15.6587567"><ele>53.5</ele><time>2026-04-25T13:43:16.655Z</time></trkpt><trkpt lat="38.1222817" lon="15.6586483"><ele>54.0</ele><time>2026-04-25T13:43:17.655Z</time></trkpt><trkpt lat="38.1222667" lon="15.658545"><ele>52.833333333333336</ele><time>2026-04-25T13:43:18.655Z</time></trkpt><trkpt lat="38.122255" lon="15.65844"><ele>51.666666666666664</ele><time>2026-04-25T13:43:19.655Z</time></trkpt><trkpt lat="38.1222417" lon="15.6583333"><ele>50.5</ele><time>2026-04-25T13:43:20.655Z</time></trkpt><trkpt lat="38.1222317" lon="15.6582233"><ele>49.33333333333333</ele><time>2026-04-25T13:43:21.655Z</time></trkpt><trkpt lat="38.122215" lon="15.65811"><ele>48.166666666666664</ele><time>2026-04-25T13:43:22.655Z</time></trkpt><trkpt lat="38.1222017" lon="15.6579933"><ele>47.0</ele><time>2026-04-25T13:43:23.655Z</time></trkpt><trkpt lat="38.1221917" lon="15.657885"><ele>45.83333333333333</ele><time>2026-04-25T13:43:24.655Z</time></trkpt><trkpt lat="38.122185" lon="15.6577767"><ele>44.666666666666664</ele><time>2026-04-25T13:43:25.655Z</time></trkpt><trkpt lat="38.122175" lon="15.6576717"><ele>43.5</ele><time>2026-04-25T13:43:26.655Z</time></trkpt><trkpt lat="38.1221617" lon="15.6575617"><ele>42.333333333333336</ele><time>2026-04-25T13:43:27.655Z</time></trkpt><trkpt lat="38.12214" lon="15.6574467"><ele>41.16666666666667</ele><time>2026-04-25T13:43:28.655Z</time></trkpt><trkpt lat="38.12212" lon="15.6573233"><ele>40.0</ele><time>2026-04-25T13:43:29.655Z</time></trkpt><trkpt lat="38.1220967" lon="15.6571817"><ele>40.0</ele><time>2026-04-25T13:43:30.655Z</time></trkpt><trkpt lat="38.1220717" lon="15.6570217"><ele>40.0</ele><time>2026-04-25T13:43:31.655Z</time></trkpt><trkpt lat="38.1220433" lon="15.6568567"><ele>40.0</ele><time>2026-04-25T13:43:32.655Z</time></trkpt><trkpt lat="38.1220117" lon="15.6566817"><ele>40.0</ele><time>2026-04-25T13:43:33.656Z</time></trkpt><trkpt lat="38.1219783" lon="15.656515"><ele>38.5</ele><time>2026-04-25T13:43:34.655Z</time></trkpt><trkpt lat="38.12194" lon="15.6563517"><ele>37.0</ele><time>2026-04-25T13:43:35.655Z</time></trkpt><trkpt lat="38.1219" lon="15.656215"><ele>35.5</ele><time>2026-04-25T13:43:36.656Z</time></trkpt><trkpt lat="38.1218617" lon="15.6560883"><ele>34.0</ele><time>2026-04-25T13:43:37.655Z</time></trkpt><trkpt lat="38.1218267" lon="15.65597"><ele>33.5</ele><time>2026-04-25T13:43:38.655Z</time></trkpt><trkpt lat="38.1218" lon="15.65586"><ele>33.0</ele><time>2026-04-25T13:43:39.655Z</time></trkpt><trkpt lat="38.12178" lon="15.6557617"><ele>32.5</ele><time>2026-04-25T13:43:40.655Z</time></trkpt><trkpt lat="38.12177" lon="15.6556667"><ele>32.0</ele><time>2026-04-25T13:43:41.655Z</time></trkpt><trkpt lat="38.1217533" lon="15.6555733"><ele>31.500000000000004</ele><time>2026-04-25T13:43:42.655Z</time></trkpt><trkpt lat="38.121735" lon="15.6554783"><ele>31.0</ele><time>2026-04-25T13:43:43.655Z</time></trkpt><trkpt lat="38.1217167" lon="15.6553867"><ele>31.0</ele><time>2026-04-25T13:43:44.655Z</time></trkpt><trkpt lat="38.1216883" lon="15.6552917"><ele>31.0</ele><time>2026-04-25T13:43:45.655Z</time></trkpt><trkpt lat="38.12165" lon="15.65518"><ele>31.0</ele><time>2026-04-25T13:43:46.656Z</time></trkpt><trkpt lat="38.1216133" lon="15.6550583"><ele>31.0</ele><time>2026-04-25T13:43:47.655Z</time></trkpt><trkpt lat="38.1215783" lon="15.6549183"><ele>31.0</ele><time>2026-04-25T13:43:48.656Z</time></trkpt><trkpt lat="38.121545" lon="15.6547783"><ele>30.6</ele><time>2026-04-25T13:43:49.655Z</time></trkpt><trkpt lat="38.1215167" lon="15.65464"><ele>30.200000000000003</ele><time>2026-04-25T13:43:50.655Z</time></trkpt><trkpt lat="38.1214883" lon="15.6545133"><ele>29.799999999999997</ele><time>2026-04-25T13:43:51.655Z</time></trkpt><trkpt lat="38.12146" lon="15.6543983"><ele>29.4</ele><time>2026-04-25T13:43:52.656Z</time></trkpt><trkpt lat="38.1214483" lon="15.6542917"><ele>29.0</ele><time>2026-04-25T13:43:53.655Z</time></trkpt><trkpt lat="38.121445" lon="15.6541983"><ele>28.4</ele><time>2026-04-25T13:43:54.655Z</time></trkpt><trkpt lat="38.1214583" lon="15.6540617"><ele>27.799999999999997</ele><time>2026-04-25T13:43:56.656Z</time></trkpt><trkpt lat="38.1214717" lon="15.65394"><ele>27.200000000000003</ele><time>2026-04-25T13:43:58.655Z</time></trkpt><trkpt lat="38.1214617" lon="15.6537667"><ele>26.6</ele><time>2026-04-25T13:44:00.655Z</time></trkpt><trkpt lat="38.1214483" lon="15.6536517"><ele>26.0</ele><time>2026-04-25T13:44:01.655Z</time></trkpt><trkpt lat="38.1214217" lon="15.653545"><ele>25.666666666666664</ele><time>2026-04-25T13:44:02.656Z</time></trkpt><trkpt lat="38.1213883" lon="15.65345"><ele>25.333333333333332</ele><time>2026-04-25T13:44:03.655Z</time></trkpt><trkpt lat="38.1213567" lon="15.65337"><ele>25.0</ele><time>2026-04-25T13:44:04.656Z</time></trkpt><trkpt lat="38.1213283" lon="15.6532983"><ele>24.666666666666664</ele><time>2026-04-25T13:44:05.656Z</time></trkpt><trkpt lat="38.121245" lon="15.6532117"><ele>24.333333333333332</ele><time>2026-04-25T13:44:07.655Z</time></trkpt><trkpt lat="38.12118" lon="15.6531983"><ele>24.0</ele><time>2026-04-25T13:44:08.655Z</time></trkpt><trkpt lat="38.1211083" lon="15.6531867"><ele>24.0</ele><time>2026-04-25T13:44:09.655Z</time></trkpt><trkpt lat="38.12104" lon="15.6531883"><ele>24.0</ele><time>2026-04-25T13:44:10.656Z</time></trkpt><trkpt lat="38.120915" lon="15.65316"><ele>24.0</ele><time>2026-04-25T13:44:12.655Z</time></trkpt><trkpt lat="38.12084" lon="15.6531467"><ele>24.0</ele><time>2026-04-25T13:44:13.655Z</time></trkpt><trkpt lat="38.1207633" lon="15.6531267"><ele>24.0</ele><time>2026-04-25T13:44:14.656Z</time></trkpt><trkpt lat="38.1206883" lon="15.6531117"><ele>24.0</ele><time>2026-04-25T13:44:15.656Z</time></trkpt><trkpt lat="38.1206083" lon="15.6530967"><ele>24.333333333333332</ele><time>2026-04-25T13:44:16.655Z</time></trkpt><trkpt lat="38.12053" lon="15.6530767"><ele>24.666666666666664</ele><time>2026-04-25T13:44:17.655Z</time></trkpt><trkpt lat="38.120455" lon="15.6530583"><ele>25.0</ele><time>2026-04-25T13:44:18.655Z</time></trkpt><trkpt lat="38.120375" lon="15.6530317"><ele>25.333333333333332</ele><time>2026-04-25T13:44:19.656Z</time></trkpt><trkpt lat="38.1202867" lon="15.6529983"><ele>25.666666666666664</ele><time>2026-04-25T13:44:20.655Z</time></trkpt><trkpt lat="38.120195" lon="15.6529617"><ele>26.0</ele><time>2026-04-25T13:44:21.656Z</time></trkpt><trkpt lat="38.1201017" lon="15.6529217"><ele>25.999999999999996</ele><time>2026-04-25T13:44:22.655Z</time></trkpt><trkpt lat="38.12001" lon="15.65288"><ele>26.0</ele><time>2026-04-25T13:44:23.655Z</time></trkpt><trkpt lat="38.1199267" lon="15.6528433"><ele>26.0</ele><time>2026-04-25T13:44:24.655Z</time></trkpt><trkpt lat="38.1198483" lon="15.6528133"><ele>26.0</ele><time>2026-04-25T13:44:25.655Z</time></trkpt><trkpt lat="38.119775" lon="15.6527883"><ele>25.999999999999996</ele><time>2026-04-25T13:44:26.655Z</time></trkpt><trkpt lat="38.1196917" lon="15.6527633"><ele>26.0</ele><time>2026-04-25T13:44:27.655Z</time></trkpt><trkpt lat="38.1196133" lon="15.6527417"><ele>25.6</ele><time>2026-04-25T13:44:28.655Z</time></trkpt><trkpt lat="38.119525" lon="15.652715"><ele>25.200000000000003</ele><time>2026-04-25T13:44:29.656Z</time></trkpt><trkpt lat="38.1194267" lon="15.652685"><ele>24.799999999999997</ele><time>2026-04-25T13:44:30.656Z</time></trkpt><trkpt lat="38.119325" lon="15.6526467"><ele>24.4</ele><time>2026-04-25T13:44:31.655Z</time></trkpt><trkpt lat="38.11922" lon="15.652605"><ele>24.0</ele><time>2026-04-25T13:44:32.655Z</time></trkpt><trkpt lat="38.119105" lon="15.6525733"><ele>24.0</ele><time>2026-04-25T13:44:33.655Z</time></trkpt><trkpt lat="38.1189933" lon="15.652535"><ele>24.0</ele><time>2026-04-25T13:44:34.656Z</time></trkpt><trkpt lat="38.118875" lon="15.6525083"><ele>24.0</ele><time>2026-04-25T13:44:35.656Z</time></trkpt><trkpt lat="38.11876" lon="15.65248"><ele>24.0</ele><time>2026-04-25T13:44:36.655Z</time></trkpt><trkpt lat="38.1186483" lon="15.6524433"><ele>24.0</ele><time>2026-04-25T13:44:37.655Z</time></trkpt><trkpt lat="38.118545" lon="15.6523933"><ele>24.0</ele><time>2026-04-25T13:44:38.655Z</time></trkpt><trkpt lat="38.1184433" lon="15.6523467"><ele>24.0</ele><time>2026-04-25T13:44:39.655Z</time></trkpt><trkpt lat="38.11834" lon="15.6522883"><ele>24.0</ele><time>2026-04-25T13:44:40.655Z</time></trkpt><trkpt lat="38.1182267" lon="15.6522433"><ele>24.0</ele><time>2026-04-25T13:44:41.655Z</time></trkpt><trkpt lat="38.1181167" lon="15.6521983"><ele>24.0</ele><time>2026-04-25T13:44:42.655Z</time></trkpt><trkpt lat="38.118" lon="15.6521717"><ele>24.0</ele><time>2026-04-25T13:44:43.655Z</time></trkpt><trkpt lat="38.1178933" lon="15.65213"><ele>24.0</ele><time>2026-04-25T13:44:44.655Z</time></trkpt><trkpt lat="38.1177817" lon="15.6520883"><ele>24.0</ele><time>2026-04-25T13:44:45.655Z</time></trkpt><trkpt lat="38.1176667" lon="15.6520433"><ele>24.0</ele><time>2026-04-25T13:44:46.655Z</time></trkpt><trkpt lat="38.1175533" lon="15.6520067"><ele>24.0</ele><time>2026-04-25T13:44:47.655Z</time></trkpt><trkpt lat="38.1174583" lon="15.65196"><ele>24.0</ele><time>2026-04-25T13:44:48.656Z</time></trkpt><trkpt lat="38.117375" lon="15.6519167"><ele>24.0</ele><time>2026-04-25T13:44:49.655Z</time></trkpt><trkpt lat="38.1172833" lon="15.65188"><ele>23.799999999999997</ele><time>2026-04-25T13:44:50.655Z</time></trkpt><trkpt lat="38.11719" lon="15.6518483"><ele>23.599999999999998</ele><time>2026-04-25T13:44:51.656Z</time></trkpt><trkpt lat="38.1170883" lon="15.6518133"><ele>23.4</ele><time>2026-04-25T13:44:52.655Z</time></trkpt><trkpt lat="38.116985" lon="15.651785"><ele>23.2</ele><time>2026-04-25T13:44:53.656Z</time></trkpt><trkpt lat="38.1169" lon="15.6517517"><ele>23.0</ele><time>2026-04-25T13:44:54.655Z</time></trkpt><trkpt lat="38.1168367" lon="15.6517217"><ele>23.0</ele><time>2026-04-25T13:44:55.656Z</time></trkpt><trkpt lat="38.1167333" lon="15.651685"><ele>23.0</ele><time>2026-04-25T13:44:57.654Z</time></trkpt><trkpt lat="38.11661" lon="15.6516467"><ele>23.0</ele><time>2026-04-25T13:44:59.655Z</time></trkpt><trkpt lat="38.1165317" lon="15.6516267"><ele>23.0</ele><time>2026-04-25T13:45:00.654Z</time></trkpt><trkpt lat="38.11644" lon="15.651615"><ele>23.0</ele><time>2026-04-25T13:45:01.655Z</time></trkpt><trkpt lat="38.1163567" lon="15.6515967"><ele>24.0</ele><time>2026-04-25T13:45:02.654Z</time></trkpt><trkpt lat="38.1162817" lon="15.65158"><ele>25.0</ele><time>2026-04-25T13:45:03.654Z</time></trkpt><trkpt lat="38.11621" lon="15.6515633"><ele>26.0</ele><time>2026-04-25T13:45:04.654Z</time></trkpt><trkpt lat="38.1161333" lon="15.65154"><ele>27.0</ele><time>2026-04-25T13:45:05.654Z</time></trkpt><trkpt lat="38.1160533" lon="15.6515183"><ele>27.999999999999996</ele><time>2026-04-25T13:45:06.654Z</time></trkpt><trkpt lat="38.1159883" lon="15.6514833"><ele>29.0</ele><time>2026-04-25T13:45:07.655Z</time></trkpt><trkpt lat="38.1159183" lon="15.6514517"><ele>28.999999999999996</ele><time>2026-04-25T13:45:08.654Z</time></trkpt><trkpt lat="38.1158067" lon="15.6514"><ele>29.0</ele><time>2026-04-25T13:45:10.654Z</time></trkpt><trkpt lat="38.115705" lon="15.6513917"><ele>29.0</ele><time>2026-04-25T13:45:12.654Z</time></trkpt><trkpt lat="38.1156367" lon="15.6513817"><ele>29.0</ele><time>2026-04-25T13:45:13.655Z</time></trkpt><trkpt lat="38.11557" lon="15.651365"><ele>28.999999999999996</ele><time>2026-04-25T13:45:14.654Z</time></trkpt><trkpt lat="38.1155017" lon="15.6513517"><ele>29.0</ele><time>2026-04-25T13:45:15.654Z</time></trkpt><trkpt lat="38.115435" lon="15.6513433"><ele>28.2</ele><time>2026-04-25T13:45:16.654Z</time></trkpt><trkpt lat="38.11533" lon="15.651305"><ele>27.4</ele><time>2026-04-25T13:45:18.655Z</time></trkpt><trkpt lat="38.1152283" lon="15.6512617"><ele>26.6</ele><time>2026-04-25T13:45:20.654Z</time></trkpt><trkpt lat="38.1151333" lon="15.65123"><ele>25.8</ele><time>2026-04-25T13:45:22.654Z</time></trkpt><trkpt lat="38.1150483" lon="15.6511833"><ele>25.0</ele><time>2026-04-25T13:45:24.654Z</time></trkpt><trkpt lat="38.1149933" lon="15.651135"><ele>24.666666666666668</ele><time>2026-04-25T13:45:25.654Z</time></trkpt><trkpt lat="38.11493" lon="15.651075"><ele>24.333333333333336</ele><time>2026-04-25T13:45:26.654Z</time></trkpt><trkpt lat="38.114865" lon="15.6510083"><ele>24.0</ele><time>2026-04-25T13:45:27.654Z</time></trkpt><trkpt lat="38.1148033" lon="15.6509383"><ele>23.666666666666668</ele><time>2026-04-25T13:45:28.654Z</time></trkpt><trkpt lat="38.1147433" lon="15.65088"><ele>23.333333333333336</ele><time>2026-04-25T13:45:29.654Z</time></trkpt><trkpt lat="38.114685" lon="15.6508283"><ele>23.0</ele><time>2026-04-25T13:45:30.655Z</time></trkpt><trkpt lat="38.11459" lon="15.6507433"><ele>22.799999999999997</ele><time>2026-04-25T13:45:32.654Z</time></trkpt><trkpt lat="38.1145483" lon="15.6506333"><ele>22.6</ele><time>2026-04-25T13:45:34.654Z</time></trkpt><trkpt lat="38.1145833" lon="15.65047"><ele>22.4</ele><time>2026-04-25T13:45:36.654Z</time></trkpt><trkpt lat="38.1145933" lon="15.6503783"><ele>22.200000000000003</ele><time>2026-04-25T13:45:37.654Z</time></trkpt><trkpt lat="38.1145683" lon="15.65026"><ele>22.0</ele><time>2026-04-25T13:45:39.654Z</time></trkpt><trkpt lat="38.114465" lon="15.65028"><ele>22.0</ele><time>2026-04-25T13:45:41.654Z</time></trkpt><trkpt lat="38.1143583" lon="15.6503283"><ele>22.0</ele><time>2026-04-25T13:45:43.655Z</time></trkpt><trkpt lat="38.11427" lon="15.6503467"><ele>22.0</ele><time>2026-04-25T13:45:45.654Z</time></trkpt><trkpt lat="38.1141817" lon="15.6503383"><ele>22.0</ele><time>2026-04-25T13:45:47.654Z</time></trkpt><trkpt lat="38.1140917" lon="15.6502583"><ele>22.0</ele><time>2026-04-25T13:45:49.654Z</time></trkpt><trkpt lat="38.11404" lon="15.650195"><ele>22.666666666666664</ele><time>2026-04-25T13:45:50.654Z</time></trkpt><trkpt lat="38.113985" lon="15.6501217"><ele>23.333333333333332</ele><time>2026-04-25T13:45:51.654Z</time></trkpt><trkpt lat="38.1139317" lon="15.6500517"><ele>24.0</ele><time>2026-04-25T13:45:52.654Z</time></trkpt><trkpt lat="38.1138867" lon="15.649985"><ele>24.666666666666664</ele><time>2026-04-25T13:45:53.654Z</time></trkpt><trkpt lat="38.113845" lon="15.6499083"><ele>25.333333333333332</ele><time>2026-04-25T13:45:54.654Z</time></trkpt><trkpt lat="38.113785" lon="15.64983"><ele>26.0</ele><time>2026-04-25T13:45:55.654Z</time></trkpt><trkpt lat="38.1137233" lon="15.6497467"><ele>25.999999999999996</ele><time>2026-04-25T13:45:56.654Z</time></trkpt><trkpt lat="38.1136567" lon="15.6496583"><ele>26.0</ele><time>2026-04-25T13:45:57.654Z</time></trkpt><trkpt lat="38.113595" lon="15.649575"><ele>26.0</ele><time>2026-04-25T13:45:58.655Z</time></trkpt><trkpt lat="38.113535" lon="15.6494933"><ele>26.0</ele><time>2026-04-25T13:45:59.654Z</time></trkpt><trkpt lat="38.11348" lon="15.649415"><ele>25.999999999999996</ele><time>2026-04-25T13:46:00.654Z</time></trkpt><trkpt lat="38.1134283" lon="15.6493483"><ele>26.0</ele><time>2026-04-25T13:46:01.655Z</time></trkpt><trkpt lat="38.1133833" lon="15.6492817"><ele>25.833333333333332</ele><time>2026-04-25T13:46:02.654Z</time></trkpt><trkpt lat="38.113335" lon="15.6492117"><ele>25.666666666666664</ele><time>2026-04-25T13:46:03.654Z</time></trkpt><trkpt lat="38.1132417" lon="15.6491217"><ele>25.5</ele><time>2026-04-25T13:46:05.655Z</time></trkpt><trkpt lat="38.1131917" lon="15.6490517"><ele>25.333333333333336</ele><time>2026-04-25T13:46:07.654Z</time></trkpt><trkpt lat="38.1131467" lon="15.6489567"><ele>25.166666666666668</ele><time>2026-04-25T13:46:10.654Z</time></trkpt><trkpt lat="38.1131617" lon="15.648865"><ele>25.0</ele><time>2026-04-25T13:46:12.654Z</time></trkpt><trkpt lat="38.1132033" lon="15.648795"><ele>25.000000000000004</ele><time>2026-04-25T13:46:13.654Z</time></trkpt><trkpt lat="38.1132367" lon="15.6487183"><ele>25.0</ele><time>2026-04-25T13:46:14.654Z</time></trkpt><trkpt lat="38.1132567" lon="15.6486417"><ele>25.0</ele><time>2026-04-25T13:46:15.655Z</time></trkpt><trkpt lat="38.1132583" lon="15.6485383"><ele>25.0</ele><time>2026-04-25T13:46:17.654Z</time></trkpt><trkpt lat="38.1131917" lon="15.6484317"><ele>25.000000000000004</ele><time>2026-04-25T13:46:19.654Z</time></trkpt><trkpt lat="38.11312" lon="15.6483217"><ele>25.0</ele><time>2026-04-25T13:46:21.654Z</time></trkpt><trkpt lat="38.1130533" lon="15.6482233"><ele>24.500000000000004</ele><time>2026-04-25T13:46:23.654Z</time></trkpt><trkpt lat="38.1130067" lon="15.6481317"><ele>24.0</ele><time>2026-04-25T13:46:25.654Z</time></trkpt><trkpt lat="38.1129417" lon="15.6480367"><ele>23.5</ele><time>2026-04-25T13:46:27.654Z</time></trkpt><trkpt lat="38.1128867" lon="15.6479483"><ele>23.0</ele><time>2026-04-25T13:46:29.654Z</time></trkpt><trkpt lat="38.112815" lon="15.647855"><ele>22.5</ele><time>2026-04-25T13:46:31.654Z</time></trkpt><trkpt lat="38.11277" lon="15.64779"><ele>22.0</ele><time>2026-04-25T13:46:32.655Z</time></trkpt><trkpt lat="38.1127067" lon="15.647695"><ele>21.6</ele><time>2026-04-25T13:46:33.654Z</time></trkpt><trkpt lat="38.1126283" lon="15.6475733"><ele>21.200000000000003</ele><time>2026-04-25T13:46:34.654Z</time></trkpt><trkpt lat="38.1125533" lon="15.647445"><ele>20.8</ele><time>2026-04-25T13:46:35.655Z</time></trkpt><trkpt lat="38.1124917" lon="15.6473483"><ele>20.4</ele><time>2026-04-25T13:46:36.654Z</time></trkpt><trkpt lat="38.1124433" lon="15.64728"><ele>20.0</ele><time>2026-04-25T13:46:37.654Z</time></trkpt><trkpt lat="38.1123617" lon="15.64719"><ele>20.0</ele><time>2026-04-25T13:46:39.654Z</time></trkpt><trkpt lat="38.1122867" lon="15.6471033"><ele>20.0</ele><time>2026-04-25T13:46:41.654Z</time></trkpt><trkpt lat="38.1122117" lon="15.6469933"><ele>20.0</ele><time>2026-04-25T13:46:43.654Z</time></trkpt><trkpt lat="38.1121683" lon="15.6469283"><ele>20.0</ele><time>2026-04-25T13:46:44.655Z</time></trkpt><trkpt lat="38.1121117" lon="15.6468533"><ele>20.0</ele><time>2026-04-25T13:46:45.655Z</time></trkpt><trkpt lat="38.1120567" lon="15.6467533"><ele>19.2</ele><time>2026-04-25T13:46:46.655Z</time></trkpt><trkpt lat="38.1119967" lon="15.6466583"><ele>18.4</ele><time>2026-04-25T13:46:47.654Z</time></trkpt><trkpt lat="38.1119267" lon="15.6465567"><ele>17.6</ele><time>2026-04-25T13:46:48.654Z</time></trkpt><trkpt lat="38.1118617" lon="15.646445"><ele>16.8</ele><time>2026-04-25T13:46:49.654Z</time></trkpt><trkpt lat="38.111795" lon="15.646335"><ele>16.0</ele><time>2026-04-25T13:46:50.655Z</time></trkpt><trkpt lat="38.1117267" lon="15.6462283"><ele>16.0</ele><time>2026-04-25T13:46:51.654Z</time></trkpt><trkpt lat="38.111655" lon="15.6461367"><ele>16.0</ele><time>2026-04-25T13:46:52.654Z</time></trkpt><trkpt lat="38.111585" lon="15.6460583"><ele>16.0</ele><time>2026-04-25T13:46:53.654Z</time></trkpt><trkpt lat="38.1115333" lon="15.6459833"><ele>16.0</ele><time>2026-04-25T13:46:54.654Z</time></trkpt><trkpt lat="38.1114917" lon="15.6459133"><ele>16.0</ele><time>2026-04-25T13:46:55.654Z</time></trkpt><trkpt lat="38.1114217" lon="15.6458"><ele>16.400000000000002</ele><time>2026-04-25T13:46:57.654Z</time></trkpt><trkpt lat="38.1113433" lon="15.6456783"><ele>16.8</ele><time>2026-04-25T13:46:59.654Z</time></trkpt><trkpt lat="38.1113017" lon="15.6455917"><ele>17.200000000000003</ele><time>2026-04-25T13:47:00.655Z</time></trkpt><trkpt lat="38.1112533" lon="15.6454967"><ele>17.6</ele><time>2026-04-25T13:47:01.654Z</time></trkpt><trkpt lat="38.1111933" lon="15.6454083"><ele>18.0</ele><time>2026-04-25T13:47:02.655Z</time></trkpt><trkpt lat="38.1111333" lon="15.6453083"><ele>16.8</ele><time>2026-04-25T13:47:03.654Z</time></trkpt><trkpt lat="38.1110683" lon="15.64521"><ele>15.600000000000001</ele><time>2026-04-25T13:47:04.654Z</time></trkpt><trkpt lat="38.111" lon="15.645105"><ele>14.399999999999999</ele><time>2026-04-25T13:47:05.654Z</time></trkpt><trkpt lat="38.1109333" lon="15.6449967"><ele>13.2</ele><time>2026-04-25T13:47:06.654Z</time></trkpt><trkpt lat="38.1108667" lon="15.6448833"><ele>12.0</ele><time>2026-04-25T13:47:07.654Z</time></trkpt><trkpt lat="38.1107967" lon="15.6447733"><ele>12.5</ele><time>2026-04-25T13:47:08.655Z</time></trkpt><trkpt lat="38.1107217" lon="15.6446633"><ele>13.0</ele><time>2026-04-25T13:47:09.654Z</time></trkpt><trkpt lat="38.1106483" lon="15.6445583"><ele>13.5</ele><time>2026-04-25T13:47:10.654Z</time></trkpt><trkpt lat="38.1105683" lon="15.6444533"><ele>14.0</ele><time>2026-04-25T13:47:11.654Z</time></trkpt><trkpt lat="38.1104867" lon="15.64434"><ele>14.0</ele><time>2026-04-25T13:47:12.655Z</time></trkpt><trkpt lat="38.110405" lon="15.6442267"><ele>14.0</ele><time>2026-04-25T13:47:13.655Z</time></trkpt><trkpt lat="38.1103217" lon="15.644115"><ele>14.0</ele><time>2026-04-25T13:47:14.654Z</time></trkpt><trkpt lat="38.1102467" lon="15.6440083"><ele>14.0</ele><time>2026-04-25T13:47:15.654Z</time></trkpt><trkpt lat="38.1101683" lon="15.643895"><ele>14.0</ele><time>2026-04-25T13:47:16.654Z</time></trkpt><trkpt lat="38.1100917" lon="15.6437733"><ele>14.0</ele><time>2026-04-25T13:47:17.655Z</time></trkpt><trkpt lat="38.1100133" lon="15.643655"><ele>14.0</ele><time>2026-04-25T13:47:18.655Z</time></trkpt><trkpt lat="38.1099417" lon="15.6435433"><ele>14.0</ele><time>2026-04-25T13:47:19.654Z</time></trkpt><trkpt lat="38.1098733" lon="15.6434333"><ele>14.25</ele><time>2026-04-25T13:47:20.654Z</time></trkpt><trkpt lat="38.1098" lon="15.643325"><ele>14.5</ele><time>2026-04-25T13:47:21.654Z</time></trkpt><trkpt lat="38.109725" lon="15.6432233"><ele>14.75</ele><time>2026-04-25T13:47:22.654Z</time></trkpt><trkpt lat="38.1096533" lon="15.6431083"><ele>15.0</ele><time>2026-04-25T13:47:23.655Z</time></trkpt><trkpt lat="38.10958" lon="15.6429933"><ele>15.0</ele><time>2026-04-25T13:47:24.654Z</time></trkpt><trkpt lat="38.1095083" lon="15.6428817"><ele>15.0</ele><time>2026-04-25T13:47:25.654Z</time></trkpt><trkpt lat="38.1094367" lon="15.6427817"><ele>15.0</ele><time>2026-04-25T13:47:26.654Z</time></trkpt><trkpt lat="38.1093617" lon="15.6426683"><ele>15.0</ele><time>2026-04-25T13:47:27.654Z</time></trkpt><trkpt lat="38.1093017" lon="15.64255"><ele>15.0</ele><time>2026-04-25T13:47:28.654Z</time></trkpt><trkpt lat="38.1092217" lon="15.64244"><ele>15.0</ele><time>2026-04-25T13:47:29.655Z</time></trkpt><trkpt lat="38.1091417" lon="15.6423117"><ele>15.0</ele><time>2026-04-25T13:47:30.654Z</time></trkpt><trkpt lat="38.1090483" lon="15.6421667"><ele>15.0</ele><time>2026-04-25T13:47:31.654Z</time></trkpt><trkpt lat="38.1089433" lon="15.6420067"><ele>15.0</ele><time>2026-04-25T13:47:32.654Z</time></trkpt><trkpt lat="38.10883" lon="15.6418283"><ele>13.333333333333334</ele><time>2026-04-25T13:47:33.654Z</time></trkpt><trkpt lat="38.1087133" lon="15.6416467"><ele>11.666666666666668</ele><time>2026-04-25T13:47:34.654Z</time></trkpt><trkpt lat="38.1085917" lon="15.6414683"><ele>10.0</ele><time>2026-04-25T13:47:35.654Z</time></trkpt><trkpt lat="38.1084683" lon="15.6412817"><ele>10.333333333333334</ele><time>2026-04-25T13:47:36.654Z</time></trkpt><trkpt lat="38.108345" lon="15.641095"><ele>10.666666666666666</ele><time>2026-04-25T13:47:37.654Z</time></trkpt><trkpt lat="38.108225" lon="15.6409133"><ele>11.0</ele><time>2026-04-25T13:47:38.654Z</time></trkpt><trkpt lat="38.1080933" lon="15.6407117"><ele>11.0</ele><time>2026-04-25T13:47:39.655Z</time></trkpt><trkpt lat="38.1079633" lon="15.6405133"><ele>11.0</ele><time>2026-04-25T13:47:40.654Z</time></trkpt><trkpt lat="38.107845" lon="15.64032"><ele>11.0</ele><time>2026-04-25T13:47:41.654Z</time></trkpt><trkpt lat="38.107735" lon="15.6401567"><ele>10.666666666666666</ele><time>2026-04-25T13:47:42.654Z</time></trkpt><trkpt lat="38.1076233" lon="15.6399917"><ele>10.333333333333334</ele><time>2026-04-25T13:47:43.654Z</time></trkpt><trkpt lat="38.1075183" lon="15.6398283"><ele>10.0</ele><time>2026-04-25T13:47:44.654Z</time></trkpt><trkpt lat="38.107415" lon="15.6396733"><ele>10.25</ele><time>2026-04-25T13:47:45.654Z</time></trkpt><trkpt lat="38.107315" lon="15.6395267"><ele>10.5</ele><time>2026-04-25T13:47:46.654Z</time></trkpt><trkpt lat="38.1072233" lon="15.6393967"><ele>10.75</ele><time>2026-04-25T13:47:47.654Z</time></trkpt><trkpt lat="38.1071283" lon="15.6392767"><ele>11.0</ele><time>2026-04-25T13:47:48.654Z</time></trkpt><trkpt lat="38.1070317" lon="15.6391667"><ele>11.0</ele><time>2026-04-25T13:47:49.654Z</time></trkpt><trkpt lat="38.1069317" lon="15.6390633"><ele>11.0</ele><time>2026-04-25T13:47:50.654Z</time></trkpt><trkpt lat="38.1068383" lon="15.6389683"><ele>11.0</ele><time>2026-04-25T13:47:51.654Z</time></trkpt><trkpt lat="38.1067483" lon="15.638875"><ele>11.0</ele><time>2026-04-25T13:47:52.654Z</time></trkpt><trkpt lat="38.106655" lon="15.6387933"><ele>11.5</ele><time>2026-04-25T13:47:53.655Z</time></trkpt><trkpt lat="38.1065667" lon="15.6387183"><ele>12.0</ele><time>2026-04-25T13:47:54.654Z</time></trkpt><trkpt lat="38.1064883" lon="15.63868"><ele>12.5</ele><time>2026-04-25T13:47:55.654Z</time></trkpt><trkpt lat="38.10642" lon="15.63867"><ele>13.0</ele><time>2026-04-25T13:47:56.654Z</time></trkpt><trkpt lat="38.1063383" lon="15.6387267"><ele>13.500000000000002</ele><time>2026-04-25T13:47:58.654Z</time></trkpt><trkpt lat="38.106375" lon="15.638815"><ele>14.0</ele><time>2026-04-25T13:48:00.654Z</time></trkpt><trkpt lat="38.1064917" lon="15.6389067"><ele>14.000000000000002</ele><time>2026-04-25T13:48:02.654Z</time></trkpt><trkpt lat="38.1065583" lon="15.6389617"><ele>14.0</ele><time>2026-04-25T13:48:03.654Z</time></trkpt><trkpt lat="38.1066183" lon="15.63901"><ele>14.0</ele><time>2026-04-25T13:48:04.654Z</time></trkpt><trkpt lat="38.10667" lon="15.6391"><ele>14.0</ele><time>2026-04-25T13:48:06.654Z</time></trkpt><trkpt lat="38.1066583" lon="15.6391867"><ele>14.000000000000002</ele><time>2026-04-25T13:48:08.654Z</time></trkpt><trkpt lat="38.1066083" lon="15.6393267"><ele>14.0</ele><time>2026-04-25T13:48:10.654Z</time></trkpt><trkpt lat="38.1065617" lon="15.6394267"><ele>14.6</ele><time>2026-04-25T13:48:11.655Z</time></trkpt><trkpt lat="38.106495" lon="15.6395433"><ele>15.2</ele><time>2026-04-25T13:48:12.655Z</time></trkpt><trkpt lat="38.106425" lon="15.6396417"><ele>15.799999999999999</ele><time>2026-04-25T13:48:13.654Z</time></trkpt><trkpt lat="38.1063783" lon="15.6397233"><ele>16.4</ele><time>2026-04-25T13:48:14.654Z</time></trkpt><trkpt lat="38.10634" lon="15.63979"><ele>17.0</ele><time>2026-04-25T13:48:15.654Z</time></trkpt><trkpt lat="38.1062683" lon="15.6399233"><ele>17.0</ele><time>2026-04-25T13:48:17.654Z</time></trkpt><trkpt lat="38.1062317" lon="15.6399967"><ele>17.0</ele><time>2026-04-25T13:48:18.654Z</time></trkpt><trkpt lat="38.10616" lon="15.6401283"><ele>17.0</ele><time>2026-04-25T13:48:20.654Z</time></trkpt><trkpt lat="38.1061283" lon="15.6401983"><ele>17.0</ele><time>2026-04-25T13:48:21.654Z</time></trkpt><trkpt lat="38.1060817" lon="15.6402883"><ele>17.0</ele><time>2026-04-25T13:48:22.654Z</time></trkpt><trkpt lat="38.1060383" lon="15.6403883"><ele>17.0</ele><time>2026-04-25T13:48:23.654Z</time></trkpt><trkpt lat="38.105985" lon="15.6404617"><ele>17.5</ele><time>2026-04-25T13:48:24.655Z</time></trkpt><trkpt lat="38.1059467" lon="15.6405417"><ele>18.0</ele><time>2026-04-25T13:48:25.654Z</time></trkpt><trkpt lat="38.10591" lon="15.64062"><ele>18.5</ele><time>2026-04-25T13:48:26.654Z</time></trkpt><trkpt lat="38.1058633" lon="15.6407167"><ele>19.0</ele><time>2026-04-25T13:48:27.654Z</time></trkpt><trkpt lat="38.105825" lon="15.6408117"><ele>19.5</ele><time>2026-04-25T13:48:28.654Z</time></trkpt><trkpt lat="38.1057983" lon="15.640885"><ele>20.0</ele><time>2026-04-25T13:48:29.654Z</time></trkpt><trkpt lat="38.1058033" lon="15.641005"><ele>20.0</ele><time>2026-04-25T13:48:31.654Z</time></trkpt><trkpt lat="38.1059" lon="15.6411167"><ele>20.0</ele><time>2026-04-25T13:48:33.655Z</time></trkpt><trkpt lat="38.10597" lon="15.64117"><ele>20.0</ele><time>2026-04-25T13:48:34.654Z</time></trkpt><trkpt lat="38.1060233" lon="15.6412833"><ele>20.0</ele><time>2026-04-25T13:48:36.654Z</time></trkpt><trkpt lat="38.1059767" lon="15.6413583"><ele>20.0</ele><time>2026-04-25T13:48:38.655Z</time></trkpt><trkpt lat="38.1059067" lon="15.6414217"><ele>22.0</ele><time>2026-04-25T13:48:40.654Z</time></trkpt><trkpt lat="38.1058467" lon="15.64149"><ele>22.0</ele><time>2026-04-25T13:48:42.654Z</time></trkpt><trkpt lat="38.1057867" lon="15.6415483"><ele>22.0</ele><time>2026-04-25T13:48:44.654Z</time></trkpt><trkpt lat="38.1057267" lon="15.641605"><ele>21.0</ele><time>2026-04-25T13:48:47.654Z</time></trkpt></trkseg></trk></gpx>